<?xml version="1.0" encoding="UTF-8" standalone="no" ?>
<gpx xmlns="http://www.topografix.com/GPX/1/1" xmlns:xsi="http://www.w3.org/2001/XMLSchema-instance" xsi:schemaLocation="http://www.topografix.com/GPX/1/1 http://www.topografix.com/GPX/1/1/gpx.xsd" version="1.1" creator="VisuGPX - https://www.visugpx.com">
  <metadata>
    <name>Étangs hollande</name>
  </metadata>
  <trk>
    <name><![CDATA[Sortie vélo le matin_1]]></name>
    <extensions>
      <line xmlns="http://www.topografix.com/GPX/gpx_style/0/2">
        <color>0000FF</color>
        <width>4</width>
      </line>
    </extensions>
    <trkseg>
      <trkpt lat="48.62256" lon="2.01828">
        <ele>117</ele>
        <time>2026-01-13T08:34:56Z</time>
      </trkpt>
      <trkpt lat="48.62256" lon="2.01828">
        <ele>117</ele>
        <time>2026-01-13T08:34:57Z</time>
      </trkpt>
      <trkpt lat="48.62254" lon="2.01829">
        <ele>118</ele>
        <time>2026-01-13T08:34:58Z</time>
      </trkpt>
      <trkpt lat="48.62252" lon="2.01832">
        <ele>119</ele>
        <time>2026-01-13T08:34:59Z</time>
      </trkpt>
      <trkpt lat="48.6225" lon="2.01834">
        <ele>119.2</ele>
        <time>2026-01-13T08:35:00Z</time>
      </trkpt>
      <trkpt lat="48.62249" lon="2.01837">
        <ele>119.2</ele>
        <time>2026-01-13T08:35:01Z</time>
      </trkpt>
      <trkpt lat="48.62247" lon="2.0184">
        <ele>119.2</ele>
        <time>2026-01-13T08:35:02Z</time>
      </trkpt>
      <trkpt lat="48.62246" lon="2.01843">
        <ele>119.2</ele>
        <time>2026-01-13T08:35:03Z</time>
      </trkpt>
      <trkpt lat="48.62246" lon="2.01847">
        <ele>119.2</ele>
        <time>2026-01-13T08:35:04Z</time>
      </trkpt>
      <trkpt lat="48.62247" lon="2.01851">
        <ele>119.2</ele>
        <time>2026-01-13T08:35:05Z</time>
      </trkpt>
      <trkpt lat="48.62248" lon="2.01856">
        <ele>119.2</ele>
        <time>2026-01-13T08:35:06Z</time>
      </trkpt>
      <trkpt lat="48.62249" lon="2.0186">
        <ele>119.2</ele>
        <time>2026-01-13T08:35:07Z</time>
      </trkpt>
      <trkpt lat="48.62251" lon="2.01864">
        <ele>119.2</ele>
        <time>2026-01-13T08:35:08Z</time>
      </trkpt>
      <trkpt lat="48.62252" lon="2.01868">
        <ele>119.2</ele>
        <time>2026-01-13T08:35:09Z</time>
      </trkpt>
      <trkpt lat="48.62251" lon="2.01872">
        <ele>119.4</ele>
        <time>2026-01-13T08:35:10Z</time>
      </trkpt>
      <trkpt lat="48.62248" lon="2.01875">
        <ele>119.4</ele>
        <time>2026-01-13T08:35:11Z</time>
      </trkpt>
      <trkpt lat="48.62245" lon="2.01877">
        <ele>119.4</ele>
        <time>2026-01-13T08:35:12Z</time>
      </trkpt>
      <trkpt lat="48.62242" lon="2.01877">
        <ele>119.4</ele>
        <time>2026-01-13T08:35:13Z</time>
      </trkpt>
      <trkpt lat="48.62239" lon="2.01875">
        <ele>119.4</ele>
        <time>2026-01-13T08:35:14Z</time>
      </trkpt>
      <trkpt lat="48.62236" lon="2.01871">
        <ele>119.2</ele>
        <time>2026-01-13T08:35:15Z</time>
      </trkpt>
      <trkpt lat="48.62235" lon="2.01866">
        <ele>119</ele>
        <time>2026-01-13T08:35:16Z</time>
      </trkpt>
      <trkpt lat="48.62236" lon="2.01861">
        <ele>119</ele>
        <time>2026-01-13T08:35:17Z</time>
      </trkpt>
      <trkpt lat="48.62236" lon="2.01855">
        <ele>119</ele>
        <time>2026-01-13T08:35:18Z</time>
      </trkpt>
      <trkpt lat="48.62237" lon="2.0185">
        <ele>119</ele>
        <time>2026-01-13T08:35:19Z</time>
      </trkpt>
      <trkpt lat="48.62238" lon="2.01843">
        <ele>119</ele>
        <time>2026-01-13T08:35:20Z</time>
      </trkpt>
      <trkpt lat="48.62239" lon="2.01837">
        <ele>119</ele>
        <time>2026-01-13T08:35:21Z</time>
      </trkpt>
      <trkpt lat="48.62239" lon="2.01831">
        <ele>119</ele>
        <time>2026-01-13T08:35:22Z</time>
      </trkpt>
      <trkpt lat="48.62239" lon="2.01824">
        <ele>119</ele>
        <time>2026-01-13T08:35:23Z</time>
      </trkpt>
      <trkpt lat="48.62239" lon="2.01818">
        <ele>119</ele>
        <time>2026-01-13T08:35:24Z</time>
      </trkpt>
      <trkpt lat="48.62239" lon="2.01811">
        <ele>119</ele>
        <time>2026-01-13T08:35:25Z</time>
      </trkpt>
      <trkpt lat="48.6224" lon="2.01804">
        <ele>119</ele>
        <time>2026-01-13T08:35:26Z</time>
      </trkpt>
      <trkpt lat="48.6224" lon="2.01797">
        <ele>119</ele>
        <time>2026-01-13T08:35:27Z</time>
      </trkpt>
      <trkpt lat="48.6224" lon="2.01791">
        <ele>119</ele>
        <time>2026-01-13T08:35:28Z</time>
      </trkpt>
      <trkpt lat="48.62241" lon="2.01784">
        <ele>119</ele>
        <time>2026-01-13T08:35:29Z</time>
      </trkpt>
      <trkpt lat="48.62242" lon="2.01777">
        <ele>119</ele>
        <time>2026-01-13T08:35:30Z</time>
      </trkpt>
      <trkpt lat="48.62242" lon="2.0177">
        <ele>119</ele>
        <time>2026-01-13T08:35:31Z</time>
      </trkpt>
      <trkpt lat="48.62243" lon="2.01764">
        <ele>119</ele>
        <time>2026-01-13T08:35:32Z</time>
      </trkpt>
      <trkpt lat="48.62244" lon="2.01757">
        <ele>119</ele>
        <time>2026-01-13T08:35:33Z</time>
      </trkpt>
      <trkpt lat="48.62245" lon="2.01751">
        <ele>119</ele>
        <time>2026-01-13T08:35:34Z</time>
      </trkpt>
      <trkpt lat="48.62245" lon="2.01745">
        <ele>119</ele>
        <time>2026-01-13T08:35:35Z</time>
      </trkpt>
      <trkpt lat="48.62246" lon="2.01738">
        <ele>119</ele>
        <time>2026-01-13T08:35:36Z</time>
      </trkpt>
      <trkpt lat="48.62248" lon="2.01732">
        <ele>119</ele>
        <time>2026-01-13T08:35:37Z</time>
      </trkpt>
      <trkpt lat="48.62249" lon="2.01726">
        <ele>119</ele>
        <time>2026-01-13T08:35:38Z</time>
      </trkpt>
      <trkpt lat="48.6225" lon="2.01719">
        <ele>119</ele>
        <time>2026-01-13T08:35:39Z</time>
      </trkpt>
      <trkpt lat="48.62252" lon="2.01712">
        <ele>119</ele>
        <time>2026-01-13T08:35:40Z</time>
      </trkpt>
      <trkpt lat="48.62254" lon="2.01706">
        <ele>119</ele>
        <time>2026-01-13T08:35:41Z</time>
      </trkpt>
      <trkpt lat="48.62255" lon="2.017">
        <ele>119</ele>
        <time>2026-01-13T08:35:42Z</time>
      </trkpt>
      <trkpt lat="48.62257" lon="2.01694">
        <ele>119</ele>
        <time>2026-01-13T08:35:43Z</time>
      </trkpt>
      <trkpt lat="48.62257" lon="2.01688">
        <ele>119</ele>
        <time>2026-01-13T08:35:44Z</time>
      </trkpt>
      <trkpt lat="48.62257" lon="2.01683">
        <ele>119.2</ele>
        <time>2026-01-13T08:35:45Z</time>
      </trkpt>
      <trkpt lat="48.62258" lon="2.01677">
        <ele>119.4</ele>
        <time>2026-01-13T08:35:46Z</time>
      </trkpt>
      <trkpt lat="48.62258" lon="2.01671">
        <ele>119.8</ele>
        <time>2026-01-13T08:35:47Z</time>
      </trkpt>
      <trkpt lat="48.62258" lon="2.01664">
        <ele>119.8</ele>
        <time>2026-01-13T08:35:48Z</time>
      </trkpt>
      <trkpt lat="48.62258" lon="2.01657">
        <ele>119.8</ele>
        <time>2026-01-13T08:35:49Z</time>
      </trkpt>
      <trkpt lat="48.62258" lon="2.0165">
        <ele>119.8</ele>
        <time>2026-01-13T08:35:50Z</time>
      </trkpt>
      <trkpt lat="48.62257" lon="2.01643">
        <ele>119.8</ele>
        <time>2026-01-13T08:35:51Z</time>
      </trkpt>
      <trkpt lat="48.62257" lon="2.01636">
        <ele>119.8</ele>
        <time>2026-01-13T08:35:52Z</time>
      </trkpt>
      <trkpt lat="48.62257" lon="2.01628">
        <ele>120</ele>
        <time>2026-01-13T08:35:53Z</time>
      </trkpt>
      <trkpt lat="48.62257" lon="2.0162">
        <ele>120</ele>
        <time>2026-01-13T08:35:54Z</time>
      </trkpt>
      <trkpt lat="48.62257" lon="2.01612">
        <ele>120</ele>
        <time>2026-01-13T08:35:55Z</time>
      </trkpt>
      <trkpt lat="48.62257" lon="2.01604">
        <ele>120</ele>
        <time>2026-01-13T08:35:56Z</time>
      </trkpt>
      <trkpt lat="48.62257" lon="2.01596">
        <ele>120</ele>
        <time>2026-01-13T08:35:57Z</time>
      </trkpt>
      <trkpt lat="48.62257" lon="2.01588">
        <ele>120</ele>
        <time>2026-01-13T08:35:58Z</time>
      </trkpt>
      <trkpt lat="48.62257" lon="2.01579">
        <ele>120</ele>
        <time>2026-01-13T08:35:59Z</time>
      </trkpt>
      <trkpt lat="48.62257" lon="2.01571">
        <ele>120</ele>
        <time>2026-01-13T08:36:00Z</time>
      </trkpt>
      <trkpt lat="48.62257" lon="2.01563">
        <ele>120</ele>
        <time>2026-01-13T08:36:01Z</time>
      </trkpt>
      <trkpt lat="48.62257" lon="2.01555">
        <ele>120</ele>
        <time>2026-01-13T08:36:02Z</time>
      </trkpt>
      <trkpt lat="48.62257" lon="2.01547">
        <ele>120</ele>
        <time>2026-01-13T08:36:03Z</time>
      </trkpt>
      <trkpt lat="48.62257" lon="2.01539">
        <ele>120</ele>
        <time>2026-01-13T08:36:04Z</time>
      </trkpt>
      <trkpt lat="48.62256" lon="2.0153">
        <ele>120</ele>
        <time>2026-01-13T08:36:05Z</time>
      </trkpt>
      <trkpt lat="48.62256" lon="2.01522">
        <ele>120.8</ele>
        <time>2026-01-13T08:36:06Z</time>
      </trkpt>
      <trkpt lat="48.62256" lon="2.01514">
        <ele>120.8</ele>
        <time>2026-01-13T08:36:07Z</time>
      </trkpt>
      <trkpt lat="48.62256" lon="2.01505">
        <ele>120.8</ele>
        <time>2026-01-13T08:36:08Z</time>
      </trkpt>
      <trkpt lat="48.62256" lon="2.01497">
        <ele>120.8</ele>
        <time>2026-01-13T08:36:09Z</time>
      </trkpt>
      <trkpt lat="48.62255" lon="2.01488">
        <ele>120.8</ele>
        <time>2026-01-13T08:36:10Z</time>
      </trkpt>
      <trkpt lat="48.62255" lon="2.0148">
        <ele>120.8</ele>
        <time>2026-01-13T08:36:11Z</time>
      </trkpt>
      <trkpt lat="48.62255" lon="2.01472">
        <ele>120.8</ele>
        <time>2026-01-13T08:36:12Z</time>
      </trkpt>
      <trkpt lat="48.62255" lon="2.01463">
        <ele>120.6</ele>
        <time>2026-01-13T08:36:13Z</time>
      </trkpt>
      <trkpt lat="48.62255" lon="2.01455">
        <ele>120.6</ele>
        <time>2026-01-13T08:36:14Z</time>
      </trkpt>
      <trkpt lat="48.62255" lon="2.01448">
        <ele>120.6</ele>
        <time>2026-01-13T08:36:15Z</time>
      </trkpt>
      <trkpt lat="48.62255" lon="2.0144">
        <ele>120.6</ele>
        <time>2026-01-13T08:36:16Z</time>
      </trkpt>
      <trkpt lat="48.62255" lon="2.01432">
        <ele>120.6</ele>
        <time>2026-01-13T08:36:17Z</time>
      </trkpt>
      <trkpt lat="48.62255" lon="2.01424">
        <ele>120.6</ele>
        <time>2026-01-13T08:36:18Z</time>
      </trkpt>
      <trkpt lat="48.62255" lon="2.01416">
        <ele>120.6</ele>
        <time>2026-01-13T08:36:19Z</time>
      </trkpt>
      <trkpt lat="48.62255" lon="2.01409">
        <ele>120.6</ele>
        <time>2026-01-13T08:36:20Z</time>
      </trkpt>
      <trkpt lat="48.62255" lon="2.01401">
        <ele>121</ele>
        <time>2026-01-13T08:36:21Z</time>
      </trkpt>
      <trkpt lat="48.62255" lon="2.01393">
        <ele>121.4</ele>
        <time>2026-01-13T08:36:22Z</time>
      </trkpt>
      <trkpt lat="48.62255" lon="2.01386">
        <ele>121.4</ele>
        <time>2026-01-13T08:36:23Z</time>
      </trkpt>
      <trkpt lat="48.62256" lon="2.01378">
        <ele>121.4</ele>
        <time>2026-01-13T08:36:24Z</time>
      </trkpt>
      <trkpt lat="48.62256" lon="2.01371">
        <ele>121.4</ele>
        <time>2026-01-13T08:36:25Z</time>
      </trkpt>
      <trkpt lat="48.62255" lon="2.01363">
        <ele>122</ele>
        <time>2026-01-13T08:36:26Z</time>
      </trkpt>
      <trkpt lat="48.62256" lon="2.01356">
        <ele>122</ele>
        <time>2026-01-13T08:36:27Z</time>
      </trkpt>
      <trkpt lat="48.62256" lon="2.01349">
        <ele>122</ele>
        <time>2026-01-13T08:36:28Z</time>
      </trkpt>
      <trkpt lat="48.62256" lon="2.01341">
        <ele>122</ele>
        <time>2026-01-13T08:36:29Z</time>
      </trkpt>
      <trkpt lat="48.62256" lon="2.01334">
        <ele>122</ele>
        <time>2026-01-13T08:36:30Z</time>
      </trkpt>
      <trkpt lat="48.62256" lon="2.01327">
        <ele>123</ele>
        <time>2026-01-13T08:36:31Z</time>
      </trkpt>
      <trkpt lat="48.62256" lon="2.0132">
        <ele>123</ele>
        <time>2026-01-13T08:36:32Z</time>
      </trkpt>
      <trkpt lat="48.62256" lon="2.01314">
        <ele>123</ele>
        <time>2026-01-13T08:36:33Z</time>
      </trkpt>
      <trkpt lat="48.62256" lon="2.01307">
        <ele>123</ele>
        <time>2026-01-13T08:36:34Z</time>
      </trkpt>
      <trkpt lat="48.62256" lon="2.01301">
        <ele>123.4</ele>
        <time>2026-01-13T08:36:35Z</time>
      </trkpt>
      <trkpt lat="48.62256" lon="2.01294">
        <ele>123.4</ele>
        <time>2026-01-13T08:36:36Z</time>
      </trkpt>
      <trkpt lat="48.62256" lon="2.01288">
        <ele>123.4</ele>
        <time>2026-01-13T08:36:37Z</time>
      </trkpt>
      <trkpt lat="48.62256" lon="2.01281">
        <ele>123.4</ele>
        <time>2026-01-13T08:36:38Z</time>
      </trkpt>
      <trkpt lat="48.62256" lon="2.01275">
        <ele>124</ele>
        <time>2026-01-13T08:36:39Z</time>
      </trkpt>
      <trkpt lat="48.62257" lon="2.01268">
        <ele>124</ele>
        <time>2026-01-13T08:36:40Z</time>
      </trkpt>
      <trkpt lat="48.62257" lon="2.01262">
        <ele>124</ele>
        <time>2026-01-13T08:36:41Z</time>
      </trkpt>
      <trkpt lat="48.62257" lon="2.01255">
        <ele>124</ele>
        <time>2026-01-13T08:36:42Z</time>
      </trkpt>
      <trkpt lat="48.62257" lon="2.01249">
        <ele>124</ele>
        <time>2026-01-13T08:36:43Z</time>
      </trkpt>
      <trkpt lat="48.62257" lon="2.01242">
        <ele>124.8</ele>
        <time>2026-01-13T08:36:44Z</time>
      </trkpt>
      <trkpt lat="48.62257" lon="2.01236">
        <ele>125.2</ele>
        <time>2026-01-13T08:36:45Z</time>
      </trkpt>
      <trkpt lat="48.62257" lon="2.01229">
        <ele>125.2</ele>
        <time>2026-01-13T08:36:46Z</time>
      </trkpt>
      <trkpt lat="48.62257" lon="2.01223">
        <ele>125.2</ele>
        <time>2026-01-13T08:36:47Z</time>
      </trkpt>
      <trkpt lat="48.62258" lon="2.01217">
        <ele>125.2</ele>
        <time>2026-01-13T08:36:48Z</time>
      </trkpt>
      <trkpt lat="48.62258" lon="2.01211">
        <ele>125.2</ele>
        <time>2026-01-13T08:36:49Z</time>
      </trkpt>
      <trkpt lat="48.62258" lon="2.01205">
        <ele>125.2</ele>
        <time>2026-01-13T08:36:50Z</time>
      </trkpt>
      <trkpt lat="48.62258" lon="2.01198">
        <ele>125.2</ele>
        <time>2026-01-13T08:36:51Z</time>
      </trkpt>
      <trkpt lat="48.62259" lon="2.01192">
        <ele>125.2</ele>
        <time>2026-01-13T08:36:52Z</time>
      </trkpt>
      <trkpt lat="48.62259" lon="2.01185">
        <ele>125.4</ele>
        <time>2026-01-13T08:36:53Z</time>
      </trkpt>
      <trkpt lat="48.62259" lon="2.01178">
        <ele>125.4</ele>
        <time>2026-01-13T08:36:54Z</time>
      </trkpt>
      <trkpt lat="48.6226" lon="2.01172">
        <ele>125.4</ele>
        <time>2026-01-13T08:36:55Z</time>
      </trkpt>
      <trkpt lat="48.6226" lon="2.01165">
        <ele>125.4</ele>
        <time>2026-01-13T08:36:56Z</time>
      </trkpt>
      <trkpt lat="48.6226" lon="2.01158">
        <ele>125.4</ele>
        <time>2026-01-13T08:36:57Z</time>
      </trkpt>
      <trkpt lat="48.6226" lon="2.01152">
        <ele>125.4</ele>
        <time>2026-01-13T08:36:58Z</time>
      </trkpt>
      <trkpt lat="48.6226" lon="2.01145">
        <ele>125.4</ele>
        <time>2026-01-13T08:36:59Z</time>
      </trkpt>
      <trkpt lat="48.6226" lon="2.01139">
        <ele>125.4</ele>
        <time>2026-01-13T08:37:00Z</time>
      </trkpt>
      <trkpt lat="48.6226" lon="2.01131">
        <ele>125.4</ele>
        <time>2026-01-13T08:37:01Z</time>
      </trkpt>
      <trkpt lat="48.62261" lon="2.01124">
        <ele>124.6</ele>
        <time>2026-01-13T08:37:02Z</time>
      </trkpt>
      <trkpt lat="48.62261" lon="2.01117">
        <ele>123.6</ele>
        <time>2026-01-13T08:37:03Z</time>
      </trkpt>
      <trkpt lat="48.6226" lon="2.01108">
        <ele>123.6</ele>
        <time>2026-01-13T08:37:04Z</time>
      </trkpt>
      <trkpt lat="48.6226" lon="2.01099">
        <ele>123.2</ele>
        <time>2026-01-13T08:37:05Z</time>
      </trkpt>
      <trkpt lat="48.62259" lon="2.01089">
        <ele>122.6</ele>
        <time>2026-01-13T08:37:06Z</time>
      </trkpt>
      <trkpt lat="48.62259" lon="2.01081">
        <ele>122.2</ele>
        <time>2026-01-13T08:37:07Z</time>
      </trkpt>
      <trkpt lat="48.62258" lon="2.01071">
        <ele>121.6</ele>
        <time>2026-01-13T08:37:08Z</time>
      </trkpt>
      <trkpt lat="48.62258" lon="2.01062">
        <ele>121.6</ele>
        <time>2026-01-13T08:37:09Z</time>
      </trkpt>
      <trkpt lat="48.62257" lon="2.01052">
        <ele>121.6</ele>
        <time>2026-01-13T08:37:10Z</time>
      </trkpt>
      <trkpt lat="48.62257" lon="2.01042">
        <ele>121.6</ele>
        <time>2026-01-13T08:37:11Z</time>
      </trkpt>
      <trkpt lat="48.62256" lon="2.01031">
        <ele>120.6</ele>
        <time>2026-01-13T08:37:12Z</time>
      </trkpt>
      <trkpt lat="48.62255" lon="2.01021">
        <ele>119.6</ele>
        <time>2026-01-13T08:37:13Z</time>
      </trkpt>
      <trkpt lat="48.62254" lon="2.01009">
        <ele>118.6</ele>
        <time>2026-01-13T08:37:14Z</time>
      </trkpt>
      <trkpt lat="48.62253" lon="2.00998">
        <ele>118.4</ele>
        <time>2026-01-13T08:37:15Z</time>
      </trkpt>
      <trkpt lat="48.62251" lon="2.00985">
        <ele>117.8</ele>
        <time>2026-01-13T08:37:16Z</time>
      </trkpt>
      <trkpt lat="48.62249" lon="2.00971">
        <ele>117.4</ele>
        <time>2026-01-13T08:37:17Z</time>
      </trkpt>
      <trkpt lat="48.62247" lon="2.00957">
        <ele>116.4</ele>
        <time>2026-01-13T08:37:18Z</time>
      </trkpt>
      <trkpt lat="48.62246" lon="2.00944">
        <ele>115.4</ele>
        <time>2026-01-13T08:37:19Z</time>
      </trkpt>
      <trkpt lat="48.62243" lon="2.00929">
        <ele>114.6</ele>
        <time>2026-01-13T08:37:20Z</time>
      </trkpt>
      <trkpt lat="48.62241" lon="2.00915">
        <ele>113.6</ele>
        <time>2026-01-13T08:37:21Z</time>
      </trkpt>
      <trkpt lat="48.62239" lon="2.00901">
        <ele>112.6</ele>
        <time>2026-01-13T08:37:22Z</time>
      </trkpt>
      <trkpt lat="48.62236" lon="2.00885">
        <ele>112.4</ele>
        <time>2026-01-13T08:37:23Z</time>
      </trkpt>
      <trkpt lat="48.62233" lon="2.00869">
        <ele>111.6</ele>
        <time>2026-01-13T08:37:24Z</time>
      </trkpt>
      <trkpt lat="48.62232" lon="2.00854">
        <ele>110.6</ele>
        <time>2026-01-13T08:37:25Z</time>
      </trkpt>
      <trkpt lat="48.6223" lon="2.00838">
        <ele>110.4</ele>
        <time>2026-01-13T08:37:26Z</time>
      </trkpt>
      <trkpt lat="48.62228" lon="2.00822">
        <ele>110</ele>
        <time>2026-01-13T08:37:27Z</time>
      </trkpt>
      <trkpt lat="48.62225" lon="2.00804">
        <ele>109</ele>
        <time>2026-01-13T08:37:28Z</time>
      </trkpt>
      <trkpt lat="48.62223" lon="2.00787">
        <ele>108.2</ele>
        <time>2026-01-13T08:37:29Z</time>
      </trkpt>
      <trkpt lat="48.62221" lon="2.00771">
        <ele>107.2</ele>
        <time>2026-01-13T08:37:30Z</time>
      </trkpt>
      <trkpt lat="48.62218" lon="2.00755">
        <ele>106.8</ele>
        <time>2026-01-13T08:37:31Z</time>
      </trkpt>
      <trkpt lat="48.62218" lon="2.0074">
        <ele>106.8</ele>
        <time>2026-01-13T08:37:32Z</time>
      </trkpt>
      <trkpt lat="48.62216" lon="2.00725">
        <ele>106.8</ele>
        <time>2026-01-13T08:37:33Z</time>
      </trkpt>
      <trkpt lat="48.62214" lon="2.0071">
        <ele>107</ele>
        <time>2026-01-13T08:37:34Z</time>
      </trkpt>
      <trkpt lat="48.62212" lon="2.00695">
        <ele>107</ele>
        <time>2026-01-13T08:37:35Z</time>
      </trkpt>
      <trkpt lat="48.62211" lon="2.00681">
        <ele>107</ele>
        <time>2026-01-13T08:37:36Z</time>
      </trkpt>
      <trkpt lat="48.62209" lon="2.00666">
        <ele>107</ele>
        <time>2026-01-13T08:37:37Z</time>
      </trkpt>
      <trkpt lat="48.62207" lon="2.00652">
        <ele>107</ele>
        <time>2026-01-13T08:37:38Z</time>
      </trkpt>
      <trkpt lat="48.62206" lon="2.00639">
        <ele>107.2</ele>
        <time>2026-01-13T08:37:39Z</time>
      </trkpt>
      <trkpt lat="48.62204" lon="2.00626">
        <ele>107.2</ele>
        <time>2026-01-13T08:37:40Z</time>
      </trkpt>
      <trkpt lat="48.62203" lon="2.00613">
        <ele>107.2</ele>
        <time>2026-01-13T08:37:41Z</time>
      </trkpt>
      <trkpt lat="48.62203" lon="2.006">
        <ele>107.2</ele>
        <time>2026-01-13T08:37:42Z</time>
      </trkpt>
      <trkpt lat="48.62202" lon="2.00587">
        <ele>107.2</ele>
        <time>2026-01-13T08:37:43Z</time>
      </trkpt>
      <trkpt lat="48.622" lon="2.00573">
        <ele>107.2</ele>
        <time>2026-01-13T08:37:44Z</time>
      </trkpt>
      <trkpt lat="48.62198" lon="2.00561">
        <ele>107.2</ele>
        <time>2026-01-13T08:37:45Z</time>
      </trkpt>
      <trkpt lat="48.62197" lon="2.00548">
        <ele>107.6</ele>
        <time>2026-01-13T08:37:46Z</time>
      </trkpt>
      <trkpt lat="48.62196" lon="2.00535">
        <ele>107.6</ele>
        <time>2026-01-13T08:37:47Z</time>
      </trkpt>
      <trkpt lat="48.62195" lon="2.00523">
        <ele>107.6</ele>
        <time>2026-01-13T08:37:48Z</time>
      </trkpt>
      <trkpt lat="48.62193" lon="2.0051">
        <ele>107.6</ele>
        <time>2026-01-13T08:37:49Z</time>
      </trkpt>
      <trkpt lat="48.62191" lon="2.00498">
        <ele>107.6</ele>
        <time>2026-01-13T08:37:50Z</time>
      </trkpt>
      <trkpt lat="48.6219" lon="2.00486">
        <ele>107.6</ele>
        <time>2026-01-13T08:37:51Z</time>
      </trkpt>
      <trkpt lat="48.62189" lon="2.00474">
        <ele>107.6</ele>
        <time>2026-01-13T08:37:52Z</time>
      </trkpt>
      <trkpt lat="48.62187" lon="2.00461">
        <ele>108.4</ele>
        <time>2026-01-13T08:37:53Z</time>
      </trkpt>
      <trkpt lat="48.62186" lon="2.00449">
        <ele>108.4</ele>
        <time>2026-01-13T08:37:54Z</time>
      </trkpt>
      <trkpt lat="48.62185" lon="2.00438">
        <ele>108.4</ele>
        <time>2026-01-13T08:37:55Z</time>
      </trkpt>
      <trkpt lat="48.62184" lon="2.00426">
        <ele>107.4</ele>
        <time>2026-01-13T08:37:56Z</time>
      </trkpt>
      <trkpt lat="48.62182" lon="2.00415">
        <ele>107.4</ele>
        <time>2026-01-13T08:37:57Z</time>
      </trkpt>
      <trkpt lat="48.6218" lon="2.00403">
        <ele>107.4</ele>
        <time>2026-01-13T08:37:58Z</time>
      </trkpt>
      <trkpt lat="48.62178" lon="2.00392">
        <ele>107.4</ele>
        <time>2026-01-13T08:37:59Z</time>
      </trkpt>
      <trkpt lat="48.62176" lon="2.0038">
        <ele>107.4</ele>
        <time>2026-01-13T08:38:00Z</time>
      </trkpt>
      <trkpt lat="48.62175" lon="2.00369">
        <ele>107.4</ele>
        <time>2026-01-13T08:38:01Z</time>
      </trkpt>
      <trkpt lat="48.62173" lon="2.00357">
        <ele>107.4</ele>
        <time>2026-01-13T08:38:02Z</time>
      </trkpt>
      <trkpt lat="48.62171" lon="2.00345">
        <ele>107.4</ele>
        <time>2026-01-13T08:38:03Z</time>
      </trkpt>
      <trkpt lat="48.6217" lon="2.00334">
        <ele>106.8</ele>
        <time>2026-01-13T08:38:04Z</time>
      </trkpt>
      <trkpt lat="48.62168" lon="2.00323">
        <ele>106.8</ele>
        <time>2026-01-13T08:38:05Z</time>
      </trkpt>
      <trkpt lat="48.62166" lon="2.00312">
        <ele>106.8</ele>
        <time>2026-01-13T08:38:06Z</time>
      </trkpt>
      <trkpt lat="48.62164" lon="2.00301">
        <ele>106.8</ele>
        <time>2026-01-13T08:38:07Z</time>
      </trkpt>
      <trkpt lat="48.62162" lon="2.0029">
        <ele>107.8</ele>
        <time>2026-01-13T08:38:08Z</time>
      </trkpt>
      <trkpt lat="48.62161" lon="2.0028">
        <ele>107.8</ele>
        <time>2026-01-13T08:38:09Z</time>
      </trkpt>
      <trkpt lat="48.6216" lon="2.0027">
        <ele>107.8</ele>
        <time>2026-01-13T08:38:10Z</time>
      </trkpt>
      <trkpt lat="48.62157" lon="2.0026">
        <ele>107.8</ele>
        <time>2026-01-13T08:38:11Z</time>
      </trkpt>
      <trkpt lat="48.62154" lon="2.00251">
        <ele>107.8</ele>
        <time>2026-01-13T08:38:12Z</time>
      </trkpt>
      <trkpt lat="48.6215" lon="2.00241">
        <ele>107.8</ele>
        <time>2026-01-13T08:38:13Z</time>
      </trkpt>
      <trkpt lat="48.62147" lon="2.00232">
        <ele>107.2</ele>
        <time>2026-01-13T08:38:14Z</time>
      </trkpt>
      <trkpt lat="48.62144" lon="2.00222">
        <ele>106.4</ele>
        <time>2026-01-13T08:38:15Z</time>
      </trkpt>
      <trkpt lat="48.6214" lon="2.00212">
        <ele>106.2</ele>
        <time>2026-01-13T08:38:16Z</time>
      </trkpt>
      <trkpt lat="48.62137" lon="2.00202">
        <ele>106</ele>
        <time>2026-01-13T08:38:17Z</time>
      </trkpt>
      <trkpt lat="48.62133" lon="2.00192">
        <ele>106</ele>
        <time>2026-01-13T08:38:18Z</time>
      </trkpt>
      <trkpt lat="48.62129" lon="2.00182">
        <ele>106</ele>
        <time>2026-01-13T08:38:19Z</time>
      </trkpt>
      <trkpt lat="48.62125" lon="2.00172">
        <ele>106</ele>
        <time>2026-01-13T08:38:20Z</time>
      </trkpt>
      <trkpt lat="48.62121" lon="2.00162">
        <ele>105</ele>
        <time>2026-01-13T08:38:21Z</time>
      </trkpt>
      <trkpt lat="48.62117" lon="2.00152">
        <ele>104</ele>
        <time>2026-01-13T08:38:22Z</time>
      </trkpt>
      <trkpt lat="48.62113" lon="2.00141">
        <ele>103.6</ele>
        <time>2026-01-13T08:38:23Z</time>
      </trkpt>
      <trkpt lat="48.62109" lon="2.00131">
        <ele>103.6</ele>
        <time>2026-01-13T08:38:24Z</time>
      </trkpt>
      <trkpt lat="48.62105" lon="2.0012">
        <ele>103.6</ele>
        <time>2026-01-13T08:38:25Z</time>
      </trkpt>
      <trkpt lat="48.62101" lon="2.0011">
        <ele>103.6</ele>
        <time>2026-01-13T08:38:26Z</time>
      </trkpt>
      <trkpt lat="48.62098" lon="2.001">
        <ele>103.6</ele>
        <time>2026-01-13T08:38:27Z</time>
      </trkpt>
      <trkpt lat="48.62095" lon="2.0009">
        <ele>103.6</ele>
        <time>2026-01-13T08:38:28Z</time>
      </trkpt>
      <trkpt lat="48.62091" lon="2.00079">
        <ele>103</ele>
        <time>2026-01-13T08:38:29Z</time>
      </trkpt>
      <trkpt lat="48.62087" lon="2.00069">
        <ele>103</ele>
        <time>2026-01-13T08:38:30Z</time>
      </trkpt>
      <trkpt lat="48.62084" lon="2.00058">
        <ele>102.6</ele>
        <time>2026-01-13T08:38:31Z</time>
      </trkpt>
      <trkpt lat="48.6208" lon="2.00048">
        <ele>102.6</ele>
        <time>2026-01-13T08:38:32Z</time>
      </trkpt>
      <trkpt lat="48.62077" lon="2.00037">
        <ele>102.6</ele>
        <time>2026-01-13T08:38:33Z</time>
      </trkpt>
      <trkpt lat="48.62075" lon="2.00026">
        <ele>102.8</ele>
        <time>2026-01-13T08:38:34Z</time>
      </trkpt>
      <trkpt lat="48.62073" lon="2.00014">
        <ele>102.8</ele>
        <time>2026-01-13T08:38:35Z</time>
      </trkpt>
      <trkpt lat="48.62071" lon="2.00003">
        <ele>102.8</ele>
        <time>2026-01-13T08:38:36Z</time>
      </trkpt>
      <trkpt lat="48.6207" lon="1.99992">
        <ele>102.8</ele>
        <time>2026-01-13T08:38:37Z</time>
      </trkpt>
      <trkpt lat="48.62068" lon="1.99981">
        <ele>102.8</ele>
        <time>2026-01-13T08:38:38Z</time>
      </trkpt>
      <trkpt lat="48.62067" lon="1.99971">
        <ele>102.8</ele>
        <time>2026-01-13T08:38:39Z</time>
      </trkpt>
      <trkpt lat="48.62066" lon="1.9996">
        <ele>102.8</ele>
        <time>2026-01-13T08:38:40Z</time>
      </trkpt>
      <trkpt lat="48.62064" lon="1.99949">
        <ele>103.4</ele>
        <time>2026-01-13T08:38:41Z</time>
      </trkpt>
      <trkpt lat="48.62063" lon="1.99939">
        <ele>103.4</ele>
        <time>2026-01-13T08:38:42Z</time>
      </trkpt>
      <trkpt lat="48.62062" lon="1.9993">
        <ele>103.4</ele>
        <time>2026-01-13T08:38:43Z</time>
      </trkpt>
      <trkpt lat="48.62061" lon="1.9992">
        <ele>103.4</ele>
        <time>2026-01-13T08:38:44Z</time>
      </trkpt>
      <trkpt lat="48.62061" lon="1.99911">
        <ele>103.4</ele>
        <time>2026-01-13T08:38:45Z</time>
      </trkpt>
      <trkpt lat="48.62064" lon="1.99904">
        <ele>103.6</ele>
        <time>2026-01-13T08:38:46Z</time>
      </trkpt>
      <trkpt lat="48.62068" lon="1.99898">
        <ele>103.6</ele>
        <time>2026-01-13T08:38:47Z</time>
      </trkpt>
      <trkpt lat="48.62072" lon="1.99893">
        <ele>103.6</ele>
        <time>2026-01-13T08:38:48Z</time>
      </trkpt>
      <trkpt lat="48.62077" lon="1.99888">
        <ele>103.6</ele>
        <time>2026-01-13T08:38:49Z</time>
      </trkpt>
      <trkpt lat="48.62082" lon="1.99884">
        <ele>104.6</ele>
        <time>2026-01-13T08:38:50Z</time>
      </trkpt>
      <trkpt lat="48.62087" lon="1.9988">
        <ele>104.6</ele>
        <time>2026-01-13T08:38:51Z</time>
      </trkpt>
      <trkpt lat="48.62092" lon="1.99876">
        <ele>104.6</ele>
        <time>2026-01-13T08:38:52Z</time>
      </trkpt>
      <trkpt lat="48.62097" lon="1.99873">
        <ele>104.6</ele>
        <time>2026-01-13T08:38:53Z</time>
      </trkpt>
      <trkpt lat="48.62103" lon="1.9987">
        <ele>104.6</ele>
        <time>2026-01-13T08:38:54Z</time>
      </trkpt>
      <trkpt lat="48.62108" lon="1.99866">
        <ele>104.6</ele>
        <time>2026-01-13T08:38:55Z</time>
      </trkpt>
      <trkpt lat="48.62113" lon="1.99862">
        <ele>104.6</ele>
        <time>2026-01-13T08:38:56Z</time>
      </trkpt>
      <trkpt lat="48.62118" lon="1.99859">
        <ele>104.6</ele>
        <time>2026-01-13T08:38:57Z</time>
      </trkpt>
      <trkpt lat="48.62123" lon="1.99856">
        <ele>105.2</ele>
        <time>2026-01-13T08:38:58Z</time>
      </trkpt>
      <trkpt lat="48.62127" lon="1.99852">
        <ele>105.8</ele>
        <time>2026-01-13T08:38:59Z</time>
      </trkpt>
      <trkpt lat="48.62132" lon="1.99849">
        <ele>106</ele>
        <time>2026-01-13T08:39:00Z</time>
      </trkpt>
      <trkpt lat="48.62136" lon="1.99845">
        <ele>106</ele>
        <time>2026-01-13T08:39:01Z</time>
      </trkpt>
      <trkpt lat="48.62141" lon="1.99842">
        <ele>106</ele>
        <time>2026-01-13T08:39:02Z</time>
      </trkpt>
      <trkpt lat="48.62145" lon="1.99838">
        <ele>106</ele>
        <time>2026-01-13T08:39:03Z</time>
      </trkpt>
      <trkpt lat="48.6215" lon="1.99835">
        <ele>106.2</ele>
        <time>2026-01-13T08:39:04Z</time>
      </trkpt>
      <trkpt lat="48.62154" lon="1.99832">
        <ele>106.8</ele>
        <time>2026-01-13T08:39:05Z</time>
      </trkpt>
      <trkpt lat="48.62158" lon="1.99827">
        <ele>106.8</ele>
        <time>2026-01-13T08:39:06Z</time>
      </trkpt>
      <trkpt lat="48.62162" lon="1.99823">
        <ele>106.8</ele>
        <time>2026-01-13T08:39:07Z</time>
      </trkpt>
      <trkpt lat="48.62166" lon="1.99819">
        <ele>106.8</ele>
        <time>2026-01-13T08:39:08Z</time>
      </trkpt>
      <trkpt lat="48.6217" lon="1.99814">
        <ele>107.2</ele>
        <time>2026-01-13T08:39:09Z</time>
      </trkpt>
      <trkpt lat="48.62174" lon="1.9981">
        <ele>107.8</ele>
        <time>2026-01-13T08:39:10Z</time>
      </trkpt>
      <trkpt lat="48.62177" lon="1.99805">
        <ele>108.4</ele>
        <time>2026-01-13T08:39:11Z</time>
      </trkpt>
      <trkpt lat="48.62181" lon="1.998">
        <ele>108.4</ele>
        <time>2026-01-13T08:39:12Z</time>
      </trkpt>
      <trkpt lat="48.62184" lon="1.99796">
        <ele>108.4</ele>
        <time>2026-01-13T08:39:13Z</time>
      </trkpt>
      <trkpt lat="48.62188" lon="1.99792">
        <ele>107.8</ele>
        <time>2026-01-13T08:39:14Z</time>
      </trkpt>
      <trkpt lat="48.62191" lon="1.99787">
        <ele>107.8</ele>
        <time>2026-01-13T08:39:15Z</time>
      </trkpt>
      <trkpt lat="48.62194" lon="1.99781">
        <ele>107.8</ele>
        <time>2026-01-13T08:39:16Z</time>
      </trkpt>
      <trkpt lat="48.62197" lon="1.99775">
        <ele>108.4</ele>
        <time>2026-01-13T08:39:17Z</time>
      </trkpt>
      <trkpt lat="48.622" lon="1.99769">
        <ele>108.4</ele>
        <time>2026-01-13T08:39:18Z</time>
      </trkpt>
      <trkpt lat="48.62202" lon="1.99762">
        <ele>108.4</ele>
        <time>2026-01-13T08:39:19Z</time>
      </trkpt>
      <trkpt lat="48.62205" lon="1.99754">
        <ele>107.4</ele>
        <time>2026-01-13T08:39:20Z</time>
      </trkpt>
      <trkpt lat="48.62206" lon="1.99746">
        <ele>107.2</ele>
        <time>2026-01-13T08:39:21Z</time>
      </trkpt>
      <trkpt lat="48.62207" lon="1.99738">
        <ele>107.2</ele>
        <time>2026-01-13T08:39:22Z</time>
      </trkpt>
      <trkpt lat="48.62207" lon="1.99729">
        <ele>107.2</ele>
        <time>2026-01-13T08:39:23Z</time>
      </trkpt>
      <trkpt lat="48.62207" lon="1.9972">
        <ele>107.2</ele>
        <time>2026-01-13T08:39:24Z</time>
      </trkpt>
      <trkpt lat="48.62207" lon="1.99711">
        <ele>107.2</ele>
        <time>2026-01-13T08:39:25Z</time>
      </trkpt>
      <trkpt lat="48.62207" lon="1.99703">
        <ele>107.2</ele>
        <time>2026-01-13T08:39:26Z</time>
      </trkpt>
      <trkpt lat="48.62207" lon="1.99694">
        <ele>106.8</ele>
        <time>2026-01-13T08:39:27Z</time>
      </trkpt>
      <trkpt lat="48.62207" lon="1.99685">
        <ele>106.2</ele>
        <time>2026-01-13T08:39:28Z</time>
      </trkpt>
      <trkpt lat="48.62208" lon="1.99675">
        <ele>105.8</ele>
        <time>2026-01-13T08:39:29Z</time>
      </trkpt>
      <trkpt lat="48.62209" lon="1.99666">
        <ele>105.8</ele>
        <time>2026-01-13T08:39:30Z</time>
      </trkpt>
      <trkpt lat="48.6221" lon="1.99655">
        <ele>105.8</ele>
        <time>2026-01-13T08:39:31Z</time>
      </trkpt>
      <trkpt lat="48.62211" lon="1.99645">
        <ele>105.8</ele>
        <time>2026-01-13T08:39:32Z</time>
      </trkpt>
      <trkpt lat="48.62213" lon="1.99635">
        <ele>104.8</ele>
        <time>2026-01-13T08:39:33Z</time>
      </trkpt>
      <trkpt lat="48.62214" lon="1.99624">
        <ele>103.8</ele>
        <time>2026-01-13T08:39:34Z</time>
      </trkpt>
      <trkpt lat="48.62215" lon="1.99613">
        <ele>103</ele>
        <time>2026-01-13T08:39:35Z</time>
      </trkpt>
      <trkpt lat="48.62216" lon="1.99601">
        <ele>102.6</ele>
        <time>2026-01-13T08:39:36Z</time>
      </trkpt>
      <trkpt lat="48.62217" lon="1.99589">
        <ele>102.4</ele>
        <time>2026-01-13T08:39:37Z</time>
      </trkpt>
      <trkpt lat="48.62218" lon="1.99577">
        <ele>101.4</ele>
        <time>2026-01-13T08:39:38Z</time>
      </trkpt>
      <trkpt lat="48.62218" lon="1.99564">
        <ele>100.6</ele>
        <time>2026-01-13T08:39:39Z</time>
      </trkpt>
      <trkpt lat="48.62218" lon="1.99551">
        <ele>100</ele>
        <time>2026-01-13T08:39:40Z</time>
      </trkpt>
      <trkpt lat="48.62217" lon="1.99538">
        <ele>99</ele>
        <time>2026-01-13T08:39:41Z</time>
      </trkpt>
      <trkpt lat="48.62217" lon="1.99524">
        <ele>99</ele>
        <time>2026-01-13T08:39:42Z</time>
      </trkpt>
      <trkpt lat="48.62217" lon="1.99511">
        <ele>99</ele>
        <time>2026-01-13T08:39:43Z</time>
      </trkpt>
      <trkpt lat="48.62217" lon="1.99497">
        <ele>99</ele>
        <time>2026-01-13T08:39:44Z</time>
      </trkpt>
      <trkpt lat="48.62217" lon="1.99483">
        <ele>98</ele>
        <time>2026-01-13T08:39:45Z</time>
      </trkpt>
      <trkpt lat="48.62217" lon="1.99469">
        <ele>97</ele>
        <time>2026-01-13T08:39:46Z</time>
      </trkpt>
      <trkpt lat="48.62217" lon="1.99455">
        <ele>96.2</ele>
        <time>2026-01-13T08:39:47Z</time>
      </trkpt>
      <trkpt lat="48.62217" lon="1.99441">
        <ele>96.2</ele>
        <time>2026-01-13T08:39:48Z</time>
      </trkpt>
      <trkpt lat="48.62216" lon="1.99428">
        <ele>96.2</ele>
        <time>2026-01-13T08:39:49Z</time>
      </trkpt>
      <trkpt lat="48.62215" lon="1.99414">
        <ele>96.2</ele>
        <time>2026-01-13T08:39:50Z</time>
      </trkpt>
      <trkpt lat="48.62215" lon="1.99401">
        <ele>96.2</ele>
        <time>2026-01-13T08:39:51Z</time>
      </trkpt>
      <trkpt lat="48.62215" lon="1.99387">
        <ele>96.2</ele>
        <time>2026-01-13T08:39:52Z</time>
      </trkpt>
      <trkpt lat="48.62214" lon="1.99374">
        <ele>95.4</ele>
        <time>2026-01-13T08:39:53Z</time>
      </trkpt>
      <trkpt lat="48.62214" lon="1.99361">
        <ele>95.4</ele>
        <time>2026-01-13T08:39:54Z</time>
      </trkpt>
      <trkpt lat="48.62213" lon="1.99349">
        <ele>95.4</ele>
        <time>2026-01-13T08:39:55Z</time>
      </trkpt>
      <trkpt lat="48.62211" lon="1.99336">
        <ele>96</ele>
        <time>2026-01-13T08:39:56Z</time>
      </trkpt>
      <trkpt lat="48.6221" lon="1.99324">
        <ele>96</ele>
        <time>2026-01-13T08:39:57Z</time>
      </trkpt>
      <trkpt lat="48.62208" lon="1.99313">
        <ele>96</ele>
        <time>2026-01-13T08:39:58Z</time>
      </trkpt>
      <trkpt lat="48.62206" lon="1.99302">
        <ele>96</ele>
        <time>2026-01-13T08:39:59Z</time>
      </trkpt>
      <trkpt lat="48.62203" lon="1.99291">
        <ele>96.4</ele>
        <time>2026-01-13T08:40:00Z</time>
      </trkpt>
      <trkpt lat="48.622" lon="1.99281">
        <ele>96.8</ele>
        <time>2026-01-13T08:40:01Z</time>
      </trkpt>
      <trkpt lat="48.62198" lon="1.9927">
        <ele>96.8</ele>
        <time>2026-01-13T08:40:02Z</time>
      </trkpt>
      <trkpt lat="48.62195" lon="1.99261">
        <ele>96.8</ele>
        <time>2026-01-13T08:40:03Z</time>
      </trkpt>
      <trkpt lat="48.62192" lon="1.99252">
        <ele>96.8</ele>
        <time>2026-01-13T08:40:04Z</time>
      </trkpt>
      <trkpt lat="48.62189" lon="1.99243">
        <ele>96.8</ele>
        <time>2026-01-13T08:40:05Z</time>
      </trkpt>
      <trkpt lat="48.62188" lon="1.99235">
        <ele>97.2</ele>
        <time>2026-01-13T08:40:06Z</time>
      </trkpt>
      <trkpt lat="48.62187" lon="1.99227">
        <ele>97.4</ele>
        <time>2026-01-13T08:40:07Z</time>
      </trkpt>
      <trkpt lat="48.62189" lon="1.9922">
        <ele>97.4</ele>
        <time>2026-01-13T08:40:08Z</time>
      </trkpt>
      <trkpt lat="48.62192" lon="1.99213">
        <ele>97.4</ele>
        <time>2026-01-13T08:40:09Z</time>
      </trkpt>
      <trkpt lat="48.62197" lon="1.99207">
        <ele>97.4</ele>
        <time>2026-01-13T08:40:10Z</time>
      </trkpt>
      <trkpt lat="48.62201" lon="1.99202">
        <ele>97.4</ele>
        <time>2026-01-13T08:40:11Z</time>
      </trkpt>
      <trkpt lat="48.62206" lon="1.99197">
        <ele>96.4</ele>
        <time>2026-01-13T08:40:12Z</time>
      </trkpt>
      <trkpt lat="48.62211" lon="1.99191">
        <ele>96</ele>
        <time>2026-01-13T08:40:13Z</time>
      </trkpt>
      <trkpt lat="48.62216" lon="1.99185">
        <ele>96</ele>
        <time>2026-01-13T08:40:14Z</time>
      </trkpt>
      <trkpt lat="48.62221" lon="1.99179">
        <ele>96</ele>
        <time>2026-01-13T08:40:15Z</time>
      </trkpt>
      <trkpt lat="48.62226" lon="1.99173">
        <ele>96</ele>
        <time>2026-01-13T08:40:16Z</time>
      </trkpt>
      <trkpt lat="48.62231" lon="1.99168">
        <ele>96</ele>
        <time>2026-01-13T08:40:17Z</time>
      </trkpt>
      <trkpt lat="48.62237" lon="1.99162">
        <ele>96</ele>
        <time>2026-01-13T08:40:18Z</time>
      </trkpt>
      <trkpt lat="48.62241" lon="1.99156">
        <ele>96</ele>
        <time>2026-01-13T08:40:19Z</time>
      </trkpt>
      <trkpt lat="48.62246" lon="1.9915">
        <ele>96</ele>
        <time>2026-01-13T08:40:20Z</time>
      </trkpt>
      <trkpt lat="48.62251" lon="1.99145">
        <ele>96.2</ele>
        <time>2026-01-13T08:40:21Z</time>
      </trkpt>
      <trkpt lat="48.62256" lon="1.99139">
        <ele>96.4</ele>
        <time>2026-01-13T08:40:22Z</time>
      </trkpt>
      <trkpt lat="48.6226" lon="1.99134">
        <ele>96.8</ele>
        <time>2026-01-13T08:40:23Z</time>
      </trkpt>
      <trkpt lat="48.62265" lon="1.99128">
        <ele>96.8</ele>
        <time>2026-01-13T08:40:24Z</time>
      </trkpt>
      <trkpt lat="48.6227" lon="1.99123">
        <ele>96.8</ele>
        <time>2026-01-13T08:40:25Z</time>
      </trkpt>
      <trkpt lat="48.62274" lon="1.99117">
        <ele>96.8</ele>
        <time>2026-01-13T08:40:26Z</time>
      </trkpt>
      <trkpt lat="48.62279" lon="1.99112">
        <ele>96.8</ele>
        <time>2026-01-13T08:40:27Z</time>
      </trkpt>
      <trkpt lat="48.62284" lon="1.99107">
        <ele>97</ele>
        <time>2026-01-13T08:40:28Z</time>
      </trkpt>
      <trkpt lat="48.62288" lon="1.99102">
        <ele>97</ele>
        <time>2026-01-13T08:40:29Z</time>
      </trkpt>
      <trkpt lat="48.62293" lon="1.99097">
        <ele>97</ele>
        <time>2026-01-13T08:40:30Z</time>
      </trkpt>
      <trkpt lat="48.62298" lon="1.99093">
        <ele>96.8</ele>
        <time>2026-01-13T08:40:31Z</time>
      </trkpt>
      <trkpt lat="48.62302" lon="1.99088">
        <ele>96.8</ele>
        <time>2026-01-13T08:40:32Z</time>
      </trkpt>
      <trkpt lat="48.62307" lon="1.99083">
        <ele>96.8</ele>
        <time>2026-01-13T08:40:33Z</time>
      </trkpt>
      <trkpt lat="48.62311" lon="1.99077">
        <ele>96.8</ele>
        <time>2026-01-13T08:40:34Z</time>
      </trkpt>
      <trkpt lat="48.62315" lon="1.99072">
        <ele>97.4</ele>
        <time>2026-01-13T08:40:35Z</time>
      </trkpt>
      <trkpt lat="48.62318" lon="1.99066">
        <ele>97.4</ele>
        <time>2026-01-13T08:40:36Z</time>
      </trkpt>
      <trkpt lat="48.62322" lon="1.9906">
        <ele>97.4</ele>
        <time>2026-01-13T08:40:37Z</time>
      </trkpt>
      <trkpt lat="48.62325" lon="1.99055">
        <ele>97.4</ele>
        <time>2026-01-13T08:40:38Z</time>
      </trkpt>
      <trkpt lat="48.62329" lon="1.99049">
        <ele>98</ele>
        <time>2026-01-13T08:40:39Z</time>
      </trkpt>
      <trkpt lat="48.62332" lon="1.99043">
        <ele>98.4</ele>
        <time>2026-01-13T08:40:40Z</time>
      </trkpt>
      <trkpt lat="48.62336" lon="1.99038">
        <ele>98.4</ele>
        <time>2026-01-13T08:40:41Z</time>
      </trkpt>
      <trkpt lat="48.62339" lon="1.99031">
        <ele>98.4</ele>
        <time>2026-01-13T08:40:42Z</time>
      </trkpt>
      <trkpt lat="48.62341" lon="1.99025">
        <ele>98.4</ele>
        <time>2026-01-13T08:40:43Z</time>
      </trkpt>
      <trkpt lat="48.62343" lon="1.99018">
        <ele>98.8</ele>
        <time>2026-01-13T08:40:44Z</time>
      </trkpt>
      <trkpt lat="48.62344" lon="1.99011">
        <ele>98.8</ele>
        <time>2026-01-13T08:40:45Z</time>
      </trkpt>
      <trkpt lat="48.62345" lon="1.99004">
        <ele>98.8</ele>
        <time>2026-01-13T08:40:46Z</time>
      </trkpt>
      <trkpt lat="48.62345" lon="1.98997">
        <ele>98.8</ele>
        <time>2026-01-13T08:40:47Z</time>
      </trkpt>
      <trkpt lat="48.62344" lon="1.9899">
        <ele>98.8</ele>
        <time>2026-01-13T08:40:48Z</time>
      </trkpt>
      <trkpt lat="48.62344" lon="1.98983">
        <ele>99.4</ele>
        <time>2026-01-13T08:40:49Z</time>
      </trkpt>
      <trkpt lat="48.62343" lon="1.98976">
        <ele>99.6</ele>
        <time>2026-01-13T08:40:50Z</time>
      </trkpt>
      <trkpt lat="48.62341" lon="1.98969">
        <ele>99.6</ele>
        <time>2026-01-13T08:40:51Z</time>
      </trkpt>
      <trkpt lat="48.6234" lon="1.98962">
        <ele>99.6</ele>
        <time>2026-01-13T08:40:52Z</time>
      </trkpt>
      <trkpt lat="48.62339" lon="1.98955">
        <ele>99.6</ele>
        <time>2026-01-13T08:40:53Z</time>
      </trkpt>
      <trkpt lat="48.62337" lon="1.98948">
        <ele>99.6</ele>
        <time>2026-01-13T08:40:54Z</time>
      </trkpt>
      <trkpt lat="48.62336" lon="1.98941">
        <ele>100.2</ele>
        <time>2026-01-13T08:40:55Z</time>
      </trkpt>
      <trkpt lat="48.62335" lon="1.98934">
        <ele>100.2</ele>
        <time>2026-01-13T08:40:56Z</time>
      </trkpt>
      <trkpt lat="48.62335" lon="1.98927">
        <ele>100.2</ele>
        <time>2026-01-13T08:40:57Z</time>
      </trkpt>
      <trkpt lat="48.62335" lon="1.9892">
        <ele>100.2</ele>
        <time>2026-01-13T08:40:58Z</time>
      </trkpt>
      <trkpt lat="48.62335" lon="1.98912">
        <ele>100.2</ele>
        <time>2026-01-13T08:40:59Z</time>
      </trkpt>
      <trkpt lat="48.62336" lon="1.98905">
        <ele>100.2</ele>
        <time>2026-01-13T08:41:00Z</time>
      </trkpt>
      <trkpt lat="48.62337" lon="1.98898">
        <ele>100.2</ele>
        <time>2026-01-13T08:41:01Z</time>
      </trkpt>
      <trkpt lat="48.62339" lon="1.98891">
        <ele>100.2</ele>
        <time>2026-01-13T08:41:02Z</time>
      </trkpt>
      <trkpt lat="48.62341" lon="1.98884">
        <ele>100.2</ele>
        <time>2026-01-13T08:41:03Z</time>
      </trkpt>
      <trkpt lat="48.62343" lon="1.98877">
        <ele>100.2</ele>
        <time>2026-01-13T08:41:04Z</time>
      </trkpt>
      <trkpt lat="48.62345" lon="1.9887">
        <ele>100.2</ele>
        <time>2026-01-13T08:41:05Z</time>
      </trkpt>
      <trkpt lat="48.62347" lon="1.98863">
        <ele>100.2</ele>
        <time>2026-01-13T08:41:06Z</time>
      </trkpt>
      <trkpt lat="48.62349" lon="1.98857">
        <ele>100.6</ele>
        <time>2026-01-13T08:41:07Z</time>
      </trkpt>
      <trkpt lat="48.62352" lon="1.9885">
        <ele>100.6</ele>
        <time>2026-01-13T08:41:08Z</time>
      </trkpt>
      <trkpt lat="48.62354" lon="1.98844">
        <ele>100.6</ele>
        <time>2026-01-13T08:41:09Z</time>
      </trkpt>
      <trkpt lat="48.62357" lon="1.98837">
        <ele>100.6</ele>
        <time>2026-01-13T08:41:10Z</time>
      </trkpt>
      <trkpt lat="48.6236" lon="1.98831">
        <ele>100.6</ele>
        <time>2026-01-13T08:41:11Z</time>
      </trkpt>
      <trkpt lat="48.62362" lon="1.98825">
        <ele>100.6</ele>
        <time>2026-01-13T08:41:12Z</time>
      </trkpt>
      <trkpt lat="48.62365" lon="1.98819">
        <ele>100.6</ele>
        <time>2026-01-13T08:41:13Z</time>
      </trkpt>
      <trkpt lat="48.62368" lon="1.98813">
        <ele>100.6</ele>
        <time>2026-01-13T08:41:14Z</time>
      </trkpt>
      <trkpt lat="48.62371" lon="1.98807">
        <ele>100.6</ele>
        <time>2026-01-13T08:41:15Z</time>
      </trkpt>
      <trkpt lat="48.62374" lon="1.98802">
        <ele>101.4</ele>
        <time>2026-01-13T08:41:16Z</time>
      </trkpt>
      <trkpt lat="48.62377" lon="1.98796">
        <ele>101.4</ele>
        <time>2026-01-13T08:41:17Z</time>
      </trkpt>
      <trkpt lat="48.6238" lon="1.9879">
        <ele>101.4</ele>
        <time>2026-01-13T08:41:18Z</time>
      </trkpt>
      <trkpt lat="48.62383" lon="1.98784">
        <ele>101.4</ele>
        <time>2026-01-13T08:41:19Z</time>
      </trkpt>
      <trkpt lat="48.62386" lon="1.98778">
        <ele>101.4</ele>
        <time>2026-01-13T08:41:20Z</time>
      </trkpt>
      <trkpt lat="48.62389" lon="1.98772">
        <ele>102</ele>
        <time>2026-01-13T08:41:21Z</time>
      </trkpt>
      <trkpt lat="48.62392" lon="1.98766">
        <ele>102</ele>
        <time>2026-01-13T08:41:22Z</time>
      </trkpt>
      <trkpt lat="48.62394" lon="1.9876">
        <ele>102</ele>
        <time>2026-01-13T08:41:23Z</time>
      </trkpt>
      <trkpt lat="48.62397" lon="1.98754">
        <ele>102</ele>
        <time>2026-01-13T08:41:24Z</time>
      </trkpt>
      <trkpt lat="48.624" lon="1.98749">
        <ele>102.2</ele>
        <time>2026-01-13T08:41:25Z</time>
      </trkpt>
      <trkpt lat="48.62402" lon="1.98743">
        <ele>102.6</ele>
        <time>2026-01-13T08:41:26Z</time>
      </trkpt>
      <trkpt lat="48.62404" lon="1.98736">
        <ele>102.6</ele>
        <time>2026-01-13T08:41:27Z</time>
      </trkpt>
      <trkpt lat="48.62407" lon="1.9873">
        <ele>102.8</ele>
        <time>2026-01-13T08:41:28Z</time>
      </trkpt>
      <trkpt lat="48.62409" lon="1.98723">
        <ele>102.8</ele>
        <time>2026-01-13T08:41:29Z</time>
      </trkpt>
      <trkpt lat="48.62411" lon="1.98717">
        <ele>102.8</ele>
        <time>2026-01-13T08:41:30Z</time>
      </trkpt>
      <trkpt lat="48.62413" lon="1.9871">
        <ele>102.8</ele>
        <time>2026-01-13T08:41:31Z</time>
      </trkpt>
      <trkpt lat="48.62415" lon="1.98703">
        <ele>102.8</ele>
        <time>2026-01-13T08:41:32Z</time>
      </trkpt>
      <trkpt lat="48.62417" lon="1.98697">
        <ele>102.8</ele>
        <time>2026-01-13T08:41:33Z</time>
      </trkpt>
      <trkpt lat="48.62419" lon="1.9869">
        <ele>102.8</ele>
        <time>2026-01-13T08:41:34Z</time>
      </trkpt>
      <trkpt lat="48.62421" lon="1.98683">
        <ele>102.8</ele>
        <time>2026-01-13T08:41:35Z</time>
      </trkpt>
      <trkpt lat="48.62423" lon="1.98677">
        <ele>103.4</ele>
        <time>2026-01-13T08:41:36Z</time>
      </trkpt>
      <trkpt lat="48.62425" lon="1.9867">
        <ele>104</ele>
        <time>2026-01-13T08:41:37Z</time>
      </trkpt>
      <trkpt lat="48.62427" lon="1.98664">
        <ele>104</ele>
        <time>2026-01-13T08:41:38Z</time>
      </trkpt>
      <trkpt lat="48.62428" lon="1.98657">
        <ele>104</ele>
        <time>2026-01-13T08:41:39Z</time>
      </trkpt>
      <trkpt lat="48.6243" lon="1.98651">
        <ele>104</ele>
        <time>2026-01-13T08:41:40Z</time>
      </trkpt>
      <trkpt lat="48.62432" lon="1.98644">
        <ele>104</ele>
        <time>2026-01-13T08:41:41Z</time>
      </trkpt>
      <trkpt lat="48.62434" lon="1.98638">
        <ele>104.2</ele>
        <time>2026-01-13T08:41:42Z</time>
      </trkpt>
      <trkpt lat="48.62436" lon="1.98631">
        <ele>104.4</ele>
        <time>2026-01-13T08:41:43Z</time>
      </trkpt>
      <trkpt lat="48.62437" lon="1.98625">
        <ele>104.6</ele>
        <time>2026-01-13T08:41:44Z</time>
      </trkpt>
      <trkpt lat="48.62439" lon="1.98619">
        <ele>104.6</ele>
        <time>2026-01-13T08:41:45Z</time>
      </trkpt>
      <trkpt lat="48.62441" lon="1.98612">
        <ele>104.6</ele>
        <time>2026-01-13T08:41:46Z</time>
      </trkpt>
      <trkpt lat="48.62443" lon="1.98606">
        <ele>104.6</ele>
        <time>2026-01-13T08:41:47Z</time>
      </trkpt>
      <trkpt lat="48.62445" lon="1.98599">
        <ele>104.6</ele>
        <time>2026-01-13T08:41:48Z</time>
      </trkpt>
      <trkpt lat="48.62447" lon="1.98593">
        <ele>105.6</ele>
        <time>2026-01-13T08:41:49Z</time>
      </trkpt>
      <trkpt lat="48.62449" lon="1.98586">
        <ele>105.6</ele>
        <time>2026-01-13T08:41:50Z</time>
      </trkpt>
      <trkpt lat="48.62451" lon="1.9858">
        <ele>105.6</ele>
        <time>2026-01-13T08:41:51Z</time>
      </trkpt>
      <trkpt lat="48.62452" lon="1.98574">
        <ele>105.6</ele>
        <time>2026-01-13T08:41:52Z</time>
      </trkpt>
      <trkpt lat="48.62454" lon="1.98568">
        <ele>106</ele>
        <time>2026-01-13T08:41:53Z</time>
      </trkpt>
      <trkpt lat="48.62455" lon="1.98562">
        <ele>106.2</ele>
        <time>2026-01-13T08:41:54Z</time>
      </trkpt>
      <trkpt lat="48.62457" lon="1.98556">
        <ele>106.2</ele>
        <time>2026-01-13T08:41:55Z</time>
      </trkpt>
      <trkpt lat="48.62459" lon="1.9855">
        <ele>106.2</ele>
        <time>2026-01-13T08:41:56Z</time>
      </trkpt>
      <trkpt lat="48.6246" lon="1.98544">
        <ele>106.2</ele>
        <time>2026-01-13T08:41:57Z</time>
      </trkpt>
      <trkpt lat="48.62462" lon="1.98538">
        <ele>106.6</ele>
        <time>2026-01-13T08:41:58Z</time>
      </trkpt>
      <trkpt lat="48.62464" lon="1.98531">
        <ele>106.8</ele>
        <time>2026-01-13T08:41:59Z</time>
      </trkpt>
      <trkpt lat="48.62466" lon="1.98525">
        <ele>106.8</ele>
        <time>2026-01-13T08:42:00Z</time>
      </trkpt>
      <trkpt lat="48.62468" lon="1.98519">
        <ele>107</ele>
        <time>2026-01-13T08:42:01Z</time>
      </trkpt>
      <trkpt lat="48.6247" lon="1.98513">
        <ele>107.2</ele>
        <time>2026-01-13T08:42:02Z</time>
      </trkpt>
      <trkpt lat="48.62472" lon="1.98507">
        <ele>107.2</ele>
        <time>2026-01-13T08:42:03Z</time>
      </trkpt>
      <trkpt lat="48.62474" lon="1.98501">
        <ele>107.2</ele>
        <time>2026-01-13T08:42:04Z</time>
      </trkpt>
      <trkpt lat="48.62476" lon="1.98494">
        <ele>107.2</ele>
        <time>2026-01-13T08:42:05Z</time>
      </trkpt>
      <trkpt lat="48.62477" lon="1.98488">
        <ele>107.2</ele>
        <time>2026-01-13T08:42:06Z</time>
      </trkpt>
      <trkpt lat="48.62479" lon="1.98482">
        <ele>107.2</ele>
        <time>2026-01-13T08:42:07Z</time>
      </trkpt>
      <trkpt lat="48.62481" lon="1.98476">
        <ele>107.6</ele>
        <time>2026-01-13T08:42:08Z</time>
      </trkpt>
      <trkpt lat="48.62483" lon="1.98469">
        <ele>107.6</ele>
        <time>2026-01-13T08:42:09Z</time>
      </trkpt>
      <trkpt lat="48.62485" lon="1.98463">
        <ele>107.6</ele>
        <time>2026-01-13T08:42:10Z</time>
      </trkpt>
      <trkpt lat="48.62486" lon="1.98457">
        <ele>107.6</ele>
        <time>2026-01-13T08:42:11Z</time>
      </trkpt>
      <trkpt lat="48.62488" lon="1.9845">
        <ele>108.4</ele>
        <time>2026-01-13T08:42:12Z</time>
      </trkpt>
      <trkpt lat="48.6249" lon="1.98444">
        <ele>108.6</ele>
        <time>2026-01-13T08:42:13Z</time>
      </trkpt>
      <trkpt lat="48.62492" lon="1.98438">
        <ele>108.6</ele>
        <time>2026-01-13T08:42:14Z</time>
      </trkpt>
      <trkpt lat="48.62493" lon="1.98431">
        <ele>108.6</ele>
        <time>2026-01-13T08:42:15Z</time>
      </trkpt>
      <trkpt lat="48.62495" lon="1.98425">
        <ele>108.4</ele>
        <time>2026-01-13T08:42:16Z</time>
      </trkpt>
      <trkpt lat="48.62497" lon="1.98419">
        <ele>108.4</ele>
        <time>2026-01-13T08:42:17Z</time>
      </trkpt>
      <trkpt lat="48.62499" lon="1.98412">
        <ele>108.4</ele>
        <time>2026-01-13T08:42:18Z</time>
      </trkpt>
      <trkpt lat="48.62501" lon="1.98406">
        <ele>109</ele>
        <time>2026-01-13T08:42:19Z</time>
      </trkpt>
      <trkpt lat="48.62503" lon="1.984">
        <ele>109.2</ele>
        <time>2026-01-13T08:42:20Z</time>
      </trkpt>
      <trkpt lat="48.62505" lon="1.98393">
        <ele>109.2</ele>
        <time>2026-01-13T08:42:21Z</time>
      </trkpt>
      <trkpt lat="48.62506" lon="1.98387">
        <ele>109.2</ele>
        <time>2026-01-13T08:42:22Z</time>
      </trkpt>
      <trkpt lat="48.62508" lon="1.9838">
        <ele>109.2</ele>
        <time>2026-01-13T08:42:23Z</time>
      </trkpt>
      <trkpt lat="48.6251" lon="1.98374">
        <ele>109.2</ele>
        <time>2026-01-13T08:42:24Z</time>
      </trkpt>
      <trkpt lat="48.62512" lon="1.98367">
        <ele>109.2</ele>
        <time>2026-01-13T08:42:25Z</time>
      </trkpt>
      <trkpt lat="48.62514" lon="1.98361">
        <ele>109.2</ele>
        <time>2026-01-13T08:42:26Z</time>
      </trkpt>
      <trkpt lat="48.62516" lon="1.98355">
        <ele>109.6</ele>
        <time>2026-01-13T08:42:27Z</time>
      </trkpt>
      <trkpt lat="48.62518" lon="1.98348">
        <ele>109.6</ele>
        <time>2026-01-13T08:42:28Z</time>
      </trkpt>
      <trkpt lat="48.62519" lon="1.98342">
        <ele>109.6</ele>
        <time>2026-01-13T08:42:29Z</time>
      </trkpt>
      <trkpt lat="48.62521" lon="1.98335">
        <ele>109.6</ele>
        <time>2026-01-13T08:42:30Z</time>
      </trkpt>
      <trkpt lat="48.62523" lon="1.98329">
        <ele>109.6</ele>
        <time>2026-01-13T08:42:31Z</time>
      </trkpt>
      <trkpt lat="48.62525" lon="1.98322">
        <ele>109.6</ele>
        <time>2026-01-13T08:42:32Z</time>
      </trkpt>
      <trkpt lat="48.62527" lon="1.98316">
        <ele>110.6</ele>
        <time>2026-01-13T08:42:33Z</time>
      </trkpt>
      <trkpt lat="48.62529" lon="1.98309">
        <ele>110.8</ele>
        <time>2026-01-13T08:42:34Z</time>
      </trkpt>
      <trkpt lat="48.62531" lon="1.98303">
        <ele>110.8</ele>
        <time>2026-01-13T08:42:35Z</time>
      </trkpt>
      <trkpt lat="48.62533" lon="1.98296">
        <ele>110.8</ele>
        <time>2026-01-13T08:42:36Z</time>
      </trkpt>
      <trkpt lat="48.62534" lon="1.9829">
        <ele>110.8</ele>
        <time>2026-01-13T08:42:37Z</time>
      </trkpt>
      <trkpt lat="48.62536" lon="1.98283">
        <ele>111</ele>
        <time>2026-01-13T08:42:38Z</time>
      </trkpt>
      <trkpt lat="48.62538" lon="1.98277">
        <ele>111.4</ele>
        <time>2026-01-13T08:42:39Z</time>
      </trkpt>
      <trkpt lat="48.6254" lon="1.9827">
        <ele>111.4</ele>
        <time>2026-01-13T08:42:40Z</time>
      </trkpt>
      <trkpt lat="48.62542" lon="1.98263">
        <ele>111.4</ele>
        <time>2026-01-13T08:42:41Z</time>
      </trkpt>
      <trkpt lat="48.62544" lon="1.98257">
        <ele>111.4</ele>
        <time>2026-01-13T08:42:42Z</time>
      </trkpt>
      <trkpt lat="48.62546" lon="1.9825">
        <ele>111.4</ele>
        <time>2026-01-13T08:42:43Z</time>
      </trkpt>
      <trkpt lat="48.62548" lon="1.98243">
        <ele>111.4</ele>
        <time>2026-01-13T08:42:44Z</time>
      </trkpt>
      <trkpt lat="48.6255" lon="1.98237">
        <ele>111.4</ele>
        <time>2026-01-13T08:42:45Z</time>
      </trkpt>
      <trkpt lat="48.62552" lon="1.9823">
        <ele>111.4</ele>
        <time>2026-01-13T08:42:46Z</time>
      </trkpt>
      <trkpt lat="48.62553" lon="1.98223">
        <ele>112</ele>
        <time>2026-01-13T08:42:47Z</time>
      </trkpt>
      <trkpt lat="48.62555" lon="1.98217">
        <ele>112.2</ele>
        <time>2026-01-13T08:42:48Z</time>
      </trkpt>
      <trkpt lat="48.62557" lon="1.9821">
        <ele>112.6</ele>
        <time>2026-01-13T08:42:49Z</time>
      </trkpt>
      <trkpt lat="48.62559" lon="1.98204">
        <ele>112.6</ele>
        <time>2026-01-13T08:42:50Z</time>
      </trkpt>
      <trkpt lat="48.62561" lon="1.98197">
        <ele>112.6</ele>
        <time>2026-01-13T08:42:51Z</time>
      </trkpt>
      <trkpt lat="48.62563" lon="1.98191">
        <ele>112.6</ele>
        <time>2026-01-13T08:42:52Z</time>
      </trkpt>
      <trkpt lat="48.62565" lon="1.98184">
        <ele>113.2</ele>
        <time>2026-01-13T08:42:53Z</time>
      </trkpt>
      <trkpt lat="48.62566" lon="1.98178">
        <ele>113.4</ele>
        <time>2026-01-13T08:42:54Z</time>
      </trkpt>
      <trkpt lat="48.62568" lon="1.98172">
        <ele>113.8</ele>
        <time>2026-01-13T08:42:55Z</time>
      </trkpt>
      <trkpt lat="48.6257" lon="1.98165">
        <ele>113.8</ele>
        <time>2026-01-13T08:42:56Z</time>
      </trkpt>
      <trkpt lat="48.62572" lon="1.98159">
        <ele>113.8</ele>
        <time>2026-01-13T08:42:57Z</time>
      </trkpt>
      <trkpt lat="48.62574" lon="1.98153">
        <ele>113.8</ele>
        <time>2026-01-13T08:42:58Z</time>
      </trkpt>
      <trkpt lat="48.62576" lon="1.98146">
        <ele>114.4</ele>
        <time>2026-01-13T08:42:59Z</time>
      </trkpt>
      <trkpt lat="48.62578" lon="1.9814">
        <ele>114.6</ele>
        <time>2026-01-13T08:43:00Z</time>
      </trkpt>
      <trkpt lat="48.6258" lon="1.98134">
        <ele>114.6</ele>
        <time>2026-01-13T08:43:01Z</time>
      </trkpt>
      <trkpt lat="48.62582" lon="1.98127">
        <ele>114.6</ele>
        <time>2026-01-13T08:43:02Z</time>
      </trkpt>
      <trkpt lat="48.62583" lon="1.98121">
        <ele>114.6</ele>
        <time>2026-01-13T08:43:03Z</time>
      </trkpt>
      <trkpt lat="48.62585" lon="1.98115">
        <ele>114.6</ele>
        <time>2026-01-13T08:43:04Z</time>
      </trkpt>
      <trkpt lat="48.62587" lon="1.98108">
        <ele>115.2</ele>
        <time>2026-01-13T08:43:05Z</time>
      </trkpt>
      <trkpt lat="48.62589" lon="1.98102">
        <ele>115.8</ele>
        <time>2026-01-13T08:43:06Z</time>
      </trkpt>
      <trkpt lat="48.62591" lon="1.98096">
        <ele>116</ele>
        <time>2026-01-13T08:43:07Z</time>
      </trkpt>
      <trkpt lat="48.62593" lon="1.98089">
        <ele>116.2</ele>
        <time>2026-01-13T08:43:08Z</time>
      </trkpt>
      <trkpt lat="48.62595" lon="1.98083">
        <ele>116.4</ele>
        <time>2026-01-13T08:43:09Z</time>
      </trkpt>
      <trkpt lat="48.62597" lon="1.98076">
        <ele>116.4</ele>
        <time>2026-01-13T08:43:10Z</time>
      </trkpt>
      <trkpt lat="48.62599" lon="1.9807">
        <ele>116.4</ele>
        <time>2026-01-13T08:43:11Z</time>
      </trkpt>
      <trkpt lat="48.626" lon="1.98063">
        <ele>116.4</ele>
        <time>2026-01-13T08:43:12Z</time>
      </trkpt>
      <trkpt lat="48.62602" lon="1.98057">
        <ele>116.4</ele>
        <time>2026-01-13T08:43:13Z</time>
      </trkpt>
      <trkpt lat="48.62604" lon="1.98051">
        <ele>116.6</ele>
        <time>2026-01-13T08:43:14Z</time>
      </trkpt>
      <trkpt lat="48.62606" lon="1.98044">
        <ele>117</ele>
        <time>2026-01-13T08:43:15Z</time>
      </trkpt>
      <trkpt lat="48.62608" lon="1.98038">
        <ele>117.4</ele>
        <time>2026-01-13T08:43:16Z</time>
      </trkpt>
      <trkpt lat="48.62609" lon="1.98031">
        <ele>117.4</ele>
        <time>2026-01-13T08:43:17Z</time>
      </trkpt>
      <trkpt lat="48.62611" lon="1.98025">
        <ele>117.4</ele>
        <time>2026-01-13T08:43:18Z</time>
      </trkpt>
      <trkpt lat="48.62613" lon="1.98019">
        <ele>117.4</ele>
        <time>2026-01-13T08:43:19Z</time>
      </trkpt>
      <trkpt lat="48.62615" lon="1.98013">
        <ele>117.4</ele>
        <time>2026-01-13T08:43:20Z</time>
      </trkpt>
      <trkpt lat="48.62617" lon="1.98006">
        <ele>117.4</ele>
        <time>2026-01-13T08:43:21Z</time>
      </trkpt>
      <trkpt lat="48.62619" lon="1.98">
        <ele>117.4</ele>
        <time>2026-01-13T08:43:22Z</time>
      </trkpt>
      <trkpt lat="48.62621" lon="1.97993">
        <ele>117.4</ele>
        <time>2026-01-13T08:43:23Z</time>
      </trkpt>
      <trkpt lat="48.62622" lon="1.97986">
        <ele>118.4</ele>
        <time>2026-01-13T08:43:24Z</time>
      </trkpt>
      <trkpt lat="48.62624" lon="1.9798">
        <ele>118.4</ele>
        <time>2026-01-13T08:43:25Z</time>
      </trkpt>
      <trkpt lat="48.62625" lon="1.97973">
        <ele>118.8</ele>
        <time>2026-01-13T08:43:26Z</time>
      </trkpt>
      <trkpt lat="48.62627" lon="1.97967">
        <ele>118.8</ele>
        <time>2026-01-13T08:43:27Z</time>
      </trkpt>
      <trkpt lat="48.62628" lon="1.9796">
        <ele>118.8</ele>
        <time>2026-01-13T08:43:28Z</time>
      </trkpt>
      <trkpt lat="48.62629" lon="1.97953">
        <ele>118.8</ele>
        <time>2026-01-13T08:43:29Z</time>
      </trkpt>
      <trkpt lat="48.6263" lon="1.97946">
        <ele>118.8</ele>
        <time>2026-01-13T08:43:30Z</time>
      </trkpt>
      <trkpt lat="48.62631" lon="1.97939">
        <ele>118.8</ele>
        <time>2026-01-13T08:43:31Z</time>
      </trkpt>
      <trkpt lat="48.62632" lon="1.97932">
        <ele>119</ele>
        <time>2026-01-13T08:43:32Z</time>
      </trkpt>
      <trkpt lat="48.62632" lon="1.97925">
        <ele>119.4</ele>
        <time>2026-01-13T08:43:33Z</time>
      </trkpt>
      <trkpt lat="48.62633" lon="1.97918">
        <ele>119.4</ele>
        <time>2026-01-13T08:43:34Z</time>
      </trkpt>
      <trkpt lat="48.62634" lon="1.97911">
        <ele>119.4</ele>
        <time>2026-01-13T08:43:35Z</time>
      </trkpt>
      <trkpt lat="48.62635" lon="1.97904">
        <ele>119.4</ele>
        <time>2026-01-13T08:43:36Z</time>
      </trkpt>
      <trkpt lat="48.62635" lon="1.97896">
        <ele>120</ele>
        <time>2026-01-13T08:43:37Z</time>
      </trkpt>
      <trkpt lat="48.62636" lon="1.97889">
        <ele>120</ele>
        <time>2026-01-13T08:43:38Z</time>
      </trkpt>
      <trkpt lat="48.62636" lon="1.97882">
        <ele>120.4</ele>
        <time>2026-01-13T08:43:39Z</time>
      </trkpt>
      <trkpt lat="48.62637" lon="1.97875">
        <ele>120.4</ele>
        <time>2026-01-13T08:43:40Z</time>
      </trkpt>
      <trkpt lat="48.62637" lon="1.97868">
        <ele>120.4</ele>
        <time>2026-01-13T08:43:41Z</time>
      </trkpt>
      <trkpt lat="48.62638" lon="1.97861">
        <ele>120.4</ele>
        <time>2026-01-13T08:43:42Z</time>
      </trkpt>
      <trkpt lat="48.62638" lon="1.97854">
        <ele>120.6</ele>
        <time>2026-01-13T08:43:43Z</time>
      </trkpt>
      <trkpt lat="48.62638" lon="1.97846">
        <ele>121.2</ele>
        <time>2026-01-13T08:43:44Z</time>
      </trkpt>
      <trkpt lat="48.62639" lon="1.97839">
        <ele>121.2</ele>
        <time>2026-01-13T08:43:45Z</time>
      </trkpt>
      <trkpt lat="48.62639" lon="1.97832">
        <ele>121.2</ele>
        <time>2026-01-13T08:43:46Z</time>
      </trkpt>
      <trkpt lat="48.62639" lon="1.97825">
        <ele>121.2</ele>
        <time>2026-01-13T08:43:47Z</time>
      </trkpt>
      <trkpt lat="48.6264" lon="1.97818">
        <ele>121.2</ele>
        <time>2026-01-13T08:43:48Z</time>
      </trkpt>
      <trkpt lat="48.6264" lon="1.97811">
        <ele>121.2</ele>
        <time>2026-01-13T08:43:49Z</time>
      </trkpt>
      <trkpt lat="48.6264" lon="1.97804">
        <ele>121.2</ele>
        <time>2026-01-13T08:43:50Z</time>
      </trkpt>
      <trkpt lat="48.62641" lon="1.97797">
        <ele>121.6</ele>
        <time>2026-01-13T08:43:51Z</time>
      </trkpt>
      <trkpt lat="48.62641" lon="1.9779">
        <ele>121.8</ele>
        <time>2026-01-13T08:43:52Z</time>
      </trkpt>
      <trkpt lat="48.62641" lon="1.97783">
        <ele>121.8</ele>
        <time>2026-01-13T08:43:53Z</time>
      </trkpt>
      <trkpt lat="48.62642" lon="1.97775">
        <ele>121.8</ele>
        <time>2026-01-13T08:43:54Z</time>
      </trkpt>
      <trkpt lat="48.62642" lon="1.97768">
        <ele>121.8</ele>
        <time>2026-01-13T08:43:55Z</time>
      </trkpt>
      <trkpt lat="48.62642" lon="1.97761">
        <ele>122.4</ele>
        <time>2026-01-13T08:43:56Z</time>
      </trkpt>
      <trkpt lat="48.62643" lon="1.97754">
        <ele>122.4</ele>
        <time>2026-01-13T08:43:57Z</time>
      </trkpt>
      <trkpt lat="48.62643" lon="1.97747">
        <ele>122.4</ele>
        <time>2026-01-13T08:43:58Z</time>
      </trkpt>
      <trkpt lat="48.62643" lon="1.9774">
        <ele>122.2</ele>
        <time>2026-01-13T08:43:59Z</time>
      </trkpt>
      <trkpt lat="48.62644" lon="1.97733">
        <ele>122.2</ele>
        <time>2026-01-13T08:44:00Z</time>
      </trkpt>
      <trkpt lat="48.62644" lon="1.97726">
        <ele>122.2</ele>
        <time>2026-01-13T08:44:01Z</time>
      </trkpt>
      <trkpt lat="48.62644" lon="1.97718">
        <ele>122.6</ele>
        <time>2026-01-13T08:44:02Z</time>
      </trkpt>
      <trkpt lat="48.62645" lon="1.97711">
        <ele>122.6</ele>
        <time>2026-01-13T08:44:03Z</time>
      </trkpt>
      <trkpt lat="48.62645" lon="1.97704">
        <ele>123</ele>
        <time>2026-01-13T08:44:04Z</time>
      </trkpt>
      <trkpt lat="48.62645" lon="1.97697">
        <ele>123.2</ele>
        <time>2026-01-13T08:44:05Z</time>
      </trkpt>
      <trkpt lat="48.62646" lon="1.9769">
        <ele>123.2</ele>
        <time>2026-01-13T08:44:06Z</time>
      </trkpt>
      <trkpt lat="48.62646" lon="1.97683">
        <ele>123.4</ele>
        <time>2026-01-13T08:44:07Z</time>
      </trkpt>
      <trkpt lat="48.62646" lon="1.97676">
        <ele>123.4</ele>
        <time>2026-01-13T08:44:08Z</time>
      </trkpt>
      <trkpt lat="48.62647" lon="1.97669">
        <ele>123.4</ele>
        <time>2026-01-13T08:44:09Z</time>
      </trkpt>
      <trkpt lat="48.62647" lon="1.97662">
        <ele>123.4</ele>
        <time>2026-01-13T08:44:10Z</time>
      </trkpt>
      <trkpt lat="48.62647" lon="1.97655">
        <ele>123.4</ele>
        <time>2026-01-13T08:44:11Z</time>
      </trkpt>
      <trkpt lat="48.62648" lon="1.97648">
        <ele>123.8</ele>
        <time>2026-01-13T08:44:12Z</time>
      </trkpt>
      <trkpt lat="48.62648" lon="1.97641">
        <ele>124</ele>
        <time>2026-01-13T08:44:13Z</time>
      </trkpt>
      <trkpt lat="48.62648" lon="1.97634">
        <ele>124</ele>
        <time>2026-01-13T08:44:14Z</time>
      </trkpt>
      <trkpt lat="48.62649" lon="1.97627">
        <ele>124</ele>
        <time>2026-01-13T08:44:15Z</time>
      </trkpt>
      <trkpt lat="48.62649" lon="1.9762">
        <ele>124</ele>
        <time>2026-01-13T08:44:16Z</time>
      </trkpt>
      <trkpt lat="48.62649" lon="1.97613">
        <ele>124.8</ele>
        <time>2026-01-13T08:44:17Z</time>
      </trkpt>
      <trkpt lat="48.62649" lon="1.97606">
        <ele>124.8</ele>
        <time>2026-01-13T08:44:18Z</time>
      </trkpt>
      <trkpt lat="48.6265" lon="1.97599">
        <ele>124.8</ele>
        <time>2026-01-13T08:44:19Z</time>
      </trkpt>
      <trkpt lat="48.6265" lon="1.97592">
        <ele>124.8</ele>
        <time>2026-01-13T08:44:20Z</time>
      </trkpt>
      <trkpt lat="48.6265" lon="1.97585">
        <ele>125.4</ele>
        <time>2026-01-13T08:44:21Z</time>
      </trkpt>
      <trkpt lat="48.62651" lon="1.97578">
        <ele>125.4</ele>
        <time>2026-01-13T08:44:22Z</time>
      </trkpt>
      <trkpt lat="48.62651" lon="1.97572">
        <ele>125.4</ele>
        <time>2026-01-13T08:44:23Z</time>
      </trkpt>
      <trkpt lat="48.62651" lon="1.97565">
        <ele>125.4</ele>
        <time>2026-01-13T08:44:24Z</time>
      </trkpt>
      <trkpt lat="48.62652" lon="1.97558">
        <ele>125.8</ele>
        <time>2026-01-13T08:44:25Z</time>
      </trkpt>
      <trkpt lat="48.62652" lon="1.97551">
        <ele>126.2</ele>
        <time>2026-01-13T08:44:26Z</time>
      </trkpt>
      <trkpt lat="48.62652" lon="1.97545">
        <ele>126.2</ele>
        <time>2026-01-13T08:44:27Z</time>
      </trkpt>
      <trkpt lat="48.62652" lon="1.97538">
        <ele>126.2</ele>
        <time>2026-01-13T08:44:28Z</time>
      </trkpt>
      <trkpt lat="48.62653" lon="1.97532">
        <ele>126.2</ele>
        <time>2026-01-13T08:44:29Z</time>
      </trkpt>
      <trkpt lat="48.62653" lon="1.97525">
        <ele>127</ele>
        <time>2026-01-13T08:44:30Z</time>
      </trkpt>
      <trkpt lat="48.62654" lon="1.97518">
        <ele>127.4</ele>
        <time>2026-01-13T08:44:31Z</time>
      </trkpt>
      <trkpt lat="48.62654" lon="1.97512">
        <ele>127.4</ele>
        <time>2026-01-13T08:44:32Z</time>
      </trkpt>
      <trkpt lat="48.62654" lon="1.97505">
        <ele>127.4</ele>
        <time>2026-01-13T08:44:33Z</time>
      </trkpt>
      <trkpt lat="48.62655" lon="1.97499">
        <ele>127.4</ele>
        <time>2026-01-13T08:44:34Z</time>
      </trkpt>
      <trkpt lat="48.62655" lon="1.97492">
        <ele>127.8</ele>
        <time>2026-01-13T08:44:35Z</time>
      </trkpt>
      <trkpt lat="48.62655" lon="1.97486">
        <ele>128</ele>
        <time>2026-01-13T08:44:36Z</time>
      </trkpt>
      <trkpt lat="48.62656" lon="1.97479">
        <ele>128.8</ele>
        <time>2026-01-13T08:44:37Z</time>
      </trkpt>
      <trkpt lat="48.62656" lon="1.97472">
        <ele>128.8</ele>
        <time>2026-01-13T08:44:38Z</time>
      </trkpt>
      <trkpt lat="48.62656" lon="1.97466">
        <ele>128.8</ele>
        <time>2026-01-13T08:44:39Z</time>
      </trkpt>
      <trkpt lat="48.62656" lon="1.97459">
        <ele>128.8</ele>
        <time>2026-01-13T08:44:40Z</time>
      </trkpt>
      <trkpt lat="48.62657" lon="1.97451">
        <ele>128.8</ele>
        <time>2026-01-13T08:44:41Z</time>
      </trkpt>
      <trkpt lat="48.62657" lon="1.97444">
        <ele>129.4</ele>
        <time>2026-01-13T08:44:42Z</time>
      </trkpt>
      <trkpt lat="48.62658" lon="1.97437">
        <ele>129.4</ele>
        <time>2026-01-13T08:44:43Z</time>
      </trkpt>
      <trkpt lat="48.62658" lon="1.97429">
        <ele>129.4</ele>
        <time>2026-01-13T08:44:44Z</time>
      </trkpt>
      <trkpt lat="48.62658" lon="1.97422">
        <ele>129.4</ele>
        <time>2026-01-13T08:44:45Z</time>
      </trkpt>
      <trkpt lat="48.62658" lon="1.97415">
        <ele>130.2</ele>
        <time>2026-01-13T08:44:46Z</time>
      </trkpt>
      <trkpt lat="48.62659" lon="1.97408">
        <ele>130.8</ele>
        <time>2026-01-13T08:44:47Z</time>
      </trkpt>
      <trkpt lat="48.62659" lon="1.97402">
        <ele>130.8</ele>
        <time>2026-01-13T08:44:48Z</time>
      </trkpt>
      <trkpt lat="48.6266" lon="1.97395">
        <ele>130.8</ele>
        <time>2026-01-13T08:44:49Z</time>
      </trkpt>
      <trkpt lat="48.6266" lon="1.97388">
        <ele>130.8</ele>
        <time>2026-01-13T08:44:50Z</time>
      </trkpt>
      <trkpt lat="48.62661" lon="1.97381">
        <ele>131.4</ele>
        <time>2026-01-13T08:44:51Z</time>
      </trkpt>
      <trkpt lat="48.62661" lon="1.97375">
        <ele>132</ele>
        <time>2026-01-13T08:44:52Z</time>
      </trkpt>
      <trkpt lat="48.62661" lon="1.97368">
        <ele>132</ele>
        <time>2026-01-13T08:44:53Z</time>
      </trkpt>
      <trkpt lat="48.62662" lon="1.97361">
        <ele>132</ele>
        <time>2026-01-13T08:44:54Z</time>
      </trkpt>
      <trkpt lat="48.62662" lon="1.97355">
        <ele>132</ele>
        <time>2026-01-13T08:44:55Z</time>
      </trkpt>
      <trkpt lat="48.62663" lon="1.97348">
        <ele>132.8</ele>
        <time>2026-01-13T08:44:56Z</time>
      </trkpt>
      <trkpt lat="48.62663" lon="1.97342">
        <ele>133.2</ele>
        <time>2026-01-13T08:44:57Z</time>
      </trkpt>
      <trkpt lat="48.62664" lon="1.97336">
        <ele>133.4</ele>
        <time>2026-01-13T08:44:58Z</time>
      </trkpt>
      <trkpt lat="48.62664" lon="1.9733">
        <ele>133.6</ele>
        <time>2026-01-13T08:44:59Z</time>
      </trkpt>
      <trkpt lat="48.62665" lon="1.97324">
        <ele>134.2</ele>
        <time>2026-01-13T08:45:00Z</time>
      </trkpt>
      <trkpt lat="48.62665" lon="1.97318">
        <ele>134.4</ele>
        <time>2026-01-13T08:45:01Z</time>
      </trkpt>
      <trkpt lat="48.62666" lon="1.97312">
        <ele>134.8</ele>
        <time>2026-01-13T08:45:02Z</time>
      </trkpt>
      <trkpt lat="48.62666" lon="1.97307">
        <ele>134.8</ele>
        <time>2026-01-13T08:45:03Z</time>
      </trkpt>
      <trkpt lat="48.62667" lon="1.97302">
        <ele>134.8</ele>
        <time>2026-01-13T08:45:04Z</time>
      </trkpt>
      <trkpt lat="48.62668" lon="1.97296">
        <ele>134.8</ele>
        <time>2026-01-13T08:45:05Z</time>
      </trkpt>
      <trkpt lat="48.62669" lon="1.9729">
        <ele>134.8</ele>
        <time>2026-01-13T08:45:06Z</time>
      </trkpt>
      <trkpt lat="48.6267" lon="1.97284">
        <ele>135.2</ele>
        <time>2026-01-13T08:45:07Z</time>
      </trkpt>
      <trkpt lat="48.6267" lon="1.97277">
        <ele>135.8</ele>
        <time>2026-01-13T08:45:08Z</time>
      </trkpt>
      <trkpt lat="48.62671" lon="1.97271">
        <ele>136</ele>
        <time>2026-01-13T08:45:09Z</time>
      </trkpt>
      <trkpt lat="48.62671" lon="1.97265">
        <ele>136</ele>
        <time>2026-01-13T08:45:10Z</time>
      </trkpt>
      <trkpt lat="48.62672" lon="1.97259">
        <ele>136</ele>
        <time>2026-01-13T08:45:11Z</time>
      </trkpt>
      <trkpt lat="48.62673" lon="1.97254">
        <ele>136</ele>
        <time>2026-01-13T08:45:12Z</time>
      </trkpt>
      <trkpt lat="48.62674" lon="1.97248">
        <ele>136</ele>
        <time>2026-01-13T08:45:13Z</time>
      </trkpt>
      <trkpt lat="48.62674" lon="1.97242">
        <ele>137</ele>
        <time>2026-01-13T08:45:14Z</time>
      </trkpt>
      <trkpt lat="48.62675" lon="1.97236">
        <ele>137.4</ele>
        <time>2026-01-13T08:45:15Z</time>
      </trkpt>
      <trkpt lat="48.62676" lon="1.9723">
        <ele>137.4</ele>
        <time>2026-01-13T08:45:16Z</time>
      </trkpt>
      <trkpt lat="48.62676" lon="1.97224">
        <ele>137.4</ele>
        <time>2026-01-13T08:45:17Z</time>
      </trkpt>
      <trkpt lat="48.62677" lon="1.97217">
        <ele>137.4</ele>
        <time>2026-01-13T08:45:18Z</time>
      </trkpt>
      <trkpt lat="48.62677" lon="1.97211">
        <ele>137.4</ele>
        <time>2026-01-13T08:45:19Z</time>
      </trkpt>
      <trkpt lat="48.62678" lon="1.97205">
        <ele>138</ele>
        <time>2026-01-13T08:45:20Z</time>
      </trkpt>
      <trkpt lat="48.62678" lon="1.97199">
        <ele>138</ele>
        <time>2026-01-13T08:45:21Z</time>
      </trkpt>
      <trkpt lat="48.62679" lon="1.97193">
        <ele>138</ele>
        <time>2026-01-13T08:45:22Z</time>
      </trkpt>
      <trkpt lat="48.62679" lon="1.97186">
        <ele>138</ele>
        <time>2026-01-13T08:45:23Z</time>
      </trkpt>
      <trkpt lat="48.6268" lon="1.97179">
        <ele>138</ele>
        <time>2026-01-13T08:45:24Z</time>
      </trkpt>
      <trkpt lat="48.6268" lon="1.97172">
        <ele>138</ele>
        <time>2026-01-13T08:45:25Z</time>
      </trkpt>
      <trkpt lat="48.6268" lon="1.97165">
        <ele>138</ele>
        <time>2026-01-13T08:45:26Z</time>
      </trkpt>
      <trkpt lat="48.62681" lon="1.97156">
        <ele>138</ele>
        <time>2026-01-13T08:45:27Z</time>
      </trkpt>
      <trkpt lat="48.62682" lon="1.97149">
        <ele>137</ele>
        <time>2026-01-13T08:45:28Z</time>
      </trkpt>
      <trkpt lat="48.62682" lon="1.9714">
        <ele>136.6</ele>
        <time>2026-01-13T08:45:29Z</time>
      </trkpt>
      <trkpt lat="48.62682" lon="1.97132">
        <ele>136.6</ele>
        <time>2026-01-13T08:45:30Z</time>
      </trkpt>
      <trkpt lat="48.62683" lon="1.97123">
        <ele>136.6</ele>
        <time>2026-01-13T08:45:31Z</time>
      </trkpt>
      <trkpt lat="48.62684" lon="1.97113">
        <ele>136.6</ele>
        <time>2026-01-13T08:45:32Z</time>
      </trkpt>
      <trkpt lat="48.62684" lon="1.97104">
        <ele>135.6</ele>
        <time>2026-01-13T08:45:33Z</time>
      </trkpt>
      <trkpt lat="48.62685" lon="1.97093">
        <ele>134.6</ele>
        <time>2026-01-13T08:45:34Z</time>
      </trkpt>
      <trkpt lat="48.62687" lon="1.97082">
        <ele>133.6</ele>
        <time>2026-01-13T08:45:35Z</time>
      </trkpt>
      <trkpt lat="48.62688" lon="1.97071">
        <ele>132.8</ele>
        <time>2026-01-13T08:45:36Z</time>
      </trkpt>
      <trkpt lat="48.62689" lon="1.97059">
        <ele>131.8</ele>
        <time>2026-01-13T08:45:37Z</time>
      </trkpt>
      <trkpt lat="48.6269" lon="1.97047">
        <ele>131.6</ele>
        <time>2026-01-13T08:45:38Z</time>
      </trkpt>
      <trkpt lat="48.62692" lon="1.97035">
        <ele>130.6</ele>
        <time>2026-01-13T08:45:39Z</time>
      </trkpt>
      <trkpt lat="48.62694" lon="1.97022">
        <ele>129.8</ele>
        <time>2026-01-13T08:45:40Z</time>
      </trkpt>
      <trkpt lat="48.62696" lon="1.97009">
        <ele>129.4</ele>
        <time>2026-01-13T08:45:41Z</time>
      </trkpt>
      <trkpt lat="48.62699" lon="1.96997">
        <ele>128.4</ele>
        <time>2026-01-13T08:45:42Z</time>
      </trkpt>
      <trkpt lat="48.62703" lon="1.96984">
        <ele>127.4</ele>
        <time>2026-01-13T08:45:43Z</time>
      </trkpt>
      <trkpt lat="48.62708" lon="1.96972">
        <ele>127.2</ele>
        <time>2026-01-13T08:45:44Z</time>
      </trkpt>
      <trkpt lat="48.62713" lon="1.96961">
        <ele>127.2</ele>
        <time>2026-01-13T08:45:45Z</time>
      </trkpt>
      <trkpt lat="48.62719" lon="1.9695">
        <ele>127.2</ele>
        <time>2026-01-13T08:45:46Z</time>
      </trkpt>
      <trkpt lat="48.62725" lon="1.9694">
        <ele>127.2</ele>
        <time>2026-01-13T08:45:47Z</time>
      </trkpt>
      <trkpt lat="48.62731" lon="1.9693">
        <ele>127.2</ele>
        <time>2026-01-13T08:45:48Z</time>
      </trkpt>
      <trkpt lat="48.62737" lon="1.96919">
        <ele>127</ele>
        <time>2026-01-13T08:45:49Z</time>
      </trkpt>
      <trkpt lat="48.62742" lon="1.96909">
        <ele>127</ele>
        <time>2026-01-13T08:45:50Z</time>
      </trkpt>
      <trkpt lat="48.62748" lon="1.969">
        <ele>127</ele>
        <time>2026-01-13T08:45:51Z</time>
      </trkpt>
      <trkpt lat="48.62753" lon="1.96891">
        <ele>127.6</ele>
        <time>2026-01-13T08:45:52Z</time>
      </trkpt>
      <trkpt lat="48.62759" lon="1.96881">
        <ele>127.6</ele>
        <time>2026-01-13T08:45:53Z</time>
      </trkpt>
      <trkpt lat="48.62764" lon="1.96873">
        <ele>127.6</ele>
        <time>2026-01-13T08:45:54Z</time>
      </trkpt>
      <trkpt lat="48.62769" lon="1.96864">
        <ele>127.6</ele>
        <time>2026-01-13T08:45:55Z</time>
      </trkpt>
      <trkpt lat="48.62774" lon="1.96856">
        <ele>128.6</ele>
        <time>2026-01-13T08:45:56Z</time>
      </trkpt>
      <trkpt lat="48.62779" lon="1.96848">
        <ele>129</ele>
        <time>2026-01-13T08:45:57Z</time>
      </trkpt>
      <trkpt lat="48.62784" lon="1.96841">
        <ele>129.6</ele>
        <time>2026-01-13T08:45:58Z</time>
      </trkpt>
      <trkpt lat="48.62789" lon="1.96833">
        <ele>129.8</ele>
        <time>2026-01-13T08:45:59Z</time>
      </trkpt>
      <trkpt lat="48.62793" lon="1.96825">
        <ele>130</ele>
        <time>2026-01-13T08:46:00Z</time>
      </trkpt>
      <trkpt lat="48.62797" lon="1.96817">
        <ele>130.4</ele>
        <time>2026-01-13T08:46:01Z</time>
      </trkpt>
      <trkpt lat="48.62802" lon="1.9681">
        <ele>130.6</ele>
        <time>2026-01-13T08:46:02Z</time>
      </trkpt>
      <trkpt lat="48.62806" lon="1.96803">
        <ele>130.6</ele>
        <time>2026-01-13T08:46:03Z</time>
      </trkpt>
      <trkpt lat="48.6281" lon="1.96795">
        <ele>130.6</ele>
        <time>2026-01-13T08:46:04Z</time>
      </trkpt>
      <trkpt lat="48.62814" lon="1.96788">
        <ele>130.6</ele>
        <time>2026-01-13T08:46:05Z</time>
      </trkpt>
      <trkpt lat="48.62818" lon="1.9678">
        <ele>130.6</ele>
        <time>2026-01-13T08:46:06Z</time>
      </trkpt>
      <trkpt lat="48.62822" lon="1.96773">
        <ele>131.4</ele>
        <time>2026-01-13T08:46:07Z</time>
      </trkpt>
      <trkpt lat="48.62826" lon="1.96765">
        <ele>131.4</ele>
        <time>2026-01-13T08:46:08Z</time>
      </trkpt>
      <trkpt lat="48.6283" lon="1.96758">
        <ele>131.4</ele>
        <time>2026-01-13T08:46:09Z</time>
      </trkpt>
      <trkpt lat="48.62834" lon="1.96751">
        <ele>131.4</ele>
        <time>2026-01-13T08:46:10Z</time>
      </trkpt>
      <trkpt lat="48.62838" lon="1.96743">
        <ele>131.4</ele>
        <time>2026-01-13T08:46:11Z</time>
      </trkpt>
      <trkpt lat="48.62842" lon="1.96735">
        <ele>131.4</ele>
        <time>2026-01-13T08:46:12Z</time>
      </trkpt>
      <trkpt lat="48.62845" lon="1.96727">
        <ele>130.8</ele>
        <time>2026-01-13T08:46:13Z</time>
      </trkpt>
      <trkpt lat="48.62849" lon="1.96719">
        <ele>130.8</ele>
        <time>2026-01-13T08:46:14Z</time>
      </trkpt>
      <trkpt lat="48.62853" lon="1.96711">
        <ele>130.8</ele>
        <time>2026-01-13T08:46:15Z</time>
      </trkpt>
      <trkpt lat="48.62857" lon="1.96703">
        <ele>130.8</ele>
        <time>2026-01-13T08:46:16Z</time>
      </trkpt>
      <trkpt lat="48.62861" lon="1.96694">
        <ele>129.8</ele>
        <time>2026-01-13T08:46:17Z</time>
      </trkpt>
      <trkpt lat="48.62865" lon="1.96686">
        <ele>129.8</ele>
        <time>2026-01-13T08:46:18Z</time>
      </trkpt>
      <trkpt lat="48.62869" lon="1.96678">
        <ele>129.8</ele>
        <time>2026-01-13T08:46:19Z</time>
      </trkpt>
      <trkpt lat="48.62873" lon="1.96669">
        <ele>129.8</ele>
        <time>2026-01-13T08:46:20Z</time>
      </trkpt>
      <trkpt lat="48.62877" lon="1.9666">
        <ele>129.8</ele>
        <time>2026-01-13T08:46:21Z</time>
      </trkpt>
      <trkpt lat="48.62882" lon="1.96652">
        <ele>129.8</ele>
        <time>2026-01-13T08:46:22Z</time>
      </trkpt>
      <trkpt lat="48.62886" lon="1.96644">
        <ele>128.8</ele>
        <time>2026-01-13T08:46:23Z</time>
      </trkpt>
      <trkpt lat="48.62891" lon="1.96635">
        <ele>128.6</ele>
        <time>2026-01-13T08:46:24Z</time>
      </trkpt>
      <trkpt lat="48.62895" lon="1.96626">
        <ele>128.4</ele>
        <time>2026-01-13T08:46:25Z</time>
      </trkpt>
      <trkpt lat="48.629" lon="1.96618">
        <ele>128.2</ele>
        <time>2026-01-13T08:46:26Z</time>
      </trkpt>
      <trkpt lat="48.62905" lon="1.9661">
        <ele>128</ele>
        <time>2026-01-13T08:46:27Z</time>
      </trkpt>
      <trkpt lat="48.6291" lon="1.96601">
        <ele>128</ele>
        <time>2026-01-13T08:46:28Z</time>
      </trkpt>
      <trkpt lat="48.62915" lon="1.96593">
        <ele>128</ele>
        <time>2026-01-13T08:46:29Z</time>
      </trkpt>
      <trkpt lat="48.6292" lon="1.96585">
        <ele>128</ele>
        <time>2026-01-13T08:46:30Z</time>
      </trkpt>
      <trkpt lat="48.62925" lon="1.96577">
        <ele>128</ele>
        <time>2026-01-13T08:46:31Z</time>
      </trkpt>
      <trkpt lat="48.62931" lon="1.96569">
        <ele>128</ele>
        <time>2026-01-13T08:46:32Z</time>
      </trkpt>
      <trkpt lat="48.62936" lon="1.96562">
        <ele>127.8</ele>
        <time>2026-01-13T08:46:33Z</time>
      </trkpt>
      <trkpt lat="48.62941" lon="1.96554">
        <ele>127.6</ele>
        <time>2026-01-13T08:46:34Z</time>
      </trkpt>
      <trkpt lat="48.62947" lon="1.96547">
        <ele>127.4</ele>
        <time>2026-01-13T08:46:35Z</time>
      </trkpt>
      <trkpt lat="48.62951" lon="1.96539">
        <ele>127.4</ele>
        <time>2026-01-13T08:46:36Z</time>
      </trkpt>
      <trkpt lat="48.62956" lon="1.96531">
        <ele>127.4</ele>
        <time>2026-01-13T08:46:37Z</time>
      </trkpt>
      <trkpt lat="48.62962" lon="1.96523">
        <ele>127.4</ele>
        <time>2026-01-13T08:46:38Z</time>
      </trkpt>
      <trkpt lat="48.62967" lon="1.96514">
        <ele>126.4</ele>
        <time>2026-01-13T08:46:39Z</time>
      </trkpt>
      <trkpt lat="48.62972" lon="1.96506">
        <ele>126</ele>
        <time>2026-01-13T08:46:40Z</time>
      </trkpt>
      <trkpt lat="48.62978" lon="1.96497">
        <ele>125.4</ele>
        <time>2026-01-13T08:46:41Z</time>
      </trkpt>
      <trkpt lat="48.62983" lon="1.96488">
        <ele>125.4</ele>
        <time>2026-01-13T08:46:42Z</time>
      </trkpt>
      <trkpt lat="48.62988" lon="1.96479">
        <ele>125.4</ele>
        <time>2026-01-13T08:46:43Z</time>
      </trkpt>
      <trkpt lat="48.62994" lon="1.9647">
        <ele>125.4</ele>
        <time>2026-01-13T08:46:44Z</time>
      </trkpt>
      <trkpt lat="48.62998" lon="1.96461">
        <ele>124.4</ele>
        <time>2026-01-13T08:46:45Z</time>
      </trkpt>
      <trkpt lat="48.63003" lon="1.96451">
        <ele>124.2</ele>
        <time>2026-01-13T08:46:46Z</time>
      </trkpt>
      <trkpt lat="48.63009" lon="1.96441">
        <ele>123.8</ele>
        <time>2026-01-13T08:46:47Z</time>
      </trkpt>
      <trkpt lat="48.63014" lon="1.96431">
        <ele>123.6</ele>
        <time>2026-01-13T08:46:48Z</time>
      </trkpt>
      <trkpt lat="48.63019" lon="1.96422">
        <ele>123</ele>
        <time>2026-01-13T08:46:49Z</time>
      </trkpt>
      <trkpt lat="48.63025" lon="1.96411">
        <ele>123</ele>
        <time>2026-01-13T08:46:50Z</time>
      </trkpt>
      <trkpt lat="48.6303" lon="1.96401">
        <ele>123</ele>
        <time>2026-01-13T08:46:51Z</time>
      </trkpt>
      <trkpt lat="48.63036" lon="1.96392">
        <ele>123</ele>
        <time>2026-01-13T08:46:52Z</time>
      </trkpt>
      <trkpt lat="48.63041" lon="1.96382">
        <ele>123.2</ele>
        <time>2026-01-13T08:46:53Z</time>
      </trkpt>
      <trkpt lat="48.63045" lon="1.96371">
        <ele>123.6</ele>
        <time>2026-01-13T08:46:54Z</time>
      </trkpt>
      <trkpt lat="48.6305" lon="1.96361">
        <ele>123.8</ele>
        <time>2026-01-13T08:46:55Z</time>
      </trkpt>
      <trkpt lat="48.63054" lon="1.96352">
        <ele>124.2</ele>
        <time>2026-01-13T08:46:56Z</time>
      </trkpt>
      <trkpt lat="48.63058" lon="1.96343">
        <ele>124.8</ele>
        <time>2026-01-13T08:46:57Z</time>
      </trkpt>
      <trkpt lat="48.63062" lon="1.96334">
        <ele>125.2</ele>
        <time>2026-01-13T08:46:58Z</time>
      </trkpt>
      <trkpt lat="48.63066" lon="1.96326">
        <ele>125.6</ele>
        <time>2026-01-13T08:46:59Z</time>
      </trkpt>
      <trkpt lat="48.63069" lon="1.96318">
        <ele>125.8</ele>
        <time>2026-01-13T08:47:00Z</time>
      </trkpt>
      <trkpt lat="48.63072" lon="1.9631">
        <ele>126.2</ele>
        <time>2026-01-13T08:47:01Z</time>
      </trkpt>
      <trkpt lat="48.63076" lon="1.96303">
        <ele>126.2</ele>
        <time>2026-01-13T08:47:02Z</time>
      </trkpt>
      <trkpt lat="48.63079" lon="1.96295">
        <ele>126.2</ele>
        <time>2026-01-13T08:47:03Z</time>
      </trkpt>
      <trkpt lat="48.63082" lon="1.96288">
        <ele>126.2</ele>
        <time>2026-01-13T08:47:04Z</time>
      </trkpt>
      <trkpt lat="48.63085" lon="1.9628">
        <ele>127</ele>
        <time>2026-01-13T08:47:05Z</time>
      </trkpt>
      <trkpt lat="48.63088" lon="1.96271">
        <ele>127.2</ele>
        <time>2026-01-13T08:47:06Z</time>
      </trkpt>
      <trkpt lat="48.63091" lon="1.96264">
        <ele>127.2</ele>
        <time>2026-01-13T08:47:07Z</time>
      </trkpt>
      <trkpt lat="48.63094" lon="1.96257">
        <ele>127.2</ele>
        <time>2026-01-13T08:47:08Z</time>
      </trkpt>
      <trkpt lat="48.63097" lon="1.9625">
        <ele>127.2</ele>
        <time>2026-01-13T08:47:09Z</time>
      </trkpt>
      <trkpt lat="48.631" lon="1.96242">
        <ele>127.6</ele>
        <time>2026-01-13T08:47:10Z</time>
      </trkpt>
      <trkpt lat="48.63102" lon="1.96233">
        <ele>127.6</ele>
        <time>2026-01-13T08:47:11Z</time>
      </trkpt>
      <trkpt lat="48.63105" lon="1.96226">
        <ele>127.6</ele>
        <time>2026-01-13T08:47:12Z</time>
      </trkpt>
      <trkpt lat="48.63108" lon="1.96217">
        <ele>127.6</ele>
        <time>2026-01-13T08:47:13Z</time>
      </trkpt>
      <trkpt lat="48.63111" lon="1.96208">
        <ele>127.6</ele>
        <time>2026-01-13T08:47:14Z</time>
      </trkpt>
      <trkpt lat="48.63113" lon="1.962">
        <ele>127.6</ele>
        <time>2026-01-13T08:47:15Z</time>
      </trkpt>
      <trkpt lat="48.63116" lon="1.96191">
        <ele>127.6</ele>
        <time>2026-01-13T08:47:16Z</time>
      </trkpt>
      <trkpt lat="48.63118" lon="1.96182">
        <ele>127</ele>
        <time>2026-01-13T08:47:17Z</time>
      </trkpt>
      <trkpt lat="48.6312" lon="1.96172">
        <ele>126.2</ele>
        <time>2026-01-13T08:47:18Z</time>
      </trkpt>
      <trkpt lat="48.63122" lon="1.96164">
        <ele>126.2</ele>
        <time>2026-01-13T08:47:19Z</time>
      </trkpt>
      <trkpt lat="48.63124" lon="1.96155">
        <ele>126.2</ele>
        <time>2026-01-13T08:47:20Z</time>
      </trkpt>
      <trkpt lat="48.63125" lon="1.96146">
        <ele>126.2</ele>
        <time>2026-01-13T08:47:21Z</time>
      </trkpt>
      <trkpt lat="48.63127" lon="1.96137">
        <ele>126.2</ele>
        <time>2026-01-13T08:47:22Z</time>
      </trkpt>
      <trkpt lat="48.63129" lon="1.96128">
        <ele>126.2</ele>
        <time>2026-01-13T08:47:23Z</time>
      </trkpt>
      <trkpt lat="48.63132" lon="1.96118">
        <ele>125.2</ele>
        <time>2026-01-13T08:47:24Z</time>
      </trkpt>
      <trkpt lat="48.63134" lon="1.96108">
        <ele>125.2</ele>
        <time>2026-01-13T08:47:25Z</time>
      </trkpt>
      <trkpt lat="48.63136" lon="1.96098">
        <ele>125.2</ele>
        <time>2026-01-13T08:47:26Z</time>
      </trkpt>
      <trkpt lat="48.63138" lon="1.96087">
        <ele>125.2</ele>
        <time>2026-01-13T08:47:27Z</time>
      </trkpt>
      <trkpt lat="48.63141" lon="1.96077">
        <ele>125.2</ele>
        <time>2026-01-13T08:47:28Z</time>
      </trkpt>
      <trkpt lat="48.63143" lon="1.96066">
        <ele>124.8</ele>
        <time>2026-01-13T08:47:29Z</time>
      </trkpt>
      <trkpt lat="48.63145" lon="1.96055">
        <ele>124.6</ele>
        <time>2026-01-13T08:47:30Z</time>
      </trkpt>
      <trkpt lat="48.63148" lon="1.96044">
        <ele>124.6</ele>
        <time>2026-01-13T08:47:31Z</time>
      </trkpt>
      <trkpt lat="48.6315" lon="1.96033">
        <ele>124.6</ele>
        <time>2026-01-13T08:47:32Z</time>
      </trkpt>
      <trkpt lat="48.63153" lon="1.96021">
        <ele>124.6</ele>
        <time>2026-01-13T08:47:33Z</time>
      </trkpt>
      <trkpt lat="48.63156" lon="1.9601">
        <ele>123.6</ele>
        <time>2026-01-13T08:47:34Z</time>
      </trkpt>
      <trkpt lat="48.63158" lon="1.95998">
        <ele>123.2</ele>
        <time>2026-01-13T08:47:35Z</time>
      </trkpt>
      <trkpt lat="48.63161" lon="1.95987">
        <ele>122.8</ele>
        <time>2026-01-13T08:47:36Z</time>
      </trkpt>
      <trkpt lat="48.63163" lon="1.95975">
        <ele>122</ele>
        <time>2026-01-13T08:47:37Z</time>
      </trkpt>
      <trkpt lat="48.63166" lon="1.95963">
        <ele>122</ele>
        <time>2026-01-13T08:47:38Z</time>
      </trkpt>
      <trkpt lat="48.63169" lon="1.95951">
        <ele>122</ele>
        <time>2026-01-13T08:47:39Z</time>
      </trkpt>
      <trkpt lat="48.63171" lon="1.95939">
        <ele>122</ele>
        <time>2026-01-13T08:47:40Z</time>
      </trkpt>
      <trkpt lat="48.63174" lon="1.95927">
        <ele>121</ele>
        <time>2026-01-13T08:47:41Z</time>
      </trkpt>
      <trkpt lat="48.63177" lon="1.95914">
        <ele>120.6</ele>
        <time>2026-01-13T08:47:42Z</time>
      </trkpt>
      <trkpt lat="48.6318" lon="1.95902">
        <ele>119.8</ele>
        <time>2026-01-13T08:47:43Z</time>
      </trkpt>
      <trkpt lat="48.63183" lon="1.95889">
        <ele>119.2</ele>
        <time>2026-01-13T08:47:44Z</time>
      </trkpt>
      <trkpt lat="48.63187" lon="1.95877">
        <ele>119</ele>
        <time>2026-01-13T08:47:45Z</time>
      </trkpt>
      <trkpt lat="48.63192" lon="1.95866">
        <ele>118.6</ele>
        <time>2026-01-13T08:47:46Z</time>
      </trkpt>
      <trkpt lat="48.63197" lon="1.95855">
        <ele>118.6</ele>
        <time>2026-01-13T08:47:47Z</time>
      </trkpt>
      <trkpt lat="48.63203" lon="1.95845">
        <ele>118.6</ele>
        <time>2026-01-13T08:47:48Z</time>
      </trkpt>
      <trkpt lat="48.63208" lon="1.95835">
        <ele>119</ele>
        <time>2026-01-13T08:47:49Z</time>
      </trkpt>
      <trkpt lat="48.63214" lon="1.95826">
        <ele>119</ele>
        <time>2026-01-13T08:47:50Z</time>
      </trkpt>
      <trkpt lat="48.6322" lon="1.95817">
        <ele>119.4</ele>
        <time>2026-01-13T08:47:51Z</time>
      </trkpt>
      <trkpt lat="48.63226" lon="1.95809">
        <ele>119.6</ele>
        <time>2026-01-13T08:47:52Z</time>
      </trkpt>
      <trkpt lat="48.63231" lon="1.958">
        <ele>120</ele>
        <time>2026-01-13T08:47:53Z</time>
      </trkpt>
      <trkpt lat="48.63236" lon="1.95792">
        <ele>120.6</ele>
        <time>2026-01-13T08:47:54Z</time>
      </trkpt>
      <trkpt lat="48.63241" lon="1.95785">
        <ele>120.6</ele>
        <time>2026-01-13T08:47:55Z</time>
      </trkpt>
      <trkpt lat="48.63246" lon="1.95778">
        <ele>120.6</ele>
        <time>2026-01-13T08:47:56Z</time>
      </trkpt>
      <trkpt lat="48.63251" lon="1.9577">
        <ele>120.6</ele>
        <time>2026-01-13T08:47:57Z</time>
      </trkpt>
      <trkpt lat="48.63255" lon="1.95763">
        <ele>121.6</ele>
        <time>2026-01-13T08:47:58Z</time>
      </trkpt>
      <trkpt lat="48.6326" lon="1.95756">
        <ele>122.2</ele>
        <time>2026-01-13T08:47:59Z</time>
      </trkpt>
      <trkpt lat="48.63264" lon="1.95749">
        <ele>122.2</ele>
        <time>2026-01-13T08:48:00Z</time>
      </trkpt>
      <trkpt lat="48.63269" lon="1.95742">
        <ele>122.2</ele>
        <time>2026-01-13T08:48:01Z</time>
      </trkpt>
      <trkpt lat="48.63274" lon="1.95735">
        <ele>121.8</ele>
        <time>2026-01-13T08:48:02Z</time>
      </trkpt>
      <trkpt lat="48.63279" lon="1.95728">
        <ele>121</ele>
        <time>2026-01-13T08:48:03Z</time>
      </trkpt>
      <trkpt lat="48.63284" lon="1.9572">
        <ele>121</ele>
        <time>2026-01-13T08:48:04Z</time>
      </trkpt>
      <trkpt lat="48.63289" lon="1.95712">
        <ele>121</ele>
        <time>2026-01-13T08:48:05Z</time>
      </trkpt>
      <trkpt lat="48.63294" lon="1.95705">
        <ele>121</ele>
        <time>2026-01-13T08:48:06Z</time>
      </trkpt>
      <trkpt lat="48.63299" lon="1.95697">
        <ele>120</ele>
        <time>2026-01-13T08:48:07Z</time>
      </trkpt>
      <trkpt lat="48.63305" lon="1.95689">
        <ele>120</ele>
        <time>2026-01-13T08:48:08Z</time>
      </trkpt>
      <trkpt lat="48.6331" lon="1.95681">
        <ele>119.8</ele>
        <time>2026-01-13T08:48:09Z</time>
      </trkpt>
      <trkpt lat="48.63315" lon="1.95673">
        <ele>119.6</ele>
        <time>2026-01-13T08:48:10Z</time>
      </trkpt>
      <trkpt lat="48.6332" lon="1.95664">
        <ele>119.4</ele>
        <time>2026-01-13T08:48:11Z</time>
      </trkpt>
      <trkpt lat="48.63326" lon="1.95656">
        <ele>119.4</ele>
        <time>2026-01-13T08:48:12Z</time>
      </trkpt>
      <trkpt lat="48.63331" lon="1.95648">
        <ele>119.4</ele>
        <time>2026-01-13T08:48:13Z</time>
      </trkpt>
      <trkpt lat="48.63336" lon="1.9564">
        <ele>119.8</ele>
        <time>2026-01-13T08:48:14Z</time>
      </trkpt>
      <trkpt lat="48.63342" lon="1.95632">
        <ele>119.8</ele>
        <time>2026-01-13T08:48:15Z</time>
      </trkpt>
      <trkpt lat="48.63347" lon="1.95624">
        <ele>119.8</ele>
        <time>2026-01-13T08:48:16Z</time>
      </trkpt>
      <trkpt lat="48.63352" lon="1.95616">
        <ele>119.4</ele>
        <time>2026-01-13T08:48:17Z</time>
      </trkpt>
      <trkpt lat="48.63357" lon="1.95609">
        <ele>119.4</ele>
        <time>2026-01-13T08:48:18Z</time>
      </trkpt>
      <trkpt lat="48.63362" lon="1.95601">
        <ele>119.4</ele>
        <time>2026-01-13T08:48:19Z</time>
      </trkpt>
      <trkpt lat="48.63367" lon="1.95593">
        <ele>119.4</ele>
        <time>2026-01-13T08:48:20Z</time>
      </trkpt>
      <trkpt lat="48.63372" lon="1.95586">
        <ele>119.4</ele>
        <time>2026-01-13T08:48:21Z</time>
      </trkpt>
      <trkpt lat="48.63377" lon="1.95579">
        <ele>119.4</ele>
        <time>2026-01-13T08:48:22Z</time>
      </trkpt>
      <trkpt lat="48.63382" lon="1.95571">
        <ele>119.4</ele>
        <time>2026-01-13T08:48:23Z</time>
      </trkpt>
      <trkpt lat="48.63387" lon="1.95564">
        <ele>119.4</ele>
        <time>2026-01-13T08:48:24Z</time>
      </trkpt>
      <trkpt lat="48.63393" lon="1.95558">
        <ele>119.4</ele>
        <time>2026-01-13T08:48:25Z</time>
      </trkpt>
      <trkpt lat="48.63398" lon="1.95551">
        <ele>119.4</ele>
        <time>2026-01-13T08:48:26Z</time>
      </trkpt>
      <trkpt lat="48.63402" lon="1.95543">
        <ele>119.4</ele>
        <time>2026-01-13T08:48:27Z</time>
      </trkpt>
      <trkpt lat="48.63407" lon="1.95537">
        <ele>119.4</ele>
        <time>2026-01-13T08:48:28Z</time>
      </trkpt>
      <trkpt lat="48.63412" lon="1.9553">
        <ele>119.4</ele>
        <time>2026-01-13T08:48:29Z</time>
      </trkpt>
      <trkpt lat="48.63417" lon="1.95522">
        <ele>119.4</ele>
        <time>2026-01-13T08:48:30Z</time>
      </trkpt>
      <trkpt lat="48.63422" lon="1.95515">
        <ele>118.8</ele>
        <time>2026-01-13T08:48:31Z</time>
      </trkpt>
      <trkpt lat="48.63427" lon="1.95507">
        <ele>118.4</ele>
        <time>2026-01-13T08:48:32Z</time>
      </trkpt>
      <trkpt lat="48.63432" lon="1.95499">
        <ele>118.4</ele>
        <time>2026-01-13T08:48:33Z</time>
      </trkpt>
      <trkpt lat="48.63437" lon="1.9549">
        <ele>118.4</ele>
        <time>2026-01-13T08:48:34Z</time>
      </trkpt>
      <trkpt lat="48.63442" lon="1.95482">
        <ele>118.4</ele>
        <time>2026-01-13T08:48:35Z</time>
      </trkpt>
      <trkpt lat="48.63447" lon="1.95474">
        <ele>118.4</ele>
        <time>2026-01-13T08:48:36Z</time>
      </trkpt>
      <trkpt lat="48.63453" lon="1.95465">
        <ele>117.4</ele>
        <time>2026-01-13T08:48:37Z</time>
      </trkpt>
      <trkpt lat="48.63458" lon="1.95458">
        <ele>117.4</ele>
        <time>2026-01-13T08:48:38Z</time>
      </trkpt>
      <trkpt lat="48.63465" lon="1.9545">
        <ele>117.4</ele>
        <time>2026-01-13T08:48:39Z</time>
      </trkpt>
      <trkpt lat="48.63471" lon="1.95443">
        <ele>117.4</ele>
        <time>2026-01-13T08:48:40Z</time>
      </trkpt>
      <trkpt lat="48.63478" lon="1.95437">
        <ele>116.4</ele>
        <time>2026-01-13T08:48:41Z</time>
      </trkpt>
      <trkpt lat="48.63485" lon="1.95431">
        <ele>115.8</ele>
        <time>2026-01-13T08:48:42Z</time>
      </trkpt>
      <trkpt lat="48.63492" lon="1.95426">
        <ele>115.6</ele>
        <time>2026-01-13T08:48:43Z</time>
      </trkpt>
      <trkpt lat="48.63499" lon="1.9542">
        <ele>115.4</ele>
        <time>2026-01-13T08:48:44Z</time>
      </trkpt>
      <trkpt lat="48.63506" lon="1.95415">
        <ele>115.2</ele>
        <time>2026-01-13T08:48:45Z</time>
      </trkpt>
      <trkpt lat="48.63514" lon="1.9541">
        <ele>114.6</ele>
        <time>2026-01-13T08:48:46Z</time>
      </trkpt>
      <trkpt lat="48.63522" lon="1.95406">
        <ele>114.6</ele>
        <time>2026-01-13T08:48:47Z</time>
      </trkpt>
      <trkpt lat="48.6353" lon="1.95401">
        <ele>114.6</ele>
        <time>2026-01-13T08:48:48Z</time>
      </trkpt>
      <trkpt lat="48.63537" lon="1.95397">
        <ele>114.6</ele>
        <time>2026-01-13T08:48:49Z</time>
      </trkpt>
      <trkpt lat="48.63545" lon="1.95394">
        <ele>114</ele>
        <time>2026-01-13T08:48:50Z</time>
      </trkpt>
      <trkpt lat="48.63553" lon="1.95392">
        <ele>114</ele>
        <time>2026-01-13T08:48:51Z</time>
      </trkpt>
      <trkpt lat="48.63562" lon="1.95391">
        <ele>114</ele>
        <time>2026-01-13T08:48:52Z</time>
      </trkpt>
      <trkpt lat="48.6357" lon="1.95391">
        <ele>114.4</ele>
        <time>2026-01-13T08:48:53Z</time>
      </trkpt>
      <trkpt lat="48.63578" lon="1.95392">
        <ele>114.4</ele>
        <time>2026-01-13T08:48:54Z</time>
      </trkpt>
      <trkpt lat="48.63586" lon="1.95394">
        <ele>114.4</ele>
        <time>2026-01-13T08:48:55Z</time>
      </trkpt>
      <trkpt lat="48.63594" lon="1.95397">
        <ele>114</ele>
        <time>2026-01-13T08:48:56Z</time>
      </trkpt>
      <trkpt lat="48.63601" lon="1.954">
        <ele>114</ele>
        <time>2026-01-13T08:48:57Z</time>
      </trkpt>
      <trkpt lat="48.63609" lon="1.95403">
        <ele>114</ele>
        <time>2026-01-13T08:48:58Z</time>
      </trkpt>
      <trkpt lat="48.63616" lon="1.95405">
        <ele>114</ele>
        <time>2026-01-13T08:48:59Z</time>
      </trkpt>
      <trkpt lat="48.63624" lon="1.95407">
        <ele>114</ele>
        <time>2026-01-13T08:49:00Z</time>
      </trkpt>
      <trkpt lat="48.63632" lon="1.9541">
        <ele>114</ele>
        <time>2026-01-13T08:49:01Z</time>
      </trkpt>
      <trkpt lat="48.63638" lon="1.95413">
        <ele>114</ele>
        <time>2026-01-13T08:49:02Z</time>
      </trkpt>
      <trkpt lat="48.63646" lon="1.95415">
        <ele>113.4</ele>
        <time>2026-01-13T08:49:03Z</time>
      </trkpt>
      <trkpt lat="48.63653" lon="1.95418">
        <ele>113.4</ele>
        <time>2026-01-13T08:49:04Z</time>
      </trkpt>
      <trkpt lat="48.6366" lon="1.95421">
        <ele>113.4</ele>
        <time>2026-01-13T08:49:05Z</time>
      </trkpt>
      <trkpt lat="48.63667" lon="1.95423">
        <ele>113.4</ele>
        <time>2026-01-13T08:49:06Z</time>
      </trkpt>
      <trkpt lat="48.63673" lon="1.95425">
        <ele>114.2</ele>
        <time>2026-01-13T08:49:07Z</time>
      </trkpt>
      <trkpt lat="48.6368" lon="1.95427">
        <ele>114.8</ele>
        <time>2026-01-13T08:49:08Z</time>
      </trkpt>
      <trkpt lat="48.63686" lon="1.95429">
        <ele>115.4</ele>
        <time>2026-01-13T08:49:09Z</time>
      </trkpt>
      <trkpt lat="48.63692" lon="1.9543">
        <ele>115.8</ele>
        <time>2026-01-13T08:49:10Z</time>
      </trkpt>
      <trkpt lat="48.63698" lon="1.95432">
        <ele>115.8</ele>
        <time>2026-01-13T08:49:11Z</time>
      </trkpt>
      <trkpt lat="48.63704" lon="1.95432">
        <ele>115.8</ele>
        <time>2026-01-13T08:49:12Z</time>
      </trkpt>
      <trkpt lat="48.6371" lon="1.95432">
        <ele>115.8</ele>
        <time>2026-01-13T08:49:13Z</time>
      </trkpt>
      <trkpt lat="48.63715" lon="1.9543">
        <ele>116.8</ele>
        <time>2026-01-13T08:49:14Z</time>
      </trkpt>
      <trkpt lat="48.6372" lon="1.95428">
        <ele>117.4</ele>
        <time>2026-01-13T08:49:15Z</time>
      </trkpt>
      <trkpt lat="48.63725" lon="1.95425">
        <ele>117.6</ele>
        <time>2026-01-13T08:49:16Z</time>
      </trkpt>
      <trkpt lat="48.63729" lon="1.95421">
        <ele>117.8</ele>
        <time>2026-01-13T08:49:17Z</time>
      </trkpt>
      <trkpt lat="48.63733" lon="1.95416">
        <ele>118</ele>
        <time>2026-01-13T08:49:18Z</time>
      </trkpt>
      <trkpt lat="48.63737" lon="1.9541">
        <ele>118.2</ele>
        <time>2026-01-13T08:49:19Z</time>
      </trkpt>
      <trkpt lat="48.63741" lon="1.95404">
        <ele>118.4</ele>
        <time>2026-01-13T08:49:20Z</time>
      </trkpt>
      <trkpt lat="48.63744" lon="1.95397">
        <ele>119</ele>
        <time>2026-01-13T08:49:21Z</time>
      </trkpt>
      <trkpt lat="48.63747" lon="1.95391">
        <ele>119</ele>
        <time>2026-01-13T08:49:22Z</time>
      </trkpt>
      <trkpt lat="48.6375" lon="1.95384">
        <ele>119</ele>
        <time>2026-01-13T08:49:23Z</time>
      </trkpt>
      <trkpt lat="48.63753" lon="1.95377">
        <ele>119</ele>
        <time>2026-01-13T08:49:24Z</time>
      </trkpt>
      <trkpt lat="48.63756" lon="1.95369">
        <ele>120</ele>
        <time>2026-01-13T08:49:25Z</time>
      </trkpt>
      <trkpt lat="48.63759" lon="1.95361">
        <ele>120.4</ele>
        <time>2026-01-13T08:49:26Z</time>
      </trkpt>
      <trkpt lat="48.63762" lon="1.95354">
        <ele>120.4</ele>
        <time>2026-01-13T08:49:27Z</time>
      </trkpt>
      <trkpt lat="48.63764" lon="1.95346">
        <ele>120.4</ele>
        <time>2026-01-13T08:49:28Z</time>
      </trkpt>
      <trkpt lat="48.63767" lon="1.95339">
        <ele>120.2</ele>
        <time>2026-01-13T08:49:29Z</time>
      </trkpt>
      <trkpt lat="48.63769" lon="1.95332">
        <ele>120.2</ele>
        <time>2026-01-13T08:49:30Z</time>
      </trkpt>
      <trkpt lat="48.63772" lon="1.95324">
        <ele>120.2</ele>
        <time>2026-01-13T08:49:31Z</time>
      </trkpt>
      <trkpt lat="48.63775" lon="1.95317">
        <ele>120.6</ele>
        <time>2026-01-13T08:49:32Z</time>
      </trkpt>
      <trkpt lat="48.63777" lon="1.95309">
        <ele>120.6</ele>
        <time>2026-01-13T08:49:33Z</time>
      </trkpt>
      <trkpt lat="48.6378" lon="1.95302">
        <ele>120.6</ele>
        <time>2026-01-13T08:49:34Z</time>
      </trkpt>
      <trkpt lat="48.63783" lon="1.95294">
        <ele>120.6</ele>
        <time>2026-01-13T08:49:35Z</time>
      </trkpt>
      <trkpt lat="48.63785" lon="1.95286">
        <ele>120.6</ele>
        <time>2026-01-13T08:49:36Z</time>
      </trkpt>
      <trkpt lat="48.63788" lon="1.95279">
        <ele>120.6</ele>
        <time>2026-01-13T08:49:37Z</time>
      </trkpt>
      <trkpt lat="48.63791" lon="1.95271">
        <ele>120.6</ele>
        <time>2026-01-13T08:49:38Z</time>
      </trkpt>
      <trkpt lat="48.63794" lon="1.95263">
        <ele>120.6</ele>
        <time>2026-01-13T08:49:39Z</time>
      </trkpt>
      <trkpt lat="48.63796" lon="1.95255">
        <ele>120.6</ele>
        <time>2026-01-13T08:49:40Z</time>
      </trkpt>
      <trkpt lat="48.63798" lon="1.95247">
        <ele>120.6</ele>
        <time>2026-01-13T08:49:41Z</time>
      </trkpt>
      <trkpt lat="48.638" lon="1.95239">
        <ele>120.6</ele>
        <time>2026-01-13T08:49:42Z</time>
      </trkpt>
      <trkpt lat="48.63802" lon="1.95232">
        <ele>120.6</ele>
        <time>2026-01-13T08:49:43Z</time>
      </trkpt>
      <trkpt lat="48.63804" lon="1.95224">
        <ele>120.6</ele>
        <time>2026-01-13T08:49:44Z</time>
      </trkpt>
      <trkpt lat="48.63806" lon="1.95216">
        <ele>120.6</ele>
        <time>2026-01-13T08:49:45Z</time>
      </trkpt>
      <trkpt lat="48.63808" lon="1.95209">
        <ele>120.6</ele>
        <time>2026-01-13T08:49:46Z</time>
      </trkpt>
      <trkpt lat="48.6381" lon="1.95203">
        <ele>120.6</ele>
        <time>2026-01-13T08:49:47Z</time>
      </trkpt>
      <trkpt lat="48.63812" lon="1.952">
        <ele>121.4</ele>
        <time>2026-01-13T08:49:48Z</time>
      </trkpt>
      <trkpt lat="48.63813" lon="1.95196">
        <ele>121.4</ele>
        <time>2026-01-13T08:49:49Z</time>
      </trkpt>
      <trkpt lat="48.63814" lon="1.95191">
        <ele>121.4</ele>
        <time>2026-01-13T08:49:50Z</time>
      </trkpt>
      <trkpt lat="48.63814" lon="1.95185">
        <ele>121.4</ele>
        <time>2026-01-13T08:49:51Z</time>
      </trkpt>
      <trkpt lat="48.63816" lon="1.9518">
        <ele>120.8</ele>
        <time>2026-01-13T08:49:52Z</time>
      </trkpt>
      <trkpt lat="48.63817" lon="1.95172">
        <ele>119.8</ele>
        <time>2026-01-13T08:49:53Z</time>
      </trkpt>
      <trkpt lat="48.6382" lon="1.95165">
        <ele>119.4</ele>
        <time>2026-01-13T08:49:54Z</time>
      </trkpt>
      <trkpt lat="48.63823" lon="1.95158">
        <ele>118.4</ele>
        <time>2026-01-13T08:49:55Z</time>
      </trkpt>
      <trkpt lat="48.63827" lon="1.95151">
        <ele>118.4</ele>
        <time>2026-01-13T08:49:56Z</time>
      </trkpt>
      <trkpt lat="48.63832" lon="1.95144">
        <ele>118.4</ele>
        <time>2026-01-13T08:49:57Z</time>
      </trkpt>
      <trkpt lat="48.63837" lon="1.95137">
        <ele>118.4</ele>
        <time>2026-01-13T08:49:58Z</time>
      </trkpt>
      <trkpt lat="48.63841" lon="1.9513">
        <ele>117.4</ele>
        <time>2026-01-13T08:49:59Z</time>
      </trkpt>
      <trkpt lat="48.63846" lon="1.95123">
        <ele>117.4</ele>
        <time>2026-01-13T08:50:00Z</time>
      </trkpt>
      <trkpt lat="48.63851" lon="1.95117">
        <ele>117.4</ele>
        <time>2026-01-13T08:50:01Z</time>
      </trkpt>
      <trkpt lat="48.63856" lon="1.95112">
        <ele>118.2</ele>
        <time>2026-01-13T08:50:02Z</time>
      </trkpt>
      <trkpt lat="48.63861" lon="1.95108">
        <ele>118.2</ele>
        <time>2026-01-13T08:50:03Z</time>
      </trkpt>
      <trkpt lat="48.63866" lon="1.95103">
        <ele>118.2</ele>
        <time>2026-01-13T08:50:04Z</time>
      </trkpt>
      <trkpt lat="48.63872" lon="1.95099">
        <ele>118.2</ele>
        <time>2026-01-13T08:50:05Z</time>
      </trkpt>
      <trkpt lat="48.63878" lon="1.95095">
        <ele>118.2</ele>
        <time>2026-01-13T08:50:06Z</time>
      </trkpt>
      <trkpt lat="48.63884" lon="1.95092">
        <ele>118.2</ele>
        <time>2026-01-13T08:50:07Z</time>
      </trkpt>
      <trkpt lat="48.63889" lon="1.95088">
        <ele>119.2</ele>
        <time>2026-01-13T08:50:08Z</time>
      </trkpt>
      <trkpt lat="48.63894" lon="1.95087">
        <ele>119.4</ele>
        <time>2026-01-13T08:50:09Z</time>
      </trkpt>
      <trkpt lat="48.63899" lon="1.95084">
        <ele>119.6</ele>
        <time>2026-01-13T08:50:10Z</time>
      </trkpt>
      <trkpt lat="48.63905" lon="1.95082">
        <ele>119.6</ele>
        <time>2026-01-13T08:50:11Z</time>
      </trkpt>
      <trkpt lat="48.6391" lon="1.95079">
        <ele>119.6</ele>
        <time>2026-01-13T08:50:12Z</time>
      </trkpt>
      <trkpt lat="48.63915" lon="1.95076">
        <ele>119</ele>
        <time>2026-01-13T08:50:13Z</time>
      </trkpt>
      <trkpt lat="48.6392" lon="1.95072">
        <ele>119</ele>
        <time>2026-01-13T08:50:14Z</time>
      </trkpt>
      <trkpt lat="48.63925" lon="1.95069">
        <ele>119</ele>
        <time>2026-01-13T08:50:15Z</time>
      </trkpt>
      <trkpt lat="48.63931" lon="1.95065">
        <ele>119</ele>
        <time>2026-01-13T08:50:16Z</time>
      </trkpt>
      <trkpt lat="48.63936" lon="1.95062">
        <ele>119</ele>
        <time>2026-01-13T08:50:17Z</time>
      </trkpt>
      <trkpt lat="48.63941" lon="1.95058">
        <ele>119</ele>
        <time>2026-01-13T08:50:18Z</time>
      </trkpt>
      <trkpt lat="48.63947" lon="1.95054">
        <ele>119.2</ele>
        <time>2026-01-13T08:50:19Z</time>
      </trkpt>
      <trkpt lat="48.63952" lon="1.9505">
        <ele>119.2</ele>
        <time>2026-01-13T08:50:20Z</time>
      </trkpt>
      <trkpt lat="48.63957" lon="1.95047">
        <ele>119.2</ele>
        <time>2026-01-13T08:50:21Z</time>
      </trkpt>
      <trkpt lat="48.63963" lon="1.95042">
        <ele>119.2</ele>
        <time>2026-01-13T08:50:22Z</time>
      </trkpt>
      <trkpt lat="48.63968" lon="1.95039">
        <ele>119.2</ele>
        <time>2026-01-13T08:50:23Z</time>
      </trkpt>
      <trkpt lat="48.63974" lon="1.95035">
        <ele>119.2</ele>
        <time>2026-01-13T08:50:24Z</time>
      </trkpt>
      <trkpt lat="48.63979" lon="1.95032">
        <ele>119.2</ele>
        <time>2026-01-13T08:50:25Z</time>
      </trkpt>
      <trkpt lat="48.63984" lon="1.95028">
        <ele>119.2</ele>
        <time>2026-01-13T08:50:26Z</time>
      </trkpt>
      <trkpt lat="48.6399" lon="1.95026">
        <ele>119.2</ele>
        <time>2026-01-13T08:50:27Z</time>
      </trkpt>
      <trkpt lat="48.63995" lon="1.95024">
        <ele>119.2</ele>
        <time>2026-01-13T08:50:28Z</time>
      </trkpt>
      <trkpt lat="48.64001" lon="1.95023">
        <ele>119.2</ele>
        <time>2026-01-13T08:50:29Z</time>
      </trkpt>
      <trkpt lat="48.64007" lon="1.95021">
        <ele>119.2</ele>
        <time>2026-01-13T08:50:30Z</time>
      </trkpt>
      <trkpt lat="48.64013" lon="1.95021">
        <ele>119.2</ele>
        <time>2026-01-13T08:50:31Z</time>
      </trkpt>
      <trkpt lat="48.64018" lon="1.9502">
        <ele>119</ele>
        <time>2026-01-13T08:50:32Z</time>
      </trkpt>
      <trkpt lat="48.64024" lon="1.95019">
        <ele>118.6</ele>
        <time>2026-01-13T08:50:33Z</time>
      </trkpt>
      <trkpt lat="48.6403" lon="1.9502">
        <ele>118.6</ele>
        <time>2026-01-13T08:50:34Z</time>
      </trkpt>
      <trkpt lat="48.64036" lon="1.9502">
        <ele>118.6</ele>
        <time>2026-01-13T08:50:35Z</time>
      </trkpt>
      <trkpt lat="48.64043" lon="1.95022">
        <ele>118.6</ele>
        <time>2026-01-13T08:50:36Z</time>
      </trkpt>
      <trkpt lat="48.64049" lon="1.95023">
        <ele>118.4</ele>
        <time>2026-01-13T08:50:37Z</time>
      </trkpt>
      <trkpt lat="48.64055" lon="1.95026">
        <ele>118.4</ele>
        <time>2026-01-13T08:50:38Z</time>
      </trkpt>
      <trkpt lat="48.64061" lon="1.95029">
        <ele>118.4</ele>
        <time>2026-01-13T08:50:39Z</time>
      </trkpt>
      <trkpt lat="48.64066" lon="1.95033">
        <ele>118.4</ele>
        <time>2026-01-13T08:50:40Z</time>
      </trkpt>
      <trkpt lat="48.64071" lon="1.95036">
        <ele>118.4</ele>
        <time>2026-01-13T08:50:41Z</time>
      </trkpt>
      <trkpt lat="48.64076" lon="1.9504">
        <ele>118.4</ele>
        <time>2026-01-13T08:50:42Z</time>
      </trkpt>
      <trkpt lat="48.64082" lon="1.95044">
        <ele>118.4</ele>
        <time>2026-01-13T08:50:43Z</time>
      </trkpt>
      <trkpt lat="48.64087" lon="1.95049">
        <ele>118.8</ele>
        <time>2026-01-13T08:50:44Z</time>
      </trkpt>
      <trkpt lat="48.64092" lon="1.95052">
        <ele>119.2</ele>
        <time>2026-01-13T08:50:45Z</time>
      </trkpt>
      <trkpt lat="48.64097" lon="1.95056">
        <ele>119.2</ele>
        <time>2026-01-13T08:50:46Z</time>
      </trkpt>
      <trkpt lat="48.64102" lon="1.95059">
        <ele>119.2</ele>
        <time>2026-01-13T08:50:47Z</time>
      </trkpt>
      <trkpt lat="48.64108" lon="1.95063">
        <ele>118.8</ele>
        <time>2026-01-13T08:50:48Z</time>
      </trkpt>
      <trkpt lat="48.64113" lon="1.95065">
        <ele>118.8</ele>
        <time>2026-01-13T08:50:49Z</time>
      </trkpt>
      <trkpt lat="48.64119" lon="1.95068">
        <ele>118.8</ele>
        <time>2026-01-13T08:50:50Z</time>
      </trkpt>
      <trkpt lat="48.64124" lon="1.9507">
        <ele>119.4</ele>
        <time>2026-01-13T08:50:51Z</time>
      </trkpt>
      <trkpt lat="48.6413" lon="1.95072">
        <ele>119.4</ele>
        <time>2026-01-13T08:50:52Z</time>
      </trkpt>
      <trkpt lat="48.64135" lon="1.95074">
        <ele>120</ele>
        <time>2026-01-13T08:50:53Z</time>
      </trkpt>
      <trkpt lat="48.64141" lon="1.95076">
        <ele>120</ele>
        <time>2026-01-13T08:50:54Z</time>
      </trkpt>
      <trkpt lat="48.64146" lon="1.95079">
        <ele>120</ele>
        <time>2026-01-13T08:50:55Z</time>
      </trkpt>
      <trkpt lat="48.64151" lon="1.9508">
        <ele>120</ele>
        <time>2026-01-13T08:50:56Z</time>
      </trkpt>
      <trkpt lat="48.64157" lon="1.95081">
        <ele>120</ele>
        <time>2026-01-13T08:50:57Z</time>
      </trkpt>
      <trkpt lat="48.64163" lon="1.95082">
        <ele>120.8</ele>
        <time>2026-01-13T08:50:58Z</time>
      </trkpt>
      <trkpt lat="48.64168" lon="1.95083">
        <ele>121.2</ele>
        <time>2026-01-13T08:50:59Z</time>
      </trkpt>
      <trkpt lat="48.64174" lon="1.95085">
        <ele>121.2</ele>
        <time>2026-01-13T08:51:00Z</time>
      </trkpt>
      <trkpt lat="48.6418" lon="1.95086">
        <ele>121.2</ele>
        <time>2026-01-13T08:51:01Z</time>
      </trkpt>
      <trkpt lat="48.64185" lon="1.95088">
        <ele>121</ele>
        <time>2026-01-13T08:51:02Z</time>
      </trkpt>
      <trkpt lat="48.64191" lon="1.9509">
        <ele>120.6</ele>
        <time>2026-01-13T08:51:03Z</time>
      </trkpt>
      <trkpt lat="48.64196" lon="1.95091">
        <ele>120.6</ele>
        <time>2026-01-13T08:51:04Z</time>
      </trkpt>
      <trkpt lat="48.64202" lon="1.95093">
        <ele>120.6</ele>
        <time>2026-01-13T08:51:05Z</time>
      </trkpt>
      <trkpt lat="48.64208" lon="1.95095">
        <ele>121</ele>
        <time>2026-01-13T08:51:06Z</time>
      </trkpt>
      <trkpt lat="48.64213" lon="1.95097">
        <ele>121</ele>
        <time>2026-01-13T08:51:07Z</time>
      </trkpt>
      <trkpt lat="48.64219" lon="1.95099">
        <ele>121</ele>
        <time>2026-01-13T08:51:08Z</time>
      </trkpt>
      <trkpt lat="48.64224" lon="1.95101">
        <ele>121</ele>
        <time>2026-01-13T08:51:09Z</time>
      </trkpt>
      <trkpt lat="48.6423" lon="1.95103">
        <ele>121</ele>
        <time>2026-01-13T08:51:10Z</time>
      </trkpt>
      <trkpt lat="48.64236" lon="1.95105">
        <ele>120.8</ele>
        <time>2026-01-13T08:51:11Z</time>
      </trkpt>
      <trkpt lat="48.64242" lon="1.95107">
        <ele>120.8</ele>
        <time>2026-01-13T08:51:12Z</time>
      </trkpt>
      <trkpt lat="48.64247" lon="1.95108">
        <ele>120.8</ele>
        <time>2026-01-13T08:51:13Z</time>
      </trkpt>
      <trkpt lat="48.64253" lon="1.9511">
        <ele>121.4</ele>
        <time>2026-01-13T08:51:14Z</time>
      </trkpt>
      <trkpt lat="48.64258" lon="1.95112">
        <ele>121.4</ele>
        <time>2026-01-13T08:51:15Z</time>
      </trkpt>
      <trkpt lat="48.64264" lon="1.95114">
        <ele>121.4</ele>
        <time>2026-01-13T08:51:16Z</time>
      </trkpt>
      <trkpt lat="48.6427" lon="1.95115">
        <ele>120.8</ele>
        <time>2026-01-13T08:51:17Z</time>
      </trkpt>
      <trkpt lat="48.64275" lon="1.95117">
        <ele>120.8</ele>
        <time>2026-01-13T08:51:18Z</time>
      </trkpt>
      <trkpt lat="48.64281" lon="1.95119">
        <ele>120.8</ele>
        <time>2026-01-13T08:51:19Z</time>
      </trkpt>
      <trkpt lat="48.64286" lon="1.95121">
        <ele>121.2</ele>
        <time>2026-01-13T08:51:20Z</time>
      </trkpt>
      <trkpt lat="48.64291" lon="1.95122">
        <ele>121.2</ele>
        <time>2026-01-13T08:51:21Z</time>
      </trkpt>
      <trkpt lat="48.64297" lon="1.95123">
        <ele>121.4</ele>
        <time>2026-01-13T08:51:22Z</time>
      </trkpt>
      <trkpt lat="48.64302" lon="1.95124">
        <ele>121.8</ele>
        <time>2026-01-13T08:51:23Z</time>
      </trkpt>
      <trkpt lat="48.64308" lon="1.95125">
        <ele>121.8</ele>
        <time>2026-01-13T08:51:24Z</time>
      </trkpt>
      <trkpt lat="48.64313" lon="1.95125">
        <ele>121.8</ele>
        <time>2026-01-13T08:51:25Z</time>
      </trkpt>
      <trkpt lat="48.64319" lon="1.95125">
        <ele>121.4</ele>
        <time>2026-01-13T08:51:26Z</time>
      </trkpt>
      <trkpt lat="48.64324" lon="1.95124">
        <ele>121.4</ele>
        <time>2026-01-13T08:51:27Z</time>
      </trkpt>
      <trkpt lat="48.6433" lon="1.95123">
        <ele>121.4</ele>
        <time>2026-01-13T08:51:28Z</time>
      </trkpt>
      <trkpt lat="48.64335" lon="1.95121">
        <ele>122.2</ele>
        <time>2026-01-13T08:51:29Z</time>
      </trkpt>
      <trkpt lat="48.6434" lon="1.95119">
        <ele>122.2</ele>
        <time>2026-01-13T08:51:30Z</time>
      </trkpt>
      <trkpt lat="48.64345" lon="1.95116">
        <ele>122.2</ele>
        <time>2026-01-13T08:51:31Z</time>
      </trkpt>
      <trkpt lat="48.64349" lon="1.95113">
        <ele>122.2</ele>
        <time>2026-01-13T08:51:32Z</time>
      </trkpt>
      <trkpt lat="48.64353" lon="1.95111">
        <ele>123.2</ele>
        <time>2026-01-13T08:51:33Z</time>
      </trkpt>
      <trkpt lat="48.64357" lon="1.95108">
        <ele>123.8</ele>
        <time>2026-01-13T08:51:34Z</time>
      </trkpt>
      <trkpt lat="48.64361" lon="1.95106">
        <ele>123.8</ele>
        <time>2026-01-13T08:51:35Z</time>
      </trkpt>
      <trkpt lat="48.64366" lon="1.95104">
        <ele>123.8</ele>
        <time>2026-01-13T08:51:36Z</time>
      </trkpt>
      <trkpt lat="48.6437" lon="1.95102">
        <ele>123.8</ele>
        <time>2026-01-13T08:51:37Z</time>
      </trkpt>
      <trkpt lat="48.64374" lon="1.951">
        <ele>124.8</ele>
        <time>2026-01-13T08:51:38Z</time>
      </trkpt>
      <trkpt lat="48.64378" lon="1.95098">
        <ele>124.8</ele>
        <time>2026-01-13T08:51:39Z</time>
      </trkpt>
      <trkpt lat="48.64382" lon="1.95096">
        <ele>124.8</ele>
        <time>2026-01-13T08:51:40Z</time>
      </trkpt>
      <trkpt lat="48.64386" lon="1.95094">
        <ele>124.8</ele>
        <time>2026-01-13T08:51:41Z</time>
      </trkpt>
      <trkpt lat="48.64391" lon="1.95092">
        <ele>124.8</ele>
        <time>2026-01-13T08:51:42Z</time>
      </trkpt>
      <trkpt lat="48.64395" lon="1.95091">
        <ele>124.8</ele>
        <time>2026-01-13T08:51:43Z</time>
      </trkpt>
      <trkpt lat="48.64399" lon="1.95089">
        <ele>125.4</ele>
        <time>2026-01-13T08:51:44Z</time>
      </trkpt>
      <trkpt lat="48.64403" lon="1.95087">
        <ele>125.8</ele>
        <time>2026-01-13T08:51:45Z</time>
      </trkpt>
      <trkpt lat="48.64407" lon="1.95085">
        <ele>126</ele>
        <time>2026-01-13T08:51:46Z</time>
      </trkpt>
      <trkpt lat="48.64411" lon="1.95083">
        <ele>126.4</ele>
        <time>2026-01-13T08:51:47Z</time>
      </trkpt>
      <trkpt lat="48.64416" lon="1.95081">
        <ele>126.6</ele>
        <time>2026-01-13T08:51:48Z</time>
      </trkpt>
      <trkpt lat="48.6442" lon="1.9508">
        <ele>126.8</ele>
        <time>2026-01-13T08:51:49Z</time>
      </trkpt>
      <trkpt lat="48.64424" lon="1.95078">
        <ele>127</ele>
        <time>2026-01-13T08:51:50Z</time>
      </trkpt>
      <trkpt lat="48.64428" lon="1.95076">
        <ele>127</ele>
        <time>2026-01-13T08:51:51Z</time>
      </trkpt>
      <trkpt lat="48.64432" lon="1.95075">
        <ele>127</ele>
        <time>2026-01-13T08:51:52Z</time>
      </trkpt>
      <trkpt lat="48.64436" lon="1.95073">
        <ele>127</ele>
        <time>2026-01-13T08:51:53Z</time>
      </trkpt>
      <trkpt lat="48.6444" lon="1.95072">
        <ele>127.6</ele>
        <time>2026-01-13T08:51:54Z</time>
      </trkpt>
      <trkpt lat="48.64444" lon="1.95071">
        <ele>127.6</ele>
        <time>2026-01-13T08:51:55Z</time>
      </trkpt>
      <trkpt lat="48.64448" lon="1.95069">
        <ele>128</ele>
        <time>2026-01-13T08:51:56Z</time>
      </trkpt>
      <trkpt lat="48.64452" lon="1.95069">
        <ele>128.4</ele>
        <time>2026-01-13T08:51:57Z</time>
      </trkpt>
      <trkpt lat="48.64456" lon="1.95068">
        <ele>128.4</ele>
        <time>2026-01-13T08:51:58Z</time>
      </trkpt>
      <trkpt lat="48.6446" lon="1.95067">
        <ele>128.4</ele>
        <time>2026-01-13T08:51:59Z</time>
      </trkpt>
      <trkpt lat="48.64463" lon="1.95067">
        <ele>128.4</ele>
        <time>2026-01-13T08:52:00Z</time>
      </trkpt>
      <trkpt lat="48.64467" lon="1.95066">
        <ele>128.4</ele>
        <time>2026-01-13T08:52:01Z</time>
      </trkpt>
      <trkpt lat="48.64471" lon="1.95066">
        <ele>129</ele>
        <time>2026-01-13T08:52:02Z</time>
      </trkpt>
      <trkpt lat="48.64475" lon="1.95066">
        <ele>129.4</ele>
        <time>2026-01-13T08:52:03Z</time>
      </trkpt>
      <trkpt lat="48.64478" lon="1.95066">
        <ele>129.6</ele>
        <time>2026-01-13T08:52:04Z</time>
      </trkpt>
      <trkpt lat="48.64482" lon="1.95066">
        <ele>129.8</ele>
        <time>2026-01-13T08:52:05Z</time>
      </trkpt>
      <trkpt lat="48.64486" lon="1.95067">
        <ele>130.2</ele>
        <time>2026-01-13T08:52:06Z</time>
      </trkpt>
      <trkpt lat="48.6449" lon="1.95068">
        <ele>130.4</ele>
        <time>2026-01-13T08:52:07Z</time>
      </trkpt>
      <trkpt lat="48.64493" lon="1.95069">
        <ele>130.6</ele>
        <time>2026-01-13T08:52:08Z</time>
      </trkpt>
      <trkpt lat="48.64497" lon="1.95069">
        <ele>130.8</ele>
        <time>2026-01-13T08:52:09Z</time>
      </trkpt>
      <trkpt lat="48.64501" lon="1.95071">
        <ele>130.8</ele>
        <time>2026-01-13T08:52:10Z</time>
      </trkpt>
      <trkpt lat="48.64505" lon="1.95072">
        <ele>130.8</ele>
        <time>2026-01-13T08:52:11Z</time>
      </trkpt>
      <trkpt lat="48.64509" lon="1.95073">
        <ele>130.8</ele>
        <time>2026-01-13T08:52:12Z</time>
      </trkpt>
      <trkpt lat="48.64512" lon="1.95074">
        <ele>130.8</ele>
        <time>2026-01-13T08:52:13Z</time>
      </trkpt>
      <trkpt lat="48.64516" lon="1.95075">
        <ele>130.8</ele>
        <time>2026-01-13T08:52:14Z</time>
      </trkpt>
      <trkpt lat="48.6452" lon="1.95076">
        <ele>131.6</ele>
        <time>2026-01-13T08:52:15Z</time>
      </trkpt>
      <trkpt lat="48.64523" lon="1.95077">
        <ele>131.8</ele>
        <time>2026-01-13T08:52:16Z</time>
      </trkpt>
      <trkpt lat="48.64527" lon="1.95078">
        <ele>132.2</ele>
        <time>2026-01-13T08:52:17Z</time>
      </trkpt>
      <trkpt lat="48.64531" lon="1.9508">
        <ele>132.8</ele>
        <time>2026-01-13T08:52:18Z</time>
      </trkpt>
      <trkpt lat="48.64534" lon="1.95081">
        <ele>133.6</ele>
        <time>2026-01-13T08:52:19Z</time>
      </trkpt>
      <trkpt lat="48.64538" lon="1.95082">
        <ele>133.6</ele>
        <time>2026-01-13T08:52:20Z</time>
      </trkpt>
      <trkpt lat="48.64541" lon="1.95083">
        <ele>133.6</ele>
        <time>2026-01-13T08:52:21Z</time>
      </trkpt>
      <trkpt lat="48.64545" lon="1.95084">
        <ele>133.6</ele>
        <time>2026-01-13T08:52:22Z</time>
      </trkpt>
      <trkpt lat="48.64548" lon="1.95085">
        <ele>134.2</ele>
        <time>2026-01-13T08:52:23Z</time>
      </trkpt>
      <trkpt lat="48.64552" lon="1.95086">
        <ele>134.8</ele>
        <time>2026-01-13T08:52:24Z</time>
      </trkpt>
      <trkpt lat="48.64555" lon="1.95087">
        <ele>134.8</ele>
        <time>2026-01-13T08:52:25Z</time>
      </trkpt>
      <trkpt lat="48.64559" lon="1.95087">
        <ele>135.2</ele>
        <time>2026-01-13T08:52:26Z</time>
      </trkpt>
      <trkpt lat="48.64562" lon="1.95088">
        <ele>135.4</ele>
        <time>2026-01-13T08:52:27Z</time>
      </trkpt>
      <trkpt lat="48.64566" lon="1.95088">
        <ele>135.8</ele>
        <time>2026-01-13T08:52:28Z</time>
      </trkpt>
      <trkpt lat="48.64569" lon="1.95089">
        <ele>135.8</ele>
        <time>2026-01-13T08:52:29Z</time>
      </trkpt>
      <trkpt lat="48.64573" lon="1.95089">
        <ele>135.8</ele>
        <time>2026-01-13T08:52:30Z</time>
      </trkpt>
      <trkpt lat="48.64577" lon="1.95089">
        <ele>135.8</ele>
        <time>2026-01-13T08:52:31Z</time>
      </trkpt>
      <trkpt lat="48.6458" lon="1.95089">
        <ele>136.4</ele>
        <time>2026-01-13T08:52:32Z</time>
      </trkpt>
      <trkpt lat="48.64584" lon="1.95089">
        <ele>136.4</ele>
        <time>2026-01-13T08:52:33Z</time>
      </trkpt>
      <trkpt lat="48.64588" lon="1.95089">
        <ele>137</ele>
        <time>2026-01-13T08:52:34Z</time>
      </trkpt>
      <trkpt lat="48.64591" lon="1.95088">
        <ele>137.2</ele>
        <time>2026-01-13T08:52:35Z</time>
      </trkpt>
      <trkpt lat="48.64595" lon="1.95088">
        <ele>137.2</ele>
        <time>2026-01-13T08:52:36Z</time>
      </trkpt>
      <trkpt lat="48.64599" lon="1.95087">
        <ele>137.2</ele>
        <time>2026-01-13T08:52:37Z</time>
      </trkpt>
      <trkpt lat="48.64602" lon="1.95086">
        <ele>137.2</ele>
        <time>2026-01-13T08:52:38Z</time>
      </trkpt>
      <trkpt lat="48.64606" lon="1.95086">
        <ele>138</ele>
        <time>2026-01-13T08:52:39Z</time>
      </trkpt>
      <trkpt lat="48.6461" lon="1.95085">
        <ele>138</ele>
        <time>2026-01-13T08:52:40Z</time>
      </trkpt>
      <trkpt lat="48.64613" lon="1.95084">
        <ele>138</ele>
        <time>2026-01-13T08:52:41Z</time>
      </trkpt>
      <trkpt lat="48.64617" lon="1.95082">
        <ele>138</ele>
        <time>2026-01-13T08:52:42Z</time>
      </trkpt>
      <trkpt lat="48.64621" lon="1.95081">
        <ele>138.2</ele>
        <time>2026-01-13T08:52:43Z</time>
      </trkpt>
      <trkpt lat="48.64624" lon="1.95079">
        <ele>138.4</ele>
        <time>2026-01-13T08:52:44Z</time>
      </trkpt>
      <trkpt lat="48.64628" lon="1.95076">
        <ele>138.8</ele>
        <time>2026-01-13T08:52:45Z</time>
      </trkpt>
      <trkpt lat="48.64631" lon="1.95074">
        <ele>138.8</ele>
        <time>2026-01-13T08:52:46Z</time>
      </trkpt>
      <trkpt lat="48.64635" lon="1.95072">
        <ele>138.8</ele>
        <time>2026-01-13T08:52:47Z</time>
      </trkpt>
      <trkpt lat="48.64638" lon="1.9507">
        <ele>138.8</ele>
        <time>2026-01-13T08:52:48Z</time>
      </trkpt>
      <trkpt lat="48.64642" lon="1.95068">
        <ele>139.2</ele>
        <time>2026-01-13T08:52:49Z</time>
      </trkpt>
      <trkpt lat="48.64645" lon="1.95065">
        <ele>139.8</ele>
        <time>2026-01-13T08:52:50Z</time>
      </trkpt>
      <trkpt lat="48.64648" lon="1.95063">
        <ele>139.8</ele>
        <time>2026-01-13T08:52:51Z</time>
      </trkpt>
      <trkpt lat="48.64651" lon="1.9506">
        <ele>139.8</ele>
        <time>2026-01-13T08:52:52Z</time>
      </trkpt>
      <trkpt lat="48.64655" lon="1.95058">
        <ele>139.8</ele>
        <time>2026-01-13T08:52:53Z</time>
      </trkpt>
      <trkpt lat="48.64658" lon="1.95057">
        <ele>139.8</ele>
        <time>2026-01-13T08:52:54Z</time>
      </trkpt>
      <trkpt lat="48.64661" lon="1.95054">
        <ele>140.4</ele>
        <time>2026-01-13T08:52:55Z</time>
      </trkpt>
      <trkpt lat="48.64664" lon="1.95052">
        <ele>140.4</ele>
        <time>2026-01-13T08:52:56Z</time>
      </trkpt>
      <trkpt lat="48.64668" lon="1.9505">
        <ele>140.8</ele>
        <time>2026-01-13T08:52:57Z</time>
      </trkpt>
      <trkpt lat="48.64671" lon="1.95047">
        <ele>140.8</ele>
        <time>2026-01-13T08:52:58Z</time>
      </trkpt>
      <trkpt lat="48.64674" lon="1.95045">
        <ele>140.8</ele>
        <time>2026-01-13T08:52:59Z</time>
      </trkpt>
      <trkpt lat="48.64677" lon="1.95042">
        <ele>140.8</ele>
        <time>2026-01-13T08:53:00Z</time>
      </trkpt>
      <trkpt lat="48.6468" lon="1.9504">
        <ele>141.2</ele>
        <time>2026-01-13T08:53:01Z</time>
      </trkpt>
      <trkpt lat="48.64684" lon="1.95037">
        <ele>141.4</ele>
        <time>2026-01-13T08:53:02Z</time>
      </trkpt>
      <trkpt lat="48.64687" lon="1.95034">
        <ele>141.4</ele>
        <time>2026-01-13T08:53:03Z</time>
      </trkpt>
      <trkpt lat="48.64691" lon="1.95031">
        <ele>141.4</ele>
        <time>2026-01-13T08:53:04Z</time>
      </trkpt>
      <trkpt lat="48.64694" lon="1.95028">
        <ele>141.4</ele>
        <time>2026-01-13T08:53:05Z</time>
      </trkpt>
      <trkpt lat="48.64698" lon="1.95026">
        <ele>141.4</ele>
        <time>2026-01-13T08:53:06Z</time>
      </trkpt>
      <trkpt lat="48.64701" lon="1.95023">
        <ele>141.4</ele>
        <time>2026-01-13T08:53:07Z</time>
      </trkpt>
      <trkpt lat="48.64705" lon="1.9502">
        <ele>141.4</ele>
        <time>2026-01-13T08:53:08Z</time>
      </trkpt>
      <trkpt lat="48.64708" lon="1.95017">
        <ele>141.4</ele>
        <time>2026-01-13T08:53:09Z</time>
      </trkpt>
      <trkpt lat="48.64712" lon="1.95014">
        <ele>141.4</ele>
        <time>2026-01-13T08:53:10Z</time>
      </trkpt>
      <trkpt lat="48.64716" lon="1.95011">
        <ele>141.4</ele>
        <time>2026-01-13T08:53:11Z</time>
      </trkpt>
      <trkpt lat="48.64719" lon="1.95008">
        <ele>141.4</ele>
        <time>2026-01-13T08:53:12Z</time>
      </trkpt>
      <trkpt lat="48.64723" lon="1.95005">
        <ele>141.4</ele>
        <time>2026-01-13T08:53:13Z</time>
      </trkpt>
      <trkpt lat="48.64727" lon="1.95002">
        <ele>141.4</ele>
        <time>2026-01-13T08:53:14Z</time>
      </trkpt>
      <trkpt lat="48.64731" lon="1.94999">
        <ele>141.4</ele>
        <time>2026-01-13T08:53:15Z</time>
      </trkpt>
      <trkpt lat="48.64734" lon="1.94996">
        <ele>142.2</ele>
        <time>2026-01-13T08:53:16Z</time>
      </trkpt>
      <trkpt lat="48.64738" lon="1.94994">
        <ele>142.2</ele>
        <time>2026-01-13T08:53:17Z</time>
      </trkpt>
      <trkpt lat="48.64742" lon="1.94991">
        <ele>142.2</ele>
        <time>2026-01-13T08:53:18Z</time>
      </trkpt>
      <trkpt lat="48.64746" lon="1.94989">
        <ele>142</ele>
        <time>2026-01-13T08:53:19Z</time>
      </trkpt>
      <trkpt lat="48.6475" lon="1.94986">
        <ele>142</ele>
        <time>2026-01-13T08:53:20Z</time>
      </trkpt>
      <trkpt lat="48.64754" lon="1.94984">
        <ele>142</ele>
        <time>2026-01-13T08:53:21Z</time>
      </trkpt>
      <trkpt lat="48.64758" lon="1.94981">
        <ele>142.6</ele>
        <time>2026-01-13T08:53:22Z</time>
      </trkpt>
      <trkpt lat="48.64762" lon="1.94978">
        <ele>142.8</ele>
        <time>2026-01-13T08:53:23Z</time>
      </trkpt>
      <trkpt lat="48.64765" lon="1.94975">
        <ele>143</ele>
        <time>2026-01-13T08:53:24Z</time>
      </trkpt>
      <trkpt lat="48.64769" lon="1.94972">
        <ele>143.4</ele>
        <time>2026-01-13T08:53:25Z</time>
      </trkpt>
      <trkpt lat="48.64773" lon="1.9497">
        <ele>143.6</ele>
        <time>2026-01-13T08:53:26Z</time>
      </trkpt>
      <trkpt lat="48.64777" lon="1.94967">
        <ele>143.6</ele>
        <time>2026-01-13T08:53:27Z</time>
      </trkpt>
      <trkpt lat="48.64781" lon="1.94964">
        <ele>143.6</ele>
        <time>2026-01-13T08:53:28Z</time>
      </trkpt>
      <trkpt lat="48.64785" lon="1.94962">
        <ele>143.2</ele>
        <time>2026-01-13T08:53:29Z</time>
      </trkpt>
      <trkpt lat="48.64789" lon="1.9496">
        <ele>143.2</ele>
        <time>2026-01-13T08:53:30Z</time>
      </trkpt>
      <trkpt lat="48.64793" lon="1.94957">
        <ele>143.2</ele>
        <time>2026-01-13T08:53:31Z</time>
      </trkpt>
      <trkpt lat="48.64797" lon="1.94954">
        <ele>143.2</ele>
        <time>2026-01-13T08:53:32Z</time>
      </trkpt>
      <trkpt lat="48.64801" lon="1.94952">
        <ele>143.2</ele>
        <time>2026-01-13T08:53:33Z</time>
      </trkpt>
      <trkpt lat="48.64805" lon="1.94949">
        <ele>144</ele>
        <time>2026-01-13T08:53:34Z</time>
      </trkpt>
      <trkpt lat="48.64809" lon="1.94946">
        <ele>144</ele>
        <time>2026-01-13T08:53:35Z</time>
      </trkpt>
      <trkpt lat="48.64813" lon="1.94944">
        <ele>144</ele>
        <time>2026-01-13T08:53:36Z</time>
      </trkpt>
      <trkpt lat="48.64817" lon="1.94941">
        <ele>144</ele>
        <time>2026-01-13T08:53:37Z</time>
      </trkpt>
      <trkpt lat="48.64821" lon="1.94939">
        <ele>144</ele>
        <time>2026-01-13T08:53:38Z</time>
      </trkpt>
      <trkpt lat="48.64825" lon="1.94936">
        <ele>144.2</ele>
        <time>2026-01-13T08:53:39Z</time>
      </trkpt>
      <trkpt lat="48.64829" lon="1.94933">
        <ele>144.4</ele>
        <time>2026-01-13T08:53:40Z</time>
      </trkpt>
      <trkpt lat="48.64833" lon="1.9493">
        <ele>144.4</ele>
        <time>2026-01-13T08:53:41Z</time>
      </trkpt>
      <trkpt lat="48.64837" lon="1.94927">
        <ele>144.4</ele>
        <time>2026-01-13T08:53:42Z</time>
      </trkpt>
      <trkpt lat="48.64841" lon="1.94924">
        <ele>144.4</ele>
        <time>2026-01-13T08:53:43Z</time>
      </trkpt>
      <trkpt lat="48.64846" lon="1.94922">
        <ele>144.6</ele>
        <time>2026-01-13T08:53:44Z</time>
      </trkpt>
      <trkpt lat="48.6485" lon="1.9492">
        <ele>145.4</ele>
        <time>2026-01-13T08:53:45Z</time>
      </trkpt>
      <trkpt lat="48.64854" lon="1.94917">
        <ele>145.8</ele>
        <time>2026-01-13T08:53:46Z</time>
      </trkpt>
      <trkpt lat="48.64858" lon="1.94915">
        <ele>145.8</ele>
        <time>2026-01-13T08:53:47Z</time>
      </trkpt>
      <trkpt lat="48.64862" lon="1.94913">
        <ele>145.8</ele>
        <time>2026-01-13T08:53:48Z</time>
      </trkpt>
      <trkpt lat="48.64867" lon="1.94911">
        <ele>145.8</ele>
        <time>2026-01-13T08:53:49Z</time>
      </trkpt>
      <trkpt lat="48.64871" lon="1.94909">
        <ele>145.8</ele>
        <time>2026-01-13T08:53:50Z</time>
      </trkpt>
      <trkpt lat="48.64875" lon="1.94908">
        <ele>145.8</ele>
        <time>2026-01-13T08:53:51Z</time>
      </trkpt>
      <trkpt lat="48.6488" lon="1.94906">
        <ele>145.8</ele>
        <time>2026-01-13T08:53:52Z</time>
      </trkpt>
      <trkpt lat="48.64884" lon="1.94905">
        <ele>145.8</ele>
        <time>2026-01-13T08:53:53Z</time>
      </trkpt>
      <trkpt lat="48.64888" lon="1.94903">
        <ele>146.2</ele>
        <time>2026-01-13T08:53:54Z</time>
      </trkpt>
      <trkpt lat="48.64893" lon="1.94902">
        <ele>146.4</ele>
        <time>2026-01-13T08:53:55Z</time>
      </trkpt>
      <trkpt lat="48.64897" lon="1.949">
        <ele>146.4</ele>
        <time>2026-01-13T08:53:56Z</time>
      </trkpt>
      <trkpt lat="48.64902" lon="1.94899">
        <ele>146.4</ele>
        <time>2026-01-13T08:53:57Z</time>
      </trkpt>
      <trkpt lat="48.64906" lon="1.94898">
        <ele>146.4</ele>
        <time>2026-01-13T08:53:58Z</time>
      </trkpt>
      <trkpt lat="48.6491" lon="1.94896">
        <ele>146.4</ele>
        <time>2026-01-13T08:53:59Z</time>
      </trkpt>
      <trkpt lat="48.64915" lon="1.94894">
        <ele>146.4</ele>
        <time>2026-01-13T08:54:00Z</time>
      </trkpt>
      <trkpt lat="48.64919" lon="1.94892">
        <ele>146.8</ele>
        <time>2026-01-13T08:54:01Z</time>
      </trkpt>
      <trkpt lat="48.64924" lon="1.9489">
        <ele>146.8</ele>
        <time>2026-01-13T08:54:02Z</time>
      </trkpt>
      <trkpt lat="48.64928" lon="1.94887">
        <ele>146.8</ele>
        <time>2026-01-13T08:54:03Z</time>
      </trkpt>
      <trkpt lat="48.64933" lon="1.94884">
        <ele>146.8</ele>
        <time>2026-01-13T08:54:04Z</time>
      </trkpt>
      <trkpt lat="48.64937" lon="1.94881">
        <ele>146.6</ele>
        <time>2026-01-13T08:54:05Z</time>
      </trkpt>
      <trkpt lat="48.64942" lon="1.94877">
        <ele>146.6</ele>
        <time>2026-01-13T08:54:06Z</time>
      </trkpt>
      <trkpt lat="48.64946" lon="1.94874">
        <ele>146.6</ele>
        <time>2026-01-13T08:54:07Z</time>
      </trkpt>
      <trkpt lat="48.64951" lon="1.9487">
        <ele>147</ele>
        <time>2026-01-13T08:54:08Z</time>
      </trkpt>
      <trkpt lat="48.64955" lon="1.94866">
        <ele>147.2</ele>
        <time>2026-01-13T08:54:09Z</time>
      </trkpt>
      <trkpt lat="48.6496" lon="1.94861">
        <ele>147.2</ele>
        <time>2026-01-13T08:54:10Z</time>
      </trkpt>
      <trkpt lat="48.64964" lon="1.94857">
        <ele>147.2</ele>
        <time>2026-01-13T08:54:11Z</time>
      </trkpt>
      <trkpt lat="48.64969" lon="1.94852">
        <ele>146.8</ele>
        <time>2026-01-13T08:54:12Z</time>
      </trkpt>
      <trkpt lat="48.64974" lon="1.94846">
        <ele>146</ele>
        <time>2026-01-13T08:54:13Z</time>
      </trkpt>
      <trkpt lat="48.64979" lon="1.94841">
        <ele>146</ele>
        <time>2026-01-13T08:54:14Z</time>
      </trkpt>
      <trkpt lat="48.64984" lon="1.94836">
        <ele>146</ele>
        <time>2026-01-13T08:54:15Z</time>
      </trkpt>
      <trkpt lat="48.64989" lon="1.94831">
        <ele>146</ele>
        <time>2026-01-13T08:54:16Z</time>
      </trkpt>
      <trkpt lat="48.64994" lon="1.94826">
        <ele>146</ele>
        <time>2026-01-13T08:54:17Z</time>
      </trkpt>
      <trkpt lat="48.65" lon="1.9482">
        <ele>145.2</ele>
        <time>2026-01-13T08:54:18Z</time>
      </trkpt>
      <trkpt lat="48.65005" lon="1.94815">
        <ele>145</ele>
        <time>2026-01-13T08:54:19Z</time>
      </trkpt>
      <trkpt lat="48.65011" lon="1.94808">
        <ele>144.2</ele>
        <time>2026-01-13T08:54:20Z</time>
      </trkpt>
      <trkpt lat="48.65017" lon="1.94803">
        <ele>143.6</ele>
        <time>2026-01-13T08:54:21Z</time>
      </trkpt>
      <trkpt lat="48.65023" lon="1.94796">
        <ele>143.2</ele>
        <time>2026-01-13T08:54:22Z</time>
      </trkpt>
      <trkpt lat="48.65029" lon="1.9479">
        <ele>142.2</ele>
        <time>2026-01-13T08:54:23Z</time>
      </trkpt>
      <trkpt lat="48.65036" lon="1.94783">
        <ele>141.4</ele>
        <time>2026-01-13T08:54:24Z</time>
      </trkpt>
      <trkpt lat="48.65043" lon="1.94777">
        <ele>141.2</ele>
        <time>2026-01-13T08:54:25Z</time>
      </trkpt>
      <trkpt lat="48.6505" lon="1.9477">
        <ele>140.2</ele>
        <time>2026-01-13T08:54:26Z</time>
      </trkpt>
      <trkpt lat="48.65057" lon="1.94762">
        <ele>139.4</ele>
        <time>2026-01-13T08:54:27Z</time>
      </trkpt>
      <trkpt lat="48.65064" lon="1.94755">
        <ele>138.8</ele>
        <time>2026-01-13T08:54:28Z</time>
      </trkpt>
      <trkpt lat="48.65072" lon="1.94748">
        <ele>138.2</ele>
        <time>2026-01-13T08:54:29Z</time>
      </trkpt>
      <trkpt lat="48.65079" lon="1.9474">
        <ele>137.6</ele>
        <time>2026-01-13T08:54:30Z</time>
      </trkpt>
      <trkpt lat="48.65087" lon="1.94731">
        <ele>136.8</ele>
        <time>2026-01-13T08:54:31Z</time>
      </trkpt>
      <trkpt lat="48.65094" lon="1.94722">
        <ele>136.2</ele>
        <time>2026-01-13T08:54:32Z</time>
      </trkpt>
      <trkpt lat="48.65102" lon="1.94713">
        <ele>135.8</ele>
        <time>2026-01-13T08:54:33Z</time>
      </trkpt>
      <trkpt lat="48.6511" lon="1.94704">
        <ele>135</ele>
        <time>2026-01-13T08:54:34Z</time>
      </trkpt>
      <trkpt lat="48.65118" lon="1.94695">
        <ele>134.8</ele>
        <time>2026-01-13T08:54:35Z</time>
      </trkpt>
      <trkpt lat="48.65126" lon="1.94686">
        <ele>134.4</ele>
        <time>2026-01-13T08:54:36Z</time>
      </trkpt>
      <trkpt lat="48.65134" lon="1.94677">
        <ele>134</ele>
        <time>2026-01-13T08:54:37Z</time>
      </trkpt>
      <trkpt lat="48.65141" lon="1.94667">
        <ele>134</ele>
        <time>2026-01-13T08:54:38Z</time>
      </trkpt>
      <trkpt lat="48.65149" lon="1.94658">
        <ele>133.6</ele>
        <time>2026-01-13T08:54:39Z</time>
      </trkpt>
      <trkpt lat="48.65156" lon="1.94649">
        <ele>133.6</ele>
        <time>2026-01-13T08:54:40Z</time>
      </trkpt>
      <trkpt lat="48.65163" lon="1.9464">
        <ele>133.6</ele>
        <time>2026-01-13T08:54:41Z</time>
      </trkpt>
      <trkpt lat="48.6517" lon="1.94632">
        <ele>134.4</ele>
        <time>2026-01-13T08:54:42Z</time>
      </trkpt>
      <trkpt lat="48.65177" lon="1.94622">
        <ele>134.4</ele>
        <time>2026-01-13T08:54:43Z</time>
      </trkpt>
      <trkpt lat="48.65183" lon="1.94613">
        <ele>134.4</ele>
        <time>2026-01-13T08:54:44Z</time>
      </trkpt>
      <trkpt lat="48.65188" lon="1.94603">
        <ele>134.2</ele>
        <time>2026-01-13T08:54:45Z</time>
      </trkpt>
      <trkpt lat="48.65194" lon="1.94592">
        <ele>134.2</ele>
        <time>2026-01-13T08:54:46Z</time>
      </trkpt>
      <trkpt lat="48.65199" lon="1.94582">
        <ele>134.2</ele>
        <time>2026-01-13T08:54:47Z</time>
      </trkpt>
      <trkpt lat="48.65203" lon="1.94571">
        <ele>135</ele>
        <time>2026-01-13T08:54:48Z</time>
      </trkpt>
      <trkpt lat="48.65208" lon="1.94561">
        <ele>135</ele>
        <time>2026-01-13T08:54:49Z</time>
      </trkpt>
      <trkpt lat="48.65212" lon="1.94551">
        <ele>135.2</ele>
        <time>2026-01-13T08:54:50Z</time>
      </trkpt>
      <trkpt lat="48.65217" lon="1.9454">
        <ele>135.4</ele>
        <time>2026-01-13T08:54:51Z</time>
      </trkpt>
      <trkpt lat="48.65221" lon="1.9453">
        <ele>135.4</ele>
        <time>2026-01-13T08:54:52Z</time>
      </trkpt>
      <trkpt lat="48.65225" lon="1.9452">
        <ele>135.4</ele>
        <time>2026-01-13T08:54:53Z</time>
      </trkpt>
      <trkpt lat="48.65229" lon="1.94509">
        <ele>135.4</ele>
        <time>2026-01-13T08:54:54Z</time>
      </trkpt>
      <trkpt lat="48.65232" lon="1.94499">
        <ele>135.6</ele>
        <time>2026-01-13T08:54:55Z</time>
      </trkpt>
      <trkpt lat="48.65236" lon="1.94487">
        <ele>135.8</ele>
        <time>2026-01-13T08:54:56Z</time>
      </trkpt>
      <trkpt lat="48.6524" lon="1.94478">
        <ele>136</ele>
        <time>2026-01-13T08:54:57Z</time>
      </trkpt>
      <trkpt lat="48.65244" lon="1.94468">
        <ele>136.2</ele>
        <time>2026-01-13T08:54:58Z</time>
      </trkpt>
      <trkpt lat="48.65248" lon="1.94459">
        <ele>136.2</ele>
        <time>2026-01-13T08:54:59Z</time>
      </trkpt>
      <trkpt lat="48.65251" lon="1.9445">
        <ele>136.2</ele>
        <time>2026-01-13T08:55:00Z</time>
      </trkpt>
      <trkpt lat="48.65255" lon="1.94442">
        <ele>136.2</ele>
        <time>2026-01-13T08:55:01Z</time>
      </trkpt>
      <trkpt lat="48.65259" lon="1.94433">
        <ele>136.2</ele>
        <time>2026-01-13T08:55:02Z</time>
      </trkpt>
      <trkpt lat="48.65262" lon="1.94425">
        <ele>136.2</ele>
        <time>2026-01-13T08:55:03Z</time>
      </trkpt>
      <trkpt lat="48.65266" lon="1.94417">
        <ele>136.6</ele>
        <time>2026-01-13T08:55:04Z</time>
      </trkpt>
      <trkpt lat="48.65269" lon="1.9441">
        <ele>136.6</ele>
        <time>2026-01-13T08:55:05Z</time>
      </trkpt>
      <trkpt lat="48.65272" lon="1.94401">
        <ele>136.6</ele>
        <time>2026-01-13T08:55:06Z</time>
      </trkpt>
      <trkpt lat="48.65276" lon="1.94393">
        <ele>136.6</ele>
        <time>2026-01-13T08:55:07Z</time>
      </trkpt>
      <trkpt lat="48.65279" lon="1.94385">
        <ele>136.6</ele>
        <time>2026-01-13T08:55:08Z</time>
      </trkpt>
      <trkpt lat="48.65282" lon="1.94377">
        <ele>136.6</ele>
        <time>2026-01-13T08:55:09Z</time>
      </trkpt>
      <trkpt lat="48.65285" lon="1.94369">
        <ele>136.4</ele>
        <time>2026-01-13T08:55:10Z</time>
      </trkpt>
      <trkpt lat="48.65289" lon="1.94361">
        <ele>136.4</ele>
        <time>2026-01-13T08:55:11Z</time>
      </trkpt>
      <trkpt lat="48.65292" lon="1.94353">
        <ele>136.4</ele>
        <time>2026-01-13T08:55:12Z</time>
      </trkpt>
      <trkpt lat="48.65295" lon="1.94346">
        <ele>137.2</ele>
        <time>2026-01-13T08:55:13Z</time>
      </trkpt>
      <trkpt lat="48.65299" lon="1.94339">
        <ele>137.2</ele>
        <time>2026-01-13T08:55:14Z</time>
      </trkpt>
      <trkpt lat="48.65302" lon="1.94333">
        <ele>137.2</ele>
        <time>2026-01-13T08:55:15Z</time>
      </trkpt>
      <trkpt lat="48.65305" lon="1.94326">
        <ele>137.2</ele>
        <time>2026-01-13T08:55:16Z</time>
      </trkpt>
      <trkpt lat="48.65308" lon="1.94319">
        <ele>137.2</ele>
        <time>2026-01-13T08:55:17Z</time>
      </trkpt>
      <trkpt lat="48.65311" lon="1.94311">
        <ele>137.6</ele>
        <time>2026-01-13T08:55:18Z</time>
      </trkpt>
      <trkpt lat="48.65314" lon="1.94303">
        <ele>137.8</ele>
        <time>2026-01-13T08:55:19Z</time>
      </trkpt>
      <trkpt lat="48.65317" lon="1.94296">
        <ele>137.8</ele>
        <time>2026-01-13T08:55:20Z</time>
      </trkpt>
      <trkpt lat="48.6532" lon="1.94288">
        <ele>137.8</ele>
        <time>2026-01-13T08:55:21Z</time>
      </trkpt>
      <trkpt lat="48.65322" lon="1.94281">
        <ele>137.8</ele>
        <time>2026-01-13T08:55:22Z</time>
      </trkpt>
      <trkpt lat="48.65325" lon="1.94274">
        <ele>138</ele>
        <time>2026-01-13T08:55:23Z</time>
      </trkpt>
      <trkpt lat="48.65328" lon="1.94267">
        <ele>138</ele>
        <time>2026-01-13T08:55:24Z</time>
      </trkpt>
      <trkpt lat="48.65331" lon="1.9426">
        <ele>138</ele>
        <time>2026-01-13T08:55:25Z</time>
      </trkpt>
      <trkpt lat="48.65334" lon="1.94253">
        <ele>138</ele>
        <time>2026-01-13T08:55:26Z</time>
      </trkpt>
      <trkpt lat="48.65337" lon="1.94246">
        <ele>138</ele>
        <time>2026-01-13T08:55:27Z</time>
      </trkpt>
      <trkpt lat="48.6534" lon="1.94239">
        <ele>138</ele>
        <time>2026-01-13T08:55:28Z</time>
      </trkpt>
      <trkpt lat="48.65343" lon="1.94233">
        <ele>138</ele>
        <time>2026-01-13T08:55:29Z</time>
      </trkpt>
      <trkpt lat="48.65346" lon="1.94227">
        <ele>138.4</ele>
        <time>2026-01-13T08:55:30Z</time>
      </trkpt>
      <trkpt lat="48.65348" lon="1.94221">
        <ele>138.6</ele>
        <time>2026-01-13T08:55:31Z</time>
      </trkpt>
      <trkpt lat="48.6535" lon="1.94214">
        <ele>139</ele>
        <time>2026-01-13T08:55:32Z</time>
      </trkpt>
      <trkpt lat="48.65353" lon="1.94208">
        <ele>139</ele>
        <time>2026-01-13T08:55:33Z</time>
      </trkpt>
      <trkpt lat="48.65356" lon="1.94203">
        <ele>139</ele>
        <time>2026-01-13T08:55:34Z</time>
      </trkpt>
      <trkpt lat="48.65358" lon="1.94196">
        <ele>139</ele>
        <time>2026-01-13T08:55:35Z</time>
      </trkpt>
      <trkpt lat="48.65361" lon="1.9419">
        <ele>139.2</ele>
        <time>2026-01-13T08:55:36Z</time>
      </trkpt>
      <trkpt lat="48.65364" lon="1.94183">
        <ele>139.4</ele>
        <time>2026-01-13T08:55:37Z</time>
      </trkpt>
      <trkpt lat="48.65366" lon="1.94177">
        <ele>139.8</ele>
        <time>2026-01-13T08:55:38Z</time>
      </trkpt>
      <trkpt lat="48.65369" lon="1.9417">
        <ele>139.8</ele>
        <time>2026-01-13T08:55:39Z</time>
      </trkpt>
      <trkpt lat="48.65371" lon="1.94164">
        <ele>139.8</ele>
        <time>2026-01-13T08:55:40Z</time>
      </trkpt>
      <trkpt lat="48.65374" lon="1.94158">
        <ele>139.8</ele>
        <time>2026-01-13T08:55:41Z</time>
      </trkpt>
      <trkpt lat="48.65376" lon="1.94152">
        <ele>140.4</ele>
        <time>2026-01-13T08:55:42Z</time>
      </trkpt>
      <trkpt lat="48.65379" lon="1.94146">
        <ele>140.6</ele>
        <time>2026-01-13T08:55:43Z</time>
      </trkpt>
      <trkpt lat="48.65382" lon="1.9414">
        <ele>140.8</ele>
        <time>2026-01-13T08:55:44Z</time>
      </trkpt>
      <trkpt lat="48.65385" lon="1.94134">
        <ele>141</ele>
        <time>2026-01-13T08:55:45Z</time>
      </trkpt>
      <trkpt lat="48.65388" lon="1.94129">
        <ele>141</ele>
        <time>2026-01-13T08:55:46Z</time>
      </trkpt>
      <trkpt lat="48.65391" lon="1.94123">
        <ele>141.4</ele>
        <time>2026-01-13T08:55:47Z</time>
      </trkpt>
      <trkpt lat="48.65395" lon="1.94118">
        <ele>141.8</ele>
        <time>2026-01-13T08:55:48Z</time>
      </trkpt>
      <trkpt lat="48.65398" lon="1.94113">
        <ele>141.8</ele>
        <time>2026-01-13T08:55:49Z</time>
      </trkpt>
      <trkpt lat="48.65402" lon="1.94108">
        <ele>141.8</ele>
        <time>2026-01-13T08:55:50Z</time>
      </trkpt>
      <trkpt lat="48.65406" lon="1.94103">
        <ele>141.8</ele>
        <time>2026-01-13T08:55:51Z</time>
      </trkpt>
      <trkpt lat="48.65409" lon="1.94099">
        <ele>141.8</ele>
        <time>2026-01-13T08:55:52Z</time>
      </trkpt>
      <trkpt lat="48.65413" lon="1.94094">
        <ele>141.8</ele>
        <time>2026-01-13T08:55:53Z</time>
      </trkpt>
      <trkpt lat="48.65418" lon="1.9409">
        <ele>142.2</ele>
        <time>2026-01-13T08:55:54Z</time>
      </trkpt>
      <trkpt lat="48.65422" lon="1.94086">
        <ele>142.6</ele>
        <time>2026-01-13T08:55:55Z</time>
      </trkpt>
      <trkpt lat="48.65426" lon="1.94082">
        <ele>142.6</ele>
        <time>2026-01-13T08:55:56Z</time>
      </trkpt>
      <trkpt lat="48.6543" lon="1.94077">
        <ele>142.6</ele>
        <time>2026-01-13T08:55:57Z</time>
      </trkpt>
      <trkpt lat="48.65435" lon="1.94073">
        <ele>142.6</ele>
        <time>2026-01-13T08:55:58Z</time>
      </trkpt>
      <trkpt lat="48.65439" lon="1.94069">
        <ele>142.6</ele>
        <time>2026-01-13T08:55:59Z</time>
      </trkpt>
      <trkpt lat="48.65443" lon="1.94064">
        <ele>142.4</ele>
        <time>2026-01-13T08:56:00Z</time>
      </trkpt>
      <trkpt lat="48.65447" lon="1.94059">
        <ele>142.4</ele>
        <time>2026-01-13T08:56:01Z</time>
      </trkpt>
      <trkpt lat="48.65452" lon="1.94055">
        <ele>142.4</ele>
        <time>2026-01-13T08:56:02Z</time>
      </trkpt>
      <trkpt lat="48.65456" lon="1.94051">
        <ele>142.4</ele>
        <time>2026-01-13T08:56:03Z</time>
      </trkpt>
      <trkpt lat="48.6546" lon="1.94048">
        <ele>142.4</ele>
        <time>2026-01-13T08:56:04Z</time>
      </trkpt>
      <trkpt lat="48.65465" lon="1.94044">
        <ele>142.6</ele>
        <time>2026-01-13T08:56:05Z</time>
      </trkpt>
      <trkpt lat="48.65469" lon="1.94039">
        <ele>143</ele>
        <time>2026-01-13T08:56:06Z</time>
      </trkpt>
      <trkpt lat="48.65474" lon="1.94036">
        <ele>143</ele>
        <time>2026-01-13T08:56:07Z</time>
      </trkpt>
      <trkpt lat="48.65478" lon="1.94031">
        <ele>143</ele>
        <time>2026-01-13T08:56:08Z</time>
      </trkpt>
      <trkpt lat="48.65483" lon="1.94027">
        <ele>142</ele>
        <time>2026-01-13T08:56:09Z</time>
      </trkpt>
      <trkpt lat="48.65487" lon="1.94022">
        <ele>141.6</ele>
        <time>2026-01-13T08:56:10Z</time>
      </trkpt>
      <trkpt lat="48.65492" lon="1.94017">
        <ele>141.6</ele>
        <time>2026-01-13T08:56:11Z</time>
      </trkpt>
      <trkpt lat="48.65498" lon="1.94013">
        <ele>141.2</ele>
        <time>2026-01-13T08:56:12Z</time>
      </trkpt>
      <trkpt lat="48.65503" lon="1.94009">
        <ele>141.2</ele>
        <time>2026-01-13T08:56:13Z</time>
      </trkpt>
      <trkpt lat="48.65509" lon="1.94006">
        <ele>141.2</ele>
        <time>2026-01-13T08:56:14Z</time>
      </trkpt>
      <trkpt lat="48.65516" lon="1.94002">
        <ele>141.2</ele>
        <time>2026-01-13T08:56:15Z</time>
      </trkpt>
      <trkpt lat="48.65522" lon="1.94">
        <ele>140.4</ele>
        <time>2026-01-13T08:56:16Z</time>
      </trkpt>
      <trkpt lat="48.65528" lon="1.93998">
        <ele>140.4</ele>
        <time>2026-01-13T08:56:17Z</time>
      </trkpt>
      <trkpt lat="48.65535" lon="1.93996">
        <ele>140.4</ele>
        <time>2026-01-13T08:56:18Z</time>
      </trkpt>
      <trkpt lat="48.65542" lon="1.93994">
        <ele>140.4</ele>
        <time>2026-01-13T08:56:19Z</time>
      </trkpt>
      <trkpt lat="48.65548" lon="1.93992">
        <ele>140</ele>
        <time>2026-01-13T08:56:20Z</time>
      </trkpt>
      <trkpt lat="48.65555" lon="1.9399">
        <ele>140</ele>
        <time>2026-01-13T08:56:21Z</time>
      </trkpt>
      <trkpt lat="48.65561" lon="1.93988">
        <ele>140</ele>
        <time>2026-01-13T08:56:22Z</time>
      </trkpt>
      <trkpt lat="48.65567" lon="1.93986">
        <ele>140.2</ele>
        <time>2026-01-13T08:56:23Z</time>
      </trkpt>
      <trkpt lat="48.65573" lon="1.93983">
        <ele>140.6</ele>
        <time>2026-01-13T08:56:24Z</time>
      </trkpt>
      <trkpt lat="48.65579" lon="1.93979">
        <ele>141</ele>
        <time>2026-01-13T08:56:25Z</time>
      </trkpt>
      <trkpt lat="48.65584" lon="1.93974">
        <ele>141.4</ele>
        <time>2026-01-13T08:56:26Z</time>
      </trkpt>
      <trkpt lat="48.65589" lon="1.93969">
        <ele>142</ele>
        <time>2026-01-13T08:56:27Z</time>
      </trkpt>
      <trkpt lat="48.65593" lon="1.93964">
        <ele>142.8</ele>
        <time>2026-01-13T08:56:28Z</time>
      </trkpt>
      <trkpt lat="48.65597" lon="1.93959">
        <ele>142.8</ele>
        <time>2026-01-13T08:56:29Z</time>
      </trkpt>
      <trkpt lat="48.65601" lon="1.93955">
        <ele>142.8</ele>
        <time>2026-01-13T08:56:30Z</time>
      </trkpt>
      <trkpt lat="48.65604" lon="1.9395">
        <ele>142.8</ele>
        <time>2026-01-13T08:56:31Z</time>
      </trkpt>
      <trkpt lat="48.65607" lon="1.93946">
        <ele>143.8</ele>
        <time>2026-01-13T08:56:32Z</time>
      </trkpt>
      <trkpt lat="48.65609" lon="1.93941">
        <ele>144.4</ele>
        <time>2026-01-13T08:56:33Z</time>
      </trkpt>
      <trkpt lat="48.65612" lon="1.93937">
        <ele>144.4</ele>
        <time>2026-01-13T08:56:34Z</time>
      </trkpt>
      <trkpt lat="48.65614" lon="1.93932">
        <ele>144.4</ele>
        <time>2026-01-13T08:56:35Z</time>
      </trkpt>
      <trkpt lat="48.65617" lon="1.93928">
        <ele>144.4</ele>
        <time>2026-01-13T08:56:36Z</time>
      </trkpt>
      <trkpt lat="48.65619" lon="1.93923">
        <ele>144.4</ele>
        <time>2026-01-13T08:56:37Z</time>
      </trkpt>
      <trkpt lat="48.65621" lon="1.93918">
        <ele>145.4</ele>
        <time>2026-01-13T08:56:38Z</time>
      </trkpt>
      <trkpt lat="48.65623" lon="1.93912">
        <ele>145.6</ele>
        <time>2026-01-13T08:56:39Z</time>
      </trkpt>
      <trkpt lat="48.65625" lon="1.93907">
        <ele>145.6</ele>
        <time>2026-01-13T08:56:40Z</time>
      </trkpt>
      <trkpt lat="48.65627" lon="1.93902">
        <ele>145.8</ele>
        <time>2026-01-13T08:56:41Z</time>
      </trkpt>
      <trkpt lat="48.65629" lon="1.93897">
        <ele>146</ele>
        <time>2026-01-13T08:56:42Z</time>
      </trkpt>
      <trkpt lat="48.65631" lon="1.93891">
        <ele>146.2</ele>
        <time>2026-01-13T08:56:43Z</time>
      </trkpt>
      <trkpt lat="48.65633" lon="1.93885">
        <ele>146.4</ele>
        <time>2026-01-13T08:56:44Z</time>
      </trkpt>
      <trkpt lat="48.65635" lon="1.93879">
        <ele>146.4</ele>
        <time>2026-01-13T08:56:45Z</time>
      </trkpt>
      <trkpt lat="48.65636" lon="1.93875">
        <ele>146.8</ele>
        <time>2026-01-13T08:56:46Z</time>
      </trkpt>
      <trkpt lat="48.65639" lon="1.9387">
        <ele>147</ele>
        <time>2026-01-13T08:56:47Z</time>
      </trkpt>
      <trkpt lat="48.6564" lon="1.93865">
        <ele>147</ele>
        <time>2026-01-13T08:56:48Z</time>
      </trkpt>
      <trkpt lat="48.65642" lon="1.9386">
        <ele>147.4</ele>
        <time>2026-01-13T08:56:49Z</time>
      </trkpt>
      <trkpt lat="48.65644" lon="1.93854">
        <ele>147.8</ele>
        <time>2026-01-13T08:56:50Z</time>
      </trkpt>
      <trkpt lat="48.65645" lon="1.93849">
        <ele>147.8</ele>
        <time>2026-01-13T08:56:51Z</time>
      </trkpt>
      <trkpt lat="48.65647" lon="1.93844">
        <ele>147.8</ele>
        <time>2026-01-13T08:56:52Z</time>
      </trkpt>
      <trkpt lat="48.65649" lon="1.9384">
        <ele>147.8</ele>
        <time>2026-01-13T08:56:53Z</time>
      </trkpt>
      <trkpt lat="48.65651" lon="1.93835">
        <ele>148.4</ele>
        <time>2026-01-13T08:56:54Z</time>
      </trkpt>
      <trkpt lat="48.65653" lon="1.9383">
        <ele>148.4</ele>
        <time>2026-01-13T08:56:55Z</time>
      </trkpt>
      <trkpt lat="48.65655" lon="1.93826">
        <ele>148.4</ele>
        <time>2026-01-13T08:56:56Z</time>
      </trkpt>
      <trkpt lat="48.65656" lon="1.93821">
        <ele>148.4</ele>
        <time>2026-01-13T08:56:57Z</time>
      </trkpt>
      <trkpt lat="48.65658" lon="1.93816">
        <ele>149</ele>
        <time>2026-01-13T08:56:58Z</time>
      </trkpt>
      <trkpt lat="48.6566" lon="1.93811">
        <ele>149.2</ele>
        <time>2026-01-13T08:56:59Z</time>
      </trkpt>
      <trkpt lat="48.65662" lon="1.93807">
        <ele>149.4</ele>
        <time>2026-01-13T08:57:00Z</time>
      </trkpt>
      <trkpt lat="48.65664" lon="1.93802">
        <ele>149.8</ele>
        <time>2026-01-13T08:57:01Z</time>
      </trkpt>
      <trkpt lat="48.65666" lon="1.93797">
        <ele>149.8</ele>
        <time>2026-01-13T08:57:02Z</time>
      </trkpt>
      <trkpt lat="48.65667" lon="1.93792">
        <ele>149.8</ele>
        <time>2026-01-13T08:57:03Z</time>
      </trkpt>
      <trkpt lat="48.65669" lon="1.93788">
        <ele>149.8</ele>
        <time>2026-01-13T08:57:04Z</time>
      </trkpt>
      <trkpt lat="48.65671" lon="1.93783">
        <ele>150.6</ele>
        <time>2026-01-13T08:57:05Z</time>
      </trkpt>
      <trkpt lat="48.65673" lon="1.93778">
        <ele>150.6</ele>
        <time>2026-01-13T08:57:06Z</time>
      </trkpt>
      <trkpt lat="48.65675" lon="1.93774">
        <ele>150.6</ele>
        <time>2026-01-13T08:57:07Z</time>
      </trkpt>
      <trkpt lat="48.65677" lon="1.93769">
        <ele>150.6</ele>
        <time>2026-01-13T08:57:08Z</time>
      </trkpt>
      <trkpt lat="48.65679" lon="1.93764">
        <ele>151.6</ele>
        <time>2026-01-13T08:57:09Z</time>
      </trkpt>
      <trkpt lat="48.65681" lon="1.9376">
        <ele>151.6</ele>
        <time>2026-01-13T08:57:10Z</time>
      </trkpt>
      <trkpt lat="48.65683" lon="1.93755">
        <ele>151.6</ele>
        <time>2026-01-13T08:57:11Z</time>
      </trkpt>
      <trkpt lat="48.65685" lon="1.9375">
        <ele>151.6</ele>
        <time>2026-01-13T08:57:12Z</time>
      </trkpt>
      <trkpt lat="48.65687" lon="1.93746">
        <ele>152.2</ele>
        <time>2026-01-13T08:57:13Z</time>
      </trkpt>
      <trkpt lat="48.65689" lon="1.93742">
        <ele>152.8</ele>
        <time>2026-01-13T08:57:14Z</time>
      </trkpt>
      <trkpt lat="48.65691" lon="1.93738">
        <ele>152.8</ele>
        <time>2026-01-13T08:57:15Z</time>
      </trkpt>
      <trkpt lat="48.65693" lon="1.93734">
        <ele>152.8</ele>
        <time>2026-01-13T08:57:16Z</time>
      </trkpt>
      <trkpt lat="48.65695" lon="1.9373">
        <ele>152.8</ele>
        <time>2026-01-13T08:57:17Z</time>
      </trkpt>
      <trkpt lat="48.65697" lon="1.93726">
        <ele>152.8</ele>
        <time>2026-01-13T08:57:18Z</time>
      </trkpt>
      <trkpt lat="48.65699" lon="1.93721">
        <ele>153.4</ele>
        <time>2026-01-13T08:57:19Z</time>
      </trkpt>
      <trkpt lat="48.65701" lon="1.93717">
        <ele>153.4</ele>
        <time>2026-01-13T08:57:20Z</time>
      </trkpt>
      <trkpt lat="48.65703" lon="1.93713">
        <ele>153.6</ele>
        <time>2026-01-13T08:57:21Z</time>
      </trkpt>
      <trkpt lat="48.65705" lon="1.93708">
        <ele>153.8</ele>
        <time>2026-01-13T08:57:22Z</time>
      </trkpt>
      <trkpt lat="48.65707" lon="1.93703">
        <ele>154.2</ele>
        <time>2026-01-13T08:57:23Z</time>
      </trkpt>
      <trkpt lat="48.65709" lon="1.93698">
        <ele>154.4</ele>
        <time>2026-01-13T08:57:24Z</time>
      </trkpt>
      <trkpt lat="48.65711" lon="1.93694">
        <ele>154.4</ele>
        <time>2026-01-13T08:57:25Z</time>
      </trkpt>
      <trkpt lat="48.65713" lon="1.9369">
        <ele>154.8</ele>
        <time>2026-01-13T08:57:26Z</time>
      </trkpt>
      <trkpt lat="48.65715" lon="1.93685">
        <ele>155.2</ele>
        <time>2026-01-13T08:57:27Z</time>
      </trkpt>
      <trkpt lat="48.65717" lon="1.93681">
        <ele>155.4</ele>
        <time>2026-01-13T08:57:28Z</time>
      </trkpt>
      <trkpt lat="48.65719" lon="1.93676">
        <ele>155.6</ele>
        <time>2026-01-13T08:57:29Z</time>
      </trkpt>
      <trkpt lat="48.65722" lon="1.93672">
        <ele>155.6</ele>
        <time>2026-01-13T08:57:30Z</time>
      </trkpt>
      <trkpt lat="48.65724" lon="1.93668">
        <ele>156</ele>
        <time>2026-01-13T08:57:31Z</time>
      </trkpt>
      <trkpt lat="48.65726" lon="1.93663">
        <ele>156.4</ele>
        <time>2026-01-13T08:57:32Z</time>
      </trkpt>
      <trkpt lat="48.65728" lon="1.93658">
        <ele>156.6</ele>
        <time>2026-01-13T08:57:33Z</time>
      </trkpt>
      <trkpt lat="48.6573" lon="1.93654">
        <ele>156.6</ele>
        <time>2026-01-13T08:57:34Z</time>
      </trkpt>
      <trkpt lat="48.65732" lon="1.93649">
        <ele>156.6</ele>
        <time>2026-01-13T08:57:35Z</time>
      </trkpt>
      <trkpt lat="48.65734" lon="1.93644">
        <ele>156.6</ele>
        <time>2026-01-13T08:57:36Z</time>
      </trkpt>
      <trkpt lat="48.65737" lon="1.9364">
        <ele>156.6</ele>
        <time>2026-01-13T08:57:37Z</time>
      </trkpt>
      <trkpt lat="48.65739" lon="1.93637">
        <ele>157.4</ele>
        <time>2026-01-13T08:57:38Z</time>
      </trkpt>
      <trkpt lat="48.65741" lon="1.93632">
        <ele>157.4</ele>
        <time>2026-01-13T08:57:39Z</time>
      </trkpt>
      <trkpt lat="48.65744" lon="1.93628">
        <ele>157.4</ele>
        <time>2026-01-13T08:57:40Z</time>
      </trkpt>
      <trkpt lat="48.65747" lon="1.93624">
        <ele>157.4</ele>
        <time>2026-01-13T08:57:41Z</time>
      </trkpt>
      <trkpt lat="48.65749" lon="1.9362">
        <ele>158.2</ele>
        <time>2026-01-13T08:57:42Z</time>
      </trkpt>
      <trkpt lat="48.65752" lon="1.93616">
        <ele>158.2</ele>
        <time>2026-01-13T08:57:43Z</time>
      </trkpt>
      <trkpt lat="48.65755" lon="1.93613">
        <ele>158.2</ele>
        <time>2026-01-13T08:57:44Z</time>
      </trkpt>
      <trkpt lat="48.65758" lon="1.93609">
        <ele>158.2</ele>
        <time>2026-01-13T08:57:45Z</time>
      </trkpt>
      <trkpt lat="48.65761" lon="1.93606">
        <ele>159.2</ele>
        <time>2026-01-13T08:57:46Z</time>
      </trkpt>
      <trkpt lat="48.65764" lon="1.93602">
        <ele>159.2</ele>
        <time>2026-01-13T08:57:47Z</time>
      </trkpt>
      <trkpt lat="48.65767" lon="1.93599">
        <ele>159.2</ele>
        <time>2026-01-13T08:57:48Z</time>
      </trkpt>
      <trkpt lat="48.6577" lon="1.93595">
        <ele>159.2</ele>
        <time>2026-01-13T08:57:49Z</time>
      </trkpt>
      <trkpt lat="48.65774" lon="1.93593">
        <ele>160.2</ele>
        <time>2026-01-13T08:57:50Z</time>
      </trkpt>
      <trkpt lat="48.65778" lon="1.9359">
        <ele>160.2</ele>
        <time>2026-01-13T08:57:51Z</time>
      </trkpt>
      <trkpt lat="48.65781" lon="1.93587">
        <ele>160.2</ele>
        <time>2026-01-13T08:57:52Z</time>
      </trkpt>
      <trkpt lat="48.65785" lon="1.93585">
        <ele>160.2</ele>
        <time>2026-01-13T08:57:53Z</time>
      </trkpt>
      <trkpt lat="48.65788" lon="1.93582">
        <ele>160.6</ele>
        <time>2026-01-13T08:57:54Z</time>
      </trkpt>
      <trkpt lat="48.65792" lon="1.9358">
        <ele>161.2</ele>
        <time>2026-01-13T08:57:55Z</time>
      </trkpt>
      <trkpt lat="48.65795" lon="1.93577">
        <ele>161.4</ele>
        <time>2026-01-13T08:57:56Z</time>
      </trkpt>
      <trkpt lat="48.65799" lon="1.93575">
        <ele>161.6</ele>
        <time>2026-01-13T08:57:57Z</time>
      </trkpt>
      <trkpt lat="48.65803" lon="1.93572">
        <ele>161.6</ele>
        <time>2026-01-13T08:57:58Z</time>
      </trkpt>
      <trkpt lat="48.65806" lon="1.93569">
        <ele>161.6</ele>
        <time>2026-01-13T08:57:59Z</time>
      </trkpt>
      <trkpt lat="48.6581" lon="1.93566">
        <ele>161.6</ele>
        <time>2026-01-13T08:58:00Z</time>
      </trkpt>
      <trkpt lat="48.65813" lon="1.93563">
        <ele>162.6</ele>
        <time>2026-01-13T08:58:01Z</time>
      </trkpt>
      <trkpt lat="48.65816" lon="1.93561">
        <ele>163</ele>
        <time>2026-01-13T08:58:02Z</time>
      </trkpt>
      <trkpt lat="48.6582" lon="1.93558">
        <ele>163.2</ele>
        <time>2026-01-13T08:58:03Z</time>
      </trkpt>
      <trkpt lat="48.65823" lon="1.93556">
        <ele>163.4</ele>
        <time>2026-01-13T08:58:04Z</time>
      </trkpt>
      <trkpt lat="48.65827" lon="1.93553">
        <ele>164</ele>
        <time>2026-01-13T08:58:05Z</time>
      </trkpt>
      <trkpt lat="48.65831" lon="1.93551">
        <ele>164</ele>
        <time>2026-01-13T08:58:06Z</time>
      </trkpt>
      <trkpt lat="48.65834" lon="1.93548">
        <ele>164</ele>
        <time>2026-01-13T08:58:07Z</time>
      </trkpt>
      <trkpt lat="48.65838" lon="1.93545">
        <ele>164</ele>
        <time>2026-01-13T08:58:08Z</time>
      </trkpt>
      <trkpt lat="48.65842" lon="1.93543">
        <ele>164</ele>
        <time>2026-01-13T08:58:09Z</time>
      </trkpt>
      <trkpt lat="48.65845" lon="1.93541">
        <ele>164</ele>
        <time>2026-01-13T08:58:10Z</time>
      </trkpt>
      <trkpt lat="48.65849" lon="1.93538">
        <ele>165</ele>
        <time>2026-01-13T08:58:11Z</time>
      </trkpt>
      <trkpt lat="48.65853" lon="1.93535">
        <ele>165</ele>
        <time>2026-01-13T08:58:12Z</time>
      </trkpt>
      <trkpt lat="48.65857" lon="1.93533">
        <ele>165</ele>
        <time>2026-01-13T08:58:13Z</time>
      </trkpt>
      <trkpt lat="48.6586" lon="1.9353">
        <ele>165</ele>
        <time>2026-01-13T08:58:14Z</time>
      </trkpt>
      <trkpt lat="48.65864" lon="1.93526">
        <ele>165</ele>
        <time>2026-01-13T08:58:15Z</time>
      </trkpt>
      <trkpt lat="48.65867" lon="1.93523">
        <ele>165</ele>
        <time>2026-01-13T08:58:16Z</time>
      </trkpt>
      <trkpt lat="48.65871" lon="1.93521">
        <ele>165.6</ele>
        <time>2026-01-13T08:58:17Z</time>
      </trkpt>
      <trkpt lat="48.65874" lon="1.93517">
        <ele>165.6</ele>
        <time>2026-01-13T08:58:18Z</time>
      </trkpt>
      <trkpt lat="48.65878" lon="1.93514">
        <ele>165.6</ele>
        <time>2026-01-13T08:58:19Z</time>
      </trkpt>
      <trkpt lat="48.65882" lon="1.9351">
        <ele>165.6</ele>
        <time>2026-01-13T08:58:20Z</time>
      </trkpt>
      <trkpt lat="48.65886" lon="1.93507">
        <ele>165.6</ele>
        <time>2026-01-13T08:58:21Z</time>
      </trkpt>
      <trkpt lat="48.6589" lon="1.93503">
        <ele>165.6</ele>
        <time>2026-01-13T08:58:22Z</time>
      </trkpt>
      <trkpt lat="48.65894" lon="1.93498">
        <ele>165.6</ele>
        <time>2026-01-13T08:58:23Z</time>
      </trkpt>
      <trkpt lat="48.65898" lon="1.93494">
        <ele>165.6</ele>
        <time>2026-01-13T08:58:24Z</time>
      </trkpt>
      <trkpt lat="48.65901" lon="1.93489">
        <ele>165.6</ele>
        <time>2026-01-13T08:58:25Z</time>
      </trkpt>
      <trkpt lat="48.65905" lon="1.93486">
        <ele>166</ele>
        <time>2026-01-13T08:58:26Z</time>
      </trkpt>
      <trkpt lat="48.65909" lon="1.93481">
        <ele>166</ele>
        <time>2026-01-13T08:58:27Z</time>
      </trkpt>
      <trkpt lat="48.65913" lon="1.93476">
        <ele>166</ele>
        <time>2026-01-13T08:58:28Z</time>
      </trkpt>
      <trkpt lat="48.65916" lon="1.93472">
        <ele>166</ele>
        <time>2026-01-13T08:58:29Z</time>
      </trkpt>
      <trkpt lat="48.6592" lon="1.93468">
        <ele>166</ele>
        <time>2026-01-13T08:58:30Z</time>
      </trkpt>
      <trkpt lat="48.65924" lon="1.93465">
        <ele>166</ele>
        <time>2026-01-13T08:58:31Z</time>
      </trkpt>
      <trkpt lat="48.65928" lon="1.9346">
        <ele>166</ele>
        <time>2026-01-13T08:58:32Z</time>
      </trkpt>
      <trkpt lat="48.65932" lon="1.93455">
        <ele>166</ele>
        <time>2026-01-13T08:58:33Z</time>
      </trkpt>
      <trkpt lat="48.65935" lon="1.9345">
        <ele>165.6</ele>
        <time>2026-01-13T08:58:34Z</time>
      </trkpt>
      <trkpt lat="48.65939" lon="1.93445">
        <ele>165.6</ele>
        <time>2026-01-13T08:58:35Z</time>
      </trkpt>
      <trkpt lat="48.65943" lon="1.93441">
        <ele>165.6</ele>
        <time>2026-01-13T08:58:36Z</time>
      </trkpt>
      <trkpt lat="48.65946" lon="1.93436">
        <ele>165.6</ele>
        <time>2026-01-13T08:58:37Z</time>
      </trkpt>
      <trkpt lat="48.65951" lon="1.93432">
        <ele>165.6</ele>
        <time>2026-01-13T08:58:38Z</time>
      </trkpt>
      <trkpt lat="48.65955" lon="1.93426">
        <ele>165.6</ele>
        <time>2026-01-13T08:58:39Z</time>
      </trkpt>
      <trkpt lat="48.65959" lon="1.93422">
        <ele>165.8</ele>
        <time>2026-01-13T08:58:40Z</time>
      </trkpt>
      <trkpt lat="48.65962" lon="1.93416">
        <ele>165.8</ele>
        <time>2026-01-13T08:58:41Z</time>
      </trkpt>
      <trkpt lat="48.65967" lon="1.93411">
        <ele>165.8</ele>
        <time>2026-01-13T08:58:42Z</time>
      </trkpt>
      <trkpt lat="48.65971" lon="1.93406">
        <ele>165.8</ele>
        <time>2026-01-13T08:58:43Z</time>
      </trkpt>
      <trkpt lat="48.65977" lon="1.93401">
        <ele>165.8</ele>
        <time>2026-01-13T08:58:44Z</time>
      </trkpt>
      <trkpt lat="48.65983" lon="1.93397">
        <ele>165.8</ele>
        <time>2026-01-13T08:58:45Z</time>
      </trkpt>
      <trkpt lat="48.65988" lon="1.93393">
        <ele>165.8</ele>
        <time>2026-01-13T08:58:46Z</time>
      </trkpt>
      <trkpt lat="48.65993" lon="1.93389">
        <ele>165.8</ele>
        <time>2026-01-13T08:58:47Z</time>
      </trkpt>
      <trkpt lat="48.65999" lon="1.93386">
        <ele>165.8</ele>
        <time>2026-01-13T08:58:48Z</time>
      </trkpt>
      <trkpt lat="48.66003" lon="1.93382">
        <ele>165.8</ele>
        <time>2026-01-13T08:58:49Z</time>
      </trkpt>
      <trkpt lat="48.66008" lon="1.93379">
        <ele>165.8</ele>
        <time>2026-01-13T08:58:50Z</time>
      </trkpt>
      <trkpt lat="48.66013" lon="1.93376">
        <ele>165.6</ele>
        <time>2026-01-13T08:58:51Z</time>
      </trkpt>
      <trkpt lat="48.66019" lon="1.93373">
        <ele>165.6</ele>
        <time>2026-01-13T08:58:52Z</time>
      </trkpt>
      <trkpt lat="48.66024" lon="1.9337">
        <ele>165.6</ele>
        <time>2026-01-13T08:58:53Z</time>
      </trkpt>
      <trkpt lat="48.6603" lon="1.93368">
        <ele>165.6</ele>
        <time>2026-01-13T08:58:54Z</time>
      </trkpt>
      <trkpt lat="48.66035" lon="1.93365">
        <ele>165.6</ele>
        <time>2026-01-13T08:58:55Z</time>
      </trkpt>
      <trkpt lat="48.66041" lon="1.93362">
        <ele>165.6</ele>
        <time>2026-01-13T08:58:56Z</time>
      </trkpt>
      <trkpt lat="48.66046" lon="1.93359">
        <ele>166.4</ele>
        <time>2026-01-13T08:58:57Z</time>
      </trkpt>
      <trkpt lat="48.66052" lon="1.93356">
        <ele>166.4</ele>
        <time>2026-01-13T08:58:58Z</time>
      </trkpt>
      <trkpt lat="48.66057" lon="1.93354">
        <ele>166.4</ele>
        <time>2026-01-13T08:58:59Z</time>
      </trkpt>
      <trkpt lat="48.66063" lon="1.93351">
        <ele>166.2</ele>
        <time>2026-01-13T08:59:00Z</time>
      </trkpt>
      <trkpt lat="48.66069" lon="1.93348">
        <ele>166.2</ele>
        <time>2026-01-13T08:59:01Z</time>
      </trkpt>
      <trkpt lat="48.66074" lon="1.93346">
        <ele>166.2</ele>
        <time>2026-01-13T08:59:02Z</time>
      </trkpt>
      <trkpt lat="48.6608" lon="1.93343">
        <ele>166.2</ele>
        <time>2026-01-13T08:59:03Z</time>
      </trkpt>
      <trkpt lat="48.66085" lon="1.9334">
        <ele>166.2</ele>
        <time>2026-01-13T08:59:04Z</time>
      </trkpt>
      <trkpt lat="48.66091" lon="1.93337">
        <ele>166.4</ele>
        <time>2026-01-13T08:59:05Z</time>
      </trkpt>
      <trkpt lat="48.66096" lon="1.93334">
        <ele>166.8</ele>
        <time>2026-01-13T08:59:06Z</time>
      </trkpt>
      <trkpt lat="48.66101" lon="1.93331">
        <ele>166.8</ele>
        <time>2026-01-13T08:59:07Z</time>
      </trkpt>
      <trkpt lat="48.66106" lon="1.93328">
        <ele>167</ele>
        <time>2026-01-13T08:59:08Z</time>
      </trkpt>
      <trkpt lat="48.66111" lon="1.93325">
        <ele>167</ele>
        <time>2026-01-13T08:59:09Z</time>
      </trkpt>
      <trkpt lat="48.66117" lon="1.93321">
        <ele>167</ele>
        <time>2026-01-13T08:59:10Z</time>
      </trkpt>
      <trkpt lat="48.66122" lon="1.93316">
        <ele>166.4</ele>
        <time>2026-01-13T08:59:11Z</time>
      </trkpt>
      <trkpt lat="48.66127" lon="1.93311">
        <ele>166.4</ele>
        <time>2026-01-13T08:59:12Z</time>
      </trkpt>
      <trkpt lat="48.66132" lon="1.93305">
        <ele>166.4</ele>
        <time>2026-01-13T08:59:13Z</time>
      </trkpt>
      <trkpt lat="48.66137" lon="1.93299">
        <ele>166.4</ele>
        <time>2026-01-13T08:59:14Z</time>
      </trkpt>
      <trkpt lat="48.66142" lon="1.93295">
        <ele>166.4</ele>
        <time>2026-01-13T08:59:15Z</time>
      </trkpt>
      <trkpt lat="48.66146" lon="1.93289">
        <ele>166.4</ele>
        <time>2026-01-13T08:59:16Z</time>
      </trkpt>
      <trkpt lat="48.66151" lon="1.93284">
        <ele>166.4</ele>
        <time>2026-01-13T08:59:17Z</time>
      </trkpt>
      <trkpt lat="48.66156" lon="1.93278">
        <ele>166.4</ele>
        <time>2026-01-13T08:59:18Z</time>
      </trkpt>
      <trkpt lat="48.66161" lon="1.93273">
        <ele>166.4</ele>
        <time>2026-01-13T08:59:19Z</time>
      </trkpt>
      <trkpt lat="48.66166" lon="1.93269">
        <ele>165.8</ele>
        <time>2026-01-13T08:59:20Z</time>
      </trkpt>
      <trkpt lat="48.66172" lon="1.93266">
        <ele>165.8</ele>
        <time>2026-01-13T08:59:21Z</time>
      </trkpt>
      <trkpt lat="48.66178" lon="1.93264">
        <ele>165.8</ele>
        <time>2026-01-13T08:59:22Z</time>
      </trkpt>
      <trkpt lat="48.66184" lon="1.93261">
        <ele>166</ele>
        <time>2026-01-13T08:59:23Z</time>
      </trkpt>
      <trkpt lat="48.6619" lon="1.9326">
        <ele>166.2</ele>
        <time>2026-01-13T08:59:24Z</time>
      </trkpt>
      <trkpt lat="48.66196" lon="1.93259">
        <ele>166.2</ele>
        <time>2026-01-13T08:59:25Z</time>
      </trkpt>
      <trkpt lat="48.66202" lon="1.93259">
        <ele>166.2</ele>
        <time>2026-01-13T08:59:26Z</time>
      </trkpt>
      <trkpt lat="48.66208" lon="1.93258">
        <ele>166.2</ele>
        <time>2026-01-13T08:59:27Z</time>
      </trkpt>
      <trkpt lat="48.66214" lon="1.93259">
        <ele>166.4</ele>
        <time>2026-01-13T08:59:28Z</time>
      </trkpt>
      <trkpt lat="48.6622" lon="1.93259">
        <ele>166.4</ele>
        <time>2026-01-13T08:59:29Z</time>
      </trkpt>
      <trkpt lat="48.66226" lon="1.9326">
        <ele>166.4</ele>
        <time>2026-01-13T08:59:30Z</time>
      </trkpt>
      <trkpt lat="48.66232" lon="1.9326">
        <ele>166.4</ele>
        <time>2026-01-13T08:59:31Z</time>
      </trkpt>
      <trkpt lat="48.66238" lon="1.9326">
        <ele>166.4</ele>
        <time>2026-01-13T08:59:32Z</time>
      </trkpt>
      <trkpt lat="48.66244" lon="1.9326">
        <ele>166.4</ele>
        <time>2026-01-13T08:59:33Z</time>
      </trkpt>
      <trkpt lat="48.66249" lon="1.9326">
        <ele>166.4</ele>
        <time>2026-01-13T08:59:34Z</time>
      </trkpt>
      <trkpt lat="48.66255" lon="1.9326">
        <ele>166.4</ele>
        <time>2026-01-13T08:59:35Z</time>
      </trkpt>
      <trkpt lat="48.66261" lon="1.93259">
        <ele>166.4</ele>
        <time>2026-01-13T08:59:36Z</time>
      </trkpt>
      <trkpt lat="48.66267" lon="1.93257">
        <ele>167</ele>
        <time>2026-01-13T08:59:37Z</time>
      </trkpt>
      <trkpt lat="48.66272" lon="1.93255">
        <ele>167</ele>
        <time>2026-01-13T08:59:38Z</time>
      </trkpt>
      <trkpt lat="48.66278" lon="1.93253">
        <ele>167</ele>
        <time>2026-01-13T08:59:39Z</time>
      </trkpt>
      <trkpt lat="48.66284" lon="1.93251">
        <ele>166.6</ele>
        <time>2026-01-13T08:59:40Z</time>
      </trkpt>
      <trkpt lat="48.6629" lon="1.93249">
        <ele>166.6</ele>
        <time>2026-01-13T08:59:41Z</time>
      </trkpt>
      <trkpt lat="48.66296" lon="1.93245">
        <ele>166.6</ele>
        <time>2026-01-13T08:59:42Z</time>
      </trkpt>
      <trkpt lat="48.66302" lon="1.93241">
        <ele>166.6</ele>
        <time>2026-01-13T08:59:43Z</time>
      </trkpt>
      <trkpt lat="48.66308" lon="1.93237">
        <ele>166.2</ele>
        <time>2026-01-13T08:59:44Z</time>
      </trkpt>
      <trkpt lat="48.66314" lon="1.93234">
        <ele>166.2</ele>
        <time>2026-01-13T08:59:45Z</time>
      </trkpt>
      <trkpt lat="48.66319" lon="1.9323">
        <ele>166.2</ele>
        <time>2026-01-13T08:59:46Z</time>
      </trkpt>
      <trkpt lat="48.66325" lon="1.93225">
        <ele>166.2</ele>
        <time>2026-01-13T08:59:47Z</time>
      </trkpt>
      <trkpt lat="48.6633" lon="1.93221">
        <ele>165.6</ele>
        <time>2026-01-13T08:59:48Z</time>
      </trkpt>
      <trkpt lat="48.66335" lon="1.93216">
        <ele>165.6</ele>
        <time>2026-01-13T08:59:49Z</time>
      </trkpt>
      <trkpt lat="48.6634" lon="1.93212">
        <ele>165.6</ele>
        <time>2026-01-13T08:59:50Z</time>
      </trkpt>
      <trkpt lat="48.66345" lon="1.93208">
        <ele>166</ele>
        <time>2026-01-13T08:59:51Z</time>
      </trkpt>
      <trkpt lat="48.66351" lon="1.93205">
        <ele>166</ele>
        <time>2026-01-13T08:59:52Z</time>
      </trkpt>
      <trkpt lat="48.66356" lon="1.93201">
        <ele>166</ele>
        <time>2026-01-13T08:59:53Z</time>
      </trkpt>
      <trkpt lat="48.66361" lon="1.93197">
        <ele>165.8</ele>
        <time>2026-01-13T08:59:54Z</time>
      </trkpt>
      <trkpt lat="48.66367" lon="1.93193">
        <ele>165.8</ele>
        <time>2026-01-13T08:59:55Z</time>
      </trkpt>
      <trkpt lat="48.66371" lon="1.93189">
        <ele>165.8</ele>
        <time>2026-01-13T08:59:56Z</time>
      </trkpt>
      <trkpt lat="48.66375" lon="1.93186">
        <ele>165.8</ele>
        <time>2026-01-13T08:59:57Z</time>
      </trkpt>
      <trkpt lat="48.66378" lon="1.93184">
        <ele>165.8</ele>
        <time>2026-01-13T08:59:58Z</time>
      </trkpt>
      <trkpt lat="48.6638" lon="1.93183">
        <ele>166.2</ele>
        <time>2026-01-13T08:59:59Z</time>
      </trkpt>
      <trkpt lat="48.66383" lon="1.93181">
        <ele>166.2</ele>
        <time>2026-01-13T09:00:00Z</time>
      </trkpt>
      <trkpt lat="48.66385" lon="1.93179">
        <ele>166.2</ele>
        <time>2026-01-13T09:00:01Z</time>
      </trkpt>
      <trkpt lat="48.66386" lon="1.93175">
        <ele>165.2</ele>
        <time>2026-01-13T09:00:02Z</time>
      </trkpt>
      <trkpt lat="48.66388" lon="1.93169">
        <ele>165.2</ele>
        <time>2026-01-13T09:00:03Z</time>
      </trkpt>
      <trkpt lat="48.66389" lon="1.93162">
        <ele>165.2</ele>
        <time>2026-01-13T09:00:04Z</time>
      </trkpt>
      <trkpt lat="48.66389" lon="1.93153">
        <ele>165.2</ele>
        <time>2026-01-13T09:00:05Z</time>
      </trkpt>
      <trkpt lat="48.6639" lon="1.93142">
        <ele>164.2</ele>
        <time>2026-01-13T09:00:06Z</time>
      </trkpt>
      <trkpt lat="48.66389" lon="1.93131">
        <ele>163.8</ele>
        <time>2026-01-13T09:00:07Z</time>
      </trkpt>
      <trkpt lat="48.6639" lon="1.9312">
        <ele>163.2</ele>
        <time>2026-01-13T09:00:08Z</time>
      </trkpt>
      <trkpt lat="48.66389" lon="1.9311">
        <ele>163</ele>
        <time>2026-01-13T09:00:09Z</time>
      </trkpt>
      <trkpt lat="48.6639" lon="1.931">
        <ele>162.8</ele>
        <time>2026-01-13T09:00:10Z</time>
      </trkpt>
      <trkpt lat="48.6639" lon="1.9309">
        <ele>162.4</ele>
        <time>2026-01-13T09:00:11Z</time>
      </trkpt>
      <trkpt lat="48.66389" lon="1.93078">
        <ele>162.4</ele>
        <time>2026-01-13T09:00:12Z</time>
      </trkpt>
      <trkpt lat="48.66388" lon="1.93067">
        <ele>162.4</ele>
        <time>2026-01-13T09:00:13Z</time>
      </trkpt>
      <trkpt lat="48.66387" lon="1.93056">
        <ele>162.4</ele>
        <time>2026-01-13T09:00:14Z</time>
      </trkpt>
      <trkpt lat="48.66386" lon="1.93042">
        <ele>162.2</ele>
        <time>2026-01-13T09:00:15Z</time>
      </trkpt>
      <trkpt lat="48.66385" lon="1.9303">
        <ele>161.6</ele>
        <time>2026-01-13T09:00:16Z</time>
      </trkpt>
      <trkpt lat="48.66383" lon="1.93018">
        <ele>161.4</ele>
        <time>2026-01-13T09:00:17Z</time>
      </trkpt>
      <trkpt lat="48.66382" lon="1.93007">
        <ele>161.2</ele>
        <time>2026-01-13T09:00:18Z</time>
      </trkpt>
      <trkpt lat="48.66381" lon="1.92995">
        <ele>161.2</ele>
        <time>2026-01-13T09:00:19Z</time>
      </trkpt>
      <trkpt lat="48.6638" lon="1.92984">
        <ele>161.2</ele>
        <time>2026-01-13T09:00:20Z</time>
      </trkpt>
      <trkpt lat="48.66382" lon="1.92973">
        <ele>162.2</ele>
        <time>2026-01-13T09:00:21Z</time>
      </trkpt>
      <trkpt lat="48.66385" lon="1.92965">
        <ele>162.2</ele>
        <time>2026-01-13T09:00:22Z</time>
      </trkpt>
      <trkpt lat="48.6639" lon="1.92958">
        <ele>162.2</ele>
        <time>2026-01-13T09:00:23Z</time>
      </trkpt>
      <trkpt lat="48.66395" lon="1.92952">
        <ele>162.2</ele>
        <time>2026-01-13T09:00:24Z</time>
      </trkpt>
      <trkpt lat="48.66401" lon="1.92948">
        <ele>162.2</ele>
        <time>2026-01-13T09:00:25Z</time>
      </trkpt>
      <trkpt lat="48.66406" lon="1.92945">
        <ele>162.2</ele>
        <time>2026-01-13T09:00:26Z</time>
      </trkpt>
      <trkpt lat="48.66411" lon="1.92941">
        <ele>162.8</ele>
        <time>2026-01-13T09:00:27Z</time>
      </trkpt>
      <trkpt lat="48.66416" lon="1.92937">
        <ele>163</ele>
        <time>2026-01-13T09:00:28Z</time>
      </trkpt>
      <trkpt lat="48.66422" lon="1.92933">
        <ele>163</ele>
        <time>2026-01-13T09:00:29Z</time>
      </trkpt>
      <trkpt lat="48.66427" lon="1.92929">
        <ele>163</ele>
        <time>2026-01-13T09:00:30Z</time>
      </trkpt>
      <trkpt lat="48.66432" lon="1.92926">
        <ele>163</ele>
        <time>2026-01-13T09:00:31Z</time>
      </trkpt>
      <trkpt lat="48.66437" lon="1.92922">
        <ele>163.8</ele>
        <time>2026-01-13T09:00:32Z</time>
      </trkpt>
      <trkpt lat="48.66442" lon="1.92918">
        <ele>163.8</ele>
        <time>2026-01-13T09:00:33Z</time>
      </trkpt>
      <trkpt lat="48.66447" lon="1.92914">
        <ele>164.2</ele>
        <time>2026-01-13T09:00:34Z</time>
      </trkpt>
      <trkpt lat="48.66453" lon="1.92911">
        <ele>164.2</ele>
        <time>2026-01-13T09:00:35Z</time>
      </trkpt>
      <trkpt lat="48.66458" lon="1.92907">
        <ele>164.2</ele>
        <time>2026-01-13T09:00:36Z</time>
      </trkpt>
      <trkpt lat="48.66463" lon="1.92904">
        <ele>164.2</ele>
        <time>2026-01-13T09:00:37Z</time>
      </trkpt>
      <trkpt lat="48.66468" lon="1.92901">
        <ele>164.8</ele>
        <time>2026-01-13T09:00:38Z</time>
      </trkpt>
      <trkpt lat="48.66473" lon="1.92897">
        <ele>164.8</ele>
        <time>2026-01-13T09:00:39Z</time>
      </trkpt>
      <trkpt lat="48.66478" lon="1.92895">
        <ele>164.8</ele>
        <time>2026-01-13T09:00:40Z</time>
      </trkpt>
      <trkpt lat="48.66484" lon="1.92893">
        <ele>164.8</ele>
        <time>2026-01-13T09:00:41Z</time>
      </trkpt>
      <trkpt lat="48.66489" lon="1.92891">
        <ele>164.8</ele>
        <time>2026-01-13T09:00:42Z</time>
      </trkpt>
      <trkpt lat="48.66494" lon="1.92889">
        <ele>165.8</ele>
        <time>2026-01-13T09:00:43Z</time>
      </trkpt>
      <trkpt lat="48.665" lon="1.92888">
        <ele>165.8</ele>
        <time>2026-01-13T09:00:44Z</time>
      </trkpt>
      <trkpt lat="48.66505" lon="1.92887">
        <ele>165.8</ele>
        <time>2026-01-13T09:00:45Z</time>
      </trkpt>
      <trkpt lat="48.6651" lon="1.92886">
        <ele>165.8</ele>
        <time>2026-01-13T09:00:46Z</time>
      </trkpt>
      <trkpt lat="48.66515" lon="1.92885">
        <ele>165.8</ele>
        <time>2026-01-13T09:00:47Z</time>
      </trkpt>
      <trkpt lat="48.66519" lon="1.92884">
        <ele>166.2</ele>
        <time>2026-01-13T09:00:48Z</time>
      </trkpt>
      <trkpt lat="48.66524" lon="1.92884">
        <ele>166.2</ele>
        <time>2026-01-13T09:00:49Z</time>
      </trkpt>
      <trkpt lat="48.66529" lon="1.92885">
        <ele>166.2</ele>
        <time>2026-01-13T09:00:50Z</time>
      </trkpt>
      <trkpt lat="48.66535" lon="1.92886">
        <ele>166.2</ele>
        <time>2026-01-13T09:00:51Z</time>
      </trkpt>
      <trkpt lat="48.6654" lon="1.92886">
        <ele>166.2</ele>
        <time>2026-01-13T09:00:52Z</time>
      </trkpt>
      <trkpt lat="48.66545" lon="1.92886">
        <ele>166.2</ele>
        <time>2026-01-13T09:00:53Z</time>
      </trkpt>
      <trkpt lat="48.66551" lon="1.92886">
        <ele>166.4</ele>
        <time>2026-01-13T09:00:54Z</time>
      </trkpt>
      <trkpt lat="48.66556" lon="1.92886">
        <ele>166.4</ele>
        <time>2026-01-13T09:00:55Z</time>
      </trkpt>
      <trkpt lat="48.66561" lon="1.92886">
        <ele>166.4</ele>
        <time>2026-01-13T09:00:56Z</time>
      </trkpt>
      <trkpt lat="48.66567" lon="1.92884">
        <ele>166.4</ele>
        <time>2026-01-13T09:00:57Z</time>
      </trkpt>
      <trkpt lat="48.66572" lon="1.92882">
        <ele>166.4</ele>
        <time>2026-01-13T09:00:58Z</time>
      </trkpt>
      <trkpt lat="48.66578" lon="1.92879">
        <ele>167.4</ele>
        <time>2026-01-13T09:00:59Z</time>
      </trkpt>
      <trkpt lat="48.66583" lon="1.92876">
        <ele>167.4</ele>
        <time>2026-01-13T09:01:00Z</time>
      </trkpt>
      <trkpt lat="48.66588" lon="1.92873">
        <ele>167.4</ele>
        <time>2026-01-13T09:01:01Z</time>
      </trkpt>
      <trkpt lat="48.66593" lon="1.9287">
        <ele>167.4</ele>
        <time>2026-01-13T09:01:02Z</time>
      </trkpt>
      <trkpt lat="48.66597" lon="1.92865">
        <ele>167.4</ele>
        <time>2026-01-13T09:01:03Z</time>
      </trkpt>
      <trkpt lat="48.66602" lon="1.92861">
        <ele>167.4</ele>
        <time>2026-01-13T09:01:04Z</time>
      </trkpt>
      <trkpt lat="48.66606" lon="1.92857">
        <ele>167.4</ele>
        <time>2026-01-13T09:01:05Z</time>
      </trkpt>
      <trkpt lat="48.66611" lon="1.92852">
        <ele>167.8</ele>
        <time>2026-01-13T09:01:06Z</time>
      </trkpt>
      <trkpt lat="48.66616" lon="1.92848">
        <ele>167.8</ele>
        <time>2026-01-13T09:01:07Z</time>
      </trkpt>
      <trkpt lat="48.6662" lon="1.92844">
        <ele>167.8</ele>
        <time>2026-01-13T09:01:08Z</time>
      </trkpt>
      <trkpt lat="48.66625" lon="1.92839">
        <ele>167.8</ele>
        <time>2026-01-13T09:01:09Z</time>
      </trkpt>
      <trkpt lat="48.6663" lon="1.92835">
        <ele>167.8</ele>
        <time>2026-01-13T09:01:10Z</time>
      </trkpt>
      <trkpt lat="48.66634" lon="1.9283">
        <ele>168.8</ele>
        <time>2026-01-13T09:01:11Z</time>
      </trkpt>
      <trkpt lat="48.66639" lon="1.92826">
        <ele>168.8</ele>
        <time>2026-01-13T09:01:12Z</time>
      </trkpt>
      <trkpt lat="48.66644" lon="1.92821">
        <ele>168.8</ele>
        <time>2026-01-13T09:01:13Z</time>
      </trkpt>
      <trkpt lat="48.66648" lon="1.92815">
        <ele>168.8</ele>
        <time>2026-01-13T09:01:14Z</time>
      </trkpt>
      <trkpt lat="48.66653" lon="1.9281">
        <ele>168.8</ele>
        <time>2026-01-13T09:01:15Z</time>
      </trkpt>
      <trkpt lat="48.66657" lon="1.92806">
        <ele>168.8</ele>
        <time>2026-01-13T09:01:16Z</time>
      </trkpt>
      <trkpt lat="48.66662" lon="1.92801">
        <ele>168.8</ele>
        <time>2026-01-13T09:01:17Z</time>
      </trkpt>
      <trkpt lat="48.66667" lon="1.92796">
        <ele>169</ele>
        <time>2026-01-13T09:01:18Z</time>
      </trkpt>
      <trkpt lat="48.66672" lon="1.92792">
        <ele>169</ele>
        <time>2026-01-13T09:01:19Z</time>
      </trkpt>
      <trkpt lat="48.66676" lon="1.92788">
        <ele>169</ele>
        <time>2026-01-13T09:01:20Z</time>
      </trkpt>
      <trkpt lat="48.66681" lon="1.92783">
        <ele>168.2</ele>
        <time>2026-01-13T09:01:21Z</time>
      </trkpt>
      <trkpt lat="48.66686" lon="1.92779">
        <ele>167.6</ele>
        <time>2026-01-13T09:01:22Z</time>
      </trkpt>
      <trkpt lat="48.6669" lon="1.92773">
        <ele>167.6</ele>
        <time>2026-01-13T09:01:23Z</time>
      </trkpt>
      <trkpt lat="48.66695" lon="1.92769">
        <ele>167.6</ele>
        <time>2026-01-13T09:01:24Z</time>
      </trkpt>
      <trkpt lat="48.667" lon="1.92765">
        <ele>168.6</ele>
        <time>2026-01-13T09:01:25Z</time>
      </trkpt>
      <trkpt lat="48.66704" lon="1.9276">
        <ele>169</ele>
        <time>2026-01-13T09:01:26Z</time>
      </trkpt>
      <trkpt lat="48.66709" lon="1.92755">
        <ele>169</ele>
        <time>2026-01-13T09:01:27Z</time>
      </trkpt>
      <trkpt lat="48.66713" lon="1.92751">
        <ele>169</ele>
        <time>2026-01-13T09:01:28Z</time>
      </trkpt>
      <trkpt lat="48.66718" lon="1.92746">
        <ele>169</ele>
        <time>2026-01-13T09:01:29Z</time>
      </trkpt>
      <trkpt lat="48.66722" lon="1.9274">
        <ele>169.4</ele>
        <time>2026-01-13T09:01:30Z</time>
      </trkpt>
      <trkpt lat="48.66727" lon="1.92736">
        <ele>169.4</ele>
        <time>2026-01-13T09:01:31Z</time>
      </trkpt>
      <trkpt lat="48.66731" lon="1.92731">
        <ele>169.4</ele>
        <time>2026-01-13T09:01:32Z</time>
      </trkpt>
      <trkpt lat="48.66736" lon="1.92726">
        <ele>169.2</ele>
        <time>2026-01-13T09:01:33Z</time>
      </trkpt>
      <trkpt lat="48.6674" lon="1.92722">
        <ele>169.2</ele>
        <time>2026-01-13T09:01:34Z</time>
      </trkpt>
      <trkpt lat="48.66745" lon="1.92717">
        <ele>169.2</ele>
        <time>2026-01-13T09:01:35Z</time>
      </trkpt>
      <trkpt lat="48.66749" lon="1.92711">
        <ele>169.8</ele>
        <time>2026-01-13T09:01:36Z</time>
      </trkpt>
      <trkpt lat="48.66753" lon="1.92705">
        <ele>169.8</ele>
        <time>2026-01-13T09:01:37Z</time>
      </trkpt>
      <trkpt lat="48.66758" lon="1.927">
        <ele>169.8</ele>
        <time>2026-01-13T09:01:38Z</time>
      </trkpt>
      <trkpt lat="48.66762" lon="1.92695">
        <ele>170</ele>
        <time>2026-01-13T09:01:39Z</time>
      </trkpt>
      <trkpt lat="48.66767" lon="1.92689">
        <ele>170.2</ele>
        <time>2026-01-13T09:01:40Z</time>
      </trkpt>
      <trkpt lat="48.66771" lon="1.92683">
        <ele>170.2</ele>
        <time>2026-01-13T09:01:41Z</time>
      </trkpt>
      <trkpt lat="48.66775" lon="1.92678">
        <ele>170.4</ele>
        <time>2026-01-13T09:01:42Z</time>
      </trkpt>
      <trkpt lat="48.6678" lon="1.92672">
        <ele>170.4</ele>
        <time>2026-01-13T09:01:43Z</time>
      </trkpt>
      <trkpt lat="48.66784" lon="1.92665">
        <ele>170.4</ele>
        <time>2026-01-13T09:01:44Z</time>
      </trkpt>
      <trkpt lat="48.66788" lon="1.92659">
        <ele>170.4</ele>
        <time>2026-01-13T09:01:45Z</time>
      </trkpt>
      <trkpt lat="48.66792" lon="1.92654">
        <ele>170.4</ele>
        <time>2026-01-13T09:01:46Z</time>
      </trkpt>
      <trkpt lat="48.66796" lon="1.92648">
        <ele>170.4</ele>
        <time>2026-01-13T09:01:47Z</time>
      </trkpt>
      <trkpt lat="48.66801" lon="1.92642">
        <ele>170.4</ele>
        <time>2026-01-13T09:01:48Z</time>
      </trkpt>
      <trkpt lat="48.66805" lon="1.92636">
        <ele>170.4</ele>
        <time>2026-01-13T09:01:49Z</time>
      </trkpt>
      <trkpt lat="48.66809" lon="1.92631">
        <ele>171.2</ele>
        <time>2026-01-13T09:01:50Z</time>
      </trkpt>
      <trkpt lat="48.66813" lon="1.92625">
        <ele>171.2</ele>
        <time>2026-01-13T09:01:51Z</time>
      </trkpt>
      <trkpt lat="48.66817" lon="1.92619">
        <ele>171.2</ele>
        <time>2026-01-13T09:01:52Z</time>
      </trkpt>
      <trkpt lat="48.66822" lon="1.92612">
        <ele>171.2</ele>
        <time>2026-01-13T09:01:53Z</time>
      </trkpt>
      <trkpt lat="48.66826" lon="1.92606">
        <ele>171.2</ele>
        <time>2026-01-13T09:01:54Z</time>
      </trkpt>
      <trkpt lat="48.66831" lon="1.926">
        <ele>171.2</ele>
        <time>2026-01-13T09:01:55Z</time>
      </trkpt>
      <trkpt lat="48.66835" lon="1.92594">
        <ele>171.2</ele>
        <time>2026-01-13T09:01:56Z</time>
      </trkpt>
      <trkpt lat="48.66839" lon="1.92587">
        <ele>171.2</ele>
        <time>2026-01-13T09:01:57Z</time>
      </trkpt>
      <trkpt lat="48.66844" lon="1.92581">
        <ele>171.2</ele>
        <time>2026-01-13T09:01:58Z</time>
      </trkpt>
      <trkpt lat="48.66848" lon="1.92574">
        <ele>171.2</ele>
        <time>2026-01-13T09:01:59Z</time>
      </trkpt>
      <trkpt lat="48.66852" lon="1.92567">
        <ele>171.2</ele>
        <time>2026-01-13T09:02:00Z</time>
      </trkpt>
      <trkpt lat="48.66857" lon="1.92561">
        <ele>171</ele>
        <time>2026-01-13T09:02:01Z</time>
      </trkpt>
      <trkpt lat="48.66861" lon="1.92554">
        <ele>170.6</ele>
        <time>2026-01-13T09:02:02Z</time>
      </trkpt>
      <trkpt lat="48.66865" lon="1.92547">
        <ele>170.6</ele>
        <time>2026-01-13T09:02:03Z</time>
      </trkpt>
      <trkpt lat="48.66869" lon="1.9254">
        <ele>170.6</ele>
        <time>2026-01-13T09:02:04Z</time>
      </trkpt>
      <trkpt lat="48.66873" lon="1.92533">
        <ele>171</ele>
        <time>2026-01-13T09:02:05Z</time>
      </trkpt>
      <trkpt lat="48.66877" lon="1.92525">
        <ele>171.2</ele>
        <time>2026-01-13T09:02:06Z</time>
      </trkpt>
      <trkpt lat="48.6688" lon="1.92518">
        <ele>171.2</ele>
        <time>2026-01-13T09:02:07Z</time>
      </trkpt>
      <trkpt lat="48.66884" lon="1.9251">
        <ele>171.2</ele>
        <time>2026-01-13T09:02:08Z</time>
      </trkpt>
      <trkpt lat="48.66888" lon="1.92502">
        <ele>170.2</ele>
        <time>2026-01-13T09:02:09Z</time>
      </trkpt>
      <trkpt lat="48.66891" lon="1.92494">
        <ele>170.2</ele>
        <time>2026-01-13T09:02:10Z</time>
      </trkpt>
      <trkpt lat="48.66894" lon="1.92485">
        <ele>170.2</ele>
        <time>2026-01-13T09:02:11Z</time>
      </trkpt>
      <trkpt lat="48.66897" lon="1.92477">
        <ele>170.6</ele>
        <time>2026-01-13T09:02:12Z</time>
      </trkpt>
      <trkpt lat="48.66901" lon="1.92469">
        <ele>170.6</ele>
        <time>2026-01-13T09:02:13Z</time>
      </trkpt>
      <trkpt lat="48.66904" lon="1.9246">
        <ele>170.6</ele>
        <time>2026-01-13T09:02:14Z</time>
      </trkpt>
      <trkpt lat="48.66907" lon="1.92452">
        <ele>170.6</ele>
        <time>2026-01-13T09:02:15Z</time>
      </trkpt>
      <trkpt lat="48.66911" lon="1.92444">
        <ele>170.6</ele>
        <time>2026-01-13T09:02:16Z</time>
      </trkpt>
      <trkpt lat="48.66914" lon="1.92436">
        <ele>170.6</ele>
        <time>2026-01-13T09:02:17Z</time>
      </trkpt>
      <trkpt lat="48.66917" lon="1.92427">
        <ele>170.6</ele>
        <time>2026-01-13T09:02:18Z</time>
      </trkpt>
      <trkpt lat="48.66921" lon="1.92419">
        <ele>170.6</ele>
        <time>2026-01-13T09:02:19Z</time>
      </trkpt>
      <trkpt lat="48.66924" lon="1.92411">
        <ele>170.4</ele>
        <time>2026-01-13T09:02:20Z</time>
      </trkpt>
      <trkpt lat="48.66927" lon="1.92403">
        <ele>170.4</ele>
        <time>2026-01-13T09:02:21Z</time>
      </trkpt>
      <trkpt lat="48.6693" lon="1.92395">
        <ele>170.4</ele>
        <time>2026-01-13T09:02:22Z</time>
      </trkpt>
      <trkpt lat="48.66934" lon="1.92388">
        <ele>171.2</ele>
        <time>2026-01-13T09:02:23Z</time>
      </trkpt>
      <trkpt lat="48.66936" lon="1.92379">
        <ele>171.6</ele>
        <time>2026-01-13T09:02:24Z</time>
      </trkpt>
      <trkpt lat="48.6694" lon="1.92371">
        <ele>171.6</ele>
        <time>2026-01-13T09:02:25Z</time>
      </trkpt>
      <trkpt lat="48.66943" lon="1.92363">
        <ele>171.6</ele>
        <time>2026-01-13T09:02:26Z</time>
      </trkpt>
      <trkpt lat="48.66946" lon="1.92354">
        <ele>171.6</ele>
        <time>2026-01-13T09:02:27Z</time>
      </trkpt>
      <trkpt lat="48.66949" lon="1.92346">
        <ele>171</ele>
        <time>2026-01-13T09:02:28Z</time>
      </trkpt>
      <trkpt lat="48.66952" lon="1.92337">
        <ele>171</ele>
        <time>2026-01-13T09:02:29Z</time>
      </trkpt>
      <trkpt lat="48.66955" lon="1.92329">
        <ele>171</ele>
        <time>2026-01-13T09:02:30Z</time>
      </trkpt>
      <trkpt lat="48.66958" lon="1.9232">
        <ele>171.4</ele>
        <time>2026-01-13T09:02:31Z</time>
      </trkpt>
      <trkpt lat="48.66961" lon="1.92311">
        <ele>171.6</ele>
        <time>2026-01-13T09:02:32Z</time>
      </trkpt>
      <trkpt lat="48.66964" lon="1.92303">
        <ele>171.6</ele>
        <time>2026-01-13T09:02:33Z</time>
      </trkpt>
      <trkpt lat="48.66966" lon="1.92294">
        <ele>171.6</ele>
        <time>2026-01-13T09:02:34Z</time>
      </trkpt>
      <trkpt lat="48.66969" lon="1.92285">
        <ele>171.2</ele>
        <time>2026-01-13T09:02:35Z</time>
      </trkpt>
      <trkpt lat="48.66971" lon="1.92276">
        <ele>171</ele>
        <time>2026-01-13T09:02:36Z</time>
      </trkpt>
      <trkpt lat="48.66974" lon="1.92267">
        <ele>171</ele>
        <time>2026-01-13T09:02:37Z</time>
      </trkpt>
      <trkpt lat="48.66976" lon="1.92258">
        <ele>171</ele>
        <time>2026-01-13T09:02:38Z</time>
      </trkpt>
      <trkpt lat="48.66978" lon="1.92249">
        <ele>171</ele>
        <time>2026-01-13T09:02:39Z</time>
      </trkpt>
      <trkpt lat="48.6698" lon="1.9224">
        <ele>171</ele>
        <time>2026-01-13T09:02:40Z</time>
      </trkpt>
      <trkpt lat="48.66982" lon="1.92231">
        <ele>171</ele>
        <time>2026-01-13T09:02:41Z</time>
      </trkpt>
      <trkpt lat="48.66984" lon="1.92222">
        <ele>171</ele>
        <time>2026-01-13T09:02:42Z</time>
      </trkpt>
      <trkpt lat="48.66987" lon="1.92213">
        <ele>171</ele>
        <time>2026-01-13T09:02:43Z</time>
      </trkpt>
      <trkpt lat="48.6699" lon="1.92204">
        <ele>170.8</ele>
        <time>2026-01-13T09:02:44Z</time>
      </trkpt>
      <trkpt lat="48.66993" lon="1.92195">
        <ele>170.8</ele>
        <time>2026-01-13T09:02:45Z</time>
      </trkpt>
      <trkpt lat="48.66996" lon="1.92187">
        <ele>170.8</ele>
        <time>2026-01-13T09:02:46Z</time>
      </trkpt>
      <trkpt lat="48.66999" lon="1.92178">
        <ele>171</ele>
        <time>2026-01-13T09:02:47Z</time>
      </trkpt>
      <trkpt lat="48.67002" lon="1.9217">
        <ele>171</ele>
        <time>2026-01-13T09:02:48Z</time>
      </trkpt>
      <trkpt lat="48.67005" lon="1.92161">
        <ele>171</ele>
        <time>2026-01-13T09:02:49Z</time>
      </trkpt>
      <trkpt lat="48.67008" lon="1.92152">
        <ele>171</ele>
        <time>2026-01-13T09:02:50Z</time>
      </trkpt>
      <trkpt lat="48.67011" lon="1.92143">
        <ele>171</ele>
        <time>2026-01-13T09:02:51Z</time>
      </trkpt>
      <trkpt lat="48.67014" lon="1.92135">
        <ele>171</ele>
        <time>2026-01-13T09:02:52Z</time>
      </trkpt>
      <trkpt lat="48.67018" lon="1.92126">
        <ele>170.4</ele>
        <time>2026-01-13T09:02:53Z</time>
      </trkpt>
      <trkpt lat="48.67021" lon="1.92119">
        <ele>170.4</ele>
        <time>2026-01-13T09:02:54Z</time>
      </trkpt>
      <trkpt lat="48.67025" lon="1.92111">
        <ele>170.4</ele>
        <time>2026-01-13T09:02:55Z</time>
      </trkpt>
      <trkpt lat="48.67028" lon="1.92104">
        <ele>171.2</ele>
        <time>2026-01-13T09:02:56Z</time>
      </trkpt>
      <trkpt lat="48.67031" lon="1.92096">
        <ele>171.2</ele>
        <time>2026-01-13T09:02:57Z</time>
      </trkpt>
      <trkpt lat="48.67034" lon="1.92088">
        <ele>171.2</ele>
        <time>2026-01-13T09:02:58Z</time>
      </trkpt>
      <trkpt lat="48.67038" lon="1.9208">
        <ele>171.2</ele>
        <time>2026-01-13T09:02:59Z</time>
      </trkpt>
      <trkpt lat="48.67041" lon="1.92072">
        <ele>172</ele>
        <time>2026-01-13T09:03:00Z</time>
      </trkpt>
      <trkpt lat="48.67044" lon="1.92065">
        <ele>172.4</ele>
        <time>2026-01-13T09:03:01Z</time>
      </trkpt>
      <trkpt lat="48.67047" lon="1.92057">
        <ele>172.4</ele>
        <time>2026-01-13T09:03:02Z</time>
      </trkpt>
      <trkpt lat="48.67051" lon="1.92049">
        <ele>172.4</ele>
        <time>2026-01-13T09:03:03Z</time>
      </trkpt>
      <trkpt lat="48.67054" lon="1.92041">
        <ele>172</ele>
        <time>2026-01-13T09:03:04Z</time>
      </trkpt>
      <trkpt lat="48.67058" lon="1.92033">
        <ele>172</ele>
        <time>2026-01-13T09:03:05Z</time>
      </trkpt>
      <trkpt lat="48.67061" lon="1.92025">
        <ele>171.8</ele>
        <time>2026-01-13T09:03:06Z</time>
      </trkpt>
      <trkpt lat="48.67065" lon="1.92017">
        <ele>171.8</ele>
        <time>2026-01-13T09:03:07Z</time>
      </trkpt>
      <trkpt lat="48.67068" lon="1.92009">
        <ele>171.8</ele>
        <time>2026-01-13T09:03:08Z</time>
      </trkpt>
      <trkpt lat="48.67072" lon="1.92001">
        <ele>171.8</ele>
        <time>2026-01-13T09:03:09Z</time>
      </trkpt>
      <trkpt lat="48.67076" lon="1.91993">
        <ele>172</ele>
        <time>2026-01-13T09:03:10Z</time>
      </trkpt>
      <trkpt lat="48.67079" lon="1.91985">
        <ele>172.2</ele>
        <time>2026-01-13T09:03:11Z</time>
      </trkpt>
      <trkpt lat="48.67083" lon="1.91977">
        <ele>172.4</ele>
        <time>2026-01-13T09:03:12Z</time>
      </trkpt>
      <trkpt lat="48.67087" lon="1.91969">
        <ele>172.4</ele>
        <time>2026-01-13T09:03:13Z</time>
      </trkpt>
      <trkpt lat="48.6709" lon="1.91961">
        <ele>172.4</ele>
        <time>2026-01-13T09:03:14Z</time>
      </trkpt>
      <trkpt lat="48.67094" lon="1.91953">
        <ele>172.4</ele>
        <time>2026-01-13T09:03:15Z</time>
      </trkpt>
      <trkpt lat="48.67097" lon="1.91945">
        <ele>172.4</ele>
        <time>2026-01-13T09:03:16Z</time>
      </trkpt>
      <trkpt lat="48.67101" lon="1.91937">
        <ele>172.4</ele>
        <time>2026-01-13T09:03:17Z</time>
      </trkpt>
      <trkpt lat="48.67105" lon="1.91929">
        <ele>172</ele>
        <time>2026-01-13T09:03:18Z</time>
      </trkpt>
      <trkpt lat="48.67109" lon="1.91921">
        <ele>172</ele>
        <time>2026-01-13T09:03:19Z</time>
      </trkpt>
      <trkpt lat="48.67113" lon="1.91913">
        <ele>172</ele>
        <time>2026-01-13T09:03:20Z</time>
      </trkpt>
      <trkpt lat="48.67116" lon="1.91905">
        <ele>172</ele>
        <time>2026-01-13T09:03:21Z</time>
      </trkpt>
      <trkpt lat="48.6712" lon="1.91897">
        <ele>172</ele>
        <time>2026-01-13T09:03:22Z</time>
      </trkpt>
      <trkpt lat="48.67124" lon="1.9189">
        <ele>172</ele>
        <time>2026-01-13T09:03:23Z</time>
      </trkpt>
      <trkpt lat="48.67128" lon="1.91882">
        <ele>171.8</ele>
        <time>2026-01-13T09:03:24Z</time>
      </trkpt>
      <trkpt lat="48.67131" lon="1.91874">
        <ele>171.6</ele>
        <time>2026-01-13T09:03:25Z</time>
      </trkpt>
      <trkpt lat="48.67135" lon="1.91866">
        <ele>171.6</ele>
        <time>2026-01-13T09:03:26Z</time>
      </trkpt>
      <trkpt lat="48.67139" lon="1.91859">
        <ele>171.6</ele>
        <time>2026-01-13T09:03:27Z</time>
      </trkpt>
      <trkpt lat="48.67143" lon="1.91851">
        <ele>171.6</ele>
        <time>2026-01-13T09:03:28Z</time>
      </trkpt>
      <trkpt lat="48.67147" lon="1.91844">
        <ele>172.2</ele>
        <time>2026-01-13T09:03:29Z</time>
      </trkpt>
      <trkpt lat="48.67151" lon="1.91836">
        <ele>172.2</ele>
        <time>2026-01-13T09:03:30Z</time>
      </trkpt>
      <trkpt lat="48.67155" lon="1.91829">
        <ele>172.2</ele>
        <time>2026-01-13T09:03:31Z</time>
      </trkpt>
      <trkpt lat="48.67159" lon="1.91822">
        <ele>171.6</ele>
        <time>2026-01-13T09:03:32Z</time>
      </trkpt>
      <trkpt lat="48.67164" lon="1.91815">
        <ele>171.6</ele>
        <time>2026-01-13T09:03:33Z</time>
      </trkpt>
      <trkpt lat="48.67168" lon="1.91808">
        <ele>171.6</ele>
        <time>2026-01-13T09:03:34Z</time>
      </trkpt>
      <trkpt lat="48.67173" lon="1.91801">
        <ele>171.6</ele>
        <time>2026-01-13T09:03:35Z</time>
      </trkpt>
      <trkpt lat="48.67178" lon="1.91795">
        <ele>171.6</ele>
        <time>2026-01-13T09:03:36Z</time>
      </trkpt>
      <trkpt lat="48.67182" lon="1.91789">
        <ele>171.6</ele>
        <time>2026-01-13T09:03:37Z</time>
      </trkpt>
      <trkpt lat="48.67187" lon="1.91782">
        <ele>171.6</ele>
        <time>2026-01-13T09:03:38Z</time>
      </trkpt>
      <trkpt lat="48.67192" lon="1.91776">
        <ele>172.6</ele>
        <time>2026-01-13T09:03:39Z</time>
      </trkpt>
      <trkpt lat="48.67197" lon="1.9177">
        <ele>172.6</ele>
        <time>2026-01-13T09:03:40Z</time>
      </trkpt>
      <trkpt lat="48.67202" lon="1.91763">
        <ele>172.6</ele>
        <time>2026-01-13T09:03:41Z</time>
      </trkpt>
      <trkpt lat="48.67206" lon="1.91757">
        <ele>172.2</ele>
        <time>2026-01-13T09:03:42Z</time>
      </trkpt>
      <trkpt lat="48.67211" lon="1.91751">
        <ele>172</ele>
        <time>2026-01-13T09:03:43Z</time>
      </trkpt>
      <trkpt lat="48.67216" lon="1.91744">
        <ele>172</ele>
        <time>2026-01-13T09:03:44Z</time>
      </trkpt>
      <trkpt lat="48.67221" lon="1.91738">
        <ele>172</ele>
        <time>2026-01-13T09:03:45Z</time>
      </trkpt>
      <trkpt lat="48.67226" lon="1.91732">
        <ele>172</ele>
        <time>2026-01-13T09:03:46Z</time>
      </trkpt>
      <trkpt lat="48.67231" lon="1.91726">
        <ele>172.2</ele>
        <time>2026-01-13T09:03:47Z</time>
      </trkpt>
      <trkpt lat="48.67235" lon="1.9172">
        <ele>172.2</ele>
        <time>2026-01-13T09:03:48Z</time>
      </trkpt>
      <trkpt lat="48.6724" lon="1.91714">
        <ele>172.2</ele>
        <time>2026-01-13T09:03:49Z</time>
      </trkpt>
      <trkpt lat="48.67245" lon="1.91708">
        <ele>171.8</ele>
        <time>2026-01-13T09:03:50Z</time>
      </trkpt>
      <trkpt lat="48.6725" lon="1.91702">
        <ele>171.8</ele>
        <time>2026-01-13T09:03:51Z</time>
      </trkpt>
      <trkpt lat="48.67255" lon="1.91696">
        <ele>171.8</ele>
        <time>2026-01-13T09:03:52Z</time>
      </trkpt>
      <trkpt lat="48.6726" lon="1.9169">
        <ele>171.8</ele>
        <time>2026-01-13T09:03:53Z</time>
      </trkpt>
      <trkpt lat="48.67265" lon="1.91684">
        <ele>171.8</ele>
        <time>2026-01-13T09:03:54Z</time>
      </trkpt>
      <trkpt lat="48.6727" lon="1.91678">
        <ele>171.8</ele>
        <time>2026-01-13T09:03:55Z</time>
      </trkpt>
      <trkpt lat="48.67275" lon="1.91671">
        <ele>171.8</ele>
        <time>2026-01-13T09:03:56Z</time>
      </trkpt>
      <trkpt lat="48.6728" lon="1.91665">
        <ele>171.8</ele>
        <time>2026-01-13T09:03:57Z</time>
      </trkpt>
      <trkpt lat="48.67285" lon="1.91658">
        <ele>171.8</ele>
        <time>2026-01-13T09:03:58Z</time>
      </trkpt>
      <trkpt lat="48.6729" lon="1.91652">
        <ele>172.6</ele>
        <time>2026-01-13T09:03:59Z</time>
      </trkpt>
      <trkpt lat="48.67294" lon="1.91645">
        <ele>172.6</ele>
        <time>2026-01-13T09:04:00Z</time>
      </trkpt>
      <trkpt lat="48.67299" lon="1.91638">
        <ele>172.6</ele>
        <time>2026-01-13T09:04:01Z</time>
      </trkpt>
      <trkpt lat="48.67304" lon="1.91631">
        <ele>172.6</ele>
        <time>2026-01-13T09:04:02Z</time>
      </trkpt>
      <trkpt lat="48.67309" lon="1.91624">
        <ele>172.6</ele>
        <time>2026-01-13T09:04:03Z</time>
      </trkpt>
      <trkpt lat="48.67313" lon="1.91617">
        <ele>172.6</ele>
        <time>2026-01-13T09:04:04Z</time>
      </trkpt>
      <trkpt lat="48.67318" lon="1.91611">
        <ele>173</ele>
        <time>2026-01-13T09:04:05Z</time>
      </trkpt>
      <trkpt lat="48.67323" lon="1.91604">
        <ele>173</ele>
        <time>2026-01-13T09:04:06Z</time>
      </trkpt>
      <trkpt lat="48.67329" lon="1.91597">
        <ele>173</ele>
        <time>2026-01-13T09:04:07Z</time>
      </trkpt>
      <trkpt lat="48.67334" lon="1.9159">
        <ele>173</ele>
        <time>2026-01-13T09:04:08Z</time>
      </trkpt>
      <trkpt lat="48.67339" lon="1.91584">
        <ele>172.4</ele>
        <time>2026-01-13T09:04:09Z</time>
      </trkpt>
      <trkpt lat="48.67345" lon="1.91578">
        <ele>172.2</ele>
        <time>2026-01-13T09:04:10Z</time>
      </trkpt>
      <trkpt lat="48.67351" lon="1.91572">
        <ele>172.2</ele>
        <time>2026-01-13T09:04:11Z</time>
      </trkpt>
      <trkpt lat="48.67356" lon="1.91566">
        <ele>172.2</ele>
        <time>2026-01-13T09:04:12Z</time>
      </trkpt>
      <trkpt lat="48.67362" lon="1.9156">
        <ele>172.8</ele>
        <time>2026-01-13T09:04:13Z</time>
      </trkpt>
      <trkpt lat="48.67368" lon="1.91554">
        <ele>172.8</ele>
        <time>2026-01-13T09:04:14Z</time>
      </trkpt>
      <trkpt lat="48.67373" lon="1.91548">
        <ele>172.8</ele>
        <time>2026-01-13T09:04:15Z</time>
      </trkpt>
      <trkpt lat="48.67379" lon="1.91542">
        <ele>172.8</ele>
        <time>2026-01-13T09:04:16Z</time>
      </trkpt>
      <trkpt lat="48.67385" lon="1.91536">
        <ele>172.6</ele>
        <time>2026-01-13T09:04:17Z</time>
      </trkpt>
      <trkpt lat="48.67391" lon="1.91531">
        <ele>172.6</ele>
        <time>2026-01-13T09:04:18Z</time>
      </trkpt>
      <trkpt lat="48.67398" lon="1.91525">
        <ele>172.4</ele>
        <time>2026-01-13T09:04:19Z</time>
      </trkpt>
      <trkpt lat="48.67404" lon="1.91521">
        <ele>172.4</ele>
        <time>2026-01-13T09:04:20Z</time>
      </trkpt>
      <trkpt lat="48.67411" lon="1.91517">
        <ele>172.4</ele>
        <time>2026-01-13T09:04:21Z</time>
      </trkpt>
      <trkpt lat="48.67418" lon="1.91515">
        <ele>172.4</ele>
        <time>2026-01-13T09:04:22Z</time>
      </trkpt>
      <trkpt lat="48.67425" lon="1.91515">
        <ele>173</ele>
        <time>2026-01-13T09:04:23Z</time>
      </trkpt>
      <trkpt lat="48.67432" lon="1.91517">
        <ele>173</ele>
        <time>2026-01-13T09:04:24Z</time>
      </trkpt>
      <trkpt lat="48.67439" lon="1.9152">
        <ele>173</ele>
        <time>2026-01-13T09:04:25Z</time>
      </trkpt>
      <trkpt lat="48.67445" lon="1.91523">
        <ele>172.8</ele>
        <time>2026-01-13T09:04:26Z</time>
      </trkpt>
      <trkpt lat="48.67452" lon="1.91526">
        <ele>172.6</ele>
        <time>2026-01-13T09:04:27Z</time>
      </trkpt>
      <trkpt lat="48.67459" lon="1.9153">
        <ele>172.6</ele>
        <time>2026-01-13T09:04:28Z</time>
      </trkpt>
      <trkpt lat="48.67465" lon="1.91533">
        <ele>172.6</ele>
        <time>2026-01-13T09:04:29Z</time>
      </trkpt>
      <trkpt lat="48.67472" lon="1.91536">
        <ele>172.8</ele>
        <time>2026-01-13T09:04:30Z</time>
      </trkpt>
      <trkpt lat="48.67479" lon="1.91539">
        <ele>173.2</ele>
        <time>2026-01-13T09:04:31Z</time>
      </trkpt>
      <trkpt lat="48.67485" lon="1.91542">
        <ele>173.2</ele>
        <time>2026-01-13T09:04:32Z</time>
      </trkpt>
      <trkpt lat="48.67492" lon="1.91545">
        <ele>173.2</ele>
        <time>2026-01-13T09:04:33Z</time>
      </trkpt>
      <trkpt lat="48.67498" lon="1.91547">
        <ele>173.2</ele>
        <time>2026-01-13T09:04:34Z</time>
      </trkpt>
      <trkpt lat="48.67505" lon="1.9155">
        <ele>173.2</ele>
        <time>2026-01-13T09:04:35Z</time>
      </trkpt>
      <trkpt lat="48.67512" lon="1.91553">
        <ele>173.2</ele>
        <time>2026-01-13T09:04:36Z</time>
      </trkpt>
      <trkpt lat="48.67519" lon="1.91556">
        <ele>173</ele>
        <time>2026-01-13T09:04:37Z</time>
      </trkpt>
      <trkpt lat="48.67525" lon="1.91559">
        <ele>173</ele>
        <time>2026-01-13T09:04:38Z</time>
      </trkpt>
      <trkpt lat="48.67532" lon="1.91561">
        <ele>173</ele>
        <time>2026-01-13T09:04:39Z</time>
      </trkpt>
      <trkpt lat="48.67538" lon="1.91564">
        <ele>173.6</ele>
        <time>2026-01-13T09:04:40Z</time>
      </trkpt>
      <trkpt lat="48.67545" lon="1.91567">
        <ele>174</ele>
        <time>2026-01-13T09:04:41Z</time>
      </trkpt>
      <trkpt lat="48.67552" lon="1.9157">
        <ele>174</ele>
        <time>2026-01-13T09:04:42Z</time>
      </trkpt>
      <trkpt lat="48.67559" lon="1.91573">
        <ele>174</ele>
        <time>2026-01-13T09:04:43Z</time>
      </trkpt>
      <trkpt lat="48.67566" lon="1.91575">
        <ele>173.4</ele>
        <time>2026-01-13T09:04:44Z</time>
      </trkpt>
      <trkpt lat="48.67572" lon="1.91578">
        <ele>172.8</ele>
        <time>2026-01-13T09:04:45Z</time>
      </trkpt>
      <trkpt lat="48.67579" lon="1.91581">
        <ele>172.6</ele>
        <time>2026-01-13T09:04:46Z</time>
      </trkpt>
      <trkpt lat="48.67586" lon="1.91584">
        <ele>172.6</ele>
        <time>2026-01-13T09:04:47Z</time>
      </trkpt>
      <trkpt lat="48.67592" lon="1.91587">
        <ele>172.6</ele>
        <time>2026-01-13T09:04:48Z</time>
      </trkpt>
      <trkpt lat="48.67599" lon="1.9159">
        <ele>173.2</ele>
        <time>2026-01-13T09:04:49Z</time>
      </trkpt>
      <trkpt lat="48.67606" lon="1.91593">
        <ele>173.2</ele>
        <time>2026-01-13T09:04:50Z</time>
      </trkpt>
      <trkpt lat="48.67612" lon="1.91595">
        <ele>173.2</ele>
        <time>2026-01-13T09:04:51Z</time>
      </trkpt>
      <trkpt lat="48.67619" lon="1.91599">
        <ele>173.2</ele>
        <time>2026-01-13T09:04:52Z</time>
      </trkpt>
      <trkpt lat="48.67625" lon="1.91601">
        <ele>172.8</ele>
        <time>2026-01-13T09:04:53Z</time>
      </trkpt>
      <trkpt lat="48.67632" lon="1.91603">
        <ele>172.8</ele>
        <time>2026-01-13T09:04:54Z</time>
      </trkpt>
      <trkpt lat="48.67639" lon="1.91604">
        <ele>172.8</ele>
        <time>2026-01-13T09:04:55Z</time>
      </trkpt>
      <trkpt lat="48.67645" lon="1.91601">
        <ele>172.8</ele>
        <time>2026-01-13T09:04:56Z</time>
      </trkpt>
      <trkpt lat="48.6765" lon="1.91596">
        <ele>172.8</ele>
        <time>2026-01-13T09:04:57Z</time>
      </trkpt>
      <trkpt lat="48.67655" lon="1.91588">
        <ele>173.4</ele>
        <time>2026-01-13T09:04:58Z</time>
      </trkpt>
      <trkpt lat="48.67657" lon="1.91579">
        <ele>173.4</ele>
        <time>2026-01-13T09:04:59Z</time>
      </trkpt>
      <trkpt lat="48.67659" lon="1.91569">
        <ele>173.4</ele>
        <time>2026-01-13T09:05:00Z</time>
      </trkpt>
      <trkpt lat="48.67661" lon="1.91559">
        <ele>172.6</ele>
        <time>2026-01-13T09:05:01Z</time>
      </trkpt>
      <trkpt lat="48.67662" lon="1.91549">
        <ele>172.2</ele>
        <time>2026-01-13T09:05:02Z</time>
      </trkpt>
      <trkpt lat="48.67663" lon="1.91538">
        <ele>172.2</ele>
        <time>2026-01-13T09:05:03Z</time>
      </trkpt>
      <trkpt lat="48.67664" lon="1.91528">
        <ele>172.2</ele>
        <time>2026-01-13T09:05:04Z</time>
      </trkpt>
      <trkpt lat="48.67665" lon="1.91518">
        <ele>172.2</ele>
        <time>2026-01-13T09:05:05Z</time>
      </trkpt>
      <trkpt lat="48.67667" lon="1.91508">
        <ele>172.2</ele>
        <time>2026-01-13T09:05:06Z</time>
      </trkpt>
      <trkpt lat="48.67668" lon="1.91498">
        <ele>172.8</ele>
        <time>2026-01-13T09:05:07Z</time>
      </trkpt>
      <trkpt lat="48.6767" lon="1.91488">
        <ele>172.8</ele>
        <time>2026-01-13T09:05:08Z</time>
      </trkpt>
      <trkpt lat="48.67671" lon="1.91478">
        <ele>172.8</ele>
        <time>2026-01-13T09:05:09Z</time>
      </trkpt>
      <trkpt lat="48.67673" lon="1.91468">
        <ele>172.8</ele>
        <time>2026-01-13T09:05:10Z</time>
      </trkpt>
      <trkpt lat="48.67674" lon="1.91458">
        <ele>172.8</ele>
        <time>2026-01-13T09:05:11Z</time>
      </trkpt>
      <trkpt lat="48.67676" lon="1.91448">
        <ele>172.8</ele>
        <time>2026-01-13T09:05:12Z</time>
      </trkpt>
      <trkpt lat="48.67677" lon="1.91438">
        <ele>172.8</ele>
        <time>2026-01-13T09:05:13Z</time>
      </trkpt>
      <trkpt lat="48.67679" lon="1.91428">
        <ele>172.8</ele>
        <time>2026-01-13T09:05:14Z</time>
      </trkpt>
      <trkpt lat="48.6768" lon="1.91418">
        <ele>172.8</ele>
        <time>2026-01-13T09:05:15Z</time>
      </trkpt>
      <trkpt lat="48.67682" lon="1.91408">
        <ele>172.8</ele>
        <time>2026-01-13T09:05:16Z</time>
      </trkpt>
      <trkpt lat="48.67683" lon="1.91398">
        <ele>172.8</ele>
        <time>2026-01-13T09:05:17Z</time>
      </trkpt>
      <trkpt lat="48.67685" lon="1.91388">
        <ele>172.8</ele>
        <time>2026-01-13T09:05:18Z</time>
      </trkpt>
      <trkpt lat="48.67686" lon="1.91378">
        <ele>172.8</ele>
        <time>2026-01-13T09:05:19Z</time>
      </trkpt>
      <trkpt lat="48.67687" lon="1.91368">
        <ele>172.8</ele>
        <time>2026-01-13T09:05:20Z</time>
      </trkpt>
      <trkpt lat="48.67689" lon="1.91358">
        <ele>172.8</ele>
        <time>2026-01-13T09:05:21Z</time>
      </trkpt>
      <trkpt lat="48.6769" lon="1.91348">
        <ele>172.8</ele>
        <time>2026-01-13T09:05:22Z</time>
      </trkpt>
      <trkpt lat="48.67692" lon="1.91338">
        <ele>172.8</ele>
        <time>2026-01-13T09:05:23Z</time>
      </trkpt>
      <trkpt lat="48.67694" lon="1.91328">
        <ele>172.8</ele>
        <time>2026-01-13T09:05:24Z</time>
      </trkpt>
      <trkpt lat="48.67695" lon="1.91318">
        <ele>172.8</ele>
        <time>2026-01-13T09:05:25Z</time>
      </trkpt>
      <trkpt lat="48.67697" lon="1.91308">
        <ele>172.8</ele>
        <time>2026-01-13T09:05:26Z</time>
      </trkpt>
      <trkpt lat="48.67698" lon="1.91298">
        <ele>172.8</ele>
        <time>2026-01-13T09:05:27Z</time>
      </trkpt>
      <trkpt lat="48.677" lon="1.91288">
        <ele>172.8</ele>
        <time>2026-01-13T09:05:28Z</time>
      </trkpt>
      <trkpt lat="48.67701" lon="1.91278">
        <ele>172.8</ele>
        <time>2026-01-13T09:05:29Z</time>
      </trkpt>
      <trkpt lat="48.67702" lon="1.91267">
        <ele>172.4</ele>
        <time>2026-01-13T09:05:30Z</time>
      </trkpt>
      <trkpt lat="48.67703" lon="1.91257">
        <ele>172.4</ele>
        <time>2026-01-13T09:05:31Z</time>
      </trkpt>
      <trkpt lat="48.67704" lon="1.91247">
        <ele>172.4</ele>
        <time>2026-01-13T09:05:32Z</time>
      </trkpt>
      <trkpt lat="48.67703" lon="1.91236">
        <ele>173</ele>
        <time>2026-01-13T09:05:33Z</time>
      </trkpt>
      <trkpt lat="48.67702" lon="1.91226">
        <ele>173</ele>
        <time>2026-01-13T09:05:34Z</time>
      </trkpt>
      <trkpt lat="48.67701" lon="1.91215">
        <ele>173</ele>
        <time>2026-01-13T09:05:35Z</time>
      </trkpt>
      <trkpt lat="48.677" lon="1.91205">
        <ele>172.2</ele>
        <time>2026-01-13T09:05:36Z</time>
      </trkpt>
      <trkpt lat="48.677" lon="1.91194">
        <ele>172.2</ele>
        <time>2026-01-13T09:05:37Z</time>
      </trkpt>
      <trkpt lat="48.67701" lon="1.91183">
        <ele>172.2</ele>
        <time>2026-01-13T09:05:38Z</time>
      </trkpt>
      <trkpt lat="48.67701" lon="1.91173">
        <ele>172.2</ele>
        <time>2026-01-13T09:05:39Z</time>
      </trkpt>
      <trkpt lat="48.677" lon="1.91162">
        <ele>172.2</ele>
        <time>2026-01-13T09:05:40Z</time>
      </trkpt>
      <trkpt lat="48.677" lon="1.91152">
        <ele>172.2</ele>
        <time>2026-01-13T09:05:41Z</time>
      </trkpt>
      <trkpt lat="48.67699" lon="1.91141">
        <ele>172.2</ele>
        <time>2026-01-13T09:05:42Z</time>
      </trkpt>
      <trkpt lat="48.67699" lon="1.9113">
        <ele>172.2</ele>
        <time>2026-01-13T09:05:43Z</time>
      </trkpt>
      <trkpt lat="48.67699" lon="1.9112">
        <ele>172.2</ele>
        <time>2026-01-13T09:05:44Z</time>
      </trkpt>
      <trkpt lat="48.67698" lon="1.91109">
        <ele>172.2</ele>
        <time>2026-01-13T09:05:45Z</time>
      </trkpt>
      <trkpt lat="48.67698" lon="1.91099">
        <ele>172.8</ele>
        <time>2026-01-13T09:05:46Z</time>
      </trkpt>
      <trkpt lat="48.67698" lon="1.91088">
        <ele>173</ele>
        <time>2026-01-13T09:05:47Z</time>
      </trkpt>
      <trkpt lat="48.67697" lon="1.91078">
        <ele>173</ele>
        <time>2026-01-13T09:05:48Z</time>
      </trkpt>
      <trkpt lat="48.67697" lon="1.91068">
        <ele>173</ele>
        <time>2026-01-13T09:05:49Z</time>
      </trkpt>
      <trkpt lat="48.67697" lon="1.91058">
        <ele>173</ele>
        <time>2026-01-13T09:05:50Z</time>
      </trkpt>
      <trkpt lat="48.67697" lon="1.91047">
        <ele>172</ele>
        <time>2026-01-13T09:05:51Z</time>
      </trkpt>
      <trkpt lat="48.67697" lon="1.91037">
        <ele>172</ele>
        <time>2026-01-13T09:05:52Z</time>
      </trkpt>
      <trkpt lat="48.67698" lon="1.91027">
        <ele>172</ele>
        <time>2026-01-13T09:05:53Z</time>
      </trkpt>
      <trkpt lat="48.67698" lon="1.91017">
        <ele>172.2</ele>
        <time>2026-01-13T09:05:54Z</time>
      </trkpt>
      <trkpt lat="48.67698" lon="1.91006">
        <ele>173</ele>
        <time>2026-01-13T09:05:55Z</time>
      </trkpt>
      <trkpt lat="48.67699" lon="1.90996">
        <ele>173</ele>
        <time>2026-01-13T09:05:56Z</time>
      </trkpt>
      <trkpt lat="48.67699" lon="1.90986">
        <ele>173</ele>
        <time>2026-01-13T09:05:57Z</time>
      </trkpt>
      <trkpt lat="48.677" lon="1.90975">
        <ele>173</ele>
        <time>2026-01-13T09:05:58Z</time>
      </trkpt>
      <trkpt lat="48.677" lon="1.90965">
        <ele>173</ele>
        <time>2026-01-13T09:05:59Z</time>
      </trkpt>
      <trkpt lat="48.67701" lon="1.90954">
        <ele>173</ele>
        <time>2026-01-13T09:06:00Z</time>
      </trkpt>
      <trkpt lat="48.67702" lon="1.90944">
        <ele>172.6</ele>
        <time>2026-01-13T09:06:01Z</time>
      </trkpt>
      <trkpt lat="48.67702" lon="1.90934">
        <ele>172.6</ele>
        <time>2026-01-13T09:06:02Z</time>
      </trkpt>
      <trkpt lat="48.67703" lon="1.90923">
        <ele>172.6</ele>
        <time>2026-01-13T09:06:03Z</time>
      </trkpt>
      <trkpt lat="48.67704" lon="1.90913">
        <ele>173.6</ele>
        <time>2026-01-13T09:06:04Z</time>
      </trkpt>
      <trkpt lat="48.67705" lon="1.90902">
        <ele>173.6</ele>
        <time>2026-01-13T09:06:05Z</time>
      </trkpt>
      <trkpt lat="48.67706" lon="1.90891">
        <ele>173.6</ele>
        <time>2026-01-13T09:06:06Z</time>
      </trkpt>
      <trkpt lat="48.67707" lon="1.90881">
        <ele>172.8</ele>
        <time>2026-01-13T09:06:07Z</time>
      </trkpt>
      <trkpt lat="48.67709" lon="1.9087">
        <ele>172.8</ele>
        <time>2026-01-13T09:06:08Z</time>
      </trkpt>
      <trkpt lat="48.6771" lon="1.9086">
        <ele>172.8</ele>
        <time>2026-01-13T09:06:09Z</time>
      </trkpt>
      <trkpt lat="48.67711" lon="1.90849">
        <ele>173</ele>
        <time>2026-01-13T09:06:10Z</time>
      </trkpt>
      <trkpt lat="48.67713" lon="1.90839">
        <ele>174</ele>
        <time>2026-01-13T09:06:11Z</time>
      </trkpt>
      <trkpt lat="48.67714" lon="1.90828">
        <ele>174.2</ele>
        <time>2026-01-13T09:06:12Z</time>
      </trkpt>
      <trkpt lat="48.67716" lon="1.90818">
        <ele>174.2</ele>
        <time>2026-01-13T09:06:13Z</time>
      </trkpt>
      <trkpt lat="48.67717" lon="1.90807">
        <ele>174.2</ele>
        <time>2026-01-13T09:06:14Z</time>
      </trkpt>
      <trkpt lat="48.67719" lon="1.90797">
        <ele>173.6</ele>
        <time>2026-01-13T09:06:15Z</time>
      </trkpt>
      <trkpt lat="48.67721" lon="1.90786">
        <ele>173.2</ele>
        <time>2026-01-13T09:06:16Z</time>
      </trkpt>
      <trkpt lat="48.67722" lon="1.90775">
        <ele>173</ele>
        <time>2026-01-13T09:06:17Z</time>
      </trkpt>
      <trkpt lat="48.67724" lon="1.90765">
        <ele>173</ele>
        <time>2026-01-13T09:06:18Z</time>
      </trkpt>
      <trkpt lat="48.67725" lon="1.90754">
        <ele>173</ele>
        <time>2026-01-13T09:06:19Z</time>
      </trkpt>
      <trkpt lat="48.67727" lon="1.90743">
        <ele>173</ele>
        <time>2026-01-13T09:06:20Z</time>
      </trkpt>
      <trkpt lat="48.67728" lon="1.90733">
        <ele>173</ele>
        <time>2026-01-13T09:06:21Z</time>
      </trkpt>
      <trkpt lat="48.67729" lon="1.90722">
        <ele>173</ele>
        <time>2026-01-13T09:06:22Z</time>
      </trkpt>
      <trkpt lat="48.6773" lon="1.90711">
        <ele>173</ele>
        <time>2026-01-13T09:06:23Z</time>
      </trkpt>
      <trkpt lat="48.67732" lon="1.90701">
        <ele>173</ele>
        <time>2026-01-13T09:06:24Z</time>
      </trkpt>
      <trkpt lat="48.67733" lon="1.9069">
        <ele>173</ele>
        <time>2026-01-13T09:06:25Z</time>
      </trkpt>
      <trkpt lat="48.67734" lon="1.90679">
        <ele>173</ele>
        <time>2026-01-13T09:06:26Z</time>
      </trkpt>
      <trkpt lat="48.67735" lon="1.90668">
        <ele>173</ele>
        <time>2026-01-13T09:06:27Z</time>
      </trkpt>
      <trkpt lat="48.67737" lon="1.90657">
        <ele>172.6</ele>
        <time>2026-01-13T09:06:28Z</time>
      </trkpt>
      <trkpt lat="48.67738" lon="1.90646">
        <ele>172.6</ele>
        <time>2026-01-13T09:06:29Z</time>
      </trkpt>
      <trkpt lat="48.67739" lon="1.90635">
        <ele>172.6</ele>
        <time>2026-01-13T09:06:30Z</time>
      </trkpt>
      <trkpt lat="48.67741" lon="1.90624">
        <ele>172.6</ele>
        <time>2026-01-13T09:06:31Z</time>
      </trkpt>
      <trkpt lat="48.67742" lon="1.90614">
        <ele>172.6</ele>
        <time>2026-01-13T09:06:32Z</time>
      </trkpt>
      <trkpt lat="48.67743" lon="1.90603">
        <ele>172.6</ele>
        <time>2026-01-13T09:06:33Z</time>
      </trkpt>
      <trkpt lat="48.67745" lon="1.90592">
        <ele>172.6</ele>
        <time>2026-01-13T09:06:34Z</time>
      </trkpt>
      <trkpt lat="48.67746" lon="1.90581">
        <ele>172.6</ele>
        <time>2026-01-13T09:06:35Z</time>
      </trkpt>
      <trkpt lat="48.67748" lon="1.9057">
        <ele>172.6</ele>
        <time>2026-01-13T09:06:36Z</time>
      </trkpt>
      <trkpt lat="48.67749" lon="1.9056">
        <ele>172.6</ele>
        <time>2026-01-13T09:06:37Z</time>
      </trkpt>
      <trkpt lat="48.6775" lon="1.90549">
        <ele>172.6</ele>
        <time>2026-01-13T09:06:38Z</time>
      </trkpt>
      <trkpt lat="48.67752" lon="1.90538">
        <ele>172.6</ele>
        <time>2026-01-13T09:06:39Z</time>
      </trkpt>
      <trkpt lat="48.67753" lon="1.90528">
        <ele>172.6</ele>
        <time>2026-01-13T09:06:40Z</time>
      </trkpt>
      <trkpt lat="48.67755" lon="1.90517">
        <ele>172.6</ele>
        <time>2026-01-13T09:06:41Z</time>
      </trkpt>
      <trkpt lat="48.67757" lon="1.90507">
        <ele>172.6</ele>
        <time>2026-01-13T09:06:42Z</time>
      </trkpt>
      <trkpt lat="48.67758" lon="1.90496">
        <ele>172.6</ele>
        <time>2026-01-13T09:06:43Z</time>
      </trkpt>
      <trkpt lat="48.6776" lon="1.90486">
        <ele>172.6</ele>
        <time>2026-01-13T09:06:44Z</time>
      </trkpt>
      <trkpt lat="48.67762" lon="1.90475">
        <ele>172.6</ele>
        <time>2026-01-13T09:06:45Z</time>
      </trkpt>
      <trkpt lat="48.67763" lon="1.90465">
        <ele>172.6</ele>
        <time>2026-01-13T09:06:46Z</time>
      </trkpt>
      <trkpt lat="48.67764" lon="1.90454">
        <ele>172.6</ele>
        <time>2026-01-13T09:06:47Z</time>
      </trkpt>
      <trkpt lat="48.67765" lon="1.90443">
        <ele>172.6</ele>
        <time>2026-01-13T09:06:48Z</time>
      </trkpt>
      <trkpt lat="48.67767" lon="1.90433">
        <ele>172.6</ele>
        <time>2026-01-13T09:06:49Z</time>
      </trkpt>
      <trkpt lat="48.67769" lon="1.90423">
        <ele>172.6</ele>
        <time>2026-01-13T09:06:50Z</time>
      </trkpt>
      <trkpt lat="48.67771" lon="1.90412">
        <ele>173</ele>
        <time>2026-01-13T09:06:51Z</time>
      </trkpt>
      <trkpt lat="48.67772" lon="1.90402">
        <ele>173</ele>
        <time>2026-01-13T09:06:52Z</time>
      </trkpt>
      <trkpt lat="48.67774" lon="1.90391">
        <ele>173</ele>
        <time>2026-01-13T09:06:53Z</time>
      </trkpt>
      <trkpt lat="48.67776" lon="1.90381">
        <ele>173</ele>
        <time>2026-01-13T09:06:54Z</time>
      </trkpt>
      <trkpt lat="48.67777" lon="1.9037">
        <ele>173</ele>
        <time>2026-01-13T09:06:55Z</time>
      </trkpt>
      <trkpt lat="48.67778" lon="1.9036">
        <ele>173</ele>
        <time>2026-01-13T09:06:56Z</time>
      </trkpt>
      <trkpt lat="48.6778" lon="1.90349">
        <ele>173</ele>
        <time>2026-01-13T09:06:57Z</time>
      </trkpt>
      <trkpt lat="48.67782" lon="1.90339">
        <ele>173</ele>
        <time>2026-01-13T09:06:58Z</time>
      </trkpt>
      <trkpt lat="48.67784" lon="1.90329">
        <ele>173</ele>
        <time>2026-01-13T09:06:59Z</time>
      </trkpt>
      <trkpt lat="48.67785" lon="1.90318">
        <ele>172.4</ele>
        <time>2026-01-13T09:07:00Z</time>
      </trkpt>
      <trkpt lat="48.67787" lon="1.90308">
        <ele>172.4</ele>
        <time>2026-01-13T09:07:01Z</time>
      </trkpt>
      <trkpt lat="48.67788" lon="1.90297">
        <ele>172.4</ele>
        <time>2026-01-13T09:07:02Z</time>
      </trkpt>
      <trkpt lat="48.6779" lon="1.90287">
        <ele>172.6</ele>
        <time>2026-01-13T09:07:03Z</time>
      </trkpt>
      <trkpt lat="48.67791" lon="1.90276">
        <ele>173</ele>
        <time>2026-01-13T09:07:04Z</time>
      </trkpt>
      <trkpt lat="48.67793" lon="1.90266">
        <ele>173</ele>
        <time>2026-01-13T09:07:05Z</time>
      </trkpt>
      <trkpt lat="48.67794" lon="1.90256">
        <ele>173</ele>
        <time>2026-01-13T09:07:06Z</time>
      </trkpt>
      <trkpt lat="48.67796" lon="1.90245">
        <ele>172</ele>
        <time>2026-01-13T09:07:07Z</time>
      </trkpt>
      <trkpt lat="48.67798" lon="1.90235">
        <ele>172</ele>
        <time>2026-01-13T09:07:08Z</time>
      </trkpt>
      <trkpt lat="48.67799" lon="1.90224">
        <ele>172</ele>
        <time>2026-01-13T09:07:09Z</time>
      </trkpt>
      <trkpt lat="48.67801" lon="1.90214">
        <ele>172.8</ele>
        <time>2026-01-13T09:07:10Z</time>
      </trkpt>
      <trkpt lat="48.67803" lon="1.90203">
        <ele>172.8</ele>
        <time>2026-01-13T09:07:11Z</time>
      </trkpt>
      <trkpt lat="48.67804" lon="1.90193">
        <ele>172.8</ele>
        <time>2026-01-13T09:07:12Z</time>
      </trkpt>
      <trkpt lat="48.67806" lon="1.90182">
        <ele>172.4</ele>
        <time>2026-01-13T09:07:13Z</time>
      </trkpt>
      <trkpt lat="48.67807" lon="1.90171">
        <ele>172.4</ele>
        <time>2026-01-13T09:07:14Z</time>
      </trkpt>
      <trkpt lat="48.67809" lon="1.90161">
        <ele>172.4</ele>
        <time>2026-01-13T09:07:15Z</time>
      </trkpt>
      <trkpt lat="48.67811" lon="1.9015">
        <ele>172.4</ele>
        <time>2026-01-13T09:07:16Z</time>
      </trkpt>
      <trkpt lat="48.67813" lon="1.9014">
        <ele>172.4</ele>
        <time>2026-01-13T09:07:17Z</time>
      </trkpt>
      <trkpt lat="48.67816" lon="1.90129">
        <ele>172.4</ele>
        <time>2026-01-13T09:07:18Z</time>
      </trkpt>
      <trkpt lat="48.6782" lon="1.90119">
        <ele>172.4</ele>
        <time>2026-01-13T09:07:19Z</time>
      </trkpt>
      <trkpt lat="48.67824" lon="1.9011">
        <ele>172.4</ele>
        <time>2026-01-13T09:07:20Z</time>
      </trkpt>
      <trkpt lat="48.67828" lon="1.90101">
        <ele>172.4</ele>
        <time>2026-01-13T09:07:21Z</time>
      </trkpt>
      <trkpt lat="48.67833" lon="1.90093">
        <ele>172.4</ele>
        <time>2026-01-13T09:07:22Z</time>
      </trkpt>
      <trkpt lat="48.67839" lon="1.90085">
        <ele>171.6</ele>
        <time>2026-01-13T09:07:23Z</time>
      </trkpt>
      <trkpt lat="48.67844" lon="1.90078">
        <ele>171.6</ele>
        <time>2026-01-13T09:07:24Z</time>
      </trkpt>
      <trkpt lat="48.6785" lon="1.90071">
        <ele>171.6</ele>
        <time>2026-01-13T09:07:25Z</time>
      </trkpt>
      <trkpt lat="48.67856" lon="1.90064">
        <ele>172.2</ele>
        <time>2026-01-13T09:07:26Z</time>
      </trkpt>
      <trkpt lat="48.67862" lon="1.90058">
        <ele>172.6</ele>
        <time>2026-01-13T09:07:27Z</time>
      </trkpt>
      <trkpt lat="48.67868" lon="1.90051">
        <ele>172.6</ele>
        <time>2026-01-13T09:07:28Z</time>
      </trkpt>
      <trkpt lat="48.67874" lon="1.90045">
        <ele>172.6</ele>
        <time>2026-01-13T09:07:29Z</time>
      </trkpt>
      <trkpt lat="48.6788" lon="1.90039">
        <ele>172.6</ele>
        <time>2026-01-13T09:07:30Z</time>
      </trkpt>
      <trkpt lat="48.67886" lon="1.90033">
        <ele>172.6</ele>
        <time>2026-01-13T09:07:31Z</time>
      </trkpt>
      <trkpt lat="48.67892" lon="1.90027">
        <ele>172.6</ele>
        <time>2026-01-13T09:07:32Z</time>
      </trkpt>
      <trkpt lat="48.67898" lon="1.90021">
        <ele>172.6</ele>
        <time>2026-01-13T09:07:33Z</time>
      </trkpt>
      <trkpt lat="48.67905" lon="1.90015">
        <ele>172.6</ele>
        <time>2026-01-13T09:07:34Z</time>
      </trkpt>
      <trkpt lat="48.67911" lon="1.90009">
        <ele>172.2</ele>
        <time>2026-01-13T09:07:35Z</time>
      </trkpt>
      <trkpt lat="48.67917" lon="1.90002">
        <ele>172</ele>
        <time>2026-01-13T09:07:36Z</time>
      </trkpt>
      <trkpt lat="48.67923" lon="1.89996">
        <ele>172</ele>
        <time>2026-01-13T09:07:37Z</time>
      </trkpt>
      <trkpt lat="48.67929" lon="1.8999">
        <ele>172</ele>
        <time>2026-01-13T09:07:38Z</time>
      </trkpt>
      <trkpt lat="48.67936" lon="1.89984">
        <ele>172</ele>
        <time>2026-01-13T09:07:39Z</time>
      </trkpt>
      <trkpt lat="48.67942" lon="1.89978">
        <ele>172</ele>
        <time>2026-01-13T09:07:40Z</time>
      </trkpt>
      <trkpt lat="48.67948" lon="1.89972">
        <ele>171.4</ele>
        <time>2026-01-13T09:07:41Z</time>
      </trkpt>
      <trkpt lat="48.67954" lon="1.89966">
        <ele>171.4</ele>
        <time>2026-01-13T09:07:42Z</time>
      </trkpt>
      <trkpt lat="48.6796" lon="1.89961">
        <ele>171.4</ele>
        <time>2026-01-13T09:07:43Z</time>
      </trkpt>
      <trkpt lat="48.67967" lon="1.89955">
        <ele>171.6</ele>
        <time>2026-01-13T09:07:44Z</time>
      </trkpt>
      <trkpt lat="48.67973" lon="1.89949">
        <ele>171.8</ele>
        <time>2026-01-13T09:07:45Z</time>
      </trkpt>
      <trkpt lat="48.67979" lon="1.89943">
        <ele>171.8</ele>
        <time>2026-01-13T09:07:46Z</time>
      </trkpt>
      <trkpt lat="48.67985" lon="1.89938">
        <ele>171.8</ele>
        <time>2026-01-13T09:07:47Z</time>
      </trkpt>
      <trkpt lat="48.67992" lon="1.89932">
        <ele>171.4</ele>
        <time>2026-01-13T09:07:48Z</time>
      </trkpt>
      <trkpt lat="48.67998" lon="1.89926">
        <ele>171.2</ele>
        <time>2026-01-13T09:07:49Z</time>
      </trkpt>
      <trkpt lat="48.68004" lon="1.89921">
        <ele>170.8</ele>
        <time>2026-01-13T09:07:50Z</time>
      </trkpt>
      <trkpt lat="48.68011" lon="1.89915">
        <ele>170.8</ele>
        <time>2026-01-13T09:07:51Z</time>
      </trkpt>
      <trkpt lat="48.68017" lon="1.89909">
        <ele>170.8</ele>
        <time>2026-01-13T09:07:52Z</time>
      </trkpt>
      <trkpt lat="48.68024" lon="1.89903">
        <ele>171</ele>
        <time>2026-01-13T09:07:53Z</time>
      </trkpt>
      <trkpt lat="48.6803" lon="1.89897">
        <ele>171</ele>
        <time>2026-01-13T09:07:54Z</time>
      </trkpt>
      <trkpt lat="48.68036" lon="1.8989">
        <ele>171</ele>
        <time>2026-01-13T09:07:55Z</time>
      </trkpt>
      <trkpt lat="48.68041" lon="1.89882">
        <ele>171</ele>
        <time>2026-01-13T09:07:56Z</time>
      </trkpt>
      <trkpt lat="48.68045" lon="1.89873">
        <ele>171</ele>
        <time>2026-01-13T09:07:57Z</time>
      </trkpt>
      <trkpt lat="48.68049" lon="1.89863">
        <ele>171</ele>
        <time>2026-01-13T09:07:58Z</time>
      </trkpt>
      <trkpt lat="48.68052" lon="1.89852">
        <ele>171</ele>
        <time>2026-01-13T09:07:59Z</time>
      </trkpt>
      <trkpt lat="48.68053" lon="1.89841">
        <ele>171</ele>
        <time>2026-01-13T09:08:00Z</time>
      </trkpt>
      <trkpt lat="48.68054" lon="1.8983">
        <ele>170</ele>
        <time>2026-01-13T09:08:01Z</time>
      </trkpt>
      <trkpt lat="48.68054" lon="1.89819">
        <ele>169.8</ele>
        <time>2026-01-13T09:08:02Z</time>
      </trkpt>
      <trkpt lat="48.68054" lon="1.89808">
        <ele>169.8</ele>
        <time>2026-01-13T09:08:03Z</time>
      </trkpt>
      <trkpt lat="48.68054" lon="1.89797">
        <ele>169.8</ele>
        <time>2026-01-13T09:08:04Z</time>
      </trkpt>
      <trkpt lat="48.68053" lon="1.89786">
        <ele>169.8</ele>
        <time>2026-01-13T09:08:05Z</time>
      </trkpt>
      <trkpt lat="48.68053" lon="1.89774">
        <ele>169.8</ele>
        <time>2026-01-13T09:08:06Z</time>
      </trkpt>
      <trkpt lat="48.68052" lon="1.89763">
        <ele>169.8</ele>
        <time>2026-01-13T09:08:07Z</time>
      </trkpt>
      <trkpt lat="48.68051" lon="1.89752">
        <ele>169.8</ele>
        <time>2026-01-13T09:08:08Z</time>
      </trkpt>
      <trkpt lat="48.68051" lon="1.8974">
        <ele>169.8</ele>
        <time>2026-01-13T09:08:09Z</time>
      </trkpt>
      <trkpt lat="48.6805" lon="1.89729">
        <ele>169.8</ele>
        <time>2026-01-13T09:08:10Z</time>
      </trkpt>
      <trkpt lat="48.6805" lon="1.89719">
        <ele>169.8</ele>
        <time>2026-01-13T09:08:11Z</time>
      </trkpt>
      <trkpt lat="48.68049" lon="1.89708">
        <ele>169.8</ele>
        <time>2026-01-13T09:08:12Z</time>
      </trkpt>
      <trkpt lat="48.68048" lon="1.89697">
        <ele>169.8</ele>
        <time>2026-01-13T09:08:13Z</time>
      </trkpt>
      <trkpt lat="48.68048" lon="1.89687">
        <ele>169.8</ele>
        <time>2026-01-13T09:08:14Z</time>
      </trkpt>
      <trkpt lat="48.68047" lon="1.89676">
        <ele>170.4</ele>
        <time>2026-01-13T09:08:15Z</time>
      </trkpt>
      <trkpt lat="48.68047" lon="1.89666">
        <ele>170.4</ele>
        <time>2026-01-13T09:08:16Z</time>
      </trkpt>
      <trkpt lat="48.68046" lon="1.89656">
        <ele>170.4</ele>
        <time>2026-01-13T09:08:17Z</time>
      </trkpt>
      <trkpt lat="48.68046" lon="1.89646">
        <ele>170.4</ele>
        <time>2026-01-13T09:08:18Z</time>
      </trkpt>
      <trkpt lat="48.68045" lon="1.89636">
        <ele>170.4</ele>
        <time>2026-01-13T09:08:19Z</time>
      </trkpt>
      <trkpt lat="48.68045" lon="1.89626">
        <ele>170.4</ele>
        <time>2026-01-13T09:08:20Z</time>
      </trkpt>
      <trkpt lat="48.68044" lon="1.89616">
        <ele>170.4</ele>
        <time>2026-01-13T09:08:21Z</time>
      </trkpt>
      <trkpt lat="48.68043" lon="1.89607">
        <ele>171</ele>
        <time>2026-01-13T09:08:22Z</time>
      </trkpt>
      <trkpt lat="48.68043" lon="1.89597">
        <ele>171.4</ele>
        <time>2026-01-13T09:08:23Z</time>
      </trkpt>
      <trkpt lat="48.68043" lon="1.89587">
        <ele>171.6</ele>
        <time>2026-01-13T09:08:24Z</time>
      </trkpt>
      <trkpt lat="48.68042" lon="1.89577">
        <ele>171.6</ele>
        <time>2026-01-13T09:08:25Z</time>
      </trkpt>
      <trkpt lat="48.68041" lon="1.89567">
        <ele>171.6</ele>
        <time>2026-01-13T09:08:26Z</time>
      </trkpt>
      <trkpt lat="48.6804" lon="1.89557">
        <ele>171.6</ele>
        <time>2026-01-13T09:08:27Z</time>
      </trkpt>
      <trkpt lat="48.6804" lon="1.89547">
        <ele>171.8</ele>
        <time>2026-01-13T09:08:28Z</time>
      </trkpt>
      <trkpt lat="48.68039" lon="1.89537">
        <ele>172</ele>
        <time>2026-01-13T09:08:29Z</time>
      </trkpt>
      <trkpt lat="48.68038" lon="1.89527">
        <ele>172.6</ele>
        <time>2026-01-13T09:08:30Z</time>
      </trkpt>
      <trkpt lat="48.68038" lon="1.89517">
        <ele>172.6</ele>
        <time>2026-01-13T09:08:31Z</time>
      </trkpt>
      <trkpt lat="48.68037" lon="1.89508">
        <ele>172.6</ele>
        <time>2026-01-13T09:08:32Z</time>
      </trkpt>
      <trkpt lat="48.68036" lon="1.89498">
        <ele>172.6</ele>
        <time>2026-01-13T09:08:33Z</time>
      </trkpt>
      <trkpt lat="48.68035" lon="1.89488">
        <ele>172.6</ele>
        <time>2026-01-13T09:08:34Z</time>
      </trkpt>
      <trkpt lat="48.68035" lon="1.89478">
        <ele>172.6</ele>
        <time>2026-01-13T09:08:35Z</time>
      </trkpt>
      <trkpt lat="48.68033" lon="1.89468">
        <ele>172.6</ele>
        <time>2026-01-13T09:08:36Z</time>
      </trkpt>
      <trkpt lat="48.68033" lon="1.89458">
        <ele>172.6</ele>
        <time>2026-01-13T09:08:37Z</time>
      </trkpt>
      <trkpt lat="48.68032" lon="1.89448">
        <ele>172.6</ele>
        <time>2026-01-13T09:08:38Z</time>
      </trkpt>
      <trkpt lat="48.68031" lon="1.89438">
        <ele>172.6</ele>
        <time>2026-01-13T09:08:39Z</time>
      </trkpt>
      <trkpt lat="48.68031" lon="1.89428">
        <ele>172.6</ele>
        <time>2026-01-13T09:08:40Z</time>
      </trkpt>
      <trkpt lat="48.6803" lon="1.89418">
        <ele>172.8</ele>
        <time>2026-01-13T09:08:41Z</time>
      </trkpt>
      <trkpt lat="48.6803" lon="1.89408">
        <ele>173</ele>
        <time>2026-01-13T09:08:42Z</time>
      </trkpt>
      <trkpt lat="48.6803" lon="1.89398">
        <ele>173</ele>
        <time>2026-01-13T09:08:43Z</time>
      </trkpt>
      <trkpt lat="48.68031" lon="1.89388">
        <ele>173</ele>
        <time>2026-01-13T09:08:44Z</time>
      </trkpt>
      <trkpt lat="48.68034" lon="1.89379">
        <ele>172.6</ele>
        <time>2026-01-13T09:08:45Z</time>
      </trkpt>
      <trkpt lat="48.68039" lon="1.89372">
        <ele>172</ele>
        <time>2026-01-13T09:08:46Z</time>
      </trkpt>
      <trkpt lat="48.68044" lon="1.89366">
        <ele>172</ele>
        <time>2026-01-13T09:08:47Z</time>
      </trkpt>
      <trkpt lat="48.6805" lon="1.89362">
        <ele>172</ele>
        <time>2026-01-13T09:08:48Z</time>
      </trkpt>
      <trkpt lat="48.68056" lon="1.89358">
        <ele>172.8</ele>
        <time>2026-01-13T09:08:49Z</time>
      </trkpt>
      <trkpt lat="48.68062" lon="1.89354">
        <ele>172.8</ele>
        <time>2026-01-13T09:08:50Z</time>
      </trkpt>
      <trkpt lat="48.68068" lon="1.89351">
        <ele>172.8</ele>
        <time>2026-01-13T09:08:51Z</time>
      </trkpt>
      <trkpt lat="48.68074" lon="1.89347">
        <ele>172.8</ele>
        <time>2026-01-13T09:08:52Z</time>
      </trkpt>
      <trkpt lat="48.6808" lon="1.89343">
        <ele>172.8</ele>
        <time>2026-01-13T09:08:53Z</time>
      </trkpt>
      <trkpt lat="48.68086" lon="1.89339">
        <ele>173.6</ele>
        <time>2026-01-13T09:08:54Z</time>
      </trkpt>
      <trkpt lat="48.68092" lon="1.89335">
        <ele>173.6</ele>
        <time>2026-01-13T09:08:55Z</time>
      </trkpt>
      <trkpt lat="48.68098" lon="1.89332">
        <ele>173.6</ele>
        <time>2026-01-13T09:08:56Z</time>
      </trkpt>
      <trkpt lat="48.68105" lon="1.89329">
        <ele>173</ele>
        <time>2026-01-13T09:08:57Z</time>
      </trkpt>
      <trkpt lat="48.68111" lon="1.89325">
        <ele>173</ele>
        <time>2026-01-13T09:08:58Z</time>
      </trkpt>
      <trkpt lat="48.68117" lon="1.89322">
        <ele>173</ele>
        <time>2026-01-13T09:08:59Z</time>
      </trkpt>
      <trkpt lat="48.68124" lon="1.89318">
        <ele>173</ele>
        <time>2026-01-13T09:09:00Z</time>
      </trkpt>
      <trkpt lat="48.6813" lon="1.89314">
        <ele>173</ele>
        <time>2026-01-13T09:09:01Z</time>
      </trkpt>
      <trkpt lat="48.68136" lon="1.8931">
        <ele>173</ele>
        <time>2026-01-13T09:09:02Z</time>
      </trkpt>
      <trkpt lat="48.68142" lon="1.89306">
        <ele>173</ele>
        <time>2026-01-13T09:09:03Z</time>
      </trkpt>
      <trkpt lat="48.68149" lon="1.89302">
        <ele>173.6</ele>
        <time>2026-01-13T09:09:04Z</time>
      </trkpt>
      <trkpt lat="48.68155" lon="1.89298">
        <ele>173.6</ele>
        <time>2026-01-13T09:09:05Z</time>
      </trkpt>
      <trkpt lat="48.68161" lon="1.89293">
        <ele>173.6</ele>
        <time>2026-01-13T09:09:06Z</time>
      </trkpt>
      <trkpt lat="48.68167" lon="1.89289">
        <ele>173.6</ele>
        <time>2026-01-13T09:09:07Z</time>
      </trkpt>
      <trkpt lat="48.68173" lon="1.89285">
        <ele>174.2</ele>
        <time>2026-01-13T09:09:08Z</time>
      </trkpt>
      <trkpt lat="48.68178" lon="1.8928">
        <ele>174.2</ele>
        <time>2026-01-13T09:09:09Z</time>
      </trkpt>
      <trkpt lat="48.68184" lon="1.89276">
        <ele>174.2</ele>
        <time>2026-01-13T09:09:10Z</time>
      </trkpt>
      <trkpt lat="48.6819" lon="1.89271">
        <ele>174.2</ele>
        <time>2026-01-13T09:09:11Z</time>
      </trkpt>
      <trkpt lat="48.68196" lon="1.89267">
        <ele>174.2</ele>
        <time>2026-01-13T09:09:12Z</time>
      </trkpt>
      <trkpt lat="48.68202" lon="1.89264">
        <ele>174</ele>
        <time>2026-01-13T09:09:13Z</time>
      </trkpt>
      <trkpt lat="48.68209" lon="1.89262">
        <ele>174</ele>
        <time>2026-01-13T09:09:14Z</time>
      </trkpt>
      <trkpt lat="48.68215" lon="1.89257">
        <ele>174</ele>
        <time>2026-01-13T09:09:15Z</time>
      </trkpt>
      <trkpt lat="48.68221" lon="1.89253">
        <ele>174</ele>
        <time>2026-01-13T09:09:16Z</time>
      </trkpt>
      <trkpt lat="48.68227" lon="1.8925">
        <ele>174</ele>
        <time>2026-01-13T09:09:17Z</time>
      </trkpt>
      <trkpt lat="48.68233" lon="1.89245">
        <ele>174</ele>
        <time>2026-01-13T09:09:18Z</time>
      </trkpt>
      <trkpt lat="48.68239" lon="1.89241">
        <ele>174</ele>
        <time>2026-01-13T09:09:19Z</time>
      </trkpt>
      <trkpt lat="48.68245" lon="1.89236">
        <ele>174</ele>
        <time>2026-01-13T09:09:20Z</time>
      </trkpt>
      <trkpt lat="48.68251" lon="1.89231">
        <ele>174</ele>
        <time>2026-01-13T09:09:21Z</time>
      </trkpt>
      <trkpt lat="48.68257" lon="1.89226">
        <ele>174</ele>
        <time>2026-01-13T09:09:22Z</time>
      </trkpt>
      <trkpt lat="48.68262" lon="1.89221">
        <ele>174</ele>
        <time>2026-01-13T09:09:23Z</time>
      </trkpt>
      <trkpt lat="48.68268" lon="1.89216">
        <ele>174</ele>
        <time>2026-01-13T09:09:24Z</time>
      </trkpt>
      <trkpt lat="48.68273" lon="1.8921">
        <ele>174</ele>
        <time>2026-01-13T09:09:25Z</time>
      </trkpt>
      <trkpt lat="48.68279" lon="1.89203">
        <ele>174</ele>
        <time>2026-01-13T09:09:26Z</time>
      </trkpt>
      <trkpt lat="48.68284" lon="1.89195">
        <ele>174</ele>
        <time>2026-01-13T09:09:27Z</time>
      </trkpt>
      <trkpt lat="48.68289" lon="1.89188">
        <ele>174</ele>
        <time>2026-01-13T09:09:28Z</time>
      </trkpt>
      <trkpt lat="48.68294" lon="1.89182">
        <ele>174</ele>
        <time>2026-01-13T09:09:29Z</time>
      </trkpt>
      <trkpt lat="48.68299" lon="1.89175">
        <ele>174.4</ele>
        <time>2026-01-13T09:09:30Z</time>
      </trkpt>
      <trkpt lat="48.68304" lon="1.89168">
        <ele>174.4</ele>
        <time>2026-01-13T09:09:31Z</time>
      </trkpt>
      <trkpt lat="48.68309" lon="1.89161">
        <ele>174.4</ele>
        <time>2026-01-13T09:09:32Z</time>
      </trkpt>
      <trkpt lat="48.68314" lon="1.89154">
        <ele>173.8</ele>
        <time>2026-01-13T09:09:33Z</time>
      </trkpt>
      <trkpt lat="48.68319" lon="1.89147">
        <ele>173.8</ele>
        <time>2026-01-13T09:09:34Z</time>
      </trkpt>
      <trkpt lat="48.68324" lon="1.89139">
        <ele>173.8</ele>
        <time>2026-01-13T09:09:35Z</time>
      </trkpt>
      <trkpt lat="48.68329" lon="1.89132">
        <ele>173.8</ele>
        <time>2026-01-13T09:09:36Z</time>
      </trkpt>
      <trkpt lat="48.68334" lon="1.89124">
        <ele>173.8</ele>
        <time>2026-01-13T09:09:37Z</time>
      </trkpt>
      <trkpt lat="48.68339" lon="1.89116">
        <ele>173.8</ele>
        <time>2026-01-13T09:09:38Z</time>
      </trkpt>
      <trkpt lat="48.68344" lon="1.89108">
        <ele>173.8</ele>
        <time>2026-01-13T09:09:39Z</time>
      </trkpt>
      <trkpt lat="48.68349" lon="1.891">
        <ele>173.8</ele>
        <time>2026-01-13T09:09:40Z</time>
      </trkpt>
      <trkpt lat="48.68355" lon="1.89093">
        <ele>173.4</ele>
        <time>2026-01-13T09:09:41Z</time>
      </trkpt>
      <trkpt lat="48.6836" lon="1.89085">
        <ele>173.2</ele>
        <time>2026-01-13T09:09:42Z</time>
      </trkpt>
      <trkpt lat="48.68365" lon="1.89077">
        <ele>173.2</ele>
        <time>2026-01-13T09:09:43Z</time>
      </trkpt>
      <trkpt lat="48.6837" lon="1.89068">
        <ele>173.2</ele>
        <time>2026-01-13T09:09:44Z</time>
      </trkpt>
      <trkpt lat="48.68375" lon="1.89061">
        <ele>173.2</ele>
        <time>2026-01-13T09:09:45Z</time>
      </trkpt>
      <trkpt lat="48.68381" lon="1.89053">
        <ele>173.2</ele>
        <time>2026-01-13T09:09:46Z</time>
      </trkpt>
      <trkpt lat="48.68386" lon="1.89045">
        <ele>173.2</ele>
        <time>2026-01-13T09:09:47Z</time>
      </trkpt>
      <trkpt lat="48.68392" lon="1.89037">
        <ele>172.6</ele>
        <time>2026-01-13T09:09:48Z</time>
      </trkpt>
      <trkpt lat="48.68397" lon="1.89029">
        <ele>172.4</ele>
        <time>2026-01-13T09:09:49Z</time>
      </trkpt>
      <trkpt lat="48.68403" lon="1.89021">
        <ele>172.2</ele>
        <time>2026-01-13T09:09:50Z</time>
      </trkpt>
      <trkpt lat="48.68408" lon="1.89013">
        <ele>172</ele>
        <time>2026-01-13T09:09:51Z</time>
      </trkpt>
      <trkpt lat="48.68414" lon="1.89006">
        <ele>172</ele>
        <time>2026-01-13T09:09:52Z</time>
      </trkpt>
      <trkpt lat="48.6842" lon="1.88998">
        <ele>172</ele>
        <time>2026-01-13T09:09:53Z</time>
      </trkpt>
      <trkpt lat="48.68425" lon="1.88989">
        <ele>172</ele>
        <time>2026-01-13T09:09:54Z</time>
      </trkpt>
      <trkpt lat="48.68431" lon="1.88981">
        <ele>172</ele>
        <time>2026-01-13T09:09:55Z</time>
      </trkpt>
      <trkpt lat="48.68436" lon="1.88973">
        <ele>172</ele>
        <time>2026-01-13T09:09:56Z</time>
      </trkpt>
      <trkpt lat="48.68442" lon="1.88965">
        <ele>172</ele>
        <time>2026-01-13T09:09:57Z</time>
      </trkpt>
      <trkpt lat="48.68447" lon="1.88957">
        <ele>172</ele>
        <time>2026-01-13T09:09:58Z</time>
      </trkpt>
      <trkpt lat="48.68453" lon="1.88949">
        <ele>171.8</ele>
        <time>2026-01-13T09:09:59Z</time>
      </trkpt>
      <trkpt lat="48.68458" lon="1.88942">
        <ele>171.8</ele>
        <time>2026-01-13T09:10:00Z</time>
      </trkpt>
      <trkpt lat="48.68464" lon="1.88934">
        <ele>171.8</ele>
        <time>2026-01-13T09:10:01Z</time>
      </trkpt>
      <trkpt lat="48.6847" lon="1.88927">
        <ele>172</ele>
        <time>2026-01-13T09:10:02Z</time>
      </trkpt>
      <trkpt lat="48.68475" lon="1.88919">
        <ele>172.2</ele>
        <time>2026-01-13T09:10:03Z</time>
      </trkpt>
      <trkpt lat="48.68481" lon="1.88911">
        <ele>172.2</ele>
        <time>2026-01-13T09:10:04Z</time>
      </trkpt>
      <trkpt lat="48.68486" lon="1.88904">
        <ele>172.2</ele>
        <time>2026-01-13T09:10:05Z</time>
      </trkpt>
      <trkpt lat="48.68492" lon="1.88896">
        <ele>172</ele>
        <time>2026-01-13T09:10:06Z</time>
      </trkpt>
      <trkpt lat="48.68497" lon="1.88888">
        <ele>171.6</ele>
        <time>2026-01-13T09:10:07Z</time>
      </trkpt>
      <trkpt lat="48.68503" lon="1.8888">
        <ele>171.4</ele>
        <time>2026-01-13T09:10:08Z</time>
      </trkpt>
      <trkpt lat="48.68508" lon="1.88872">
        <ele>171.4</ele>
        <time>2026-01-13T09:10:09Z</time>
      </trkpt>
      <trkpt lat="48.68514" lon="1.88864">
        <ele>171.4</ele>
        <time>2026-01-13T09:10:10Z</time>
      </trkpt>
      <trkpt lat="48.6852" lon="1.88856">
        <ele>171.4</ele>
        <time>2026-01-13T09:10:11Z</time>
      </trkpt>
      <trkpt lat="48.68526" lon="1.88848">
        <ele>171.4</ele>
        <time>2026-01-13T09:10:12Z</time>
      </trkpt>
      <trkpt lat="48.68532" lon="1.8884">
        <ele>171.4</ele>
        <time>2026-01-13T09:10:13Z</time>
      </trkpt>
      <trkpt lat="48.68538" lon="1.88833">
        <ele>171.4</ele>
        <time>2026-01-13T09:10:14Z</time>
      </trkpt>
      <trkpt lat="48.68544" lon="1.88826">
        <ele>171.4</ele>
        <time>2026-01-13T09:10:15Z</time>
      </trkpt>
      <trkpt lat="48.68551" lon="1.88819">
        <ele>170.4</ele>
        <time>2026-01-13T09:10:16Z</time>
      </trkpt>
      <trkpt lat="48.68558" lon="1.88813">
        <ele>170.4</ele>
        <time>2026-01-13T09:10:17Z</time>
      </trkpt>
      <trkpt lat="48.68565" lon="1.88808">
        <ele>170.4</ele>
        <time>2026-01-13T09:10:18Z</time>
      </trkpt>
      <trkpt lat="48.68572" lon="1.88805">
        <ele>170.6</ele>
        <time>2026-01-13T09:10:19Z</time>
      </trkpt>
      <trkpt lat="48.6858" lon="1.88804">
        <ele>171</ele>
        <time>2026-01-13T09:10:20Z</time>
      </trkpt>
      <trkpt lat="48.68587" lon="1.88802">
        <ele>171</ele>
        <time>2026-01-13T09:10:21Z</time>
      </trkpt>
      <trkpt lat="48.68595" lon="1.88802">
        <ele>171</ele>
        <time>2026-01-13T09:10:22Z</time>
      </trkpt>
      <trkpt lat="48.68602" lon="1.88801">
        <ele>170.2</ele>
        <time>2026-01-13T09:10:23Z</time>
      </trkpt>
      <trkpt lat="48.6861" lon="1.888">
        <ele>170.2</ele>
        <time>2026-01-13T09:10:24Z</time>
      </trkpt>
      <trkpt lat="48.68617" lon="1.888">
        <ele>170.2</ele>
        <time>2026-01-13T09:10:25Z</time>
      </trkpt>
      <trkpt lat="48.68625" lon="1.88799">
        <ele>170.2</ele>
        <time>2026-01-13T09:10:26Z</time>
      </trkpt>
      <trkpt lat="48.68633" lon="1.88798">
        <ele>170.2</ele>
        <time>2026-01-13T09:10:27Z</time>
      </trkpt>
      <trkpt lat="48.6864" lon="1.88796">
        <ele>169.6</ele>
        <time>2026-01-13T09:10:28Z</time>
      </trkpt>
      <trkpt lat="48.68647" lon="1.88796">
        <ele>169.6</ele>
        <time>2026-01-13T09:10:29Z</time>
      </trkpt>
      <trkpt lat="48.68655" lon="1.88797">
        <ele>169.6</ele>
        <time>2026-01-13T09:10:30Z</time>
      </trkpt>
      <trkpt lat="48.68662" lon="1.88799">
        <ele>169.6</ele>
        <time>2026-01-13T09:10:31Z</time>
      </trkpt>
      <trkpt lat="48.68668" lon="1.88801">
        <ele>169.6</ele>
        <time>2026-01-13T09:10:32Z</time>
      </trkpt>
      <trkpt lat="48.68675" lon="1.88803">
        <ele>169.6</ele>
        <time>2026-01-13T09:10:33Z</time>
      </trkpt>
      <trkpt lat="48.6868" lon="1.88804">
        <ele>169.6</ele>
        <time>2026-01-13T09:10:34Z</time>
      </trkpt>
      <trkpt lat="48.68687" lon="1.88806">
        <ele>169.6</ele>
        <time>2026-01-13T09:10:35Z</time>
      </trkpt>
      <trkpt lat="48.68693" lon="1.88807">
        <ele>169.6</ele>
        <time>2026-01-13T09:10:36Z</time>
      </trkpt>
      <trkpt lat="48.687" lon="1.88809">
        <ele>169.6</ele>
        <time>2026-01-13T09:10:37Z</time>
      </trkpt>
      <trkpt lat="48.68706" lon="1.88811">
        <ele>169.6</ele>
        <time>2026-01-13T09:10:38Z</time>
      </trkpt>
      <trkpt lat="48.68714" lon="1.8881">
        <ele>169.6</ele>
        <time>2026-01-13T09:10:39Z</time>
      </trkpt>
      <trkpt lat="48.6872" lon="1.88808">
        <ele>169.4</ele>
        <time>2026-01-13T09:10:40Z</time>
      </trkpt>
      <trkpt lat="48.68728" lon="1.88807">
        <ele>169.4</ele>
        <time>2026-01-13T09:10:41Z</time>
      </trkpt>
      <trkpt lat="48.68734" lon="1.88804">
        <ele>169.4</ele>
        <time>2026-01-13T09:10:42Z</time>
      </trkpt>
      <trkpt lat="48.68741" lon="1.88801">
        <ele>169.4</ele>
        <time>2026-01-13T09:10:43Z</time>
      </trkpt>
      <trkpt lat="48.68748" lon="1.88797">
        <ele>169.4</ele>
        <time>2026-01-13T09:10:44Z</time>
      </trkpt>
      <trkpt lat="48.68755" lon="1.88792">
        <ele>169.4</ele>
        <time>2026-01-13T09:10:45Z</time>
      </trkpt>
      <trkpt lat="48.68762" lon="1.88787">
        <ele>169.4</ele>
        <time>2026-01-13T09:10:46Z</time>
      </trkpt>
      <trkpt lat="48.68768" lon="1.88782">
        <ele>169.4</ele>
        <time>2026-01-13T09:10:47Z</time>
      </trkpt>
      <trkpt lat="48.68775" lon="1.88777">
        <ele>169.4</ele>
        <time>2026-01-13T09:10:48Z</time>
      </trkpt>
      <trkpt lat="48.68781" lon="1.88771">
        <ele>168.4</ele>
        <time>2026-01-13T09:10:49Z</time>
      </trkpt>
      <trkpt lat="48.68788" lon="1.88765">
        <ele>168.4</ele>
        <time>2026-01-13T09:10:50Z</time>
      </trkpt>
      <trkpt lat="48.68795" lon="1.88759">
        <ele>168.4</ele>
        <time>2026-01-13T09:10:51Z</time>
      </trkpt>
      <trkpt lat="48.68802" lon="1.88754">
        <ele>168.6</ele>
        <time>2026-01-13T09:10:52Z</time>
      </trkpt>
      <trkpt lat="48.68809" lon="1.88748">
        <ele>168.6</ele>
        <time>2026-01-13T09:10:53Z</time>
      </trkpt>
      <trkpt lat="48.68816" lon="1.88741">
        <ele>168.6</ele>
        <time>2026-01-13T09:10:54Z</time>
      </trkpt>
      <trkpt lat="48.68823" lon="1.88736">
        <ele>168.6</ele>
        <time>2026-01-13T09:10:55Z</time>
      </trkpt>
      <trkpt lat="48.68829" lon="1.8873">
        <ele>168.6</ele>
        <time>2026-01-13T09:10:56Z</time>
      </trkpt>
      <trkpt lat="48.68836" lon="1.88723">
        <ele>168.6</ele>
        <time>2026-01-13T09:10:57Z</time>
      </trkpt>
      <trkpt lat="48.68843" lon="1.88718">
        <ele>168.8</ele>
        <time>2026-01-13T09:10:58Z</time>
      </trkpt>
      <trkpt lat="48.68849" lon="1.88713">
        <ele>168.8</ele>
        <time>2026-01-13T09:10:59Z</time>
      </trkpt>
      <trkpt lat="48.68856" lon="1.88708">
        <ele>168.8</ele>
        <time>2026-01-13T09:11:00Z</time>
      </trkpt>
      <trkpt lat="48.68863" lon="1.88702">
        <ele>168.8</ele>
        <time>2026-01-13T09:11:01Z</time>
      </trkpt>
      <trkpt lat="48.6887" lon="1.88697">
        <ele>167.8</ele>
        <time>2026-01-13T09:11:02Z</time>
      </trkpt>
      <trkpt lat="48.68877" lon="1.88693">
        <ele>167.8</ele>
        <time>2026-01-13T09:11:03Z</time>
      </trkpt>
      <trkpt lat="48.68884" lon="1.88689">
        <ele>167.6</ele>
        <time>2026-01-13T09:11:04Z</time>
      </trkpt>
      <trkpt lat="48.68892" lon="1.88685">
        <ele>167</ele>
        <time>2026-01-13T09:11:05Z</time>
      </trkpt>
      <trkpt lat="48.68899" lon="1.88682">
        <ele>167</ele>
        <time>2026-01-13T09:11:06Z</time>
      </trkpt>
      <trkpt lat="48.68906" lon="1.88678">
        <ele>167</ele>
        <time>2026-01-13T09:11:07Z</time>
      </trkpt>
      <trkpt lat="48.68914" lon="1.88675">
        <ele>167</ele>
        <time>2026-01-13T09:11:08Z</time>
      </trkpt>
      <trkpt lat="48.68921" lon="1.88672">
        <ele>167</ele>
        <time>2026-01-13T09:11:09Z</time>
      </trkpt>
      <trkpt lat="48.68929" lon="1.8867">
        <ele>167</ele>
        <time>2026-01-13T09:11:10Z</time>
      </trkpt>
      <trkpt lat="48.68935" lon="1.88667">
        <ele>167</ele>
        <time>2026-01-13T09:11:11Z</time>
      </trkpt>
      <trkpt lat="48.68942" lon="1.88664">
        <ele>167.4</ele>
        <time>2026-01-13T09:11:12Z</time>
      </trkpt>
      <trkpt lat="48.68948" lon="1.88662">
        <ele>167.8</ele>
        <time>2026-01-13T09:11:13Z</time>
      </trkpt>
      <trkpt lat="48.68955" lon="1.88659">
        <ele>167.8</ele>
        <time>2026-01-13T09:11:14Z</time>
      </trkpt>
      <trkpt lat="48.68961" lon="1.88657">
        <ele>167.8</ele>
        <time>2026-01-13T09:11:15Z</time>
      </trkpt>
      <trkpt lat="48.68968" lon="1.88654">
        <ele>167.8</ele>
        <time>2026-01-13T09:11:16Z</time>
      </trkpt>
      <trkpt lat="48.68974" lon="1.88652">
        <ele>168.6</ele>
        <time>2026-01-13T09:11:17Z</time>
      </trkpt>
      <trkpt lat="48.68981" lon="1.8865">
        <ele>168.6</ele>
        <time>2026-01-13T09:11:18Z</time>
      </trkpt>
      <trkpt lat="48.68987" lon="1.88648">
        <ele>168.6</ele>
        <time>2026-01-13T09:11:19Z</time>
      </trkpt>
      <trkpt lat="48.68993" lon="1.88646">
        <ele>168.6</ele>
        <time>2026-01-13T09:11:20Z</time>
      </trkpt>
      <trkpt lat="48.68999" lon="1.88644">
        <ele>168.6</ele>
        <time>2026-01-13T09:11:21Z</time>
      </trkpt>
      <trkpt lat="48.69005" lon="1.88642">
        <ele>168.6</ele>
        <time>2026-01-13T09:11:22Z</time>
      </trkpt>
      <trkpt lat="48.69012" lon="1.88639">
        <ele>168.8</ele>
        <time>2026-01-13T09:11:23Z</time>
      </trkpt>
      <trkpt lat="48.69018" lon="1.88638">
        <ele>168.8</ele>
        <time>2026-01-13T09:11:24Z</time>
      </trkpt>
      <trkpt lat="48.69025" lon="1.88636">
        <ele>168.8</ele>
        <time>2026-01-13T09:11:25Z</time>
      </trkpt>
      <trkpt lat="48.69031" lon="1.88634">
        <ele>168</ele>
        <time>2026-01-13T09:11:26Z</time>
      </trkpt>
      <trkpt lat="48.69038" lon="1.88632">
        <ele>168</ele>
        <time>2026-01-13T09:11:27Z</time>
      </trkpt>
      <trkpt lat="48.69044" lon="1.88631">
        <ele>168</ele>
        <time>2026-01-13T09:11:28Z</time>
      </trkpt>
      <trkpt lat="48.6905" lon="1.88629">
        <ele>168</ele>
        <time>2026-01-13T09:11:29Z</time>
      </trkpt>
      <trkpt lat="48.69057" lon="1.88628">
        <ele>168</ele>
        <time>2026-01-13T09:11:30Z</time>
      </trkpt>
      <trkpt lat="48.69063" lon="1.88627">
        <ele>168</ele>
        <time>2026-01-13T09:11:31Z</time>
      </trkpt>
      <trkpt lat="48.69071" lon="1.88627">
        <ele>168</ele>
        <time>2026-01-13T09:11:32Z</time>
      </trkpt>
      <trkpt lat="48.69078" lon="1.88627">
        <ele>167</ele>
        <time>2026-01-13T09:11:33Z</time>
      </trkpt>
      <trkpt lat="48.69084" lon="1.88628">
        <ele>166.6</ele>
        <time>2026-01-13T09:11:34Z</time>
      </trkpt>
      <trkpt lat="48.69091" lon="1.88629">
        <ele>166.6</ele>
        <time>2026-01-13T09:11:35Z</time>
      </trkpt>
      <trkpt lat="48.69099" lon="1.88629">
        <ele>166.6</ele>
        <time>2026-01-13T09:11:36Z</time>
      </trkpt>
      <trkpt lat="48.69105" lon="1.8863">
        <ele>167.2</ele>
        <time>2026-01-13T09:11:37Z</time>
      </trkpt>
      <trkpt lat="48.69112" lon="1.88631">
        <ele>167.6</ele>
        <time>2026-01-13T09:11:38Z</time>
      </trkpt>
      <trkpt lat="48.69118" lon="1.88631">
        <ele>167.6</ele>
        <time>2026-01-13T09:11:39Z</time>
      </trkpt>
      <trkpt lat="48.69125" lon="1.88632">
        <ele>168</ele>
        <time>2026-01-13T09:11:40Z</time>
      </trkpt>
      <trkpt lat="48.6913" lon="1.88633">
        <ele>168</ele>
        <time>2026-01-13T09:11:41Z</time>
      </trkpt>
      <trkpt lat="48.69136" lon="1.88633">
        <ele>168</ele>
        <time>2026-01-13T09:11:42Z</time>
      </trkpt>
      <trkpt lat="48.69142" lon="1.88635">
        <ele>168</ele>
        <time>2026-01-13T09:11:43Z</time>
      </trkpt>
      <trkpt lat="48.69148" lon="1.88636">
        <ele>169</ele>
        <time>2026-01-13T09:11:44Z</time>
      </trkpt>
      <trkpt lat="48.69154" lon="1.88636">
        <ele>169</ele>
        <time>2026-01-13T09:11:45Z</time>
      </trkpt>
      <trkpt lat="48.69161" lon="1.88637">
        <ele>169</ele>
        <time>2026-01-13T09:11:46Z</time>
      </trkpt>
      <trkpt lat="48.69168" lon="1.88637">
        <ele>169</ele>
        <time>2026-01-13T09:11:47Z</time>
      </trkpt>
      <trkpt lat="48.69175" lon="1.88637">
        <ele>169.2</ele>
        <time>2026-01-13T09:11:48Z</time>
      </trkpt>
      <trkpt lat="48.69182" lon="1.88637">
        <ele>169.2</ele>
        <time>2026-01-13T09:11:49Z</time>
      </trkpt>
      <trkpt lat="48.69189" lon="1.88637">
        <ele>169.2</ele>
        <time>2026-01-13T09:11:50Z</time>
      </trkpt>
      <trkpt lat="48.69196" lon="1.88637">
        <ele>169</ele>
        <time>2026-01-13T09:11:51Z</time>
      </trkpt>
      <trkpt lat="48.69203" lon="1.88637">
        <ele>168.4</ele>
        <time>2026-01-13T09:11:52Z</time>
      </trkpt>
      <trkpt lat="48.6921" lon="1.88638">
        <ele>168.4</ele>
        <time>2026-01-13T09:11:53Z</time>
      </trkpt>
      <trkpt lat="48.69217" lon="1.88638">
        <ele>168.4</ele>
        <time>2026-01-13T09:11:54Z</time>
      </trkpt>
      <trkpt lat="48.69223" lon="1.88638">
        <ele>168.4</ele>
        <time>2026-01-13T09:11:55Z</time>
      </trkpt>
      <trkpt lat="48.6923" lon="1.88638">
        <ele>168.4</ele>
        <time>2026-01-13T09:11:56Z</time>
      </trkpt>
      <trkpt lat="48.69237" lon="1.88639">
        <ele>168.4</ele>
        <time>2026-01-13T09:11:57Z</time>
      </trkpt>
      <trkpt lat="48.69243" lon="1.8864">
        <ele>168.4</ele>
        <time>2026-01-13T09:11:58Z</time>
      </trkpt>
      <trkpt lat="48.69249" lon="1.88641">
        <ele>168.2</ele>
        <time>2026-01-13T09:11:59Z</time>
      </trkpt>
      <trkpt lat="48.69256" lon="1.88641">
        <ele>168.2</ele>
        <time>2026-01-13T09:12:00Z</time>
      </trkpt>
      <trkpt lat="48.69263" lon="1.88641">
        <ele>168.2</ele>
        <time>2026-01-13T09:12:01Z</time>
      </trkpt>
      <trkpt lat="48.69269" lon="1.88642">
        <ele>169.2</ele>
        <time>2026-01-13T09:12:02Z</time>
      </trkpt>
      <trkpt lat="48.69275" lon="1.88643">
        <ele>169.6</ele>
        <time>2026-01-13T09:12:03Z</time>
      </trkpt>
      <trkpt lat="48.69282" lon="1.88644">
        <ele>169.6</ele>
        <time>2026-01-13T09:12:04Z</time>
      </trkpt>
      <trkpt lat="48.69289" lon="1.88644">
        <ele>169.6</ele>
        <time>2026-01-13T09:12:05Z</time>
      </trkpt>
      <trkpt lat="48.69295" lon="1.88645">
        <ele>169.6</ele>
        <time>2026-01-13T09:12:06Z</time>
      </trkpt>
      <trkpt lat="48.69302" lon="1.88646">
        <ele>169.6</ele>
        <time>2026-01-13T09:12:07Z</time>
      </trkpt>
      <trkpt lat="48.69309" lon="1.88647">
        <ele>169.6</ele>
        <time>2026-01-13T09:12:08Z</time>
      </trkpt>
      <trkpt lat="48.69315" lon="1.88648">
        <ele>169.6</ele>
        <time>2026-01-13T09:12:09Z</time>
      </trkpt>
      <trkpt lat="48.69322" lon="1.88649">
        <ele>169.6</ele>
        <time>2026-01-13T09:12:10Z</time>
      </trkpt>
      <trkpt lat="48.69329" lon="1.8865">
        <ele>169.6</ele>
        <time>2026-01-13T09:12:11Z</time>
      </trkpt>
      <trkpt lat="48.69336" lon="1.88652">
        <ele>169</ele>
        <time>2026-01-13T09:12:12Z</time>
      </trkpt>
      <trkpt lat="48.69343" lon="1.88654">
        <ele>169</ele>
        <time>2026-01-13T09:12:13Z</time>
      </trkpt>
      <trkpt lat="48.6935" lon="1.88656">
        <ele>168.4</ele>
        <time>2026-01-13T09:12:14Z</time>
      </trkpt>
      <trkpt lat="48.69357" lon="1.88657">
        <ele>168.4</ele>
        <time>2026-01-13T09:12:15Z</time>
      </trkpt>
      <trkpt lat="48.69364" lon="1.88659">
        <ele>168.4</ele>
        <time>2026-01-13T09:12:16Z</time>
      </trkpt>
      <trkpt lat="48.69371" lon="1.88661">
        <ele>168.4</ele>
        <time>2026-01-13T09:12:17Z</time>
      </trkpt>
      <trkpt lat="48.69377" lon="1.88663">
        <ele>168.4</ele>
        <time>2026-01-13T09:12:18Z</time>
      </trkpt>
      <trkpt lat="48.69384" lon="1.88665">
        <ele>168.4</ele>
        <time>2026-01-13T09:12:19Z</time>
      </trkpt>
      <trkpt lat="48.6939" lon="1.88668">
        <ele>168.4</ele>
        <time>2026-01-13T09:12:20Z</time>
      </trkpt>
      <trkpt lat="48.69396" lon="1.8867">
        <ele>168.4</ele>
        <time>2026-01-13T09:12:21Z</time>
      </trkpt>
      <trkpt lat="48.69402" lon="1.88672">
        <ele>168.4</ele>
        <time>2026-01-13T09:12:22Z</time>
      </trkpt>
      <trkpt lat="48.69408" lon="1.88674">
        <ele>168.4</ele>
        <time>2026-01-13T09:12:23Z</time>
      </trkpt>
      <trkpt lat="48.69414" lon="1.88676">
        <ele>169</ele>
        <time>2026-01-13T09:12:24Z</time>
      </trkpt>
      <trkpt lat="48.6942" lon="1.88678">
        <ele>169</ele>
        <time>2026-01-13T09:12:25Z</time>
      </trkpt>
      <trkpt lat="48.69427" lon="1.8868">
        <ele>169</ele>
        <time>2026-01-13T09:12:26Z</time>
      </trkpt>
      <trkpt lat="48.69433" lon="1.88682">
        <ele>169</ele>
        <time>2026-01-13T09:12:27Z</time>
      </trkpt>
      <trkpt lat="48.6944" lon="1.88684">
        <ele>169</ele>
        <time>2026-01-13T09:12:28Z</time>
      </trkpt>
      <trkpt lat="48.69446" lon="1.88686">
        <ele>169</ele>
        <time>2026-01-13T09:12:29Z</time>
      </trkpt>
      <trkpt lat="48.69452" lon="1.88688">
        <ele>169</ele>
        <time>2026-01-13T09:12:30Z</time>
      </trkpt>
      <trkpt lat="48.69459" lon="1.8869">
        <ele>169</ele>
        <time>2026-01-13T09:12:31Z</time>
      </trkpt>
      <trkpt lat="48.69465" lon="1.88691">
        <ele>169</ele>
        <time>2026-01-13T09:12:32Z</time>
      </trkpt>
      <trkpt lat="48.69471" lon="1.88692">
        <ele>170</ele>
        <time>2026-01-13T09:12:33Z</time>
      </trkpt>
      <trkpt lat="48.69477" lon="1.88693">
        <ele>170</ele>
        <time>2026-01-13T09:12:34Z</time>
      </trkpt>
      <trkpt lat="48.69484" lon="1.88693">
        <ele>170</ele>
        <time>2026-01-13T09:12:35Z</time>
      </trkpt>
      <trkpt lat="48.69491" lon="1.88694">
        <ele>169.8</ele>
        <time>2026-01-13T09:12:36Z</time>
      </trkpt>
      <trkpt lat="48.69497" lon="1.88694">
        <ele>169.8</ele>
        <time>2026-01-13T09:12:37Z</time>
      </trkpt>
      <trkpt lat="48.69503" lon="1.88694">
        <ele>169.8</ele>
        <time>2026-01-13T09:12:38Z</time>
      </trkpt>
      <trkpt lat="48.69509" lon="1.88694">
        <ele>170.8</ele>
        <time>2026-01-13T09:12:39Z</time>
      </trkpt>
      <trkpt lat="48.69515" lon="1.88693">
        <ele>170.8</ele>
        <time>2026-01-13T09:12:40Z</time>
      </trkpt>
      <trkpt lat="48.69521" lon="1.88691">
        <ele>170.8</ele>
        <time>2026-01-13T09:12:41Z</time>
      </trkpt>
      <trkpt lat="48.69528" lon="1.88689">
        <ele>170.8</ele>
        <time>2026-01-13T09:12:42Z</time>
      </trkpt>
      <trkpt lat="48.69534" lon="1.88687">
        <ele>170.8</ele>
        <time>2026-01-13T09:12:43Z</time>
      </trkpt>
      <trkpt lat="48.6954" lon="1.88687">
        <ele>170.8</ele>
        <time>2026-01-13T09:12:44Z</time>
      </trkpt>
      <trkpt lat="48.69546" lon="1.88689">
        <ele>170.8</ele>
        <time>2026-01-13T09:12:45Z</time>
      </trkpt>
      <trkpt lat="48.69552" lon="1.88691">
        <ele>170.8</ele>
        <time>2026-01-13T09:12:46Z</time>
      </trkpt>
      <trkpt lat="48.69557" lon="1.88691">
        <ele>170.8</ele>
        <time>2026-01-13T09:12:47Z</time>
      </trkpt>
      <trkpt lat="48.69563" lon="1.88691">
        <ele>171</ele>
        <time>2026-01-13T09:12:48Z</time>
      </trkpt>
      <trkpt lat="48.69569" lon="1.88692">
        <ele>171.2</ele>
        <time>2026-01-13T09:12:49Z</time>
      </trkpt>
      <trkpt lat="48.69575" lon="1.88692">
        <ele>171.2</ele>
        <time>2026-01-13T09:12:50Z</time>
      </trkpt>
      <trkpt lat="48.69581" lon="1.88692">
        <ele>171.2</ele>
        <time>2026-01-13T09:12:51Z</time>
      </trkpt>
      <trkpt lat="48.69588" lon="1.88692">
        <ele>170.2</ele>
        <time>2026-01-13T09:12:52Z</time>
      </trkpt>
      <trkpt lat="48.69594" lon="1.88693">
        <ele>169.4</ele>
        <time>2026-01-13T09:12:53Z</time>
      </trkpt>
      <trkpt lat="48.69601" lon="1.88694">
        <ele>169.2</ele>
        <time>2026-01-13T09:12:54Z</time>
      </trkpt>
      <trkpt lat="48.69608" lon="1.88696">
        <ele>168.4</ele>
        <time>2026-01-13T09:12:55Z</time>
      </trkpt>
      <trkpt lat="48.69615" lon="1.88698">
        <ele>167.8</ele>
        <time>2026-01-13T09:12:56Z</time>
      </trkpt>
      <trkpt lat="48.69622" lon="1.88701">
        <ele>167.6</ele>
        <time>2026-01-13T09:12:57Z</time>
      </trkpt>
      <trkpt lat="48.6963" lon="1.88704">
        <ele>166.6</ele>
        <time>2026-01-13T09:12:58Z</time>
      </trkpt>
      <trkpt lat="48.69638" lon="1.88707">
        <ele>165.8</ele>
        <time>2026-01-13T09:12:59Z</time>
      </trkpt>
      <trkpt lat="48.69646" lon="1.8871">
        <ele>165.6</ele>
        <time>2026-01-13T09:13:00Z</time>
      </trkpt>
      <trkpt lat="48.69654" lon="1.88713">
        <ele>165</ele>
        <time>2026-01-13T09:13:01Z</time>
      </trkpt>
      <trkpt lat="48.69663" lon="1.88716">
        <ele>164.2</ele>
        <time>2026-01-13T09:13:02Z</time>
      </trkpt>
      <trkpt lat="48.69672" lon="1.88717">
        <ele>163.4</ele>
        <time>2026-01-13T09:13:03Z</time>
      </trkpt>
      <trkpt lat="48.69681" lon="1.88718">
        <ele>163.2</ele>
        <time>2026-01-13T09:13:04Z</time>
      </trkpt>
      <trkpt lat="48.6969" lon="1.88718">
        <ele>162.2</ele>
        <time>2026-01-13T09:13:05Z</time>
      </trkpt>
      <trkpt lat="48.697" lon="1.88716">
        <ele>161.2</ele>
        <time>2026-01-13T09:13:06Z</time>
      </trkpt>
      <trkpt lat="48.6971" lon="1.88714">
        <ele>160.2</ele>
        <time>2026-01-13T09:13:07Z</time>
      </trkpt>
      <trkpt lat="48.6972" lon="1.88711">
        <ele>159.2</ele>
        <time>2026-01-13T09:13:08Z</time>
      </trkpt>
      <trkpt lat="48.6973" lon="1.88708">
        <ele>158.2</ele>
        <time>2026-01-13T09:13:09Z</time>
      </trkpt>
      <trkpt lat="48.6974" lon="1.88705">
        <ele>158</ele>
        <time>2026-01-13T09:13:10Z</time>
      </trkpt>
      <trkpt lat="48.69749" lon="1.88702">
        <ele>157.8</ele>
        <time>2026-01-13T09:13:11Z</time>
      </trkpt>
      <trkpt lat="48.69758" lon="1.88699">
        <ele>156.8</ele>
        <time>2026-01-13T09:13:12Z</time>
      </trkpt>
      <trkpt lat="48.69767" lon="1.88696">
        <ele>156.8</ele>
        <time>2026-01-13T09:13:13Z</time>
      </trkpt>
      <trkpt lat="48.69775" lon="1.88693">
        <ele>156.8</ele>
        <time>2026-01-13T09:13:14Z</time>
      </trkpt>
      <trkpt lat="48.69783" lon="1.88691">
        <ele>156.8</ele>
        <time>2026-01-13T09:13:15Z</time>
      </trkpt>
      <trkpt lat="48.69792" lon="1.88689">
        <ele>156.8</ele>
        <time>2026-01-13T09:13:16Z</time>
      </trkpt>
      <trkpt lat="48.698" lon="1.88687">
        <ele>156</ele>
        <time>2026-01-13T09:13:17Z</time>
      </trkpt>
      <trkpt lat="48.69808" lon="1.88687">
        <ele>156</ele>
        <time>2026-01-13T09:13:18Z</time>
      </trkpt>
      <trkpt lat="48.69815" lon="1.88687">
        <ele>156</ele>
        <time>2026-01-13T09:13:19Z</time>
      </trkpt>
      <trkpt lat="48.69823" lon="1.88688">
        <ele>156</ele>
        <time>2026-01-13T09:13:20Z</time>
      </trkpt>
      <trkpt lat="48.69831" lon="1.88688">
        <ele>156</ele>
        <time>2026-01-13T09:13:21Z</time>
      </trkpt>
      <trkpt lat="48.69838" lon="1.88689">
        <ele>156</ele>
        <time>2026-01-13T09:13:22Z</time>
      </trkpt>
      <trkpt lat="48.69846" lon="1.88691">
        <ele>157</ele>
        <time>2026-01-13T09:13:23Z</time>
      </trkpt>
      <trkpt lat="48.69853" lon="1.88692">
        <ele>157</ele>
        <time>2026-01-13T09:13:24Z</time>
      </trkpt>
      <trkpt lat="48.6986" lon="1.88693">
        <ele>157</ele>
        <time>2026-01-13T09:13:25Z</time>
      </trkpt>
      <trkpt lat="48.69867" lon="1.88695">
        <ele>157</ele>
        <time>2026-01-13T09:13:26Z</time>
      </trkpt>
      <trkpt lat="48.69873" lon="1.88696">
        <ele>157</ele>
        <time>2026-01-13T09:13:27Z</time>
      </trkpt>
      <trkpt lat="48.69879" lon="1.88697">
        <ele>157</ele>
        <time>2026-01-13T09:13:28Z</time>
      </trkpt>
      <trkpt lat="48.69885" lon="1.88698">
        <ele>156.8</ele>
        <time>2026-01-13T09:13:29Z</time>
      </trkpt>
      <trkpt lat="48.69891" lon="1.887">
        <ele>156.8</ele>
        <time>2026-01-13T09:13:30Z</time>
      </trkpt>
      <trkpt lat="48.69897" lon="1.88702">
        <ele>156.8</ele>
        <time>2026-01-13T09:13:31Z</time>
      </trkpt>
      <trkpt lat="48.69903" lon="1.88705">
        <ele>157.8</ele>
        <time>2026-01-13T09:13:32Z</time>
      </trkpt>
      <trkpt lat="48.69908" lon="1.88708">
        <ele>157.8</ele>
        <time>2026-01-13T09:13:33Z</time>
      </trkpt>
      <trkpt lat="48.69914" lon="1.8871">
        <ele>157.8</ele>
        <time>2026-01-13T09:13:34Z</time>
      </trkpt>
      <trkpt lat="48.69919" lon="1.88713">
        <ele>157.8</ele>
        <time>2026-01-13T09:13:35Z</time>
      </trkpt>
      <trkpt lat="48.69925" lon="1.88714">
        <ele>157.8</ele>
        <time>2026-01-13T09:13:36Z</time>
      </trkpt>
      <trkpt lat="48.69931" lon="1.88717">
        <ele>157.8</ele>
        <time>2026-01-13T09:13:37Z</time>
      </trkpt>
      <trkpt lat="48.69937" lon="1.88719">
        <ele>157.8</ele>
        <time>2026-01-13T09:13:38Z</time>
      </trkpt>
      <trkpt lat="48.69943" lon="1.88721">
        <ele>157.8</ele>
        <time>2026-01-13T09:13:39Z</time>
      </trkpt>
      <trkpt lat="48.69948" lon="1.88722">
        <ele>157.8</ele>
        <time>2026-01-13T09:13:40Z</time>
      </trkpt>
      <trkpt lat="48.69955" lon="1.88723">
        <ele>157.8</ele>
        <time>2026-01-13T09:13:41Z</time>
      </trkpt>
      <trkpt lat="48.69961" lon="1.88723">
        <ele>157.8</ele>
        <time>2026-01-13T09:13:42Z</time>
      </trkpt>
      <trkpt lat="48.69967" lon="1.88722">
        <ele>157.8</ele>
        <time>2026-01-13T09:13:43Z</time>
      </trkpt>
      <trkpt lat="48.69973" lon="1.88722">
        <ele>157.4</ele>
        <time>2026-01-13T09:13:44Z</time>
      </trkpt>
      <trkpt lat="48.69979" lon="1.88721">
        <ele>157.2</ele>
        <time>2026-01-13T09:13:45Z</time>
      </trkpt>
      <trkpt lat="48.69986" lon="1.8872">
        <ele>157.2</ele>
        <time>2026-01-13T09:13:46Z</time>
      </trkpt>
      <trkpt lat="48.69992" lon="1.88718">
        <ele>157</ele>
        <time>2026-01-13T09:13:47Z</time>
      </trkpt>
      <trkpt lat="48.69997" lon="1.88715">
        <ele>157</ele>
        <time>2026-01-13T09:13:48Z</time>
      </trkpt>
      <trkpt lat="48.70003" lon="1.88711">
        <ele>157</ele>
        <time>2026-01-13T09:13:49Z</time>
      </trkpt>
      <trkpt lat="48.70007" lon="1.88705">
        <ele>157</ele>
        <time>2026-01-13T09:13:50Z</time>
      </trkpt>
      <trkpt lat="48.70012" lon="1.88699">
        <ele>157</ele>
        <time>2026-01-13T09:13:51Z</time>
      </trkpt>
      <trkpt lat="48.70015" lon="1.88692">
        <ele>156.2</ele>
        <time>2026-01-13T09:13:52Z</time>
      </trkpt>
      <trkpt lat="48.70019" lon="1.88685">
        <ele>156.2</ele>
        <time>2026-01-13T09:13:53Z</time>
      </trkpt>
      <trkpt lat="48.70024" lon="1.88678">
        <ele>156.2</ele>
        <time>2026-01-13T09:13:54Z</time>
      </trkpt>
      <trkpt lat="48.70027" lon="1.8867">
        <ele>156.2</ele>
        <time>2026-01-13T09:13:55Z</time>
      </trkpt>
      <trkpt lat="48.70031" lon="1.88662">
        <ele>155.6</ele>
        <time>2026-01-13T09:13:56Z</time>
      </trkpt>
      <trkpt lat="48.70035" lon="1.88654">
        <ele>155.6</ele>
        <time>2026-01-13T09:13:57Z</time>
      </trkpt>
      <trkpt lat="48.70038" lon="1.88646">
        <ele>155.6</ele>
        <time>2026-01-13T09:13:58Z</time>
      </trkpt>
      <trkpt lat="48.70042" lon="1.88637">
        <ele>155.6</ele>
        <time>2026-01-13T09:13:59Z</time>
      </trkpt>
      <trkpt lat="48.70045" lon="1.88629">
        <ele>155</ele>
        <time>2026-01-13T09:14:00Z</time>
      </trkpt>
      <trkpt lat="48.70048" lon="1.88621">
        <ele>155</ele>
        <time>2026-01-13T09:14:01Z</time>
      </trkpt>
      <trkpt lat="48.70051" lon="1.88612">
        <ele>155</ele>
        <time>2026-01-13T09:14:02Z</time>
      </trkpt>
      <trkpt lat="48.70054" lon="1.88603">
        <ele>155</ele>
        <time>2026-01-13T09:14:03Z</time>
      </trkpt>
      <trkpt lat="48.70058" lon="1.88595">
        <ele>154.2</ele>
        <time>2026-01-13T09:14:04Z</time>
      </trkpt>
      <trkpt lat="48.70061" lon="1.88587">
        <ele>154</ele>
        <time>2026-01-13T09:14:05Z</time>
      </trkpt>
      <trkpt lat="48.70064" lon="1.88578">
        <ele>154</ele>
        <time>2026-01-13T09:14:06Z</time>
      </trkpt>
      <trkpt lat="48.70067" lon="1.8857">
        <ele>154</ele>
        <time>2026-01-13T09:14:07Z</time>
      </trkpt>
      <trkpt lat="48.7007" lon="1.8856">
        <ele>154</ele>
        <time>2026-01-13T09:14:08Z</time>
      </trkpt>
      <trkpt lat="48.70071" lon="1.88549">
        <ele>153</ele>
        <time>2026-01-13T09:14:09Z</time>
      </trkpt>
      <trkpt lat="48.70072" lon="1.88539">
        <ele>152</ele>
        <time>2026-01-13T09:14:10Z</time>
      </trkpt>
      <trkpt lat="48.70074" lon="1.88527">
        <ele>151.2</ele>
        <time>2026-01-13T09:14:11Z</time>
      </trkpt>
      <trkpt lat="48.70075" lon="1.88515">
        <ele>150.6</ele>
        <time>2026-01-13T09:14:12Z</time>
      </trkpt>
      <trkpt lat="48.70077" lon="1.88504">
        <ele>150</ele>
        <time>2026-01-13T09:14:13Z</time>
      </trkpt>
      <trkpt lat="48.70079" lon="1.88493">
        <ele>149.6</ele>
        <time>2026-01-13T09:14:14Z</time>
      </trkpt>
      <trkpt lat="48.70084" lon="1.88483">
        <ele>148.8</ele>
        <time>2026-01-13T09:14:15Z</time>
      </trkpt>
      <trkpt lat="48.70089" lon="1.88475">
        <ele>148.2</ele>
        <time>2026-01-13T09:14:16Z</time>
      </trkpt>
      <trkpt lat="48.70096" lon="1.88467">
        <ele>147.4</ele>
        <time>2026-01-13T09:14:17Z</time>
      </trkpt>
      <trkpt lat="48.70103" lon="1.8846">
        <ele>146.4</ele>
        <time>2026-01-13T09:14:18Z</time>
      </trkpt>
      <trkpt lat="48.7011" lon="1.88453">
        <ele>146</ele>
        <time>2026-01-13T09:14:19Z</time>
      </trkpt>
      <trkpt lat="48.70117" lon="1.88448">
        <ele>146</ele>
        <time>2026-01-13T09:14:20Z</time>
      </trkpt>
      <trkpt lat="48.70124" lon="1.88447">
        <ele>146</ele>
        <time>2026-01-13T09:14:21Z</time>
      </trkpt>
      <trkpt lat="48.70131" lon="1.88449">
        <ele>147</ele>
        <time>2026-01-13T09:14:22Z</time>
      </trkpt>
      <trkpt lat="48.70138" lon="1.88452">
        <ele>147</ele>
        <time>2026-01-13T09:14:23Z</time>
      </trkpt>
      <trkpt lat="48.70145" lon="1.88454">
        <ele>147</ele>
        <time>2026-01-13T09:14:24Z</time>
      </trkpt>
      <trkpt lat="48.70151" lon="1.88458">
        <ele>146.4</ele>
        <time>2026-01-13T09:14:25Z</time>
      </trkpt>
      <trkpt lat="48.70158" lon="1.88461">
        <ele>146.4</ele>
        <time>2026-01-13T09:14:26Z</time>
      </trkpt>
      <trkpt lat="48.70165" lon="1.88465">
        <ele>146.4</ele>
        <time>2026-01-13T09:14:27Z</time>
      </trkpt>
      <trkpt lat="48.70171" lon="1.88469">
        <ele>146.4</ele>
        <time>2026-01-13T09:14:28Z</time>
      </trkpt>
      <trkpt lat="48.70178" lon="1.88472">
        <ele>146</ele>
        <time>2026-01-13T09:14:29Z</time>
      </trkpt>
      <trkpt lat="48.70185" lon="1.88476">
        <ele>145.4</ele>
        <time>2026-01-13T09:14:30Z</time>
      </trkpt>
      <trkpt lat="48.70191" lon="1.88479">
        <ele>145.2</ele>
        <time>2026-01-13T09:14:31Z</time>
      </trkpt>
      <trkpt lat="48.70197" lon="1.88483">
        <ele>145.2</ele>
        <time>2026-01-13T09:14:32Z</time>
      </trkpt>
      <trkpt lat="48.70204" lon="1.88486">
        <ele>145.2</ele>
        <time>2026-01-13T09:14:33Z</time>
      </trkpt>
      <trkpt lat="48.7021" lon="1.8849">
        <ele>146</ele>
        <time>2026-01-13T09:14:34Z</time>
      </trkpt>
      <trkpt lat="48.70216" lon="1.88494">
        <ele>146</ele>
        <time>2026-01-13T09:14:35Z</time>
      </trkpt>
      <trkpt lat="48.70222" lon="1.88498">
        <ele>146</ele>
        <time>2026-01-13T09:14:36Z</time>
      </trkpt>
      <trkpt lat="48.70227" lon="1.88501">
        <ele>146</ele>
        <time>2026-01-13T09:14:37Z</time>
      </trkpt>
      <trkpt lat="48.70233" lon="1.88505">
        <ele>146</ele>
        <time>2026-01-13T09:14:38Z</time>
      </trkpt>
      <trkpt lat="48.70238" lon="1.8851">
        <ele>146.6</ele>
        <time>2026-01-13T09:14:39Z</time>
      </trkpt>
      <trkpt lat="48.70242" lon="1.88516">
        <ele>146.6</ele>
        <time>2026-01-13T09:14:40Z</time>
      </trkpt>
      <trkpt lat="48.70245" lon="1.88523">
        <ele>146.6</ele>
        <time>2026-01-13T09:14:41Z</time>
      </trkpt>
      <trkpt lat="48.70248" lon="1.8853">
        <ele>146.6</ele>
        <time>2026-01-13T09:14:42Z</time>
      </trkpt>
      <trkpt lat="48.7025" lon="1.88538">
        <ele>146.6</ele>
        <time>2026-01-13T09:14:43Z</time>
      </trkpt>
      <trkpt lat="48.7025" lon="1.88547">
        <ele>146.6</ele>
        <time>2026-01-13T09:14:44Z</time>
      </trkpt>
      <trkpt lat="48.7025" lon="1.88555">
        <ele>146.6</ele>
        <time>2026-01-13T09:14:45Z</time>
      </trkpt>
      <trkpt lat="48.7025" lon="1.88564">
        <ele>146.6</ele>
        <time>2026-01-13T09:14:46Z</time>
      </trkpt>
      <trkpt lat="48.7025" lon="1.88574">
        <ele>145.8</ele>
        <time>2026-01-13T09:14:47Z</time>
      </trkpt>
      <trkpt lat="48.70249" lon="1.88583">
        <ele>145.8</ele>
        <time>2026-01-13T09:14:48Z</time>
      </trkpt>
      <trkpt lat="48.70248" lon="1.88592">
        <ele>145.8</ele>
        <time>2026-01-13T09:14:49Z</time>
      </trkpt>
      <trkpt lat="48.70247" lon="1.88601">
        <ele>145.8</ele>
        <time>2026-01-13T09:14:50Z</time>
      </trkpt>
      <trkpt lat="48.70245" lon="1.8861">
        <ele>145.2</ele>
        <time>2026-01-13T09:14:51Z</time>
      </trkpt>
      <trkpt lat="48.70244" lon="1.8862">
        <ele>144.6</ele>
        <time>2026-01-13T09:14:52Z</time>
      </trkpt>
      <trkpt lat="48.70243" lon="1.8863">
        <ele>144</ele>
        <time>2026-01-13T09:14:53Z</time>
      </trkpt>
      <trkpt lat="48.70241" lon="1.8864">
        <ele>144</ele>
        <time>2026-01-13T09:14:54Z</time>
      </trkpt>
      <trkpt lat="48.70239" lon="1.8865">
        <ele>144</ele>
        <time>2026-01-13T09:14:55Z</time>
      </trkpt>
      <trkpt lat="48.70238" lon="1.8866">
        <ele>144</ele>
        <time>2026-01-13T09:14:56Z</time>
      </trkpt>
      <trkpt lat="48.70236" lon="1.88671">
        <ele>143.6</ele>
        <time>2026-01-13T09:14:57Z</time>
      </trkpt>
      <trkpt lat="48.70234" lon="1.88681">
        <ele>143</ele>
        <time>2026-01-13T09:14:58Z</time>
      </trkpt>
      <trkpt lat="48.70233" lon="1.88692">
        <ele>142.6</ele>
        <time>2026-01-13T09:14:59Z</time>
      </trkpt>
      <trkpt lat="48.70232" lon="1.88703">
        <ele>142.2</ele>
        <time>2026-01-13T09:15:00Z</time>
      </trkpt>
      <trkpt lat="48.7023" lon="1.88714">
        <ele>141.2</ele>
        <time>2026-01-13T09:15:01Z</time>
      </trkpt>
      <trkpt lat="48.70229" lon="1.88726">
        <ele>141.2</ele>
        <time>2026-01-13T09:15:02Z</time>
      </trkpt>
      <trkpt lat="48.70228" lon="1.88738">
        <ele>140.2</ele>
        <time>2026-01-13T09:15:03Z</time>
      </trkpt>
      <trkpt lat="48.70227" lon="1.8875">
        <ele>139.4</ele>
        <time>2026-01-13T09:15:04Z</time>
      </trkpt>
      <trkpt lat="48.70226" lon="1.88762">
        <ele>139</ele>
        <time>2026-01-13T09:15:05Z</time>
      </trkpt>
      <trkpt lat="48.70226" lon="1.88774">
        <ele>138.4</ele>
        <time>2026-01-13T09:15:06Z</time>
      </trkpt>
      <trkpt lat="48.70227" lon="1.88785">
        <ele>137.8</ele>
        <time>2026-01-13T09:15:07Z</time>
      </trkpt>
      <trkpt lat="48.70228" lon="1.88797">
        <ele>137.4</ele>
        <time>2026-01-13T09:15:08Z</time>
      </trkpt>
      <trkpt lat="48.70229" lon="1.88809">
        <ele>136.4</ele>
        <time>2026-01-13T09:15:09Z</time>
      </trkpt>
      <trkpt lat="48.7023" lon="1.88822">
        <ele>136</ele>
        <time>2026-01-13T09:15:10Z</time>
      </trkpt>
      <trkpt lat="48.7023" lon="1.88835">
        <ele>135.6</ele>
        <time>2026-01-13T09:15:11Z</time>
      </trkpt>
      <trkpt lat="48.7023" lon="1.88848">
        <ele>135</ele>
        <time>2026-01-13T09:15:12Z</time>
      </trkpt>
      <trkpt lat="48.7023" lon="1.88861">
        <ele>134.8</ele>
        <time>2026-01-13T09:15:13Z</time>
      </trkpt>
      <trkpt lat="48.70231" lon="1.88874">
        <ele>134.4</ele>
        <time>2026-01-13T09:15:14Z</time>
      </trkpt>
      <trkpt lat="48.70231" lon="1.88887">
        <ele>134.4</ele>
        <time>2026-01-13T09:15:15Z</time>
      </trkpt>
      <trkpt lat="48.70232" lon="1.889">
        <ele>134.4</ele>
        <time>2026-01-13T09:15:16Z</time>
      </trkpt>
      <trkpt lat="48.70232" lon="1.88912">
        <ele>134.4</ele>
        <time>2026-01-13T09:15:17Z</time>
      </trkpt>
      <trkpt lat="48.70233" lon="1.88924">
        <ele>134.4</ele>
        <time>2026-01-13T09:15:18Z</time>
      </trkpt>
      <trkpt lat="48.70233" lon="1.88937">
        <ele>134.8</ele>
        <time>2026-01-13T09:15:19Z</time>
      </trkpt>
      <trkpt lat="48.70234" lon="1.88949">
        <ele>134.8</ele>
        <time>2026-01-13T09:15:20Z</time>
      </trkpt>
      <trkpt lat="48.70233" lon="1.88961">
        <ele>134.8</ele>
        <time>2026-01-13T09:15:21Z</time>
      </trkpt>
      <trkpt lat="48.70232" lon="1.88973">
        <ele>134.8</ele>
        <time>2026-01-13T09:15:22Z</time>
      </trkpt>
      <trkpt lat="48.7023" lon="1.88985">
        <ele>134</ele>
        <time>2026-01-13T09:15:23Z</time>
      </trkpt>
      <trkpt lat="48.70227" lon="1.88995">
        <ele>134</ele>
        <time>2026-01-13T09:15:24Z</time>
      </trkpt>
      <trkpt lat="48.70224" lon="1.89006">
        <ele>134</ele>
        <time>2026-01-13T09:15:25Z</time>
      </trkpt>
      <trkpt lat="48.70222" lon="1.89016">
        <ele>134</ele>
        <time>2026-01-13T09:15:26Z</time>
      </trkpt>
      <trkpt lat="48.70219" lon="1.89026">
        <ele>134.6</ele>
        <time>2026-01-13T09:15:27Z</time>
      </trkpt>
      <trkpt lat="48.70216" lon="1.89036">
        <ele>134.6</ele>
        <time>2026-01-13T09:15:28Z</time>
      </trkpt>
      <trkpt lat="48.70214" lon="1.89046">
        <ele>134.6</ele>
        <time>2026-01-13T09:15:29Z</time>
      </trkpt>
      <trkpt lat="48.70211" lon="1.89056">
        <ele>134.6</ele>
        <time>2026-01-13T09:15:30Z</time>
      </trkpt>
      <trkpt lat="48.70209" lon="1.89066">
        <ele>134.6</ele>
        <time>2026-01-13T09:15:31Z</time>
      </trkpt>
      <trkpt lat="48.70207" lon="1.89075">
        <ele>134.6</ele>
        <time>2026-01-13T09:15:32Z</time>
      </trkpt>
      <trkpt lat="48.70204" lon="1.89085">
        <ele>134.6</ele>
        <time>2026-01-13T09:15:33Z</time>
      </trkpt>
      <trkpt lat="48.70202" lon="1.89095">
        <ele>134.6</ele>
        <time>2026-01-13T09:15:34Z</time>
      </trkpt>
      <trkpt lat="48.702" lon="1.89105">
        <ele>135.2</ele>
        <time>2026-01-13T09:15:35Z</time>
      </trkpt>
      <trkpt lat="48.70198" lon="1.89114">
        <ele>135.6</ele>
        <time>2026-01-13T09:15:36Z</time>
      </trkpt>
      <trkpt lat="48.70196" lon="1.89124">
        <ele>135.6</ele>
        <time>2026-01-13T09:15:37Z</time>
      </trkpt>
      <trkpt lat="48.70194" lon="1.89133">
        <ele>135.8</ele>
        <time>2026-01-13T09:15:38Z</time>
      </trkpt>
      <trkpt lat="48.70192" lon="1.89141">
        <ele>136</ele>
        <time>2026-01-13T09:15:39Z</time>
      </trkpt>
      <trkpt lat="48.7019" lon="1.8915">
        <ele>136</ele>
        <time>2026-01-13T09:15:40Z</time>
      </trkpt>
      <trkpt lat="48.70188" lon="1.89158">
        <ele>136</ele>
        <time>2026-01-13T09:15:41Z</time>
      </trkpt>
      <trkpt lat="48.70186" lon="1.89166">
        <ele>136</ele>
        <time>2026-01-13T09:15:42Z</time>
      </trkpt>
      <trkpt lat="48.70184" lon="1.89175">
        <ele>136.4</ele>
        <time>2026-01-13T09:15:43Z</time>
      </trkpt>
      <trkpt lat="48.70182" lon="1.89183">
        <ele>136.6</ele>
        <time>2026-01-13T09:15:44Z</time>
      </trkpt>
      <trkpt lat="48.7018" lon="1.89191">
        <ele>136.8</ele>
        <time>2026-01-13T09:15:45Z</time>
      </trkpt>
      <trkpt lat="48.70178" lon="1.89199">
        <ele>136.8</ele>
        <time>2026-01-13T09:15:46Z</time>
      </trkpt>
      <trkpt lat="48.70176" lon="1.89208">
        <ele>136.8</ele>
        <time>2026-01-13T09:15:47Z</time>
      </trkpt>
      <trkpt lat="48.70174" lon="1.89216">
        <ele>136.8</ele>
        <time>2026-01-13T09:15:48Z</time>
      </trkpt>
      <trkpt lat="48.70172" lon="1.89225">
        <ele>136.8</ele>
        <time>2026-01-13T09:15:49Z</time>
      </trkpt>
      <trkpt lat="48.7017" lon="1.89233">
        <ele>137.2</ele>
        <time>2026-01-13T09:15:50Z</time>
      </trkpt>
      <trkpt lat="48.70168" lon="1.89242">
        <ele>137.2</ele>
        <time>2026-01-13T09:15:51Z</time>
      </trkpt>
      <trkpt lat="48.70166" lon="1.8925">
        <ele>137.2</ele>
        <time>2026-01-13T09:15:52Z</time>
      </trkpt>
      <trkpt lat="48.70163" lon="1.89258">
        <ele>137.2</ele>
        <time>2026-01-13T09:15:53Z</time>
      </trkpt>
      <trkpt lat="48.70161" lon="1.89266">
        <ele>138.2</ele>
        <time>2026-01-13T09:15:54Z</time>
      </trkpt>
      <trkpt lat="48.70158" lon="1.89274">
        <ele>138.2</ele>
        <time>2026-01-13T09:15:55Z</time>
      </trkpt>
      <trkpt lat="48.70156" lon="1.89283">
        <ele>138.2</ele>
        <time>2026-01-13T09:15:56Z</time>
      </trkpt>
      <trkpt lat="48.70153" lon="1.89291">
        <ele>138.2</ele>
        <time>2026-01-13T09:15:57Z</time>
      </trkpt>
      <trkpt lat="48.7015" lon="1.89299">
        <ele>138.2</ele>
        <time>2026-01-13T09:15:58Z</time>
      </trkpt>
      <trkpt lat="48.70147" lon="1.89307">
        <ele>138.2</ele>
        <time>2026-01-13T09:15:59Z</time>
      </trkpt>
      <trkpt lat="48.70144" lon="1.89315">
        <ele>138.2</ele>
        <time>2026-01-13T09:16:00Z</time>
      </trkpt>
      <trkpt lat="48.70141" lon="1.89322">
        <ele>138</ele>
        <time>2026-01-13T09:16:01Z</time>
      </trkpt>
      <trkpt lat="48.70138" lon="1.8933">
        <ele>138</ele>
        <time>2026-01-13T09:16:02Z</time>
      </trkpt>
      <trkpt lat="48.70135" lon="1.89338">
        <ele>138</ele>
        <time>2026-01-13T09:16:03Z</time>
      </trkpt>
      <trkpt lat="48.70131" lon="1.89346">
        <ele>138</ele>
        <time>2026-01-13T09:16:04Z</time>
      </trkpt>
      <trkpt lat="48.70128" lon="1.89355">
        <ele>138</ele>
        <time>2026-01-13T09:16:05Z</time>
      </trkpt>
      <trkpt lat="48.70124" lon="1.89363">
        <ele>137</ele>
        <time>2026-01-13T09:16:06Z</time>
      </trkpt>
      <trkpt lat="48.70121" lon="1.89372">
        <ele>136.6</ele>
        <time>2026-01-13T09:16:07Z</time>
      </trkpt>
      <trkpt lat="48.70117" lon="1.89381">
        <ele>136.6</ele>
        <time>2026-01-13T09:16:08Z</time>
      </trkpt>
      <trkpt lat="48.70114" lon="1.89391">
        <ele>136.6</ele>
        <time>2026-01-13T09:16:09Z</time>
      </trkpt>
      <trkpt lat="48.7011" lon="1.89401">
        <ele>136.6</ele>
        <time>2026-01-13T09:16:10Z</time>
      </trkpt>
      <trkpt lat="48.70106" lon="1.89411">
        <ele>136</ele>
        <time>2026-01-13T09:16:11Z</time>
      </trkpt>
      <trkpt lat="48.70102" lon="1.8942">
        <ele>135.6</ele>
        <time>2026-01-13T09:16:12Z</time>
      </trkpt>
      <trkpt lat="48.70098" lon="1.89429">
        <ele>135.4</ele>
        <time>2026-01-13T09:16:13Z</time>
      </trkpt>
      <trkpt lat="48.70094" lon="1.89438">
        <ele>135</ele>
        <time>2026-01-13T09:16:14Z</time>
      </trkpt>
      <trkpt lat="48.70089" lon="1.89447">
        <ele>134.4</ele>
        <time>2026-01-13T09:16:15Z</time>
      </trkpt>
      <trkpt lat="48.70084" lon="1.89456">
        <ele>134</ele>
        <time>2026-01-13T09:16:16Z</time>
      </trkpt>
      <trkpt lat="48.70079" lon="1.89464">
        <ele>134</ele>
        <time>2026-01-13T09:16:17Z</time>
      </trkpt>
      <trkpt lat="48.70075" lon="1.89472">
        <ele>134</ele>
        <time>2026-01-13T09:16:18Z</time>
      </trkpt>
      <trkpt lat="48.7007" lon="1.8948">
        <ele>134.4</ele>
        <time>2026-01-13T09:16:19Z</time>
      </trkpt>
      <trkpt lat="48.70065" lon="1.89489">
        <ele>134.4</ele>
        <time>2026-01-13T09:16:20Z</time>
      </trkpt>
      <trkpt lat="48.70061" lon="1.89498">
        <ele>134.4</ele>
        <time>2026-01-13T09:16:21Z</time>
      </trkpt>
      <trkpt lat="48.70057" lon="1.89507">
        <ele>133.6</ele>
        <time>2026-01-13T09:16:22Z</time>
      </trkpt>
      <trkpt lat="48.70052" lon="1.89517">
        <ele>133</ele>
        <time>2026-01-13T09:16:23Z</time>
      </trkpt>
      <trkpt lat="48.70047" lon="1.89525">
        <ele>133</ele>
        <time>2026-01-13T09:16:24Z</time>
      </trkpt>
      <trkpt lat="48.70042" lon="1.89534">
        <ele>133</ele>
        <time>2026-01-13T09:16:25Z</time>
      </trkpt>
      <trkpt lat="48.70037" lon="1.89541">
        <ele>133.2</ele>
        <time>2026-01-13T09:16:26Z</time>
      </trkpt>
      <trkpt lat="48.70032" lon="1.89549">
        <ele>133.2</ele>
        <time>2026-01-13T09:16:27Z</time>
      </trkpt>
      <trkpt lat="48.70026" lon="1.89556">
        <ele>133.2</ele>
        <time>2026-01-13T09:16:28Z</time>
      </trkpt>
      <trkpt lat="48.7002" lon="1.89563">
        <ele>132.8</ele>
        <time>2026-01-13T09:16:29Z</time>
      </trkpt>
      <trkpt lat="48.70014" lon="1.89568">
        <ele>132.8</ele>
        <time>2026-01-13T09:16:30Z</time>
      </trkpt>
      <trkpt lat="48.70007" lon="1.89573">
        <ele>132.8</ele>
        <time>2026-01-13T09:16:31Z</time>
      </trkpt>
      <trkpt lat="48.7" lon="1.89576">
        <ele>132.8</ele>
        <time>2026-01-13T09:16:32Z</time>
      </trkpt>
      <trkpt lat="48.69992" lon="1.89576">
        <ele>132.8</ele>
        <time>2026-01-13T09:16:33Z</time>
      </trkpt>
      <trkpt lat="48.69985" lon="1.89576">
        <ele>133</ele>
        <time>2026-01-13T09:16:34Z</time>
      </trkpt>
      <trkpt lat="48.69978" lon="1.89574">
        <ele>133.6</ele>
        <time>2026-01-13T09:16:35Z</time>
      </trkpt>
      <trkpt lat="48.69971" lon="1.89571">
        <ele>133.6</ele>
        <time>2026-01-13T09:16:36Z</time>
      </trkpt>
      <trkpt lat="48.69964" lon="1.89569">
        <ele>133.6</ele>
        <time>2026-01-13T09:16:37Z</time>
      </trkpt>
      <trkpt lat="48.69958" lon="1.89566">
        <ele>133.6</ele>
        <time>2026-01-13T09:16:38Z</time>
      </trkpt>
      <trkpt lat="48.69951" lon="1.89563">
        <ele>134</ele>
        <time>2026-01-13T09:16:39Z</time>
      </trkpt>
      <trkpt lat="48.69946" lon="1.8956">
        <ele>134</ele>
        <time>2026-01-13T09:16:40Z</time>
      </trkpt>
      <trkpt lat="48.6994" lon="1.89557">
        <ele>134</ele>
        <time>2026-01-13T09:16:41Z</time>
      </trkpt>
      <trkpt lat="48.69934" lon="1.89556">
        <ele>134</ele>
        <time>2026-01-13T09:16:42Z</time>
      </trkpt>
      <trkpt lat="48.69927" lon="1.89555">
        <ele>134.4</ele>
        <time>2026-01-13T09:16:43Z</time>
      </trkpt>
      <trkpt lat="48.69921" lon="1.89555">
        <ele>134.6</ele>
        <time>2026-01-13T09:16:44Z</time>
      </trkpt>
      <trkpt lat="48.69915" lon="1.89556">
        <ele>134.6</ele>
        <time>2026-01-13T09:16:45Z</time>
      </trkpt>
      <trkpt lat="48.69909" lon="1.89558">
        <ele>134.6</ele>
        <time>2026-01-13T09:16:46Z</time>
      </trkpt>
      <trkpt lat="48.69903" lon="1.89559">
        <ele>134.6</ele>
        <time>2026-01-13T09:16:47Z</time>
      </trkpt>
      <trkpt lat="48.69897" lon="1.89561">
        <ele>135.4</ele>
        <time>2026-01-13T09:16:48Z</time>
      </trkpt>
      <trkpt lat="48.69891" lon="1.89563">
        <ele>135.4</ele>
        <time>2026-01-13T09:16:49Z</time>
      </trkpt>
      <trkpt lat="48.69886" lon="1.89565">
        <ele>135.4</ele>
        <time>2026-01-13T09:16:50Z</time>
      </trkpt>
      <trkpt lat="48.6988" lon="1.89568">
        <ele>135.4</ele>
        <time>2026-01-13T09:16:51Z</time>
      </trkpt>
      <trkpt lat="48.69875" lon="1.89569">
        <ele>135.6</ele>
        <time>2026-01-13T09:16:52Z</time>
      </trkpt>
      <trkpt lat="48.69869" lon="1.89572">
        <ele>136</ele>
        <time>2026-01-13T09:16:53Z</time>
      </trkpt>
      <trkpt lat="48.69864" lon="1.89574">
        <ele>136.4</ele>
        <time>2026-01-13T09:16:54Z</time>
      </trkpt>
      <trkpt lat="48.69859" lon="1.89576">
        <ele>136.4</ele>
        <time>2026-01-13T09:16:55Z</time>
      </trkpt>
      <trkpt lat="48.69853" lon="1.89579">
        <ele>136.4</ele>
        <time>2026-01-13T09:16:56Z</time>
      </trkpt>
      <trkpt lat="48.69847" lon="1.89581">
        <ele>136.2</ele>
        <time>2026-01-13T09:16:57Z</time>
      </trkpt>
      <trkpt lat="48.69842" lon="1.89585">
        <ele>136.2</ele>
        <time>2026-01-13T09:16:58Z</time>
      </trkpt>
      <trkpt lat="48.69836" lon="1.89588">
        <ele>136.2</ele>
        <time>2026-01-13T09:16:59Z</time>
      </trkpt>
      <trkpt lat="48.69831" lon="1.89591">
        <ele>136.2</ele>
        <time>2026-01-13T09:17:00Z</time>
      </trkpt>
      <trkpt lat="48.69825" lon="1.89595">
        <ele>136.8</ele>
        <time>2026-01-13T09:17:01Z</time>
      </trkpt>
      <trkpt lat="48.69821" lon="1.896">
        <ele>137</ele>
        <time>2026-01-13T09:17:02Z</time>
      </trkpt>
      <trkpt lat="48.69817" lon="1.89605">
        <ele>137</ele>
        <time>2026-01-13T09:17:03Z</time>
      </trkpt>
      <trkpt lat="48.69813" lon="1.89611">
        <ele>137</ele>
        <time>2026-01-13T09:17:04Z</time>
      </trkpt>
      <trkpt lat="48.6981" lon="1.89617">
        <ele>137</ele>
        <time>2026-01-13T09:17:05Z</time>
      </trkpt>
      <trkpt lat="48.69807" lon="1.89625">
        <ele>136.6</ele>
        <time>2026-01-13T09:17:06Z</time>
      </trkpt>
      <trkpt lat="48.69804" lon="1.89631">
        <ele>136.6</ele>
        <time>2026-01-13T09:17:07Z</time>
      </trkpt>
      <trkpt lat="48.69801" lon="1.89639">
        <ele>136</ele>
        <time>2026-01-13T09:17:08Z</time>
      </trkpt>
      <trkpt lat="48.69799" lon="1.89648">
        <ele>136</ele>
        <time>2026-01-13T09:17:09Z</time>
      </trkpt>
      <trkpt lat="48.69796" lon="1.89657">
        <ele>135.6</ele>
        <time>2026-01-13T09:17:10Z</time>
      </trkpt>
      <trkpt lat="48.69794" lon="1.89667">
        <ele>134.6</ele>
        <time>2026-01-13T09:17:11Z</time>
      </trkpt>
      <trkpt lat="48.69792" lon="1.89677">
        <ele>134.4</ele>
        <time>2026-01-13T09:17:12Z</time>
      </trkpt>
      <trkpt lat="48.69791" lon="1.89688">
        <ele>134</ele>
        <time>2026-01-13T09:17:13Z</time>
      </trkpt>
      <trkpt lat="48.6979" lon="1.897">
        <ele>133.4</ele>
        <time>2026-01-13T09:17:14Z</time>
      </trkpt>
      <trkpt lat="48.69791" lon="1.89712">
        <ele>133</ele>
        <time>2026-01-13T09:17:15Z</time>
      </trkpt>
      <trkpt lat="48.69792" lon="1.89722">
        <ele>133</ele>
        <time>2026-01-13T09:17:16Z</time>
      </trkpt>
      <trkpt lat="48.69794" lon="1.89733">
        <ele>133</ele>
        <time>2026-01-13T09:17:17Z</time>
      </trkpt>
      <trkpt lat="48.69797" lon="1.89745">
        <ele>133.4</ele>
        <time>2026-01-13T09:17:18Z</time>
      </trkpt>
      <trkpt lat="48.69799" lon="1.89756">
        <ele>133.4</ele>
        <time>2026-01-13T09:17:19Z</time>
      </trkpt>
      <trkpt lat="48.69802" lon="1.89767">
        <ele>133.4</ele>
        <time>2026-01-13T09:17:20Z</time>
      </trkpt>
      <trkpt lat="48.69804" lon="1.89778">
        <ele>133.4</ele>
        <time>2026-01-13T09:17:21Z</time>
      </trkpt>
      <trkpt lat="48.69807" lon="1.89789">
        <ele>133.4</ele>
        <time>2026-01-13T09:17:22Z</time>
      </trkpt>
      <trkpt lat="48.6981" lon="1.898">
        <ele>133.4</ele>
        <time>2026-01-13T09:17:23Z</time>
      </trkpt>
      <trkpt lat="48.69812" lon="1.89812">
        <ele>132.8</ele>
        <time>2026-01-13T09:17:24Z</time>
      </trkpt>
      <trkpt lat="48.69815" lon="1.89823">
        <ele>132.8</ele>
        <time>2026-01-13T09:17:25Z</time>
      </trkpt>
      <trkpt lat="48.69819" lon="1.89833">
        <ele>132.8</ele>
        <time>2026-01-13T09:17:26Z</time>
      </trkpt>
      <trkpt lat="48.69821" lon="1.89844">
        <ele>132.8</ele>
        <time>2026-01-13T09:17:27Z</time>
      </trkpt>
      <trkpt lat="48.69824" lon="1.89855">
        <ele>132.8</ele>
        <time>2026-01-13T09:17:28Z</time>
      </trkpt>
      <trkpt lat="48.69827" lon="1.89866">
        <ele>132.2</ele>
        <time>2026-01-13T09:17:29Z</time>
      </trkpt>
      <trkpt lat="48.69829" lon="1.89877">
        <ele>132</ele>
        <time>2026-01-13T09:17:30Z</time>
      </trkpt>
      <trkpt lat="48.69831" lon="1.89889">
        <ele>132</ele>
        <time>2026-01-13T09:17:31Z</time>
      </trkpt>
      <trkpt lat="48.69833" lon="1.899">
        <ele>132</ele>
        <time>2026-01-13T09:17:32Z</time>
      </trkpt>
      <trkpt lat="48.69835" lon="1.89911">
        <ele>132</ele>
        <time>2026-01-13T09:17:33Z</time>
      </trkpt>
      <trkpt lat="48.69836" lon="1.89921">
        <ele>132</ele>
        <time>2026-01-13T09:17:34Z</time>
      </trkpt>
      <trkpt lat="48.69837" lon="1.89932">
        <ele>132</ele>
        <time>2026-01-13T09:17:35Z</time>
      </trkpt>
      <trkpt lat="48.69838" lon="1.89942">
        <ele>132.6</ele>
        <time>2026-01-13T09:17:36Z</time>
      </trkpt>
      <trkpt lat="48.69838" lon="1.89952">
        <ele>133.2</ele>
        <time>2026-01-13T09:17:37Z</time>
      </trkpt>
      <trkpt lat="48.69838" lon="1.89962">
        <ele>133.6</ele>
        <time>2026-01-13T09:17:38Z</time>
      </trkpt>
      <trkpt lat="48.69838" lon="1.89972">
        <ele>133.6</ele>
        <time>2026-01-13T09:17:39Z</time>
      </trkpt>
      <trkpt lat="48.69837" lon="1.89981">
        <ele>133.6</ele>
        <time>2026-01-13T09:17:40Z</time>
      </trkpt>
      <trkpt lat="48.69837" lon="1.8999">
        <ele>133.6</ele>
        <time>2026-01-13T09:17:41Z</time>
      </trkpt>
      <trkpt lat="48.69837" lon="1.89999">
        <ele>133.6</ele>
        <time>2026-01-13T09:17:42Z</time>
      </trkpt>
      <trkpt lat="48.69836" lon="1.90008">
        <ele>134.6</ele>
        <time>2026-01-13T09:17:43Z</time>
      </trkpt>
      <trkpt lat="48.69836" lon="1.90016">
        <ele>135.4</ele>
        <time>2026-01-13T09:17:44Z</time>
      </trkpt>
      <trkpt lat="48.69836" lon="1.90024">
        <ele>135.4</ele>
        <time>2026-01-13T09:17:45Z</time>
      </trkpt>
      <trkpt lat="48.69836" lon="1.90032">
        <ele>135.8</ele>
        <time>2026-01-13T09:17:46Z</time>
      </trkpt>
      <trkpt lat="48.69835" lon="1.90039">
        <ele>135.8</ele>
        <time>2026-01-13T09:17:47Z</time>
      </trkpt>
      <trkpt lat="48.69835" lon="1.90047">
        <ele>135.8</ele>
        <time>2026-01-13T09:17:48Z</time>
      </trkpt>
      <trkpt lat="48.69834" lon="1.90055">
        <ele>135.8</ele>
        <time>2026-01-13T09:17:49Z</time>
      </trkpt>
      <trkpt lat="48.69834" lon="1.90062">
        <ele>136.8</ele>
        <time>2026-01-13T09:17:50Z</time>
      </trkpt>
      <trkpt lat="48.69834" lon="1.9007">
        <ele>137.4</ele>
        <time>2026-01-13T09:17:51Z</time>
      </trkpt>
      <trkpt lat="48.69834" lon="1.90077">
        <ele>137.4</ele>
        <time>2026-01-13T09:17:52Z</time>
      </trkpt>
      <trkpt lat="48.69834" lon="1.90084">
        <ele>137.4</ele>
        <time>2026-01-13T09:17:53Z</time>
      </trkpt>
      <trkpt lat="48.69834" lon="1.90092">
        <ele>137.4</ele>
        <time>2026-01-13T09:17:54Z</time>
      </trkpt>
      <trkpt lat="48.69833" lon="1.901">
        <ele>137.4</ele>
        <time>2026-01-13T09:17:55Z</time>
      </trkpt>
      <trkpt lat="48.69833" lon="1.90108">
        <ele>137.4</ele>
        <time>2026-01-13T09:17:56Z</time>
      </trkpt>
      <trkpt lat="48.69832" lon="1.90118">
        <ele>137.6</ele>
        <time>2026-01-13T09:17:57Z</time>
      </trkpt>
      <trkpt lat="48.69832" lon="1.90126">
        <ele>138.2</ele>
        <time>2026-01-13T09:17:58Z</time>
      </trkpt>
      <trkpt lat="48.69832" lon="1.90135">
        <ele>138.6</ele>
        <time>2026-01-13T09:17:59Z</time>
      </trkpt>
      <trkpt lat="48.69831" lon="1.90143">
        <ele>138.8</ele>
        <time>2026-01-13T09:18:00Z</time>
      </trkpt>
      <trkpt lat="48.69831" lon="1.90151">
        <ele>138.8</ele>
        <time>2026-01-13T09:18:01Z</time>
      </trkpt>
      <trkpt lat="48.6983" lon="1.90158">
        <ele>138.8</ele>
        <time>2026-01-13T09:18:02Z</time>
      </trkpt>
      <trkpt lat="48.6983" lon="1.90166">
        <ele>138.8</ele>
        <time>2026-01-13T09:18:03Z</time>
      </trkpt>
      <trkpt lat="48.6983" lon="1.90174">
        <ele>138.8</ele>
        <time>2026-01-13T09:18:04Z</time>
      </trkpt>
      <trkpt lat="48.69829" lon="1.90182">
        <ele>139.2</ele>
        <time>2026-01-13T09:18:05Z</time>
      </trkpt>
      <trkpt lat="48.69828" lon="1.9019">
        <ele>139.2</ele>
        <time>2026-01-13T09:18:06Z</time>
      </trkpt>
      <trkpt lat="48.69828" lon="1.90197">
        <ele>139.2</ele>
        <time>2026-01-13T09:18:07Z</time>
      </trkpt>
      <trkpt lat="48.69828" lon="1.90205">
        <ele>139.2</ele>
        <time>2026-01-13T09:18:08Z</time>
      </trkpt>
      <trkpt lat="48.69827" lon="1.90213">
        <ele>139.2</ele>
        <time>2026-01-13T09:18:09Z</time>
      </trkpt>
      <trkpt lat="48.69826" lon="1.9022">
        <ele>139.6</ele>
        <time>2026-01-13T09:18:10Z</time>
      </trkpt>
      <trkpt lat="48.69825" lon="1.90228">
        <ele>139.6</ele>
        <time>2026-01-13T09:18:11Z</time>
      </trkpt>
      <trkpt lat="48.69823" lon="1.90235">
        <ele>139.6</ele>
        <time>2026-01-13T09:18:12Z</time>
      </trkpt>
      <trkpt lat="48.69821" lon="1.90242">
        <ele>139.6</ele>
        <time>2026-01-13T09:18:13Z</time>
      </trkpt>
      <trkpt lat="48.69819" lon="1.90248">
        <ele>140</ele>
        <time>2026-01-13T09:18:14Z</time>
      </trkpt>
      <trkpt lat="48.69816" lon="1.90253">
        <ele>140.2</ele>
        <time>2026-01-13T09:18:15Z</time>
      </trkpt>
      <trkpt lat="48.69813" lon="1.9026">
        <ele>140.2</ele>
        <time>2026-01-13T09:18:16Z</time>
      </trkpt>
      <trkpt lat="48.6981" lon="1.90264">
        <ele>140.2</ele>
        <time>2026-01-13T09:18:17Z</time>
      </trkpt>
      <trkpt lat="48.69807" lon="1.9027">
        <ele>140.2</ele>
        <time>2026-01-13T09:18:18Z</time>
      </trkpt>
      <trkpt lat="48.69804" lon="1.90276">
        <ele>140.4</ele>
        <time>2026-01-13T09:18:19Z</time>
      </trkpt>
      <trkpt lat="48.69801" lon="1.9028">
        <ele>140.8</ele>
        <time>2026-01-13T09:18:20Z</time>
      </trkpt>
      <trkpt lat="48.69797" lon="1.90285">
        <ele>140.8</ele>
        <time>2026-01-13T09:18:21Z</time>
      </trkpt>
      <trkpt lat="48.69794" lon="1.90291">
        <ele>140.8</ele>
        <time>2026-01-13T09:18:22Z</time>
      </trkpt>
      <trkpt lat="48.69791" lon="1.90296">
        <ele>140.2</ele>
        <time>2026-01-13T09:18:23Z</time>
      </trkpt>
      <trkpt lat="48.69787" lon="1.90301">
        <ele>139.8</ele>
        <time>2026-01-13T09:18:24Z</time>
      </trkpt>
      <trkpt lat="48.69784" lon="1.90308">
        <ele>139.8</ele>
        <time>2026-01-13T09:18:25Z</time>
      </trkpt>
      <trkpt lat="48.6978" lon="1.90311">
        <ele>139.8</ele>
        <time>2026-01-13T09:18:26Z</time>
      </trkpt>
      <trkpt lat="48.69777" lon="1.90318">
        <ele>139.8</ele>
        <time>2026-01-13T09:18:27Z</time>
      </trkpt>
      <trkpt lat="48.69773" lon="1.90326">
        <ele>139</ele>
        <time>2026-01-13T09:18:28Z</time>
      </trkpt>
      <trkpt lat="48.69769" lon="1.90336">
        <ele>138.4</ele>
        <time>2026-01-13T09:18:29Z</time>
      </trkpt>
      <trkpt lat="48.69766" lon="1.90341">
        <ele>137.8</ele>
        <time>2026-01-13T09:18:30Z</time>
      </trkpt>
      <trkpt lat="48.69763" lon="1.90349">
        <ele>137.6</ele>
        <time>2026-01-13T09:18:31Z</time>
      </trkpt>
      <trkpt lat="48.69759" lon="1.90359">
        <ele>137</ele>
        <time>2026-01-13T09:18:32Z</time>
      </trkpt>
      <trkpt lat="48.69756" lon="1.90369">
        <ele>137</ele>
        <time>2026-01-13T09:18:33Z</time>
      </trkpt>
      <trkpt lat="48.69753" lon="1.90372">
        <ele>137</ele>
        <time>2026-01-13T09:18:34Z</time>
      </trkpt>
      <trkpt lat="48.69749" lon="1.90383">
        <ele>137</ele>
        <time>2026-01-13T09:18:35Z</time>
      </trkpt>
      <trkpt lat="48.69745" lon="1.90393">
        <ele>136</ele>
        <time>2026-01-13T09:18:36Z</time>
      </trkpt>
      <trkpt lat="48.69741" lon="1.90401">
        <ele>135.2</ele>
        <time>2026-01-13T09:18:37Z</time>
      </trkpt>
      <trkpt lat="48.69737" lon="1.90414">
        <ele>135.2</ele>
        <time>2026-01-13T09:18:38Z</time>
      </trkpt>
      <trkpt lat="48.69733" lon="1.90424">
        <ele>135.2</ele>
        <time>2026-01-13T09:18:39Z</time>
      </trkpt>
      <trkpt lat="48.69729" lon="1.90432">
        <ele>136</ele>
        <time>2026-01-13T09:18:40Z</time>
      </trkpt>
      <trkpt lat="48.69723" lon="1.90443">
        <ele>136</ele>
        <time>2026-01-13T09:18:41Z</time>
      </trkpt>
      <trkpt lat="48.69718" lon="1.90451">
        <ele>136</ele>
        <time>2026-01-13T09:18:42Z</time>
      </trkpt>
      <trkpt lat="48.69712" lon="1.90459">
        <ele>136</ele>
        <time>2026-01-13T09:18:43Z</time>
      </trkpt>
      <trkpt lat="48.69706" lon="1.90468">
        <ele>136</ele>
        <time>2026-01-13T09:18:44Z</time>
      </trkpt>
      <trkpt lat="48.697" lon="1.90475">
        <ele>136</ele>
        <time>2026-01-13T09:18:45Z</time>
      </trkpt>
      <trkpt lat="48.69694" lon="1.90482">
        <ele>135.4</ele>
        <time>2026-01-13T09:18:46Z</time>
      </trkpt>
      <trkpt lat="48.69687" lon="1.90488">
        <ele>134.8</ele>
        <time>2026-01-13T09:18:47Z</time>
      </trkpt>
      <trkpt lat="48.69681" lon="1.90496">
        <ele>134.4</ele>
        <time>2026-01-13T09:18:48Z</time>
      </trkpt>
      <trkpt lat="48.69674" lon="1.90503">
        <ele>133.8</ele>
        <time>2026-01-13T09:18:49Z</time>
      </trkpt>
      <trkpt lat="48.69667" lon="1.90511">
        <ele>133.4</ele>
        <time>2026-01-13T09:18:50Z</time>
      </trkpt>
      <trkpt lat="48.69661" lon="1.90519">
        <ele>132.4</ele>
        <time>2026-01-13T09:18:51Z</time>
      </trkpt>
      <trkpt lat="48.69654" lon="1.90529">
        <ele>131.6</ele>
        <time>2026-01-13T09:18:52Z</time>
      </trkpt>
      <trkpt lat="48.69647" lon="1.9054">
        <ele>130.6</ele>
        <time>2026-01-13T09:18:53Z</time>
      </trkpt>
      <trkpt lat="48.6964" lon="1.90552">
        <ele>130.4</ele>
        <time>2026-01-13T09:18:54Z</time>
      </trkpt>
      <trkpt lat="48.69634" lon="1.90563">
        <ele>130</ele>
        <time>2026-01-13T09:18:55Z</time>
      </trkpt>
      <trkpt lat="48.69629" lon="1.90576">
        <ele>130</ele>
        <time>2026-01-13T09:18:56Z</time>
      </trkpt>
      <trkpt lat="48.69625" lon="1.90584">
        <ele>129.4</ele>
        <time>2026-01-13T09:18:57Z</time>
      </trkpt>
      <trkpt lat="48.6962" lon="1.90594">
        <ele>128.8</ele>
        <time>2026-01-13T09:18:58Z</time>
      </trkpt>
      <trkpt lat="48.69615" lon="1.90605">
        <ele>128.6</ele>
        <time>2026-01-13T09:18:59Z</time>
      </trkpt>
      <trkpt lat="48.69609" lon="1.90616">
        <ele>128.6</ele>
        <time>2026-01-13T09:19:00Z</time>
      </trkpt>
      <trkpt lat="48.69602" lon="1.90628">
        <ele>128.6</ele>
        <time>2026-01-13T09:19:01Z</time>
      </trkpt>
      <trkpt lat="48.69596" lon="1.90638">
        <ele>128.6</ele>
        <time>2026-01-13T09:19:02Z</time>
      </trkpt>
      <trkpt lat="48.6959" lon="1.90647">
        <ele>129.6</ele>
        <time>2026-01-13T09:19:03Z</time>
      </trkpt>
      <trkpt lat="48.69584" lon="1.90654">
        <ele>129.6</ele>
        <time>2026-01-13T09:19:04Z</time>
      </trkpt>
      <trkpt lat="48.69577" lon="1.90662">
        <ele>129.6</ele>
        <time>2026-01-13T09:19:05Z</time>
      </trkpt>
      <trkpt lat="48.6957" lon="1.90674">
        <ele>129.6</ele>
        <time>2026-01-13T09:19:06Z</time>
      </trkpt>
      <trkpt lat="48.69563" lon="1.90683">
        <ele>129.6</ele>
        <time>2026-01-13T09:19:07Z</time>
      </trkpt>
      <trkpt lat="48.69556" lon="1.9069">
        <ele>130.6</ele>
        <time>2026-01-13T09:19:08Z</time>
      </trkpt>
      <trkpt lat="48.69549" lon="1.90696">
        <ele>131.6</ele>
        <time>2026-01-13T09:19:09Z</time>
      </trkpt>
      <trkpt lat="48.69544" lon="1.90701">
        <ele>132.6</ele>
        <time>2026-01-13T09:19:10Z</time>
      </trkpt>
      <trkpt lat="48.69538" lon="1.90706">
        <ele>132.8</ele>
        <time>2026-01-13T09:19:11Z</time>
      </trkpt>
      <trkpt lat="48.69532" lon="1.9071">
        <ele>133.8</ele>
        <time>2026-01-13T09:19:12Z</time>
      </trkpt>
      <trkpt lat="48.69527" lon="1.90714">
        <ele>134.2</ele>
        <time>2026-01-13T09:19:13Z</time>
      </trkpt>
      <trkpt lat="48.69522" lon="1.90718">
        <ele>134.2</ele>
        <time>2026-01-13T09:19:14Z</time>
      </trkpt>
      <trkpt lat="48.69516" lon="1.90723">
        <ele>134.2</ele>
        <time>2026-01-13T09:19:15Z</time>
      </trkpt>
      <trkpt lat="48.69511" lon="1.90727">
        <ele>134.2</ele>
        <time>2026-01-13T09:19:16Z</time>
      </trkpt>
      <trkpt lat="48.69506" lon="1.90731">
        <ele>134.4</ele>
        <time>2026-01-13T09:19:17Z</time>
      </trkpt>
      <trkpt lat="48.69501" lon="1.90736">
        <ele>135</ele>
        <time>2026-01-13T09:19:18Z</time>
      </trkpt>
      <trkpt lat="48.69495" lon="1.9074">
        <ele>135.8</ele>
        <time>2026-01-13T09:19:19Z</time>
      </trkpt>
      <trkpt lat="48.6949" lon="1.90745">
        <ele>136</ele>
        <time>2026-01-13T09:19:20Z</time>
      </trkpt>
      <trkpt lat="48.69485" lon="1.90747">
        <ele>136</ele>
        <time>2026-01-13T09:19:21Z</time>
      </trkpt>
      <trkpt lat="48.69479" lon="1.90751">
        <ele>136.6</ele>
        <time>2026-01-13T09:19:22Z</time>
      </trkpt>
      <trkpt lat="48.69472" lon="1.90754">
        <ele>136.6</ele>
        <time>2026-01-13T09:19:23Z</time>
      </trkpt>
      <trkpt lat="48.69466" lon="1.90756">
        <ele>136.6</ele>
        <time>2026-01-13T09:19:24Z</time>
      </trkpt>
      <trkpt lat="48.6946" lon="1.90757">
        <ele>136.6</ele>
        <time>2026-01-13T09:19:25Z</time>
      </trkpt>
      <trkpt lat="48.69454" lon="1.90758">
        <ele>137.4</ele>
        <time>2026-01-13T09:19:26Z</time>
      </trkpt>
      <trkpt lat="48.69447" lon="1.90759">
        <ele>137.4</ele>
        <time>2026-01-13T09:19:27Z</time>
      </trkpt>
      <trkpt lat="48.69441" lon="1.90759">
        <ele>137.4</ele>
        <time>2026-01-13T09:19:28Z</time>
      </trkpt>
      <trkpt lat="48.69434" lon="1.9076">
        <ele>137.4</ele>
        <time>2026-01-13T09:19:29Z</time>
      </trkpt>
      <trkpt lat="48.69427" lon="1.90761">
        <ele>137.4</ele>
        <time>2026-01-13T09:19:30Z</time>
      </trkpt>
      <trkpt lat="48.69421" lon="1.90761">
        <ele>138.2</ele>
        <time>2026-01-13T09:19:31Z</time>
      </trkpt>
      <trkpt lat="48.69415" lon="1.90761">
        <ele>138.2</ele>
        <time>2026-01-13T09:19:32Z</time>
      </trkpt>
      <trkpt lat="48.69408" lon="1.90763">
        <ele>138.2</ele>
        <time>2026-01-13T09:19:33Z</time>
      </trkpt>
      <trkpt lat="48.69401" lon="1.90766">
        <ele>138.2</ele>
        <time>2026-01-13T09:19:34Z</time>
      </trkpt>
      <trkpt lat="48.69395" lon="1.90768">
        <ele>138.8</ele>
        <time>2026-01-13T09:19:35Z</time>
      </trkpt>
      <trkpt lat="48.69389" lon="1.90771">
        <ele>138.8</ele>
        <time>2026-01-13T09:19:36Z</time>
      </trkpt>
      <trkpt lat="48.69383" lon="1.90773">
        <ele>138.8</ele>
        <time>2026-01-13T09:19:37Z</time>
      </trkpt>
      <trkpt lat="48.69377" lon="1.90777">
        <ele>138.8</ele>
        <time>2026-01-13T09:19:38Z</time>
      </trkpt>
      <trkpt lat="48.69371" lon="1.90781">
        <ele>137.8</ele>
        <time>2026-01-13T09:19:39Z</time>
      </trkpt>
      <trkpt lat="48.69365" lon="1.90785">
        <ele>137.6</ele>
        <time>2026-01-13T09:19:40Z</time>
      </trkpt>
      <trkpt lat="48.69359" lon="1.9079">
        <ele>137</ele>
        <time>2026-01-13T09:19:41Z</time>
      </trkpt>
      <trkpt lat="48.69353" lon="1.90795">
        <ele>137</ele>
        <time>2026-01-13T09:19:42Z</time>
      </trkpt>
      <trkpt lat="48.69347" lon="1.90801">
        <ele>137</ele>
        <time>2026-01-13T09:19:43Z</time>
      </trkpt>
      <trkpt lat="48.69341" lon="1.90808">
        <ele>137</ele>
        <time>2026-01-13T09:19:44Z</time>
      </trkpt>
      <trkpt lat="48.69335" lon="1.90815">
        <ele>137</ele>
        <time>2026-01-13T09:19:45Z</time>
      </trkpt>
      <trkpt lat="48.69329" lon="1.90822">
        <ele>137</ele>
        <time>2026-01-13T09:19:46Z</time>
      </trkpt>
      <trkpt lat="48.69324" lon="1.90829">
        <ele>137</ele>
        <time>2026-01-13T09:19:47Z</time>
      </trkpt>
      <trkpt lat="48.69318" lon="1.90834">
        <ele>137</ele>
        <time>2026-01-13T09:19:48Z</time>
      </trkpt>
      <trkpt lat="48.69313" lon="1.9084">
        <ele>137</ele>
        <time>2026-01-13T09:19:49Z</time>
      </trkpt>
      <trkpt lat="48.69307" lon="1.90848">
        <ele>136</ele>
        <time>2026-01-13T09:19:50Z</time>
      </trkpt>
      <trkpt lat="48.69302" lon="1.90854">
        <ele>136</ele>
        <time>2026-01-13T09:19:51Z</time>
      </trkpt>
      <trkpt lat="48.69296" lon="1.9086">
        <ele>136</ele>
        <time>2026-01-13T09:19:52Z</time>
      </trkpt>
      <trkpt lat="48.69291" lon="1.90866">
        <ele>136</ele>
        <time>2026-01-13T09:19:53Z</time>
      </trkpt>
      <trkpt lat="48.69286" lon="1.90871">
        <ele>136</ele>
        <time>2026-01-13T09:19:54Z</time>
      </trkpt>
      <trkpt lat="48.6928" lon="1.90878">
        <ele>135.6</ele>
        <time>2026-01-13T09:19:55Z</time>
      </trkpt>
      <trkpt lat="48.69275" lon="1.90884">
        <ele>135.4</ele>
        <time>2026-01-13T09:19:56Z</time>
      </trkpt>
      <trkpt lat="48.6927" lon="1.90889">
        <ele>135.4</ele>
        <time>2026-01-13T09:19:57Z</time>
      </trkpt>
      <trkpt lat="48.69264" lon="1.90897">
        <ele>135</ele>
        <time>2026-01-13T09:19:58Z</time>
      </trkpt>
      <trkpt lat="48.69259" lon="1.90903">
        <ele>134.6</ele>
        <time>2026-01-13T09:19:59Z</time>
      </trkpt>
      <trkpt lat="48.69253" lon="1.90909">
        <ele>134.6</ele>
        <time>2026-01-13T09:20:00Z</time>
      </trkpt>
      <trkpt lat="48.69248" lon="1.90917">
        <ele>134.6</ele>
        <time>2026-01-13T09:20:01Z</time>
      </trkpt>
      <trkpt lat="48.69242" lon="1.90923">
        <ele>134.6</ele>
        <time>2026-01-13T09:20:02Z</time>
      </trkpt>
      <trkpt lat="48.69236" lon="1.90929">
        <ele>134.6</ele>
        <time>2026-01-13T09:20:03Z</time>
      </trkpt>
      <trkpt lat="48.6923" lon="1.90937">
        <ele>134</ele>
        <time>2026-01-13T09:20:04Z</time>
      </trkpt>
      <trkpt lat="48.69225" lon="1.90944">
        <ele>133.8</ele>
        <time>2026-01-13T09:20:05Z</time>
      </trkpt>
      <trkpt lat="48.69218" lon="1.90951">
        <ele>133.6</ele>
        <time>2026-01-13T09:20:06Z</time>
      </trkpt>
      <trkpt lat="48.69213" lon="1.90959">
        <ele>132.8</ele>
        <time>2026-01-13T09:20:07Z</time>
      </trkpt>
      <trkpt lat="48.69206" lon="1.90966">
        <ele>132.4</ele>
        <time>2026-01-13T09:20:08Z</time>
      </trkpt>
      <trkpt lat="48.692" lon="1.90974">
        <ele>132.4</ele>
        <time>2026-01-13T09:20:09Z</time>
      </trkpt>
      <trkpt lat="48.69194" lon="1.90982">
        <ele>132.4</ele>
        <time>2026-01-13T09:20:10Z</time>
      </trkpt>
      <trkpt lat="48.69187" lon="1.90989">
        <ele>132.4</ele>
        <time>2026-01-13T09:20:11Z</time>
      </trkpt>
      <trkpt lat="48.69181" lon="1.90996">
        <ele>131.4</ele>
        <time>2026-01-13T09:20:12Z</time>
      </trkpt>
      <trkpt lat="48.69174" lon="1.91003">
        <ele>130.4</ele>
        <time>2026-01-13T09:20:13Z</time>
      </trkpt>
      <trkpt lat="48.69168" lon="1.9101">
        <ele>129.8</ele>
        <time>2026-01-13T09:20:14Z</time>
      </trkpt>
      <trkpt lat="48.69161" lon="1.91016">
        <ele>128.8</ele>
        <time>2026-01-13T09:20:15Z</time>
      </trkpt>
      <trkpt lat="48.69154" lon="1.91023">
        <ele>128.6</ele>
        <time>2026-01-13T09:20:16Z</time>
      </trkpt>
      <trkpt lat="48.69147" lon="1.91031">
        <ele>127.6</ele>
        <time>2026-01-13T09:20:17Z</time>
      </trkpt>
      <trkpt lat="48.6914" lon="1.9104">
        <ele>126.8</ele>
        <time>2026-01-13T09:20:18Z</time>
      </trkpt>
      <trkpt lat="48.69133" lon="1.91049">
        <ele>126</ele>
        <time>2026-01-13T09:20:19Z</time>
      </trkpt>
      <trkpt lat="48.69127" lon="1.91059">
        <ele>125.2</ele>
        <time>2026-01-13T09:20:20Z</time>
      </trkpt>
      <trkpt lat="48.6912" lon="1.91071">
        <ele>124.2</ele>
        <time>2026-01-13T09:20:21Z</time>
      </trkpt>
      <trkpt lat="48.69114" lon="1.91083">
        <ele>123.8</ele>
        <time>2026-01-13T09:20:22Z</time>
      </trkpt>
      <trkpt lat="48.69108" lon="1.91096">
        <ele>123.2</ele>
        <time>2026-01-13T09:20:23Z</time>
      </trkpt>
      <trkpt lat="48.69103" lon="1.9111">
        <ele>122.4</ele>
        <time>2026-01-13T09:20:24Z</time>
      </trkpt>
      <trkpt lat="48.69097" lon="1.91125">
        <ele>121.8</ele>
        <time>2026-01-13T09:20:25Z</time>
      </trkpt>
      <trkpt lat="48.69091" lon="1.91138">
        <ele>120.8</ele>
        <time>2026-01-13T09:20:26Z</time>
      </trkpt>
      <trkpt lat="48.69085" lon="1.91153">
        <ele>120.4</ele>
        <time>2026-01-13T09:20:27Z</time>
      </trkpt>
      <trkpt lat="48.69079" lon="1.91166">
        <ele>119.4</ele>
        <time>2026-01-13T09:20:28Z</time>
      </trkpt>
      <trkpt lat="48.69072" lon="1.91179">
        <ele>119.4</ele>
        <time>2026-01-13T09:20:29Z</time>
      </trkpt>
      <trkpt lat="48.69065" lon="1.91191">
        <ele>119.4</ele>
        <time>2026-01-13T09:20:30Z</time>
      </trkpt>
      <trkpt lat="48.69058" lon="1.91202">
        <ele>119.8</ele>
        <time>2026-01-13T09:20:31Z</time>
      </trkpt>
      <trkpt lat="48.69051" lon="1.91213">
        <ele>120.2</ele>
        <time>2026-01-13T09:20:32Z</time>
      </trkpt>
      <trkpt lat="48.69044" lon="1.91223">
        <ele>120.2</ele>
        <time>2026-01-13T09:20:33Z</time>
      </trkpt>
      <trkpt lat="48.69037" lon="1.91233">
        <ele>120.2</ele>
        <time>2026-01-13T09:20:34Z</time>
      </trkpt>
      <trkpt lat="48.6903" lon="1.91244">
        <ele>120.2</ele>
        <time>2026-01-13T09:20:35Z</time>
      </trkpt>
      <trkpt lat="48.69023" lon="1.91253">
        <ele>120.2</ele>
        <time>2026-01-13T09:20:36Z</time>
      </trkpt>
      <trkpt lat="48.69017" lon="1.91264">
        <ele>121.2</ele>
        <time>2026-01-13T09:20:37Z</time>
      </trkpt>
      <trkpt lat="48.69012" lon="1.91275">
        <ele>121.2</ele>
        <time>2026-01-13T09:20:38Z</time>
      </trkpt>
      <trkpt lat="48.69006" lon="1.91284">
        <ele>121.2</ele>
        <time>2026-01-13T09:20:39Z</time>
      </trkpt>
      <trkpt lat="48.69002" lon="1.91295">
        <ele>121.2</ele>
        <time>2026-01-13T09:20:40Z</time>
      </trkpt>
      <trkpt lat="48.68997" lon="1.91307">
        <ele>121.2</ele>
        <time>2026-01-13T09:20:41Z</time>
      </trkpt>
      <trkpt lat="48.68993" lon="1.91322">
        <ele>121.2</ele>
        <time>2026-01-13T09:20:42Z</time>
      </trkpt>
      <trkpt lat="48.6899" lon="1.91333">
        <ele>121.2</ele>
        <time>2026-01-13T09:20:43Z</time>
      </trkpt>
      <trkpt lat="48.68987" lon="1.91346">
        <ele>121.8</ele>
        <time>2026-01-13T09:20:44Z</time>
      </trkpt>
      <trkpt lat="48.68985" lon="1.91358">
        <ele>122</ele>
        <time>2026-01-13T09:20:45Z</time>
      </trkpt>
      <trkpt lat="48.68982" lon="1.91371">
        <ele>122.4</ele>
        <time>2026-01-13T09:20:46Z</time>
      </trkpt>
      <trkpt lat="48.6898" lon="1.91385">
        <ele>122.4</ele>
        <time>2026-01-13T09:20:47Z</time>
      </trkpt>
      <trkpt lat="48.68978" lon="1.91397">
        <ele>122.4</ele>
        <time>2026-01-13T09:20:48Z</time>
      </trkpt>
      <trkpt lat="48.68976" lon="1.91409">
        <ele>122.4</ele>
        <time>2026-01-13T09:20:49Z</time>
      </trkpt>
      <trkpt lat="48.68975" lon="1.9142">
        <ele>122.4</ele>
        <time>2026-01-13T09:20:50Z</time>
      </trkpt>
      <trkpt lat="48.68973" lon="1.9143">
        <ele>123.4</ele>
        <time>2026-01-13T09:20:51Z</time>
      </trkpt>
      <trkpt lat="48.68972" lon="1.91439">
        <ele>123.8</ele>
        <time>2026-01-13T09:20:52Z</time>
      </trkpt>
      <trkpt lat="48.68971" lon="1.91448">
        <ele>124.4</ele>
        <time>2026-01-13T09:20:53Z</time>
      </trkpt>
      <trkpt lat="48.68969" lon="1.91457">
        <ele>124.6</ele>
        <time>2026-01-13T09:20:54Z</time>
      </trkpt>
      <trkpt lat="48.68968" lon="1.91467">
        <ele>124.6</ele>
        <time>2026-01-13T09:20:55Z</time>
      </trkpt>
      <trkpt lat="48.68966" lon="1.91478">
        <ele>124.6</ele>
        <time>2026-01-13T09:20:56Z</time>
      </trkpt>
      <trkpt lat="48.68964" lon="1.91488">
        <ele>124.6</ele>
        <time>2026-01-13T09:20:57Z</time>
      </trkpt>
      <trkpt lat="48.68963" lon="1.91498">
        <ele>124.6</ele>
        <time>2026-01-13T09:20:58Z</time>
      </trkpt>
      <trkpt lat="48.68961" lon="1.9151">
        <ele>124.6</ele>
        <time>2026-01-13T09:20:59Z</time>
      </trkpt>
      <trkpt lat="48.68959" lon="1.91521">
        <ele>123.6</ele>
        <time>2026-01-13T09:21:00Z</time>
      </trkpt>
      <trkpt lat="48.68958" lon="1.91533">
        <ele>123.2</ele>
        <time>2026-01-13T09:21:01Z</time>
      </trkpt>
      <trkpt lat="48.68956" lon="1.91544">
        <ele>122.8</ele>
        <time>2026-01-13T09:21:02Z</time>
      </trkpt>
      <trkpt lat="48.68954" lon="1.91557">
        <ele>122.6</ele>
        <time>2026-01-13T09:21:03Z</time>
      </trkpt>
      <trkpt lat="48.68953" lon="1.91568">
        <ele>122.6</ele>
        <time>2026-01-13T09:21:04Z</time>
      </trkpt>
      <trkpt lat="48.68951" lon="1.91579">
        <ele>122.6</ele>
        <time>2026-01-13T09:21:05Z</time>
      </trkpt>
      <trkpt lat="48.6895" lon="1.9159">
        <ele>122.6</ele>
        <time>2026-01-13T09:21:06Z</time>
      </trkpt>
      <trkpt lat="48.68948" lon="1.91601">
        <ele>122.6</ele>
        <time>2026-01-13T09:21:07Z</time>
      </trkpt>
      <trkpt lat="48.68946" lon="1.91612">
        <ele>122.6</ele>
        <time>2026-01-13T09:21:08Z</time>
      </trkpt>
      <trkpt lat="48.68945" lon="1.91621">
        <ele>122.6</ele>
        <time>2026-01-13T09:21:09Z</time>
      </trkpt>
      <trkpt lat="48.68943" lon="1.9163">
        <ele>123</ele>
        <time>2026-01-13T09:21:10Z</time>
      </trkpt>
      <trkpt lat="48.68942" lon="1.91637">
        <ele>123</ele>
        <time>2026-01-13T09:21:11Z</time>
      </trkpt>
      <trkpt lat="48.68941" lon="1.91647">
        <ele>123</ele>
        <time>2026-01-13T09:21:12Z</time>
      </trkpt>
      <trkpt lat="48.6894" lon="1.91657">
        <ele>123</ele>
        <time>2026-01-13T09:21:13Z</time>
      </trkpt>
      <trkpt lat="48.68939" lon="1.91664">
        <ele>123</ele>
        <time>2026-01-13T09:21:14Z</time>
      </trkpt>
      <trkpt lat="48.68939" lon="1.91675">
        <ele>122</ele>
        <time>2026-01-13T09:21:15Z</time>
      </trkpt>
      <trkpt lat="48.68939" lon="1.91687">
        <ele>122</ele>
        <time>2026-01-13T09:21:16Z</time>
      </trkpt>
      <trkpt lat="48.68939" lon="1.91699">
        <ele>122</ele>
        <time>2026-01-13T09:21:17Z</time>
      </trkpt>
      <trkpt lat="48.68938" lon="1.91712">
        <ele>122</ele>
        <time>2026-01-13T09:21:18Z</time>
      </trkpt>
      <trkpt lat="48.68936" lon="1.91724">
        <ele>122.6</ele>
        <time>2026-01-13T09:21:19Z</time>
      </trkpt>
      <trkpt lat="48.68934" lon="1.91734">
        <ele>122.6</ele>
        <time>2026-01-13T09:21:20Z</time>
      </trkpt>
      <trkpt lat="48.68931" lon="1.91745">
        <ele>122.6</ele>
        <time>2026-01-13T09:21:21Z</time>
      </trkpt>
      <trkpt lat="48.68927" lon="1.91752">
        <ele>122.6</ele>
        <time>2026-01-13T09:21:22Z</time>
      </trkpt>
      <trkpt lat="48.68922" lon="1.91759">
        <ele>122.6</ele>
        <time>2026-01-13T09:21:23Z</time>
      </trkpt>
      <trkpt lat="48.68917" lon="1.91765">
        <ele>123.2</ele>
        <time>2026-01-13T09:21:24Z</time>
      </trkpt>
      <trkpt lat="48.68912" lon="1.9177">
        <ele>123.4</ele>
        <time>2026-01-13T09:21:25Z</time>
      </trkpt>
      <trkpt lat="48.68907" lon="1.91773">
        <ele>123.4</ele>
        <time>2026-01-13T09:21:26Z</time>
      </trkpt>
      <trkpt lat="48.68901" lon="1.91777">
        <ele>123.4</ele>
        <time>2026-01-13T09:21:27Z</time>
      </trkpt>
      <trkpt lat="48.68896" lon="1.91781">
        <ele>123.4</ele>
        <time>2026-01-13T09:21:28Z</time>
      </trkpt>
      <trkpt lat="48.6889" lon="1.91786">
        <ele>124</ele>
        <time>2026-01-13T09:21:29Z</time>
      </trkpt>
      <trkpt lat="48.68885" lon="1.9179">
        <ele>124.6</ele>
        <time>2026-01-13T09:21:30Z</time>
      </trkpt>
      <trkpt lat="48.6888" lon="1.91795">
        <ele>124.8</ele>
        <time>2026-01-13T09:21:31Z</time>
      </trkpt>
      <trkpt lat="48.68875" lon="1.91801">
        <ele>125.4</ele>
        <time>2026-01-13T09:21:32Z</time>
      </trkpt>
      <trkpt lat="48.68871" lon="1.91807">
        <ele>125.8</ele>
        <time>2026-01-13T09:21:33Z</time>
      </trkpt>
      <trkpt lat="48.68867" lon="1.91812">
        <ele>126</ele>
        <time>2026-01-13T09:21:34Z</time>
      </trkpt>
      <trkpt lat="48.68863" lon="1.91818">
        <ele>126.4</ele>
        <time>2026-01-13T09:21:35Z</time>
      </trkpt>
      <trkpt lat="48.6886" lon="1.91822">
        <ele>126.6</ele>
        <time>2026-01-13T09:21:36Z</time>
      </trkpt>
      <trkpt lat="48.68856" lon="1.91828">
        <ele>126.6</ele>
        <time>2026-01-13T09:21:37Z</time>
      </trkpt>
      <trkpt lat="48.68853" lon="1.91834">
        <ele>127</ele>
        <time>2026-01-13T09:21:38Z</time>
      </trkpt>
      <trkpt lat="48.68849" lon="1.91838">
        <ele>127.4</ele>
        <time>2026-01-13T09:21:39Z</time>
      </trkpt>
      <trkpt lat="48.68845" lon="1.91843">
        <ele>127.6</ele>
        <time>2026-01-13T09:21:40Z</time>
      </trkpt>
      <trkpt lat="48.68841" lon="1.91849">
        <ele>128.4</ele>
        <time>2026-01-13T09:21:41Z</time>
      </trkpt>
      <trkpt lat="48.68837" lon="1.91854">
        <ele>128.6</ele>
        <time>2026-01-13T09:21:42Z</time>
      </trkpt>
      <trkpt lat="48.68834" lon="1.91859">
        <ele>129</ele>
        <time>2026-01-13T09:21:43Z</time>
      </trkpt>
      <trkpt lat="48.6883" lon="1.91864">
        <ele>129.4</ele>
        <time>2026-01-13T09:21:44Z</time>
      </trkpt>
      <trkpt lat="48.68826" lon="1.9187">
        <ele>129.6</ele>
        <time>2026-01-13T09:21:45Z</time>
      </trkpt>
      <trkpt lat="48.68822" lon="1.91874">
        <ele>130.2</ele>
        <time>2026-01-13T09:21:46Z</time>
      </trkpt>
      <trkpt lat="48.68819" lon="1.91879">
        <ele>130.6</ele>
        <time>2026-01-13T09:21:47Z</time>
      </trkpt>
      <trkpt lat="48.68816" lon="1.91882">
        <ele>131</ele>
        <time>2026-01-13T09:21:48Z</time>
      </trkpt>
      <trkpt lat="48.68813" lon="1.91886">
        <ele>131.4</ele>
        <time>2026-01-13T09:21:49Z</time>
      </trkpt>
      <trkpt lat="48.68811" lon="1.91891">
        <ele>131.4</ele>
        <time>2026-01-13T09:21:50Z</time>
      </trkpt>
      <trkpt lat="48.68807" lon="1.91897">
        <ele>131.4</ele>
        <time>2026-01-13T09:21:51Z</time>
      </trkpt>
      <trkpt lat="48.68804" lon="1.91903">
        <ele>131.2</ele>
        <time>2026-01-13T09:21:52Z</time>
      </trkpt>
      <trkpt lat="48.68801" lon="1.91909">
        <ele>131.2</ele>
        <time>2026-01-13T09:21:53Z</time>
      </trkpt>
      <trkpt lat="48.68797" lon="1.91915">
        <ele>131.2</ele>
        <time>2026-01-13T09:21:54Z</time>
      </trkpt>
      <trkpt lat="48.68794" lon="1.91923">
        <ele>131.6</ele>
        <time>2026-01-13T09:21:55Z</time>
      </trkpt>
      <trkpt lat="48.68791" lon="1.91928">
        <ele>131.6</ele>
        <time>2026-01-13T09:21:56Z</time>
      </trkpt>
      <trkpt lat="48.68788" lon="1.91934">
        <ele>131.6</ele>
        <time>2026-01-13T09:21:57Z</time>
      </trkpt>
      <trkpt lat="48.68784" lon="1.91941">
        <ele>131.6</ele>
        <time>2026-01-13T09:21:58Z</time>
      </trkpt>
      <trkpt lat="48.68781" lon="1.91948">
        <ele>131.6</ele>
        <time>2026-01-13T09:21:59Z</time>
      </trkpt>
      <trkpt lat="48.68777" lon="1.91956">
        <ele>131.6</ele>
        <time>2026-01-13T09:22:00Z</time>
      </trkpt>
      <trkpt lat="48.68774" lon="1.91963">
        <ele>131.6</ele>
        <time>2026-01-13T09:22:01Z</time>
      </trkpt>
      <trkpt lat="48.6877" lon="1.91971">
        <ele>131.6</ele>
        <time>2026-01-13T09:22:02Z</time>
      </trkpt>
      <trkpt lat="48.68767" lon="1.91978">
        <ele>130.6</ele>
        <time>2026-01-13T09:22:03Z</time>
      </trkpt>
      <trkpt lat="48.68763" lon="1.91985">
        <ele>130.6</ele>
        <time>2026-01-13T09:22:04Z</time>
      </trkpt>
      <trkpt lat="48.6876" lon="1.91993">
        <ele>130</ele>
        <time>2026-01-13T09:22:05Z</time>
      </trkpt>
      <trkpt lat="48.68756" lon="1.92001">
        <ele>129.6</ele>
        <time>2026-01-13T09:22:06Z</time>
      </trkpt>
      <trkpt lat="48.68753" lon="1.92008">
        <ele>129.6</ele>
        <time>2026-01-13T09:22:07Z</time>
      </trkpt>
      <trkpt lat="48.68749" lon="1.92016">
        <ele>129.6</ele>
        <time>2026-01-13T09:22:08Z</time>
      </trkpt>
      <trkpt lat="48.68744" lon="1.92024">
        <ele>129.6</ele>
        <time>2026-01-13T09:22:09Z</time>
      </trkpt>
      <trkpt lat="48.6874" lon="1.92031">
        <ele>129.6</ele>
        <time>2026-01-13T09:22:10Z</time>
      </trkpt>
      <trkpt lat="48.68736" lon="1.92038">
        <ele>129.6</ele>
        <time>2026-01-13T09:22:11Z</time>
      </trkpt>
      <trkpt lat="48.68732" lon="1.92046">
        <ele>129.6</ele>
        <time>2026-01-13T09:22:12Z</time>
      </trkpt>
      <trkpt lat="48.68728" lon="1.92055">
        <ele>130.6</ele>
        <time>2026-01-13T09:22:13Z</time>
      </trkpt>
      <trkpt lat="48.68724" lon="1.92063">
        <ele>130.6</ele>
        <time>2026-01-13T09:22:14Z</time>
      </trkpt>
      <trkpt lat="48.6872" lon="1.92069">
        <ele>131.6</ele>
        <time>2026-01-13T09:22:15Z</time>
      </trkpt>
      <trkpt lat="48.68716" lon="1.92075">
        <ele>131.6</ele>
        <time>2026-01-13T09:22:16Z</time>
      </trkpt>
      <trkpt lat="48.68712" lon="1.92081">
        <ele>131.6</ele>
        <time>2026-01-13T09:22:17Z</time>
      </trkpt>
      <trkpt lat="48.68709" lon="1.92088">
        <ele>131.6</ele>
        <time>2026-01-13T09:22:18Z</time>
      </trkpt>
      <trkpt lat="48.68705" lon="1.92093">
        <ele>131.6</ele>
        <time>2026-01-13T09:22:19Z</time>
      </trkpt>
      <trkpt lat="48.687" lon="1.92098">
        <ele>131.6</ele>
        <time>2026-01-13T09:22:20Z</time>
      </trkpt>
      <trkpt lat="48.68696" lon="1.92105">
        <ele>130.6</ele>
        <time>2026-01-13T09:22:21Z</time>
      </trkpt>
      <trkpt lat="48.68691" lon="1.92111">
        <ele>130</ele>
        <time>2026-01-13T09:22:22Z</time>
      </trkpt>
      <trkpt lat="48.68686" lon="1.92119">
        <ele>129.8</ele>
        <time>2026-01-13T09:22:23Z</time>
      </trkpt>
      <trkpt lat="48.68681" lon="1.92126">
        <ele>129.2</ele>
        <time>2026-01-13T09:22:24Z</time>
      </trkpt>
      <trkpt lat="48.68676" lon="1.92133">
        <ele>128.6</ele>
        <time>2026-01-13T09:22:25Z</time>
      </trkpt>
      <trkpt lat="48.6867" lon="1.92141">
        <ele>127.8</ele>
        <time>2026-01-13T09:22:26Z</time>
      </trkpt>
      <trkpt lat="48.68665" lon="1.92148">
        <ele>127.2</ele>
        <time>2026-01-13T09:22:27Z</time>
      </trkpt>
      <trkpt lat="48.6866" lon="1.92156">
        <ele>126.4</ele>
        <time>2026-01-13T09:22:28Z</time>
      </trkpt>
      <trkpt lat="48.68655" lon="1.92164">
        <ele>126.4</ele>
        <time>2026-01-13T09:22:29Z</time>
      </trkpt>
      <trkpt lat="48.6865" lon="1.92173">
        <ele>126.4</ele>
        <time>2026-01-13T09:22:30Z</time>
      </trkpt>
      <trkpt lat="48.68644" lon="1.92181">
        <ele>126.4</ele>
        <time>2026-01-13T09:22:31Z</time>
      </trkpt>
      <trkpt lat="48.68638" lon="1.9219">
        <ele>125.4</ele>
        <time>2026-01-13T09:22:32Z</time>
      </trkpt>
      <trkpt lat="48.68633" lon="1.92201">
        <ele>124.8</ele>
        <time>2026-01-13T09:22:33Z</time>
      </trkpt>
      <trkpt lat="48.68627" lon="1.92209">
        <ele>124.4</ele>
        <time>2026-01-13T09:22:34Z</time>
      </trkpt>
      <trkpt lat="48.68621" lon="1.9222">
        <ele>124.4</ele>
        <time>2026-01-13T09:22:35Z</time>
      </trkpt>
      <trkpt lat="48.68615" lon="1.92232">
        <ele>124.4</ele>
        <time>2026-01-13T09:22:36Z</time>
      </trkpt>
      <trkpt lat="48.6861" lon="1.92243">
        <ele>124.4</ele>
        <time>2026-01-13T09:22:37Z</time>
      </trkpt>
      <trkpt lat="48.68606" lon="1.92254">
        <ele>123.8</ele>
        <time>2026-01-13T09:22:38Z</time>
      </trkpt>
      <trkpt lat="48.68602" lon="1.92266">
        <ele>123.8</ele>
        <time>2026-01-13T09:22:39Z</time>
      </trkpt>
      <trkpt lat="48.68598" lon="1.92278">
        <ele>123.6</ele>
        <time>2026-01-13T09:22:40Z</time>
      </trkpt>
      <trkpt lat="48.68595" lon="1.9229">
        <ele>123.6</ele>
        <time>2026-01-13T09:22:41Z</time>
      </trkpt>
      <trkpt lat="48.68591" lon="1.92301">
        <ele>123.6</ele>
        <time>2026-01-13T09:22:42Z</time>
      </trkpt>
      <trkpt lat="48.68588" lon="1.92312">
        <ele>124.6</ele>
        <time>2026-01-13T09:22:43Z</time>
      </trkpt>
      <trkpt lat="48.68585" lon="1.92321">
        <ele>125.6</ele>
        <time>2026-01-13T09:22:44Z</time>
      </trkpt>
      <trkpt lat="48.68582" lon="1.9233">
        <ele>126.4</ele>
        <time>2026-01-13T09:22:45Z</time>
      </trkpt>
      <trkpt lat="48.6858" lon="1.92338">
        <ele>127</ele>
        <time>2026-01-13T09:22:46Z</time>
      </trkpt>
      <trkpt lat="48.68577" lon="1.92347">
        <ele>127</ele>
        <time>2026-01-13T09:22:47Z</time>
      </trkpt>
      <trkpt lat="48.68575" lon="1.92355">
        <ele>127.6</ele>
        <time>2026-01-13T09:22:48Z</time>
      </trkpt>
      <trkpt lat="48.68572" lon="1.92363">
        <ele>127.8</ele>
        <time>2026-01-13T09:22:49Z</time>
      </trkpt>
      <trkpt lat="48.68569" lon="1.92369">
        <ele>128</ele>
        <time>2026-01-13T09:22:50Z</time>
      </trkpt>
      <trkpt lat="48.68566" lon="1.92377">
        <ele>128</ele>
        <time>2026-01-13T09:22:51Z</time>
      </trkpt>
      <trkpt lat="48.68564" lon="1.92384">
        <ele>128.4</ele>
        <time>2026-01-13T09:22:52Z</time>
      </trkpt>
      <trkpt lat="48.68563" lon="1.92389">
        <ele>128.8</ele>
        <time>2026-01-13T09:22:53Z</time>
      </trkpt>
      <trkpt lat="48.6856" lon="1.92396">
        <ele>128.8</ele>
        <time>2026-01-13T09:22:54Z</time>
      </trkpt>
      <trkpt lat="48.68558" lon="1.92403">
        <ele>128.8</ele>
        <time>2026-01-13T09:22:55Z</time>
      </trkpt>
      <trkpt lat="48.68556" lon="1.9241">
        <ele>127.8</ele>
        <time>2026-01-13T09:22:56Z</time>
      </trkpt>
      <trkpt lat="48.68553" lon="1.92418">
        <ele>127.8</ele>
        <time>2026-01-13T09:22:57Z</time>
      </trkpt>
      <trkpt lat="48.6855" lon="1.92426">
        <ele>127.4</ele>
        <time>2026-01-13T09:22:58Z</time>
      </trkpt>
      <trkpt lat="48.68548" lon="1.92436">
        <ele>126.6</ele>
        <time>2026-01-13T09:22:59Z</time>
      </trkpt>
      <trkpt lat="48.68546" lon="1.92445">
        <ele>125.8</ele>
        <time>2026-01-13T09:23:00Z</time>
      </trkpt>
      <trkpt lat="48.68543" lon="1.92456">
        <ele>125.4</ele>
        <time>2026-01-13T09:23:01Z</time>
      </trkpt>
      <trkpt lat="48.6854" lon="1.92467">
        <ele>124.6</ele>
        <time>2026-01-13T09:23:02Z</time>
      </trkpt>
      <trkpt lat="48.68538" lon="1.92478">
        <ele>124.2</ele>
        <time>2026-01-13T09:23:03Z</time>
      </trkpt>
      <trkpt lat="48.68535" lon="1.92488">
        <ele>123.8</ele>
        <time>2026-01-13T09:23:04Z</time>
      </trkpt>
      <trkpt lat="48.68533" lon="1.925">
        <ele>123.4</ele>
        <time>2026-01-13T09:23:05Z</time>
      </trkpt>
      <trkpt lat="48.6853" lon="1.92515">
        <ele>122.8</ele>
        <time>2026-01-13T09:23:06Z</time>
      </trkpt>
      <trkpt lat="48.68527" lon="1.92527">
        <ele>122.8</ele>
        <time>2026-01-13T09:23:07Z</time>
      </trkpt>
      <trkpt lat="48.68524" lon="1.92538">
        <ele>122.8</ele>
        <time>2026-01-13T09:23:08Z</time>
      </trkpt>
      <trkpt lat="48.68521" lon="1.9255">
        <ele>122.8</ele>
        <time>2026-01-13T09:23:09Z</time>
      </trkpt>
      <trkpt lat="48.68517" lon="1.9256">
        <ele>122.8</ele>
        <time>2026-01-13T09:23:10Z</time>
      </trkpt>
      <trkpt lat="48.68514" lon="1.92572">
        <ele>122.8</ele>
        <time>2026-01-13T09:23:11Z</time>
      </trkpt>
      <trkpt lat="48.68511" lon="1.92585">
        <ele>122.6</ele>
        <time>2026-01-13T09:23:12Z</time>
      </trkpt>
      <trkpt lat="48.68507" lon="1.92596">
        <ele>122.6</ele>
        <time>2026-01-13T09:23:13Z</time>
      </trkpt>
      <trkpt lat="48.68504" lon="1.92607">
        <ele>122.6</ele>
        <time>2026-01-13T09:23:14Z</time>
      </trkpt>
      <trkpt lat="48.685" lon="1.92618">
        <ele>122.6</ele>
        <time>2026-01-13T09:23:15Z</time>
      </trkpt>
      <trkpt lat="48.68496" lon="1.92627">
        <ele>122.6</ele>
        <time>2026-01-13T09:23:16Z</time>
      </trkpt>
      <trkpt lat="48.68491" lon="1.92635">
        <ele>122.6</ele>
        <time>2026-01-13T09:23:17Z</time>
      </trkpt>
      <trkpt lat="48.68486" lon="1.92644">
        <ele>123.6</ele>
        <time>2026-01-13T09:23:18Z</time>
      </trkpt>
      <trkpt lat="48.68482" lon="1.92652">
        <ele>123.8</ele>
        <time>2026-01-13T09:23:19Z</time>
      </trkpt>
      <trkpt lat="48.68478" lon="1.9266">
        <ele>124</ele>
        <time>2026-01-13T09:23:20Z</time>
      </trkpt>
      <trkpt lat="48.68474" lon="1.92667">
        <ele>124.6</ele>
        <time>2026-01-13T09:23:21Z</time>
      </trkpt>
      <trkpt lat="48.6847" lon="1.92674">
        <ele>124.8</ele>
        <time>2026-01-13T09:23:22Z</time>
      </trkpt>
      <trkpt lat="48.68466" lon="1.9268">
        <ele>124.8</ele>
        <time>2026-01-13T09:23:23Z</time>
      </trkpt>
      <trkpt lat="48.68462" lon="1.92687">
        <ele>124.8</ele>
        <time>2026-01-13T09:23:24Z</time>
      </trkpt>
      <trkpt lat="48.68458" lon="1.92693">
        <ele>124.8</ele>
        <time>2026-01-13T09:23:25Z</time>
      </trkpt>
      <trkpt lat="48.68454" lon="1.927">
        <ele>124.8</ele>
        <time>2026-01-13T09:23:26Z</time>
      </trkpt>
      <trkpt lat="48.68451" lon="1.92707">
        <ele>124.8</ele>
        <time>2026-01-13T09:23:27Z</time>
      </trkpt>
      <trkpt lat="48.68447" lon="1.92714">
        <ele>124.8</ele>
        <time>2026-01-13T09:23:28Z</time>
      </trkpt>
      <trkpt lat="48.68444" lon="1.9272">
        <ele>125.8</ele>
        <time>2026-01-13T09:23:29Z</time>
      </trkpt>
      <trkpt lat="48.68441" lon="1.92725">
        <ele>126.6</ele>
        <time>2026-01-13T09:23:30Z</time>
      </trkpt>
      <trkpt lat="48.68438" lon="1.92731">
        <ele>126.6</ele>
        <time>2026-01-13T09:23:31Z</time>
      </trkpt>
      <trkpt lat="48.68435" lon="1.92736">
        <ele>127.4</ele>
        <time>2026-01-13T09:23:32Z</time>
      </trkpt>
      <trkpt lat="48.68433" lon="1.92741">
        <ele>127.4</ele>
        <time>2026-01-13T09:23:33Z</time>
      </trkpt>
      <trkpt lat="48.6843" lon="1.92746">
        <ele>127.4</ele>
        <time>2026-01-13T09:23:34Z</time>
      </trkpt>
      <trkpt lat="48.68427" lon="1.92751">
        <ele>127.4</ele>
        <time>2026-01-13T09:23:35Z</time>
      </trkpt>
      <trkpt lat="48.68424" lon="1.92758">
        <ele>128</ele>
        <time>2026-01-13T09:23:36Z</time>
      </trkpt>
      <trkpt lat="48.68422" lon="1.92762">
        <ele>128.4</ele>
        <time>2026-01-13T09:23:37Z</time>
      </trkpt>
      <trkpt lat="48.68419" lon="1.92767">
        <ele>128.4</ele>
        <time>2026-01-13T09:23:38Z</time>
      </trkpt>
      <trkpt lat="48.68417" lon="1.92771">
        <ele>128.4</ele>
        <time>2026-01-13T09:23:39Z</time>
      </trkpt>
      <trkpt lat="48.68414" lon="1.92775">
        <ele>128.4</ele>
        <time>2026-01-13T09:23:40Z</time>
      </trkpt>
      <trkpt lat="48.68412" lon="1.9278">
        <ele>128.4</ele>
        <time>2026-01-13T09:23:41Z</time>
      </trkpt>
      <trkpt lat="48.68409" lon="1.92785">
        <ele>128.4</ele>
        <time>2026-01-13T09:23:42Z</time>
      </trkpt>
      <trkpt lat="48.68407" lon="1.92791">
        <ele>128.4</ele>
        <time>2026-01-13T09:23:43Z</time>
      </trkpt>
      <trkpt lat="48.68404" lon="1.92795">
        <ele>129.2</ele>
        <time>2026-01-13T09:23:44Z</time>
      </trkpt>
      <trkpt lat="48.68403" lon="1.92798">
        <ele>129.4</ele>
        <time>2026-01-13T09:23:45Z</time>
      </trkpt>
      <trkpt lat="48.684" lon="1.92802">
        <ele>129.6</ele>
        <time>2026-01-13T09:23:46Z</time>
      </trkpt>
      <trkpt lat="48.68398" lon="1.92807">
        <ele>130.2</ele>
        <time>2026-01-13T09:23:47Z</time>
      </trkpt>
      <trkpt lat="48.68395" lon="1.92812">
        <ele>130.2</ele>
        <time>2026-01-13T09:23:48Z</time>
      </trkpt>
      <trkpt lat="48.68392" lon="1.92816">
        <ele>130.2</ele>
        <time>2026-01-13T09:23:49Z</time>
      </trkpt>
      <trkpt lat="48.6839" lon="1.92822">
        <ele>130.2</ele>
        <time>2026-01-13T09:23:50Z</time>
      </trkpt>
      <trkpt lat="48.68387" lon="1.92827">
        <ele>130.8</ele>
        <time>2026-01-13T09:23:51Z</time>
      </trkpt>
      <trkpt lat="48.68384" lon="1.92833">
        <ele>131.4</ele>
        <time>2026-01-13T09:23:52Z</time>
      </trkpt>
      <trkpt lat="48.68382" lon="1.92838">
        <ele>131.4</ele>
        <time>2026-01-13T09:23:53Z</time>
      </trkpt>
      <trkpt lat="48.68379" lon="1.92843">
        <ele>131.4</ele>
        <time>2026-01-13T09:23:54Z</time>
      </trkpt>
      <trkpt lat="48.68376" lon="1.92848">
        <ele>131.4</ele>
        <time>2026-01-13T09:23:55Z</time>
      </trkpt>
      <trkpt lat="48.68374" lon="1.92853">
        <ele>131.6</ele>
        <time>2026-01-13T09:23:56Z</time>
      </trkpt>
      <trkpt lat="48.68371" lon="1.92858">
        <ele>132.2</ele>
        <time>2026-01-13T09:23:57Z</time>
      </trkpt>
      <trkpt lat="48.68368" lon="1.92863">
        <ele>132.2</ele>
        <time>2026-01-13T09:23:58Z</time>
      </trkpt>
      <trkpt lat="48.68365" lon="1.92867">
        <ele>132.2</ele>
        <time>2026-01-13T09:23:59Z</time>
      </trkpt>
      <trkpt lat="48.68363" lon="1.9287">
        <ele>132.2</ele>
        <time>2026-01-13T09:24:00Z</time>
      </trkpt>
      <trkpt lat="48.6836" lon="1.92874">
        <ele>133</ele>
        <time>2026-01-13T09:24:01Z</time>
      </trkpt>
      <trkpt lat="48.68357" lon="1.92878">
        <ele>133.8</ele>
        <time>2026-01-13T09:24:02Z</time>
      </trkpt>
      <trkpt lat="48.68354" lon="1.92882">
        <ele>133.8</ele>
        <time>2026-01-13T09:24:03Z</time>
      </trkpt>
      <trkpt lat="48.68351" lon="1.92886">
        <ele>133.8</ele>
        <time>2026-01-13T09:24:04Z</time>
      </trkpt>
      <trkpt lat="48.68349" lon="1.9289">
        <ele>133.8</ele>
        <time>2026-01-13T09:24:05Z</time>
      </trkpt>
      <trkpt lat="48.68346" lon="1.92894">
        <ele>134.8</ele>
        <time>2026-01-13T09:24:06Z</time>
      </trkpt>
      <trkpt lat="48.68343" lon="1.92898">
        <ele>135</ele>
        <time>2026-01-13T09:24:07Z</time>
      </trkpt>
      <trkpt lat="48.6834" lon="1.92901">
        <ele>135</ele>
        <time>2026-01-13T09:24:08Z</time>
      </trkpt>
      <trkpt lat="48.68337" lon="1.92904">
        <ele>135.6</ele>
        <time>2026-01-13T09:24:09Z</time>
      </trkpt>
      <trkpt lat="48.68334" lon="1.92908">
        <ele>135.6</ele>
        <time>2026-01-13T09:24:10Z</time>
      </trkpt>
      <trkpt lat="48.68331" lon="1.92912">
        <ele>136</ele>
        <time>2026-01-13T09:24:11Z</time>
      </trkpt>
      <trkpt lat="48.68328" lon="1.92916">
        <ele>136</ele>
        <time>2026-01-13T09:24:12Z</time>
      </trkpt>
      <trkpt lat="48.68325" lon="1.92919">
        <ele>136.4</ele>
        <time>2026-01-13T09:24:13Z</time>
      </trkpt>
      <trkpt lat="48.68322" lon="1.92922">
        <ele>136.8</ele>
        <time>2026-01-13T09:24:14Z</time>
      </trkpt>
      <trkpt lat="48.68319" lon="1.92926">
        <ele>137.2</ele>
        <time>2026-01-13T09:24:15Z</time>
      </trkpt>
      <trkpt lat="48.68316" lon="1.9293">
        <ele>137.4</ele>
        <time>2026-01-13T09:24:16Z</time>
      </trkpt>
      <trkpt lat="48.68313" lon="1.92933">
        <ele>137.8</ele>
        <time>2026-01-13T09:24:17Z</time>
      </trkpt>
      <trkpt lat="48.68311" lon="1.92938">
        <ele>137.8</ele>
        <time>2026-01-13T09:24:18Z</time>
      </trkpt>
      <trkpt lat="48.68308" lon="1.92941">
        <ele>137.8</ele>
        <time>2026-01-13T09:24:19Z</time>
      </trkpt>
      <trkpt lat="48.68306" lon="1.92945">
        <ele>137.8</ele>
        <time>2026-01-13T09:24:20Z</time>
      </trkpt>
      <trkpt lat="48.68303" lon="1.92949">
        <ele>137.8</ele>
        <time>2026-01-13T09:24:21Z</time>
      </trkpt>
      <trkpt lat="48.68301" lon="1.92952">
        <ele>138.8</ele>
        <time>2026-01-13T09:24:22Z</time>
      </trkpt>
      <trkpt lat="48.68299" lon="1.92955">
        <ele>139.2</ele>
        <time>2026-01-13T09:24:23Z</time>
      </trkpt>
      <trkpt lat="48.68296" lon="1.92959">
        <ele>139.4</ele>
        <time>2026-01-13T09:24:24Z</time>
      </trkpt>
      <trkpt lat="48.68295" lon="1.92962">
        <ele>139.4</ele>
        <time>2026-01-13T09:24:25Z</time>
      </trkpt>
      <trkpt lat="48.68293" lon="1.92965">
        <ele>139.4</ele>
        <time>2026-01-13T09:24:26Z</time>
      </trkpt>
      <trkpt lat="48.68291" lon="1.92968">
        <ele>139.4</ele>
        <time>2026-01-13T09:24:27Z</time>
      </trkpt>
      <trkpt lat="48.68289" lon="1.92971">
        <ele>140.4</ele>
        <time>2026-01-13T09:24:28Z</time>
      </trkpt>
      <trkpt lat="48.68286" lon="1.92973">
        <ele>140.4</ele>
        <time>2026-01-13T09:24:29Z</time>
      </trkpt>
      <trkpt lat="48.68284" lon="1.92977">
        <ele>140.8</ele>
        <time>2026-01-13T09:24:30Z</time>
      </trkpt>
      <trkpt lat="48.68282" lon="1.9298">
        <ele>141</ele>
        <time>2026-01-13T09:24:31Z</time>
      </trkpt>
      <trkpt lat="48.6828" lon="1.92984">
        <ele>141.4</ele>
        <time>2026-01-13T09:24:32Z</time>
      </trkpt>
      <trkpt lat="48.68278" lon="1.92988">
        <ele>141.4</ele>
        <time>2026-01-13T09:24:33Z</time>
      </trkpt>
      <trkpt lat="48.68275" lon="1.92991">
        <ele>141.4</ele>
        <time>2026-01-13T09:24:34Z</time>
      </trkpt>
      <trkpt lat="48.68273" lon="1.92995">
        <ele>141.4</ele>
        <time>2026-01-13T09:24:35Z</time>
      </trkpt>
      <trkpt lat="48.6827" lon="1.92999">
        <ele>142.4</ele>
        <time>2026-01-13T09:24:36Z</time>
      </trkpt>
      <trkpt lat="48.68268" lon="1.93002">
        <ele>142.6</ele>
        <time>2026-01-13T09:24:37Z</time>
      </trkpt>
      <trkpt lat="48.68265" lon="1.93007">
        <ele>143</ele>
        <time>2026-01-13T09:24:38Z</time>
      </trkpt>
      <trkpt lat="48.68262" lon="1.9301">
        <ele>143.2</ele>
        <time>2026-01-13T09:24:39Z</time>
      </trkpt>
      <trkpt lat="48.68259" lon="1.93015">
        <ele>143.2</ele>
        <time>2026-01-13T09:24:40Z</time>
      </trkpt>
      <trkpt lat="48.68257" lon="1.93019">
        <ele>143.8</ele>
        <time>2026-01-13T09:24:41Z</time>
      </trkpt>
      <trkpt lat="48.68254" lon="1.93023">
        <ele>144.4</ele>
        <time>2026-01-13T09:24:42Z</time>
      </trkpt>
      <trkpt lat="48.68252" lon="1.93027">
        <ele>144.4</ele>
        <time>2026-01-13T09:24:43Z</time>
      </trkpt>
      <trkpt lat="48.68249" lon="1.93031">
        <ele>144.4</ele>
        <time>2026-01-13T09:24:44Z</time>
      </trkpt>
      <trkpt lat="48.68247" lon="1.93035">
        <ele>144.4</ele>
        <time>2026-01-13T09:24:45Z</time>
      </trkpt>
      <trkpt lat="48.68244" lon="1.9304">
        <ele>145.4</ele>
        <time>2026-01-13T09:24:46Z</time>
      </trkpt>
      <trkpt lat="48.68242" lon="1.93045">
        <ele>145.6</ele>
        <time>2026-01-13T09:24:47Z</time>
      </trkpt>
      <trkpt lat="48.6824" lon="1.93049">
        <ele>145.8</ele>
        <time>2026-01-13T09:24:48Z</time>
      </trkpt>
      <trkpt lat="48.68238" lon="1.93054">
        <ele>145.8</ele>
        <time>2026-01-13T09:24:49Z</time>
      </trkpt>
      <trkpt lat="48.68236" lon="1.9306">
        <ele>146</ele>
        <time>2026-01-13T09:24:50Z</time>
      </trkpt>
      <trkpt lat="48.68235" lon="1.93067">
        <ele>146.4</ele>
        <time>2026-01-13T09:24:51Z</time>
      </trkpt>
      <trkpt lat="48.68235" lon="1.93073">
        <ele>146.4</ele>
        <time>2026-01-13T09:24:52Z</time>
      </trkpt>
      <trkpt lat="48.68234" lon="1.93079">
        <ele>146.4</ele>
        <time>2026-01-13T09:24:53Z</time>
      </trkpt>
      <trkpt lat="48.68233" lon="1.93086">
        <ele>146.8</ele>
        <time>2026-01-13T09:24:54Z</time>
      </trkpt>
      <trkpt lat="48.68233" lon="1.93094">
        <ele>147</ele>
        <time>2026-01-13T09:24:55Z</time>
      </trkpt>
      <trkpt lat="48.68231" lon="1.931">
        <ele>147.4</ele>
        <time>2026-01-13T09:24:56Z</time>
      </trkpt>
      <trkpt lat="48.68231" lon="1.93107">
        <ele>147.4</ele>
        <time>2026-01-13T09:24:57Z</time>
      </trkpt>
      <trkpt lat="48.68231" lon="1.93113">
        <ele>147.4</ele>
        <time>2026-01-13T09:24:58Z</time>
      </trkpt>
      <trkpt lat="48.68231" lon="1.93119">
        <ele>147.4</ele>
        <time>2026-01-13T09:24:59Z</time>
      </trkpt>
      <trkpt lat="48.68231" lon="1.93125">
        <ele>147.6</ele>
        <time>2026-01-13T09:25:00Z</time>
      </trkpt>
      <trkpt lat="48.68231" lon="1.93131">
        <ele>147.6</ele>
        <time>2026-01-13T09:25:01Z</time>
      </trkpt>
      <trkpt lat="48.6823" lon="1.93137">
        <ele>147.6</ele>
        <time>2026-01-13T09:25:02Z</time>
      </trkpt>
      <trkpt lat="48.6823" lon="1.93142">
        <ele>147.6</ele>
        <time>2026-01-13T09:25:03Z</time>
      </trkpt>
      <trkpt lat="48.68229" lon="1.93147">
        <ele>148</ele>
        <time>2026-01-13T09:25:04Z</time>
      </trkpt>
      <trkpt lat="48.68228" lon="1.93152">
        <ele>148</ele>
        <time>2026-01-13T09:25:05Z</time>
      </trkpt>
      <trkpt lat="48.68227" lon="1.93159">
        <ele>148</ele>
        <time>2026-01-13T09:25:06Z</time>
      </trkpt>
      <trkpt lat="48.68224" lon="1.93165">
        <ele>147</ele>
        <time>2026-01-13T09:25:07Z</time>
      </trkpt>
      <trkpt lat="48.68222" lon="1.93171">
        <ele>146</ele>
        <time>2026-01-13T09:25:08Z</time>
      </trkpt>
      <trkpt lat="48.68219" lon="1.93177">
        <ele>145.8</ele>
        <time>2026-01-13T09:25:09Z</time>
      </trkpt>
      <trkpt lat="48.68215" lon="1.93181">
        <ele>145.2</ele>
        <time>2026-01-13T09:25:10Z</time>
      </trkpt>
      <trkpt lat="48.6821" lon="1.93187">
        <ele>144.6</ele>
        <time>2026-01-13T09:25:11Z</time>
      </trkpt>
      <trkpt lat="48.68205" lon="1.93192">
        <ele>143.6</ele>
        <time>2026-01-13T09:25:12Z</time>
      </trkpt>
      <trkpt lat="48.68201" lon="1.93198">
        <ele>142.6</ele>
        <time>2026-01-13T09:25:13Z</time>
      </trkpt>
      <trkpt lat="48.68196" lon="1.93207">
        <ele>141.6</ele>
        <time>2026-01-13T09:25:14Z</time>
      </trkpt>
      <trkpt lat="48.68192" lon="1.93216">
        <ele>141.2</ele>
        <time>2026-01-13T09:25:15Z</time>
      </trkpt>
      <trkpt lat="48.68188" lon="1.93227">
        <ele>140.2</ele>
        <time>2026-01-13T09:25:16Z</time>
      </trkpt>
      <trkpt lat="48.68186" lon="1.93241">
        <ele>139.4</ele>
        <time>2026-01-13T09:25:17Z</time>
      </trkpt>
      <trkpt lat="48.68184" lon="1.93253">
        <ele>138.6</ele>
        <time>2026-01-13T09:25:18Z</time>
      </trkpt>
      <trkpt lat="48.68182" lon="1.93266">
        <ele>137.6</ele>
        <time>2026-01-13T09:25:19Z</time>
      </trkpt>
      <trkpt lat="48.6818" lon="1.9328">
        <ele>136.6</ele>
        <time>2026-01-13T09:25:20Z</time>
      </trkpt>
      <trkpt lat="48.68176" lon="1.93294">
        <ele>135.6</ele>
        <time>2026-01-13T09:25:21Z</time>
      </trkpt>
      <trkpt lat="48.68171" lon="1.93306">
        <ele>134.6</ele>
        <time>2026-01-13T09:25:22Z</time>
      </trkpt>
      <trkpt lat="48.68164" lon="1.93318">
        <ele>133.6</ele>
        <time>2026-01-13T09:25:23Z</time>
      </trkpt>
      <trkpt lat="48.68157" lon="1.93327">
        <ele>132.6</ele>
        <time>2026-01-13T09:25:24Z</time>
      </trkpt>
      <trkpt lat="48.6815" lon="1.93339">
        <ele>132</ele>
        <time>2026-01-13T09:25:25Z</time>
      </trkpt>
      <trkpt lat="48.68144" lon="1.93351">
        <ele>131.8</ele>
        <time>2026-01-13T09:25:26Z</time>
      </trkpt>
      <trkpt lat="48.6814" lon="1.93366">
        <ele>131.6</ele>
        <time>2026-01-13T09:25:27Z</time>
      </trkpt>
      <trkpt lat="48.68137" lon="1.9338">
        <ele>130.6</ele>
        <time>2026-01-13T09:25:28Z</time>
      </trkpt>
      <trkpt lat="48.68134" lon="1.93395">
        <ele>129.6</ele>
        <time>2026-01-13T09:25:29Z</time>
      </trkpt>
      <trkpt lat="48.6813" lon="1.9341">
        <ele>128.6</ele>
        <time>2026-01-13T09:25:30Z</time>
      </trkpt>
      <trkpt lat="48.68126" lon="1.93425">
        <ele>127.8</ele>
        <time>2026-01-13T09:25:31Z</time>
      </trkpt>
      <trkpt lat="48.68122" lon="1.93442">
        <ele>126.8</ele>
        <time>2026-01-13T09:25:32Z</time>
      </trkpt>
      <trkpt lat="48.68118" lon="1.93458">
        <ele>125.8</ele>
        <time>2026-01-13T09:25:33Z</time>
      </trkpt>
      <trkpt lat="48.68116" lon="1.93476">
        <ele>124.8</ele>
        <time>2026-01-13T09:25:34Z</time>
      </trkpt>
      <trkpt lat="48.68114" lon="1.93492">
        <ele>123.8</ele>
        <time>2026-01-13T09:25:35Z</time>
      </trkpt>
      <trkpt lat="48.68113" lon="1.93508">
        <ele>122.8</ele>
        <time>2026-01-13T09:25:36Z</time>
      </trkpt>
      <trkpt lat="48.68112" lon="1.93525">
        <ele>121.8</ele>
        <time>2026-01-13T09:25:37Z</time>
      </trkpt>
      <trkpt lat="48.68113" lon="1.93542">
        <ele>121</ele>
        <time>2026-01-13T09:25:38Z</time>
      </trkpt>
      <trkpt lat="48.68113" lon="1.9356">
        <ele>120.6</ele>
        <time>2026-01-13T09:25:39Z</time>
      </trkpt>
      <trkpt lat="48.68114" lon="1.93577">
        <ele>120.6</ele>
        <time>2026-01-13T09:25:40Z</time>
      </trkpt>
      <trkpt lat="48.68115" lon="1.93595">
        <ele>120.2</ele>
        <time>2026-01-13T09:25:41Z</time>
      </trkpt>
      <trkpt lat="48.68117" lon="1.93613">
        <ele>119.6</ele>
        <time>2026-01-13T09:25:42Z</time>
      </trkpt>
      <trkpt lat="48.68119" lon="1.93628">
        <ele>119.6</ele>
        <time>2026-01-13T09:25:43Z</time>
      </trkpt>
      <trkpt lat="48.68122" lon="1.93643">
        <ele>119.6</ele>
        <time>2026-01-13T09:25:44Z</time>
      </trkpt>
      <trkpt lat="48.68124" lon="1.93659">
        <ele>119.6</ele>
        <time>2026-01-13T09:25:45Z</time>
      </trkpt>
      <trkpt lat="48.68125" lon="1.93675">
        <ele>119.6</ele>
        <time>2026-01-13T09:25:46Z</time>
      </trkpt>
      <trkpt lat="48.68128" lon="1.93689">
        <ele>119.6</ele>
        <time>2026-01-13T09:25:47Z</time>
      </trkpt>
      <trkpt lat="48.6813" lon="1.93704">
        <ele>119.6</ele>
        <time>2026-01-13T09:25:48Z</time>
      </trkpt>
      <trkpt lat="48.68133" lon="1.93719">
        <ele>120</ele>
        <time>2026-01-13T09:25:49Z</time>
      </trkpt>
      <trkpt lat="48.68135" lon="1.93733">
        <ele>120.6</ele>
        <time>2026-01-13T09:25:50Z</time>
      </trkpt>
      <trkpt lat="48.68137" lon="1.93746">
        <ele>120.8</ele>
        <time>2026-01-13T09:25:51Z</time>
      </trkpt>
      <trkpt lat="48.6814" lon="1.93759">
        <ele>121.2</ele>
        <time>2026-01-13T09:25:52Z</time>
      </trkpt>
      <trkpt lat="48.68142" lon="1.93771">
        <ele>121.4</ele>
        <time>2026-01-13T09:25:53Z</time>
      </trkpt>
      <trkpt lat="48.68144" lon="1.93784">
        <ele>121.6</ele>
        <time>2026-01-13T09:25:54Z</time>
      </trkpt>
      <trkpt lat="48.68146" lon="1.93796">
        <ele>121.6</ele>
        <time>2026-01-13T09:25:55Z</time>
      </trkpt>
      <trkpt lat="48.68148" lon="1.93808">
        <ele>121.6</ele>
        <time>2026-01-13T09:25:56Z</time>
      </trkpt>
      <trkpt lat="48.6815" lon="1.9382">
        <ele>121.6</ele>
        <time>2026-01-13T09:25:57Z</time>
      </trkpt>
      <trkpt lat="48.68152" lon="1.93832">
        <ele>121.6</ele>
        <time>2026-01-13T09:25:58Z</time>
      </trkpt>
      <trkpt lat="48.68154" lon="1.93844">
        <ele>121.2</ele>
        <time>2026-01-13T09:25:59Z</time>
      </trkpt>
      <trkpt lat="48.68156" lon="1.93857">
        <ele>120.8</ele>
        <time>2026-01-13T09:26:00Z</time>
      </trkpt>
      <trkpt lat="48.68157" lon="1.93871">
        <ele>119.8</ele>
        <time>2026-01-13T09:26:01Z</time>
      </trkpt>
      <trkpt lat="48.68158" lon="1.93884">
        <ele>119.8</ele>
        <time>2026-01-13T09:26:02Z</time>
      </trkpt>
      <trkpt lat="48.68159" lon="1.93897">
        <ele>119.8</ele>
        <time>2026-01-13T09:26:03Z</time>
      </trkpt>
      <trkpt lat="48.6816" lon="1.93911">
        <ele>119.8</ele>
        <time>2026-01-13T09:26:04Z</time>
      </trkpt>
      <trkpt lat="48.68161" lon="1.93925">
        <ele>118.8</ele>
        <time>2026-01-13T09:26:05Z</time>
      </trkpt>
      <trkpt lat="48.68161" lon="1.93939">
        <ele>117.8</ele>
        <time>2026-01-13T09:26:06Z</time>
      </trkpt>
      <trkpt lat="48.68161" lon="1.93953">
        <ele>116.8</ele>
        <time>2026-01-13T09:26:07Z</time>
      </trkpt>
      <trkpt lat="48.68161" lon="1.93967">
        <ele>116.4</ele>
        <time>2026-01-13T09:26:08Z</time>
      </trkpt>
      <trkpt lat="48.68161" lon="1.93981">
        <ele>116.2</ele>
        <time>2026-01-13T09:26:09Z</time>
      </trkpt>
      <trkpt lat="48.68162" lon="1.93995">
        <ele>115.8</ele>
        <time>2026-01-13T09:26:10Z</time>
      </trkpt>
      <trkpt lat="48.68161" lon="1.94009">
        <ele>115.4</ele>
        <time>2026-01-13T09:26:11Z</time>
      </trkpt>
      <trkpt lat="48.68162" lon="1.94023">
        <ele>115.4</ele>
        <time>2026-01-13T09:26:12Z</time>
      </trkpt>
      <trkpt lat="48.68162" lon="1.94036">
        <ele>115.4</ele>
        <time>2026-01-13T09:26:13Z</time>
      </trkpt>
      <trkpt lat="48.68163" lon="1.94049">
        <ele>116.2</ele>
        <time>2026-01-13T09:26:14Z</time>
      </trkpt>
      <trkpt lat="48.68163" lon="1.94062">
        <ele>117.2</ele>
        <time>2026-01-13T09:26:15Z</time>
      </trkpt>
      <trkpt lat="48.68163" lon="1.94073">
        <ele>118.2</ele>
        <time>2026-01-13T09:26:16Z</time>
      </trkpt>
      <trkpt lat="48.68163" lon="1.94085">
        <ele>119</ele>
        <time>2026-01-13T09:26:17Z</time>
      </trkpt>
      <trkpt lat="48.68162" lon="1.94095">
        <ele>119.2</ele>
        <time>2026-01-13T09:26:18Z</time>
      </trkpt>
      <trkpt lat="48.68161" lon="1.94105">
        <ele>119.4</ele>
        <time>2026-01-13T09:26:19Z</time>
      </trkpt>
      <trkpt lat="48.6816" lon="1.94114">
        <ele>119.8</ele>
        <time>2026-01-13T09:26:20Z</time>
      </trkpt>
      <trkpt lat="48.68158" lon="1.94124">
        <ele>119.8</ele>
        <time>2026-01-13T09:26:21Z</time>
      </trkpt>
      <trkpt lat="48.68156" lon="1.94132">
        <ele>119.8</ele>
        <time>2026-01-13T09:26:22Z</time>
      </trkpt>
      <trkpt lat="48.68154" lon="1.94142">
        <ele>119.6</ele>
        <time>2026-01-13T09:26:23Z</time>
      </trkpt>
      <trkpt lat="48.68152" lon="1.94152">
        <ele>119.6</ele>
        <time>2026-01-13T09:26:24Z</time>
      </trkpt>
      <trkpt lat="48.68149" lon="1.94162">
        <ele>119.6</ele>
        <time>2026-01-13T09:26:25Z</time>
      </trkpt>
      <trkpt lat="48.68146" lon="1.94172">
        <ele>119.6</ele>
        <time>2026-01-13T09:26:26Z</time>
      </trkpt>
      <trkpt lat="48.68143" lon="1.94181">
        <ele>118.6</ele>
        <time>2026-01-13T09:26:27Z</time>
      </trkpt>
      <trkpt lat="48.6814" lon="1.9419">
        <ele>117.8</ele>
        <time>2026-01-13T09:26:28Z</time>
      </trkpt>
      <trkpt lat="48.68136" lon="1.942">
        <ele>117.6</ele>
        <time>2026-01-13T09:26:29Z</time>
      </trkpt>
      <trkpt lat="48.68133" lon="1.94207">
        <ele>117</ele>
        <time>2026-01-13T09:26:30Z</time>
      </trkpt>
      <trkpt lat="48.6813" lon="1.94213">
        <ele>116.8</ele>
        <time>2026-01-13T09:26:31Z</time>
      </trkpt>
      <trkpt lat="48.68126" lon="1.94223">
        <ele>116.2</ele>
        <time>2026-01-13T09:26:32Z</time>
      </trkpt>
      <trkpt lat="48.68122" lon="1.94232">
        <ele>115.6</ele>
        <time>2026-01-13T09:26:33Z</time>
      </trkpt>
      <trkpt lat="48.68117" lon="1.94242">
        <ele>115.2</ele>
        <time>2026-01-13T09:26:34Z</time>
      </trkpt>
      <trkpt lat="48.68112" lon="1.94251">
        <ele>115</ele>
        <time>2026-01-13T09:26:35Z</time>
      </trkpt>
      <trkpt lat="48.68107" lon="1.94262">
        <ele>115</ele>
        <time>2026-01-13T09:26:36Z</time>
      </trkpt>
      <trkpt lat="48.68102" lon="1.94273">
        <ele>115</ele>
        <time>2026-01-13T09:26:37Z</time>
      </trkpt>
      <trkpt lat="48.68097" lon="1.94282">
        <ele>115</ele>
        <time>2026-01-13T09:26:38Z</time>
      </trkpt>
      <trkpt lat="48.68092" lon="1.9429">
        <ele>115</ele>
        <time>2026-01-13T09:26:39Z</time>
      </trkpt>
      <trkpt lat="48.68087" lon="1.94299">
        <ele>115</ele>
        <time>2026-01-13T09:26:40Z</time>
      </trkpt>
      <trkpt lat="48.68082" lon="1.94308">
        <ele>115</ele>
        <time>2026-01-13T09:26:41Z</time>
      </trkpt>
      <trkpt lat="48.68077" lon="1.94317">
        <ele>115.2</ele>
        <time>2026-01-13T09:26:42Z</time>
      </trkpt>
      <trkpt lat="48.68072" lon="1.94325">
        <ele>115.6</ele>
        <time>2026-01-13T09:26:43Z</time>
      </trkpt>
      <trkpt lat="48.68067" lon="1.94334">
        <ele>115.6</ele>
        <time>2026-01-13T09:26:44Z</time>
      </trkpt>
      <trkpt lat="48.68061" lon="1.94342">
        <ele>115.6</ele>
        <time>2026-01-13T09:26:45Z</time>
      </trkpt>
      <trkpt lat="48.68056" lon="1.9435">
        <ele>115.6</ele>
        <time>2026-01-13T09:26:46Z</time>
      </trkpt>
      <trkpt lat="48.68051" lon="1.94358">
        <ele>115.6</ele>
        <time>2026-01-13T09:26:47Z</time>
      </trkpt>
      <trkpt lat="48.68046" lon="1.94367">
        <ele>115.6</ele>
        <time>2026-01-13T09:26:48Z</time>
      </trkpt>
      <trkpt lat="48.68041" lon="1.94373">
        <ele>116</ele>
        <time>2026-01-13T09:26:49Z</time>
      </trkpt>
      <trkpt lat="48.68036" lon="1.94382">
        <ele>116.2</ele>
        <time>2026-01-13T09:26:50Z</time>
      </trkpt>
      <trkpt lat="48.68033" lon="1.94389">
        <ele>116.2</ele>
        <time>2026-01-13T09:26:51Z</time>
      </trkpt>
      <trkpt lat="48.68029" lon="1.94395">
        <ele>116.6</ele>
        <time>2026-01-13T09:26:52Z</time>
      </trkpt>
      <trkpt lat="48.68025" lon="1.94402">
        <ele>116.6</ele>
        <time>2026-01-13T09:26:53Z</time>
      </trkpt>
      <trkpt lat="48.68021" lon="1.94409">
        <ele>116.6</ele>
        <time>2026-01-13T09:26:54Z</time>
      </trkpt>
      <trkpt lat="48.68017" lon="1.94417">
        <ele>116.6</ele>
        <time>2026-01-13T09:26:55Z</time>
      </trkpt>
      <trkpt lat="48.68012" lon="1.94426">
        <ele>116.8</ele>
        <time>2026-01-13T09:26:56Z</time>
      </trkpt>
      <trkpt lat="48.68007" lon="1.94435">
        <ele>116.8</ele>
        <time>2026-01-13T09:26:57Z</time>
      </trkpt>
      <trkpt lat="48.68002" lon="1.94443">
        <ele>116.8</ele>
        <time>2026-01-13T09:26:58Z</time>
      </trkpt>
      <trkpt lat="48.67998" lon="1.94449">
        <ele>116.8</ele>
        <time>2026-01-13T09:26:59Z</time>
      </trkpt>
      <trkpt lat="48.67993" lon="1.94461">
        <ele>117.2</ele>
        <time>2026-01-13T09:27:00Z</time>
      </trkpt>
      <trkpt lat="48.67988" lon="1.94468">
        <ele>117.2</ele>
        <time>2026-01-13T09:27:01Z</time>
      </trkpt>
      <trkpt lat="48.67983" lon="1.94476">
        <ele>117.4</ele>
        <time>2026-01-13T09:27:02Z</time>
      </trkpt>
      <trkpt lat="48.67978" lon="1.94482">
        <ele>117.4</ele>
        <time>2026-01-13T09:27:03Z</time>
      </trkpt>
      <trkpt lat="48.67973" lon="1.94489">
        <ele>117.4</ele>
        <time>2026-01-13T09:27:04Z</time>
      </trkpt>
      <trkpt lat="48.67968" lon="1.94493">
        <ele>117.4</ele>
        <time>2026-01-13T09:27:05Z</time>
      </trkpt>
      <trkpt lat="48.67963" lon="1.94498">
        <ele>117.8</ele>
        <time>2026-01-13T09:27:06Z</time>
      </trkpt>
      <trkpt lat="48.67958" lon="1.94505">
        <ele>118</ele>
        <time>2026-01-13T09:27:07Z</time>
      </trkpt>
      <trkpt lat="48.67953" lon="1.94508">
        <ele>118.2</ele>
        <time>2026-01-13T09:27:08Z</time>
      </trkpt>
      <trkpt lat="48.67949" lon="1.94514">
        <ele>118.2</ele>
        <time>2026-01-13T09:27:09Z</time>
      </trkpt>
      <trkpt lat="48.67944" lon="1.94519">
        <ele>118.2</ele>
        <time>2026-01-13T09:27:10Z</time>
      </trkpt>
      <trkpt lat="48.67939" lon="1.94525">
        <ele>118.2</ele>
        <time>2026-01-13T09:27:11Z</time>
      </trkpt>
      <trkpt lat="48.67934" lon="1.94532">
        <ele>118.2</ele>
        <time>2026-01-13T09:27:12Z</time>
      </trkpt>
      <trkpt lat="48.67929" lon="1.9454">
        <ele>118.2</ele>
        <time>2026-01-13T09:27:13Z</time>
      </trkpt>
      <trkpt lat="48.67924" lon="1.94547">
        <ele>118.2</ele>
        <time>2026-01-13T09:27:14Z</time>
      </trkpt>
      <trkpt lat="48.67919" lon="1.94553">
        <ele>118.2</ele>
        <time>2026-01-13T09:27:15Z</time>
      </trkpt>
      <trkpt lat="48.67915" lon="1.9456">
        <ele>118.2</ele>
        <time>2026-01-13T09:27:16Z</time>
      </trkpt>
      <trkpt lat="48.6791" lon="1.94568">
        <ele>118.2</ele>
        <time>2026-01-13T09:27:17Z</time>
      </trkpt>
      <trkpt lat="48.67905" lon="1.94575">
        <ele>118.2</ele>
        <time>2026-01-13T09:27:18Z</time>
      </trkpt>
      <trkpt lat="48.67901" lon="1.94582">
        <ele>118.6</ele>
        <time>2026-01-13T09:27:19Z</time>
      </trkpt>
      <trkpt lat="48.67896" lon="1.94589">
        <ele>118.6</ele>
        <time>2026-01-13T09:27:20Z</time>
      </trkpt>
      <trkpt lat="48.67892" lon="1.94596">
        <ele>118.6</ele>
        <time>2026-01-13T09:27:21Z</time>
      </trkpt>
      <trkpt lat="48.67887" lon="1.94603">
        <ele>118</ele>
        <time>2026-01-13T09:27:22Z</time>
      </trkpt>
      <trkpt lat="48.67883" lon="1.9461">
        <ele>118</ele>
        <time>2026-01-13T09:27:23Z</time>
      </trkpt>
      <trkpt lat="48.67878" lon="1.94618">
        <ele>118</ele>
        <time>2026-01-13T09:27:24Z</time>
      </trkpt>
      <trkpt lat="48.67875" lon="1.94626">
        <ele>118</ele>
        <time>2026-01-13T09:27:25Z</time>
      </trkpt>
      <trkpt lat="48.6787" lon="1.94634">
        <ele>118</ele>
        <time>2026-01-13T09:27:26Z</time>
      </trkpt>
      <trkpt lat="48.67867" lon="1.94641">
        <ele>117.6</ele>
        <time>2026-01-13T09:27:27Z</time>
      </trkpt>
      <trkpt lat="48.67863" lon="1.94648">
        <ele>117.6</ele>
        <time>2026-01-13T09:27:28Z</time>
      </trkpt>
      <trkpt lat="48.6786" lon="1.94656">
        <ele>117.6</ele>
        <time>2026-01-13T09:27:29Z</time>
      </trkpt>
      <trkpt lat="48.67856" lon="1.94665">
        <ele>117.6</ele>
        <time>2026-01-13T09:27:30Z</time>
      </trkpt>
      <trkpt lat="48.67852" lon="1.94674">
        <ele>117.6</ele>
        <time>2026-01-13T09:27:31Z</time>
      </trkpt>
      <trkpt lat="48.67849" lon="1.94683">
        <ele>117.6</ele>
        <time>2026-01-13T09:27:32Z</time>
      </trkpt>
      <trkpt lat="48.67846" lon="1.94692">
        <ele>117.6</ele>
        <time>2026-01-13T09:27:33Z</time>
      </trkpt>
      <trkpt lat="48.67843" lon="1.94701">
        <ele>118.2</ele>
        <time>2026-01-13T09:27:34Z</time>
      </trkpt>
      <trkpt lat="48.6784" lon="1.94711">
        <ele>118.2</ele>
        <time>2026-01-13T09:27:35Z</time>
      </trkpt>
      <trkpt lat="48.67836" lon="1.94722">
        <ele>118.2</ele>
        <time>2026-01-13T09:27:36Z</time>
      </trkpt>
      <trkpt lat="48.67834" lon="1.94731">
        <ele>118.2</ele>
        <time>2026-01-13T09:27:37Z</time>
      </trkpt>
      <trkpt lat="48.67832" lon="1.9474">
        <ele>119</ele>
        <time>2026-01-13T09:27:38Z</time>
      </trkpt>
      <trkpt lat="48.67829" lon="1.94749">
        <ele>119.2</ele>
        <time>2026-01-13T09:27:39Z</time>
      </trkpt>
      <trkpt lat="48.67826" lon="1.94757">
        <ele>119.2</ele>
        <time>2026-01-13T09:27:40Z</time>
      </trkpt>
      <trkpt lat="48.67823" lon="1.94766">
        <ele>119.2</ele>
        <time>2026-01-13T09:27:41Z</time>
      </trkpt>
      <trkpt lat="48.67821" lon="1.94775">
        <ele>119.2</ele>
        <time>2026-01-13T09:27:42Z</time>
      </trkpt>
      <trkpt lat="48.67818" lon="1.94783">
        <ele>119.2</ele>
        <time>2026-01-13T09:27:43Z</time>
      </trkpt>
      <trkpt lat="48.67815" lon="1.94792">
        <ele>119.2</ele>
        <time>2026-01-13T09:27:44Z</time>
      </trkpt>
      <trkpt lat="48.67812" lon="1.94799">
        <ele>119.2</ele>
        <time>2026-01-13T09:27:45Z</time>
      </trkpt>
      <trkpt lat="48.6781" lon="1.94807">
        <ele>119.2</ele>
        <time>2026-01-13T09:27:46Z</time>
      </trkpt>
      <trkpt lat="48.67807" lon="1.94816">
        <ele>119</ele>
        <time>2026-01-13T09:27:47Z</time>
      </trkpt>
      <trkpt lat="48.67803" lon="1.94826">
        <ele>118.6</ele>
        <time>2026-01-13T09:27:48Z</time>
      </trkpt>
      <trkpt lat="48.67799" lon="1.94834">
        <ele>118.6</ele>
        <time>2026-01-13T09:27:49Z</time>
      </trkpt>
      <trkpt lat="48.67796" lon="1.94842">
        <ele>118.6</ele>
        <time>2026-01-13T09:27:50Z</time>
      </trkpt>
      <trkpt lat="48.67792" lon="1.94848">
        <ele>118.6</ele>
        <time>2026-01-13T09:27:51Z</time>
      </trkpt>
      <trkpt lat="48.67787" lon="1.94856">
        <ele>118.2</ele>
        <time>2026-01-13T09:27:52Z</time>
      </trkpt>
      <trkpt lat="48.67783" lon="1.94862">
        <ele>118.2</ele>
        <time>2026-01-13T09:27:53Z</time>
      </trkpt>
      <trkpt lat="48.67778" lon="1.94869">
        <ele>118.2</ele>
        <time>2026-01-13T09:27:54Z</time>
      </trkpt>
      <trkpt lat="48.67773" lon="1.94878">
        <ele>118.6</ele>
        <time>2026-01-13T09:27:55Z</time>
      </trkpt>
      <trkpt lat="48.67768" lon="1.94886">
        <ele>118.6</ele>
        <time>2026-01-13T09:27:56Z</time>
      </trkpt>
      <trkpt lat="48.67764" lon="1.94896">
        <ele>118.6</ele>
        <time>2026-01-13T09:27:57Z</time>
      </trkpt>
      <trkpt lat="48.67759" lon="1.94905">
        <ele>118.6</ele>
        <time>2026-01-13T09:27:58Z</time>
      </trkpt>
      <trkpt lat="48.67755" lon="1.94915">
        <ele>118.6</ele>
        <time>2026-01-13T09:27:59Z</time>
      </trkpt>
      <trkpt lat="48.67752" lon="1.94925">
        <ele>118.6</ele>
        <time>2026-01-13T09:28:00Z</time>
      </trkpt>
      <trkpt lat="48.67749" lon="1.94935">
        <ele>118.6</ele>
        <time>2026-01-13T09:28:01Z</time>
      </trkpt>
      <trkpt lat="48.67746" lon="1.94945">
        <ele>118.6</ele>
        <time>2026-01-13T09:28:02Z</time>
      </trkpt>
      <trkpt lat="48.67744" lon="1.94954">
        <ele>118.6</ele>
        <time>2026-01-13T09:28:03Z</time>
      </trkpt>
      <trkpt lat="48.67742" lon="1.94963">
        <ele>119.2</ele>
        <time>2026-01-13T09:28:04Z</time>
      </trkpt>
      <trkpt lat="48.6774" lon="1.94973">
        <ele>119.2</ele>
        <time>2026-01-13T09:28:05Z</time>
      </trkpt>
      <trkpt lat="48.67737" lon="1.94982">
        <ele>119.2</ele>
        <time>2026-01-13T09:28:06Z</time>
      </trkpt>
      <trkpt lat="48.67735" lon="1.94992">
        <ele>119.2</ele>
        <time>2026-01-13T09:28:07Z</time>
      </trkpt>
      <trkpt lat="48.67733" lon="1.95001">
        <ele>119.2</ele>
        <time>2026-01-13T09:28:08Z</time>
      </trkpt>
      <trkpt lat="48.67732" lon="1.95011">
        <ele>119.2</ele>
        <time>2026-01-13T09:28:09Z</time>
      </trkpt>
      <trkpt lat="48.67729" lon="1.95021">
        <ele>119.2</ele>
        <time>2026-01-13T09:28:10Z</time>
      </trkpt>
      <trkpt lat="48.67727" lon="1.95031">
        <ele>119.6</ele>
        <time>2026-01-13T09:28:11Z</time>
      </trkpt>
      <trkpt lat="48.67725" lon="1.95041">
        <ele>119.6</ele>
        <time>2026-01-13T09:28:12Z</time>
      </trkpt>
      <trkpt lat="48.67722" lon="1.95052">
        <ele>119.6</ele>
        <time>2026-01-13T09:28:13Z</time>
      </trkpt>
      <trkpt lat="48.6772" lon="1.95063">
        <ele>119.2</ele>
        <time>2026-01-13T09:28:14Z</time>
      </trkpt>
      <trkpt lat="48.67718" lon="1.95073">
        <ele>119.2</ele>
        <time>2026-01-13T09:28:15Z</time>
      </trkpt>
      <trkpt lat="48.67716" lon="1.95084">
        <ele>119.2</ele>
        <time>2026-01-13T09:28:16Z</time>
      </trkpt>
      <trkpt lat="48.67714" lon="1.95094">
        <ele>119.2</ele>
        <time>2026-01-13T09:28:17Z</time>
      </trkpt>
      <trkpt lat="48.67712" lon="1.95104">
        <ele>119.2</ele>
        <time>2026-01-13T09:28:18Z</time>
      </trkpt>
      <trkpt lat="48.67711" lon="1.95114">
        <ele>119.4</ele>
        <time>2026-01-13T09:28:19Z</time>
      </trkpt>
      <trkpt lat="48.6771" lon="1.95124">
        <ele>119.4</ele>
        <time>2026-01-13T09:28:20Z</time>
      </trkpt>
      <trkpt lat="48.67709" lon="1.95135">
        <ele>119.4</ele>
        <time>2026-01-13T09:28:21Z</time>
      </trkpt>
      <trkpt lat="48.67708" lon="1.95145">
        <ele>119.4</ele>
        <time>2026-01-13T09:28:22Z</time>
      </trkpt>
      <trkpt lat="48.67708" lon="1.95156">
        <ele>119.4</ele>
        <time>2026-01-13T09:28:23Z</time>
      </trkpt>
      <trkpt lat="48.67706" lon="1.95166">
        <ele>119.4</ele>
        <time>2026-01-13T09:28:24Z</time>
      </trkpt>
      <trkpt lat="48.67704" lon="1.95177">
        <ele>118.6</ele>
        <time>2026-01-13T09:28:25Z</time>
      </trkpt>
      <trkpt lat="48.67702" lon="1.95188">
        <ele>118.6</ele>
        <time>2026-01-13T09:28:26Z</time>
      </trkpt>
      <trkpt lat="48.677" lon="1.95198">
        <ele>118.6</ele>
        <time>2026-01-13T09:28:27Z</time>
      </trkpt>
      <trkpt lat="48.67697" lon="1.95208">
        <ele>118.6</ele>
        <time>2026-01-13T09:28:28Z</time>
      </trkpt>
      <trkpt lat="48.67694" lon="1.95217">
        <ele>118</ele>
        <time>2026-01-13T09:28:29Z</time>
      </trkpt>
      <trkpt lat="48.67691" lon="1.95225">
        <ele>118</ele>
        <time>2026-01-13T09:28:30Z</time>
      </trkpt>
      <trkpt lat="48.67687" lon="1.95232">
        <ele>118</ele>
        <time>2026-01-13T09:28:31Z</time>
      </trkpt>
      <trkpt lat="48.67683" lon="1.95239">
        <ele>118</ele>
        <time>2026-01-13T09:28:32Z</time>
      </trkpt>
      <trkpt lat="48.67679" lon="1.95247">
        <ele>117.2</ele>
        <time>2026-01-13T09:28:33Z</time>
      </trkpt>
      <trkpt lat="48.67676" lon="1.95256">
        <ele>117</ele>
        <time>2026-01-13T09:28:34Z</time>
      </trkpt>
      <trkpt lat="48.67672" lon="1.95264">
        <ele>116.8</ele>
        <time>2026-01-13T09:28:35Z</time>
      </trkpt>
      <trkpt lat="48.67668" lon="1.95272">
        <ele>116.8</ele>
        <time>2026-01-13T09:28:36Z</time>
      </trkpt>
      <trkpt lat="48.67664" lon="1.95281">
        <ele>116.2</ele>
        <time>2026-01-13T09:28:37Z</time>
      </trkpt>
      <trkpt lat="48.6766" lon="1.95291">
        <ele>116</ele>
        <time>2026-01-13T09:28:38Z</time>
      </trkpt>
      <trkpt lat="48.67657" lon="1.95301">
        <ele>116</ele>
        <time>2026-01-13T09:28:39Z</time>
      </trkpt>
      <trkpt lat="48.67653" lon="1.95311">
        <ele>116</ele>
        <time>2026-01-13T09:28:40Z</time>
      </trkpt>
      <trkpt lat="48.6765" lon="1.95321">
        <ele>116</ele>
        <time>2026-01-13T09:28:41Z</time>
      </trkpt>
      <trkpt lat="48.67647" lon="1.95332">
        <ele>115.8</ele>
        <time>2026-01-13T09:28:42Z</time>
      </trkpt>
      <trkpt lat="48.67645" lon="1.95343">
        <ele>115.8</ele>
        <time>2026-01-13T09:28:43Z</time>
      </trkpt>
      <trkpt lat="48.67643" lon="1.95355">
        <ele>115.8</ele>
        <time>2026-01-13T09:28:44Z</time>
      </trkpt>
      <trkpt lat="48.67642" lon="1.95366">
        <ele>116.8</ele>
        <time>2026-01-13T09:28:45Z</time>
      </trkpt>
      <trkpt lat="48.67641" lon="1.95378">
        <ele>117</ele>
        <time>2026-01-13T09:28:46Z</time>
      </trkpt>
      <trkpt lat="48.6764" lon="1.95388">
        <ele>117.4</ele>
        <time>2026-01-13T09:28:47Z</time>
      </trkpt>
      <trkpt lat="48.67639" lon="1.95399">
        <ele>117.6</ele>
        <time>2026-01-13T09:28:48Z</time>
      </trkpt>
      <trkpt lat="48.67639" lon="1.95408">
        <ele>117.8</ele>
        <time>2026-01-13T09:28:49Z</time>
      </trkpt>
      <trkpt lat="48.67637" lon="1.95418">
        <ele>117.8</ele>
        <time>2026-01-13T09:28:50Z</time>
      </trkpt>
      <trkpt lat="48.67636" lon="1.95427">
        <ele>118</ele>
        <time>2026-01-13T09:28:51Z</time>
      </trkpt>
      <trkpt lat="48.67634" lon="1.95434">
        <ele>118.6</ele>
        <time>2026-01-13T09:28:52Z</time>
      </trkpt>
      <trkpt lat="48.67632" lon="1.95443">
        <ele>118.6</ele>
        <time>2026-01-13T09:28:53Z</time>
      </trkpt>
      <trkpt lat="48.67629" lon="1.95452">
        <ele>118.6</ele>
        <time>2026-01-13T09:28:54Z</time>
      </trkpt>
      <trkpt lat="48.67626" lon="1.9546">
        <ele>118.6</ele>
        <time>2026-01-13T09:28:55Z</time>
      </trkpt>
      <trkpt lat="48.67622" lon="1.95467">
        <ele>119.2</ele>
        <time>2026-01-13T09:28:56Z</time>
      </trkpt>
      <trkpt lat="48.67618" lon="1.95473">
        <ele>119.4</ele>
        <time>2026-01-13T09:28:57Z</time>
      </trkpt>
      <trkpt lat="48.67614" lon="1.95479">
        <ele>119.4</ele>
        <time>2026-01-13T09:28:58Z</time>
      </trkpt>
      <trkpt lat="48.67609" lon="1.95485">
        <ele>119.4</ele>
        <time>2026-01-13T09:28:59Z</time>
      </trkpt>
      <trkpt lat="48.67605" lon="1.95492">
        <ele>119.4</ele>
        <time>2026-01-13T09:29:00Z</time>
      </trkpt>
      <trkpt lat="48.676" lon="1.95498">
        <ele>119.4</ele>
        <time>2026-01-13T09:29:01Z</time>
      </trkpt>
      <trkpt lat="48.67595" lon="1.95502">
        <ele>119.6</ele>
        <time>2026-01-13T09:29:02Z</time>
      </trkpt>
      <trkpt lat="48.6759" lon="1.95507">
        <ele>119.6</ele>
        <time>2026-01-13T09:29:03Z</time>
      </trkpt>
      <trkpt lat="48.67584" lon="1.95513">
        <ele>119.6</ele>
        <time>2026-01-13T09:29:04Z</time>
      </trkpt>
      <trkpt lat="48.67578" lon="1.95518">
        <ele>119</ele>
        <time>2026-01-13T09:29:05Z</time>
      </trkpt>
      <trkpt lat="48.67572" lon="1.95525">
        <ele>118.8</ele>
        <time>2026-01-13T09:29:06Z</time>
      </trkpt>
      <trkpt lat="48.67567" lon="1.95531">
        <ele>118.4</ele>
        <time>2026-01-13T09:29:07Z</time>
      </trkpt>
      <trkpt lat="48.6756" lon="1.95536">
        <ele>118.4</ele>
        <time>2026-01-13T09:29:08Z</time>
      </trkpt>
      <trkpt lat="48.67554" lon="1.9554">
        <ele>118.4</ele>
        <time>2026-01-13T09:29:09Z</time>
      </trkpt>
      <trkpt lat="48.67548" lon="1.95545">
        <ele>118.4</ele>
        <time>2026-01-13T09:29:10Z</time>
      </trkpt>
      <trkpt lat="48.6754" lon="1.9555">
        <ele>117.4</ele>
        <time>2026-01-13T09:29:11Z</time>
      </trkpt>
      <trkpt lat="48.67533" lon="1.95554">
        <ele>117</ele>
        <time>2026-01-13T09:29:12Z</time>
      </trkpt>
      <trkpt lat="48.67525" lon="1.95558">
        <ele>116.8</ele>
        <time>2026-01-13T09:29:13Z</time>
      </trkpt>
      <trkpt lat="48.67517" lon="1.95559">
        <ele>116.4</ele>
        <time>2026-01-13T09:29:14Z</time>
      </trkpt>
      <trkpt lat="48.67509" lon="1.95561">
        <ele>116.4</ele>
        <time>2026-01-13T09:29:15Z</time>
      </trkpt>
      <trkpt lat="48.67502" lon="1.95561">
        <ele>116.4</ele>
        <time>2026-01-13T09:29:16Z</time>
      </trkpt>
      <trkpt lat="48.67494" lon="1.9556">
        <ele>116.4</ele>
        <time>2026-01-13T09:29:17Z</time>
      </trkpt>
      <trkpt lat="48.67487" lon="1.95557">
        <ele>116.4</ele>
        <time>2026-01-13T09:29:18Z</time>
      </trkpt>
      <trkpt lat="48.6748" lon="1.95557">
        <ele>116.4</ele>
        <time>2026-01-13T09:29:19Z</time>
      </trkpt>
      <trkpt lat="48.67471" lon="1.95558">
        <ele>116.4</ele>
        <time>2026-01-13T09:29:20Z</time>
      </trkpt>
      <trkpt lat="48.67464" lon="1.95558">
        <ele>116</ele>
        <time>2026-01-13T09:29:21Z</time>
      </trkpt>
      <trkpt lat="48.67457" lon="1.9556">
        <ele>115.8</ele>
        <time>2026-01-13T09:29:22Z</time>
      </trkpt>
      <trkpt lat="48.6745" lon="1.95564">
        <ele>115.8</ele>
        <time>2026-01-13T09:29:23Z</time>
      </trkpt>
      <trkpt lat="48.67442" lon="1.95569">
        <ele>115.8</ele>
        <time>2026-01-13T09:29:24Z</time>
      </trkpt>
      <trkpt lat="48.67436" lon="1.95575">
        <ele>116.8</ele>
        <time>2026-01-13T09:29:25Z</time>
      </trkpt>
      <trkpt lat="48.6743" lon="1.95582">
        <ele>116.8</ele>
        <time>2026-01-13T09:29:26Z</time>
      </trkpt>
      <trkpt lat="48.67425" lon="1.95588">
        <ele>116.8</ele>
        <time>2026-01-13T09:29:27Z</time>
      </trkpt>
      <trkpt lat="48.67421" lon="1.95596">
        <ele>116.2</ele>
        <time>2026-01-13T09:29:28Z</time>
      </trkpt>
      <trkpt lat="48.67417" lon="1.95607">
        <ele>116.2</ele>
        <time>2026-01-13T09:29:29Z</time>
      </trkpt>
      <trkpt lat="48.67415" lon="1.95617">
        <ele>116.2</ele>
        <time>2026-01-13T09:29:30Z</time>
      </trkpt>
      <trkpt lat="48.67414" lon="1.95628">
        <ele>117.2</ele>
        <time>2026-01-13T09:29:31Z</time>
      </trkpt>
      <trkpt lat="48.67414" lon="1.95639">
        <ele>117.2</ele>
        <time>2026-01-13T09:29:32Z</time>
      </trkpt>
      <trkpt lat="48.67414" lon="1.9565">
        <ele>117.2</ele>
        <time>2026-01-13T09:29:33Z</time>
      </trkpt>
      <trkpt lat="48.67415" lon="1.95661">
        <ele>117.2</ele>
        <time>2026-01-13T09:29:34Z</time>
      </trkpt>
      <trkpt lat="48.67415" lon="1.95673">
        <ele>117.2</ele>
        <time>2026-01-13T09:29:35Z</time>
      </trkpt>
      <trkpt lat="48.67417" lon="1.95682">
        <ele>117.2</ele>
        <time>2026-01-13T09:29:36Z</time>
      </trkpt>
      <trkpt lat="48.67418" lon="1.95692">
        <ele>117.4</ele>
        <time>2026-01-13T09:29:37Z</time>
      </trkpt>
      <trkpt lat="48.67419" lon="1.95702">
        <ele>117.6</ele>
        <time>2026-01-13T09:29:38Z</time>
      </trkpt>
      <trkpt lat="48.67419" lon="1.95713">
        <ele>117.6</ele>
        <time>2026-01-13T09:29:39Z</time>
      </trkpt>
      <trkpt lat="48.6742" lon="1.95724">
        <ele>117.6</ele>
        <time>2026-01-13T09:29:40Z</time>
      </trkpt>
      <trkpt lat="48.67421" lon="1.95735">
        <ele>117.6</ele>
        <time>2026-01-13T09:29:41Z</time>
      </trkpt>
      <trkpt lat="48.67422" lon="1.95747">
        <ele>117.6</ele>
        <time>2026-01-13T09:29:42Z</time>
      </trkpt>
      <trkpt lat="48.67423" lon="1.95757">
        <ele>118</ele>
        <time>2026-01-13T09:29:43Z</time>
      </trkpt>
      <trkpt lat="48.67424" lon="1.95765">
        <ele>118</ele>
        <time>2026-01-13T09:29:44Z</time>
      </trkpt>
      <trkpt lat="48.67424" lon="1.95775">
        <ele>118</ele>
        <time>2026-01-13T09:29:45Z</time>
      </trkpt>
      <trkpt lat="48.67425" lon="1.95784">
        <ele>118</ele>
        <time>2026-01-13T09:29:46Z</time>
      </trkpt>
      <trkpt lat="48.67425" lon="1.95793">
        <ele>118.8</ele>
        <time>2026-01-13T09:29:47Z</time>
      </trkpt>
      <trkpt lat="48.67425" lon="1.95801">
        <ele>118.8</ele>
        <time>2026-01-13T09:29:48Z</time>
      </trkpt>
      <trkpt lat="48.67426" lon="1.95812">
        <ele>118.8</ele>
        <time>2026-01-13T09:29:49Z</time>
      </trkpt>
      <trkpt lat="48.67426" lon="1.95822">
        <ele>118.8</ele>
        <time>2026-01-13T09:29:50Z</time>
      </trkpt>
      <trkpt lat="48.67426" lon="1.95831">
        <ele>118.8</ele>
        <time>2026-01-13T09:29:51Z</time>
      </trkpt>
      <trkpt lat="48.67425" lon="1.9584">
        <ele>118.8</ele>
        <time>2026-01-13T09:29:52Z</time>
      </trkpt>
      <trkpt lat="48.67424" lon="1.95849">
        <ele>119.2</ele>
        <time>2026-01-13T09:29:53Z</time>
      </trkpt>
      <trkpt lat="48.67424" lon="1.95858">
        <ele>119.2</ele>
        <time>2026-01-13T09:29:54Z</time>
      </trkpt>
      <trkpt lat="48.67424" lon="1.95868">
        <ele>119.2</ele>
        <time>2026-01-13T09:29:55Z</time>
      </trkpt>
      <trkpt lat="48.67423" lon="1.95877">
        <ele>118.4</ele>
        <time>2026-01-13T09:29:56Z</time>
      </trkpt>
      <trkpt lat="48.67423" lon="1.95887">
        <ele>118.4</ele>
        <time>2026-01-13T09:29:57Z</time>
      </trkpt>
      <trkpt lat="48.67423" lon="1.95897">
        <ele>118.4</ele>
        <time>2026-01-13T09:29:58Z</time>
      </trkpt>
      <trkpt lat="48.67423" lon="1.95906">
        <ele>118.4</ele>
        <time>2026-01-13T09:29:59Z</time>
      </trkpt>
      <trkpt lat="48.67422" lon="1.95916">
        <ele>117.4</ele>
        <time>2026-01-13T09:30:00Z</time>
      </trkpt>
      <trkpt lat="48.67422" lon="1.95926">
        <ele>117.4</ele>
        <time>2026-01-13T09:30:01Z</time>
      </trkpt>
      <trkpt lat="48.6742" lon="1.95936">
        <ele>117.4</ele>
        <time>2026-01-13T09:30:02Z</time>
      </trkpt>
      <trkpt lat="48.67419" lon="1.95947">
        <ele>117.4</ele>
        <time>2026-01-13T09:30:03Z</time>
      </trkpt>
      <trkpt lat="48.67417" lon="1.95957">
        <ele>116.4</ele>
        <time>2026-01-13T09:30:04Z</time>
      </trkpt>
      <trkpt lat="48.67416" lon="1.95967">
        <ele>116</ele>
        <time>2026-01-13T09:30:05Z</time>
      </trkpt>
      <trkpt lat="48.67414" lon="1.95976">
        <ele>115</ele>
        <time>2026-01-13T09:30:06Z</time>
      </trkpt>
      <trkpt lat="48.67413" lon="1.95987">
        <ele>115</ele>
        <time>2026-01-13T09:30:07Z</time>
      </trkpt>
      <trkpt lat="48.67411" lon="1.95995">
        <ele>115</ele>
        <time>2026-01-13T09:30:08Z</time>
      </trkpt>
      <trkpt lat="48.67411" lon="1.96002">
        <ele>115</ele>
        <time>2026-01-13T09:30:09Z</time>
      </trkpt>
      <trkpt lat="48.6741" lon="1.96012">
        <ele>115</ele>
        <time>2026-01-13T09:30:10Z</time>
      </trkpt>
      <trkpt lat="48.67409" lon="1.96022">
        <ele>115</ele>
        <time>2026-01-13T09:30:11Z</time>
      </trkpt>
      <trkpt lat="48.67409" lon="1.96032">
        <ele>115.6</ele>
        <time>2026-01-13T09:30:12Z</time>
      </trkpt>
      <trkpt lat="48.67408" lon="1.96042">
        <ele>115.6</ele>
        <time>2026-01-13T09:30:13Z</time>
      </trkpt>
      <trkpt lat="48.67407" lon="1.96052">
        <ele>115.6</ele>
        <time>2026-01-13T09:30:14Z</time>
      </trkpt>
      <trkpt lat="48.67408" lon="1.96061">
        <ele>115.6</ele>
        <time>2026-01-13T09:30:15Z</time>
      </trkpt>
      <trkpt lat="48.67408" lon="1.9607">
        <ele>116.6</ele>
        <time>2026-01-13T09:30:16Z</time>
      </trkpt>
      <trkpt lat="48.67407" lon="1.9608">
        <ele>116.8</ele>
        <time>2026-01-13T09:30:17Z</time>
      </trkpt>
      <trkpt lat="48.67407" lon="1.9609">
        <ele>117.4</ele>
        <time>2026-01-13T09:30:18Z</time>
      </trkpt>
      <trkpt lat="48.67407" lon="1.961">
        <ele>117.8</ele>
        <time>2026-01-13T09:30:19Z</time>
      </trkpt>
      <trkpt lat="48.67407" lon="1.9611">
        <ele>117.8</ele>
        <time>2026-01-13T09:30:20Z</time>
      </trkpt>
      <trkpt lat="48.67407" lon="1.96118">
        <ele>117.8</ele>
        <time>2026-01-13T09:30:21Z</time>
      </trkpt>
      <trkpt lat="48.67407" lon="1.96128">
        <ele>117.8</ele>
        <time>2026-01-13T09:30:22Z</time>
      </trkpt>
      <trkpt lat="48.67407" lon="1.96136">
        <ele>118.8</ele>
        <time>2026-01-13T09:30:23Z</time>
      </trkpt>
      <trkpt lat="48.67407" lon="1.96144">
        <ele>119.6</ele>
        <time>2026-01-13T09:30:24Z</time>
      </trkpt>
      <trkpt lat="48.67407" lon="1.96147">
        <ele>120.2</ele>
        <time>2026-01-13T09:30:25Z</time>
      </trkpt>
      <trkpt lat="48.67407" lon="1.96149">
        <ele>120.2</ele>
        <time>2026-01-13T09:30:26Z</time>
      </trkpt>
      <trkpt lat="48.67407" lon="1.96149">
        <ele>120.6</ele>
        <time>2026-01-13T09:30:27Z</time>
      </trkpt>
      <trkpt lat="48.67407" lon="1.96149">
        <ele>120.6</ele>
        <time>2026-01-13T09:30:28Z</time>
      </trkpt>
      <trkpt lat="48.67407" lon="1.96149">
        <ele>120.6</ele>
        <time>2026-01-13T09:30:29Z</time>
      </trkpt>
      <trkpt lat="48.67412" lon="1.96162">
        <ele>120.2</ele>
        <time>2026-01-13T09:30:40Z</time>
      </trkpt>
      <trkpt lat="48.67415" lon="1.96166">
        <ele>120.2</ele>
        <time>2026-01-13T09:30:41Z</time>
      </trkpt>
      <trkpt lat="48.67418" lon="1.96168">
        <ele>120.2</ele>
        <time>2026-01-13T09:30:42Z</time>
      </trkpt>
      <trkpt lat="48.67422" lon="1.96171">
        <ele>119.2</ele>
        <time>2026-01-13T09:30:43Z</time>
      </trkpt>
      <trkpt lat="48.67427" lon="1.96174">
        <ele>119.2</ele>
        <time>2026-01-13T09:30:44Z</time>
      </trkpt>
      <trkpt lat="48.67432" lon="1.96178">
        <ele>119.2</ele>
        <time>2026-01-13T09:30:45Z</time>
      </trkpt>
      <trkpt lat="48.67437" lon="1.96181">
        <ele>119.2</ele>
        <time>2026-01-13T09:30:46Z</time>
      </trkpt>
      <trkpt lat="48.67443" lon="1.96185">
        <ele>118.2</ele>
        <time>2026-01-13T09:30:47Z</time>
      </trkpt>
      <trkpt lat="48.67448" lon="1.96188">
        <ele>117.8</ele>
        <time>2026-01-13T09:30:48Z</time>
      </trkpt>
      <trkpt lat="48.67453" lon="1.96192">
        <ele>117.8</ele>
        <time>2026-01-13T09:30:49Z</time>
      </trkpt>
      <trkpt lat="48.67459" lon="1.96195">
        <ele>117.8</ele>
        <time>2026-01-13T09:30:50Z</time>
      </trkpt>
      <trkpt lat="48.67466" lon="1.96199">
        <ele>117.8</ele>
        <time>2026-01-13T09:30:51Z</time>
      </trkpt>
      <trkpt lat="48.67472" lon="1.96204">
        <ele>117.8</ele>
        <time>2026-01-13T09:30:52Z</time>
      </trkpt>
      <trkpt lat="48.67479" lon="1.96208">
        <ele>117.8</ele>
        <time>2026-01-13T09:30:53Z</time>
      </trkpt>
      <trkpt lat="48.67484" lon="1.96212">
        <ele>116.8</ele>
        <time>2026-01-13T09:30:54Z</time>
      </trkpt>
      <trkpt lat="48.6749" lon="1.96216">
        <ele>116.6</ele>
        <time>2026-01-13T09:30:55Z</time>
      </trkpt>
      <trkpt lat="48.67496" lon="1.96219">
        <ele>116.6</ele>
        <time>2026-01-13T09:30:56Z</time>
      </trkpt>
      <trkpt lat="48.67502" lon="1.96224">
        <ele>116.6</ele>
        <time>2026-01-13T09:30:57Z</time>
      </trkpt>
      <trkpt lat="48.67508" lon="1.96229">
        <ele>116.6</ele>
        <time>2026-01-13T09:30:58Z</time>
      </trkpt>
      <trkpt lat="48.67513" lon="1.96234">
        <ele>116.6</ele>
        <time>2026-01-13T09:30:59Z</time>
      </trkpt>
      <trkpt lat="48.67518" lon="1.96241">
        <ele>116.6</ele>
        <time>2026-01-13T09:31:00Z</time>
      </trkpt>
      <trkpt lat="48.67522" lon="1.96246">
        <ele>117.4</ele>
        <time>2026-01-13T09:31:01Z</time>
      </trkpt>
      <trkpt lat="48.67527" lon="1.96252">
        <ele>117.4</ele>
        <time>2026-01-13T09:31:02Z</time>
      </trkpt>
      <trkpt lat="48.67532" lon="1.9626">
        <ele>117.4</ele>
        <time>2026-01-13T09:31:03Z</time>
      </trkpt>
      <trkpt lat="48.67537" lon="1.96268">
        <ele>117</ele>
        <time>2026-01-13T09:31:04Z</time>
      </trkpt>
      <trkpt lat="48.67542" lon="1.96277">
        <ele>116.8</ele>
        <time>2026-01-13T09:31:05Z</time>
      </trkpt>
      <trkpt lat="48.67546" lon="1.96285">
        <ele>116.6</ele>
        <time>2026-01-13T09:31:06Z</time>
      </trkpt>
      <trkpt lat="48.6755" lon="1.96294">
        <ele>116.6</ele>
        <time>2026-01-13T09:31:07Z</time>
      </trkpt>
      <trkpt lat="48.67553" lon="1.96304">
        <ele>116.6</ele>
        <time>2026-01-13T09:31:08Z</time>
      </trkpt>
      <trkpt lat="48.67555" lon="1.96313">
        <ele>116.8</ele>
        <time>2026-01-13T09:31:09Z</time>
      </trkpt>
      <trkpt lat="48.67558" lon="1.96323">
        <ele>116.8</ele>
        <time>2026-01-13T09:31:10Z</time>
      </trkpt>
      <trkpt lat="48.6756" lon="1.96333">
        <ele>116.8</ele>
        <time>2026-01-13T09:31:11Z</time>
      </trkpt>
      <trkpt lat="48.67563" lon="1.96344">
        <ele>115.8</ele>
        <time>2026-01-13T09:31:12Z</time>
      </trkpt>
      <trkpt lat="48.67565" lon="1.96355">
        <ele>114.8</ele>
        <time>2026-01-13T09:31:13Z</time>
      </trkpt>
      <trkpt lat="48.67569" lon="1.96367">
        <ele>113.8</ele>
        <time>2026-01-13T09:31:14Z</time>
      </trkpt>
      <trkpt lat="48.67573" lon="1.96379">
        <ele>113.2</ele>
        <time>2026-01-13T09:31:15Z</time>
      </trkpt>
      <trkpt lat="48.67585" lon="1.96395">
        <ele>112.6</ele>
        <time>2026-01-13T09:31:16Z</time>
      </trkpt>
      <trkpt lat="48.67593" lon="1.96401">
        <ele>111.6</ele>
        <time>2026-01-13T09:31:17Z</time>
      </trkpt>
      <trkpt lat="48.67609" lon="1.96411">
        <ele>111</ele>
        <time>2026-01-13T09:31:18Z</time>
      </trkpt>
      <trkpt lat="48.67617" lon="1.96421">
        <ele>110</ele>
        <time>2026-01-13T09:31:19Z</time>
      </trkpt>
      <trkpt lat="48.67625" lon="1.96431">
        <ele>109.2</ele>
        <time>2026-01-13T09:31:20Z</time>
      </trkpt>
      <trkpt lat="48.67634" lon="1.96439">
        <ele>108.4</ele>
        <time>2026-01-13T09:31:21Z</time>
      </trkpt>
      <trkpt lat="48.67643" lon="1.96447">
        <ele>107.4</ele>
        <time>2026-01-13T09:31:22Z</time>
      </trkpt>
      <trkpt lat="48.67653" lon="1.96453">
        <ele>106.4</ele>
        <time>2026-01-13T09:31:23Z</time>
      </trkpt>
      <trkpt lat="48.67664" lon="1.96459">
        <ele>105.4</ele>
        <time>2026-01-13T09:31:24Z</time>
      </trkpt>
      <trkpt lat="48.67675" lon="1.96463">
        <ele>104.4</ele>
        <time>2026-01-13T09:31:25Z</time>
      </trkpt>
      <trkpt lat="48.67687" lon="1.96467">
        <ele>104</ele>
        <time>2026-01-13T09:31:26Z</time>
      </trkpt>
      <trkpt lat="48.67698" lon="1.96471">
        <ele>103.2</ele>
        <time>2026-01-13T09:31:27Z</time>
      </trkpt>
      <trkpt lat="48.67709" lon="1.96476">
        <ele>103.2</ele>
        <time>2026-01-13T09:31:28Z</time>
      </trkpt>
      <trkpt lat="48.6772" lon="1.96482">
        <ele>103.2</ele>
        <time>2026-01-13T09:31:29Z</time>
      </trkpt>
      <trkpt lat="48.6773" lon="1.96489">
        <ele>103.2</ele>
        <time>2026-01-13T09:31:30Z</time>
      </trkpt>
      <trkpt lat="48.6774" lon="1.96497">
        <ele>103.2</ele>
        <time>2026-01-13T09:31:31Z</time>
      </trkpt>
      <trkpt lat="48.6775" lon="1.96505">
        <ele>103.2</ele>
        <time>2026-01-13T09:31:32Z</time>
      </trkpt>
      <trkpt lat="48.6776" lon="1.96513">
        <ele>104.2</ele>
        <time>2026-01-13T09:31:33Z</time>
      </trkpt>
      <trkpt lat="48.67769" lon="1.96519">
        <ele>105.2</ele>
        <time>2026-01-13T09:31:34Z</time>
      </trkpt>
      <trkpt lat="48.67777" lon="1.96527">
        <ele>106.2</ele>
        <time>2026-01-13T09:31:35Z</time>
      </trkpt>
      <trkpt lat="48.67784" lon="1.96534">
        <ele>107.2</ele>
        <time>2026-01-13T09:31:36Z</time>
      </trkpt>
      <trkpt lat="48.67791" lon="1.96541">
        <ele>108.2</ele>
        <time>2026-01-13T09:31:37Z</time>
      </trkpt>
      <trkpt lat="48.67797" lon="1.96547">
        <ele>109.2</ele>
        <time>2026-01-13T09:31:38Z</time>
      </trkpt>
      <trkpt lat="48.67803" lon="1.96553">
        <ele>110.2</ele>
        <time>2026-01-13T09:31:39Z</time>
      </trkpt>
      <trkpt lat="48.67809" lon="1.96559">
        <ele>111</ele>
        <time>2026-01-13T09:31:40Z</time>
      </trkpt>
      <trkpt lat="48.67815" lon="1.96564">
        <ele>111.6</ele>
        <time>2026-01-13T09:31:41Z</time>
      </trkpt>
      <trkpt lat="48.67821" lon="1.96569">
        <ele>111.6</ele>
        <time>2026-01-13T09:31:42Z</time>
      </trkpt>
      <trkpt lat="48.67826" lon="1.96573">
        <ele>111.8</ele>
        <time>2026-01-13T09:31:43Z</time>
      </trkpt>
      <trkpt lat="48.67833" lon="1.96578">
        <ele>111.8</ele>
        <time>2026-01-13T09:31:44Z</time>
      </trkpt>
      <trkpt lat="48.6784" lon="1.96582">
        <ele>111.8</ele>
        <time>2026-01-13T09:31:45Z</time>
      </trkpt>
      <trkpt lat="48.67846" lon="1.96587">
        <ele>110.8</ele>
        <time>2026-01-13T09:31:46Z</time>
      </trkpt>
      <trkpt lat="48.67852" lon="1.96592">
        <ele>110.2</ele>
        <time>2026-01-13T09:31:47Z</time>
      </trkpt>
      <trkpt lat="48.67859" lon="1.96598">
        <ele>109.4</ele>
        <time>2026-01-13T09:31:48Z</time>
      </trkpt>
      <trkpt lat="48.67866" lon="1.96603">
        <ele>108.4</ele>
        <time>2026-01-13T09:31:49Z</time>
      </trkpt>
      <trkpt lat="48.67873" lon="1.96606">
        <ele>107.8</ele>
        <time>2026-01-13T09:31:50Z</time>
      </trkpt>
      <trkpt lat="48.67882" lon="1.96609">
        <ele>106.8</ele>
        <time>2026-01-13T09:31:51Z</time>
      </trkpt>
      <trkpt lat="48.67891" lon="1.96611">
        <ele>106</ele>
        <time>2026-01-13T09:31:52Z</time>
      </trkpt>
      <trkpt lat="48.679" lon="1.96613">
        <ele>105.8</ele>
        <time>2026-01-13T09:31:53Z</time>
      </trkpt>
      <trkpt lat="48.6791" lon="1.96613">
        <ele>104.8</ele>
        <time>2026-01-13T09:31:54Z</time>
      </trkpt>
      <trkpt lat="48.67918" lon="1.96614">
        <ele>104.2</ele>
        <time>2026-01-13T09:31:55Z</time>
      </trkpt>
      <trkpt lat="48.67927" lon="1.96615">
        <ele>104</ele>
        <time>2026-01-13T09:31:56Z</time>
      </trkpt>
      <trkpt lat="48.67938" lon="1.96616">
        <ele>103</ele>
        <time>2026-01-13T09:31:57Z</time>
      </trkpt>
      <trkpt lat="48.67949" lon="1.96617">
        <ele>102.2</ele>
        <time>2026-01-13T09:31:58Z</time>
      </trkpt>
      <trkpt lat="48.6796" lon="1.96619">
        <ele>102</ele>
        <time>2026-01-13T09:31:59Z</time>
      </trkpt>
      <trkpt lat="48.67971" lon="1.9662">
        <ele>101.6</ele>
        <time>2026-01-13T09:32:00Z</time>
      </trkpt>
      <trkpt lat="48.67981" lon="1.96621">
        <ele>100.6</ele>
        <time>2026-01-13T09:32:01Z</time>
      </trkpt>
      <trkpt lat="48.67992" lon="1.96622">
        <ele>100.6</ele>
        <time>2026-01-13T09:32:02Z</time>
      </trkpt>
      <trkpt lat="48.68002" lon="1.96621">
        <ele>100.6</ele>
        <time>2026-01-13T09:32:03Z</time>
      </trkpt>
      <trkpt lat="48.68011" lon="1.96617">
        <ele>100.6</ele>
        <time>2026-01-13T09:32:04Z</time>
      </trkpt>
      <trkpt lat="48.68018" lon="1.96611">
        <ele>99.6</ele>
        <time>2026-01-13T09:32:05Z</time>
      </trkpt>
      <trkpt lat="48.68024" lon="1.96601">
        <ele>99.2</ele>
        <time>2026-01-13T09:32:06Z</time>
      </trkpt>
      <trkpt lat="48.6803" lon="1.96591">
        <ele>98.2</ele>
        <time>2026-01-13T09:32:07Z</time>
      </trkpt>
      <trkpt lat="48.68034" lon="1.96579">
        <ele>97.8</ele>
        <time>2026-01-13T09:32:08Z</time>
      </trkpt>
      <trkpt lat="48.68037" lon="1.96567">
        <ele>97.8</ele>
        <time>2026-01-13T09:32:09Z</time>
      </trkpt>
      <trkpt lat="48.68041" lon="1.96557">
        <ele>97.8</ele>
        <time>2026-01-13T09:32:10Z</time>
      </trkpt>
      <trkpt lat="48.68044" lon="1.96547">
        <ele>98.8</ele>
        <time>2026-01-13T09:32:11Z</time>
      </trkpt>
      <trkpt lat="48.68047" lon="1.96539">
        <ele>99.8</ele>
        <time>2026-01-13T09:32:12Z</time>
      </trkpt>
      <trkpt lat="48.68052" lon="1.9653">
        <ele>100</ele>
        <time>2026-01-13T09:32:13Z</time>
      </trkpt>
      <trkpt lat="48.68057" lon="1.96524">
        <ele>100</ele>
        <time>2026-01-13T09:32:14Z</time>
      </trkpt>
      <trkpt lat="48.68064" lon="1.96519">
        <ele>100</ele>
        <time>2026-01-13T09:32:15Z</time>
      </trkpt>
      <trkpt lat="48.6807" lon="1.96516">
        <ele>99</ele>
        <time>2026-01-13T09:32:16Z</time>
      </trkpt>
      <trkpt lat="48.68077" lon="1.96514">
        <ele>98.8</ele>
        <time>2026-01-13T09:32:17Z</time>
      </trkpt>
      <trkpt lat="48.68083" lon="1.96514">
        <ele>98.2</ele>
        <time>2026-01-13T09:32:18Z</time>
      </trkpt>
      <trkpt lat="48.68089" lon="1.96515">
        <ele>98.2</ele>
        <time>2026-01-13T09:32:19Z</time>
      </trkpt>
      <trkpt lat="48.68094" lon="1.96516">
        <ele>98.2</ele>
        <time>2026-01-13T09:32:20Z</time>
      </trkpt>
      <trkpt lat="48.681" lon="1.96517">
        <ele>99.2</ele>
        <time>2026-01-13T09:32:21Z</time>
      </trkpt>
      <trkpt lat="48.68106" lon="1.96519">
        <ele>100.2</ele>
        <time>2026-01-13T09:32:22Z</time>
      </trkpt>
      <trkpt lat="48.68111" lon="1.9652">
        <ele>101.2</ele>
        <time>2026-01-13T09:32:23Z</time>
      </trkpt>
      <trkpt lat="48.68117" lon="1.96521">
        <ele>101.4</ele>
        <time>2026-01-13T09:32:24Z</time>
      </trkpt>
      <trkpt lat="48.68123" lon="1.96522">
        <ele>101.4</ele>
        <time>2026-01-13T09:32:25Z</time>
      </trkpt>
      <trkpt lat="48.68128" lon="1.96524">
        <ele>101.4</ele>
        <time>2026-01-13T09:32:26Z</time>
      </trkpt>
      <trkpt lat="48.68133" lon="1.96524">
        <ele>101.4</ele>
        <time>2026-01-13T09:32:27Z</time>
      </trkpt>
      <trkpt lat="48.68137" lon="1.96525">
        <ele>102.4</ele>
        <time>2026-01-13T09:32:28Z</time>
      </trkpt>
      <trkpt lat="48.68142" lon="1.96525">
        <ele>102.4</ele>
        <time>2026-01-13T09:32:29Z</time>
      </trkpt>
      <trkpt lat="48.68147" lon="1.96525">
        <ele>102.4</ele>
        <time>2026-01-13T09:32:30Z</time>
      </trkpt>
      <trkpt lat="48.68152" lon="1.96524">
        <ele>102.4</ele>
        <time>2026-01-13T09:32:31Z</time>
      </trkpt>
      <trkpt lat="48.68158" lon="1.96525">
        <ele>102.4</ele>
        <time>2026-01-13T09:32:32Z</time>
      </trkpt>
      <trkpt lat="48.68163" lon="1.96526">
        <ele>102.4</ele>
        <time>2026-01-13T09:32:33Z</time>
      </trkpt>
      <trkpt lat="48.68168" lon="1.96529">
        <ele>102.4</ele>
        <time>2026-01-13T09:32:34Z</time>
      </trkpt>
      <trkpt lat="48.68174" lon="1.96532">
        <ele>102.4</ele>
        <time>2026-01-13T09:32:35Z</time>
      </trkpt>
      <trkpt lat="48.68182" lon="1.96535">
        <ele>102.4</ele>
        <time>2026-01-13T09:32:36Z</time>
      </trkpt>
      <trkpt lat="48.68187" lon="1.96538">
        <ele>102.6</ele>
        <time>2026-01-13T09:32:37Z</time>
      </trkpt>
      <trkpt lat="48.68192" lon="1.96542">
        <ele>102.6</ele>
        <time>2026-01-13T09:32:38Z</time>
      </trkpt>
      <trkpt lat="48.68197" lon="1.96546">
        <ele>102.6</ele>
        <time>2026-01-13T09:32:39Z</time>
      </trkpt>
      <trkpt lat="48.68201" lon="1.9655">
        <ele>102.6</ele>
        <time>2026-01-13T09:32:40Z</time>
      </trkpt>
      <trkpt lat="48.68205" lon="1.96555">
        <ele>103.4</ele>
        <time>2026-01-13T09:32:41Z</time>
      </trkpt>
      <trkpt lat="48.6821" lon="1.96558">
        <ele>104</ele>
        <time>2026-01-13T09:32:42Z</time>
      </trkpt>
      <trkpt lat="48.68215" lon="1.96561">
        <ele>104</ele>
        <time>2026-01-13T09:32:43Z</time>
      </trkpt>
      <trkpt lat="48.6822" lon="1.96564">
        <ele>104</ele>
        <time>2026-01-13T09:32:44Z</time>
      </trkpt>
      <trkpt lat="48.68225" lon="1.96566">
        <ele>103.6</ele>
        <time>2026-01-13T09:32:45Z</time>
      </trkpt>
      <trkpt lat="48.6823" lon="1.96568">
        <ele>103.6</ele>
        <time>2026-01-13T09:32:46Z</time>
      </trkpt>
      <trkpt lat="48.68235" lon="1.9657">
        <ele>103.6</ele>
        <time>2026-01-13T09:32:47Z</time>
      </trkpt>
      <trkpt lat="48.6824" lon="1.96572">
        <ele>103.6</ele>
        <time>2026-01-13T09:32:48Z</time>
      </trkpt>
      <trkpt lat="48.68246" lon="1.96575">
        <ele>103.6</ele>
        <time>2026-01-13T09:32:49Z</time>
      </trkpt>
      <trkpt lat="48.68251" lon="1.96579">
        <ele>103.6</ele>
        <time>2026-01-13T09:32:50Z</time>
      </trkpt>
      <trkpt lat="48.68255" lon="1.96586">
        <ele>103</ele>
        <time>2026-01-13T09:32:51Z</time>
      </trkpt>
      <trkpt lat="48.68259" lon="1.96592">
        <ele>102.6</ele>
        <time>2026-01-13T09:32:52Z</time>
      </trkpt>
      <trkpt lat="48.68263" lon="1.966">
        <ele>102.2</ele>
        <time>2026-01-13T09:32:53Z</time>
      </trkpt>
      <trkpt lat="48.68266" lon="1.96608">
        <ele>102.2</ele>
        <time>2026-01-13T09:32:54Z</time>
      </trkpt>
      <trkpt lat="48.68268" lon="1.96617">
        <ele>102.2</ele>
        <time>2026-01-13T09:32:55Z</time>
      </trkpt>
      <trkpt lat="48.6827" lon="1.96627">
        <ele>102.2</ele>
        <time>2026-01-13T09:32:56Z</time>
      </trkpt>
      <trkpt lat="48.68271" lon="1.96637">
        <ele>102.2</ele>
        <time>2026-01-13T09:32:57Z</time>
      </trkpt>
      <trkpt lat="48.68272" lon="1.96646">
        <ele>102.2</ele>
        <time>2026-01-13T09:32:58Z</time>
      </trkpt>
      <trkpt lat="48.68273" lon="1.96656">
        <ele>102.2</ele>
        <time>2026-01-13T09:32:59Z</time>
      </trkpt>
      <trkpt lat="48.68274" lon="1.96666">
        <ele>102.2</ele>
        <time>2026-01-13T09:33:00Z</time>
      </trkpt>
      <trkpt lat="48.68274" lon="1.96676">
        <ele>102.2</ele>
        <time>2026-01-13T09:33:01Z</time>
      </trkpt>
      <trkpt lat="48.68276" lon="1.96687">
        <ele>102.2</ele>
        <time>2026-01-13T09:33:02Z</time>
      </trkpt>
      <trkpt lat="48.68277" lon="1.96697">
        <ele>102.2</ele>
        <time>2026-01-13T09:33:03Z</time>
      </trkpt>
      <trkpt lat="48.68279" lon="1.96707">
        <ele>102.2</ele>
        <time>2026-01-13T09:33:04Z</time>
      </trkpt>
      <trkpt lat="48.68281" lon="1.96716">
        <ele>102.2</ele>
        <time>2026-01-13T09:33:05Z</time>
      </trkpt>
      <trkpt lat="48.68283" lon="1.96726">
        <ele>102.2</ele>
        <time>2026-01-13T09:33:06Z</time>
      </trkpt>
      <trkpt lat="48.68286" lon="1.96735">
        <ele>101.2</ele>
        <time>2026-01-13T09:33:07Z</time>
      </trkpt>
      <trkpt lat="48.68289" lon="1.96744">
        <ele>101.2</ele>
        <time>2026-01-13T09:33:08Z</time>
      </trkpt>
      <trkpt lat="48.68292" lon="1.96754">
        <ele>101.2</ele>
        <time>2026-01-13T09:33:09Z</time>
      </trkpt>
      <trkpt lat="48.68295" lon="1.96762">
        <ele>101.2</ele>
        <time>2026-01-13T09:33:10Z</time>
      </trkpt>
      <trkpt lat="48.68299" lon="1.96771">
        <ele>100.8</ele>
        <time>2026-01-13T09:33:11Z</time>
      </trkpt>
      <trkpt lat="48.68302" lon="1.96781">
        <ele>100.6</ele>
        <time>2026-01-13T09:33:12Z</time>
      </trkpt>
      <trkpt lat="48.68305" lon="1.9679">
        <ele>100.6</ele>
        <time>2026-01-13T09:33:13Z</time>
      </trkpt>
      <trkpt lat="48.68307" lon="1.968">
        <ele>100.6</ele>
        <time>2026-01-13T09:33:14Z</time>
      </trkpt>
      <trkpt lat="48.6831" lon="1.96809">
        <ele>100.8</ele>
        <time>2026-01-13T09:33:15Z</time>
      </trkpt>
      <trkpt lat="48.68313" lon="1.96819">
        <ele>101.4</ele>
        <time>2026-01-13T09:33:16Z</time>
      </trkpt>
      <trkpt lat="48.68316" lon="1.96828">
        <ele>101.4</ele>
        <time>2026-01-13T09:33:17Z</time>
      </trkpt>
      <trkpt lat="48.68318" lon="1.96839">
        <ele>101.4</ele>
        <time>2026-01-13T09:33:18Z</time>
      </trkpt>
      <trkpt lat="48.68321" lon="1.9685">
        <ele>100.4</ele>
        <time>2026-01-13T09:33:19Z</time>
      </trkpt>
      <trkpt lat="48.68323" lon="1.96861">
        <ele>100</ele>
        <time>2026-01-13T09:33:20Z</time>
      </trkpt>
      <trkpt lat="48.68326" lon="1.96872">
        <ele>100</ele>
        <time>2026-01-13T09:33:21Z</time>
      </trkpt>
      <trkpt lat="48.6833" lon="1.96882">
        <ele>100</ele>
        <time>2026-01-13T09:33:22Z</time>
      </trkpt>
      <trkpt lat="48.68334" lon="1.96892">
        <ele>100</ele>
        <time>2026-01-13T09:33:23Z</time>
      </trkpt>
      <trkpt lat="48.68338" lon="1.96902">
        <ele>99.2</ele>
        <time>2026-01-13T09:33:24Z</time>
      </trkpt>
      <trkpt lat="48.68342" lon="1.96913">
        <ele>98.8</ele>
        <time>2026-01-13T09:33:25Z</time>
      </trkpt>
      <trkpt lat="48.68346" lon="1.96923">
        <ele>98.8</ele>
        <time>2026-01-13T09:33:26Z</time>
      </trkpt>
      <trkpt lat="48.6835" lon="1.96933">
        <ele>98.6</ele>
        <time>2026-01-13T09:33:27Z</time>
      </trkpt>
      <trkpt lat="48.68354" lon="1.96944">
        <ele>98.6</ele>
        <time>2026-01-13T09:33:28Z</time>
      </trkpt>
      <trkpt lat="48.68358" lon="1.96955">
        <ele>98.4</ele>
        <time>2026-01-13T09:33:29Z</time>
      </trkpt>
      <trkpt lat="48.68362" lon="1.96965">
        <ele>98.4</ele>
        <time>2026-01-13T09:33:30Z</time>
      </trkpt>
      <trkpt lat="48.68368" lon="1.96975">
        <ele>98.4</ele>
        <time>2026-01-13T09:33:31Z</time>
      </trkpt>
      <trkpt lat="48.68374" lon="1.96984">
        <ele>98.4</ele>
        <time>2026-01-13T09:33:32Z</time>
      </trkpt>
      <trkpt lat="48.6838" lon="1.96993">
        <ele>97.4</ele>
        <time>2026-01-13T09:33:33Z</time>
      </trkpt>
      <trkpt lat="48.68386" lon="1.97">
        <ele>96.6</ele>
        <time>2026-01-13T09:33:34Z</time>
      </trkpt>
      <trkpt lat="48.68394" lon="1.97006">
        <ele>96.6</ele>
        <time>2026-01-13T09:33:35Z</time>
      </trkpt>
      <trkpt lat="48.68401" lon="1.97011">
        <ele>96.6</ele>
        <time>2026-01-13T09:33:36Z</time>
      </trkpt>
      <trkpt lat="48.68408" lon="1.97015">
        <ele>97.6</ele>
        <time>2026-01-13T09:33:37Z</time>
      </trkpt>
      <trkpt lat="48.68414" lon="1.97019">
        <ele>98.4</ele>
        <time>2026-01-13T09:33:38Z</time>
      </trkpt>
      <trkpt lat="48.68421" lon="1.97022">
        <ele>98.6</ele>
        <time>2026-01-13T09:33:39Z</time>
      </trkpt>
      <trkpt lat="48.68427" lon="1.97025">
        <ele>98.8</ele>
        <time>2026-01-13T09:33:40Z</time>
      </trkpt>
      <trkpt lat="48.68433" lon="1.97027">
        <ele>99</ele>
        <time>2026-01-13T09:33:41Z</time>
      </trkpt>
      <trkpt lat="48.68439" lon="1.97029">
        <ele>99.2</ele>
        <time>2026-01-13T09:33:42Z</time>
      </trkpt>
      <trkpt lat="48.68445" lon="1.97032">
        <ele>99.2</ele>
        <time>2026-01-13T09:33:43Z</time>
      </trkpt>
      <trkpt lat="48.68451" lon="1.97034">
        <ele>99.2</ele>
        <time>2026-01-13T09:33:44Z</time>
      </trkpt>
      <trkpt lat="48.68457" lon="1.97036">
        <ele>99.2</ele>
        <time>2026-01-13T09:33:45Z</time>
      </trkpt>
      <trkpt lat="48.68463" lon="1.97038">
        <ele>100.2</ele>
        <time>2026-01-13T09:33:46Z</time>
      </trkpt>
      <trkpt lat="48.68468" lon="1.97041">
        <ele>100.8</ele>
        <time>2026-01-13T09:33:47Z</time>
      </trkpt>
      <trkpt lat="48.68474" lon="1.97043">
        <ele>101</ele>
        <time>2026-01-13T09:33:48Z</time>
      </trkpt>
      <trkpt lat="48.6848" lon="1.97045">
        <ele>101.6</ele>
        <time>2026-01-13T09:33:49Z</time>
      </trkpt>
      <trkpt lat="48.68485" lon="1.97047">
        <ele>101.6</ele>
        <time>2026-01-13T09:33:50Z</time>
      </trkpt>
      <trkpt lat="48.68491" lon="1.97049">
        <ele>101.6</ele>
        <time>2026-01-13T09:33:51Z</time>
      </trkpt>
      <trkpt lat="48.68496" lon="1.97051">
        <ele>101.6</ele>
        <time>2026-01-13T09:33:52Z</time>
      </trkpt>
      <trkpt lat="48.68502" lon="1.97053">
        <ele>101.8</ele>
        <time>2026-01-13T09:33:53Z</time>
      </trkpt>
      <trkpt lat="48.68507" lon="1.97055">
        <ele>102</ele>
        <time>2026-01-13T09:33:54Z</time>
      </trkpt>
      <trkpt lat="48.68513" lon="1.97057">
        <ele>102</ele>
        <time>2026-01-13T09:33:55Z</time>
      </trkpt>
      <trkpt lat="48.68518" lon="1.97059">
        <ele>102</ele>
        <time>2026-01-13T09:33:56Z</time>
      </trkpt>
      <trkpt lat="48.68524" lon="1.97062">
        <ele>101.6</ele>
        <time>2026-01-13T09:33:57Z</time>
      </trkpt>
      <trkpt lat="48.68529" lon="1.97064">
        <ele>101.6</ele>
        <time>2026-01-13T09:33:58Z</time>
      </trkpt>
      <trkpt lat="48.68534" lon="1.97067">
        <ele>101.6</ele>
        <time>2026-01-13T09:33:59Z</time>
      </trkpt>
      <trkpt lat="48.6854" lon="1.97069">
        <ele>101.6</ele>
        <time>2026-01-13T09:34:00Z</time>
      </trkpt>
      <trkpt lat="48.68545" lon="1.97071">
        <ele>102.4</ele>
        <time>2026-01-13T09:34:01Z</time>
      </trkpt>
      <trkpt lat="48.68551" lon="1.97073">
        <ele>102.4</ele>
        <time>2026-01-13T09:34:02Z</time>
      </trkpt>
      <trkpt lat="48.68556" lon="1.97075">
        <ele>102.4</ele>
        <time>2026-01-13T09:34:03Z</time>
      </trkpt>
      <trkpt lat="48.68562" lon="1.97077">
        <ele>102.4</ele>
        <time>2026-01-13T09:34:04Z</time>
      </trkpt>
      <trkpt lat="48.68567" lon="1.97079">
        <ele>102.4</ele>
        <time>2026-01-13T09:34:05Z</time>
      </trkpt>
      <trkpt lat="48.68572" lon="1.97081">
        <ele>102.4</ele>
        <time>2026-01-13T09:34:06Z</time>
      </trkpt>
      <trkpt lat="48.68578" lon="1.97083">
        <ele>102.4</ele>
        <time>2026-01-13T09:34:07Z</time>
      </trkpt>
      <trkpt lat="48.68584" lon="1.97085">
        <ele>102.2</ele>
        <time>2026-01-13T09:34:08Z</time>
      </trkpt>
      <trkpt lat="48.68589" lon="1.97087">
        <ele>102.2</ele>
        <time>2026-01-13T09:34:09Z</time>
      </trkpt>
      <trkpt lat="48.68595" lon="1.9709">
        <ele>102.2</ele>
        <time>2026-01-13T09:34:10Z</time>
      </trkpt>
      <trkpt lat="48.686" lon="1.97092">
        <ele>102.2</ele>
        <time>2026-01-13T09:34:11Z</time>
      </trkpt>
      <trkpt lat="48.68606" lon="1.97094">
        <ele>101.4</ele>
        <time>2026-01-13T09:34:12Z</time>
      </trkpt>
      <trkpt lat="48.68612" lon="1.97097">
        <ele>101.2</ele>
        <time>2026-01-13T09:34:13Z</time>
      </trkpt>
      <trkpt lat="48.68617" lon="1.971">
        <ele>101.2</ele>
        <time>2026-01-13T09:34:14Z</time>
      </trkpt>
      <trkpt lat="48.68623" lon="1.97102">
        <ele>101.2</ele>
        <time>2026-01-13T09:34:15Z</time>
      </trkpt>
      <trkpt lat="48.68629" lon="1.97105">
        <ele>101.2</ele>
        <time>2026-01-13T09:34:16Z</time>
      </trkpt>
      <trkpt lat="48.68634" lon="1.97107">
        <ele>101.2</ele>
        <time>2026-01-13T09:34:17Z</time>
      </trkpt>
      <trkpt lat="48.6864" lon="1.9711">
        <ele>101.2</ele>
        <time>2026-01-13T09:34:18Z</time>
      </trkpt>
      <trkpt lat="48.68646" lon="1.97113">
        <ele>101.2</ele>
        <time>2026-01-13T09:34:19Z</time>
      </trkpt>
      <trkpt lat="48.68652" lon="1.97115">
        <ele>101.2</ele>
        <time>2026-01-13T09:34:20Z</time>
      </trkpt>
      <trkpt lat="48.68658" lon="1.97118">
        <ele>101.4</ele>
        <time>2026-01-13T09:34:21Z</time>
      </trkpt>
      <trkpt lat="48.68663" lon="1.97121">
        <ele>101.4</ele>
        <time>2026-01-13T09:34:22Z</time>
      </trkpt>
      <trkpt lat="48.68668" lon="1.97125">
        <ele>101.4</ele>
        <time>2026-01-13T09:34:23Z</time>
      </trkpt>
      <trkpt lat="48.68673" lon="1.97129">
        <ele>101.4</ele>
        <time>2026-01-13T09:34:24Z</time>
      </trkpt>
      <trkpt lat="48.68679" lon="1.97133">
        <ele>101.2</ele>
        <time>2026-01-13T09:34:25Z</time>
      </trkpt>
      <trkpt lat="48.68683" lon="1.97138">
        <ele>101.2</ele>
        <time>2026-01-13T09:34:26Z</time>
      </trkpt>
      <trkpt lat="48.68687" lon="1.97144">
        <ele>101.2</ele>
        <time>2026-01-13T09:34:27Z</time>
      </trkpt>
      <trkpt lat="48.68691" lon="1.97149">
        <ele>101.8</ele>
        <time>2026-01-13T09:34:28Z</time>
      </trkpt>
      <trkpt lat="48.68695" lon="1.97155">
        <ele>102</ele>
        <time>2026-01-13T09:34:29Z</time>
      </trkpt>
      <trkpt lat="48.687" lon="1.9716">
        <ele>102.2</ele>
        <time>2026-01-13T09:34:30Z</time>
      </trkpt>
      <trkpt lat="48.68703" lon="1.97165">
        <ele>102.8</ele>
        <time>2026-01-13T09:34:31Z</time>
      </trkpt>
      <trkpt lat="48.68706" lon="1.97169">
        <ele>103</ele>
        <time>2026-01-13T09:34:32Z</time>
      </trkpt>
      <trkpt lat="48.68709" lon="1.97173">
        <ele>103.6</ele>
        <time>2026-01-13T09:34:33Z</time>
      </trkpt>
      <trkpt lat="48.68713" lon="1.97178">
        <ele>103.8</ele>
        <time>2026-01-13T09:34:34Z</time>
      </trkpt>
      <trkpt lat="48.68717" lon="1.97182">
        <ele>103.8</ele>
        <time>2026-01-13T09:34:35Z</time>
      </trkpt>
      <trkpt lat="48.68721" lon="1.97186">
        <ele>104.2</ele>
        <time>2026-01-13T09:34:36Z</time>
      </trkpt>
      <trkpt lat="48.68725" lon="1.9719">
        <ele>104.4</ele>
        <time>2026-01-13T09:34:37Z</time>
      </trkpt>
      <trkpt lat="48.68729" lon="1.97193">
        <ele>105.2</ele>
        <time>2026-01-13T09:34:38Z</time>
      </trkpt>
      <trkpt lat="48.68733" lon="1.97197">
        <ele>105.4</ele>
        <time>2026-01-13T09:34:39Z</time>
      </trkpt>
      <trkpt lat="48.68736" lon="1.972">
        <ele>105.8</ele>
        <time>2026-01-13T09:34:40Z</time>
      </trkpt>
      <trkpt lat="48.68739" lon="1.97203">
        <ele>105.8</ele>
        <time>2026-01-13T09:34:41Z</time>
      </trkpt>
      <trkpt lat="48.68743" lon="1.97206">
        <ele>106.6</ele>
        <time>2026-01-13T09:34:42Z</time>
      </trkpt>
      <trkpt lat="48.68746" lon="1.97209">
        <ele>106.8</ele>
        <time>2026-01-13T09:34:43Z</time>
      </trkpt>
      <trkpt lat="48.68749" lon="1.97211">
        <ele>107.4</ele>
        <time>2026-01-13T09:34:44Z</time>
      </trkpt>
      <trkpt lat="48.68752" lon="1.97214">
        <ele>107.6</ele>
        <time>2026-01-13T09:34:45Z</time>
      </trkpt>
      <trkpt lat="48.68755" lon="1.97217">
        <ele>107.6</ele>
        <time>2026-01-13T09:34:46Z</time>
      </trkpt>
      <trkpt lat="48.68758" lon="1.97219">
        <ele>107.6</ele>
        <time>2026-01-13T09:34:47Z</time>
      </trkpt>
      <trkpt lat="48.6876" lon="1.97221">
        <ele>107.6</ele>
        <time>2026-01-13T09:34:48Z</time>
      </trkpt>
      <trkpt lat="48.68763" lon="1.97223">
        <ele>108.6</ele>
        <time>2026-01-13T09:34:49Z</time>
      </trkpt>
      <trkpt lat="48.68766" lon="1.97223">
        <ele>109</ele>
        <time>2026-01-13T09:34:50Z</time>
      </trkpt>
      <trkpt lat="48.68769" lon="1.9722">
        <ele>109.2</ele>
        <time>2026-01-13T09:34:51Z</time>
      </trkpt>
      <trkpt lat="48.68772" lon="1.97217">
        <ele>109.2</ele>
        <time>2026-01-13T09:34:52Z</time>
      </trkpt>
      <trkpt lat="48.68775" lon="1.97212">
        <ele>109.2</ele>
        <time>2026-01-13T09:34:53Z</time>
      </trkpt>
      <trkpt lat="48.68778" lon="1.97208">
        <ele>109.2</ele>
        <time>2026-01-13T09:34:54Z</time>
      </trkpt>
      <trkpt lat="48.6878" lon="1.97204">
        <ele>109.8</ele>
        <time>2026-01-13T09:34:55Z</time>
      </trkpt>
      <trkpt lat="48.68783" lon="1.97201">
        <ele>109.8</ele>
        <time>2026-01-13T09:34:56Z</time>
      </trkpt>
      <trkpt lat="48.68786" lon="1.97197">
        <ele>109.8</ele>
        <time>2026-01-13T09:34:57Z</time>
      </trkpt>
      <trkpt lat="48.68789" lon="1.97194">
        <ele>109.8</ele>
        <time>2026-01-13T09:34:58Z</time>
      </trkpt>
      <trkpt lat="48.68792" lon="1.97191">
        <ele>110.6</ele>
        <time>2026-01-13T09:34:59Z</time>
      </trkpt>
      <trkpt lat="48.68795" lon="1.97186">
        <ele>111</ele>
        <time>2026-01-13T09:35:00Z</time>
      </trkpt>
      <trkpt lat="48.68799" lon="1.97183">
        <ele>111.2</ele>
        <time>2026-01-13T09:35:01Z</time>
      </trkpt>
      <trkpt lat="48.68802" lon="1.97179">
        <ele>111.2</ele>
        <time>2026-01-13T09:35:02Z</time>
      </trkpt>
      <trkpt lat="48.68806" lon="1.97176">
        <ele>111.2</ele>
        <time>2026-01-13T09:35:03Z</time>
      </trkpt>
      <trkpt lat="48.68809" lon="1.97173">
        <ele>111.2</ele>
        <time>2026-01-13T09:35:04Z</time>
      </trkpt>
      <trkpt lat="48.68812" lon="1.97168">
        <ele>111.8</ele>
        <time>2026-01-13T09:35:05Z</time>
      </trkpt>
      <trkpt lat="48.68816" lon="1.97164">
        <ele>112</ele>
        <time>2026-01-13T09:35:06Z</time>
      </trkpt>
      <trkpt lat="48.68819" lon="1.9716">
        <ele>112.2</ele>
        <time>2026-01-13T09:35:07Z</time>
      </trkpt>
      <trkpt lat="48.68823" lon="1.97156">
        <ele>112.2</ele>
        <time>2026-01-13T09:35:08Z</time>
      </trkpt>
      <trkpt lat="48.68826" lon="1.97152">
        <ele>112.2</ele>
        <time>2026-01-13T09:35:09Z</time>
      </trkpt>
      <trkpt lat="48.6883" lon="1.97148">
        <ele>112.2</ele>
        <time>2026-01-13T09:35:10Z</time>
      </trkpt>
      <trkpt lat="48.68833" lon="1.97144">
        <ele>112.2</ele>
        <time>2026-01-13T09:35:11Z</time>
      </trkpt>
      <trkpt lat="48.68837" lon="1.9714">
        <ele>112.2</ele>
        <time>2026-01-13T09:35:12Z</time>
      </trkpt>
      <trkpt lat="48.6884" lon="1.97136">
        <ele>113</ele>
        <time>2026-01-13T09:35:13Z</time>
      </trkpt>
      <trkpt lat="48.68844" lon="1.97132">
        <ele>113.2</ele>
        <time>2026-01-13T09:35:14Z</time>
      </trkpt>
      <trkpt lat="48.68847" lon="1.97128">
        <ele>113.2</ele>
        <time>2026-01-13T09:35:15Z</time>
      </trkpt>
      <trkpt lat="48.68851" lon="1.97125">
        <ele>113.2</ele>
        <time>2026-01-13T09:35:16Z</time>
      </trkpt>
      <trkpt lat="48.68855" lon="1.97123">
        <ele>113.2</ele>
        <time>2026-01-13T09:35:17Z</time>
      </trkpt>
      <trkpt lat="48.68859" lon="1.97121">
        <ele>113.2</ele>
        <time>2026-01-13T09:35:18Z</time>
      </trkpt>
      <trkpt lat="48.68863" lon="1.9712">
        <ele>113.2</ele>
        <time>2026-01-13T09:35:19Z</time>
      </trkpt>
      <trkpt lat="48.68867" lon="1.9712">
        <ele>113.2</ele>
        <time>2026-01-13T09:35:20Z</time>
      </trkpt>
      <trkpt lat="48.68871" lon="1.97121">
        <ele>113.2</ele>
        <time>2026-01-13T09:35:21Z</time>
      </trkpt>
      <trkpt lat="48.68875" lon="1.97122">
        <ele>113.2</ele>
        <time>2026-01-13T09:35:22Z</time>
      </trkpt>
      <trkpt lat="48.6888" lon="1.97123">
        <ele>113.2</ele>
        <time>2026-01-13T09:35:23Z</time>
      </trkpt>
      <trkpt lat="48.68884" lon="1.97123">
        <ele>113.6</ele>
        <time>2026-01-13T09:35:24Z</time>
      </trkpt>
      <trkpt lat="48.68888" lon="1.97124">
        <ele>113.8</ele>
        <time>2026-01-13T09:35:25Z</time>
      </trkpt>
      <trkpt lat="48.68893" lon="1.97123">
        <ele>114.2</ele>
        <time>2026-01-13T09:35:26Z</time>
      </trkpt>
      <trkpt lat="48.68897" lon="1.97122">
        <ele>114.2</ele>
        <time>2026-01-13T09:35:27Z</time>
      </trkpt>
      <trkpt lat="48.68901" lon="1.97122">
        <ele>114.2</ele>
        <time>2026-01-13T09:35:28Z</time>
      </trkpt>
      <trkpt lat="48.68906" lon="1.97121">
        <ele>114.2</ele>
        <time>2026-01-13T09:35:29Z</time>
      </trkpt>
      <trkpt lat="48.68911" lon="1.9712">
        <ele>114.2</ele>
        <time>2026-01-13T09:35:30Z</time>
      </trkpt>
      <trkpt lat="48.68915" lon="1.97119">
        <ele>114.2</ele>
        <time>2026-01-13T09:35:31Z</time>
      </trkpt>
      <trkpt lat="48.68919" lon="1.97117">
        <ele>114.2</ele>
        <time>2026-01-13T09:35:32Z</time>
      </trkpt>
      <trkpt lat="48.68923" lon="1.97115">
        <ele>115.2</ele>
        <time>2026-01-13T09:35:33Z</time>
      </trkpt>
      <trkpt lat="48.68927" lon="1.97113">
        <ele>116</ele>
        <time>2026-01-13T09:35:34Z</time>
      </trkpt>
      <trkpt lat="48.68932" lon="1.97111">
        <ele>116</ele>
        <time>2026-01-13T09:35:35Z</time>
      </trkpt>
      <trkpt lat="48.68936" lon="1.97109">
        <ele>116</ele>
        <time>2026-01-13T09:35:36Z</time>
      </trkpt>
      <trkpt lat="48.6894" lon="1.97108">
        <ele>115.2</ele>
        <time>2026-01-13T09:35:37Z</time>
      </trkpt>
      <trkpt lat="48.68944" lon="1.97106">
        <ele>115.2</ele>
        <time>2026-01-13T09:35:38Z</time>
      </trkpt>
      <trkpt lat="48.68949" lon="1.97105">
        <ele>115.2</ele>
        <time>2026-01-13T09:35:39Z</time>
      </trkpt>
      <trkpt lat="48.68953" lon="1.97103">
        <ele>115.4</ele>
        <time>2026-01-13T09:35:40Z</time>
      </trkpt>
      <trkpt lat="48.68958" lon="1.97101">
        <ele>115.4</ele>
        <time>2026-01-13T09:35:41Z</time>
      </trkpt>
      <trkpt lat="48.68962" lon="1.97099">
        <ele>115.4</ele>
        <time>2026-01-13T09:35:42Z</time>
      </trkpt>
      <trkpt lat="48.68967" lon="1.97098">
        <ele>115.4</ele>
        <time>2026-01-13T09:35:43Z</time>
      </trkpt>
      <trkpt lat="48.68972" lon="1.97097">
        <ele>115.2</ele>
        <time>2026-01-13T09:35:44Z</time>
      </trkpt>
      <trkpt lat="48.68976" lon="1.97097">
        <ele>115.2</ele>
        <time>2026-01-13T09:35:45Z</time>
      </trkpt>
      <trkpt lat="48.68981" lon="1.97097">
        <ele>115.2</ele>
        <time>2026-01-13T09:35:46Z</time>
      </trkpt>
      <trkpt lat="48.68986" lon="1.97097">
        <ele>115.2</ele>
        <time>2026-01-13T09:35:47Z</time>
      </trkpt>
      <trkpt lat="48.68991" lon="1.97098">
        <ele>114.6</ele>
        <time>2026-01-13T09:35:48Z</time>
      </trkpt>
      <trkpt lat="48.68996" lon="1.97099">
        <ele>114.6</ele>
        <time>2026-01-13T09:35:49Z</time>
      </trkpt>
      <trkpt lat="48.69001" lon="1.97101">
        <ele>114.6</ele>
        <time>2026-01-13T09:35:50Z</time>
      </trkpt>
      <trkpt lat="48.69005" lon="1.97103">
        <ele>114.6</ele>
        <time>2026-01-13T09:35:51Z</time>
      </trkpt>
      <trkpt lat="48.6901" lon="1.97105">
        <ele>114.6</ele>
        <time>2026-01-13T09:35:52Z</time>
      </trkpt>
      <trkpt lat="48.69015" lon="1.97108">
        <ele>114.6</ele>
        <time>2026-01-13T09:35:53Z</time>
      </trkpt>
      <trkpt lat="48.6902" lon="1.9711">
        <ele>114.6</ele>
        <time>2026-01-13T09:35:54Z</time>
      </trkpt>
      <trkpt lat="48.69023" lon="1.9711">
        <ele>114.6</ele>
        <time>2026-01-13T09:35:55Z</time>
      </trkpt>
      <trkpt lat="48.69025" lon="1.97109">
        <ele>114.6</ele>
        <time>2026-01-13T09:35:56Z</time>
      </trkpt>
      <trkpt lat="48.69028" lon="1.97106">
        <ele>115</ele>
        <time>2026-01-13T09:35:57Z</time>
      </trkpt>
      <trkpt lat="48.69031" lon="1.97101">
        <ele>115</ele>
        <time>2026-01-13T09:35:58Z</time>
      </trkpt>
      <trkpt lat="48.69031" lon="1.97096">
        <ele>115</ele>
        <time>2026-01-13T09:35:59Z</time>
      </trkpt>
      <trkpt lat="48.69032" lon="1.9709">
        <ele>115</ele>
        <time>2026-01-13T09:36:00Z</time>
      </trkpt>
      <trkpt lat="48.69032" lon="1.97084">
        <ele>115</ele>
        <time>2026-01-13T09:36:01Z</time>
      </trkpt>
      <trkpt lat="48.69032" lon="1.97079">
        <ele>115.6</ele>
        <time>2026-01-13T09:36:02Z</time>
      </trkpt>
      <trkpt lat="48.69033" lon="1.97074">
        <ele>115.8</ele>
        <time>2026-01-13T09:36:03Z</time>
      </trkpt>
      <trkpt lat="48.69033" lon="1.97069">
        <ele>116</ele>
        <time>2026-01-13T09:36:04Z</time>
      </trkpt>
      <trkpt lat="48.69033" lon="1.97064">
        <ele>116.2</ele>
        <time>2026-01-13T09:36:05Z</time>
      </trkpt>
      <trkpt lat="48.69034" lon="1.97059">
        <ele>116.2</ele>
        <time>2026-01-13T09:36:06Z</time>
      </trkpt>
      <trkpt lat="48.69034" lon="1.97054">
        <ele>116.2</ele>
        <time>2026-01-13T09:36:07Z</time>
      </trkpt>
      <trkpt lat="48.69035" lon="1.97049">
        <ele>116.2</ele>
        <time>2026-01-13T09:36:08Z</time>
      </trkpt>
      <trkpt lat="48.69035" lon="1.97045">
        <ele>116.6</ele>
        <time>2026-01-13T09:36:09Z</time>
      </trkpt>
      <trkpt lat="48.69036" lon="1.9704">
        <ele>117</ele>
        <time>2026-01-13T09:36:10Z</time>
      </trkpt>
      <trkpt lat="48.69036" lon="1.97035">
        <ele>117</ele>
        <time>2026-01-13T09:36:11Z</time>
      </trkpt>
      <trkpt lat="48.69037" lon="1.9703">
        <ele>117.2</ele>
        <time>2026-01-13T09:36:12Z</time>
      </trkpt>
      <trkpt lat="48.69038" lon="1.97025">
        <ele>117.4</ele>
        <time>2026-01-13T09:36:13Z</time>
      </trkpt>
      <trkpt lat="48.69038" lon="1.9702">
        <ele>117.6</ele>
        <time>2026-01-13T09:36:14Z</time>
      </trkpt>
      <trkpt lat="48.69039" lon="1.97015">
        <ele>118</ele>
        <time>2026-01-13T09:36:15Z</time>
      </trkpt>
      <trkpt lat="48.6904" lon="1.9701">
        <ele>118</ele>
        <time>2026-01-13T09:36:16Z</time>
      </trkpt>
      <trkpt lat="48.6904" lon="1.97005">
        <ele>118</ele>
        <time>2026-01-13T09:36:17Z</time>
      </trkpt>
      <trkpt lat="48.69041" lon="1.97">
        <ele>118</ele>
        <time>2026-01-13T09:36:18Z</time>
      </trkpt>
      <trkpt lat="48.69042" lon="1.96996">
        <ele>118.4</ele>
        <time>2026-01-13T09:36:19Z</time>
      </trkpt>
      <trkpt lat="48.69042" lon="1.96991">
        <ele>118.8</ele>
        <time>2026-01-13T09:36:20Z</time>
      </trkpt>
      <trkpt lat="48.69043" lon="1.96986">
        <ele>118.8</ele>
        <time>2026-01-13T09:36:21Z</time>
      </trkpt>
      <trkpt lat="48.69043" lon="1.96981">
        <ele>118.8</ele>
        <time>2026-01-13T09:36:22Z</time>
      </trkpt>
      <trkpt lat="48.69044" lon="1.96976">
        <ele>118.8</ele>
        <time>2026-01-13T09:36:23Z</time>
      </trkpt>
      <trkpt lat="48.69045" lon="1.96971">
        <ele>119.6</ele>
        <time>2026-01-13T09:36:24Z</time>
      </trkpt>
      <trkpt lat="48.69045" lon="1.96966">
        <ele>120.2</ele>
        <time>2026-01-13T09:36:25Z</time>
      </trkpt>
      <trkpt lat="48.69046" lon="1.96962">
        <ele>120.2</ele>
        <time>2026-01-13T09:36:26Z</time>
      </trkpt>
      <trkpt lat="48.69047" lon="1.96957">
        <ele>120.6</ele>
        <time>2026-01-13T09:36:27Z</time>
      </trkpt>
      <trkpt lat="48.69047" lon="1.96952">
        <ele>120.6</ele>
        <time>2026-01-13T09:36:28Z</time>
      </trkpt>
      <trkpt lat="48.69048" lon="1.96947">
        <ele>120.8</ele>
        <time>2026-01-13T09:36:29Z</time>
      </trkpt>
      <trkpt lat="48.69049" lon="1.96943">
        <ele>120.8</ele>
        <time>2026-01-13T09:36:30Z</time>
      </trkpt>
      <trkpt lat="48.6905" lon="1.96938">
        <ele>120.8</ele>
        <time>2026-01-13T09:36:31Z</time>
      </trkpt>
      <trkpt lat="48.6905" lon="1.96934">
        <ele>120.8</ele>
        <time>2026-01-13T09:36:32Z</time>
      </trkpt>
      <trkpt lat="48.69051" lon="1.96929">
        <ele>121.8</ele>
        <time>2026-01-13T09:36:33Z</time>
      </trkpt>
      <trkpt lat="48.69052" lon="1.96924">
        <ele>122.4</ele>
        <time>2026-01-13T09:36:34Z</time>
      </trkpt>
      <trkpt lat="48.69052" lon="1.9692">
        <ele>122.4</ele>
        <time>2026-01-13T09:36:35Z</time>
      </trkpt>
      <trkpt lat="48.69053" lon="1.96915">
        <ele>122.4</ele>
        <time>2026-01-13T09:36:36Z</time>
      </trkpt>
      <trkpt lat="48.69053" lon="1.96911">
        <ele>122.4</ele>
        <time>2026-01-13T09:36:37Z</time>
      </trkpt>
      <trkpt lat="48.69054" lon="1.96906">
        <ele>122.4</ele>
        <time>2026-01-13T09:36:38Z</time>
      </trkpt>
      <trkpt lat="48.69055" lon="1.96902">
        <ele>123</ele>
        <time>2026-01-13T09:36:39Z</time>
      </trkpt>
      <trkpt lat="48.69055" lon="1.96897">
        <ele>123.2</ele>
        <time>2026-01-13T09:36:40Z</time>
      </trkpt>
      <trkpt lat="48.69056" lon="1.96893">
        <ele>123.8</ele>
        <time>2026-01-13T09:36:41Z</time>
      </trkpt>
      <trkpt lat="48.69056" lon="1.96888">
        <ele>124.2</ele>
        <time>2026-01-13T09:36:42Z</time>
      </trkpt>
      <trkpt lat="48.69057" lon="1.96884">
        <ele>124.2</ele>
        <time>2026-01-13T09:36:43Z</time>
      </trkpt>
      <trkpt lat="48.69057" lon="1.9688">
        <ele>124.2</ele>
        <time>2026-01-13T09:36:44Z</time>
      </trkpt>
      <trkpt lat="48.69058" lon="1.96875">
        <ele>124.2</ele>
        <time>2026-01-13T09:36:45Z</time>
      </trkpt>
      <trkpt lat="48.69058" lon="1.96871">
        <ele>125.2</ele>
        <time>2026-01-13T09:36:46Z</time>
      </trkpt>
      <trkpt lat="48.69059" lon="1.96866">
        <ele>125.8</ele>
        <time>2026-01-13T09:36:47Z</time>
      </trkpt>
      <trkpt lat="48.6906" lon="1.96862">
        <ele>125.8</ele>
        <time>2026-01-13T09:36:48Z</time>
      </trkpt>
      <trkpt lat="48.6906" lon="1.96857">
        <ele>125.8</ele>
        <time>2026-01-13T09:36:49Z</time>
      </trkpt>
      <trkpt lat="48.69061" lon="1.96853">
        <ele>125.8</ele>
        <time>2026-01-13T09:36:50Z</time>
      </trkpt>
      <trkpt lat="48.69062" lon="1.96849">
        <ele>125.8</ele>
        <time>2026-01-13T09:36:51Z</time>
      </trkpt>
      <trkpt lat="48.69062" lon="1.96844">
        <ele>126.6</ele>
        <time>2026-01-13T09:36:52Z</time>
      </trkpt>
      <trkpt lat="48.69063" lon="1.9684">
        <ele>126.6</ele>
        <time>2026-01-13T09:36:53Z</time>
      </trkpt>
      <trkpt lat="48.69064" lon="1.96835">
        <ele>127</ele>
        <time>2026-01-13T09:36:54Z</time>
      </trkpt>
      <trkpt lat="48.69064" lon="1.96831">
        <ele>127</ele>
        <time>2026-01-13T09:36:55Z</time>
      </trkpt>
      <trkpt lat="48.69065" lon="1.96827">
        <ele>127</ele>
        <time>2026-01-13T09:36:56Z</time>
      </trkpt>
      <trkpt lat="48.69066" lon="1.96822">
        <ele>127</ele>
        <time>2026-01-13T09:36:57Z</time>
      </trkpt>
      <trkpt lat="48.69066" lon="1.96818">
        <ele>127.6</ele>
        <time>2026-01-13T09:36:58Z</time>
      </trkpt>
      <trkpt lat="48.69067" lon="1.96813">
        <ele>127.6</ele>
        <time>2026-01-13T09:36:59Z</time>
      </trkpt>
      <trkpt lat="48.69067" lon="1.96809">
        <ele>127.8</ele>
        <time>2026-01-13T09:37:00Z</time>
      </trkpt>
      <trkpt lat="48.69068" lon="1.96804">
        <ele>127.8</ele>
        <time>2026-01-13T09:37:01Z</time>
      </trkpt>
      <trkpt lat="48.69068" lon="1.968">
        <ele>127.8</ele>
        <time>2026-01-13T09:37:02Z</time>
      </trkpt>
      <trkpt lat="48.69069" lon="1.96796">
        <ele>127.8</ele>
        <time>2026-01-13T09:37:03Z</time>
      </trkpt>
      <trkpt lat="48.6907" lon="1.96791">
        <ele>128.6</ele>
        <time>2026-01-13T09:37:04Z</time>
      </trkpt>
      <trkpt lat="48.6907" lon="1.96787">
        <ele>129</ele>
        <time>2026-01-13T09:37:05Z</time>
      </trkpt>
      <trkpt lat="48.69071" lon="1.96782">
        <ele>129.2</ele>
        <time>2026-01-13T09:37:06Z</time>
      </trkpt>
      <trkpt lat="48.69072" lon="1.96778">
        <ele>129.6</ele>
        <time>2026-01-13T09:37:07Z</time>
      </trkpt>
      <trkpt lat="48.69072" lon="1.96774">
        <ele>129.6</ele>
        <time>2026-01-13T09:37:08Z</time>
      </trkpt>
      <trkpt lat="48.69073" lon="1.96769">
        <ele>129.6</ele>
        <time>2026-01-13T09:37:09Z</time>
      </trkpt>
      <trkpt lat="48.69074" lon="1.96765">
        <ele>129.6</ele>
        <time>2026-01-13T09:37:10Z</time>
      </trkpt>
      <trkpt lat="48.69075" lon="1.9676">
        <ele>130.4</ele>
        <time>2026-01-13T09:37:11Z</time>
      </trkpt>
      <trkpt lat="48.69076" lon="1.96756">
        <ele>130.6</ele>
        <time>2026-01-13T09:37:12Z</time>
      </trkpt>
      <trkpt lat="48.69076" lon="1.96751">
        <ele>130.6</ele>
        <time>2026-01-13T09:37:13Z</time>
      </trkpt>
      <trkpt lat="48.69077" lon="1.96747">
        <ele>130.6</ele>
        <time>2026-01-13T09:37:14Z</time>
      </trkpt>
      <trkpt lat="48.69078" lon="1.96742">
        <ele>130.6</ele>
        <time>2026-01-13T09:37:15Z</time>
      </trkpt>
      <trkpt lat="48.69079" lon="1.96738">
        <ele>131.4</ele>
        <time>2026-01-13T09:37:16Z</time>
      </trkpt>
      <trkpt lat="48.6908" lon="1.96734">
        <ele>131.4</ele>
        <time>2026-01-13T09:37:17Z</time>
      </trkpt>
      <trkpt lat="48.69081" lon="1.96729">
        <ele>131.4</ele>
        <time>2026-01-13T09:37:18Z</time>
      </trkpt>
      <trkpt lat="48.69082" lon="1.96725">
        <ele>131.4</ele>
        <time>2026-01-13T09:37:19Z</time>
      </trkpt>
      <trkpt lat="48.69084" lon="1.96721">
        <ele>131.6</ele>
        <time>2026-01-13T09:37:20Z</time>
      </trkpt>
      <trkpt lat="48.69085" lon="1.96716">
        <ele>132.2</ele>
        <time>2026-01-13T09:37:21Z</time>
      </trkpt>
      <trkpt lat="48.69086" lon="1.96712">
        <ele>132.2</ele>
        <time>2026-01-13T09:37:22Z</time>
      </trkpt>
      <trkpt lat="48.69088" lon="1.96708">
        <ele>132.2</ele>
        <time>2026-01-13T09:37:23Z</time>
      </trkpt>
      <trkpt lat="48.6909" lon="1.96705">
        <ele>132.2</ele>
        <time>2026-01-13T09:37:24Z</time>
      </trkpt>
      <trkpt lat="48.69091" lon="1.96701">
        <ele>132.2</ele>
        <time>2026-01-13T09:37:25Z</time>
      </trkpt>
      <trkpt lat="48.69093" lon="1.96697">
        <ele>132.8</ele>
        <time>2026-01-13T09:37:26Z</time>
      </trkpt>
      <trkpt lat="48.69094" lon="1.96693">
        <ele>133</ele>
        <time>2026-01-13T09:37:27Z</time>
      </trkpt>
      <trkpt lat="48.69096" lon="1.96689">
        <ele>133.8</ele>
        <time>2026-01-13T09:37:28Z</time>
      </trkpt>
      <trkpt lat="48.69097" lon="1.96686">
        <ele>133.8</ele>
        <time>2026-01-13T09:37:29Z</time>
      </trkpt>
      <trkpt lat="48.69099" lon="1.96682">
        <ele>133.8</ele>
        <time>2026-01-13T09:37:30Z</time>
      </trkpt>
      <trkpt lat="48.691" lon="1.96678">
        <ele>133.8</ele>
        <time>2026-01-13T09:37:31Z</time>
      </trkpt>
      <trkpt lat="48.69102" lon="1.96675">
        <ele>133.8</ele>
        <time>2026-01-13T09:37:32Z</time>
      </trkpt>
      <trkpt lat="48.69104" lon="1.96672">
        <ele>133.8</ele>
        <time>2026-01-13T09:37:33Z</time>
      </trkpt>
      <trkpt lat="48.69106" lon="1.96669">
        <ele>134.2</ele>
        <time>2026-01-13T09:37:34Z</time>
      </trkpt>
      <trkpt lat="48.69108" lon="1.96666">
        <ele>134.8</ele>
        <time>2026-01-13T09:37:35Z</time>
      </trkpt>
      <trkpt lat="48.6911" lon="1.96662">
        <ele>134.8</ele>
        <time>2026-01-13T09:37:36Z</time>
      </trkpt>
      <trkpt lat="48.69112" lon="1.96659">
        <ele>134.8</ele>
        <time>2026-01-13T09:37:37Z</time>
      </trkpt>
      <trkpt lat="48.69115" lon="1.96656">
        <ele>134.8</ele>
        <time>2026-01-13T09:37:38Z</time>
      </trkpt>
      <trkpt lat="48.69118" lon="1.96654">
        <ele>134.8</ele>
        <time>2026-01-13T09:37:39Z</time>
      </trkpt>
      <trkpt lat="48.6912" lon="1.9665">
        <ele>135.2</ele>
        <time>2026-01-13T09:37:40Z</time>
      </trkpt>
      <trkpt lat="48.69122" lon="1.96647">
        <ele>135.6</ele>
        <time>2026-01-13T09:37:41Z</time>
      </trkpt>
      <trkpt lat="48.69125" lon="1.96644">
        <ele>136</ele>
        <time>2026-01-13T09:37:42Z</time>
      </trkpt>
      <trkpt lat="48.69128" lon="1.96641">
        <ele>136</ele>
        <time>2026-01-13T09:37:43Z</time>
      </trkpt>
      <trkpt lat="48.69131" lon="1.9664">
        <ele>136.2</ele>
        <time>2026-01-13T09:37:44Z</time>
      </trkpt>
      <trkpt lat="48.69133" lon="1.96637">
        <ele>136.2</ele>
        <time>2026-01-13T09:37:45Z</time>
      </trkpt>
      <trkpt lat="48.69136" lon="1.96635">
        <ele>136.2</ele>
        <time>2026-01-13T09:37:46Z</time>
      </trkpt>
      <trkpt lat="48.69138" lon="1.96633">
        <ele>136.2</ele>
        <time>2026-01-13T09:37:47Z</time>
      </trkpt>
      <trkpt lat="48.69141" lon="1.9663">
        <ele>137</ele>
        <time>2026-01-13T09:37:48Z</time>
      </trkpt>
      <trkpt lat="48.69144" lon="1.96628">
        <ele>137.6</ele>
        <time>2026-01-13T09:37:49Z</time>
      </trkpt>
      <trkpt lat="48.69146" lon="1.96626">
        <ele>137.8</ele>
        <time>2026-01-13T09:37:50Z</time>
      </trkpt>
      <trkpt lat="48.69149" lon="1.96624">
        <ele>138.2</ele>
        <time>2026-01-13T09:37:51Z</time>
      </trkpt>
      <trkpt lat="48.69152" lon="1.96622">
        <ele>138.2</ele>
        <time>2026-01-13T09:37:52Z</time>
      </trkpt>
      <trkpt lat="48.69154" lon="1.96619">
        <ele>138.2</ele>
        <time>2026-01-13T09:37:53Z</time>
      </trkpt>
      <trkpt lat="48.69156" lon="1.96616">
        <ele>138.2</ele>
        <time>2026-01-13T09:37:54Z</time>
      </trkpt>
      <trkpt lat="48.69159" lon="1.96614">
        <ele>138.4</ele>
        <time>2026-01-13T09:37:55Z</time>
      </trkpt>
      <trkpt lat="48.69162" lon="1.96612">
        <ele>138.4</ele>
        <time>2026-01-13T09:37:56Z</time>
      </trkpt>
      <trkpt lat="48.69165" lon="1.96609">
        <ele>138.4</ele>
        <time>2026-01-13T09:37:57Z</time>
      </trkpt>
      <trkpt lat="48.69168" lon="1.96607">
        <ele>138.4</ele>
        <time>2026-01-13T09:37:58Z</time>
      </trkpt>
      <trkpt lat="48.6917" lon="1.96604">
        <ele>139.2</ele>
        <time>2026-01-13T09:37:59Z</time>
      </trkpt>
      <trkpt lat="48.69173" lon="1.96602">
        <ele>139.6</ele>
        <time>2026-01-13T09:38:00Z</time>
      </trkpt>
      <trkpt lat="48.69176" lon="1.96599">
        <ele>139.6</ele>
        <time>2026-01-13T09:38:01Z</time>
      </trkpt>
      <trkpt lat="48.69179" lon="1.96596">
        <ele>139.6</ele>
        <time>2026-01-13T09:38:02Z</time>
      </trkpt>
      <trkpt lat="48.69182" lon="1.96594">
        <ele>139.6</ele>
        <time>2026-01-13T09:38:03Z</time>
      </trkpt>
      <trkpt lat="48.69185" lon="1.96592">
        <ele>139.6</ele>
        <time>2026-01-13T09:38:04Z</time>
      </trkpt>
      <trkpt lat="48.69188" lon="1.9659">
        <ele>139.6</ele>
        <time>2026-01-13T09:38:05Z</time>
      </trkpt>
      <trkpt lat="48.69191" lon="1.96588">
        <ele>139.6</ele>
        <time>2026-01-13T09:38:06Z</time>
      </trkpt>
      <trkpt lat="48.69194" lon="1.96585">
        <ele>140.4</ele>
        <time>2026-01-13T09:38:07Z</time>
      </trkpt>
      <trkpt lat="48.69197" lon="1.96583">
        <ele>140.4</ele>
        <time>2026-01-13T09:38:08Z</time>
      </trkpt>
      <trkpt lat="48.692" lon="1.9658">
        <ele>140.4</ele>
        <time>2026-01-13T09:38:09Z</time>
      </trkpt>
      <trkpt lat="48.69203" lon="1.96578">
        <ele>140.4</ele>
        <time>2026-01-13T09:38:10Z</time>
      </trkpt>
      <trkpt lat="48.69207" lon="1.96575">
        <ele>140.8</ele>
        <time>2026-01-13T09:38:11Z</time>
      </trkpt>
      <trkpt lat="48.69209" lon="1.96573">
        <ele>141.4</ele>
        <time>2026-01-13T09:38:12Z</time>
      </trkpt>
      <trkpt lat="48.69212" lon="1.9657">
        <ele>141.4</ele>
        <time>2026-01-13T09:38:13Z</time>
      </trkpt>
      <trkpt lat="48.69215" lon="1.96568">
        <ele>141.4</ele>
        <time>2026-01-13T09:38:14Z</time>
      </trkpt>
      <trkpt lat="48.69218" lon="1.96565">
        <ele>141.4</ele>
        <time>2026-01-13T09:38:15Z</time>
      </trkpt>
      <trkpt lat="48.69222" lon="1.96562">
        <ele>141.4</ele>
        <time>2026-01-13T09:38:16Z</time>
      </trkpt>
      <trkpt lat="48.69225" lon="1.96559">
        <ele>141.6</ele>
        <time>2026-01-13T09:38:17Z</time>
      </trkpt>
      <trkpt lat="48.69228" lon="1.96556">
        <ele>142.4</ele>
        <time>2026-01-13T09:38:18Z</time>
      </trkpt>
      <trkpt lat="48.69231" lon="1.96553">
        <ele>142.8</ele>
        <time>2026-01-13T09:38:19Z</time>
      </trkpt>
      <trkpt lat="48.69234" lon="1.96551">
        <ele>142.8</ele>
        <time>2026-01-13T09:38:20Z</time>
      </trkpt>
      <trkpt lat="48.69237" lon="1.96548">
        <ele>142.8</ele>
        <time>2026-01-13T09:38:21Z</time>
      </trkpt>
      <trkpt lat="48.69239" lon="1.96546">
        <ele>142.8</ele>
        <time>2026-01-13T09:38:22Z</time>
      </trkpt>
      <trkpt lat="48.69241" lon="1.96543">
        <ele>143.2</ele>
        <time>2026-01-13T09:38:23Z</time>
      </trkpt>
      <trkpt lat="48.69243" lon="1.9654">
        <ele>143.2</ele>
        <time>2026-01-13T09:38:24Z</time>
      </trkpt>
      <trkpt lat="48.69246" lon="1.96536">
        <ele>143.2</ele>
        <time>2026-01-13T09:38:25Z</time>
      </trkpt>
      <trkpt lat="48.69248" lon="1.96534">
        <ele>143.2</ele>
        <time>2026-01-13T09:38:26Z</time>
      </trkpt>
      <trkpt lat="48.6925" lon="1.9653">
        <ele>144</ele>
        <time>2026-01-13T09:38:27Z</time>
      </trkpt>
      <trkpt lat="48.69252" lon="1.96526">
        <ele>144.2</ele>
        <time>2026-01-13T09:38:28Z</time>
      </trkpt>
      <trkpt lat="48.69253" lon="1.96522">
        <ele>144.2</ele>
        <time>2026-01-13T09:38:29Z</time>
      </trkpt>
      <trkpt lat="48.69254" lon="1.96518">
        <ele>144.6</ele>
        <time>2026-01-13T09:38:30Z</time>
      </trkpt>
      <trkpt lat="48.69255" lon="1.96513">
        <ele>144.6</ele>
        <time>2026-01-13T09:38:31Z</time>
      </trkpt>
      <trkpt lat="48.69256" lon="1.96509">
        <ele>145</ele>
        <time>2026-01-13T09:38:32Z</time>
      </trkpt>
      <trkpt lat="48.69257" lon="1.96504">
        <ele>145.4</ele>
        <time>2026-01-13T09:38:33Z</time>
      </trkpt>
      <trkpt lat="48.69258" lon="1.965">
        <ele>145.6</ele>
        <time>2026-01-13T09:38:34Z</time>
      </trkpt>
      <trkpt lat="48.6926" lon="1.96495">
        <ele>145.6</ele>
        <time>2026-01-13T09:38:35Z</time>
      </trkpt>
      <trkpt lat="48.69261" lon="1.9649">
        <ele>145.6</ele>
        <time>2026-01-13T09:38:36Z</time>
      </trkpt>
      <trkpt lat="48.69261" lon="1.96485">
        <ele>145.6</ele>
        <time>2026-01-13T09:38:37Z</time>
      </trkpt>
      <trkpt lat="48.69262" lon="1.9648">
        <ele>145.6</ele>
        <time>2026-01-13T09:38:38Z</time>
      </trkpt>
      <trkpt lat="48.69264" lon="1.96476">
        <ele>145.6</ele>
        <time>2026-01-13T09:38:39Z</time>
      </trkpt>
      <trkpt lat="48.69265" lon="1.96471">
        <ele>146</ele>
        <time>2026-01-13T09:38:40Z</time>
      </trkpt>
      <trkpt lat="48.69267" lon="1.96467">
        <ele>146</ele>
        <time>2026-01-13T09:38:41Z</time>
      </trkpt>
      <trkpt lat="48.69269" lon="1.96463">
        <ele>146.4</ele>
        <time>2026-01-13T09:38:42Z</time>
      </trkpt>
      <trkpt lat="48.69271" lon="1.96459">
        <ele>146.6</ele>
        <time>2026-01-13T09:38:43Z</time>
      </trkpt>
      <trkpt lat="48.69274" lon="1.96455">
        <ele>147</ele>
        <time>2026-01-13T09:38:44Z</time>
      </trkpt>
      <trkpt lat="48.69276" lon="1.96452">
        <ele>147</ele>
        <time>2026-01-13T09:38:45Z</time>
      </trkpt>
      <trkpt lat="48.69279" lon="1.96448">
        <ele>147.6</ele>
        <time>2026-01-13T09:38:46Z</time>
      </trkpt>
      <trkpt lat="48.69281" lon="1.96444">
        <ele>147.6</ele>
        <time>2026-01-13T09:38:47Z</time>
      </trkpt>
      <trkpt lat="48.69284" lon="1.96442">
        <ele>147.6</ele>
        <time>2026-01-13T09:38:48Z</time>
      </trkpt>
      <trkpt lat="48.69287" lon="1.9644">
        <ele>147.6</ele>
        <time>2026-01-13T09:38:49Z</time>
      </trkpt>
      <trkpt lat="48.69289" lon="1.96438">
        <ele>148.2</ele>
        <time>2026-01-13T09:38:50Z</time>
      </trkpt>
      <trkpt lat="48.69291" lon="1.96437">
        <ele>148.8</ele>
        <time>2026-01-13T09:38:51Z</time>
      </trkpt>
      <trkpt lat="48.69294" lon="1.96435">
        <ele>148.8</ele>
        <time>2026-01-13T09:38:52Z</time>
      </trkpt>
      <trkpt lat="48.69297" lon="1.96433">
        <ele>148.8</ele>
        <time>2026-01-13T09:38:53Z</time>
      </trkpt>
      <trkpt lat="48.693" lon="1.96431">
        <ele>148.8</ele>
        <time>2026-01-13T09:38:54Z</time>
      </trkpt>
      <trkpt lat="48.69302" lon="1.96429">
        <ele>148.8</ele>
        <time>2026-01-13T09:38:55Z</time>
      </trkpt>
      <trkpt lat="48.69305" lon="1.96427">
        <ele>149.8</ele>
        <time>2026-01-13T09:38:56Z</time>
      </trkpt>
      <trkpt lat="48.69307" lon="1.96425">
        <ele>150</ele>
        <time>2026-01-13T09:38:57Z</time>
      </trkpt>
      <trkpt lat="48.6931" lon="1.96422">
        <ele>150</ele>
        <time>2026-01-13T09:38:58Z</time>
      </trkpt>
      <trkpt lat="48.69313" lon="1.9642">
        <ele>150</ele>
        <time>2026-01-13T09:38:59Z</time>
      </trkpt>
      <trkpt lat="48.69315" lon="1.96416">
        <ele>150</ele>
        <time>2026-01-13T09:39:00Z</time>
      </trkpt>
      <trkpt lat="48.69317" lon="1.96413">
        <ele>150.6</ele>
        <time>2026-01-13T09:39:01Z</time>
      </trkpt>
      <trkpt lat="48.69319" lon="1.96409">
        <ele>150.6</ele>
        <time>2026-01-13T09:39:02Z</time>
      </trkpt>
      <trkpt lat="48.69322" lon="1.96405">
        <ele>150.6</ele>
        <time>2026-01-13T09:39:03Z</time>
      </trkpt>
      <trkpt lat="48.69323" lon="1.96401">
        <ele>150.6</ele>
        <time>2026-01-13T09:39:04Z</time>
      </trkpt>
      <trkpt lat="48.69325" lon="1.96397">
        <ele>151.6</ele>
        <time>2026-01-13T09:39:05Z</time>
      </trkpt>
      <trkpt lat="48.69327" lon="1.96393">
        <ele>151.6</ele>
        <time>2026-01-13T09:39:06Z</time>
      </trkpt>
      <trkpt lat="48.69328" lon="1.96388">
        <ele>151.6</ele>
        <time>2026-01-13T09:39:07Z</time>
      </trkpt>
      <trkpt lat="48.6933" lon="1.96384">
        <ele>151.4</ele>
        <time>2026-01-13T09:39:08Z</time>
      </trkpt>
      <trkpt lat="48.69331" lon="1.96379">
        <ele>151.4</ele>
        <time>2026-01-13T09:39:09Z</time>
      </trkpt>
      <trkpt lat="48.69332" lon="1.96375">
        <ele>151.4</ele>
        <time>2026-01-13T09:39:10Z</time>
      </trkpt>
      <trkpt lat="48.69333" lon="1.9637">
        <ele>152</ele>
        <time>2026-01-13T09:39:11Z</time>
      </trkpt>
      <trkpt lat="48.69334" lon="1.96365">
        <ele>152.4</ele>
        <time>2026-01-13T09:39:12Z</time>
      </trkpt>
      <trkpt lat="48.69334" lon="1.9636">
        <ele>152.6</ele>
        <time>2026-01-13T09:39:13Z</time>
      </trkpt>
      <trkpt lat="48.69335" lon="1.96355">
        <ele>152.6</ele>
        <time>2026-01-13T09:39:14Z</time>
      </trkpt>
      <trkpt lat="48.69336" lon="1.9635">
        <ele>152.6</ele>
        <time>2026-01-13T09:39:15Z</time>
      </trkpt>
      <trkpt lat="48.69336" lon="1.96345">
        <ele>152.6</ele>
        <time>2026-01-13T09:39:16Z</time>
      </trkpt>
      <trkpt lat="48.69337" lon="1.96341">
        <ele>153</ele>
        <time>2026-01-13T09:39:17Z</time>
      </trkpt>
      <trkpt lat="48.69338" lon="1.96337">
        <ele>153.2</ele>
        <time>2026-01-13T09:39:18Z</time>
      </trkpt>
      <trkpt lat="48.69339" lon="1.96332">
        <ele>153.4</ele>
        <time>2026-01-13T09:39:19Z</time>
      </trkpt>
      <trkpt lat="48.69339" lon="1.96328">
        <ele>153.8</ele>
        <time>2026-01-13T09:39:20Z</time>
      </trkpt>
      <trkpt lat="48.6934" lon="1.96324">
        <ele>153.8</ele>
        <time>2026-01-13T09:39:21Z</time>
      </trkpt>
      <trkpt lat="48.6934" lon="1.96319">
        <ele>153.8</ele>
        <time>2026-01-13T09:39:22Z</time>
      </trkpt>
      <trkpt lat="48.69341" lon="1.96315">
        <ele>153.8</ele>
        <time>2026-01-13T09:39:23Z</time>
      </trkpt>
      <trkpt lat="48.69341" lon="1.9631">
        <ele>154</ele>
        <time>2026-01-13T09:39:24Z</time>
      </trkpt>
      <trkpt lat="48.69342" lon="1.96306">
        <ele>154.4</ele>
        <time>2026-01-13T09:39:25Z</time>
      </trkpt>
      <trkpt lat="48.69342" lon="1.96301">
        <ele>154.4</ele>
        <time>2026-01-13T09:39:26Z</time>
      </trkpt>
      <trkpt lat="48.69343" lon="1.96297">
        <ele>154.4</ele>
        <time>2026-01-13T09:39:27Z</time>
      </trkpt>
      <trkpt lat="48.69343" lon="1.96293">
        <ele>154.4</ele>
        <time>2026-01-13T09:39:28Z</time>
      </trkpt>
      <trkpt lat="48.69342" lon="1.96289">
        <ele>154.4</ele>
        <time>2026-01-13T09:39:29Z</time>
      </trkpt>
      <trkpt lat="48.69342" lon="1.96285">
        <ele>155.2</ele>
        <time>2026-01-13T09:39:30Z</time>
      </trkpt>
      <trkpt lat="48.69341" lon="1.96281">
        <ele>155.6</ele>
        <time>2026-01-13T09:39:31Z</time>
      </trkpt>
      <trkpt lat="48.69341" lon="1.96276">
        <ele>155.6</ele>
        <time>2026-01-13T09:39:32Z</time>
      </trkpt>
      <trkpt lat="48.6934" lon="1.96272">
        <ele>155.8</ele>
        <time>2026-01-13T09:39:33Z</time>
      </trkpt>
      <trkpt lat="48.6934" lon="1.96267">
        <ele>156</ele>
        <time>2026-01-13T09:39:34Z</time>
      </trkpt>
      <trkpt lat="48.69339" lon="1.96262">
        <ele>156.2</ele>
        <time>2026-01-13T09:39:35Z</time>
      </trkpt>
      <trkpt lat="48.69338" lon="1.96257">
        <ele>156.6</ele>
        <time>2026-01-13T09:39:36Z</time>
      </trkpt>
      <trkpt lat="48.69338" lon="1.96252">
        <ele>156.6</ele>
        <time>2026-01-13T09:39:37Z</time>
      </trkpt>
      <trkpt lat="48.69337" lon="1.96247">
        <ele>156.8</ele>
        <time>2026-01-13T09:39:38Z</time>
      </trkpt>
      <trkpt lat="48.69336" lon="1.96242">
        <ele>157.2</ele>
        <time>2026-01-13T09:39:39Z</time>
      </trkpt>
      <trkpt lat="48.69335" lon="1.96238">
        <ele>157.2</ele>
        <time>2026-01-13T09:39:40Z</time>
      </trkpt>
      <trkpt lat="48.69334" lon="1.96232">
        <ele>157.2</ele>
        <time>2026-01-13T09:39:41Z</time>
      </trkpt>
      <trkpt lat="48.69333" lon="1.96228">
        <ele>157.2</ele>
        <time>2026-01-13T09:39:42Z</time>
      </trkpt>
      <trkpt lat="48.69331" lon="1.96224">
        <ele>157.4</ele>
        <time>2026-01-13T09:39:43Z</time>
      </trkpt>
      <trkpt lat="48.6933" lon="1.9622">
        <ele>157.8</ele>
        <time>2026-01-13T09:39:44Z</time>
      </trkpt>
      <trkpt lat="48.69329" lon="1.96218">
        <ele>158</ele>
        <time>2026-01-13T09:39:45Z</time>
      </trkpt>
      <trkpt lat="48.69327" lon="1.96213">
        <ele>158.8</ele>
        <time>2026-01-13T09:39:46Z</time>
      </trkpt>
      <trkpt lat="48.69326" lon="1.96209">
        <ele>158.8</ele>
        <time>2026-01-13T09:39:47Z</time>
      </trkpt>
      <trkpt lat="48.69324" lon="1.96204">
        <ele>158.8</ele>
        <time>2026-01-13T09:39:48Z</time>
      </trkpt>
      <trkpt lat="48.69322" lon="1.96199">
        <ele>158.8</ele>
        <time>2026-01-13T09:39:49Z</time>
      </trkpt>
      <trkpt lat="48.69321" lon="1.96194">
        <ele>158.8</ele>
        <time>2026-01-13T09:39:50Z</time>
      </trkpt>
      <trkpt lat="48.69319" lon="1.96189">
        <ele>158.8</ele>
        <time>2026-01-13T09:39:51Z</time>
      </trkpt>
      <trkpt lat="48.69317" lon="1.96184">
        <ele>159.8</ele>
        <time>2026-01-13T09:39:52Z</time>
      </trkpt>
      <trkpt lat="48.69315" lon="1.9618">
        <ele>160.2</ele>
        <time>2026-01-13T09:39:53Z</time>
      </trkpt>
      <trkpt lat="48.69314" lon="1.96175">
        <ele>160.2</ele>
        <time>2026-01-13T09:39:54Z</time>
      </trkpt>
      <trkpt lat="48.69312" lon="1.96171">
        <ele>160.6</ele>
        <time>2026-01-13T09:39:55Z</time>
      </trkpt>
      <trkpt lat="48.6931" lon="1.96167">
        <ele>160.6</ele>
        <time>2026-01-13T09:39:56Z</time>
      </trkpt>
      <trkpt lat="48.69308" lon="1.96163">
        <ele>160.6</ele>
        <time>2026-01-13T09:39:57Z</time>
      </trkpt>
      <trkpt lat="48.69306" lon="1.96159">
        <ele>160.6</ele>
        <time>2026-01-13T09:39:58Z</time>
      </trkpt>
      <trkpt lat="48.69304" lon="1.96155">
        <ele>160.6</ele>
        <time>2026-01-13T09:39:59Z</time>
      </trkpt>
      <trkpt lat="48.69302" lon="1.96151">
        <ele>161.4</ele>
        <time>2026-01-13T09:40:00Z</time>
      </trkpt>
      <trkpt lat="48.693" lon="1.96147">
        <ele>161.6</ele>
        <time>2026-01-13T09:40:01Z</time>
      </trkpt>
      <trkpt lat="48.69298" lon="1.96143">
        <ele>161.6</ele>
        <time>2026-01-13T09:40:02Z</time>
      </trkpt>
      <trkpt lat="48.69295" lon="1.96139">
        <ele>161.6</ele>
        <time>2026-01-13T09:40:03Z</time>
      </trkpt>
      <trkpt lat="48.69293" lon="1.96135">
        <ele>162</ele>
        <time>2026-01-13T09:40:04Z</time>
      </trkpt>
      <trkpt lat="48.69291" lon="1.96131">
        <ele>162</ele>
        <time>2026-01-13T09:40:05Z</time>
      </trkpt>
      <trkpt lat="48.69289" lon="1.96127">
        <ele>162</ele>
        <time>2026-01-13T09:40:06Z</time>
      </trkpt>
      <trkpt lat="48.69287" lon="1.96123">
        <ele>162</ele>
        <time>2026-01-13T09:40:07Z</time>
      </trkpt>
      <trkpt lat="48.69284" lon="1.9612">
        <ele>162</ele>
        <time>2026-01-13T09:40:08Z</time>
      </trkpt>
      <trkpt lat="48.69282" lon="1.96116">
        <ele>162</ele>
        <time>2026-01-13T09:40:09Z</time>
      </trkpt>
      <trkpt lat="48.6928" lon="1.96112">
        <ele>162</ele>
        <time>2026-01-13T09:40:10Z</time>
      </trkpt>
      <trkpt lat="48.69277" lon="1.96108">
        <ele>162.6</ele>
        <time>2026-01-13T09:40:11Z</time>
      </trkpt>
      <trkpt lat="48.69276" lon="1.96104">
        <ele>162.8</ele>
        <time>2026-01-13T09:40:12Z</time>
      </trkpt>
      <trkpt lat="48.69274" lon="1.96101">
        <ele>163</ele>
        <time>2026-01-13T09:40:13Z</time>
      </trkpt>
      <trkpt lat="48.69272" lon="1.96097">
        <ele>163.2</ele>
        <time>2026-01-13T09:40:14Z</time>
      </trkpt>
      <trkpt lat="48.6927" lon="1.96093">
        <ele>163.2</ele>
        <time>2026-01-13T09:40:15Z</time>
      </trkpt>
      <trkpt lat="48.69268" lon="1.96089">
        <ele>164</ele>
        <time>2026-01-13T09:40:16Z</time>
      </trkpt>
      <trkpt lat="48.69267" lon="1.96085">
        <ele>164</ele>
        <time>2026-01-13T09:40:17Z</time>
      </trkpt>
      <trkpt lat="48.69264" lon="1.96081">
        <ele>164</ele>
        <time>2026-01-13T09:40:18Z</time>
      </trkpt>
      <trkpt lat="48.69262" lon="1.96077">
        <ele>164</ele>
        <time>2026-01-13T09:40:19Z</time>
      </trkpt>
      <trkpt lat="48.6926" lon="1.96073">
        <ele>164</ele>
        <time>2026-01-13T09:40:20Z</time>
      </trkpt>
      <trkpt lat="48.69258" lon="1.96069">
        <ele>164.8</ele>
        <time>2026-01-13T09:40:21Z</time>
      </trkpt>
      <trkpt lat="48.69257" lon="1.96065">
        <ele>164.8</ele>
        <time>2026-01-13T09:40:22Z</time>
      </trkpt>
      <trkpt lat="48.69255" lon="1.96061">
        <ele>164.8</ele>
        <time>2026-01-13T09:40:23Z</time>
      </trkpt>
      <trkpt lat="48.69253" lon="1.96056">
        <ele>164.8</ele>
        <time>2026-01-13T09:40:24Z</time>
      </trkpt>
      <trkpt lat="48.69251" lon="1.96052">
        <ele>164.8</ele>
        <time>2026-01-13T09:40:25Z</time>
      </trkpt>
      <trkpt lat="48.69249" lon="1.96048">
        <ele>164.8</ele>
        <time>2026-01-13T09:40:26Z</time>
      </trkpt>
      <trkpt lat="48.69248" lon="1.96045">
        <ele>165.4</ele>
        <time>2026-01-13T09:40:27Z</time>
      </trkpt>
      <trkpt lat="48.69247" lon="1.96041">
        <ele>166</ele>
        <time>2026-01-13T09:40:28Z</time>
      </trkpt>
      <trkpt lat="48.69245" lon="1.96036">
        <ele>166</ele>
        <time>2026-01-13T09:40:29Z</time>
      </trkpt>
      <trkpt lat="48.69244" lon="1.96032">
        <ele>166</ele>
        <time>2026-01-13T09:40:30Z</time>
      </trkpt>
      <trkpt lat="48.69243" lon="1.96027">
        <ele>166</ele>
        <time>2026-01-13T09:40:31Z</time>
      </trkpt>
      <trkpt lat="48.69242" lon="1.96023">
        <ele>166</ele>
        <time>2026-01-13T09:40:32Z</time>
      </trkpt>
      <trkpt lat="48.69241" lon="1.96019">
        <ele>166.6</ele>
        <time>2026-01-13T09:40:33Z</time>
      </trkpt>
      <trkpt lat="48.69241" lon="1.96015">
        <ele>166.6</ele>
        <time>2026-01-13T09:40:34Z</time>
      </trkpt>
      <trkpt lat="48.6924" lon="1.96011">
        <ele>166.6</ele>
        <time>2026-01-13T09:40:35Z</time>
      </trkpt>
      <trkpt lat="48.69239" lon="1.96007">
        <ele>166.6</ele>
        <time>2026-01-13T09:40:36Z</time>
      </trkpt>
      <trkpt lat="48.69238" lon="1.96002">
        <ele>167</ele>
        <time>2026-01-13T09:40:37Z</time>
      </trkpt>
      <trkpt lat="48.69236" lon="1.95996">
        <ele>167</ele>
        <time>2026-01-13T09:40:38Z</time>
      </trkpt>
      <trkpt lat="48.69235" lon="1.9599">
        <ele>167</ele>
        <time>2026-01-13T09:40:39Z</time>
      </trkpt>
      <trkpt lat="48.69232" lon="1.95984">
        <ele>167</ele>
        <time>2026-01-13T09:40:40Z</time>
      </trkpt>
      <trkpt lat="48.69231" lon="1.95978">
        <ele>168</ele>
        <time>2026-01-13T09:40:41Z</time>
      </trkpt>
      <trkpt lat="48.6923" lon="1.95972">
        <ele>168.2</ele>
        <time>2026-01-13T09:40:42Z</time>
      </trkpt>
      <trkpt lat="48.6923" lon="1.95967">
        <ele>168.2</ele>
        <time>2026-01-13T09:40:43Z</time>
      </trkpt>
      <trkpt lat="48.69228" lon="1.9596">
        <ele>168.2</ele>
        <time>2026-01-13T09:40:44Z</time>
      </trkpt>
      <trkpt lat="48.69228" lon="1.95955">
        <ele>168.2</ele>
        <time>2026-01-13T09:40:45Z</time>
      </trkpt>
      <trkpt lat="48.69227" lon="1.95949">
        <ele>168.2</ele>
        <time>2026-01-13T09:40:46Z</time>
      </trkpt>
      <trkpt lat="48.69227" lon="1.95943">
        <ele>168.2</ele>
        <time>2026-01-13T09:40:47Z</time>
      </trkpt>
      <trkpt lat="48.69226" lon="1.95936">
        <ele>168.2</ele>
        <time>2026-01-13T09:40:48Z</time>
      </trkpt>
      <trkpt lat="48.69226" lon="1.9593">
        <ele>168.2</ele>
        <time>2026-01-13T09:40:49Z</time>
      </trkpt>
      <trkpt lat="48.69226" lon="1.95926">
        <ele>168.8</ele>
        <time>2026-01-13T09:40:50Z</time>
      </trkpt>
      <trkpt lat="48.69226" lon="1.95921">
        <ele>168.8</ele>
        <time>2026-01-13T09:40:51Z</time>
      </trkpt>
      <trkpt lat="48.69227" lon="1.95916">
        <ele>168.8</ele>
        <time>2026-01-13T09:40:52Z</time>
      </trkpt>
      <trkpt lat="48.69227" lon="1.95911">
        <ele>168.8</ele>
        <time>2026-01-13T09:40:53Z</time>
      </trkpt>
      <trkpt lat="48.69228" lon="1.95905">
        <ele>169.4</ele>
        <time>2026-01-13T09:40:54Z</time>
      </trkpt>
      <trkpt lat="48.69228" lon="1.95899">
        <ele>169.6</ele>
        <time>2026-01-13T09:40:55Z</time>
      </trkpt>
      <trkpt lat="48.69229" lon="1.95893">
        <ele>169.6</ele>
        <time>2026-01-13T09:40:56Z</time>
      </trkpt>
      <trkpt lat="48.6923" lon="1.95887">
        <ele>169.6</ele>
        <time>2026-01-13T09:40:57Z</time>
      </trkpt>
      <trkpt lat="48.6923" lon="1.95881">
        <ele>169.6</ele>
        <time>2026-01-13T09:40:58Z</time>
      </trkpt>
      <trkpt lat="48.69231" lon="1.95876">
        <ele>169.6</ele>
        <time>2026-01-13T09:40:59Z</time>
      </trkpt>
      <trkpt lat="48.69232" lon="1.9587">
        <ele>169.8</ele>
        <time>2026-01-13T09:41:00Z</time>
      </trkpt>
      <trkpt lat="48.69232" lon="1.95864">
        <ele>169.8</ele>
        <time>2026-01-13T09:41:01Z</time>
      </trkpt>
      <trkpt lat="48.69233" lon="1.95858">
        <ele>169.8</ele>
        <time>2026-01-13T09:41:02Z</time>
      </trkpt>
      <trkpt lat="48.69234" lon="1.95852">
        <ele>169.8</ele>
        <time>2026-01-13T09:41:03Z</time>
      </trkpt>
      <trkpt lat="48.69234" lon="1.95847">
        <ele>169.8</ele>
        <time>2026-01-13T09:41:04Z</time>
      </trkpt>
      <trkpt lat="48.69235" lon="1.95842">
        <ele>169.8</ele>
        <time>2026-01-13T09:41:05Z</time>
      </trkpt>
      <trkpt lat="48.69236" lon="1.95836">
        <ele>169.8</ele>
        <time>2026-01-13T09:41:06Z</time>
      </trkpt>
      <trkpt lat="48.69236" lon="1.9583">
        <ele>170.6</ele>
        <time>2026-01-13T09:41:07Z</time>
      </trkpt>
      <trkpt lat="48.69237" lon="1.95823">
        <ele>170.8</ele>
        <time>2026-01-13T09:41:08Z</time>
      </trkpt>
      <trkpt lat="48.69238" lon="1.95817">
        <ele>170.8</ele>
        <time>2026-01-13T09:41:09Z</time>
      </trkpt>
      <trkpt lat="48.69239" lon="1.9581">
        <ele>171</ele>
        <time>2026-01-13T09:41:10Z</time>
      </trkpt>
      <trkpt lat="48.69239" lon="1.95804">
        <ele>171</ele>
        <time>2026-01-13T09:41:11Z</time>
      </trkpt>
      <trkpt lat="48.6924" lon="1.95797">
        <ele>171</ele>
        <time>2026-01-13T09:41:12Z</time>
      </trkpt>
      <trkpt lat="48.69241" lon="1.9579">
        <ele>171</ele>
        <time>2026-01-13T09:41:13Z</time>
      </trkpt>
      <trkpt lat="48.69242" lon="1.95783">
        <ele>171</ele>
        <time>2026-01-13T09:41:14Z</time>
      </trkpt>
      <trkpt lat="48.69243" lon="1.95777">
        <ele>171</ele>
        <time>2026-01-13T09:41:15Z</time>
      </trkpt>
      <trkpt lat="48.69245" lon="1.95772">
        <ele>171</ele>
        <time>2026-01-13T09:41:16Z</time>
      </trkpt>
      <trkpt lat="48.69246" lon="1.95766">
        <ele>171</ele>
        <time>2026-01-13T09:41:17Z</time>
      </trkpt>
      <trkpt lat="48.69247" lon="1.95761">
        <ele>171</ele>
        <time>2026-01-13T09:41:18Z</time>
      </trkpt>
      <trkpt lat="48.69247" lon="1.95754">
        <ele>171</ele>
        <time>2026-01-13T09:41:19Z</time>
      </trkpt>
      <trkpt lat="48.69248" lon="1.95746">
        <ele>171</ele>
        <time>2026-01-13T09:41:20Z</time>
      </trkpt>
      <trkpt lat="48.69249" lon="1.95739">
        <ele>171</ele>
        <time>2026-01-13T09:41:21Z</time>
      </trkpt>
      <trkpt lat="48.6925" lon="1.95732">
        <ele>171</ele>
        <time>2026-01-13T09:41:22Z</time>
      </trkpt>
      <trkpt lat="48.69251" lon="1.95724">
        <ele>172</ele>
        <time>2026-01-13T09:41:23Z</time>
      </trkpt>
      <trkpt lat="48.69252" lon="1.95717">
        <ele>172</ele>
        <time>2026-01-13T09:41:24Z</time>
      </trkpt>
      <trkpt lat="48.69253" lon="1.95709">
        <ele>172</ele>
        <time>2026-01-13T09:41:25Z</time>
      </trkpt>
      <trkpt lat="48.69254" lon="1.95702">
        <ele>172</ele>
        <time>2026-01-13T09:41:26Z</time>
      </trkpt>
      <trkpt lat="48.69255" lon="1.95695">
        <ele>171.8</ele>
        <time>2026-01-13T09:41:27Z</time>
      </trkpt>
      <trkpt lat="48.69256" lon="1.95687">
        <ele>171.8</ele>
        <time>2026-01-13T09:41:28Z</time>
      </trkpt>
      <trkpt lat="48.69257" lon="1.95679">
        <ele>171.8</ele>
        <time>2026-01-13T09:41:29Z</time>
      </trkpt>
      <trkpt lat="48.69258" lon="1.95672">
        <ele>171.8</ele>
        <time>2026-01-13T09:41:30Z</time>
      </trkpt>
      <trkpt lat="48.69259" lon="1.95664">
        <ele>172</ele>
        <time>2026-01-13T09:41:31Z</time>
      </trkpt>
      <trkpt lat="48.69259" lon="1.95656">
        <ele>172</ele>
        <time>2026-01-13T09:41:32Z</time>
      </trkpt>
      <trkpt lat="48.6926" lon="1.95648">
        <ele>172</ele>
        <time>2026-01-13T09:41:33Z</time>
      </trkpt>
      <trkpt lat="48.6926" lon="1.95639">
        <ele>172</ele>
        <time>2026-01-13T09:41:34Z</time>
      </trkpt>
      <trkpt lat="48.69261" lon="1.9563">
        <ele>172</ele>
        <time>2026-01-13T09:41:35Z</time>
      </trkpt>
      <trkpt lat="48.69262" lon="1.95621">
        <ele>172</ele>
        <time>2026-01-13T09:41:36Z</time>
      </trkpt>
      <trkpt lat="48.69262" lon="1.95613">
        <ele>172</ele>
        <time>2026-01-13T09:41:37Z</time>
      </trkpt>
      <trkpt lat="48.69263" lon="1.95605">
        <ele>172</ele>
        <time>2026-01-13T09:41:38Z</time>
      </trkpt>
      <trkpt lat="48.69265" lon="1.95597">
        <ele>172</ele>
        <time>2026-01-13T09:41:39Z</time>
      </trkpt>
      <trkpt lat="48.69267" lon="1.9559">
        <ele>172</ele>
        <time>2026-01-13T09:41:40Z</time>
      </trkpt>
      <trkpt lat="48.69267" lon="1.95581">
        <ele>172</ele>
        <time>2026-01-13T09:41:41Z</time>
      </trkpt>
      <trkpt lat="48.69269" lon="1.95574">
        <ele>172</ele>
        <time>2026-01-13T09:41:42Z</time>
      </trkpt>
      <trkpt lat="48.6927" lon="1.95565">
        <ele>172</ele>
        <time>2026-01-13T09:41:43Z</time>
      </trkpt>
      <trkpt lat="48.69271" lon="1.95557">
        <ele>172</ele>
        <time>2026-01-13T09:41:44Z</time>
      </trkpt>
      <trkpt lat="48.69272" lon="1.95548">
        <ele>172</ele>
        <time>2026-01-13T09:41:45Z</time>
      </trkpt>
      <trkpt lat="48.69274" lon="1.9554">
        <ele>172</ele>
        <time>2026-01-13T09:41:46Z</time>
      </trkpt>
      <trkpt lat="48.69275" lon="1.95532">
        <ele>172</ele>
        <time>2026-01-13T09:41:47Z</time>
      </trkpt>
      <trkpt lat="48.69276" lon="1.95525">
        <ele>172</ele>
        <time>2026-01-13T09:41:48Z</time>
      </trkpt>
      <trkpt lat="48.69278" lon="1.95519">
        <ele>172.4</ele>
        <time>2026-01-13T09:41:49Z</time>
      </trkpt>
      <trkpt lat="48.69279" lon="1.95511">
        <ele>172.4</ele>
        <time>2026-01-13T09:41:50Z</time>
      </trkpt>
      <trkpt lat="48.6928" lon="1.95503">
        <ele>172.4</ele>
        <time>2026-01-13T09:41:51Z</time>
      </trkpt>
      <trkpt lat="48.69282" lon="1.95495">
        <ele>172.4</ele>
        <time>2026-01-13T09:41:52Z</time>
      </trkpt>
      <trkpt lat="48.69283" lon="1.95487">
        <ele>172.4</ele>
        <time>2026-01-13T09:41:53Z</time>
      </trkpt>
      <trkpt lat="48.69285" lon="1.95478">
        <ele>172.8</ele>
        <time>2026-01-13T09:41:54Z</time>
      </trkpt>
      <trkpt lat="48.69286" lon="1.9547">
        <ele>172.8</ele>
        <time>2026-01-13T09:41:55Z</time>
      </trkpt>
      <trkpt lat="48.69287" lon="1.95461">
        <ele>172.8</ele>
        <time>2026-01-13T09:41:56Z</time>
      </trkpt>
      <trkpt lat="48.69288" lon="1.95452">
        <ele>172.8</ele>
        <time>2026-01-13T09:41:57Z</time>
      </trkpt>
      <trkpt lat="48.69289" lon="1.95444">
        <ele>172.8</ele>
        <time>2026-01-13T09:41:58Z</time>
      </trkpt>
      <trkpt lat="48.6929" lon="1.95435">
        <ele>173</ele>
        <time>2026-01-13T09:41:59Z</time>
      </trkpt>
      <trkpt lat="48.69291" lon="1.95427">
        <ele>173</ele>
        <time>2026-01-13T09:42:00Z</time>
      </trkpt>
      <trkpt lat="48.69292" lon="1.95419">
        <ele>173</ele>
        <time>2026-01-13T09:42:01Z</time>
      </trkpt>
      <trkpt lat="48.69293" lon="1.95413">
        <ele>173</ele>
        <time>2026-01-13T09:42:02Z</time>
      </trkpt>
      <trkpt lat="48.69294" lon="1.95407">
        <ele>174</ele>
        <time>2026-01-13T09:42:03Z</time>
      </trkpt>
      <trkpt lat="48.69295" lon="1.95398">
        <ele>174</ele>
        <time>2026-01-13T09:42:04Z</time>
      </trkpt>
      <trkpt lat="48.69295" lon="1.95393">
        <ele>174</ele>
        <time>2026-01-13T09:42:05Z</time>
      </trkpt>
      <trkpt lat="48.69295" lon="1.95388">
        <ele>174</ele>
        <time>2026-01-13T09:42:06Z</time>
      </trkpt>
      <trkpt lat="48.69295" lon="1.95383">
        <ele>174</ele>
        <time>2026-01-13T09:42:07Z</time>
      </trkpt>
      <trkpt lat="48.69295" lon="1.95379">
        <ele>174</ele>
        <time>2026-01-13T09:42:08Z</time>
      </trkpt>
      <trkpt lat="48.69296" lon="1.95374">
        <ele>174.6</ele>
        <time>2026-01-13T09:43:48Z</time>
      </trkpt>
      <trkpt lat="48.69296" lon="1.95369">
        <ele>174.4</ele>
        <time>2026-01-13T09:43:49Z</time>
      </trkpt>
      <trkpt lat="48.69297" lon="1.95364">
        <ele>174.4</ele>
        <time>2026-01-13T09:43:50Z</time>
      </trkpt>
      <trkpt lat="48.69298" lon="1.95357">
        <ele>174.4</ele>
        <time>2026-01-13T09:43:51Z</time>
      </trkpt>
      <trkpt lat="48.69299" lon="1.9535">
        <ele>174.4</ele>
        <time>2026-01-13T09:43:52Z</time>
      </trkpt>
      <trkpt lat="48.693" lon="1.95342">
        <ele>174</ele>
        <time>2026-01-13T09:43:53Z</time>
      </trkpt>
      <trkpt lat="48.69301" lon="1.95335">
        <ele>173.4</ele>
        <time>2026-01-13T09:43:54Z</time>
      </trkpt>
      <trkpt lat="48.69302" lon="1.95327">
        <ele>173.4</ele>
        <time>2026-01-13T09:43:55Z</time>
      </trkpt>
      <trkpt lat="48.69304" lon="1.95319">
        <ele>173.4</ele>
        <time>2026-01-13T09:43:56Z</time>
      </trkpt>
      <trkpt lat="48.69305" lon="1.95311">
        <ele>173.4</ele>
        <time>2026-01-13T09:43:57Z</time>
      </trkpt>
      <trkpt lat="48.69306" lon="1.95303">
        <ele>173.4</ele>
        <time>2026-01-13T09:43:58Z</time>
      </trkpt>
      <trkpt lat="48.69307" lon="1.95295">
        <ele>173.6</ele>
        <time>2026-01-13T09:43:59Z</time>
      </trkpt>
      <trkpt lat="48.69308" lon="1.95288">
        <ele>174.2</ele>
        <time>2026-01-13T09:44:00Z</time>
      </trkpt>
      <trkpt lat="48.6931" lon="1.9528">
        <ele>174.2</ele>
        <time>2026-01-13T09:44:01Z</time>
      </trkpt>
      <trkpt lat="48.69311" lon="1.95273">
        <ele>174.2</ele>
        <time>2026-01-13T09:44:02Z</time>
      </trkpt>
      <trkpt lat="48.69313" lon="1.95265">
        <ele>174.2</ele>
        <time>2026-01-13T09:44:03Z</time>
      </trkpt>
      <trkpt lat="48.69315" lon="1.95257">
        <ele>174.2</ele>
        <time>2026-01-13T09:44:04Z</time>
      </trkpt>
      <trkpt lat="48.69317" lon="1.95249">
        <ele>174.2</ele>
        <time>2026-01-13T09:44:05Z</time>
      </trkpt>
      <trkpt lat="48.69318" lon="1.95241">
        <ele>174.2</ele>
        <time>2026-01-13T09:44:06Z</time>
      </trkpt>
      <trkpt lat="48.6932" lon="1.95233">
        <ele>174.2</ele>
        <time>2026-01-13T09:44:07Z</time>
      </trkpt>
      <trkpt lat="48.69322" lon="1.95225">
        <ele>174.2</ele>
        <time>2026-01-13T09:44:08Z</time>
      </trkpt>
      <trkpt lat="48.69324" lon="1.95217">
        <ele>174.2</ele>
        <time>2026-01-13T09:44:09Z</time>
      </trkpt>
      <trkpt lat="48.69325" lon="1.95209">
        <ele>173.8</ele>
        <time>2026-01-13T09:44:10Z</time>
      </trkpt>
      <trkpt lat="48.69327" lon="1.95201">
        <ele>173.8</ele>
        <time>2026-01-13T09:44:11Z</time>
      </trkpt>
      <trkpt lat="48.69329" lon="1.95192">
        <ele>173.8</ele>
        <time>2026-01-13T09:44:12Z</time>
      </trkpt>
      <trkpt lat="48.69331" lon="1.95184">
        <ele>174.6</ele>
        <time>2026-01-13T09:44:13Z</time>
      </trkpt>
      <trkpt lat="48.69333" lon="1.95176">
        <ele>174.6</ele>
        <time>2026-01-13T09:44:14Z</time>
      </trkpt>
      <trkpt lat="48.69335" lon="1.95168">
        <ele>174.6</ele>
        <time>2026-01-13T09:44:15Z</time>
      </trkpt>
      <trkpt lat="48.69337" lon="1.9516">
        <ele>174.6</ele>
        <time>2026-01-13T09:44:16Z</time>
      </trkpt>
      <trkpt lat="48.69338" lon="1.95151">
        <ele>174.6</ele>
        <time>2026-01-13T09:44:17Z</time>
      </trkpt>
      <trkpt lat="48.6934" lon="1.95143">
        <ele>174.2</ele>
        <time>2026-01-13T09:44:18Z</time>
      </trkpt>
      <trkpt lat="48.69342" lon="1.95135">
        <ele>174.2</ele>
        <time>2026-01-13T09:44:19Z</time>
      </trkpt>
      <trkpt lat="48.69344" lon="1.95126">
        <ele>174.2</ele>
        <time>2026-01-13T09:44:20Z</time>
      </trkpt>
      <trkpt lat="48.69346" lon="1.95118">
        <ele>174.2</ele>
        <time>2026-01-13T09:44:21Z</time>
      </trkpt>
      <trkpt lat="48.69347" lon="1.9511">
        <ele>174.4</ele>
        <time>2026-01-13T09:44:22Z</time>
      </trkpt>
      <trkpt lat="48.69349" lon="1.95101">
        <ele>174.8</ele>
        <time>2026-01-13T09:44:23Z</time>
      </trkpt>
      <trkpt lat="48.69351" lon="1.95093">
        <ele>174.8</ele>
        <time>2026-01-13T09:44:24Z</time>
      </trkpt>
      <trkpt lat="48.69353" lon="1.95085">
        <ele>174.8</ele>
        <time>2026-01-13T09:44:25Z</time>
      </trkpt>
      <trkpt lat="48.69355" lon="1.95076">
        <ele>174</ele>
        <time>2026-01-13T09:44:26Z</time>
      </trkpt>
      <trkpt lat="48.69356" lon="1.95068">
        <ele>174</ele>
        <time>2026-01-13T09:44:27Z</time>
      </trkpt>
      <trkpt lat="48.69358" lon="1.95059">
        <ele>174</ele>
        <time>2026-01-13T09:44:28Z</time>
      </trkpt>
      <trkpt lat="48.6936" lon="1.95051">
        <ele>174.8</ele>
        <time>2026-01-13T09:44:29Z</time>
      </trkpt>
      <trkpt lat="48.69362" lon="1.95042">
        <ele>175</ele>
        <time>2026-01-13T09:44:30Z</time>
      </trkpt>
      <trkpt lat="48.69364" lon="1.95034">
        <ele>175.2</ele>
        <time>2026-01-13T09:44:31Z</time>
      </trkpt>
      <trkpt lat="48.69365" lon="1.95025">
        <ele>175.2</ele>
        <time>2026-01-13T09:44:32Z</time>
      </trkpt>
      <trkpt lat="48.69367" lon="1.95016">
        <ele>175.2</ele>
        <time>2026-01-13T09:44:33Z</time>
      </trkpt>
      <trkpt lat="48.69369" lon="1.95008">
        <ele>174.4</ele>
        <time>2026-01-13T09:44:34Z</time>
      </trkpt>
      <trkpt lat="48.69372" lon="1.94999">
        <ele>174.2</ele>
        <time>2026-01-13T09:44:35Z</time>
      </trkpt>
      <trkpt lat="48.69374" lon="1.9499">
        <ele>174.2</ele>
        <time>2026-01-13T09:44:36Z</time>
      </trkpt>
      <trkpt lat="48.69376" lon="1.94982">
        <ele>173.8</ele>
        <time>2026-01-13T09:44:37Z</time>
      </trkpt>
      <trkpt lat="48.69378" lon="1.94973">
        <ele>173.8</ele>
        <time>2026-01-13T09:44:38Z</time>
      </trkpt>
      <trkpt lat="48.6938" lon="1.94964">
        <ele>173.8</ele>
        <time>2026-01-13T09:44:39Z</time>
      </trkpt>
      <trkpt lat="48.69381" lon="1.94956">
        <ele>174.4</ele>
        <time>2026-01-13T09:44:40Z</time>
      </trkpt>
      <trkpt lat="48.69383" lon="1.94947">
        <ele>174.6</ele>
        <time>2026-01-13T09:44:41Z</time>
      </trkpt>
      <trkpt lat="48.69385" lon="1.94938">
        <ele>174.6</ele>
        <time>2026-01-13T09:44:42Z</time>
      </trkpt>
      <trkpt lat="48.69387" lon="1.9493">
        <ele>174.6</ele>
        <time>2026-01-13T09:44:43Z</time>
      </trkpt>
      <trkpt lat="48.69389" lon="1.94921">
        <ele>174.6</ele>
        <time>2026-01-13T09:44:44Z</time>
      </trkpt>
      <trkpt lat="48.69391" lon="1.94912">
        <ele>174.2</ele>
        <time>2026-01-13T09:44:45Z</time>
      </trkpt>
      <trkpt lat="48.69393" lon="1.94903">
        <ele>174.2</ele>
        <time>2026-01-13T09:44:46Z</time>
      </trkpt>
      <trkpt lat="48.69395" lon="1.94894">
        <ele>174.2</ele>
        <time>2026-01-13T09:44:47Z</time>
      </trkpt>
      <trkpt lat="48.69397" lon="1.94885">
        <ele>174.8</ele>
        <time>2026-01-13T09:44:48Z</time>
      </trkpt>
      <trkpt lat="48.69399" lon="1.94876">
        <ele>174.8</ele>
        <time>2026-01-13T09:44:49Z</time>
      </trkpt>
      <trkpt lat="48.69401" lon="1.94867">
        <ele>174.8</ele>
        <time>2026-01-13T09:44:50Z</time>
      </trkpt>
      <trkpt lat="48.69403" lon="1.94858">
        <ele>174.8</ele>
        <time>2026-01-13T09:44:51Z</time>
      </trkpt>
      <trkpt lat="48.69405" lon="1.94849">
        <ele>174.8</ele>
        <time>2026-01-13T09:44:52Z</time>
      </trkpt>
      <trkpt lat="48.69407" lon="1.9484">
        <ele>174.8</ele>
        <time>2026-01-13T09:44:53Z</time>
      </trkpt>
      <trkpt lat="48.69409" lon="1.94832">
        <ele>174.8</ele>
        <time>2026-01-13T09:44:54Z</time>
      </trkpt>
      <trkpt lat="48.69411" lon="1.94823">
        <ele>174.8</ele>
        <time>2026-01-13T09:44:55Z</time>
      </trkpt>
      <trkpt lat="48.69413" lon="1.94813">
        <ele>174.8</ele>
        <time>2026-01-13T09:44:56Z</time>
      </trkpt>
      <trkpt lat="48.69415" lon="1.94804">
        <ele>174.8</ele>
        <time>2026-01-13T09:44:57Z</time>
      </trkpt>
      <trkpt lat="48.69417" lon="1.94795">
        <ele>174.8</ele>
        <time>2026-01-13T09:44:58Z</time>
      </trkpt>
      <trkpt lat="48.69419" lon="1.94787">
        <ele>174.8</ele>
        <time>2026-01-13T09:44:59Z</time>
      </trkpt>
      <trkpt lat="48.69422" lon="1.94778">
        <ele>174.8</ele>
        <time>2026-01-13T09:45:00Z</time>
      </trkpt>
      <trkpt lat="48.69424" lon="1.94769">
        <ele>174.8</ele>
        <time>2026-01-13T09:45:01Z</time>
      </trkpt>
      <trkpt lat="48.69426" lon="1.9476">
        <ele>174.8</ele>
        <time>2026-01-13T09:45:02Z</time>
      </trkpt>
      <trkpt lat="48.69429" lon="1.94751">
        <ele>174.8</ele>
        <time>2026-01-13T09:45:03Z</time>
      </trkpt>
      <trkpt lat="48.69431" lon="1.94742">
        <ele>174.8</ele>
        <time>2026-01-13T09:45:04Z</time>
      </trkpt>
      <trkpt lat="48.69433" lon="1.94733">
        <ele>174.8</ele>
        <time>2026-01-13T09:45:05Z</time>
      </trkpt>
      <trkpt lat="48.69436" lon="1.94724">
        <ele>174.8</ele>
        <time>2026-01-13T09:45:06Z</time>
      </trkpt>
      <trkpt lat="48.69438" lon="1.94715">
        <ele>174.8</ele>
        <time>2026-01-13T09:45:07Z</time>
      </trkpt>
      <trkpt lat="48.69441" lon="1.94706">
        <ele>174.8</ele>
        <time>2026-01-13T09:45:08Z</time>
      </trkpt>
      <trkpt lat="48.69444" lon="1.94697">
        <ele>174.4</ele>
        <time>2026-01-13T09:45:09Z</time>
      </trkpt>
      <trkpt lat="48.69446" lon="1.94688">
        <ele>174.4</ele>
        <time>2026-01-13T09:45:10Z</time>
      </trkpt>
      <trkpt lat="48.69448" lon="1.94679">
        <ele>174.4</ele>
        <time>2026-01-13T09:45:11Z</time>
      </trkpt>
      <trkpt lat="48.69451" lon="1.94669">
        <ele>174.8</ele>
        <time>2026-01-13T09:45:12Z</time>
      </trkpt>
      <trkpt lat="48.69453" lon="1.9466">
        <ele>174.8</ele>
        <time>2026-01-13T09:45:13Z</time>
      </trkpt>
      <trkpt lat="48.69456" lon="1.94651">
        <ele>174.8</ele>
        <time>2026-01-13T09:45:14Z</time>
      </trkpt>
      <trkpt lat="48.69459" lon="1.94642">
        <ele>174.6</ele>
        <time>2026-01-13T09:45:15Z</time>
      </trkpt>
      <trkpt lat="48.69461" lon="1.94634">
        <ele>174.6</ele>
        <time>2026-01-13T09:45:16Z</time>
      </trkpt>
      <trkpt lat="48.69463" lon="1.94624">
        <ele>174.6</ele>
        <time>2026-01-13T09:45:17Z</time>
      </trkpt>
      <trkpt lat="48.69466" lon="1.94615">
        <ele>175.2</ele>
        <time>2026-01-13T09:45:18Z</time>
      </trkpt>
      <trkpt lat="48.69468" lon="1.94606">
        <ele>175.2</ele>
        <time>2026-01-13T09:45:19Z</time>
      </trkpt>
      <trkpt lat="48.6947" lon="1.94597">
        <ele>175.2</ele>
        <time>2026-01-13T09:45:20Z</time>
      </trkpt>
      <trkpt lat="48.69472" lon="1.94588">
        <ele>175.2</ele>
        <time>2026-01-13T09:45:21Z</time>
      </trkpt>
      <trkpt lat="48.69474" lon="1.94578">
        <ele>175.2</ele>
        <time>2026-01-13T09:45:22Z</time>
      </trkpt>
      <trkpt lat="48.69476" lon="1.94569">
        <ele>174.8</ele>
        <time>2026-01-13T09:45:23Z</time>
      </trkpt>
      <trkpt lat="48.69478" lon="1.9456">
        <ele>174.8</ele>
        <time>2026-01-13T09:45:24Z</time>
      </trkpt>
      <trkpt lat="48.6948" lon="1.9455">
        <ele>174.8</ele>
        <time>2026-01-13T09:45:25Z</time>
      </trkpt>
      <trkpt lat="48.69482" lon="1.94541">
        <ele>174.8</ele>
        <time>2026-01-13T09:45:26Z</time>
      </trkpt>
      <trkpt lat="48.69483" lon="1.94531">
        <ele>174.8</ele>
        <time>2026-01-13T09:45:27Z</time>
      </trkpt>
      <trkpt lat="48.69485" lon="1.94522">
        <ele>175</ele>
        <time>2026-01-13T09:45:28Z</time>
      </trkpt>
      <trkpt lat="48.69487" lon="1.94512">
        <ele>175</ele>
        <time>2026-01-13T09:45:29Z</time>
      </trkpt>
      <trkpt lat="48.69488" lon="1.94503">
        <ele>175</ele>
        <time>2026-01-13T09:45:30Z</time>
      </trkpt>
      <trkpt lat="48.6949" lon="1.94493">
        <ele>175</ele>
        <time>2026-01-13T09:45:31Z</time>
      </trkpt>
      <trkpt lat="48.69491" lon="1.94484">
        <ele>175</ele>
        <time>2026-01-13T09:45:32Z</time>
      </trkpt>
      <trkpt lat="48.69493" lon="1.94474">
        <ele>175</ele>
        <time>2026-01-13T09:45:33Z</time>
      </trkpt>
      <trkpt lat="48.69494" lon="1.94464">
        <ele>175</ele>
        <time>2026-01-13T09:45:34Z</time>
      </trkpt>
      <trkpt lat="48.69496" lon="1.94454">
        <ele>175</ele>
        <time>2026-01-13T09:45:35Z</time>
      </trkpt>
      <trkpt lat="48.69497" lon="1.94444">
        <ele>175.2</ele>
        <time>2026-01-13T09:45:36Z</time>
      </trkpt>
      <trkpt lat="48.69498" lon="1.94433">
        <ele>175.2</ele>
        <time>2026-01-13T09:45:37Z</time>
      </trkpt>
      <trkpt lat="48.695" lon="1.94423">
        <ele>175.2</ele>
        <time>2026-01-13T09:45:38Z</time>
      </trkpt>
      <trkpt lat="48.69502" lon="1.94413">
        <ele>175.2</ele>
        <time>2026-01-13T09:45:39Z</time>
      </trkpt>
      <trkpt lat="48.69503" lon="1.94402">
        <ele>175.2</ele>
        <time>2026-01-13T09:45:40Z</time>
      </trkpt>
      <trkpt lat="48.69505" lon="1.94392">
        <ele>175.2</ele>
        <time>2026-01-13T09:45:41Z</time>
      </trkpt>
      <trkpt lat="48.69506" lon="1.94381">
        <ele>175.2</ele>
        <time>2026-01-13T09:45:42Z</time>
      </trkpt>
      <trkpt lat="48.69508" lon="1.9437">
        <ele>175.2</ele>
        <time>2026-01-13T09:45:43Z</time>
      </trkpt>
      <trkpt lat="48.69509" lon="1.94359">
        <ele>175.2</ele>
        <time>2026-01-13T09:45:44Z</time>
      </trkpt>
      <trkpt lat="48.69511" lon="1.94348">
        <ele>174.4</ele>
        <time>2026-01-13T09:45:45Z</time>
      </trkpt>
      <trkpt lat="48.69513" lon="1.94338">
        <ele>173.8</ele>
        <time>2026-01-13T09:45:46Z</time>
      </trkpt>
      <trkpt lat="48.69514" lon="1.94327">
        <ele>173.2</ele>
        <time>2026-01-13T09:45:47Z</time>
      </trkpt>
      <trkpt lat="48.69516" lon="1.94316">
        <ele>172.8</ele>
        <time>2026-01-13T09:45:48Z</time>
      </trkpt>
      <trkpt lat="48.69518" lon="1.94305">
        <ele>172.8</ele>
        <time>2026-01-13T09:45:49Z</time>
      </trkpt>
      <trkpt lat="48.69519" lon="1.94295">
        <ele>172.8</ele>
        <time>2026-01-13T09:45:50Z</time>
      </trkpt>
      <trkpt lat="48.69521" lon="1.94284">
        <ele>173.8</ele>
        <time>2026-01-13T09:45:51Z</time>
      </trkpt>
      <trkpt lat="48.69523" lon="1.94274">
        <ele>173.8</ele>
        <time>2026-01-13T09:45:52Z</time>
      </trkpt>
      <trkpt lat="48.69524" lon="1.94263">
        <ele>173.8</ele>
        <time>2026-01-13T09:45:53Z</time>
      </trkpt>
      <trkpt lat="48.69526" lon="1.94253">
        <ele>173.4</ele>
        <time>2026-01-13T09:45:54Z</time>
      </trkpt>
      <trkpt lat="48.69528" lon="1.94243">
        <ele>173.4</ele>
        <time>2026-01-13T09:45:55Z</time>
      </trkpt>
      <trkpt lat="48.69529" lon="1.94233">
        <ele>173.4</ele>
        <time>2026-01-13T09:45:56Z</time>
      </trkpt>
      <trkpt lat="48.69531" lon="1.94223">
        <ele>173.8</ele>
        <time>2026-01-13T09:45:57Z</time>
      </trkpt>
      <trkpt lat="48.69532" lon="1.94213">
        <ele>174</ele>
        <time>2026-01-13T09:45:58Z</time>
      </trkpt>
      <trkpt lat="48.69534" lon="1.94203">
        <ele>174</ele>
        <time>2026-01-13T09:45:59Z</time>
      </trkpt>
      <trkpt lat="48.69535" lon="1.94193">
        <ele>174</ele>
        <time>2026-01-13T09:46:00Z</time>
      </trkpt>
      <trkpt lat="48.69537" lon="1.94184">
        <ele>174</ele>
        <time>2026-01-13T09:46:01Z</time>
      </trkpt>
      <trkpt lat="48.69539" lon="1.94174">
        <ele>174</ele>
        <time>2026-01-13T09:46:02Z</time>
      </trkpt>
      <trkpt lat="48.6954" lon="1.94164">
        <ele>174.2</ele>
        <time>2026-01-13T09:46:03Z</time>
      </trkpt>
      <trkpt lat="48.69542" lon="1.94155">
        <ele>174.6</ele>
        <time>2026-01-13T09:46:04Z</time>
      </trkpt>
      <trkpt lat="48.69544" lon="1.94145">
        <ele>174.6</ele>
        <time>2026-01-13T09:46:05Z</time>
      </trkpt>
      <trkpt lat="48.69545" lon="1.94135">
        <ele>174.6</ele>
        <time>2026-01-13T09:46:06Z</time>
      </trkpt>
      <trkpt lat="48.69547" lon="1.94125">
        <ele>174.6</ele>
        <time>2026-01-13T09:46:07Z</time>
      </trkpt>
      <trkpt lat="48.69548" lon="1.94116">
        <ele>174.6</ele>
        <time>2026-01-13T09:46:08Z</time>
      </trkpt>
      <trkpt lat="48.6955" lon="1.94106">
        <ele>174.6</ele>
        <time>2026-01-13T09:46:09Z</time>
      </trkpt>
      <trkpt lat="48.69552" lon="1.94096">
        <ele>174.2</ele>
        <time>2026-01-13T09:46:10Z</time>
      </trkpt>
      <trkpt lat="48.69553" lon="1.94086">
        <ele>174.2</ele>
        <time>2026-01-13T09:46:11Z</time>
      </trkpt>
      <trkpt lat="48.69555" lon="1.94077">
        <ele>174.2</ele>
        <time>2026-01-13T09:46:12Z</time>
      </trkpt>
      <trkpt lat="48.69556" lon="1.94067">
        <ele>174.2</ele>
        <time>2026-01-13T09:46:13Z</time>
      </trkpt>
      <trkpt lat="48.69558" lon="1.94058">
        <ele>174.2</ele>
        <time>2026-01-13T09:46:14Z</time>
      </trkpt>
      <trkpt lat="48.69559" lon="1.94048">
        <ele>174.2</ele>
        <time>2026-01-13T09:46:15Z</time>
      </trkpt>
      <trkpt lat="48.69561" lon="1.94039">
        <ele>174.2</ele>
        <time>2026-01-13T09:46:16Z</time>
      </trkpt>
      <trkpt lat="48.69562" lon="1.9403">
        <ele>175</ele>
        <time>2026-01-13T09:46:17Z</time>
      </trkpt>
      <trkpt lat="48.69564" lon="1.94021">
        <ele>175.2</ele>
        <time>2026-01-13T09:46:18Z</time>
      </trkpt>
      <trkpt lat="48.69565" lon="1.94011">
        <ele>175.2</ele>
        <time>2026-01-13T09:46:19Z</time>
      </trkpt>
      <trkpt lat="48.69567" lon="1.94002">
        <ele>175.2</ele>
        <time>2026-01-13T09:46:20Z</time>
      </trkpt>
      <trkpt lat="48.69568" lon="1.93992">
        <ele>174.6</ele>
        <time>2026-01-13T09:46:21Z</time>
      </trkpt>
      <trkpt lat="48.69569" lon="1.93983">
        <ele>174.6</ele>
        <time>2026-01-13T09:46:22Z</time>
      </trkpt>
      <trkpt lat="48.6957" lon="1.93973">
        <ele>174.6</ele>
        <time>2026-01-13T09:46:23Z</time>
      </trkpt>
      <trkpt lat="48.69571" lon="1.93964">
        <ele>174.6</ele>
        <time>2026-01-13T09:46:24Z</time>
      </trkpt>
      <trkpt lat="48.69572" lon="1.93954">
        <ele>174.6</ele>
        <time>2026-01-13T09:46:25Z</time>
      </trkpt>
      <trkpt lat="48.69572" lon="1.93944">
        <ele>174.8</ele>
        <time>2026-01-13T09:46:26Z</time>
      </trkpt>
      <trkpt lat="48.69573" lon="1.93935">
        <ele>175.2</ele>
        <time>2026-01-13T09:46:27Z</time>
      </trkpt>
      <trkpt lat="48.69574" lon="1.93925">
        <ele>175.2</ele>
        <time>2026-01-13T09:46:28Z</time>
      </trkpt>
      <trkpt lat="48.69574" lon="1.93915">
        <ele>175.2</ele>
        <time>2026-01-13T09:46:29Z</time>
      </trkpt>
      <trkpt lat="48.69574" lon="1.93905">
        <ele>175.2</ele>
        <time>2026-01-13T09:46:30Z</time>
      </trkpt>
      <trkpt lat="48.69575" lon="1.93895">
        <ele>175.2</ele>
        <time>2026-01-13T09:46:31Z</time>
      </trkpt>
      <trkpt lat="48.69575" lon="1.93885">
        <ele>174.8</ele>
        <time>2026-01-13T09:46:32Z</time>
      </trkpt>
      <trkpt lat="48.69575" lon="1.93876">
        <ele>174.6</ele>
        <time>2026-01-13T09:46:33Z</time>
      </trkpt>
      <trkpt lat="48.69576" lon="1.93866">
        <ele>174.6</ele>
        <time>2026-01-13T09:46:34Z</time>
      </trkpt>
      <trkpt lat="48.69576" lon="1.93856">
        <ele>174.6</ele>
        <time>2026-01-13T09:46:35Z</time>
      </trkpt>
      <trkpt lat="48.69577" lon="1.93847">
        <ele>175.2</ele>
        <time>2026-01-13T09:46:36Z</time>
      </trkpt>
      <trkpt lat="48.69577" lon="1.93837">
        <ele>175.2</ele>
        <time>2026-01-13T09:46:37Z</time>
      </trkpt>
      <trkpt lat="48.69577" lon="1.93827">
        <ele>175.2</ele>
        <time>2026-01-13T09:46:38Z</time>
      </trkpt>
      <trkpt lat="48.69578" lon="1.93817">
        <ele>174.8</ele>
        <time>2026-01-13T09:46:39Z</time>
      </trkpt>
      <trkpt lat="48.69578" lon="1.93808">
        <ele>174.8</ele>
        <time>2026-01-13T09:46:40Z</time>
      </trkpt>
      <trkpt lat="48.69578" lon="1.93798">
        <ele>174.8</ele>
        <time>2026-01-13T09:46:41Z</time>
      </trkpt>
      <trkpt lat="48.69579" lon="1.93788">
        <ele>175.2</ele>
        <time>2026-01-13T09:46:42Z</time>
      </trkpt>
      <trkpt lat="48.69579" lon="1.93778">
        <ele>175.2</ele>
        <time>2026-01-13T09:46:43Z</time>
      </trkpt>
      <trkpt lat="48.6958" lon="1.93769">
        <ele>175.2</ele>
        <time>2026-01-13T09:46:44Z</time>
      </trkpt>
      <trkpt lat="48.69581" lon="1.93759">
        <ele>175.2</ele>
        <time>2026-01-13T09:46:45Z</time>
      </trkpt>
      <trkpt lat="48.69583" lon="1.93749">
        <ele>175.2</ele>
        <time>2026-01-13T09:46:46Z</time>
      </trkpt>
      <trkpt lat="48.69585" lon="1.9374">
        <ele>175</ele>
        <time>2026-01-13T09:46:47Z</time>
      </trkpt>
      <trkpt lat="48.69587" lon="1.93731">
        <ele>175</ele>
        <time>2026-01-13T09:46:48Z</time>
      </trkpt>
      <trkpt lat="48.6959" lon="1.93722">
        <ele>175</ele>
        <time>2026-01-13T09:46:49Z</time>
      </trkpt>
      <trkpt lat="48.69593" lon="1.93713">
        <ele>175</ele>
        <time>2026-01-13T09:46:50Z</time>
      </trkpt>
      <trkpt lat="48.69597" lon="1.93704">
        <ele>175.2</ele>
        <time>2026-01-13T09:46:51Z</time>
      </trkpt>
      <trkpt lat="48.69601" lon="1.93696">
        <ele>175.4</ele>
        <time>2026-01-13T09:46:52Z</time>
      </trkpt>
      <trkpt lat="48.69606" lon="1.93689">
        <ele>175.4</ele>
        <time>2026-01-13T09:46:53Z</time>
      </trkpt>
      <trkpt lat="48.6961" lon="1.93682">
        <ele>175.4</ele>
        <time>2026-01-13T09:46:54Z</time>
      </trkpt>
      <trkpt lat="48.69616" lon="1.93675">
        <ele>175.4</ele>
        <time>2026-01-13T09:46:55Z</time>
      </trkpt>
      <trkpt lat="48.69621" lon="1.93669">
        <ele>175.4</ele>
        <time>2026-01-13T09:46:56Z</time>
      </trkpt>
      <trkpt lat="48.69627" lon="1.93664">
        <ele>175.8</ele>
        <time>2026-01-13T09:46:57Z</time>
      </trkpt>
      <trkpt lat="48.69633" lon="1.93659">
        <ele>176</ele>
        <time>2026-01-13T09:46:58Z</time>
      </trkpt>
      <trkpt lat="48.69639" lon="1.93655">
        <ele>176</ele>
        <time>2026-01-13T09:46:59Z</time>
      </trkpt>
      <trkpt lat="48.69645" lon="1.93652">
        <ele>176</ele>
        <time>2026-01-13T09:47:00Z</time>
      </trkpt>
      <trkpt lat="48.69652" lon="1.93649">
        <ele>176</ele>
        <time>2026-01-13T09:47:01Z</time>
      </trkpt>
      <trkpt lat="48.69659" lon="1.93647">
        <ele>176</ele>
        <time>2026-01-13T09:47:02Z</time>
      </trkpt>
      <trkpt lat="48.69665" lon="1.93645">
        <ele>175.4</ele>
        <time>2026-01-13T09:47:03Z</time>
      </trkpt>
      <trkpt lat="48.69672" lon="1.93644">
        <ele>175.4</ele>
        <time>2026-01-13T09:47:04Z</time>
      </trkpt>
      <trkpt lat="48.69679" lon="1.93643">
        <ele>175.4</ele>
        <time>2026-01-13T09:47:05Z</time>
      </trkpt>
      <trkpt lat="48.69686" lon="1.93642">
        <ele>175.6</ele>
        <time>2026-01-13T09:47:06Z</time>
      </trkpt>
      <trkpt lat="48.69693" lon="1.93641">
        <ele>175.8</ele>
        <time>2026-01-13T09:47:07Z</time>
      </trkpt>
      <trkpt lat="48.697" lon="1.9364">
        <ele>175.8</ele>
        <time>2026-01-13T09:47:08Z</time>
      </trkpt>
      <trkpt lat="48.69707" lon="1.93639">
        <ele>175.8</ele>
        <time>2026-01-13T09:47:09Z</time>
      </trkpt>
      <trkpt lat="48.69714" lon="1.93639">
        <ele>175.6</ele>
        <time>2026-01-13T09:47:10Z</time>
      </trkpt>
      <trkpt lat="48.69721" lon="1.93638">
        <ele>175.6</ele>
        <time>2026-01-13T09:47:11Z</time>
      </trkpt>
      <trkpt lat="48.69727" lon="1.93637">
        <ele>175.6</ele>
        <time>2026-01-13T09:47:12Z</time>
      </trkpt>
      <trkpt lat="48.69734" lon="1.93636">
        <ele>175.8</ele>
        <time>2026-01-13T09:47:13Z</time>
      </trkpt>
      <trkpt lat="48.69741" lon="1.93635">
        <ele>175.8</ele>
        <time>2026-01-13T09:47:14Z</time>
      </trkpt>
      <trkpt lat="48.69748" lon="1.93635">
        <ele>175.8</ele>
        <time>2026-01-13T09:47:15Z</time>
      </trkpt>
      <trkpt lat="48.69755" lon="1.93633">
        <ele>175.8</ele>
        <time>2026-01-13T09:47:16Z</time>
      </trkpt>
      <trkpt lat="48.69762" lon="1.93632">
        <ele>175.8</ele>
        <time>2026-01-13T09:47:17Z</time>
      </trkpt>
      <trkpt lat="48.69769" lon="1.93629">
        <ele>175.8</ele>
        <time>2026-01-13T09:47:18Z</time>
      </trkpt>
      <trkpt lat="48.69776" lon="1.93627">
        <ele>175.8</ele>
        <time>2026-01-13T09:47:19Z</time>
      </trkpt>
      <trkpt lat="48.69783" lon="1.93624">
        <ele>175.8</ele>
        <time>2026-01-13T09:47:20Z</time>
      </trkpt>
      <trkpt lat="48.69789" lon="1.9362">
        <ele>175.8</ele>
        <time>2026-01-13T09:47:21Z</time>
      </trkpt>
      <trkpt lat="48.69795" lon="1.93616">
        <ele>175.8</ele>
        <time>2026-01-13T09:47:22Z</time>
      </trkpt>
      <trkpt lat="48.69802" lon="1.93612">
        <ele>176.4</ele>
        <time>2026-01-13T09:47:23Z</time>
      </trkpt>
      <trkpt lat="48.69808" lon="1.93607">
        <ele>176.4</ele>
        <time>2026-01-13T09:47:24Z</time>
      </trkpt>
      <trkpt lat="48.69814" lon="1.93601">
        <ele>176.4</ele>
        <time>2026-01-13T09:47:25Z</time>
      </trkpt>
      <trkpt lat="48.69819" lon="1.93595">
        <ele>176.4</ele>
        <time>2026-01-13T09:47:26Z</time>
      </trkpt>
      <trkpt lat="48.69825" lon="1.93589">
        <ele>176.4</ele>
        <time>2026-01-13T09:47:27Z</time>
      </trkpt>
      <trkpt lat="48.6983" lon="1.93582">
        <ele>176</ele>
        <time>2026-01-13T09:47:28Z</time>
      </trkpt>
      <trkpt lat="48.69835" lon="1.93574">
        <ele>176</ele>
        <time>2026-01-13T09:47:29Z</time>
      </trkpt>
      <trkpt lat="48.6984" lon="1.93567">
        <ele>176</ele>
        <time>2026-01-13T09:47:30Z</time>
      </trkpt>
      <trkpt lat="48.69845" lon="1.9356">
        <ele>176</ele>
        <time>2026-01-13T09:47:31Z</time>
      </trkpt>
      <trkpt lat="48.6985" lon="1.93554">
        <ele>175.2</ele>
        <time>2026-01-13T09:47:32Z</time>
      </trkpt>
      <trkpt lat="48.69855" lon="1.93546">
        <ele>175.2</ele>
        <time>2026-01-13T09:47:33Z</time>
      </trkpt>
      <trkpt lat="48.6986" lon="1.93539">
        <ele>175.2</ele>
        <time>2026-01-13T09:47:34Z</time>
      </trkpt>
      <trkpt lat="48.69865" lon="1.93531">
        <ele>175.6</ele>
        <time>2026-01-13T09:47:35Z</time>
      </trkpt>
      <trkpt lat="48.6987" lon="1.93524">
        <ele>176</ele>
        <time>2026-01-13T09:47:36Z</time>
      </trkpt>
      <trkpt lat="48.69875" lon="1.93515">
        <ele>176</ele>
        <time>2026-01-13T09:47:37Z</time>
      </trkpt>
      <trkpt lat="48.6988" lon="1.93507">
        <ele>176</ele>
        <time>2026-01-13T09:47:38Z</time>
      </trkpt>
      <trkpt lat="48.69884" lon="1.93499">
        <ele>175.2</ele>
        <time>2026-01-13T09:47:39Z</time>
      </trkpt>
      <trkpt lat="48.69889" lon="1.9349">
        <ele>175.2</ele>
        <time>2026-01-13T09:47:40Z</time>
      </trkpt>
      <trkpt lat="48.69893" lon="1.93481">
        <ele>175.2</ele>
        <time>2026-01-13T09:47:41Z</time>
      </trkpt>
      <trkpt lat="48.69898" lon="1.93472">
        <ele>175.6</ele>
        <time>2026-01-13T09:47:42Z</time>
      </trkpt>
      <trkpt lat="48.69902" lon="1.93463">
        <ele>175.6</ele>
        <time>2026-01-13T09:47:43Z</time>
      </trkpt>
      <trkpt lat="48.69906" lon="1.93454">
        <ele>175.6</ele>
        <time>2026-01-13T09:47:44Z</time>
      </trkpt>
      <trkpt lat="48.6991" lon="1.93444">
        <ele>175.2</ele>
        <time>2026-01-13T09:47:45Z</time>
      </trkpt>
      <trkpt lat="48.69914" lon="1.93434">
        <ele>175.2</ele>
        <time>2026-01-13T09:47:46Z</time>
      </trkpt>
      <trkpt lat="48.69918" lon="1.93425">
        <ele>175.2</ele>
        <time>2026-01-13T09:47:47Z</time>
      </trkpt>
      <trkpt lat="48.69922" lon="1.93415">
        <ele>175.2</ele>
        <time>2026-01-13T09:47:48Z</time>
      </trkpt>
      <trkpt lat="48.69925" lon="1.93405">
        <ele>175.2</ele>
        <time>2026-01-13T09:47:49Z</time>
      </trkpt>
      <trkpt lat="48.69929" lon="1.93395">
        <ele>175.2</ele>
        <time>2026-01-13T09:47:50Z</time>
      </trkpt>
      <trkpt lat="48.69933" lon="1.93386">
        <ele>175.2</ele>
        <time>2026-01-13T09:47:51Z</time>
      </trkpt>
      <trkpt lat="48.69937" lon="1.93376">
        <ele>174.8</ele>
        <time>2026-01-13T09:47:52Z</time>
      </trkpt>
      <trkpt lat="48.69941" lon="1.93366">
        <ele>174.8</ele>
        <time>2026-01-13T09:47:53Z</time>
      </trkpt>
      <trkpt lat="48.69945" lon="1.93356">
        <ele>174.8</ele>
        <time>2026-01-13T09:47:54Z</time>
      </trkpt>
      <trkpt lat="48.69948" lon="1.93347">
        <ele>174.8</ele>
        <time>2026-01-13T09:47:55Z</time>
      </trkpt>
      <trkpt lat="48.69952" lon="1.93337">
        <ele>174.8</ele>
        <time>2026-01-13T09:47:56Z</time>
      </trkpt>
      <trkpt lat="48.69956" lon="1.93328">
        <ele>174.8</ele>
        <time>2026-01-13T09:47:57Z</time>
      </trkpt>
      <trkpt lat="48.6996" lon="1.93318">
        <ele>174.8</ele>
        <time>2026-01-13T09:47:58Z</time>
      </trkpt>
      <trkpt lat="48.69965" lon="1.93309">
        <ele>174.6</ele>
        <time>2026-01-13T09:47:59Z</time>
      </trkpt>
      <trkpt lat="48.69969" lon="1.933">
        <ele>174.6</ele>
        <time>2026-01-13T09:48:00Z</time>
      </trkpt>
      <trkpt lat="48.69974" lon="1.93292">
        <ele>174.6</ele>
        <time>2026-01-13T09:48:01Z</time>
      </trkpt>
      <trkpt lat="48.69979" lon="1.93284">
        <ele>174.6</ele>
        <time>2026-01-13T09:48:02Z</time>
      </trkpt>
      <trkpt lat="48.69984" lon="1.93276">
        <ele>174.6</ele>
        <time>2026-01-13T09:48:03Z</time>
      </trkpt>
      <trkpt lat="48.6999" lon="1.93268">
        <ele>175.2</ele>
        <time>2026-01-13T09:48:04Z</time>
      </trkpt>
      <trkpt lat="48.69995" lon="1.9326">
        <ele>175.2</ele>
        <time>2026-01-13T09:48:05Z</time>
      </trkpt>
      <trkpt lat="48.7" lon="1.93252">
        <ele>175.2</ele>
        <time>2026-01-13T09:48:06Z</time>
      </trkpt>
      <trkpt lat="48.70006" lon="1.93245">
        <ele>175</ele>
        <time>2026-01-13T09:48:07Z</time>
      </trkpt>
      <trkpt lat="48.70011" lon="1.93237">
        <ele>174.8</ele>
        <time>2026-01-13T09:48:08Z</time>
      </trkpt>
      <trkpt lat="48.70017" lon="1.93229">
        <ele>174.8</ele>
        <time>2026-01-13T09:48:09Z</time>
      </trkpt>
      <trkpt lat="48.70023" lon="1.93222">
        <ele>174.8</ele>
        <time>2026-01-13T09:48:10Z</time>
      </trkpt>
      <trkpt lat="48.70028" lon="1.93214">
        <ele>174.8</ele>
        <time>2026-01-13T09:48:11Z</time>
      </trkpt>
      <trkpt lat="48.70034" lon="1.93207">
        <ele>174.8</ele>
        <time>2026-01-13T09:48:12Z</time>
      </trkpt>
      <trkpt lat="48.70039" lon="1.93199">
        <ele>174.8</ele>
        <time>2026-01-13T09:48:13Z</time>
      </trkpt>
      <trkpt lat="48.70045" lon="1.93191">
        <ele>175.2</ele>
        <time>2026-01-13T09:48:14Z</time>
      </trkpt>
      <trkpt lat="48.7005" lon="1.93184">
        <ele>175.2</ele>
        <time>2026-01-13T09:48:15Z</time>
      </trkpt>
      <trkpt lat="48.70055" lon="1.93176">
        <ele>175.2</ele>
        <time>2026-01-13T09:48:16Z</time>
      </trkpt>
      <trkpt lat="48.70061" lon="1.93168">
        <ele>174.4</ele>
        <time>2026-01-13T09:48:17Z</time>
      </trkpt>
      <trkpt lat="48.70066" lon="1.9316">
        <ele>174.4</ele>
        <time>2026-01-13T09:48:18Z</time>
      </trkpt>
      <trkpt lat="48.70071" lon="1.93152">
        <ele>174.4</ele>
        <time>2026-01-13T09:48:19Z</time>
      </trkpt>
      <trkpt lat="48.70077" lon="1.93145">
        <ele>174.6</ele>
        <time>2026-01-13T09:48:20Z</time>
      </trkpt>
      <trkpt lat="48.70082" lon="1.93137">
        <ele>174.6</ele>
        <time>2026-01-13T09:48:21Z</time>
      </trkpt>
      <trkpt lat="48.70088" lon="1.93128">
        <ele>174.6</ele>
        <time>2026-01-13T09:48:22Z</time>
      </trkpt>
      <trkpt lat="48.70093" lon="1.93121">
        <ele>174.6</ele>
        <time>2026-01-13T09:48:23Z</time>
      </trkpt>
      <trkpt lat="48.70098" lon="1.93113">
        <ele>174.6</ele>
        <time>2026-01-13T09:48:24Z</time>
      </trkpt>
      <trkpt lat="48.70104" lon="1.93104">
        <ele>174.6</ele>
        <time>2026-01-13T09:48:25Z</time>
      </trkpt>
      <trkpt lat="48.70109" lon="1.93096">
        <ele>174.6</ele>
        <time>2026-01-13T09:48:26Z</time>
      </trkpt>
      <trkpt lat="48.70115" lon="1.93088">
        <ele>174.6</ele>
        <time>2026-01-13T09:48:27Z</time>
      </trkpt>
      <trkpt lat="48.70121" lon="1.9308">
        <ele>174</ele>
        <time>2026-01-13T09:48:28Z</time>
      </trkpt>
      <trkpt lat="48.70126" lon="1.93072">
        <ele>173.8</ele>
        <time>2026-01-13T09:48:29Z</time>
      </trkpt>
      <trkpt lat="48.70132" lon="1.93063">
        <ele>173.8</ele>
        <time>2026-01-13T09:48:30Z</time>
      </trkpt>
      <trkpt lat="48.70137" lon="1.93055">
        <ele>173.8</ele>
        <time>2026-01-13T09:48:31Z</time>
      </trkpt>
      <trkpt lat="48.70143" lon="1.93047">
        <ele>173.8</ele>
        <time>2026-01-13T09:48:32Z</time>
      </trkpt>
      <trkpt lat="48.70149" lon="1.93039">
        <ele>173.6</ele>
        <time>2026-01-13T09:48:33Z</time>
      </trkpt>
      <trkpt lat="48.70155" lon="1.93032">
        <ele>173.6</ele>
        <time>2026-01-13T09:48:34Z</time>
      </trkpt>
      <trkpt lat="48.7016" lon="1.93024">
        <ele>173.6</ele>
        <time>2026-01-13T09:48:35Z</time>
      </trkpt>
      <trkpt lat="48.70166" lon="1.93016">
        <ele>173.6</ele>
        <time>2026-01-13T09:48:36Z</time>
      </trkpt>
      <trkpt lat="48.70172" lon="1.93009">
        <ele>173.6</ele>
        <time>2026-01-13T09:48:37Z</time>
      </trkpt>
      <trkpt lat="48.70178" lon="1.93003">
        <ele>173.6</ele>
        <time>2026-01-13T09:48:38Z</time>
      </trkpt>
      <trkpt lat="48.70185" lon="1.92996">
        <ele>173.4</ele>
        <time>2026-01-13T09:48:39Z</time>
      </trkpt>
      <trkpt lat="48.70191" lon="1.9299">
        <ele>173.4</ele>
        <time>2026-01-13T09:48:40Z</time>
      </trkpt>
      <trkpt lat="48.70197" lon="1.92984">
        <ele>173.4</ele>
        <time>2026-01-13T09:48:41Z</time>
      </trkpt>
      <trkpt lat="48.70203" lon="1.92979">
        <ele>173.4</ele>
        <time>2026-01-13T09:48:42Z</time>
      </trkpt>
      <trkpt lat="48.7021" lon="1.92973">
        <ele>173.4</ele>
        <time>2026-01-13T09:48:43Z</time>
      </trkpt>
      <trkpt lat="48.70216" lon="1.92968">
        <ele>173.4</ele>
        <time>2026-01-13T09:48:44Z</time>
      </trkpt>
      <trkpt lat="48.70223" lon="1.92964">
        <ele>174.2</ele>
        <time>2026-01-13T09:48:45Z</time>
      </trkpt>
      <trkpt lat="48.70229" lon="1.92959">
        <ele>174.2</ele>
        <time>2026-01-13T09:48:46Z</time>
      </trkpt>
      <trkpt lat="48.70236" lon="1.92955">
        <ele>174.2</ele>
        <time>2026-01-13T09:48:47Z</time>
      </trkpt>
      <trkpt lat="48.70242" lon="1.92951">
        <ele>174.2</ele>
        <time>2026-01-13T09:48:48Z</time>
      </trkpt>
      <trkpt lat="48.70248" lon="1.92947">
        <ele>174.2</ele>
        <time>2026-01-13T09:48:49Z</time>
      </trkpt>
      <trkpt lat="48.70254" lon="1.92943">
        <ele>174.2</ele>
        <time>2026-01-13T09:48:50Z</time>
      </trkpt>
      <trkpt lat="48.7026" lon="1.92939">
        <ele>174.2</ele>
        <time>2026-01-13T09:48:51Z</time>
      </trkpt>
      <trkpt lat="48.70267" lon="1.92935">
        <ele>174.2</ele>
        <time>2026-01-13T09:48:52Z</time>
      </trkpt>
      <trkpt lat="48.70273" lon="1.92931">
        <ele>174.2</ele>
        <time>2026-01-13T09:48:53Z</time>
      </trkpt>
      <trkpt lat="48.70279" lon="1.92927">
        <ele>174.2</ele>
        <time>2026-01-13T09:48:54Z</time>
      </trkpt>
      <trkpt lat="48.70286" lon="1.92923">
        <ele>174.2</ele>
        <time>2026-01-13T09:48:55Z</time>
      </trkpt>
      <trkpt lat="48.70292" lon="1.92919">
        <ele>174.2</ele>
        <time>2026-01-13T09:48:56Z</time>
      </trkpt>
      <trkpt lat="48.70299" lon="1.92915">
        <ele>175</ele>
        <time>2026-01-13T09:48:57Z</time>
      </trkpt>
      <trkpt lat="48.70305" lon="1.92911">
        <ele>175</ele>
        <time>2026-01-13T09:48:58Z</time>
      </trkpt>
      <trkpt lat="48.70312" lon="1.92906">
        <ele>175</ele>
        <time>2026-01-13T09:48:59Z</time>
      </trkpt>
      <trkpt lat="48.70318" lon="1.92901">
        <ele>174.8</ele>
        <time>2026-01-13T09:49:00Z</time>
      </trkpt>
      <trkpt lat="48.70324" lon="1.92896">
        <ele>174.4</ele>
        <time>2026-01-13T09:49:01Z</time>
      </trkpt>
      <trkpt lat="48.7033" lon="1.92891">
        <ele>174.4</ele>
        <time>2026-01-13T09:49:02Z</time>
      </trkpt>
      <trkpt lat="48.70336" lon="1.92885">
        <ele>174.4</ele>
        <time>2026-01-13T09:49:03Z</time>
      </trkpt>
      <trkpt lat="48.70342" lon="1.92879">
        <ele>174.6</ele>
        <time>2026-01-13T09:49:04Z</time>
      </trkpt>
      <trkpt lat="48.70348" lon="1.92874">
        <ele>174.6</ele>
        <time>2026-01-13T09:49:05Z</time>
      </trkpt>
      <trkpt lat="48.70354" lon="1.92868">
        <ele>174.6</ele>
        <time>2026-01-13T09:49:06Z</time>
      </trkpt>
      <trkpt lat="48.7036" lon="1.92862">
        <ele>174.6</ele>
        <time>2026-01-13T09:49:07Z</time>
      </trkpt>
      <trkpt lat="48.70366" lon="1.92856">
        <ele>174.6</ele>
        <time>2026-01-13T09:49:08Z</time>
      </trkpt>
      <trkpt lat="48.70371" lon="1.9285">
        <ele>174.6</ele>
        <time>2026-01-13T09:49:09Z</time>
      </trkpt>
      <trkpt lat="48.70377" lon="1.92845">
        <ele>174.6</ele>
        <time>2026-01-13T09:49:10Z</time>
      </trkpt>
      <trkpt lat="48.70384" lon="1.92839">
        <ele>174.6</ele>
        <time>2026-01-13T09:49:11Z</time>
      </trkpt>
      <trkpt lat="48.7039" lon="1.92834">
        <ele>174.6</ele>
        <time>2026-01-13T09:49:12Z</time>
      </trkpt>
      <trkpt lat="48.70396" lon="1.9283">
        <ele>174.6</ele>
        <time>2026-01-13T09:49:13Z</time>
      </trkpt>
      <trkpt lat="48.70403" lon="1.92825">
        <ele>174.6</ele>
        <time>2026-01-13T09:49:14Z</time>
      </trkpt>
      <trkpt lat="48.70409" lon="1.92821">
        <ele>174.6</ele>
        <time>2026-01-13T09:49:15Z</time>
      </trkpt>
      <trkpt lat="48.70416" lon="1.92818">
        <ele>174.6</ele>
        <time>2026-01-13T09:49:16Z</time>
      </trkpt>
      <trkpt lat="48.70423" lon="1.92814">
        <ele>174.6</ele>
        <time>2026-01-13T09:49:17Z</time>
      </trkpt>
      <trkpt lat="48.70429" lon="1.92811">
        <ele>174.6</ele>
        <time>2026-01-13T09:49:18Z</time>
      </trkpt>
      <trkpt lat="48.70436" lon="1.92808">
        <ele>174.6</ele>
        <time>2026-01-13T09:49:19Z</time>
      </trkpt>
      <trkpt lat="48.70443" lon="1.92806">
        <ele>174.6</ele>
        <time>2026-01-13T09:49:20Z</time>
      </trkpt>
      <trkpt lat="48.7045" lon="1.92803">
        <ele>174.6</ele>
        <time>2026-01-13T09:49:21Z</time>
      </trkpt>
      <trkpt lat="48.70457" lon="1.92801">
        <ele>175.2</ele>
        <time>2026-01-13T09:49:22Z</time>
      </trkpt>
      <trkpt lat="48.70465" lon="1.92798">
        <ele>175.2</ele>
        <time>2026-01-13T09:49:23Z</time>
      </trkpt>
      <trkpt lat="48.70472" lon="1.92796">
        <ele>175.2</ele>
        <time>2026-01-13T09:49:24Z</time>
      </trkpt>
      <trkpt lat="48.70479" lon="1.92793">
        <ele>174.6</ele>
        <time>2026-01-13T09:49:25Z</time>
      </trkpt>
      <trkpt lat="48.70486" lon="1.92791">
        <ele>174.2</ele>
        <time>2026-01-13T09:49:26Z</time>
      </trkpt>
      <trkpt lat="48.70493" lon="1.92788">
        <ele>174.2</ele>
        <time>2026-01-13T09:49:27Z</time>
      </trkpt>
      <trkpt lat="48.70501" lon="1.92786">
        <ele>174.2</ele>
        <time>2026-01-13T09:49:28Z</time>
      </trkpt>
      <trkpt lat="48.70508" lon="1.92783">
        <ele>174.2</ele>
        <time>2026-01-13T09:49:29Z</time>
      </trkpt>
      <trkpt lat="48.70515" lon="1.92781">
        <ele>174.2</ele>
        <time>2026-01-13T09:49:30Z</time>
      </trkpt>
      <trkpt lat="48.70523" lon="1.92778">
        <ele>174.2</ele>
        <time>2026-01-13T09:49:31Z</time>
      </trkpt>
      <trkpt lat="48.7053" lon="1.92776">
        <ele>174.2</ele>
        <time>2026-01-13T09:49:32Z</time>
      </trkpt>
      <trkpt lat="48.70538" lon="1.92773">
        <ele>174</ele>
        <time>2026-01-13T09:49:33Z</time>
      </trkpt>
      <trkpt lat="48.70545" lon="1.92771">
        <ele>173.4</ele>
        <time>2026-01-13T09:49:34Z</time>
      </trkpt>
      <trkpt lat="48.70553" lon="1.92769">
        <ele>173.4</ele>
        <time>2026-01-13T09:49:35Z</time>
      </trkpt>
      <trkpt lat="48.70561" lon="1.92767">
        <ele>173.4</ele>
        <time>2026-01-13T09:49:36Z</time>
      </trkpt>
      <trkpt lat="48.70568" lon="1.92765">
        <ele>173.4</ele>
        <time>2026-01-13T09:49:37Z</time>
      </trkpt>
      <trkpt lat="48.70576" lon="1.92763">
        <ele>173.4</ele>
        <time>2026-01-13T09:49:38Z</time>
      </trkpt>
      <trkpt lat="48.70584" lon="1.92761">
        <ele>173</ele>
        <time>2026-01-13T09:49:39Z</time>
      </trkpt>
      <trkpt lat="48.70592" lon="1.92759">
        <ele>173</ele>
        <time>2026-01-13T09:49:40Z</time>
      </trkpt>
      <trkpt lat="48.706" lon="1.92758">
        <ele>173</ele>
        <time>2026-01-13T09:49:41Z</time>
      </trkpt>
      <trkpt lat="48.70608" lon="1.92756">
        <ele>173</ele>
        <time>2026-01-13T09:49:42Z</time>
      </trkpt>
      <trkpt lat="48.70616" lon="1.92754">
        <ele>173</ele>
        <time>2026-01-13T09:49:43Z</time>
      </trkpt>
      <trkpt lat="48.70625" lon="1.92752">
        <ele>172</ele>
        <time>2026-01-13T09:49:44Z</time>
      </trkpt>
      <trkpt lat="48.70633" lon="1.9275">
        <ele>172</ele>
        <time>2026-01-13T09:49:45Z</time>
      </trkpt>
      <trkpt lat="48.70641" lon="1.92748">
        <ele>172</ele>
        <time>2026-01-13T09:49:46Z</time>
      </trkpt>
      <trkpt lat="48.70649" lon="1.92745">
        <ele>172</ele>
        <time>2026-01-13T09:49:47Z</time>
      </trkpt>
      <trkpt lat="48.70657" lon="1.92742">
        <ele>172</ele>
        <time>2026-01-13T09:49:48Z</time>
      </trkpt>
      <trkpt lat="48.70665" lon="1.92738">
        <ele>172</ele>
        <time>2026-01-13T09:49:49Z</time>
      </trkpt>
      <trkpt lat="48.70672" lon="1.92733">
        <ele>171.8</ele>
        <time>2026-01-13T09:49:50Z</time>
      </trkpt>
      <trkpt lat="48.70679" lon="1.92726">
        <ele>171.8</ele>
        <time>2026-01-13T09:49:51Z</time>
      </trkpt>
      <trkpt lat="48.70686" lon="1.92719">
        <ele>171.6</ele>
        <time>2026-01-13T09:49:52Z</time>
      </trkpt>
      <trkpt lat="48.70692" lon="1.92711">
        <ele>171.2</ele>
        <time>2026-01-13T09:49:53Z</time>
      </trkpt>
      <trkpt lat="48.70698" lon="1.92702">
        <ele>171.2</ele>
        <time>2026-01-13T09:49:54Z</time>
      </trkpt>
      <trkpt lat="48.70703" lon="1.92693">
        <ele>171.2</ele>
        <time>2026-01-13T09:49:55Z</time>
      </trkpt>
      <trkpt lat="48.70707" lon="1.92683">
        <ele>171.4</ele>
        <time>2026-01-13T09:49:56Z</time>
      </trkpt>
      <trkpt lat="48.70712" lon="1.92672">
        <ele>171.4</ele>
        <time>2026-01-13T09:49:57Z</time>
      </trkpt>
      <trkpt lat="48.70716" lon="1.92662">
        <ele>171.4</ele>
        <time>2026-01-13T09:49:58Z</time>
      </trkpt>
      <trkpt lat="48.7072" lon="1.92652">
        <ele>171.4</ele>
        <time>2026-01-13T09:49:59Z</time>
      </trkpt>
      <trkpt lat="48.70724" lon="1.92642">
        <ele>171.4</ele>
        <time>2026-01-13T09:50:00Z</time>
      </trkpt>
      <trkpt lat="48.70728" lon="1.92632">
        <ele>171.4</ele>
        <time>2026-01-13T09:50:01Z</time>
      </trkpt>
      <trkpt lat="48.70732" lon="1.92622">
        <ele>171.4</ele>
        <time>2026-01-13T09:50:02Z</time>
      </trkpt>
      <trkpt lat="48.70736" lon="1.92611">
        <ele>171.4</ele>
        <time>2026-01-13T09:50:03Z</time>
      </trkpt>
      <trkpt lat="48.7074" lon="1.92601">
        <ele>171.4</ele>
        <time>2026-01-13T09:50:04Z</time>
      </trkpt>
      <trkpt lat="48.70744" lon="1.92591">
        <ele>171.4</ele>
        <time>2026-01-13T09:50:05Z</time>
      </trkpt>
      <trkpt lat="48.70748" lon="1.9258">
        <ele>170.6</ele>
        <time>2026-01-13T09:50:06Z</time>
      </trkpt>
      <trkpt lat="48.70751" lon="1.92569">
        <ele>170.6</ele>
        <time>2026-01-13T09:50:07Z</time>
      </trkpt>
      <trkpt lat="48.70754" lon="1.92557">
        <ele>170.6</ele>
        <time>2026-01-13T09:50:08Z</time>
      </trkpt>
      <trkpt lat="48.70756" lon="1.92546">
        <ele>170.6</ele>
        <time>2026-01-13T09:50:09Z</time>
      </trkpt>
      <trkpt lat="48.70758" lon="1.92534">
        <ele>170.6</ele>
        <time>2026-01-13T09:50:10Z</time>
      </trkpt>
      <trkpt lat="48.70759" lon="1.92522">
        <ele>169.6</ele>
        <time>2026-01-13T09:50:11Z</time>
      </trkpt>
      <trkpt lat="48.7076" lon="1.92509">
        <ele>169.6</ele>
        <time>2026-01-13T09:50:12Z</time>
      </trkpt>
      <trkpt lat="48.7076" lon="1.92497">
        <ele>169.2</ele>
        <time>2026-01-13T09:50:13Z</time>
      </trkpt>
      <trkpt lat="48.7076" lon="1.92485">
        <ele>169.2</ele>
        <time>2026-01-13T09:50:14Z</time>
      </trkpt>
      <trkpt lat="48.70759" lon="1.92473">
        <ele>169.2</ele>
        <time>2026-01-13T09:50:15Z</time>
      </trkpt>
      <trkpt lat="48.70758" lon="1.92461">
        <ele>169.8</ele>
        <time>2026-01-13T09:50:16Z</time>
      </trkpt>
      <trkpt lat="48.70756" lon="1.92449">
        <ele>169.8</ele>
        <time>2026-01-13T09:50:17Z</time>
      </trkpt>
      <trkpt lat="48.70753" lon="1.92438">
        <ele>169.8</ele>
        <time>2026-01-13T09:50:18Z</time>
      </trkpt>
      <trkpt lat="48.7075" lon="1.92426">
        <ele>169.8</ele>
        <time>2026-01-13T09:50:19Z</time>
      </trkpt>
      <trkpt lat="48.70747" lon="1.92415">
        <ele>169.8</ele>
        <time>2026-01-13T09:50:20Z</time>
      </trkpt>
      <trkpt lat="48.70744" lon="1.92404">
        <ele>169.8</ele>
        <time>2026-01-13T09:50:21Z</time>
      </trkpt>
      <trkpt lat="48.70741" lon="1.92393">
        <ele>169.8</ele>
        <time>2026-01-13T09:50:22Z</time>
      </trkpt>
      <trkpt lat="48.70737" lon="1.92382">
        <ele>169.8</ele>
        <time>2026-01-13T09:50:23Z</time>
      </trkpt>
      <trkpt lat="48.70734" lon="1.92372">
        <ele>169.8</ele>
        <time>2026-01-13T09:50:24Z</time>
      </trkpt>
      <trkpt lat="48.70731" lon="1.92362">
        <ele>169.8</ele>
        <time>2026-01-13T09:50:25Z</time>
      </trkpt>
      <trkpt lat="48.70728" lon="1.92352">
        <ele>169.8</ele>
        <time>2026-01-13T09:50:26Z</time>
      </trkpt>
      <trkpt lat="48.70725" lon="1.92342">
        <ele>169.8</ele>
        <time>2026-01-13T09:50:27Z</time>
      </trkpt>
      <trkpt lat="48.70722" lon="1.92332">
        <ele>170.2</ele>
        <time>2026-01-13T09:50:28Z</time>
      </trkpt>
      <trkpt lat="48.70719" lon="1.92322">
        <ele>170.8</ele>
        <time>2026-01-13T09:50:29Z</time>
      </trkpt>
      <trkpt lat="48.70716" lon="1.92312">
        <ele>170.8</ele>
        <time>2026-01-13T09:50:30Z</time>
      </trkpt>
      <trkpt lat="48.70713" lon="1.92302">
        <ele>170.8</ele>
        <time>2026-01-13T09:50:31Z</time>
      </trkpt>
      <trkpt lat="48.7071" lon="1.92292">
        <ele>170.8</ele>
        <time>2026-01-13T09:50:32Z</time>
      </trkpt>
      <trkpt lat="48.70707" lon="1.92282">
        <ele>170.2</ele>
        <time>2026-01-13T09:50:33Z</time>
      </trkpt>
      <trkpt lat="48.70704" lon="1.92272">
        <ele>170.2</ele>
        <time>2026-01-13T09:50:34Z</time>
      </trkpt>
      <trkpt lat="48.70701" lon="1.92262">
        <ele>170.2</ele>
        <time>2026-01-13T09:50:35Z</time>
      </trkpt>
      <trkpt lat="48.70698" lon="1.92252">
        <ele>170.2</ele>
        <time>2026-01-13T09:50:36Z</time>
      </trkpt>
      <trkpt lat="48.70695" lon="1.92242">
        <ele>170.2</ele>
        <time>2026-01-13T09:50:37Z</time>
      </trkpt>
      <trkpt lat="48.70692" lon="1.92232">
        <ele>170.2</ele>
        <time>2026-01-13T09:50:38Z</time>
      </trkpt>
      <trkpt lat="48.70689" lon="1.92222">
        <ele>170.2</ele>
        <time>2026-01-13T09:50:39Z</time>
      </trkpt>
      <trkpt lat="48.70687" lon="1.92213">
        <ele>170.2</ele>
        <time>2026-01-13T09:50:40Z</time>
      </trkpt>
      <trkpt lat="48.70684" lon="1.92203">
        <ele>170.2</ele>
        <time>2026-01-13T09:50:41Z</time>
      </trkpt>
      <trkpt lat="48.70681" lon="1.92193">
        <ele>170.2</ele>
        <time>2026-01-13T09:50:42Z</time>
      </trkpt>
      <trkpt lat="48.70678" lon="1.92184">
        <ele>170.2</ele>
        <time>2026-01-13T09:50:43Z</time>
      </trkpt>
      <trkpt lat="48.70675" lon="1.92175">
        <ele>170.2</ele>
        <time>2026-01-13T09:50:44Z</time>
      </trkpt>
      <trkpt lat="48.70673" lon="1.92165">
        <ele>171.2</ele>
        <time>2026-01-13T09:50:45Z</time>
      </trkpt>
      <trkpt lat="48.7067" lon="1.92156">
        <ele>171.2</ele>
        <time>2026-01-13T09:50:46Z</time>
      </trkpt>
      <trkpt lat="48.70668" lon="1.92147">
        <ele>171.2</ele>
        <time>2026-01-13T09:50:47Z</time>
      </trkpt>
      <trkpt lat="48.70666" lon="1.92137">
        <ele>170.2</ele>
        <time>2026-01-13T09:50:48Z</time>
      </trkpt>
      <trkpt lat="48.70664" lon="1.92127">
        <ele>170</ele>
        <time>2026-01-13T09:50:49Z</time>
      </trkpt>
      <trkpt lat="48.70663" lon="1.92116">
        <ele>170</ele>
        <time>2026-01-13T09:50:50Z</time>
      </trkpt>
      <trkpt lat="48.70663" lon="1.92106">
        <ele>170</ele>
        <time>2026-01-13T09:50:51Z</time>
      </trkpt>
      <trkpt lat="48.70663" lon="1.92095">
        <ele>170.4</ele>
        <time>2026-01-13T09:50:52Z</time>
      </trkpt>
      <trkpt lat="48.70663" lon="1.92084">
        <ele>170.4</ele>
        <time>2026-01-13T09:50:53Z</time>
      </trkpt>
      <trkpt lat="48.70664" lon="1.92073">
        <ele>170.4</ele>
        <time>2026-01-13T09:50:54Z</time>
      </trkpt>
      <trkpt lat="48.70666" lon="1.92063">
        <ele>169.8</ele>
        <time>2026-01-13T09:50:55Z</time>
      </trkpt>
      <trkpt lat="48.70668" lon="1.92053">
        <ele>169.8</ele>
        <time>2026-01-13T09:50:56Z</time>
      </trkpt>
      <trkpt lat="48.7067" lon="1.92043">
        <ele>169.8</ele>
        <time>2026-01-13T09:50:57Z</time>
      </trkpt>
      <trkpt lat="48.70673" lon="1.92034">
        <ele>170.8</ele>
        <time>2026-01-13T09:50:58Z</time>
      </trkpt>
      <trkpt lat="48.70676" lon="1.92025">
        <ele>171.4</ele>
        <time>2026-01-13T09:50:59Z</time>
      </trkpt>
      <trkpt lat="48.70679" lon="1.92017">
        <ele>171.8</ele>
        <time>2026-01-13T09:51:00Z</time>
      </trkpt>
      <trkpt lat="48.70682" lon="1.92008">
        <ele>171.8</ele>
        <time>2026-01-13T09:51:01Z</time>
      </trkpt>
      <trkpt lat="48.70684" lon="1.92">
        <ele>171.8</ele>
        <time>2026-01-13T09:51:02Z</time>
      </trkpt>
      <trkpt lat="48.70687" lon="1.91991">
        <ele>171.8</ele>
        <time>2026-01-13T09:51:03Z</time>
      </trkpt>
      <trkpt lat="48.7069" lon="1.91983">
        <ele>172.2</ele>
        <time>2026-01-13T09:51:04Z</time>
      </trkpt>
      <trkpt lat="48.70693" lon="1.91974">
        <ele>172.4</ele>
        <time>2026-01-13T09:51:05Z</time>
      </trkpt>
      <trkpt lat="48.70696" lon="1.91965">
        <ele>172.4</ele>
        <time>2026-01-13T09:51:06Z</time>
      </trkpt>
      <trkpt lat="48.70699" lon="1.91956">
        <ele>172.4</ele>
        <time>2026-01-13T09:51:07Z</time>
      </trkpt>
      <trkpt lat="48.70702" lon="1.91948">
        <ele>172.4</ele>
        <time>2026-01-13T09:51:08Z</time>
      </trkpt>
      <trkpt lat="48.70706" lon="1.91939">
        <ele>172.4</ele>
        <time>2026-01-13T09:51:09Z</time>
      </trkpt>
      <trkpt lat="48.70709" lon="1.91931">
        <ele>172.4</ele>
        <time>2026-01-13T09:51:10Z</time>
      </trkpt>
      <trkpt lat="48.70711" lon="1.91922">
        <ele>172.4</ele>
        <time>2026-01-13T09:51:11Z</time>
      </trkpt>
      <trkpt lat="48.70714" lon="1.91914">
        <ele>172.4</ele>
        <time>2026-01-13T09:51:12Z</time>
      </trkpt>
      <trkpt lat="48.70717" lon="1.91905">
        <ele>172.4</ele>
        <time>2026-01-13T09:51:13Z</time>
      </trkpt>
      <trkpt lat="48.7072" lon="1.91897">
        <ele>172.4</ele>
        <time>2026-01-13T09:51:14Z</time>
      </trkpt>
      <trkpt lat="48.70722" lon="1.91889">
        <ele>173</ele>
        <time>2026-01-13T09:51:15Z</time>
      </trkpt>
      <trkpt lat="48.70725" lon="1.9188">
        <ele>173.2</ele>
        <time>2026-01-13T09:51:16Z</time>
      </trkpt>
      <trkpt lat="48.70728" lon="1.91872">
        <ele>173.2</ele>
        <time>2026-01-13T09:51:17Z</time>
      </trkpt>
      <trkpt lat="48.70731" lon="1.91864">
        <ele>173.4</ele>
        <time>2026-01-13T09:51:18Z</time>
      </trkpt>
      <trkpt lat="48.70734" lon="1.91856">
        <ele>173.4</ele>
        <time>2026-01-13T09:51:19Z</time>
      </trkpt>
      <trkpt lat="48.70737" lon="1.91849">
        <ele>173.4</ele>
        <time>2026-01-13T09:51:20Z</time>
      </trkpt>
      <trkpt lat="48.70739" lon="1.91841">
        <ele>173.4</ele>
        <time>2026-01-13T09:51:21Z</time>
      </trkpt>
      <trkpt lat="48.70742" lon="1.91833">
        <ele>173.4</ele>
        <time>2026-01-13T09:51:22Z</time>
      </trkpt>
      <trkpt lat="48.70745" lon="1.91825">
        <ele>174</ele>
        <time>2026-01-13T09:51:23Z</time>
      </trkpt>
      <trkpt lat="48.70748" lon="1.91816">
        <ele>174</ele>
        <time>2026-01-13T09:51:24Z</time>
      </trkpt>
      <trkpt lat="48.70751" lon="1.91808">
        <ele>174</ele>
        <time>2026-01-13T09:51:25Z</time>
      </trkpt>
      <trkpt lat="48.70754" lon="1.91799">
        <ele>174</ele>
        <time>2026-01-13T09:51:26Z</time>
      </trkpt>
      <trkpt lat="48.70757" lon="1.91791">
        <ele>173.6</ele>
        <time>2026-01-13T09:51:27Z</time>
      </trkpt>
      <trkpt lat="48.7076" lon="1.91782">
        <ele>173.6</ele>
        <time>2026-01-13T09:51:28Z</time>
      </trkpt>
      <trkpt lat="48.70762" lon="1.91774">
        <ele>173.4</ele>
        <time>2026-01-13T09:51:29Z</time>
      </trkpt>
      <trkpt lat="48.70765" lon="1.91766">
        <ele>173.4</ele>
        <time>2026-01-13T09:51:30Z</time>
      </trkpt>
      <trkpt lat="48.70768" lon="1.91757">
        <ele>173.4</ele>
        <time>2026-01-13T09:51:31Z</time>
      </trkpt>
      <trkpt lat="48.70771" lon="1.91749">
        <ele>173.4</ele>
        <time>2026-01-13T09:51:32Z</time>
      </trkpt>
      <trkpt lat="48.70774" lon="1.91741">
        <ele>173.4</ele>
        <time>2026-01-13T09:51:33Z</time>
      </trkpt>
      <trkpt lat="48.70777" lon="1.91732">
        <ele>173.4</ele>
        <time>2026-01-13T09:51:34Z</time>
      </trkpt>
      <trkpt lat="48.70779" lon="1.91724">
        <ele>173.8</ele>
        <time>2026-01-13T09:51:35Z</time>
      </trkpt>
      <trkpt lat="48.70781" lon="1.91715">
        <ele>173.8</ele>
        <time>2026-01-13T09:51:36Z</time>
      </trkpt>
      <trkpt lat="48.70784" lon="1.91706">
        <ele>173.8</ele>
        <time>2026-01-13T09:51:37Z</time>
      </trkpt>
      <trkpt lat="48.70786" lon="1.91697">
        <ele>173.6</ele>
        <time>2026-01-13T09:51:38Z</time>
      </trkpt>
      <trkpt lat="48.70788" lon="1.91688">
        <ele>173.6</ele>
        <time>2026-01-13T09:51:39Z</time>
      </trkpt>
      <trkpt lat="48.70789" lon="1.91678">
        <ele>173.2</ele>
        <time>2026-01-13T09:51:40Z</time>
      </trkpt>
      <trkpt lat="48.70791" lon="1.91669">
        <ele>173</ele>
        <time>2026-01-13T09:51:41Z</time>
      </trkpt>
      <trkpt lat="48.70793" lon="1.91659">
        <ele>173</ele>
        <time>2026-01-13T09:51:42Z</time>
      </trkpt>
      <trkpt lat="48.70795" lon="1.9165">
        <ele>173</ele>
        <time>2026-01-13T09:51:43Z</time>
      </trkpt>
      <trkpt lat="48.70796" lon="1.9164">
        <ele>173</ele>
        <time>2026-01-13T09:51:44Z</time>
      </trkpt>
      <trkpt lat="48.70798" lon="1.9163">
        <ele>173</ele>
        <time>2026-01-13T09:51:45Z</time>
      </trkpt>
      <trkpt lat="48.70799" lon="1.91621">
        <ele>173</ele>
        <time>2026-01-13T09:51:46Z</time>
      </trkpt>
      <trkpt lat="48.70801" lon="1.91612">
        <ele>173</ele>
        <time>2026-01-13T09:51:47Z</time>
      </trkpt>
      <trkpt lat="48.70803" lon="1.91602">
        <ele>173.2</ele>
        <time>2026-01-13T09:51:48Z</time>
      </trkpt>
      <trkpt lat="48.70804" lon="1.91593">
        <ele>173.4</ele>
        <time>2026-01-13T09:51:49Z</time>
      </trkpt>
      <trkpt lat="48.70806" lon="1.91583">
        <ele>173.4</ele>
        <time>2026-01-13T09:51:50Z</time>
      </trkpt>
      <trkpt lat="48.70807" lon="1.91574">
        <ele>173.4</ele>
        <time>2026-01-13T09:51:51Z</time>
      </trkpt>
      <trkpt lat="48.70809" lon="1.91565">
        <ele>173</ele>
        <time>2026-01-13T09:51:52Z</time>
      </trkpt>
      <trkpt lat="48.70811" lon="1.91555">
        <ele>173</ele>
        <time>2026-01-13T09:51:53Z</time>
      </trkpt>
      <trkpt lat="48.70813" lon="1.91547">
        <ele>173</ele>
        <time>2026-01-13T09:51:54Z</time>
      </trkpt>
      <trkpt lat="48.70815" lon="1.91538">
        <ele>173</ele>
        <time>2026-01-13T09:51:55Z</time>
      </trkpt>
      <trkpt lat="48.70818" lon="1.91528">
        <ele>173</ele>
        <time>2026-01-13T09:51:56Z</time>
      </trkpt>
      <trkpt lat="48.70821" lon="1.91519">
        <ele>173</ele>
        <time>2026-01-13T09:51:57Z</time>
      </trkpt>
      <trkpt lat="48.70824" lon="1.9151">
        <ele>172.6</ele>
        <time>2026-01-13T09:51:58Z</time>
      </trkpt>
      <trkpt lat="48.70827" lon="1.91501">
        <ele>172.6</ele>
        <time>2026-01-13T09:51:59Z</time>
      </trkpt>
      <trkpt lat="48.70831" lon="1.91493">
        <ele>172.6</ele>
        <time>2026-01-13T09:52:00Z</time>
      </trkpt>
      <trkpt lat="48.70835" lon="1.91484">
        <ele>172.6</ele>
        <time>2026-01-13T09:52:01Z</time>
      </trkpt>
      <trkpt lat="48.70838" lon="1.91476">
        <ele>172.6</ele>
        <time>2026-01-13T09:52:02Z</time>
      </trkpt>
      <trkpt lat="48.70843" lon="1.91468">
        <ele>172.6</ele>
        <time>2026-01-13T09:52:03Z</time>
      </trkpt>
      <trkpt lat="48.70847" lon="1.9146">
        <ele>172.6</ele>
        <time>2026-01-13T09:52:04Z</time>
      </trkpt>
      <trkpt lat="48.70852" lon="1.91453">
        <ele>172.6</ele>
        <time>2026-01-13T09:52:05Z</time>
      </trkpt>
      <trkpt lat="48.70856" lon="1.91446">
        <ele>172.6</ele>
        <time>2026-01-13T09:52:06Z</time>
      </trkpt>
      <trkpt lat="48.70861" lon="1.91439">
        <ele>172.6</ele>
        <time>2026-01-13T09:52:07Z</time>
      </trkpt>
      <trkpt lat="48.70866" lon="1.91431">
        <ele>172.6</ele>
        <time>2026-01-13T09:52:08Z</time>
      </trkpt>
      <trkpt lat="48.70871" lon="1.91424">
        <ele>172.6</ele>
        <time>2026-01-13T09:52:09Z</time>
      </trkpt>
      <trkpt lat="48.70876" lon="1.91417">
        <ele>172.6</ele>
        <time>2026-01-13T09:52:10Z</time>
      </trkpt>
      <trkpt lat="48.70881" lon="1.9141">
        <ele>172.6</ele>
        <time>2026-01-13T09:52:11Z</time>
      </trkpt>
      <trkpt lat="48.70886" lon="1.91403">
        <ele>172</ele>
        <time>2026-01-13T09:52:12Z</time>
      </trkpt>
      <trkpt lat="48.70892" lon="1.91396">
        <ele>171.8</ele>
        <time>2026-01-13T09:52:13Z</time>
      </trkpt>
      <trkpt lat="48.70897" lon="1.91389">
        <ele>171.8</ele>
        <time>2026-01-13T09:52:14Z</time>
      </trkpt>
      <trkpt lat="48.70902" lon="1.91381">
        <ele>171.8</ele>
        <time>2026-01-13T09:52:15Z</time>
      </trkpt>
      <trkpt lat="48.70908" lon="1.91374">
        <ele>171.8</ele>
        <time>2026-01-13T09:52:16Z</time>
      </trkpt>
      <trkpt lat="48.70913" lon="1.91367">
        <ele>171.8</ele>
        <time>2026-01-13T09:52:17Z</time>
      </trkpt>
      <trkpt lat="48.70919" lon="1.9136">
        <ele>171.4</ele>
        <time>2026-01-13T09:52:18Z</time>
      </trkpt>
      <trkpt lat="48.70924" lon="1.91352">
        <ele>171.2</ele>
        <time>2026-01-13T09:52:19Z</time>
      </trkpt>
      <trkpt lat="48.70929" lon="1.91344">
        <ele>171</ele>
        <time>2026-01-13T09:52:20Z</time>
      </trkpt>
      <trkpt lat="48.70935" lon="1.91336">
        <ele>171</ele>
        <time>2026-01-13T09:52:21Z</time>
      </trkpt>
      <trkpt lat="48.7094" lon="1.91328">
        <ele>171</ele>
        <time>2026-01-13T09:52:22Z</time>
      </trkpt>
      <trkpt lat="48.70945" lon="1.91319">
        <ele>171</ele>
        <time>2026-01-13T09:52:23Z</time>
      </trkpt>
      <trkpt lat="48.70949" lon="1.91309">
        <ele>170.4</ele>
        <time>2026-01-13T09:52:24Z</time>
      </trkpt>
      <trkpt lat="48.70953" lon="1.91299">
        <ele>170.2</ele>
        <time>2026-01-13T09:52:25Z</time>
      </trkpt>
      <trkpt lat="48.70957" lon="1.91289">
        <ele>170.2</ele>
        <time>2026-01-13T09:52:26Z</time>
      </trkpt>
      <trkpt lat="48.70961" lon="1.91279">
        <ele>170.2</ele>
        <time>2026-01-13T09:52:27Z</time>
      </trkpt>
      <trkpt lat="48.70965" lon="1.91269">
        <ele>171</ele>
        <time>2026-01-13T09:52:28Z</time>
      </trkpt>
      <trkpt lat="48.70969" lon="1.91259">
        <ele>171</ele>
        <time>2026-01-13T09:52:29Z</time>
      </trkpt>
      <trkpt lat="48.70973" lon="1.91249">
        <ele>171</ele>
        <time>2026-01-13T09:52:30Z</time>
      </trkpt>
      <trkpt lat="48.70976" lon="1.91239">
        <ele>170.4</ele>
        <time>2026-01-13T09:52:31Z</time>
      </trkpt>
      <trkpt lat="48.7098" lon="1.91228">
        <ele>170.2</ele>
        <time>2026-01-13T09:52:32Z</time>
      </trkpt>
      <trkpt lat="48.70983" lon="1.91218">
        <ele>170.2</ele>
        <time>2026-01-13T09:52:33Z</time>
      </trkpt>
      <trkpt lat="48.70986" lon="1.91207">
        <ele>170.2</ele>
        <time>2026-01-13T09:52:34Z</time>
      </trkpt>
      <trkpt lat="48.70989" lon="1.91197">
        <ele>170.2</ele>
        <time>2026-01-13T09:52:35Z</time>
      </trkpt>
      <trkpt lat="48.70992" lon="1.91186">
        <ele>169.8</ele>
        <time>2026-01-13T09:52:36Z</time>
      </trkpt>
      <trkpt lat="48.70994" lon="1.91176">
        <ele>169.8</ele>
        <time>2026-01-13T09:52:37Z</time>
      </trkpt>
      <trkpt lat="48.70997" lon="1.91166">
        <ele>169.8</ele>
        <time>2026-01-13T09:52:38Z</time>
      </trkpt>
      <trkpt lat="48.70999" lon="1.91155">
        <ele>169.8</ele>
        <time>2026-01-13T09:52:39Z</time>
      </trkpt>
      <trkpt lat="48.71002" lon="1.91145">
        <ele>169.8</ele>
        <time>2026-01-13T09:52:40Z</time>
      </trkpt>
      <trkpt lat="48.71004" lon="1.91134">
        <ele>169.8</ele>
        <time>2026-01-13T09:52:41Z</time>
      </trkpt>
      <trkpt lat="48.71006" lon="1.91123">
        <ele>169.8</ele>
        <time>2026-01-13T09:52:42Z</time>
      </trkpt>
      <trkpt lat="48.71009" lon="1.91112">
        <ele>169.8</ele>
        <time>2026-01-13T09:52:43Z</time>
      </trkpt>
      <trkpt lat="48.71011" lon="1.91101">
        <ele>169.8</ele>
        <time>2026-01-13T09:52:44Z</time>
      </trkpt>
      <trkpt lat="48.71014" lon="1.9109">
        <ele>169.8</ele>
        <time>2026-01-13T09:52:45Z</time>
      </trkpt>
      <trkpt lat="48.71016" lon="1.91079">
        <ele>168.8</ele>
        <time>2026-01-13T09:52:46Z</time>
      </trkpt>
      <trkpt lat="48.71018" lon="1.91067">
        <ele>168</ele>
        <time>2026-01-13T09:52:47Z</time>
      </trkpt>
      <trkpt lat="48.71021" lon="1.91056">
        <ele>168</ele>
        <time>2026-01-13T09:52:48Z</time>
      </trkpt>
      <trkpt lat="48.71023" lon="1.91044">
        <ele>168</ele>
        <time>2026-01-13T09:52:49Z</time>
      </trkpt>
      <trkpt lat="48.71026" lon="1.91033">
        <ele>168</ele>
        <time>2026-01-13T09:52:50Z</time>
      </trkpt>
      <trkpt lat="48.71029" lon="1.91021">
        <ele>168</ele>
        <time>2026-01-13T09:52:51Z</time>
      </trkpt>
      <trkpt lat="48.71031" lon="1.91009">
        <ele>167</ele>
        <time>2026-01-13T09:52:52Z</time>
      </trkpt>
      <trkpt lat="48.71034" lon="1.90997">
        <ele>167</ele>
        <time>2026-01-13T09:52:53Z</time>
      </trkpt>
      <trkpt lat="48.71037" lon="1.90986">
        <ele>167</ele>
        <time>2026-01-13T09:52:54Z</time>
      </trkpt>
      <trkpt lat="48.7104" lon="1.90974">
        <ele>167</ele>
        <time>2026-01-13T09:52:55Z</time>
      </trkpt>
      <trkpt lat="48.71043" lon="1.90963">
        <ele>167</ele>
        <time>2026-01-13T09:52:56Z</time>
      </trkpt>
      <trkpt lat="48.71045" lon="1.90951">
        <ele>167</ele>
        <time>2026-01-13T09:52:57Z</time>
      </trkpt>
      <trkpt lat="48.71048" lon="1.9094">
        <ele>167</ele>
        <time>2026-01-13T09:52:58Z</time>
      </trkpt>
      <trkpt lat="48.71051" lon="1.90928">
        <ele>167</ele>
        <time>2026-01-13T09:52:59Z</time>
      </trkpt>
      <trkpt lat="48.71054" lon="1.90917">
        <ele>167</ele>
        <time>2026-01-13T09:53:00Z</time>
      </trkpt>
      <trkpt lat="48.71056" lon="1.90905">
        <ele>167.6</ele>
        <time>2026-01-13T09:53:01Z</time>
      </trkpt>
      <trkpt lat="48.71059" lon="1.90894">
        <ele>167.6</ele>
        <time>2026-01-13T09:53:02Z</time>
      </trkpt>
      <trkpt lat="48.71061" lon="1.90883">
        <ele>167.8</ele>
        <time>2026-01-13T09:53:03Z</time>
      </trkpt>
      <trkpt lat="48.71063" lon="1.90872">
        <ele>167.8</ele>
        <time>2026-01-13T09:53:04Z</time>
      </trkpt>
      <trkpt lat="48.71065" lon="1.9086">
        <ele>167.8</ele>
        <time>2026-01-13T09:53:05Z</time>
      </trkpt>
      <trkpt lat="48.71068" lon="1.90849">
        <ele>167.6</ele>
        <time>2026-01-13T09:53:06Z</time>
      </trkpt>
      <trkpt lat="48.7107" lon="1.90838">
        <ele>167.6</ele>
        <time>2026-01-13T09:53:07Z</time>
      </trkpt>
      <trkpt lat="48.71072" lon="1.90828">
        <ele>167.6</ele>
        <time>2026-01-13T09:53:08Z</time>
      </trkpt>
      <trkpt lat="48.71075" lon="1.90817">
        <ele>168</ele>
        <time>2026-01-13T09:53:09Z</time>
      </trkpt>
      <trkpt lat="48.71077" lon="1.90807">
        <ele>168</ele>
        <time>2026-01-13T09:53:10Z</time>
      </trkpt>
      <trkpt lat="48.7108" lon="1.90797">
        <ele>168</ele>
        <time>2026-01-13T09:53:11Z</time>
      </trkpt>
      <trkpt lat="48.71082" lon="1.90788">
        <ele>168</ele>
        <time>2026-01-13T09:53:12Z</time>
      </trkpt>
      <trkpt lat="48.71085" lon="1.90779">
        <ele>169</ele>
        <time>2026-01-13T09:53:13Z</time>
      </trkpt>
      <trkpt lat="48.71087" lon="1.90769">
        <ele>169</ele>
        <time>2026-01-13T09:53:14Z</time>
      </trkpt>
      <trkpt lat="48.71089" lon="1.9076">
        <ele>169</ele>
        <time>2026-01-13T09:53:15Z</time>
      </trkpt>
      <trkpt lat="48.71091" lon="1.90751">
        <ele>169</ele>
        <time>2026-01-13T09:53:16Z</time>
      </trkpt>
      <trkpt lat="48.71094" lon="1.90742">
        <ele>169.6</ele>
        <time>2026-01-13T09:53:17Z</time>
      </trkpt>
      <trkpt lat="48.71095" lon="1.90733">
        <ele>169.6</ele>
        <time>2026-01-13T09:53:18Z</time>
      </trkpt>
      <trkpt lat="48.71097" lon="1.90723">
        <ele>169.6</ele>
        <time>2026-01-13T09:53:19Z</time>
      </trkpt>
      <trkpt lat="48.71098" lon="1.90714">
        <ele>169.6</ele>
        <time>2026-01-13T09:53:20Z</time>
      </trkpt>
      <trkpt lat="48.711" lon="1.90706">
        <ele>170.4</ele>
        <time>2026-01-13T09:53:21Z</time>
      </trkpt>
      <trkpt lat="48.71101" lon="1.90696">
        <ele>170.8</ele>
        <time>2026-01-13T09:53:22Z</time>
      </trkpt>
      <trkpt lat="48.71102" lon="1.90688">
        <ele>170.8</ele>
        <time>2026-01-13T09:53:23Z</time>
      </trkpt>
      <trkpt lat="48.71103" lon="1.9068">
        <ele>170.8</ele>
        <time>2026-01-13T09:53:24Z</time>
      </trkpt>
      <trkpt lat="48.71104" lon="1.90672">
        <ele>170.2</ele>
        <time>2026-01-13T09:53:25Z</time>
      </trkpt>
      <trkpt lat="48.71104" lon="1.90662">
        <ele>170.2</ele>
        <time>2026-01-13T09:53:26Z</time>
      </trkpt>
      <trkpt lat="48.71105" lon="1.90652">
        <ele>170.2</ele>
        <time>2026-01-13T09:53:27Z</time>
      </trkpt>
      <trkpt lat="48.71105" lon="1.90643">
        <ele>170.4</ele>
        <time>2026-01-13T09:53:28Z</time>
      </trkpt>
      <trkpt lat="48.71105" lon="1.90633">
        <ele>170.4</ele>
        <time>2026-01-13T09:53:29Z</time>
      </trkpt>
      <trkpt lat="48.71103" lon="1.90624">
        <ele>170.4</ele>
        <time>2026-01-13T09:53:30Z</time>
      </trkpt>
      <trkpt lat="48.71104" lon="1.90613">
        <ele>170.4</ele>
        <time>2026-01-13T09:53:31Z</time>
      </trkpt>
      <trkpt lat="48.71104" lon="1.90603">
        <ele>171</ele>
        <time>2026-01-13T09:53:32Z</time>
      </trkpt>
      <trkpt lat="48.71105" lon="1.90593">
        <ele>171</ele>
        <time>2026-01-13T09:53:33Z</time>
      </trkpt>
      <trkpt lat="48.71105" lon="1.90584">
        <ele>171</ele>
        <time>2026-01-13T09:53:34Z</time>
      </trkpt>
      <trkpt lat="48.71106" lon="1.90574">
        <ele>171</ele>
        <time>2026-01-13T09:53:35Z</time>
      </trkpt>
      <trkpt lat="48.71106" lon="1.90565">
        <ele>171</ele>
        <time>2026-01-13T09:53:36Z</time>
      </trkpt>
      <trkpt lat="48.71107" lon="1.90556">
        <ele>171</ele>
        <time>2026-01-13T09:53:37Z</time>
      </trkpt>
      <trkpt lat="48.71107" lon="1.90546">
        <ele>171</ele>
        <time>2026-01-13T09:53:38Z</time>
      </trkpt>
      <trkpt lat="48.71108" lon="1.90537">
        <ele>170.8</ele>
        <time>2026-01-13T09:53:39Z</time>
      </trkpt>
      <trkpt lat="48.71108" lon="1.90527">
        <ele>170.8</ele>
        <time>2026-01-13T09:53:40Z</time>
      </trkpt>
      <trkpt lat="48.71109" lon="1.90518">
        <ele>170.8</ele>
        <time>2026-01-13T09:53:41Z</time>
      </trkpt>
      <trkpt lat="48.71109" lon="1.90509">
        <ele>171.2</ele>
        <time>2026-01-13T09:53:42Z</time>
      </trkpt>
      <trkpt lat="48.7111" lon="1.90501">
        <ele>171.2</ele>
        <time>2026-01-13T09:53:43Z</time>
      </trkpt>
      <trkpt lat="48.71111" lon="1.90492">
        <ele>171.2</ele>
        <time>2026-01-13T09:53:44Z</time>
      </trkpt>
      <trkpt lat="48.71113" lon="1.90483">
        <ele>171.2</ele>
        <time>2026-01-13T09:53:45Z</time>
      </trkpt>
      <trkpt lat="48.71114" lon="1.90475">
        <ele>171.2</ele>
        <time>2026-01-13T09:53:46Z</time>
      </trkpt>
      <trkpt lat="48.71116" lon="1.90467">
        <ele>171.2</ele>
        <time>2026-01-13T09:53:47Z</time>
      </trkpt>
      <trkpt lat="48.71118" lon="1.90459">
        <ele>172.2</ele>
        <time>2026-01-13T09:53:48Z</time>
      </trkpt>
      <trkpt lat="48.7112" lon="1.90451">
        <ele>172.4</ele>
        <time>2026-01-13T09:53:49Z</time>
      </trkpt>
      <trkpt lat="48.71122" lon="1.90444">
        <ele>172.4</ele>
        <time>2026-01-13T09:53:50Z</time>
      </trkpt>
      <trkpt lat="48.71125" lon="1.90437">
        <ele>172.4</ele>
        <time>2026-01-13T09:53:51Z</time>
      </trkpt>
      <trkpt lat="48.71128" lon="1.9043">
        <ele>172.4</ele>
        <time>2026-01-13T09:53:52Z</time>
      </trkpt>
      <trkpt lat="48.71131" lon="1.90423">
        <ele>172.8</ele>
        <time>2026-01-13T09:53:53Z</time>
      </trkpt>
      <trkpt lat="48.71134" lon="1.90416">
        <ele>173</ele>
        <time>2026-01-13T09:53:54Z</time>
      </trkpt>
      <trkpt lat="48.71138" lon="1.90411">
        <ele>173</ele>
        <time>2026-01-13T09:53:55Z</time>
      </trkpt>
      <trkpt lat="48.71141" lon="1.90405">
        <ele>173</ele>
        <time>2026-01-13T09:53:56Z</time>
      </trkpt>
      <trkpt lat="48.71145" lon="1.904">
        <ele>173</ele>
        <time>2026-01-13T09:53:57Z</time>
      </trkpt>
      <trkpt lat="48.71149" lon="1.90394">
        <ele>173</ele>
        <time>2026-01-13T09:53:58Z</time>
      </trkpt>
      <trkpt lat="48.71153" lon="1.90387">
        <ele>173</ele>
        <time>2026-01-13T09:53:59Z</time>
      </trkpt>
      <trkpt lat="48.71157" lon="1.90382">
        <ele>173</ele>
        <time>2026-01-13T09:54:00Z</time>
      </trkpt>
      <trkpt lat="48.71161" lon="1.90375">
        <ele>173</ele>
        <time>2026-01-13T09:54:01Z</time>
      </trkpt>
      <trkpt lat="48.71165" lon="1.90368">
        <ele>173</ele>
        <time>2026-01-13T09:54:02Z</time>
      </trkpt>
      <trkpt lat="48.71168" lon="1.90361">
        <ele>173</ele>
        <time>2026-01-13T09:54:03Z</time>
      </trkpt>
      <trkpt lat="48.71172" lon="1.90353">
        <ele>172.8</ele>
        <time>2026-01-13T09:54:04Z</time>
      </trkpt>
      <trkpt lat="48.71176" lon="1.90345">
        <ele>172.8</ele>
        <time>2026-01-13T09:54:05Z</time>
      </trkpt>
      <trkpt lat="48.7118" lon="1.90337">
        <ele>172.8</ele>
        <time>2026-01-13T09:54:06Z</time>
      </trkpt>
      <trkpt lat="48.71184" lon="1.90329">
        <ele>172.8</ele>
        <time>2026-01-13T09:54:07Z</time>
      </trkpt>
      <trkpt lat="48.71188" lon="1.90322">
        <ele>172.8</ele>
        <time>2026-01-13T09:54:08Z</time>
      </trkpt>
      <trkpt lat="48.71192" lon="1.90315">
        <ele>172.8</ele>
        <time>2026-01-13T09:54:09Z</time>
      </trkpt>
      <trkpt lat="48.71195" lon="1.90307">
        <ele>172.4</ele>
        <time>2026-01-13T09:54:10Z</time>
      </trkpt>
      <trkpt lat="48.71199" lon="1.90298">
        <ele>171.8</ele>
        <time>2026-01-13T09:54:11Z</time>
      </trkpt>
      <trkpt lat="48.71203" lon="1.9029">
        <ele>171.6</ele>
        <time>2026-01-13T09:54:12Z</time>
      </trkpt>
      <trkpt lat="48.71207" lon="1.90283">
        <ele>171.2</ele>
        <time>2026-01-13T09:54:13Z</time>
      </trkpt>
      <trkpt lat="48.71211" lon="1.90276">
        <ele>171.2</ele>
        <time>2026-01-13T09:54:14Z</time>
      </trkpt>
      <trkpt lat="48.71214" lon="1.90269">
        <ele>171.2</ele>
        <time>2026-01-13T09:54:15Z</time>
      </trkpt>
      <trkpt lat="48.71217" lon="1.90262">
        <ele>171.8</ele>
        <time>2026-01-13T09:54:16Z</time>
      </trkpt>
      <trkpt lat="48.7122" lon="1.90254">
        <ele>171.8</ele>
        <time>2026-01-13T09:54:17Z</time>
      </trkpt>
      <trkpt lat="48.71223" lon="1.90245">
        <ele>171.8</ele>
        <time>2026-01-13T09:54:18Z</time>
      </trkpt>
      <trkpt lat="48.71226" lon="1.90235">
        <ele>171.6</ele>
        <time>2026-01-13T09:54:19Z</time>
      </trkpt>
      <trkpt lat="48.71229" lon="1.90225">
        <ele>171.2</ele>
        <time>2026-01-13T09:54:20Z</time>
      </trkpt>
      <trkpt lat="48.71231" lon="1.90214">
        <ele>171</ele>
        <time>2026-01-13T09:54:21Z</time>
      </trkpt>
      <trkpt lat="48.71234" lon="1.90203">
        <ele>171</ele>
        <time>2026-01-13T09:54:22Z</time>
      </trkpt>
      <trkpt lat="48.71236" lon="1.90193">
        <ele>171</ele>
        <time>2026-01-13T09:54:23Z</time>
      </trkpt>
      <trkpt lat="48.71238" lon="1.90183">
        <ele>171</ele>
        <time>2026-01-13T09:54:24Z</time>
      </trkpt>
      <trkpt lat="48.7124" lon="1.90172">
        <ele>171</ele>
        <time>2026-01-13T09:54:25Z</time>
      </trkpt>
      <trkpt lat="48.71242" lon="1.90161">
        <ele>171</ele>
        <time>2026-01-13T09:54:26Z</time>
      </trkpt>
      <trkpt lat="48.71244" lon="1.9015">
        <ele>171</ele>
        <time>2026-01-13T09:54:27Z</time>
      </trkpt>
      <trkpt lat="48.71246" lon="1.90139">
        <ele>171</ele>
        <time>2026-01-13T09:54:28Z</time>
      </trkpt>
      <trkpt lat="48.71248" lon="1.90128">
        <ele>171</ele>
        <time>2026-01-13T09:54:29Z</time>
      </trkpt>
      <trkpt lat="48.71249" lon="1.90117">
        <ele>171</ele>
        <time>2026-01-13T09:54:30Z</time>
      </trkpt>
      <trkpt lat="48.71251" lon="1.90106">
        <ele>171</ele>
        <time>2026-01-13T09:54:31Z</time>
      </trkpt>
      <trkpt lat="48.71252" lon="1.90095">
        <ele>171</ele>
        <time>2026-01-13T09:54:32Z</time>
      </trkpt>
      <trkpt lat="48.71254" lon="1.90084">
        <ele>171</ele>
        <time>2026-01-13T09:54:33Z</time>
      </trkpt>
      <trkpt lat="48.71255" lon="1.90073">
        <ele>170.4</ele>
        <time>2026-01-13T09:54:34Z</time>
      </trkpt>
      <trkpt lat="48.71256" lon="1.90061">
        <ele>170.4</ele>
        <time>2026-01-13T09:54:35Z</time>
      </trkpt>
      <trkpt lat="48.71257" lon="1.90051">
        <ele>170.4</ele>
        <time>2026-01-13T09:54:36Z</time>
      </trkpt>
      <trkpt lat="48.71259" lon="1.9004">
        <ele>170.8</ele>
        <time>2026-01-13T09:54:37Z</time>
      </trkpt>
      <trkpt lat="48.7126" lon="1.9003">
        <ele>171</ele>
        <time>2026-01-13T09:54:38Z</time>
      </trkpt>
      <trkpt lat="48.71262" lon="1.9002">
        <ele>171.2</ele>
        <time>2026-01-13T09:54:39Z</time>
      </trkpt>
      <trkpt lat="48.71263" lon="1.9001">
        <ele>171.2</ele>
        <time>2026-01-13T09:54:40Z</time>
      </trkpt>
      <trkpt lat="48.71264" lon="1.89999">
        <ele>171.2</ele>
        <time>2026-01-13T09:54:41Z</time>
      </trkpt>
      <trkpt lat="48.71265" lon="1.89989">
        <ele>171.2</ele>
        <time>2026-01-13T09:54:42Z</time>
      </trkpt>
      <trkpt lat="48.71266" lon="1.89979">
        <ele>171.2</ele>
        <time>2026-01-13T09:54:43Z</time>
      </trkpt>
      <trkpt lat="48.71267" lon="1.89968">
        <ele>171.2</ele>
        <time>2026-01-13T09:54:44Z</time>
      </trkpt>
      <trkpt lat="48.71268" lon="1.89958">
        <ele>171</ele>
        <time>2026-01-13T09:54:45Z</time>
      </trkpt>
      <trkpt lat="48.71269" lon="1.89947">
        <ele>170.4</ele>
        <time>2026-01-13T09:54:46Z</time>
      </trkpt>
      <trkpt lat="48.7127" lon="1.89936">
        <ele>170.4</ele>
        <time>2026-01-13T09:54:47Z</time>
      </trkpt>
      <trkpt lat="48.7127" lon="1.89926">
        <ele>170.4</ele>
        <time>2026-01-13T09:54:48Z</time>
      </trkpt>
      <trkpt lat="48.71271" lon="1.89915">
        <ele>170.4</ele>
        <time>2026-01-13T09:54:49Z</time>
      </trkpt>
      <trkpt lat="48.71272" lon="1.89904">
        <ele>170.4</ele>
        <time>2026-01-13T09:54:50Z</time>
      </trkpt>
      <trkpt lat="48.71274" lon="1.89894">
        <ele>170.4</ele>
        <time>2026-01-13T09:54:51Z</time>
      </trkpt>
      <trkpt lat="48.71275" lon="1.89883">
        <ele>170.4</ele>
        <time>2026-01-13T09:54:52Z</time>
      </trkpt>
      <trkpt lat="48.71276" lon="1.89873">
        <ele>170.4</ele>
        <time>2026-01-13T09:54:53Z</time>
      </trkpt>
      <trkpt lat="48.71277" lon="1.89863">
        <ele>170.4</ele>
        <time>2026-01-13T09:54:54Z</time>
      </trkpt>
      <trkpt lat="48.71279" lon="1.89852">
        <ele>170.2</ele>
        <time>2026-01-13T09:54:55Z</time>
      </trkpt>
      <trkpt lat="48.7128" lon="1.89842">
        <ele>170.2</ele>
        <time>2026-01-13T09:54:56Z</time>
      </trkpt>
      <trkpt lat="48.71281" lon="1.89831">
        <ele>170.2</ele>
        <time>2026-01-13T09:54:57Z</time>
      </trkpt>
      <trkpt lat="48.71283" lon="1.89821">
        <ele>170.2</ele>
        <time>2026-01-13T09:54:58Z</time>
      </trkpt>
      <trkpt lat="48.71285" lon="1.8981">
        <ele>169.6</ele>
        <time>2026-01-13T09:54:59Z</time>
      </trkpt>
      <trkpt lat="48.71286" lon="1.89799">
        <ele>169.6</ele>
        <time>2026-01-13T09:55:00Z</time>
      </trkpt>
      <trkpt lat="48.71288" lon="1.89789">
        <ele>169.6</ele>
        <time>2026-01-13T09:55:01Z</time>
      </trkpt>
      <trkpt lat="48.7129" lon="1.89778">
        <ele>169.6</ele>
        <time>2026-01-13T09:55:02Z</time>
      </trkpt>
      <trkpt lat="48.71292" lon="1.89768">
        <ele>169</ele>
        <time>2026-01-13T09:55:03Z</time>
      </trkpt>
      <trkpt lat="48.71294" lon="1.89757">
        <ele>169</ele>
        <time>2026-01-13T09:55:04Z</time>
      </trkpt>
      <trkpt lat="48.71296" lon="1.89747">
        <ele>169</ele>
        <time>2026-01-13T09:55:05Z</time>
      </trkpt>
      <trkpt lat="48.71298" lon="1.89736">
        <ele>169</ele>
        <time>2026-01-13T09:55:06Z</time>
      </trkpt>
      <trkpt lat="48.713" lon="1.89725">
        <ele>169</ele>
        <time>2026-01-13T09:55:07Z</time>
      </trkpt>
      <trkpt lat="48.71302" lon="1.89715">
        <ele>169</ele>
        <time>2026-01-13T09:55:08Z</time>
      </trkpt>
      <trkpt lat="48.71305" lon="1.89705">
        <ele>169</ele>
        <time>2026-01-13T09:55:09Z</time>
      </trkpt>
      <trkpt lat="48.71309" lon="1.89696">
        <ele>169</ele>
        <time>2026-01-13T09:55:10Z</time>
      </trkpt>
      <trkpt lat="48.71312" lon="1.89688">
        <ele>169</ele>
        <time>2026-01-13T09:55:11Z</time>
      </trkpt>
      <trkpt lat="48.71316" lon="1.89679">
        <ele>169</ele>
        <time>2026-01-13T09:55:12Z</time>
      </trkpt>
      <trkpt lat="48.7132" lon="1.89671">
        <ele>169</ele>
        <time>2026-01-13T09:55:13Z</time>
      </trkpt>
      <trkpt lat="48.71324" lon="1.89663">
        <ele>169</ele>
        <time>2026-01-13T09:55:14Z</time>
      </trkpt>
      <trkpt lat="48.71329" lon="1.89657">
        <ele>168.2</ele>
        <time>2026-01-13T09:55:15Z</time>
      </trkpt>
      <trkpt lat="48.71335" lon="1.8965">
        <ele>167.6</ele>
        <time>2026-01-13T09:55:16Z</time>
      </trkpt>
      <trkpt lat="48.7134" lon="1.89643">
        <ele>167.2</ele>
        <time>2026-01-13T09:55:17Z</time>
      </trkpt>
      <trkpt lat="48.71345" lon="1.89636">
        <ele>166.4</ele>
        <time>2026-01-13T09:55:18Z</time>
      </trkpt>
      <trkpt lat="48.71352" lon="1.89631">
        <ele>165.8</ele>
        <time>2026-01-13T09:55:19Z</time>
      </trkpt>
      <trkpt lat="48.71359" lon="1.89626">
        <ele>165.8</ele>
        <time>2026-01-13T09:55:20Z</time>
      </trkpt>
      <trkpt lat="48.71366" lon="1.89623">
        <ele>165.8</ele>
        <time>2026-01-13T09:55:21Z</time>
      </trkpt>
      <trkpt lat="48.71373" lon="1.8962">
        <ele>165.8</ele>
        <time>2026-01-13T09:55:22Z</time>
      </trkpt>
      <trkpt lat="48.7138" lon="1.89617">
        <ele>165.8</ele>
        <time>2026-01-13T09:55:23Z</time>
      </trkpt>
      <trkpt lat="48.71387" lon="1.89612">
        <ele>165.8</ele>
        <time>2026-01-13T09:55:24Z</time>
      </trkpt>
      <trkpt lat="48.71394" lon="1.89607">
        <ele>164.8</ele>
        <time>2026-01-13T09:55:25Z</time>
      </trkpt>
      <trkpt lat="48.71401" lon="1.89602">
        <ele>164</ele>
        <time>2026-01-13T09:55:26Z</time>
      </trkpt>
      <trkpt lat="48.71408" lon="1.89599">
        <ele>164</ele>
        <time>2026-01-13T09:55:27Z</time>
      </trkpt>
      <trkpt lat="48.71416" lon="1.89599">
        <ele>164</ele>
        <time>2026-01-13T09:55:28Z</time>
      </trkpt>
      <trkpt lat="48.71424" lon="1.89599">
        <ele>164</ele>
        <time>2026-01-13T09:55:29Z</time>
      </trkpt>
      <trkpt lat="48.71431" lon="1.89601">
        <ele>164</ele>
        <time>2026-01-13T09:55:30Z</time>
      </trkpt>
      <trkpt lat="48.71439" lon="1.89602">
        <ele>164</ele>
        <time>2026-01-13T09:55:31Z</time>
      </trkpt>
      <trkpt lat="48.71447" lon="1.89603">
        <ele>164</ele>
        <time>2026-01-13T09:55:32Z</time>
      </trkpt>
      <trkpt lat="48.71454" lon="1.89604">
        <ele>164.2</ele>
        <time>2026-01-13T09:55:33Z</time>
      </trkpt>
      <trkpt lat="48.71462" lon="1.89605">
        <ele>164.2</ele>
        <time>2026-01-13T09:55:34Z</time>
      </trkpt>
      <trkpt lat="48.71469" lon="1.89606">
        <ele>164.2</ele>
        <time>2026-01-13T09:55:35Z</time>
      </trkpt>
      <trkpt lat="48.71476" lon="1.89605">
        <ele>164.2</ele>
        <time>2026-01-13T09:55:36Z</time>
      </trkpt>
      <trkpt lat="48.71483" lon="1.89605">
        <ele>165</ele>
        <time>2026-01-13T09:55:37Z</time>
      </trkpt>
      <trkpt lat="48.71489" lon="1.89602">
        <ele>165.4</ele>
        <time>2026-01-13T09:55:38Z</time>
      </trkpt>
      <trkpt lat="48.71495" lon="1.89599">
        <ele>165.8</ele>
        <time>2026-01-13T09:55:39Z</time>
      </trkpt>
      <trkpt lat="48.71501" lon="1.89596">
        <ele>166.2</ele>
        <time>2026-01-13T09:55:40Z</time>
      </trkpt>
      <trkpt lat="48.71506" lon="1.89592">
        <ele>166.2</ele>
        <time>2026-01-13T09:55:41Z</time>
      </trkpt>
      <trkpt lat="48.71511" lon="1.89588">
        <ele>166.2</ele>
        <time>2026-01-13T09:55:42Z</time>
      </trkpt>
      <trkpt lat="48.71516" lon="1.89585">
        <ele>166.2</ele>
        <time>2026-01-13T09:55:43Z</time>
      </trkpt>
      <trkpt lat="48.71521" lon="1.89582">
        <ele>166.2</ele>
        <time>2026-01-13T09:55:44Z</time>
      </trkpt>
      <trkpt lat="48.71526" lon="1.89581">
        <ele>167.2</ele>
        <time>2026-01-13T09:55:45Z</time>
      </trkpt>
      <trkpt lat="48.7153" lon="1.89581">
        <ele>168.2</ele>
        <time>2026-01-13T09:55:46Z</time>
      </trkpt>
      <trkpt lat="48.71534" lon="1.89581">
        <ele>169</ele>
        <time>2026-01-13T09:55:47Z</time>
      </trkpt>
      <trkpt lat="48.71539" lon="1.89581">
        <ele>169</ele>
        <time>2026-01-13T09:55:48Z</time>
      </trkpt>
      <trkpt lat="48.71543" lon="1.89581">
        <ele>169</ele>
        <time>2026-01-13T09:55:49Z</time>
      </trkpt>
      <trkpt lat="48.71547" lon="1.89581">
        <ele>169</ele>
        <time>2026-01-13T09:55:50Z</time>
      </trkpt>
      <trkpt lat="48.71552" lon="1.8958">
        <ele>169</ele>
        <time>2026-01-13T09:55:51Z</time>
      </trkpt>
      <trkpt lat="48.71557" lon="1.8958">
        <ele>169</ele>
        <time>2026-01-13T09:55:52Z</time>
      </trkpt>
      <trkpt lat="48.71562" lon="1.89579">
        <ele>169.8</ele>
        <time>2026-01-13T09:55:53Z</time>
      </trkpt>
      <trkpt lat="48.71567" lon="1.89578">
        <ele>170</ele>
        <time>2026-01-13T09:55:54Z</time>
      </trkpt>
      <trkpt lat="48.71573" lon="1.89578">
        <ele>170.4</ele>
        <time>2026-01-13T09:55:55Z</time>
      </trkpt>
      <trkpt lat="48.71578" lon="1.89578">
        <ele>170.4</ele>
        <time>2026-01-13T09:55:56Z</time>
      </trkpt>
      <trkpt lat="48.71584" lon="1.89579">
        <ele>170.4</ele>
        <time>2026-01-13T09:55:57Z</time>
      </trkpt>
      <trkpt lat="48.71589" lon="1.89579">
        <ele>170.4</ele>
        <time>2026-01-13T09:55:58Z</time>
      </trkpt>
      <trkpt lat="48.71594" lon="1.8958">
        <ele>170.4</ele>
        <time>2026-01-13T09:55:59Z</time>
      </trkpt>
      <trkpt lat="48.71599" lon="1.89581">
        <ele>171.4</ele>
        <time>2026-01-13T09:56:00Z</time>
      </trkpt>
      <trkpt lat="48.71604" lon="1.89581">
        <ele>171.4</ele>
        <time>2026-01-13T09:56:01Z</time>
      </trkpt>
      <trkpt lat="48.71609" lon="1.89582">
        <ele>171.4</ele>
        <time>2026-01-13T09:56:02Z</time>
      </trkpt>
      <trkpt lat="48.71614" lon="1.89583">
        <ele>171.4</ele>
        <time>2026-01-13T09:56:03Z</time>
      </trkpt>
      <trkpt lat="48.71619" lon="1.89584">
        <ele>171.4</ele>
        <time>2026-01-13T09:56:04Z</time>
      </trkpt>
      <trkpt lat="48.71624" lon="1.89585">
        <ele>171.8</ele>
        <time>2026-01-13T09:56:05Z</time>
      </trkpt>
      <trkpt lat="48.71629" lon="1.89585">
        <ele>172</ele>
        <time>2026-01-13T09:56:06Z</time>
      </trkpt>
      <trkpt lat="48.71634" lon="1.89586">
        <ele>172.2</ele>
        <time>2026-01-13T09:56:07Z</time>
      </trkpt>
      <trkpt lat="48.71639" lon="1.89587">
        <ele>172.2</ele>
        <time>2026-01-13T09:56:08Z</time>
      </trkpt>
      <trkpt lat="48.71644" lon="1.89588">
        <ele>172.2</ele>
        <time>2026-01-13T09:56:09Z</time>
      </trkpt>
      <trkpt lat="48.71649" lon="1.8959">
        <ele>172.2</ele>
        <time>2026-01-13T09:56:10Z</time>
      </trkpt>
      <trkpt lat="48.71654" lon="1.89591">
        <ele>172.2</ele>
        <time>2026-01-13T09:56:11Z</time>
      </trkpt>
      <trkpt lat="48.7166" lon="1.89592">
        <ele>172.2</ele>
        <time>2026-01-13T09:56:12Z</time>
      </trkpt>
      <trkpt lat="48.71665" lon="1.89593">
        <ele>172.4</ele>
        <time>2026-01-13T09:56:13Z</time>
      </trkpt>
      <trkpt lat="48.7167" lon="1.89595">
        <ele>172.8</ele>
        <time>2026-01-13T09:56:14Z</time>
      </trkpt>
      <trkpt lat="48.71676" lon="1.89596">
        <ele>172.8</ele>
        <time>2026-01-13T09:56:15Z</time>
      </trkpt>
      <trkpt lat="48.71681" lon="1.89597">
        <ele>172.8</ele>
        <time>2026-01-13T09:56:16Z</time>
      </trkpt>
      <trkpt lat="48.71686" lon="1.89599">
        <ele>172.8</ele>
        <time>2026-01-13T09:56:17Z</time>
      </trkpt>
      <trkpt lat="48.71692" lon="1.896">
        <ele>172.8</ele>
        <time>2026-01-13T09:56:18Z</time>
      </trkpt>
      <trkpt lat="48.71697" lon="1.89602">
        <ele>172.8</ele>
        <time>2026-01-13T09:56:19Z</time>
      </trkpt>
      <trkpt lat="48.71702" lon="1.89603">
        <ele>172.8</ele>
        <time>2026-01-13T09:56:20Z</time>
      </trkpt>
      <trkpt lat="48.71708" lon="1.89604">
        <ele>172.8</ele>
        <time>2026-01-13T09:56:21Z</time>
      </trkpt>
      <trkpt lat="48.71713" lon="1.89606">
        <ele>172.8</ele>
        <time>2026-01-13T09:56:22Z</time>
      </trkpt>
      <trkpt lat="48.71718" lon="1.89607">
        <ele>173</ele>
        <time>2026-01-13T09:56:23Z</time>
      </trkpt>
      <trkpt lat="48.71723" lon="1.89609">
        <ele>173.4</ele>
        <time>2026-01-13T09:56:24Z</time>
      </trkpt>
      <trkpt lat="48.71729" lon="1.89611">
        <ele>173.4</ele>
        <time>2026-01-13T09:56:25Z</time>
      </trkpt>
      <trkpt lat="48.71734" lon="1.89612">
        <ele>173.4</ele>
        <time>2026-01-13T09:56:26Z</time>
      </trkpt>
      <trkpt lat="48.71739" lon="1.89614">
        <ele>173.4</ele>
        <time>2026-01-13T09:56:27Z</time>
      </trkpt>
      <trkpt lat="48.71744" lon="1.89616">
        <ele>173.4</ele>
        <time>2026-01-13T09:56:28Z</time>
      </trkpt>
      <trkpt lat="48.7175" lon="1.89618">
        <ele>173.4</ele>
        <time>2026-01-13T09:56:29Z</time>
      </trkpt>
      <trkpt lat="48.71755" lon="1.8962">
        <ele>173.4</ele>
        <time>2026-01-13T09:56:30Z</time>
      </trkpt>
      <trkpt lat="48.7176" lon="1.89621">
        <ele>174</ele>
        <time>2026-01-13T09:56:31Z</time>
      </trkpt>
      <trkpt lat="48.71766" lon="1.89623">
        <ele>174</ele>
        <time>2026-01-13T09:56:32Z</time>
      </trkpt>
      <trkpt lat="48.71771" lon="1.89624">
        <ele>174</ele>
        <time>2026-01-13T09:56:33Z</time>
      </trkpt>
      <trkpt lat="48.71777" lon="1.89626">
        <ele>174</ele>
        <time>2026-01-13T09:56:34Z</time>
      </trkpt>
      <trkpt lat="48.71782" lon="1.89627">
        <ele>174</ele>
        <time>2026-01-13T09:56:35Z</time>
      </trkpt>
      <trkpt lat="48.71788" lon="1.89629">
        <ele>174</ele>
        <time>2026-01-13T09:56:36Z</time>
      </trkpt>
      <trkpt lat="48.71793" lon="1.8963">
        <ele>173.4</ele>
        <time>2026-01-13T09:56:37Z</time>
      </trkpt>
      <trkpt lat="48.71799" lon="1.89631">
        <ele>173.4</ele>
        <time>2026-01-13T09:56:38Z</time>
      </trkpt>
      <trkpt lat="48.71804" lon="1.89632">
        <ele>173.4</ele>
        <time>2026-01-13T09:56:39Z</time>
      </trkpt>
      <trkpt lat="48.71809" lon="1.89633">
        <ele>173.8</ele>
        <time>2026-01-13T09:56:40Z</time>
      </trkpt>
      <trkpt lat="48.71814" lon="1.89634">
        <ele>174.2</ele>
        <time>2026-01-13T09:56:41Z</time>
      </trkpt>
      <trkpt lat="48.7182" lon="1.89635">
        <ele>174.6</ele>
        <time>2026-01-13T09:56:42Z</time>
      </trkpt>
      <trkpt lat="48.71825" lon="1.89637">
        <ele>174.6</ele>
        <time>2026-01-13T09:56:43Z</time>
      </trkpt>
      <trkpt lat="48.7183" lon="1.89638">
        <ele>174.6</ele>
        <time>2026-01-13T09:56:44Z</time>
      </trkpt>
      <trkpt lat="48.71835" lon="1.89639">
        <ele>174.6</ele>
        <time>2026-01-13T09:56:45Z</time>
      </trkpt>
      <trkpt lat="48.71841" lon="1.8964">
        <ele>174.6</ele>
        <time>2026-01-13T09:56:46Z</time>
      </trkpt>
      <trkpt lat="48.71846" lon="1.89641">
        <ele>174.6</ele>
        <time>2026-01-13T09:56:47Z</time>
      </trkpt>
      <trkpt lat="48.71851" lon="1.89644">
        <ele>174.8</ele>
        <time>2026-01-13T09:56:48Z</time>
      </trkpt>
      <trkpt lat="48.71855" lon="1.89646">
        <ele>174.8</ele>
        <time>2026-01-13T09:56:49Z</time>
      </trkpt>
      <trkpt lat="48.71858" lon="1.8965">
        <ele>174.8</ele>
        <time>2026-01-13T09:56:50Z</time>
      </trkpt>
      <trkpt lat="48.7186" lon="1.89654">
        <ele>174.8</ele>
        <time>2026-01-13T09:56:51Z</time>
      </trkpt>
      <trkpt lat="48.71861" lon="1.89658">
        <ele>174.8</ele>
        <time>2026-01-13T09:56:52Z</time>
      </trkpt>
      <trkpt lat="48.7186" lon="1.89663">
        <ele>174.8</ele>
        <time>2026-01-13T09:56:53Z</time>
      </trkpt>
      <trkpt lat="48.71859" lon="1.89668">
        <ele>174.4</ele>
        <time>2026-01-13T09:56:54Z</time>
      </trkpt>
      <trkpt lat="48.71857" lon="1.89674">
        <ele>174.4</ele>
        <time>2026-01-13T09:56:55Z</time>
      </trkpt>
      <trkpt lat="48.71855" lon="1.8968">
        <ele>174.4</ele>
        <time>2026-01-13T09:56:56Z</time>
      </trkpt>
      <trkpt lat="48.71853" lon="1.89686">
        <ele>174.4</ele>
        <time>2026-01-13T09:56:57Z</time>
      </trkpt>
      <trkpt lat="48.71851" lon="1.89692">
        <ele>174</ele>
        <time>2026-01-13T09:56:58Z</time>
      </trkpt>
      <trkpt lat="48.71849" lon="1.89699">
        <ele>174</ele>
        <time>2026-01-13T09:56:59Z</time>
      </trkpt>
      <trkpt lat="48.71847" lon="1.89706">
        <ele>174</ele>
        <time>2026-01-13T09:57:00Z</time>
      </trkpt>
      <trkpt lat="48.71846" lon="1.89713">
        <ele>174</ele>
        <time>2026-01-13T09:57:01Z</time>
      </trkpt>
      <trkpt lat="48.71844" lon="1.8972">
        <ele>173.2</ele>
        <time>2026-01-13T09:57:02Z</time>
      </trkpt>
      <trkpt lat="48.71842" lon="1.89727">
        <ele>173.2</ele>
        <time>2026-01-13T09:57:03Z</time>
      </trkpt>
      <trkpt lat="48.7184" lon="1.89734">
        <ele>173.2</ele>
        <time>2026-01-13T09:57:04Z</time>
      </trkpt>
      <trkpt lat="48.71839" lon="1.89742">
        <ele>173.6</ele>
        <time>2026-01-13T09:57:05Z</time>
      </trkpt>
      <trkpt lat="48.71837" lon="1.89749">
        <ele>174</ele>
        <time>2026-01-13T09:57:06Z</time>
      </trkpt>
      <trkpt lat="48.71835" lon="1.89757">
        <ele>174</ele>
        <time>2026-01-13T09:57:07Z</time>
      </trkpt>
      <trkpt lat="48.71834" lon="1.89766">
        <ele>174</ele>
        <time>2026-01-13T09:57:08Z</time>
      </trkpt>
      <trkpt lat="48.71832" lon="1.89774">
        <ele>173</ele>
        <time>2026-01-13T09:57:09Z</time>
      </trkpt>
      <trkpt lat="48.71831" lon="1.89782">
        <ele>173</ele>
        <time>2026-01-13T09:57:10Z</time>
      </trkpt>
      <trkpt lat="48.7183" lon="1.8979">
        <ele>173</ele>
        <time>2026-01-13T09:57:11Z</time>
      </trkpt>
      <trkpt lat="48.71829" lon="1.89798">
        <ele>173</ele>
        <time>2026-01-13T09:57:12Z</time>
      </trkpt>
      <trkpt lat="48.71829" lon="1.89807">
        <ele>173</ele>
        <time>2026-01-13T09:57:13Z</time>
      </trkpt>
      <trkpt lat="48.71828" lon="1.89816">
        <ele>173</ele>
        <time>2026-01-13T09:57:14Z</time>
      </trkpt>
      <trkpt lat="48.71828" lon="1.89824">
        <ele>173</ele>
        <time>2026-01-13T09:57:15Z</time>
      </trkpt>
      <trkpt lat="48.71828" lon="1.89834">
        <ele>173</ele>
        <time>2026-01-13T09:57:16Z</time>
      </trkpt>
      <trkpt lat="48.71829" lon="1.89843">
        <ele>172.6</ele>
        <time>2026-01-13T09:57:17Z</time>
      </trkpt>
      <trkpt lat="48.71829" lon="1.89852">
        <ele>172.6</ele>
        <time>2026-01-13T09:57:18Z</time>
      </trkpt>
      <trkpt lat="48.7183" lon="1.89861">
        <ele>172.6</ele>
        <time>2026-01-13T09:57:19Z</time>
      </trkpt>
      <trkpt lat="48.71831" lon="1.89871">
        <ele>172.6</ele>
        <time>2026-01-13T09:57:20Z</time>
      </trkpt>
      <trkpt lat="48.71833" lon="1.8988">
        <ele>172.6</ele>
        <time>2026-01-13T09:57:21Z</time>
      </trkpt>
      <trkpt lat="48.71835" lon="1.8989">
        <ele>172.6</ele>
        <time>2026-01-13T09:57:22Z</time>
      </trkpt>
      <trkpt lat="48.71836" lon="1.899">
        <ele>171.6</ele>
        <time>2026-01-13T09:57:23Z</time>
      </trkpt>
      <trkpt lat="48.71838" lon="1.8991">
        <ele>171.2</ele>
        <time>2026-01-13T09:57:24Z</time>
      </trkpt>
      <trkpt lat="48.7184" lon="1.8992">
        <ele>171.2</ele>
        <time>2026-01-13T09:57:25Z</time>
      </trkpt>
      <trkpt lat="48.71842" lon="1.8993">
        <ele>170.6</ele>
        <time>2026-01-13T09:57:26Z</time>
      </trkpt>
      <trkpt lat="48.71844" lon="1.8994">
        <ele>170.4</ele>
        <time>2026-01-13T09:57:27Z</time>
      </trkpt>
      <trkpt lat="48.71846" lon="1.8995">
        <ele>170.4</ele>
        <time>2026-01-13T09:57:28Z</time>
      </trkpt>
      <trkpt lat="48.71848" lon="1.89961">
        <ele>170.4</ele>
        <time>2026-01-13T09:57:29Z</time>
      </trkpt>
      <trkpt lat="48.7185" lon="1.89972">
        <ele>170.4</ele>
        <time>2026-01-13T09:57:30Z</time>
      </trkpt>
      <trkpt lat="48.71852" lon="1.89983">
        <ele>169.4</ele>
        <time>2026-01-13T09:57:31Z</time>
      </trkpt>
      <trkpt lat="48.71854" lon="1.89993">
        <ele>169</ele>
        <time>2026-01-13T09:57:32Z</time>
      </trkpt>
      <trkpt lat="48.71856" lon="1.90004">
        <ele>169</ele>
        <time>2026-01-13T09:57:33Z</time>
      </trkpt>
      <trkpt lat="48.71859" lon="1.90015">
        <ele>169</ele>
        <time>2026-01-13T09:57:34Z</time>
      </trkpt>
      <trkpt lat="48.71861" lon="1.90026">
        <ele>169.2</ele>
        <time>2026-01-13T09:57:35Z</time>
      </trkpt>
      <trkpt lat="48.71863" lon="1.90037">
        <ele>169.2</ele>
        <time>2026-01-13T09:57:36Z</time>
      </trkpt>
      <trkpt lat="48.71865" lon="1.90048">
        <ele>169.2</ele>
        <time>2026-01-13T09:57:37Z</time>
      </trkpt>
      <trkpt lat="48.71867" lon="1.90059">
        <ele>168.2</ele>
        <time>2026-01-13T09:57:38Z</time>
      </trkpt>
      <trkpt lat="48.71869" lon="1.90071">
        <ele>168.2</ele>
        <time>2026-01-13T09:57:39Z</time>
      </trkpt>
      <trkpt lat="48.71871" lon="1.90082">
        <ele>168.2</ele>
        <time>2026-01-13T09:57:40Z</time>
      </trkpt>
      <trkpt lat="48.71874" lon="1.90093">
        <ele>168.2</ele>
        <time>2026-01-13T09:57:41Z</time>
      </trkpt>
      <trkpt lat="48.71876" lon="1.90105">
        <ele>167.6</ele>
        <time>2026-01-13T09:57:42Z</time>
      </trkpt>
      <trkpt lat="48.71879" lon="1.90116">
        <ele>167</ele>
        <time>2026-01-13T09:57:43Z</time>
      </trkpt>
      <trkpt lat="48.71881" lon="1.90127">
        <ele>167</ele>
        <time>2026-01-13T09:57:44Z</time>
      </trkpt>
      <trkpt lat="48.71883" lon="1.90138">
        <ele>167</ele>
        <time>2026-01-13T09:57:45Z</time>
      </trkpt>
      <trkpt lat="48.71885" lon="1.9015">
        <ele>167</ele>
        <time>2026-01-13T09:57:46Z</time>
      </trkpt>
      <trkpt lat="48.71888" lon="1.90161">
        <ele>167</ele>
        <time>2026-01-13T09:57:47Z</time>
      </trkpt>
      <trkpt lat="48.7189" lon="1.90172">
        <ele>167</ele>
        <time>2026-01-13T09:57:48Z</time>
      </trkpt>
      <trkpt lat="48.71892" lon="1.90184">
        <ele>166</ele>
        <time>2026-01-13T09:57:49Z</time>
      </trkpt>
      <trkpt lat="48.71895" lon="1.90195">
        <ele>165.4</ele>
        <time>2026-01-13T09:57:50Z</time>
      </trkpt>
      <trkpt lat="48.71896" lon="1.90207">
        <ele>165</ele>
        <time>2026-01-13T09:57:51Z</time>
      </trkpt>
      <trkpt lat="48.71898" lon="1.90218">
        <ele>165</ele>
        <time>2026-01-13T09:57:52Z</time>
      </trkpt>
      <trkpt lat="48.71901" lon="1.9023">
        <ele>165</ele>
        <time>2026-01-13T09:57:53Z</time>
      </trkpt>
      <trkpt lat="48.71903" lon="1.90241">
        <ele>165</ele>
        <time>2026-01-13T09:57:54Z</time>
      </trkpt>
      <trkpt lat="48.71905" lon="1.90253">
        <ele>164.8</ele>
        <time>2026-01-13T09:57:55Z</time>
      </trkpt>
      <trkpt lat="48.71907" lon="1.90264">
        <ele>164.4</ele>
        <time>2026-01-13T09:57:56Z</time>
      </trkpt>
      <trkpt lat="48.71909" lon="1.90276">
        <ele>164</ele>
        <time>2026-01-13T09:57:57Z</time>
      </trkpt>
      <trkpt lat="48.7191" lon="1.90287">
        <ele>164</ele>
        <time>2026-01-13T09:57:58Z</time>
      </trkpt>
      <trkpt lat="48.71911" lon="1.90299">
        <ele>164</ele>
        <time>2026-01-13T09:57:59Z</time>
      </trkpt>
      <trkpt lat="48.71913" lon="1.90311">
        <ele>164</ele>
        <time>2026-01-13T09:58:00Z</time>
      </trkpt>
      <trkpt lat="48.71916" lon="1.90323">
        <ele>163</ele>
        <time>2026-01-13T09:58:01Z</time>
      </trkpt>
      <trkpt lat="48.71918" lon="1.90335">
        <ele>162.6</ele>
        <time>2026-01-13T09:58:02Z</time>
      </trkpt>
      <trkpt lat="48.71921" lon="1.90347">
        <ele>161.6</ele>
        <time>2026-01-13T09:58:03Z</time>
      </trkpt>
      <trkpt lat="48.71923" lon="1.9036">
        <ele>161.2</ele>
        <time>2026-01-13T09:58:04Z</time>
      </trkpt>
      <trkpt lat="48.71926" lon="1.90372">
        <ele>161.2</ele>
        <time>2026-01-13T09:58:05Z</time>
      </trkpt>
      <trkpt lat="48.71928" lon="1.90384">
        <ele>161.2</ele>
        <time>2026-01-13T09:58:06Z</time>
      </trkpt>
      <trkpt lat="48.71931" lon="1.90396">
        <ele>161.2</ele>
        <time>2026-01-13T09:58:07Z</time>
      </trkpt>
      <trkpt lat="48.71936" lon="1.90407">
        <ele>160.2</ele>
        <time>2026-01-13T09:58:08Z</time>
      </trkpt>
      <trkpt lat="48.71942" lon="1.90416">
        <ele>160.2</ele>
        <time>2026-01-13T09:58:09Z</time>
      </trkpt>
      <trkpt lat="48.71948" lon="1.90424">
        <ele>160.2</ele>
        <time>2026-01-13T09:58:10Z</time>
      </trkpt>
      <trkpt lat="48.71954" lon="1.90433">
        <ele>160.2</ele>
        <time>2026-01-13T09:58:11Z</time>
      </trkpt>
      <trkpt lat="48.7196" lon="1.90442">
        <ele>159.2</ele>
        <time>2026-01-13T09:58:12Z</time>
      </trkpt>
      <trkpt lat="48.71967" lon="1.90451">
        <ele>158.2</ele>
        <time>2026-01-13T09:58:13Z</time>
      </trkpt>
      <trkpt lat="48.71974" lon="1.9046">
        <ele>157.2</ele>
        <time>2026-01-13T09:58:14Z</time>
      </trkpt>
      <trkpt lat="48.71981" lon="1.9047">
        <ele>156.2</ele>
        <time>2026-01-13T09:58:15Z</time>
      </trkpt>
      <trkpt lat="48.71988" lon="1.9048">
        <ele>155.2</ele>
        <time>2026-01-13T09:58:16Z</time>
      </trkpt>
      <trkpt lat="48.71994" lon="1.90489">
        <ele>154.2</ele>
        <time>2026-01-13T09:58:17Z</time>
      </trkpt>
      <trkpt lat="48.72001" lon="1.905">
        <ele>153.2</ele>
        <time>2026-01-13T09:58:18Z</time>
      </trkpt>
      <trkpt lat="48.72009" lon="1.9051">
        <ele>152.4</ele>
        <time>2026-01-13T09:58:19Z</time>
      </trkpt>
      <trkpt lat="48.72016" lon="1.90522">
        <ele>151.4</ele>
        <time>2026-01-13T09:58:20Z</time>
      </trkpt>
      <trkpt lat="48.72021" lon="1.90535">
        <ele>150.4</ele>
        <time>2026-01-13T09:58:21Z</time>
      </trkpt>
      <trkpt lat="48.72026" lon="1.90548">
        <ele>149.4</ele>
        <time>2026-01-13T09:58:22Z</time>
      </trkpt>
      <trkpt lat="48.7203" lon="1.90562">
        <ele>149.2</ele>
        <time>2026-01-13T09:58:23Z</time>
      </trkpt>
      <trkpt lat="48.72033" lon="1.90577">
        <ele>148.4</ele>
        <time>2026-01-13T09:58:24Z</time>
      </trkpt>
      <trkpt lat="48.72035" lon="1.90592">
        <ele>148.2</ele>
        <time>2026-01-13T09:58:25Z</time>
      </trkpt>
      <trkpt lat="48.72036" lon="1.90606">
        <ele>147.2</ele>
        <time>2026-01-13T09:58:26Z</time>
      </trkpt>
      <trkpt lat="48.72036" lon="1.90621">
        <ele>146.6</ele>
        <time>2026-01-13T09:58:27Z</time>
      </trkpt>
      <trkpt lat="48.72035" lon="1.90636">
        <ele>145.8</ele>
        <time>2026-01-13T09:58:28Z</time>
      </trkpt>
      <trkpt lat="48.72033" lon="1.90651">
        <ele>145</ele>
        <time>2026-01-13T09:58:29Z</time>
      </trkpt>
      <trkpt lat="48.72031" lon="1.90666">
        <ele>144.6</ele>
        <time>2026-01-13T09:58:30Z</time>
      </trkpt>
      <trkpt lat="48.72028" lon="1.90681">
        <ele>144.2</ele>
        <time>2026-01-13T09:58:31Z</time>
      </trkpt>
      <trkpt lat="48.72025" lon="1.90696">
        <ele>143.2</ele>
        <time>2026-01-13T09:58:32Z</time>
      </trkpt>
      <trkpt lat="48.72021" lon="1.90712">
        <ele>142.6</ele>
        <time>2026-01-13T09:58:33Z</time>
      </trkpt>
      <trkpt lat="48.72019" lon="1.90727">
        <ele>142</ele>
        <time>2026-01-13T09:58:34Z</time>
      </trkpt>
      <trkpt lat="48.72016" lon="1.90743">
        <ele>141.2</ele>
        <time>2026-01-13T09:58:35Z</time>
      </trkpt>
      <trkpt lat="48.72013" lon="1.90758">
        <ele>140.8</ele>
        <time>2026-01-13T09:58:36Z</time>
      </trkpt>
      <trkpt lat="48.72012" lon="1.90773">
        <ele>140.4</ele>
        <time>2026-01-13T09:58:37Z</time>
      </trkpt>
      <trkpt lat="48.7201" lon="1.90786">
        <ele>140.4</ele>
        <time>2026-01-13T09:58:38Z</time>
      </trkpt>
      <trkpt lat="48.72009" lon="1.90799">
        <ele>140.4</ele>
        <time>2026-01-13T09:58:39Z</time>
      </trkpt>
      <trkpt lat="48.72009" lon="1.90812">
        <ele>140.4</ele>
        <time>2026-01-13T09:58:40Z</time>
      </trkpt>
      <trkpt lat="48.72009" lon="1.90825">
        <ele>140.4</ele>
        <time>2026-01-13T09:58:41Z</time>
      </trkpt>
      <trkpt lat="48.72011" lon="1.90837">
        <ele>140.4</ele>
        <time>2026-01-13T09:58:42Z</time>
      </trkpt>
      <trkpt lat="48.72013" lon="1.90848">
        <ele>139.4</ele>
        <time>2026-01-13T09:58:43Z</time>
      </trkpt>
      <trkpt lat="48.72017" lon="1.9086">
        <ele>138.4</ele>
        <time>2026-01-13T09:58:44Z</time>
      </trkpt>
      <trkpt lat="48.72021" lon="1.90871">
        <ele>137.4</ele>
        <time>2026-01-13T09:58:45Z</time>
      </trkpt>
      <trkpt lat="48.72027" lon="1.90881">
        <ele>136.8</ele>
        <time>2026-01-13T09:58:46Z</time>
      </trkpt>
      <trkpt lat="48.72034" lon="1.90892">
        <ele>136</ele>
        <time>2026-01-13T09:58:47Z</time>
      </trkpt>
      <trkpt lat="48.72042" lon="1.90903">
        <ele>135.2</ele>
        <time>2026-01-13T09:58:48Z</time>
      </trkpt>
      <trkpt lat="48.72049" lon="1.90914">
        <ele>134.2</ele>
        <time>2026-01-13T09:58:49Z</time>
      </trkpt>
      <trkpt lat="48.72056" lon="1.90925">
        <ele>133.2</ele>
        <time>2026-01-13T09:58:50Z</time>
      </trkpt>
      <trkpt lat="48.72062" lon="1.90937">
        <ele>132.2</ele>
        <time>2026-01-13T09:58:51Z</time>
      </trkpt>
      <trkpt lat="48.72067" lon="1.90949">
        <ele>131.6</ele>
        <time>2026-01-13T09:58:52Z</time>
      </trkpt>
      <trkpt lat="48.72073" lon="1.90961">
        <ele>130.6</ele>
        <time>2026-01-13T09:58:53Z</time>
      </trkpt>
      <trkpt lat="48.72077" lon="1.90974">
        <ele>129.6</ele>
        <time>2026-01-13T09:58:54Z</time>
      </trkpt>
      <trkpt lat="48.7208" lon="1.90987">
        <ele>129.4</ele>
        <time>2026-01-13T09:58:55Z</time>
      </trkpt>
      <trkpt lat="48.72084" lon="1.91001">
        <ele>129</ele>
        <time>2026-01-13T09:58:56Z</time>
      </trkpt>
      <trkpt lat="48.72086" lon="1.91015">
        <ele>129</ele>
        <time>2026-01-13T09:58:57Z</time>
      </trkpt>
      <trkpt lat="48.72088" lon="1.91028">
        <ele>129</ele>
        <time>2026-01-13T09:58:58Z</time>
      </trkpt>
      <trkpt lat="48.7209" lon="1.91042">
        <ele>129</ele>
        <time>2026-01-13T09:58:59Z</time>
      </trkpt>
      <trkpt lat="48.72092" lon="1.91056">
        <ele>128</ele>
        <time>2026-01-13T09:59:00Z</time>
      </trkpt>
      <trkpt lat="48.72095" lon="1.9107">
        <ele>127</ele>
        <time>2026-01-13T09:59:01Z</time>
      </trkpt>
      <trkpt lat="48.72097" lon="1.91084">
        <ele>126.2</ele>
        <time>2026-01-13T09:59:02Z</time>
      </trkpt>
      <trkpt lat="48.721" lon="1.91097">
        <ele>126</ele>
        <time>2026-01-13T09:59:03Z</time>
      </trkpt>
      <trkpt lat="48.72103" lon="1.91111">
        <ele>125.6</ele>
        <time>2026-01-13T09:59:04Z</time>
      </trkpt>
      <trkpt lat="48.72104" lon="1.91124">
        <ele>125.6</ele>
        <time>2026-01-13T09:59:05Z</time>
      </trkpt>
      <trkpt lat="48.72107" lon="1.91137">
        <ele>125.6</ele>
        <time>2026-01-13T09:59:06Z</time>
      </trkpt>
      <trkpt lat="48.7211" lon="1.9115">
        <ele>126.6</ele>
        <time>2026-01-13T09:59:07Z</time>
      </trkpt>
      <trkpt lat="48.72113" lon="1.91163">
        <ele>126.6</ele>
        <time>2026-01-13T09:59:08Z</time>
      </trkpt>
      <trkpt lat="48.72116" lon="1.91176">
        <ele>126.6</ele>
        <time>2026-01-13T09:59:09Z</time>
      </trkpt>
      <trkpt lat="48.72119" lon="1.91188">
        <ele>126</ele>
        <time>2026-01-13T09:59:10Z</time>
      </trkpt>
      <trkpt lat="48.72122" lon="1.91201">
        <ele>125.8</ele>
        <time>2026-01-13T09:59:11Z</time>
      </trkpt>
      <trkpt lat="48.72125" lon="1.91214">
        <ele>125.8</ele>
        <time>2026-01-13T09:59:12Z</time>
      </trkpt>
      <trkpt lat="48.72127" lon="1.91226">
        <ele>125.8</ele>
        <time>2026-01-13T09:59:13Z</time>
      </trkpt>
      <trkpt lat="48.7213" lon="1.91238">
        <ele>125.8</ele>
        <time>2026-01-13T09:59:14Z</time>
      </trkpt>
      <trkpt lat="48.72132" lon="1.9125">
        <ele>125.8</ele>
        <time>2026-01-13T09:59:15Z</time>
      </trkpt>
      <trkpt lat="48.72135" lon="1.91263">
        <ele>125.8</ele>
        <time>2026-01-13T09:59:16Z</time>
      </trkpt>
      <trkpt lat="48.72138" lon="1.91275">
        <ele>126.4</ele>
        <time>2026-01-13T09:59:17Z</time>
      </trkpt>
      <trkpt lat="48.7214" lon="1.91287">
        <ele>126.4</ele>
        <time>2026-01-13T09:59:18Z</time>
      </trkpt>
      <trkpt lat="48.72143" lon="1.91299">
        <ele>126.4</ele>
        <time>2026-01-13T09:59:19Z</time>
      </trkpt>
      <trkpt lat="48.72145" lon="1.91311">
        <ele>125.8</ele>
        <time>2026-01-13T09:59:20Z</time>
      </trkpt>
      <trkpt lat="48.72147" lon="1.91322">
        <ele>125.8</ele>
        <time>2026-01-13T09:59:21Z</time>
      </trkpt>
      <trkpt lat="48.72148" lon="1.91334">
        <ele>125.8</ele>
        <time>2026-01-13T09:59:22Z</time>
      </trkpt>
      <trkpt lat="48.72151" lon="1.91344">
        <ele>125.8</ele>
        <time>2026-01-13T09:59:23Z</time>
      </trkpt>
      <trkpt lat="48.72154" lon="1.91355">
        <ele>125.8</ele>
        <time>2026-01-13T09:59:24Z</time>
      </trkpt>
      <trkpt lat="48.72157" lon="1.91366">
        <ele>126</ele>
        <time>2026-01-13T09:59:25Z</time>
      </trkpt>
      <trkpt lat="48.7216" lon="1.91376">
        <ele>126.6</ele>
        <time>2026-01-13T09:59:26Z</time>
      </trkpt>
      <trkpt lat="48.72164" lon="1.91386">
        <ele>126.6</ele>
        <time>2026-01-13T09:59:27Z</time>
      </trkpt>
      <trkpt lat="48.72169" lon="1.91395">
        <ele>126.6</ele>
        <time>2026-01-13T09:59:28Z</time>
      </trkpt>
      <trkpt lat="48.72174" lon="1.91404">
        <ele>125.8</ele>
        <time>2026-01-13T09:59:29Z</time>
      </trkpt>
      <trkpt lat="48.72179" lon="1.91412">
        <ele>125.8</ele>
        <time>2026-01-13T09:59:30Z</time>
      </trkpt>
      <trkpt lat="48.72184" lon="1.9142">
        <ele>125.8</ele>
        <time>2026-01-13T09:59:31Z</time>
      </trkpt>
      <trkpt lat="48.72189" lon="1.91428">
        <ele>126</ele>
        <time>2026-01-13T09:59:32Z</time>
      </trkpt>
      <trkpt lat="48.72194" lon="1.91435">
        <ele>126</ele>
        <time>2026-01-13T09:59:33Z</time>
      </trkpt>
      <trkpt lat="48.722" lon="1.91442">
        <ele>126</ele>
        <time>2026-01-13T09:59:34Z</time>
      </trkpt>
      <trkpt lat="48.72206" lon="1.91448">
        <ele>126</ele>
        <time>2026-01-13T09:59:35Z</time>
      </trkpt>
      <trkpt lat="48.72212" lon="1.91454">
        <ele>125.6</ele>
        <time>2026-01-13T09:59:36Z</time>
      </trkpt>
      <trkpt lat="48.72219" lon="1.91459">
        <ele>125.4</ele>
        <time>2026-01-13T09:59:37Z</time>
      </trkpt>
      <trkpt lat="48.72225" lon="1.91464">
        <ele>125.4</ele>
        <time>2026-01-13T09:59:38Z</time>
      </trkpt>
      <trkpt lat="48.72231" lon="1.91469">
        <ele>125.4</ele>
        <time>2026-01-13T09:59:39Z</time>
      </trkpt>
      <trkpt lat="48.72238" lon="1.91474">
        <ele>125.4</ele>
        <time>2026-01-13T09:59:40Z</time>
      </trkpt>
      <trkpt lat="48.72244" lon="1.91479">
        <ele>125.6</ele>
        <time>2026-01-13T09:59:41Z</time>
      </trkpt>
      <trkpt lat="48.7225" lon="1.91484">
        <ele>125.6</ele>
        <time>2026-01-13T09:59:42Z</time>
      </trkpt>
      <trkpt lat="48.72256" lon="1.91489">
        <ele>125.6</ele>
        <time>2026-01-13T09:59:43Z</time>
      </trkpt>
      <trkpt lat="48.72262" lon="1.91494">
        <ele>125.2</ele>
        <time>2026-01-13T09:59:44Z</time>
      </trkpt>
      <trkpt lat="48.72268" lon="1.91499">
        <ele>125.2</ele>
        <time>2026-01-13T09:59:45Z</time>
      </trkpt>
      <trkpt lat="48.72273" lon="1.91504">
        <ele>125.2</ele>
        <time>2026-01-13T09:59:46Z</time>
      </trkpt>
      <trkpt lat="48.72279" lon="1.91509">
        <ele>125.2</ele>
        <time>2026-01-13T09:59:47Z</time>
      </trkpt>
      <trkpt lat="48.72285" lon="1.91514">
        <ele>125.2</ele>
        <time>2026-01-13T09:59:48Z</time>
      </trkpt>
      <trkpt lat="48.72291" lon="1.91519">
        <ele>125.2</ele>
        <time>2026-01-13T09:59:49Z</time>
      </trkpt>
      <trkpt lat="48.72297" lon="1.91523">
        <ele>124.4</ele>
        <time>2026-01-13T09:59:50Z</time>
      </trkpt>
      <trkpt lat="48.72303" lon="1.91528">
        <ele>124.4</ele>
        <time>2026-01-13T09:59:51Z</time>
      </trkpt>
      <trkpt lat="48.72309" lon="1.91533">
        <ele>124.4</ele>
        <time>2026-01-13T09:59:52Z</time>
      </trkpt>
      <trkpt lat="48.72314" lon="1.91538">
        <ele>125.4</ele>
        <time>2026-01-13T09:59:53Z</time>
      </trkpt>
      <trkpt lat="48.7232" lon="1.91543">
        <ele>125.4</ele>
        <time>2026-01-13T09:59:54Z</time>
      </trkpt>
      <trkpt lat="48.72326" lon="1.91547">
        <ele>125.4</ele>
        <time>2026-01-13T09:59:55Z</time>
      </trkpt>
      <trkpt lat="48.72331" lon="1.91553">
        <ele>125.2</ele>
        <time>2026-01-13T09:59:56Z</time>
      </trkpt>
      <trkpt lat="48.72336" lon="1.91558">
        <ele>125.2</ele>
        <time>2026-01-13T09:59:57Z</time>
      </trkpt>
      <trkpt lat="48.72341" lon="1.91564">
        <ele>125.2</ele>
        <time>2026-01-13T09:59:58Z</time>
      </trkpt>
      <trkpt lat="48.72346" lon="1.91569">
        <ele>125.2</ele>
        <time>2026-01-13T09:59:59Z</time>
      </trkpt>
      <trkpt lat="48.72351" lon="1.91575">
        <ele>125.2</ele>
        <time>2026-01-13T10:00:00Z</time>
      </trkpt>
      <trkpt lat="48.72355" lon="1.9158">
        <ele>125.2</ele>
        <time>2026-01-13T10:00:01Z</time>
      </trkpt>
      <trkpt lat="48.7236" lon="1.91586">
        <ele>125</ele>
        <time>2026-01-13T10:00:02Z</time>
      </trkpt>
      <trkpt lat="48.72364" lon="1.91592">
        <ele>125</ele>
        <time>2026-01-13T10:00:03Z</time>
      </trkpt>
      <trkpt lat="48.72368" lon="1.91599">
        <ele>125</ele>
        <time>2026-01-13T10:00:04Z</time>
      </trkpt>
      <trkpt lat="48.72371" lon="1.91607">
        <ele>125</ele>
        <time>2026-01-13T10:00:05Z</time>
      </trkpt>
      <trkpt lat="48.72374" lon="1.91615">
        <ele>124.8</ele>
        <time>2026-01-13T10:00:06Z</time>
      </trkpt>
      <trkpt lat="48.72377" lon="1.91623">
        <ele>124.2</ele>
        <time>2026-01-13T10:00:07Z</time>
      </trkpt>
      <trkpt lat="48.7238" lon="1.91631">
        <ele>124.2</ele>
        <time>2026-01-13T10:00:08Z</time>
      </trkpt>
      <trkpt lat="48.72382" lon="1.9164">
        <ele>124.2</ele>
        <time>2026-01-13T10:00:09Z</time>
      </trkpt>
      <trkpt lat="48.72384" lon="1.91649">
        <ele>124.2</ele>
        <time>2026-01-13T10:00:10Z</time>
      </trkpt>
      <trkpt lat="48.72387" lon="1.91658">
        <ele>124.2</ele>
        <time>2026-01-13T10:00:11Z</time>
      </trkpt>
      <trkpt lat="48.72389" lon="1.91666">
        <ele>124.2</ele>
        <time>2026-01-13T10:00:12Z</time>
      </trkpt>
      <trkpt lat="48.72391" lon="1.91675">
        <ele>124.2</ele>
        <time>2026-01-13T10:00:13Z</time>
      </trkpt>
      <trkpt lat="48.72393" lon="1.91683">
        <ele>124.8</ele>
        <time>2026-01-13T10:00:14Z</time>
      </trkpt>
      <trkpt lat="48.72395" lon="1.91692">
        <ele>124.8</ele>
        <time>2026-01-13T10:00:15Z</time>
      </trkpt>
      <trkpt lat="48.72397" lon="1.917">
        <ele>124.8</ele>
        <time>2026-01-13T10:00:16Z</time>
      </trkpt>
      <trkpt lat="48.72399" lon="1.91708">
        <ele>123.8</ele>
        <time>2026-01-13T10:00:17Z</time>
      </trkpt>
      <trkpt lat="48.72402" lon="1.91717">
        <ele>123.8</ele>
        <time>2026-01-13T10:00:18Z</time>
      </trkpt>
      <trkpt lat="48.72404" lon="1.91725">
        <ele>123.8</ele>
        <time>2026-01-13T10:00:19Z</time>
      </trkpt>
      <trkpt lat="48.72406" lon="1.91734">
        <ele>124</ele>
        <time>2026-01-13T10:00:20Z</time>
      </trkpt>
      <trkpt lat="48.72408" lon="1.91743">
        <ele>124</ele>
        <time>2026-01-13T10:00:21Z</time>
      </trkpt>
      <trkpt lat="48.7241" lon="1.91752">
        <ele>124</ele>
        <time>2026-01-13T10:00:22Z</time>
      </trkpt>
      <trkpt lat="48.72411" lon="1.91761">
        <ele>124</ele>
        <time>2026-01-13T10:00:23Z</time>
      </trkpt>
      <trkpt lat="48.72411" lon="1.91771">
        <ele>124</ele>
        <time>2026-01-13T10:00:24Z</time>
      </trkpt>
      <trkpt lat="48.72411" lon="1.9178">
        <ele>124</ele>
        <time>2026-01-13T10:00:25Z</time>
      </trkpt>
      <trkpt lat="48.7241" lon="1.91789">
        <ele>124</ele>
        <time>2026-01-13T10:00:26Z</time>
      </trkpt>
      <trkpt lat="48.72409" lon="1.91798">
        <ele>124</ele>
        <time>2026-01-13T10:00:27Z</time>
      </trkpt>
      <trkpt lat="48.72408" lon="1.91807">
        <ele>124.2</ele>
        <time>2026-01-13T10:00:28Z</time>
      </trkpt>
      <trkpt lat="48.72406" lon="1.91815">
        <ele>124.6</ele>
        <time>2026-01-13T10:00:29Z</time>
      </trkpt>
      <trkpt lat="48.72404" lon="1.91824">
        <ele>124.6</ele>
        <time>2026-01-13T10:00:30Z</time>
      </trkpt>
      <trkpt lat="48.72402" lon="1.91832">
        <ele>124.6</ele>
        <time>2026-01-13T10:00:31Z</time>
      </trkpt>
      <trkpt lat="48.724" lon="1.91841">
        <ele>124.6</ele>
        <time>2026-01-13T10:00:32Z</time>
      </trkpt>
      <trkpt lat="48.72398" lon="1.91849">
        <ele>124.6</ele>
        <time>2026-01-13T10:00:33Z</time>
      </trkpt>
      <trkpt lat="48.72396" lon="1.91857">
        <ele>124</ele>
        <time>2026-01-13T10:00:34Z</time>
      </trkpt>
      <trkpt lat="48.72393" lon="1.91865">
        <ele>124</ele>
        <time>2026-01-13T10:00:35Z</time>
      </trkpt>
      <trkpt lat="48.72391" lon="1.91874">
        <ele>124</ele>
        <time>2026-01-13T10:00:36Z</time>
      </trkpt>
      <trkpt lat="48.72389" lon="1.91882">
        <ele>124</ele>
        <time>2026-01-13T10:00:37Z</time>
      </trkpt>
      <trkpt lat="48.72387" lon="1.91891">
        <ele>123.8</ele>
        <time>2026-01-13T10:00:38Z</time>
      </trkpt>
      <trkpt lat="48.72385" lon="1.91901">
        <ele>123.6</ele>
        <time>2026-01-13T10:00:39Z</time>
      </trkpt>
      <trkpt lat="48.72383" lon="1.9191">
        <ele>123.6</ele>
        <time>2026-01-13T10:00:40Z</time>
      </trkpt>
      <trkpt lat="48.72381" lon="1.91919">
        <ele>123.6</ele>
        <time>2026-01-13T10:00:41Z</time>
      </trkpt>
      <trkpt lat="48.72379" lon="1.91929">
        <ele>123.6</ele>
        <time>2026-01-13T10:00:42Z</time>
      </trkpt>
      <trkpt lat="48.72377" lon="1.91939">
        <ele>123.2</ele>
        <time>2026-01-13T10:00:43Z</time>
      </trkpt>
      <trkpt lat="48.72375" lon="1.91948">
        <ele>122.2</ele>
        <time>2026-01-13T10:00:44Z</time>
      </trkpt>
      <trkpt lat="48.72373" lon="1.91958">
        <ele>122</ele>
        <time>2026-01-13T10:00:45Z</time>
      </trkpt>
      <trkpt lat="48.72371" lon="1.91967">
        <ele>121.8</ele>
        <time>2026-01-13T10:00:46Z</time>
      </trkpt>
      <trkpt lat="48.72368" lon="1.91976">
        <ele>121.8</ele>
        <time>2026-01-13T10:00:47Z</time>
      </trkpt>
      <trkpt lat="48.72366" lon="1.91986">
        <ele>121.8</ele>
        <time>2026-01-13T10:00:48Z</time>
      </trkpt>
      <trkpt lat="48.72364" lon="1.91996">
        <ele>121.8</ele>
        <time>2026-01-13T10:00:49Z</time>
      </trkpt>
      <trkpt lat="48.72361" lon="1.92005">
        <ele>121.8</ele>
        <time>2026-01-13T10:00:50Z</time>
      </trkpt>
      <trkpt lat="48.72358" lon="1.92015">
        <ele>121.8</ele>
        <time>2026-01-13T10:00:51Z</time>
      </trkpt>
      <trkpt lat="48.72356" lon="1.92025">
        <ele>121.8</ele>
        <time>2026-01-13T10:00:52Z</time>
      </trkpt>
      <trkpt lat="48.72353" lon="1.92035">
        <ele>121.8</ele>
        <time>2026-01-13T10:00:53Z</time>
      </trkpt>
      <trkpt lat="48.7235" lon="1.92045">
        <ele>121.8</ele>
        <time>2026-01-13T10:00:54Z</time>
      </trkpt>
      <trkpt lat="48.72348" lon="1.92055">
        <ele>121.4</ele>
        <time>2026-01-13T10:00:55Z</time>
      </trkpt>
      <trkpt lat="48.72345" lon="1.92065">
        <ele>120.4</ele>
        <time>2026-01-13T10:00:56Z</time>
      </trkpt>
      <trkpt lat="48.72343" lon="1.92075">
        <ele>120.4</ele>
        <time>2026-01-13T10:00:57Z</time>
      </trkpt>
      <trkpt lat="48.7234" lon="1.92085">
        <ele>120.4</ele>
        <time>2026-01-13T10:00:58Z</time>
      </trkpt>
      <trkpt lat="48.72336" lon="1.92094">
        <ele>120.4</ele>
        <time>2026-01-13T10:00:59Z</time>
      </trkpt>
      <trkpt lat="48.72333" lon="1.92103">
        <ele>120.4</ele>
        <time>2026-01-13T10:01:00Z</time>
      </trkpt>
      <trkpt lat="48.72329" lon="1.92112">
        <ele>120.6</ele>
        <time>2026-01-13T10:01:01Z</time>
      </trkpt>
      <trkpt lat="48.72327" lon="1.92122">
        <ele>121.4</ele>
        <time>2026-01-13T10:01:02Z</time>
      </trkpt>
      <trkpt lat="48.72324" lon="1.92131">
        <ele>121.4</ele>
        <time>2026-01-13T10:01:03Z</time>
      </trkpt>
      <trkpt lat="48.72322" lon="1.92141">
        <ele>121.4</ele>
        <time>2026-01-13T10:01:04Z</time>
      </trkpt>
      <trkpt lat="48.72321" lon="1.92151">
        <ele>120.4</ele>
        <time>2026-01-13T10:01:05Z</time>
      </trkpt>
      <trkpt lat="48.72319" lon="1.92162">
        <ele>119.8</ele>
        <time>2026-01-13T10:01:06Z</time>
      </trkpt>
      <trkpt lat="48.72317" lon="1.92172">
        <ele>119.8</ele>
        <time>2026-01-13T10:01:07Z</time>
      </trkpt>
      <trkpt lat="48.72316" lon="1.92183">
        <ele>119.8</ele>
        <time>2026-01-13T10:01:08Z</time>
      </trkpt>
      <trkpt lat="48.72314" lon="1.92193">
        <ele>119.8</ele>
        <time>2026-01-13T10:01:09Z</time>
      </trkpt>
      <trkpt lat="48.72311" lon="1.92203">
        <ele>119.8</ele>
        <time>2026-01-13T10:01:10Z</time>
      </trkpt>
      <trkpt lat="48.72307" lon="1.92212">
        <ele>119.8</ele>
        <time>2026-01-13T10:01:11Z</time>
      </trkpt>
      <trkpt lat="48.72302" lon="1.92221">
        <ele>119</ele>
        <time>2026-01-13T10:01:12Z</time>
      </trkpt>
      <trkpt lat="48.72297" lon="1.92229">
        <ele>119</ele>
        <time>2026-01-13T10:01:13Z</time>
      </trkpt>
      <trkpt lat="48.72292" lon="1.92237">
        <ele>119</ele>
        <time>2026-01-13T10:01:14Z</time>
      </trkpt>
      <trkpt lat="48.72287" lon="1.92245">
        <ele>119</ele>
        <time>2026-01-13T10:01:15Z</time>
      </trkpt>
      <trkpt lat="48.72283" lon="1.92253">
        <ele>118</ele>
        <time>2026-01-13T10:01:16Z</time>
      </trkpt>
      <trkpt lat="48.72278" lon="1.9226">
        <ele>117.8</ele>
        <time>2026-01-13T10:01:17Z</time>
      </trkpt>
      <trkpt lat="48.72273" lon="1.92268">
        <ele>117.8</ele>
        <time>2026-01-13T10:01:18Z</time>
      </trkpt>
      <trkpt lat="48.72268" lon="1.92276">
        <ele>117.8</ele>
        <time>2026-01-13T10:01:19Z</time>
      </trkpt>
      <trkpt lat="48.72262" lon="1.92284">
        <ele>117.8</ele>
        <time>2026-01-13T10:01:20Z</time>
      </trkpt>
      <trkpt lat="48.72257" lon="1.92292">
        <ele>117</ele>
        <time>2026-01-13T10:01:21Z</time>
      </trkpt>
      <trkpt lat="48.72252" lon="1.92301">
        <ele>116.2</ele>
        <time>2026-01-13T10:01:22Z</time>
      </trkpt>
      <trkpt lat="48.72247" lon="1.92309">
        <ele>116.2</ele>
        <time>2026-01-13T10:01:23Z</time>
      </trkpt>
      <trkpt lat="48.72243" lon="1.92318">
        <ele>116</ele>
        <time>2026-01-13T10:01:24Z</time>
      </trkpt>
      <trkpt lat="48.72238" lon="1.92327">
        <ele>116</ele>
        <time>2026-01-13T10:01:25Z</time>
      </trkpt>
      <trkpt lat="48.72234" lon="1.92337">
        <ele>116</ele>
        <time>2026-01-13T10:01:26Z</time>
      </trkpt>
      <trkpt lat="48.72231" lon="1.92348">
        <ele>116.2</ele>
        <time>2026-01-13T10:01:27Z</time>
      </trkpt>
      <trkpt lat="48.72228" lon="1.92359">
        <ele>116.2</ele>
        <time>2026-01-13T10:01:28Z</time>
      </trkpt>
      <trkpt lat="48.72225" lon="1.92369">
        <ele>116.2</ele>
        <time>2026-01-13T10:01:29Z</time>
      </trkpt>
      <trkpt lat="48.72221" lon="1.92379">
        <ele>116.2</ele>
        <time>2026-01-13T10:01:30Z</time>
      </trkpt>
      <trkpt lat="48.72218" lon="1.9239">
        <ele>116</ele>
        <time>2026-01-13T10:01:31Z</time>
      </trkpt>
      <trkpt lat="48.72215" lon="1.92401">
        <ele>115.8</ele>
        <time>2026-01-13T10:01:32Z</time>
      </trkpt>
      <trkpt lat="48.72212" lon="1.92412">
        <ele>115.8</ele>
        <time>2026-01-13T10:01:33Z</time>
      </trkpt>
      <trkpt lat="48.72209" lon="1.92424">
        <ele>115.8</ele>
        <time>2026-01-13T10:01:34Z</time>
      </trkpt>
      <trkpt lat="48.72207" lon="1.92435">
        <ele>115.8</ele>
        <time>2026-01-13T10:01:35Z</time>
      </trkpt>
      <trkpt lat="48.72204" lon="1.92446">
        <ele>114.8</ele>
        <time>2026-01-13T10:01:36Z</time>
      </trkpt>
      <trkpt lat="48.72201" lon="1.92457">
        <ele>114.8</ele>
        <time>2026-01-13T10:01:37Z</time>
      </trkpt>
      <trkpt lat="48.72197" lon="1.92468">
        <ele>114.6</ele>
        <time>2026-01-13T10:01:38Z</time>
      </trkpt>
      <trkpt lat="48.72194" lon="1.92478">
        <ele>114.6</ele>
        <time>2026-01-13T10:01:39Z</time>
      </trkpt>
      <trkpt lat="48.7219" lon="1.92489">
        <ele>114.6</ele>
        <time>2026-01-13T10:01:40Z</time>
      </trkpt>
      <trkpt lat="48.72187" lon="1.92499">
        <ele>114.6</ele>
        <time>2026-01-13T10:01:41Z</time>
      </trkpt>
      <trkpt lat="48.72184" lon="1.92509">
        <ele>114.6</ele>
        <time>2026-01-13T10:01:42Z</time>
      </trkpt>
      <trkpt lat="48.7218" lon="1.92519">
        <ele>114.6</ele>
        <time>2026-01-13T10:01:43Z</time>
      </trkpt>
      <trkpt lat="48.72176" lon="1.92528">
        <ele>114.6</ele>
        <time>2026-01-13T10:01:44Z</time>
      </trkpt>
      <trkpt lat="48.72172" lon="1.92538">
        <ele>114.6</ele>
        <time>2026-01-13T10:01:45Z</time>
      </trkpt>
      <trkpt lat="48.72169" lon="1.92548">
        <ele>114.6</ele>
        <time>2026-01-13T10:01:46Z</time>
      </trkpt>
      <trkpt lat="48.72166" lon="1.92557">
        <ele>114.6</ele>
        <time>2026-01-13T10:01:47Z</time>
      </trkpt>
      <trkpt lat="48.72163" lon="1.92566">
        <ele>114.6</ele>
        <time>2026-01-13T10:01:48Z</time>
      </trkpt>
      <trkpt lat="48.7216" lon="1.92575">
        <ele>115.6</ele>
        <time>2026-01-13T10:01:49Z</time>
      </trkpt>
      <trkpt lat="48.72157" lon="1.92584">
        <ele>115.6</ele>
        <time>2026-01-13T10:01:50Z</time>
      </trkpt>
      <trkpt lat="48.72155" lon="1.92593">
        <ele>115.6</ele>
        <time>2026-01-13T10:01:51Z</time>
      </trkpt>
      <trkpt lat="48.72152" lon="1.92602">
        <ele>115.6</ele>
        <time>2026-01-13T10:01:52Z</time>
      </trkpt>
      <trkpt lat="48.72149" lon="1.92611">
        <ele>115.6</ele>
        <time>2026-01-13T10:01:53Z</time>
      </trkpt>
      <trkpt lat="48.72146" lon="1.9262">
        <ele>115.6</ele>
        <time>2026-01-13T10:01:54Z</time>
      </trkpt>
      <trkpt lat="48.72144" lon="1.92628">
        <ele>115.6</ele>
        <time>2026-01-13T10:01:55Z</time>
      </trkpt>
      <trkpt lat="48.72141" lon="1.92636">
        <ele>115.6</ele>
        <time>2026-01-13T10:01:56Z</time>
      </trkpt>
      <trkpt lat="48.72139" lon="1.92644">
        <ele>115.6</ele>
        <time>2026-01-13T10:01:57Z</time>
      </trkpt>
      <trkpt lat="48.72136" lon="1.92652">
        <ele>115.6</ele>
        <time>2026-01-13T10:01:58Z</time>
      </trkpt>
      <trkpt lat="48.72134" lon="1.92659">
        <ele>116.6</ele>
        <time>2026-01-13T10:01:59Z</time>
      </trkpt>
      <trkpt lat="48.72131" lon="1.92667">
        <ele>116.6</ele>
        <time>2026-01-13T10:02:00Z</time>
      </trkpt>
      <trkpt lat="48.72129" lon="1.92674">
        <ele>116.6</ele>
        <time>2026-01-13T10:02:01Z</time>
      </trkpt>
      <trkpt lat="48.72127" lon="1.92681">
        <ele>116.6</ele>
        <time>2026-01-13T10:02:02Z</time>
      </trkpt>
      <trkpt lat="48.72125" lon="1.92688">
        <ele>116.6</ele>
        <time>2026-01-13T10:02:03Z</time>
      </trkpt>
      <trkpt lat="48.72123" lon="1.92696">
        <ele>116.6</ele>
        <time>2026-01-13T10:02:04Z</time>
      </trkpt>
      <trkpt lat="48.72121" lon="1.92703">
        <ele>116.6</ele>
        <time>2026-01-13T10:02:05Z</time>
      </trkpt>
      <trkpt lat="48.72119" lon="1.92711">
        <ele>117.2</ele>
        <time>2026-01-13T10:02:06Z</time>
      </trkpt>
      <trkpt lat="48.72117" lon="1.92717">
        <ele>117.2</ele>
        <time>2026-01-13T10:02:07Z</time>
      </trkpt>
      <trkpt lat="48.72115" lon="1.92724">
        <ele>117.2</ele>
        <time>2026-01-13T10:02:08Z</time>
      </trkpt>
      <trkpt lat="48.72113" lon="1.92731">
        <ele>116.8</ele>
        <time>2026-01-13T10:02:09Z</time>
      </trkpt>
      <trkpt lat="48.7211" lon="1.92739">
        <ele>116.4</ele>
        <time>2026-01-13T10:02:10Z</time>
      </trkpt>
      <trkpt lat="48.72108" lon="1.92744">
        <ele>116.2</ele>
        <time>2026-01-13T10:02:11Z</time>
      </trkpt>
      <trkpt lat="48.72106" lon="1.92752">
        <ele>116.2</ele>
        <time>2026-01-13T10:02:12Z</time>
      </trkpt>
      <trkpt lat="48.72104" lon="1.92761">
        <ele>116</ele>
        <time>2026-01-13T10:02:13Z</time>
      </trkpt>
      <trkpt lat="48.72101" lon="1.9277">
        <ele>116</ele>
        <time>2026-01-13T10:02:14Z</time>
      </trkpt>
      <trkpt lat="48.72098" lon="1.9278">
        <ele>116</ele>
        <time>2026-01-13T10:02:15Z</time>
      </trkpt>
      <trkpt lat="48.72095" lon="1.9279">
        <ele>116</ele>
        <time>2026-01-13T10:02:16Z</time>
      </trkpt>
      <trkpt lat="48.72091" lon="1.92799">
        <ele>116</ele>
        <time>2026-01-13T10:02:17Z</time>
      </trkpt>
      <trkpt lat="48.72088" lon="1.92808">
        <ele>115</ele>
        <time>2026-01-13T10:02:18Z</time>
      </trkpt>
      <trkpt lat="48.72085" lon="1.92817">
        <ele>114.6</ele>
        <time>2026-01-13T10:02:19Z</time>
      </trkpt>
      <trkpt lat="48.72083" lon="1.92826">
        <ele>114</ele>
        <time>2026-01-13T10:02:20Z</time>
      </trkpt>
      <trkpt lat="48.72079" lon="1.92835">
        <ele>114</ele>
        <time>2026-01-13T10:02:21Z</time>
      </trkpt>
      <trkpt lat="48.72076" lon="1.92844">
        <ele>114</ele>
        <time>2026-01-13T10:02:22Z</time>
      </trkpt>
      <trkpt lat="48.72073" lon="1.92853">
        <ele>114.2</ele>
        <time>2026-01-13T10:02:23Z</time>
      </trkpt>
      <trkpt lat="48.7207" lon="1.92863">
        <ele>114.2</ele>
        <time>2026-01-13T10:02:24Z</time>
      </trkpt>
      <trkpt lat="48.72066" lon="1.92871">
        <ele>114.2</ele>
        <time>2026-01-13T10:02:25Z</time>
      </trkpt>
      <trkpt lat="48.72063" lon="1.92882">
        <ele>114.2</ele>
        <time>2026-01-13T10:02:26Z</time>
      </trkpt>
      <trkpt lat="48.7206" lon="1.92891">
        <ele>114.2</ele>
        <time>2026-01-13T10:02:27Z</time>
      </trkpt>
      <trkpt lat="48.7206" lon="1.929">
        <ele>114.2</ele>
        <time>2026-01-13T10:02:28Z</time>
      </trkpt>
      <trkpt lat="48.72057" lon="1.9291">
        <ele>114.2</ele>
        <time>2026-01-13T10:02:29Z</time>
      </trkpt>
      <trkpt lat="48.72055" lon="1.92919">
        <ele>114.2</ele>
        <time>2026-01-13T10:02:30Z</time>
      </trkpt>
      <trkpt lat="48.72054" lon="1.92929">
        <ele>114.2</ele>
        <time>2026-01-13T10:02:31Z</time>
      </trkpt>
      <trkpt lat="48.72053" lon="1.92939">
        <ele>114.2</ele>
        <time>2026-01-13T10:02:32Z</time>
      </trkpt>
      <trkpt lat="48.72053" lon="1.92949">
        <ele>114.2</ele>
        <time>2026-01-13T10:02:33Z</time>
      </trkpt>
      <trkpt lat="48.72053" lon="1.92959">
        <ele>114.2</ele>
        <time>2026-01-13T10:02:34Z</time>
      </trkpt>
      <trkpt lat="48.72052" lon="1.92969">
        <ele>114.4</ele>
        <time>2026-01-13T10:02:35Z</time>
      </trkpt>
      <trkpt lat="48.72052" lon="1.92977">
        <ele>114.4</ele>
        <time>2026-01-13T10:02:36Z</time>
      </trkpt>
      <trkpt lat="48.72052" lon="1.92987">
        <ele>114.4</ele>
        <time>2026-01-13T10:02:37Z</time>
      </trkpt>
      <trkpt lat="48.72052" lon="1.92997">
        <ele>114.4</ele>
        <time>2026-01-13T10:02:38Z</time>
      </trkpt>
      <trkpt lat="48.72051" lon="1.93008">
        <ele>114</ele>
        <time>2026-01-13T10:02:39Z</time>
      </trkpt>
      <trkpt lat="48.72051" lon="1.93019">
        <ele>114</ele>
        <time>2026-01-13T10:02:40Z</time>
      </trkpt>
      <trkpt lat="48.7205" lon="1.93029">
        <ele>114</ele>
        <time>2026-01-13T10:02:41Z</time>
      </trkpt>
      <trkpt lat="48.72049" lon="1.93039">
        <ele>114.2</ele>
        <time>2026-01-13T10:02:42Z</time>
      </trkpt>
      <trkpt lat="48.72047" lon="1.9305">
        <ele>114.4</ele>
        <time>2026-01-13T10:02:43Z</time>
      </trkpt>
      <trkpt lat="48.72046" lon="1.9306">
        <ele>114.4</ele>
        <time>2026-01-13T10:02:44Z</time>
      </trkpt>
      <trkpt lat="48.72044" lon="1.9307">
        <ele>114.4</ele>
        <time>2026-01-13T10:02:45Z</time>
      </trkpt>
      <trkpt lat="48.72042" lon="1.9308">
        <ele>114.4</ele>
        <time>2026-01-13T10:02:46Z</time>
      </trkpt>
      <trkpt lat="48.7204" lon="1.9309">
        <ele>114</ele>
        <time>2026-01-13T10:02:47Z</time>
      </trkpt>
      <trkpt lat="48.72038" lon="1.93099">
        <ele>114</ele>
        <time>2026-01-13T10:02:48Z</time>
      </trkpt>
      <trkpt lat="48.72036" lon="1.93108">
        <ele>114</ele>
        <time>2026-01-13T10:02:49Z</time>
      </trkpt>
      <trkpt lat="48.72033" lon="1.93117">
        <ele>114.2</ele>
        <time>2026-01-13T10:02:50Z</time>
      </trkpt>
      <trkpt lat="48.72032" lon="1.93127">
        <ele>114.2</ele>
        <time>2026-01-13T10:02:51Z</time>
      </trkpt>
      <trkpt lat="48.7203" lon="1.93137">
        <ele>114.2</ele>
        <time>2026-01-13T10:02:52Z</time>
      </trkpt>
      <trkpt lat="48.72028" lon="1.93147">
        <ele>113.6</ele>
        <time>2026-01-13T10:02:53Z</time>
      </trkpt>
      <trkpt lat="48.72027" lon="1.93156">
        <ele>113.2</ele>
        <time>2026-01-13T10:02:54Z</time>
      </trkpt>
      <trkpt lat="48.72026" lon="1.93166">
        <ele>113.2</ele>
        <time>2026-01-13T10:02:55Z</time>
      </trkpt>
      <trkpt lat="48.72025" lon="1.93176">
        <ele>113.2</ele>
        <time>2026-01-13T10:02:56Z</time>
      </trkpt>
      <trkpt lat="48.72023" lon="1.93186">
        <ele>113.2</ele>
        <time>2026-01-13T10:02:57Z</time>
      </trkpt>
      <trkpt lat="48.72022" lon="1.93196">
        <ele>113.2</ele>
        <time>2026-01-13T10:02:58Z</time>
      </trkpt>
      <trkpt lat="48.72021" lon="1.93205">
        <ele>113</ele>
        <time>2026-01-13T10:02:59Z</time>
      </trkpt>
      <trkpt lat="48.7202" lon="1.93216">
        <ele>112.4</ele>
        <time>2026-01-13T10:03:00Z</time>
      </trkpt>
      <trkpt lat="48.72019" lon="1.93226">
        <ele>112.4</ele>
        <time>2026-01-13T10:03:01Z</time>
      </trkpt>
      <trkpt lat="48.72018" lon="1.93236">
        <ele>112.4</ele>
        <time>2026-01-13T10:03:02Z</time>
      </trkpt>
      <trkpt lat="48.72017" lon="1.93247">
        <ele>112.6</ele>
        <time>2026-01-13T10:03:03Z</time>
      </trkpt>
      <trkpt lat="48.72016" lon="1.93257">
        <ele>112.6</ele>
        <time>2026-01-13T10:03:04Z</time>
      </trkpt>
      <trkpt lat="48.72014" lon="1.93267">
        <ele>112.6</ele>
        <time>2026-01-13T10:03:05Z</time>
      </trkpt>
      <trkpt lat="48.72013" lon="1.93277">
        <ele>112.6</ele>
        <time>2026-01-13T10:03:06Z</time>
      </trkpt>
      <trkpt lat="48.72012" lon="1.93288">
        <ele>112.6</ele>
        <time>2026-01-13T10:03:07Z</time>
      </trkpt>
      <trkpt lat="48.72012" lon="1.93299">
        <ele>112.6</ele>
        <time>2026-01-13T10:03:08Z</time>
      </trkpt>
      <trkpt lat="48.72012" lon="1.9331">
        <ele>112.6</ele>
        <time>2026-01-13T10:03:09Z</time>
      </trkpt>
      <trkpt lat="48.72012" lon="1.93319">
        <ele>112.6</ele>
        <time>2026-01-13T10:03:10Z</time>
      </trkpt>
      <trkpt lat="48.72011" lon="1.9333">
        <ele>112.6</ele>
        <time>2026-01-13T10:03:11Z</time>
      </trkpt>
      <trkpt lat="48.7201" lon="1.93341">
        <ele>112.6</ele>
        <time>2026-01-13T10:03:12Z</time>
      </trkpt>
      <trkpt lat="48.7201" lon="1.93351">
        <ele>112.6</ele>
        <time>2026-01-13T10:03:13Z</time>
      </trkpt>
      <trkpt lat="48.7201" lon="1.93361">
        <ele>112.6</ele>
        <time>2026-01-13T10:03:14Z</time>
      </trkpt>
      <trkpt lat="48.7201" lon="1.93372">
        <ele>112.6</ele>
        <time>2026-01-13T10:03:15Z</time>
      </trkpt>
      <trkpt lat="48.7201" lon="1.93382">
        <ele>112.6</ele>
        <time>2026-01-13T10:03:16Z</time>
      </trkpt>
      <trkpt lat="48.7201" lon="1.93391">
        <ele>112.6</ele>
        <time>2026-01-13T10:03:17Z</time>
      </trkpt>
      <trkpt lat="48.7201" lon="1.93401">
        <ele>112.6</ele>
        <time>2026-01-13T10:03:18Z</time>
      </trkpt>
      <trkpt lat="48.72011" lon="1.93411">
        <ele>111.6</ele>
        <time>2026-01-13T10:03:19Z</time>
      </trkpt>
      <trkpt lat="48.72011" lon="1.93421">
        <ele>111.6</ele>
        <time>2026-01-13T10:03:20Z</time>
      </trkpt>
      <trkpt lat="48.72012" lon="1.93431">
        <ele>111.6</ele>
        <time>2026-01-13T10:03:21Z</time>
      </trkpt>
      <trkpt lat="48.72014" lon="1.93442">
        <ele>111.6</ele>
        <time>2026-01-13T10:03:22Z</time>
      </trkpt>
      <trkpt lat="48.72014" lon="1.93452">
        <ele>111.6</ele>
        <time>2026-01-13T10:03:23Z</time>
      </trkpt>
      <trkpt lat="48.72015" lon="1.93463">
        <ele>112</ele>
        <time>2026-01-13T10:03:24Z</time>
      </trkpt>
      <trkpt lat="48.72015" lon="1.93473">
        <ele>112.4</ele>
        <time>2026-01-13T10:03:25Z</time>
      </trkpt>
      <trkpt lat="48.72015" lon="1.93484">
        <ele>112.4</ele>
        <time>2026-01-13T10:03:26Z</time>
      </trkpt>
      <trkpt lat="48.72016" lon="1.93494">
        <ele>112.4</ele>
        <time>2026-01-13T10:03:27Z</time>
      </trkpt>
      <trkpt lat="48.72015" lon="1.93504">
        <ele>111.6</ele>
        <time>2026-01-13T10:03:28Z</time>
      </trkpt>
      <trkpt lat="48.72014" lon="1.93514">
        <ele>111.6</ele>
        <time>2026-01-13T10:03:29Z</time>
      </trkpt>
      <trkpt lat="48.72013" lon="1.93524">
        <ele>111.6</ele>
        <time>2026-01-13T10:03:30Z</time>
      </trkpt>
      <trkpt lat="48.72013" lon="1.93535">
        <ele>111.6</ele>
        <time>2026-01-13T10:03:31Z</time>
      </trkpt>
      <trkpt lat="48.72012" lon="1.93544">
        <ele>111.6</ele>
        <time>2026-01-13T10:03:32Z</time>
      </trkpt>
      <trkpt lat="48.7201" lon="1.93555">
        <ele>111.6</ele>
        <time>2026-01-13T10:03:33Z</time>
      </trkpt>
      <trkpt lat="48.72009" lon="1.93564">
        <ele>111.6</ele>
        <time>2026-01-13T10:03:34Z</time>
      </trkpt>
      <trkpt lat="48.72008" lon="1.93574">
        <ele>112.6</ele>
        <time>2026-01-13T10:03:35Z</time>
      </trkpt>
      <trkpt lat="48.72007" lon="1.93583">
        <ele>112.6</ele>
        <time>2026-01-13T10:03:36Z</time>
      </trkpt>
      <trkpt lat="48.72006" lon="1.93592">
        <ele>112.6</ele>
        <time>2026-01-13T10:03:37Z</time>
      </trkpt>
      <trkpt lat="48.72005" lon="1.93601">
        <ele>111.6</ele>
        <time>2026-01-13T10:03:38Z</time>
      </trkpt>
      <trkpt lat="48.72005" lon="1.93611">
        <ele>110.6</ele>
        <time>2026-01-13T10:03:39Z</time>
      </trkpt>
      <trkpt lat="48.72004" lon="1.9362">
        <ele>110.2</ele>
        <time>2026-01-13T10:03:40Z</time>
      </trkpt>
      <trkpt lat="48.72005" lon="1.93632">
        <ele>110.2</ele>
        <time>2026-01-13T10:03:41Z</time>
      </trkpt>
      <trkpt lat="48.72006" lon="1.93644">
        <ele>109.4</ele>
        <time>2026-01-13T10:03:42Z</time>
      </trkpt>
      <trkpt lat="48.72005" lon="1.93653">
        <ele>109.2</ele>
        <time>2026-01-13T10:03:43Z</time>
      </trkpt>
      <trkpt lat="48.72004" lon="1.93662">
        <ele>109.2</ele>
        <time>2026-01-13T10:03:44Z</time>
      </trkpt>
      <trkpt lat="48.72005" lon="1.93672">
        <ele>109.2</ele>
        <time>2026-01-13T10:03:45Z</time>
      </trkpt>
      <trkpt lat="48.72007" lon="1.93684">
        <ele>110.2</ele>
        <time>2026-01-13T10:03:46Z</time>
      </trkpt>
      <trkpt lat="48.7201" lon="1.93696">
        <ele>110.2</ele>
        <time>2026-01-13T10:03:47Z</time>
      </trkpt>
      <trkpt lat="48.72011" lon="1.93708">
        <ele>110.2</ele>
        <time>2026-01-13T10:03:48Z</time>
      </trkpt>
      <trkpt lat="48.72013" lon="1.93719">
        <ele>110.2</ele>
        <time>2026-01-13T10:03:49Z</time>
      </trkpt>
      <trkpt lat="48.72014" lon="1.9373">
        <ele>111.2</ele>
        <time>2026-01-13T10:03:50Z</time>
      </trkpt>
      <trkpt lat="48.72015" lon="1.93741">
        <ele>111.2</ele>
        <time>2026-01-13T10:03:51Z</time>
      </trkpt>
      <trkpt lat="48.72017" lon="1.93752">
        <ele>111.2</ele>
        <time>2026-01-13T10:03:52Z</time>
      </trkpt>
      <trkpt lat="48.72018" lon="1.93764">
        <ele>110.6</ele>
        <time>2026-01-13T10:03:53Z</time>
      </trkpt>
      <trkpt lat="48.72019" lon="1.93774">
        <ele>110.6</ele>
        <time>2026-01-13T10:03:54Z</time>
      </trkpt>
      <trkpt lat="48.72021" lon="1.93784">
        <ele>110.6</ele>
        <time>2026-01-13T10:03:55Z</time>
      </trkpt>
      <trkpt lat="48.72021" lon="1.93795">
        <ele>110.6</ele>
        <time>2026-01-13T10:03:56Z</time>
      </trkpt>
      <trkpt lat="48.72022" lon="1.93805">
        <ele>110.6</ele>
        <time>2026-01-13T10:03:57Z</time>
      </trkpt>
      <trkpt lat="48.72022" lon="1.93817">
        <ele>110.6</ele>
        <time>2026-01-13T10:03:58Z</time>
      </trkpt>
      <trkpt lat="48.72023" lon="1.93828">
        <ele>109.8</ele>
        <time>2026-01-13T10:03:59Z</time>
      </trkpt>
      <trkpt lat="48.72023" lon="1.93839">
        <ele>109.8</ele>
        <time>2026-01-13T10:04:00Z</time>
      </trkpt>
      <trkpt lat="48.72022" lon="1.9385">
        <ele>109.8</ele>
        <time>2026-01-13T10:04:01Z</time>
      </trkpt>
      <trkpt lat="48.72023" lon="1.93861">
        <ele>110.2</ele>
        <time>2026-01-13T10:04:02Z</time>
      </trkpt>
      <trkpt lat="48.72022" lon="1.93872">
        <ele>110.2</ele>
        <time>2026-01-13T10:04:03Z</time>
      </trkpt>
      <trkpt lat="48.72022" lon="1.93883">
        <ele>110.2</ele>
        <time>2026-01-13T10:04:04Z</time>
      </trkpt>
      <trkpt lat="48.72022" lon="1.93895">
        <ele>109.6</ele>
        <time>2026-01-13T10:04:05Z</time>
      </trkpt>
      <trkpt lat="48.72022" lon="1.93907">
        <ele>109.2</ele>
        <time>2026-01-13T10:04:06Z</time>
      </trkpt>
      <trkpt lat="48.72022" lon="1.93918">
        <ele>109.2</ele>
        <time>2026-01-13T10:04:07Z</time>
      </trkpt>
      <trkpt lat="48.72021" lon="1.93927">
        <ele>109.2</ele>
        <time>2026-01-13T10:04:08Z</time>
      </trkpt>
      <trkpt lat="48.72021" lon="1.93938">
        <ele>109.4</ele>
        <time>2026-01-13T10:04:09Z</time>
      </trkpt>
      <trkpt lat="48.7202" lon="1.93949">
        <ele>110</ele>
        <time>2026-01-13T10:04:10Z</time>
      </trkpt>
      <trkpt lat="48.7202" lon="1.9396">
        <ele>110</ele>
        <time>2026-01-13T10:04:11Z</time>
      </trkpt>
      <trkpt lat="48.72021" lon="1.93972">
        <ele>110</ele>
        <time>2026-01-13T10:04:12Z</time>
      </trkpt>
      <trkpt lat="48.72021" lon="1.93983">
        <ele>109</ele>
        <time>2026-01-13T10:04:13Z</time>
      </trkpt>
      <trkpt lat="48.7202" lon="1.93995">
        <ele>108.6</ele>
        <time>2026-01-13T10:04:14Z</time>
      </trkpt>
      <trkpt lat="48.7202" lon="1.94006">
        <ele>108.6</ele>
        <time>2026-01-13T10:04:15Z</time>
      </trkpt>
      <trkpt lat="48.7202" lon="1.94018">
        <ele>108.6</ele>
        <time>2026-01-13T10:04:16Z</time>
      </trkpt>
      <trkpt lat="48.7202" lon="1.94029">
        <ele>108.6</ele>
        <time>2026-01-13T10:04:17Z</time>
      </trkpt>
      <trkpt lat="48.7202" lon="1.94041">
        <ele>107.6</ele>
        <time>2026-01-13T10:04:18Z</time>
      </trkpt>
      <trkpt lat="48.7202" lon="1.94054">
        <ele>107.2</ele>
        <time>2026-01-13T10:04:19Z</time>
      </trkpt>
      <trkpt lat="48.7202" lon="1.94067">
        <ele>107.2</ele>
        <time>2026-01-13T10:04:20Z</time>
      </trkpt>
      <trkpt lat="48.72019" lon="1.94078">
        <ele>107.2</ele>
        <time>2026-01-13T10:04:21Z</time>
      </trkpt>
      <trkpt lat="48.72018" lon="1.9409">
        <ele>108.2</ele>
        <time>2026-01-13T10:04:22Z</time>
      </trkpt>
      <trkpt lat="48.72017" lon="1.94102">
        <ele>108.4</ele>
        <time>2026-01-13T10:04:23Z</time>
      </trkpt>
      <trkpt lat="48.72016" lon="1.94113">
        <ele>108.4</ele>
        <time>2026-01-13T10:04:24Z</time>
      </trkpt>
      <trkpt lat="48.72015" lon="1.94124">
        <ele>108.4</ele>
        <time>2026-01-13T10:04:25Z</time>
      </trkpt>
      <trkpt lat="48.72014" lon="1.94135">
        <ele>108.4</ele>
        <time>2026-01-13T10:04:26Z</time>
      </trkpt>
      <trkpt lat="48.72014" lon="1.94146">
        <ele>108.4</ele>
        <time>2026-01-13T10:04:27Z</time>
      </trkpt>
      <trkpt lat="48.72013" lon="1.94157">
        <ele>108.4</ele>
        <time>2026-01-13T10:04:28Z</time>
      </trkpt>
      <trkpt lat="48.72012" lon="1.94168">
        <ele>108.4</ele>
        <time>2026-01-13T10:04:29Z</time>
      </trkpt>
      <trkpt lat="48.72013" lon="1.94179">
        <ele>108.4</ele>
        <time>2026-01-13T10:04:30Z</time>
      </trkpt>
      <trkpt lat="48.72013" lon="1.9419">
        <ele>108.4</ele>
        <time>2026-01-13T10:04:31Z</time>
      </trkpt>
      <trkpt lat="48.72013" lon="1.94201">
        <ele>108.4</ele>
        <time>2026-01-13T10:04:32Z</time>
      </trkpt>
      <trkpt lat="48.72014" lon="1.94212">
        <ele>108</ele>
        <time>2026-01-13T10:04:33Z</time>
      </trkpt>
      <trkpt lat="48.72016" lon="1.94222">
        <ele>108</ele>
        <time>2026-01-13T10:04:34Z</time>
      </trkpt>
      <trkpt lat="48.72017" lon="1.94231">
        <ele>108</ele>
        <time>2026-01-13T10:04:35Z</time>
      </trkpt>
      <trkpt lat="48.72018" lon="1.94241">
        <ele>108</ele>
        <time>2026-01-13T10:04:36Z</time>
      </trkpt>
      <trkpt lat="48.7202" lon="1.9425">
        <ele>109</ele>
        <time>2026-01-13T10:04:37Z</time>
      </trkpt>
      <trkpt lat="48.72022" lon="1.94259">
        <ele>109.6</ele>
        <time>2026-01-13T10:04:38Z</time>
      </trkpt>
      <trkpt lat="48.72023" lon="1.94268">
        <ele>109.6</ele>
        <time>2026-01-13T10:04:39Z</time>
      </trkpt>
      <trkpt lat="48.72026" lon="1.94277">
        <ele>109.6</ele>
        <time>2026-01-13T10:04:40Z</time>
      </trkpt>
      <trkpt lat="48.72029" lon="1.94286">
        <ele>109.6</ele>
        <time>2026-01-13T10:04:41Z</time>
      </trkpt>
      <trkpt lat="48.72031" lon="1.94294">
        <ele>109.6</ele>
        <time>2026-01-13T10:04:42Z</time>
      </trkpt>
      <trkpt lat="48.72034" lon="1.94303">
        <ele>109.8</ele>
        <time>2026-01-13T10:04:43Z</time>
      </trkpt>
      <trkpt lat="48.72036" lon="1.94312">
        <ele>109.8</ele>
        <time>2026-01-13T10:04:44Z</time>
      </trkpt>
      <trkpt lat="48.72038" lon="1.9432">
        <ele>110</ele>
        <time>2026-01-13T10:04:45Z</time>
      </trkpt>
      <trkpt lat="48.7204" lon="1.94328">
        <ele>110</ele>
        <time>2026-01-13T10:04:46Z</time>
      </trkpt>
      <trkpt lat="48.72042" lon="1.94336">
        <ele>110</ele>
        <time>2026-01-13T10:04:47Z</time>
      </trkpt>
      <trkpt lat="48.72045" lon="1.94344">
        <ele>110</ele>
        <time>2026-01-13T10:04:48Z</time>
      </trkpt>
      <trkpt lat="48.72047" lon="1.94353">
        <ele>110</ele>
        <time>2026-01-13T10:04:49Z</time>
      </trkpt>
      <trkpt lat="48.72049" lon="1.94362">
        <ele>109</ele>
        <time>2026-01-13T10:04:50Z</time>
      </trkpt>
      <trkpt lat="48.72052" lon="1.94372">
        <ele>108.2</ele>
        <time>2026-01-13T10:04:51Z</time>
      </trkpt>
      <trkpt lat="48.72054" lon="1.94382">
        <ele>108</ele>
        <time>2026-01-13T10:04:52Z</time>
      </trkpt>
      <trkpt lat="48.72056" lon="1.94392">
        <ele>107.8</ele>
        <time>2026-01-13T10:04:53Z</time>
      </trkpt>
      <trkpt lat="48.72058" lon="1.94403">
        <ele>107.8</ele>
        <time>2026-01-13T10:04:54Z</time>
      </trkpt>
      <trkpt lat="48.7206" lon="1.94413">
        <ele>107.8</ele>
        <time>2026-01-13T10:04:55Z</time>
      </trkpt>
      <trkpt lat="48.7206" lon="1.94423">
        <ele>107.8</ele>
        <time>2026-01-13T10:04:56Z</time>
      </trkpt>
      <trkpt lat="48.72061" lon="1.94433">
        <ele>107.6</ele>
        <time>2026-01-13T10:04:57Z</time>
      </trkpt>
      <trkpt lat="48.72063" lon="1.94444">
        <ele>107.6</ele>
        <time>2026-01-13T10:04:58Z</time>
      </trkpt>
      <trkpt lat="48.72064" lon="1.94455">
        <ele>107.6</ele>
        <time>2026-01-13T10:04:59Z</time>
      </trkpt>
      <trkpt lat="48.72065" lon="1.94466">
        <ele>107.6</ele>
        <time>2026-01-13T10:05:00Z</time>
      </trkpt>
      <trkpt lat="48.72066" lon="1.94476">
        <ele>107.6</ele>
        <time>2026-01-13T10:05:01Z</time>
      </trkpt>
      <trkpt lat="48.72067" lon="1.94486">
        <ele>107.6</ele>
        <time>2026-01-13T10:05:02Z</time>
      </trkpt>
      <trkpt lat="48.72068" lon="1.94495">
        <ele>106.6</ele>
        <time>2026-01-13T10:05:03Z</time>
      </trkpt>
      <trkpt lat="48.72069" lon="1.94506">
        <ele>106.2</ele>
        <time>2026-01-13T10:05:04Z</time>
      </trkpt>
      <trkpt lat="48.7207" lon="1.94516">
        <ele>106.2</ele>
        <time>2026-01-13T10:05:05Z</time>
      </trkpt>
      <trkpt lat="48.72072" lon="1.94527">
        <ele>106.2</ele>
        <time>2026-01-13T10:05:06Z</time>
      </trkpt>
      <trkpt lat="48.72074" lon="1.94538">
        <ele>107</ele>
        <time>2026-01-13T10:05:07Z</time>
      </trkpt>
      <trkpt lat="48.72076" lon="1.94548">
        <ele>107</ele>
        <time>2026-01-13T10:05:08Z</time>
      </trkpt>
      <trkpt lat="48.72078" lon="1.94559">
        <ele>107</ele>
        <time>2026-01-13T10:05:09Z</time>
      </trkpt>
      <trkpt lat="48.72081" lon="1.94569">
        <ele>106</ele>
        <time>2026-01-13T10:05:10Z</time>
      </trkpt>
      <trkpt lat="48.72083" lon="1.94579">
        <ele>106</ele>
        <time>2026-01-13T10:05:11Z</time>
      </trkpt>
      <trkpt lat="48.72085" lon="1.94588">
        <ele>106</ele>
        <time>2026-01-13T10:05:12Z</time>
      </trkpt>
      <trkpt lat="48.72087" lon="1.94598">
        <ele>106</ele>
        <time>2026-01-13T10:05:13Z</time>
      </trkpt>
      <trkpt lat="48.72089" lon="1.94607">
        <ele>106</ele>
        <time>2026-01-13T10:05:14Z</time>
      </trkpt>
      <trkpt lat="48.72092" lon="1.94616">
        <ele>106</ele>
        <time>2026-01-13T10:05:15Z</time>
      </trkpt>
      <trkpt lat="48.72094" lon="1.94625">
        <ele>107</ele>
        <time>2026-01-13T10:05:16Z</time>
      </trkpt>
      <trkpt lat="48.72097" lon="1.94635">
        <ele>107.8</ele>
        <time>2026-01-13T10:05:17Z</time>
      </trkpt>
      <trkpt lat="48.721" lon="1.94644">
        <ele>107.8</ele>
        <time>2026-01-13T10:05:18Z</time>
      </trkpt>
      <trkpt lat="48.72102" lon="1.94654">
        <ele>107.8</ele>
        <time>2026-01-13T10:05:19Z</time>
      </trkpt>
      <trkpt lat="48.72105" lon="1.94664">
        <ele>107.8</ele>
        <time>2026-01-13T10:05:20Z</time>
      </trkpt>
      <trkpt lat="48.72107" lon="1.94674">
        <ele>107.4</ele>
        <time>2026-01-13T10:05:21Z</time>
      </trkpt>
      <trkpt lat="48.7211" lon="1.94684">
        <ele>107.4</ele>
        <time>2026-01-13T10:05:22Z</time>
      </trkpt>
      <trkpt lat="48.72112" lon="1.94694">
        <ele>107.4</ele>
        <time>2026-01-13T10:05:23Z</time>
      </trkpt>
      <trkpt lat="48.72114" lon="1.94705">
        <ele>107.4</ele>
        <time>2026-01-13T10:05:24Z</time>
      </trkpt>
      <trkpt lat="48.72117" lon="1.94715">
        <ele>107.4</ele>
        <time>2026-01-13T10:05:25Z</time>
      </trkpt>
      <trkpt lat="48.72119" lon="1.94725">
        <ele>107.4</ele>
        <time>2026-01-13T10:05:26Z</time>
      </trkpt>
      <trkpt lat="48.72122" lon="1.94734">
        <ele>107.4</ele>
        <time>2026-01-13T10:05:27Z</time>
      </trkpt>
      <trkpt lat="48.72123" lon="1.94744">
        <ele>107.2</ele>
        <time>2026-01-13T10:05:28Z</time>
      </trkpt>
      <trkpt lat="48.72125" lon="1.94753">
        <ele>107</ele>
        <time>2026-01-13T10:05:29Z</time>
      </trkpt>
      <trkpt lat="48.72127" lon="1.94763">
        <ele>107</ele>
        <time>2026-01-13T10:05:30Z</time>
      </trkpt>
      <trkpt lat="48.72129" lon="1.94772">
        <ele>107</ele>
        <time>2026-01-13T10:05:31Z</time>
      </trkpt>
      <trkpt lat="48.7213" lon="1.94782">
        <ele>107.6</ele>
        <time>2026-01-13T10:05:32Z</time>
      </trkpt>
      <trkpt lat="48.72132" lon="1.94791">
        <ele>107.6</ele>
        <time>2026-01-13T10:05:33Z</time>
      </trkpt>
      <trkpt lat="48.72133" lon="1.948">
        <ele>107.6</ele>
        <time>2026-01-13T10:05:34Z</time>
      </trkpt>
      <trkpt lat="48.72134" lon="1.94809">
        <ele>107</ele>
        <time>2026-01-13T10:05:35Z</time>
      </trkpt>
      <trkpt lat="48.72135" lon="1.94817">
        <ele>107</ele>
        <time>2026-01-13T10:05:36Z</time>
      </trkpt>
      <trkpt lat="48.72134" lon="1.94822">
        <ele>107</ele>
        <time>2026-01-13T10:05:37Z</time>
      </trkpt>
      <trkpt lat="48.72132" lon="1.94825">
        <ele>107.6</ele>
        <time>2026-01-13T10:05:38Z</time>
      </trkpt>
      <trkpt lat="48.72128" lon="1.94826">
        <ele>107.6</ele>
        <time>2026-01-13T10:05:39Z</time>
      </trkpt>
      <trkpt lat="48.72124" lon="1.94824">
        <ele>107.6</ele>
        <time>2026-01-13T10:05:40Z</time>
      </trkpt>
      <trkpt lat="48.72119" lon="1.94821">
        <ele>106.6</ele>
        <time>2026-01-13T10:05:41Z</time>
      </trkpt>
      <trkpt lat="48.72114" lon="1.94819">
        <ele>105.6</ele>
        <time>2026-01-13T10:05:42Z</time>
      </trkpt>
      <trkpt lat="48.72108" lon="1.94818">
        <ele>105</ele>
        <time>2026-01-13T10:05:43Z</time>
      </trkpt>
      <trkpt lat="48.72102" lon="1.94817">
        <ele>104</ele>
        <time>2026-01-13T10:05:44Z</time>
      </trkpt>
      <trkpt lat="48.72096" lon="1.94818">
        <ele>104</ele>
        <time>2026-01-13T10:05:45Z</time>
      </trkpt>
      <trkpt lat="48.7209" lon="1.94819">
        <ele>104</ele>
        <time>2026-01-13T10:05:46Z</time>
      </trkpt>
      <trkpt lat="48.72084" lon="1.94821">
        <ele>104</ele>
        <time>2026-01-13T10:05:47Z</time>
      </trkpt>
      <trkpt lat="48.72078" lon="1.94824">
        <ele>104</ele>
        <time>2026-01-13T10:05:48Z</time>
      </trkpt>
      <trkpt lat="48.72073" lon="1.94827">
        <ele>104</ele>
        <time>2026-01-13T10:05:49Z</time>
      </trkpt>
      <trkpt lat="48.72068" lon="1.9483">
        <ele>105</ele>
        <time>2026-01-13T10:05:50Z</time>
      </trkpt>
      <trkpt lat="48.72064" lon="1.94833">
        <ele>105.8</ele>
        <time>2026-01-13T10:05:51Z</time>
      </trkpt>
      <trkpt lat="48.72059" lon="1.94837">
        <ele>105.8</ele>
        <time>2026-01-13T10:05:52Z</time>
      </trkpt>
      <trkpt lat="48.72054" lon="1.94842">
        <ele>105.8</ele>
        <time>2026-01-13T10:05:53Z</time>
      </trkpt>
      <trkpt lat="48.72049" lon="1.94848">
        <ele>105.2</ele>
        <time>2026-01-13T10:05:54Z</time>
      </trkpt>
      <trkpt lat="48.72044" lon="1.94853">
        <ele>104.8</ele>
        <time>2026-01-13T10:05:55Z</time>
      </trkpt>
      <trkpt lat="48.7204" lon="1.94857">
        <ele>104.8</ele>
        <time>2026-01-13T10:05:56Z</time>
      </trkpt>
      <trkpt lat="48.72035" lon="1.94864">
        <ele>104.8</ele>
        <time>2026-01-13T10:05:57Z</time>
      </trkpt>
      <trkpt lat="48.72031" lon="1.9487">
        <ele>105.8</ele>
        <time>2026-01-13T10:05:58Z</time>
      </trkpt>
      <trkpt lat="48.72027" lon="1.94877">
        <ele>106</ele>
        <time>2026-01-13T10:05:59Z</time>
      </trkpt>
      <trkpt lat="48.72025" lon="1.94884">
        <ele>106.8</ele>
        <time>2026-01-13T10:06:00Z</time>
      </trkpt>
      <trkpt lat="48.72022" lon="1.94891">
        <ele>107.6</ele>
        <time>2026-01-13T10:06:01Z</time>
      </trkpt>
      <trkpt lat="48.7202" lon="1.94899">
        <ele>108.4</ele>
        <time>2026-01-13T10:06:02Z</time>
      </trkpt>
      <trkpt lat="48.7202" lon="1.94906">
        <ele>108.4</ele>
        <time>2026-01-13T10:06:03Z</time>
      </trkpt>
      <trkpt lat="48.72019" lon="1.94913">
        <ele>108.4</ele>
        <time>2026-01-13T10:06:04Z</time>
      </trkpt>
      <trkpt lat="48.72019" lon="1.94919">
        <ele>108.4</ele>
        <time>2026-01-13T10:06:05Z</time>
      </trkpt>
      <trkpt lat="48.72019" lon="1.94926">
        <ele>109</ele>
        <time>2026-01-13T10:06:06Z</time>
      </trkpt>
      <trkpt lat="48.72019" lon="1.94932">
        <ele>109.2</ele>
        <time>2026-01-13T10:06:07Z</time>
      </trkpt>
      <trkpt lat="48.7202" lon="1.94938">
        <ele>109.6</ele>
        <time>2026-01-13T10:06:08Z</time>
      </trkpt>
      <trkpt lat="48.7202" lon="1.94944">
        <ele>109.6</ele>
        <time>2026-01-13T10:06:09Z</time>
      </trkpt>
      <trkpt lat="48.72019" lon="1.9495">
        <ele>110</ele>
        <time>2026-01-13T10:06:10Z</time>
      </trkpt>
      <trkpt lat="48.72019" lon="1.94956">
        <ele>110.2</ele>
        <time>2026-01-13T10:06:11Z</time>
      </trkpt>
      <trkpt lat="48.72019" lon="1.94962">
        <ele>110.2</ele>
        <time>2026-01-13T10:06:12Z</time>
      </trkpt>
      <trkpt lat="48.72019" lon="1.94968">
        <ele>110.2</ele>
        <time>2026-01-13T10:06:13Z</time>
      </trkpt>
      <trkpt lat="48.72018" lon="1.94973">
        <ele>109.6</ele>
        <time>2026-01-13T10:06:14Z</time>
      </trkpt>
      <trkpt lat="48.72018" lon="1.94979">
        <ele>109.2</ele>
        <time>2026-01-13T10:06:15Z</time>
      </trkpt>
      <trkpt lat="48.72016" lon="1.94984">
        <ele>109.2</ele>
        <time>2026-01-13T10:06:16Z</time>
      </trkpt>
      <trkpt lat="48.72015" lon="1.9499">
        <ele>109.2</ele>
        <time>2026-01-13T10:06:17Z</time>
      </trkpt>
      <trkpt lat="48.72013" lon="1.94995">
        <ele>110</ele>
        <time>2026-01-13T10:06:18Z</time>
      </trkpt>
      <trkpt lat="48.72011" lon="1.95">
        <ele>110</ele>
        <time>2026-01-13T10:06:19Z</time>
      </trkpt>
      <trkpt lat="48.72009" lon="1.95005">
        <ele>110</ele>
        <time>2026-01-13T10:06:20Z</time>
      </trkpt>
      <trkpt lat="48.72007" lon="1.95009">
        <ele>110</ele>
        <time>2026-01-13T10:06:21Z</time>
      </trkpt>
      <trkpt lat="48.72004" lon="1.95012">
        <ele>110</ele>
        <time>2026-01-13T10:06:22Z</time>
      </trkpt>
      <trkpt lat="48.72001" lon="1.95016">
        <ele>110</ele>
        <time>2026-01-13T10:06:23Z</time>
      </trkpt>
      <trkpt lat="48.71998" lon="1.95019">
        <ele>110</ele>
        <time>2026-01-13T10:06:24Z</time>
      </trkpt>
      <trkpt lat="48.71996" lon="1.95022">
        <ele>111</ele>
        <time>2026-01-13T10:06:25Z</time>
      </trkpt>
      <trkpt lat="48.71994" lon="1.95024">
        <ele>111.4</ele>
        <time>2026-01-13T10:06:26Z</time>
      </trkpt>
      <trkpt lat="48.71991" lon="1.95027">
        <ele>111.4</ele>
        <time>2026-01-13T10:06:27Z</time>
      </trkpt>
      <trkpt lat="48.71989" lon="1.9503">
        <ele>111.4</ele>
        <time>2026-01-13T10:06:28Z</time>
      </trkpt>
      <trkpt lat="48.71986" lon="1.95033">
        <ele>111.4</ele>
        <time>2026-01-13T10:06:29Z</time>
      </trkpt>
      <trkpt lat="48.71984" lon="1.95036">
        <ele>112.4</ele>
        <time>2026-01-13T10:06:30Z</time>
      </trkpt>
      <trkpt lat="48.71982" lon="1.95039">
        <ele>112.4</ele>
        <time>2026-01-13T10:06:31Z</time>
      </trkpt>
      <trkpt lat="48.7198" lon="1.95042">
        <ele>112.4</ele>
        <time>2026-01-13T10:06:32Z</time>
      </trkpt>
      <trkpt lat="48.71978" lon="1.95046">
        <ele>112.4</ele>
        <time>2026-01-13T10:06:33Z</time>
      </trkpt>
      <trkpt lat="48.71976" lon="1.95051">
        <ele>113.2</ele>
        <time>2026-01-13T10:06:34Z</time>
      </trkpt>
      <trkpt lat="48.71974" lon="1.95055">
        <ele>113.2</ele>
        <time>2026-01-13T10:06:35Z</time>
      </trkpt>
      <trkpt lat="48.71972" lon="1.9506">
        <ele>113.2</ele>
        <time>2026-01-13T10:06:36Z</time>
      </trkpt>
      <trkpt lat="48.7197" lon="1.95065">
        <ele>113.2</ele>
        <time>2026-01-13T10:06:37Z</time>
      </trkpt>
      <trkpt lat="48.71968" lon="1.95071">
        <ele>113.2</ele>
        <time>2026-01-13T10:06:38Z</time>
      </trkpt>
      <trkpt lat="48.71966" lon="1.95076">
        <ele>113.2</ele>
        <time>2026-01-13T10:06:39Z</time>
      </trkpt>
      <trkpt lat="48.71964" lon="1.95082">
        <ele>113.2</ele>
        <time>2026-01-13T10:06:40Z</time>
      </trkpt>
      <trkpt lat="48.71962" lon="1.95088">
        <ele>113.4</ele>
        <time>2026-01-13T10:06:41Z</time>
      </trkpt>
      <trkpt lat="48.7196" lon="1.95093">
        <ele>113.4</ele>
        <time>2026-01-13T10:06:42Z</time>
      </trkpt>
      <trkpt lat="48.71958" lon="1.95099">
        <ele>113.4</ele>
        <time>2026-01-13T10:06:43Z</time>
      </trkpt>
      <trkpt lat="48.71956" lon="1.95105">
        <ele>113.4</ele>
        <time>2026-01-13T10:06:44Z</time>
      </trkpt>
      <trkpt lat="48.71954" lon="1.95111">
        <ele>113.6</ele>
        <time>2026-01-13T10:06:45Z</time>
      </trkpt>
      <trkpt lat="48.71952" lon="1.95116">
        <ele>113.6</ele>
        <time>2026-01-13T10:06:46Z</time>
      </trkpt>
      <trkpt lat="48.71949" lon="1.95121">
        <ele>113.6</ele>
        <time>2026-01-13T10:06:47Z</time>
      </trkpt>
      <trkpt lat="48.71947" lon="1.95125">
        <ele>113.6</ele>
        <time>2026-01-13T10:06:48Z</time>
      </trkpt>
      <trkpt lat="48.71945" lon="1.9513">
        <ele>113.6</ele>
        <time>2026-01-13T10:06:49Z</time>
      </trkpt>
      <trkpt lat="48.71943" lon="1.95134">
        <ele>113.6</ele>
        <time>2026-01-13T10:06:50Z</time>
      </trkpt>
      <trkpt lat="48.71941" lon="1.95139">
        <ele>114.6</ele>
        <time>2026-01-13T10:06:51Z</time>
      </trkpt>
      <trkpt lat="48.7194" lon="1.95143">
        <ele>114.8</ele>
        <time>2026-01-13T10:06:52Z</time>
      </trkpt>
      <trkpt lat="48.71938" lon="1.95146">
        <ele>115.6</ele>
        <time>2026-01-13T10:06:53Z</time>
      </trkpt>
      <trkpt lat="48.71937" lon="1.9515">
        <ele>116</ele>
        <time>2026-01-13T10:06:54Z</time>
      </trkpt>
      <trkpt lat="48.71934" lon="1.95154">
        <ele>116</ele>
        <time>2026-01-13T10:06:55Z</time>
      </trkpt>
      <trkpt lat="48.71933" lon="1.95156">
        <ele>116</ele>
        <time>2026-01-13T10:06:56Z</time>
      </trkpt>
      <trkpt lat="48.71931" lon="1.95159">
        <ele>116</ele>
        <time>2026-01-13T10:06:57Z</time>
      </trkpt>
      <trkpt lat="48.71929" lon="1.9516">
        <ele>116.2</ele>
        <time>2026-01-13T10:06:58Z</time>
      </trkpt>
      <trkpt lat="48.71927" lon="1.95163">
        <ele>116.6</ele>
        <time>2026-01-13T10:06:59Z</time>
      </trkpt>
      <trkpt lat="48.71925" lon="1.95166">
        <ele>117</ele>
        <time>2026-01-13T10:07:00Z</time>
      </trkpt>
      <trkpt lat="48.71922" lon="1.95169">
        <ele>117</ele>
        <time>2026-01-13T10:07:01Z</time>
      </trkpt>
      <trkpt lat="48.7192" lon="1.9517">
        <ele>117</ele>
        <time>2026-01-13T10:07:02Z</time>
      </trkpt>
      <trkpt lat="48.71918" lon="1.95171">
        <ele>117</ele>
        <time>2026-01-13T10:07:03Z</time>
      </trkpt>
      <trkpt lat="48.71916" lon="1.95173">
        <ele>117</ele>
        <time>2026-01-13T10:07:04Z</time>
      </trkpt>
      <trkpt lat="48.71914" lon="1.95174">
        <ele>117.8</ele>
        <time>2026-01-13T10:07:05Z</time>
      </trkpt>
      <trkpt lat="48.7191" lon="1.95175">
        <ele>118</ele>
        <time>2026-01-13T10:07:06Z</time>
      </trkpt>
      <trkpt lat="48.71907" lon="1.95176">
        <ele>118</ele>
        <time>2026-01-13T10:07:07Z</time>
      </trkpt>
      <trkpt lat="48.71905" lon="1.95176">
        <ele>118</ele>
        <time>2026-01-13T10:07:08Z</time>
      </trkpt>
      <trkpt lat="48.71902" lon="1.95176">
        <ele>118</ele>
        <time>2026-01-13T10:07:09Z</time>
      </trkpt>
      <trkpt lat="48.71899" lon="1.95175">
        <ele>118.4</ele>
        <time>2026-01-13T10:07:10Z</time>
      </trkpt>
      <trkpt lat="48.71896" lon="1.95177">
        <ele>118.8</ele>
        <time>2026-01-13T10:07:11Z</time>
      </trkpt>
      <trkpt lat="48.71893" lon="1.95176">
        <ele>119</ele>
        <time>2026-01-13T10:07:12Z</time>
      </trkpt>
      <trkpt lat="48.7189" lon="1.95175">
        <ele>119.4</ele>
        <time>2026-01-13T10:07:13Z</time>
      </trkpt>
      <trkpt lat="48.71887" lon="1.95173">
        <ele>119.6</ele>
        <time>2026-01-13T10:07:14Z</time>
      </trkpt>
      <trkpt lat="48.71885" lon="1.95172">
        <ele>119.6</ele>
        <time>2026-01-13T10:07:15Z</time>
      </trkpt>
      <trkpt lat="48.71883" lon="1.95169">
        <ele>119.6</ele>
        <time>2026-01-13T10:07:16Z</time>
      </trkpt>
      <trkpt lat="48.7188" lon="1.95168">
        <ele>119.6</ele>
        <time>2026-01-13T10:07:17Z</time>
      </trkpt>
      <trkpt lat="48.71878" lon="1.95166">
        <ele>120.6</ele>
        <time>2026-01-13T10:07:18Z</time>
      </trkpt>
      <trkpt lat="48.71876" lon="1.95164">
        <ele>121</ele>
        <time>2026-01-13T10:07:19Z</time>
      </trkpt>
      <trkpt lat="48.71873" lon="1.95162">
        <ele>121</ele>
        <time>2026-01-13T10:07:20Z</time>
      </trkpt>
      <trkpt lat="48.71872" lon="1.9516">
        <ele>121.4</ele>
        <time>2026-01-13T10:07:21Z</time>
      </trkpt>
      <trkpt lat="48.71871" lon="1.95157">
        <ele>121.4</ele>
        <time>2026-01-13T10:07:22Z</time>
      </trkpt>
      <trkpt lat="48.71869" lon="1.95154">
        <ele>121.4</ele>
        <time>2026-01-13T10:07:23Z</time>
      </trkpt>
      <trkpt lat="48.71868" lon="1.95151">
        <ele>121.4</ele>
        <time>2026-01-13T10:07:24Z</time>
      </trkpt>
      <trkpt lat="48.71867" lon="1.95148">
        <ele>121.4</ele>
        <time>2026-01-13T10:07:25Z</time>
      </trkpt>
      <trkpt lat="48.71865" lon="1.95144">
        <ele>121.4</ele>
        <time>2026-01-13T10:07:26Z</time>
      </trkpt>
      <trkpt lat="48.71864" lon="1.9514">
        <ele>122</ele>
        <time>2026-01-13T10:07:27Z</time>
      </trkpt>
      <trkpt lat="48.71863" lon="1.95136">
        <ele>122</ele>
        <time>2026-01-13T10:07:28Z</time>
      </trkpt>
      <trkpt lat="48.71862" lon="1.95133">
        <ele>122</ele>
        <time>2026-01-13T10:07:29Z</time>
      </trkpt>
      <trkpt lat="48.71861" lon="1.95129">
        <ele>122</ele>
        <time>2026-01-13T10:07:30Z</time>
      </trkpt>
      <trkpt lat="48.7186" lon="1.95125">
        <ele>122</ele>
        <time>2026-01-13T10:07:31Z</time>
      </trkpt>
      <trkpt lat="48.71858" lon="1.95121">
        <ele>123</ele>
        <time>2026-01-13T10:07:32Z</time>
      </trkpt>
      <trkpt lat="48.71857" lon="1.95117">
        <ele>123.2</ele>
        <time>2026-01-13T10:07:33Z</time>
      </trkpt>
      <trkpt lat="48.71856" lon="1.95113">
        <ele>123.2</ele>
        <time>2026-01-13T10:07:34Z</time>
      </trkpt>
      <trkpt lat="48.71854" lon="1.95109">
        <ele>123.8</ele>
        <time>2026-01-13T10:07:35Z</time>
      </trkpt>
      <trkpt lat="48.71853" lon="1.95104">
        <ele>123.8</ele>
        <time>2026-01-13T10:07:36Z</time>
      </trkpt>
      <trkpt lat="48.71851" lon="1.951">
        <ele>124.2</ele>
        <time>2026-01-13T10:07:37Z</time>
      </trkpt>
      <trkpt lat="48.7185" lon="1.95097">
        <ele>124.8</ele>
        <time>2026-01-13T10:07:38Z</time>
      </trkpt>
      <trkpt lat="48.71848" lon="1.95094">
        <ele>124.8</ele>
        <time>2026-01-13T10:07:39Z</time>
      </trkpt>
      <trkpt lat="48.71846" lon="1.9509">
        <ele>124.8</ele>
        <time>2026-01-13T10:07:40Z</time>
      </trkpt>
      <trkpt lat="48.71844" lon="1.95087">
        <ele>124.8</ele>
        <time>2026-01-13T10:07:41Z</time>
      </trkpt>
      <trkpt lat="48.71843" lon="1.95083">
        <ele>124.8</ele>
        <time>2026-01-13T10:07:42Z</time>
      </trkpt>
      <trkpt lat="48.71841" lon="1.9508">
        <ele>125.2</ele>
        <time>2026-01-13T10:07:43Z</time>
      </trkpt>
      <trkpt lat="48.71839" lon="1.95076">
        <ele>125.4</ele>
        <time>2026-01-13T10:07:44Z</time>
      </trkpt>
      <trkpt lat="48.71837" lon="1.95073">
        <ele>125.8</ele>
        <time>2026-01-13T10:07:45Z</time>
      </trkpt>
      <trkpt lat="48.71835" lon="1.9507">
        <ele>126.4</ele>
        <time>2026-01-13T10:07:46Z</time>
      </trkpt>
      <trkpt lat="48.71832" lon="1.95068">
        <ele>126.4</ele>
        <time>2026-01-13T10:07:47Z</time>
      </trkpt>
      <trkpt lat="48.7183" lon="1.95065">
        <ele>126.4</ele>
        <time>2026-01-13T10:07:48Z</time>
      </trkpt>
      <trkpt lat="48.71827" lon="1.95062">
        <ele>126.4</ele>
        <time>2026-01-13T10:07:49Z</time>
      </trkpt>
      <trkpt lat="48.71825" lon="1.9506">
        <ele>126.8</ele>
        <time>2026-01-13T10:07:50Z</time>
      </trkpt>
      <trkpt lat="48.71822" lon="1.95058">
        <ele>127</ele>
        <time>2026-01-13T10:07:51Z</time>
      </trkpt>
      <trkpt lat="48.7182" lon="1.95056">
        <ele>127.4</ele>
        <time>2026-01-13T10:07:52Z</time>
      </trkpt>
      <trkpt lat="48.71817" lon="1.95053">
        <ele>127.4</ele>
        <time>2026-01-13T10:07:53Z</time>
      </trkpt>
      <trkpt lat="48.71815" lon="1.95051">
        <ele>127.4</ele>
        <time>2026-01-13T10:07:54Z</time>
      </trkpt>
      <trkpt lat="48.71812" lon="1.95049">
        <ele>127.4</ele>
        <time>2026-01-13T10:07:55Z</time>
      </trkpt>
      <trkpt lat="48.71809" lon="1.95047">
        <ele>128.2</ele>
        <time>2026-01-13T10:07:56Z</time>
      </trkpt>
      <trkpt lat="48.71807" lon="1.95045">
        <ele>128.2</ele>
        <time>2026-01-13T10:07:57Z</time>
      </trkpt>
      <trkpt lat="48.71804" lon="1.95043">
        <ele>128.8</ele>
        <time>2026-01-13T10:07:58Z</time>
      </trkpt>
      <trkpt lat="48.71801" lon="1.95041">
        <ele>128.8</ele>
        <time>2026-01-13T10:07:59Z</time>
      </trkpt>
      <trkpt lat="48.71798" lon="1.9504">
        <ele>129.2</ele>
        <time>2026-01-13T10:08:00Z</time>
      </trkpt>
      <trkpt lat="48.71795" lon="1.95038">
        <ele>129.4</ele>
        <time>2026-01-13T10:08:01Z</time>
      </trkpt>
      <trkpt lat="48.71793" lon="1.95036">
        <ele>129.6</ele>
        <time>2026-01-13T10:08:02Z</time>
      </trkpt>
      <trkpt lat="48.7179" lon="1.95034">
        <ele>129.6</ele>
        <time>2026-01-13T10:08:03Z</time>
      </trkpt>
      <trkpt lat="48.71787" lon="1.95032">
        <ele>129.6</ele>
        <time>2026-01-13T10:08:04Z</time>
      </trkpt>
      <trkpt lat="48.71784" lon="1.9503">
        <ele>129.6</ele>
        <time>2026-01-13T10:08:05Z</time>
      </trkpt>
      <trkpt lat="48.71781" lon="1.95029">
        <ele>130</ele>
        <time>2026-01-13T10:08:06Z</time>
      </trkpt>
      <trkpt lat="48.71779" lon="1.95028">
        <ele>130.2</ele>
        <time>2026-01-13T10:08:07Z</time>
      </trkpt>
      <trkpt lat="48.71775" lon="1.95027">
        <ele>130.2</ele>
        <time>2026-01-13T10:08:08Z</time>
      </trkpt>
      <trkpt lat="48.71773" lon="1.95026">
        <ele>130.2</ele>
        <time>2026-01-13T10:08:09Z</time>
      </trkpt>
      <trkpt lat="48.7177" lon="1.95026">
        <ele>130.2</ele>
        <time>2026-01-13T10:08:10Z</time>
      </trkpt>
      <trkpt lat="48.71766" lon="1.95025">
        <ele>130.6</ele>
        <time>2026-01-13T10:08:11Z</time>
      </trkpt>
      <trkpt lat="48.71763" lon="1.95025">
        <ele>131.2</ele>
        <time>2026-01-13T10:08:12Z</time>
      </trkpt>
      <trkpt lat="48.71761" lon="1.95024">
        <ele>131.2</ele>
        <time>2026-01-13T10:08:13Z</time>
      </trkpt>
      <trkpt lat="48.71758" lon="1.95023">
        <ele>131.2</ele>
        <time>2026-01-13T10:08:14Z</time>
      </trkpt>
      <trkpt lat="48.71754" lon="1.95023">
        <ele>131.2</ele>
        <time>2026-01-13T10:08:15Z</time>
      </trkpt>
      <trkpt lat="48.71751" lon="1.95023">
        <ele>132.2</ele>
        <time>2026-01-13T10:08:16Z</time>
      </trkpt>
      <trkpt lat="48.71748" lon="1.95023">
        <ele>132.6</ele>
        <time>2026-01-13T10:08:17Z</time>
      </trkpt>
      <trkpt lat="48.71746" lon="1.95022">
        <ele>132.8</ele>
        <time>2026-01-13T10:08:18Z</time>
      </trkpt>
      <trkpt lat="48.71743" lon="1.95022">
        <ele>133</ele>
        <time>2026-01-13T10:08:19Z</time>
      </trkpt>
      <trkpt lat="48.7174" lon="1.95021">
        <ele>133</ele>
        <time>2026-01-13T10:08:20Z</time>
      </trkpt>
      <trkpt lat="48.71737" lon="1.9502">
        <ele>133</ele>
        <time>2026-01-13T10:08:21Z</time>
      </trkpt>
      <trkpt lat="48.71734" lon="1.95019">
        <ele>133</ele>
        <time>2026-01-13T10:08:22Z</time>
      </trkpt>
      <trkpt lat="48.71731" lon="1.9502">
        <ele>133.8</ele>
        <time>2026-01-13T10:08:23Z</time>
      </trkpt>
      <trkpt lat="48.71728" lon="1.95019">
        <ele>133.8</ele>
        <time>2026-01-13T10:08:24Z</time>
      </trkpt>
      <trkpt lat="48.71725" lon="1.95019">
        <ele>133.8</ele>
        <time>2026-01-13T10:08:25Z</time>
      </trkpt>
      <trkpt lat="48.71722" lon="1.95018">
        <ele>133.8</ele>
        <time>2026-01-13T10:08:26Z</time>
      </trkpt>
      <trkpt lat="48.71719" lon="1.95018">
        <ele>133.8</ele>
        <time>2026-01-13T10:08:27Z</time>
      </trkpt>
      <trkpt lat="48.71717" lon="1.95017">
        <ele>134.6</ele>
        <time>2026-01-13T10:08:28Z</time>
      </trkpt>
      <trkpt lat="48.71714" lon="1.95017">
        <ele>135.2</ele>
        <time>2026-01-13T10:08:29Z</time>
      </trkpt>
      <trkpt lat="48.71711" lon="1.95016">
        <ele>135.2</ele>
        <time>2026-01-13T10:08:30Z</time>
      </trkpt>
      <trkpt lat="48.71708" lon="1.95016">
        <ele>135.2</ele>
        <time>2026-01-13T10:08:31Z</time>
      </trkpt>
      <trkpt lat="48.71705" lon="1.95014">
        <ele>135.2</ele>
        <time>2026-01-13T10:08:32Z</time>
      </trkpt>
      <trkpt lat="48.71702" lon="1.95013">
        <ele>135.2</ele>
        <time>2026-01-13T10:08:33Z</time>
      </trkpt>
      <trkpt lat="48.71699" lon="1.95013">
        <ele>136</ele>
        <time>2026-01-13T10:08:34Z</time>
      </trkpt>
      <trkpt lat="48.71696" lon="1.95012">
        <ele>136</ele>
        <time>2026-01-13T10:08:35Z</time>
      </trkpt>
      <trkpt lat="48.71693" lon="1.95011">
        <ele>136</ele>
        <time>2026-01-13T10:08:36Z</time>
      </trkpt>
      <trkpt lat="48.7169" lon="1.9501">
        <ele>136</ele>
        <time>2026-01-13T10:08:37Z</time>
      </trkpt>
      <trkpt lat="48.71687" lon="1.95009">
        <ele>136.6</ele>
        <time>2026-01-13T10:08:38Z</time>
      </trkpt>
      <trkpt lat="48.71684" lon="1.95008">
        <ele>136.8</ele>
        <time>2026-01-13T10:08:39Z</time>
      </trkpt>
      <trkpt lat="48.71682" lon="1.95007">
        <ele>137</ele>
        <time>2026-01-13T10:08:40Z</time>
      </trkpt>
      <trkpt lat="48.71679" lon="1.95006">
        <ele>137.4</ele>
        <time>2026-01-13T10:08:41Z</time>
      </trkpt>
      <trkpt lat="48.71676" lon="1.95004">
        <ele>138</ele>
        <time>2026-01-13T10:08:42Z</time>
      </trkpt>
      <trkpt lat="48.71674" lon="1.95002">
        <ele>138</ele>
        <time>2026-01-13T10:08:43Z</time>
      </trkpt>
      <trkpt lat="48.71671" lon="1.95">
        <ele>138</ele>
        <time>2026-01-13T10:08:44Z</time>
      </trkpt>
      <trkpt lat="48.71669" lon="1.94998">
        <ele>138</ele>
        <time>2026-01-13T10:08:45Z</time>
      </trkpt>
      <trkpt lat="48.71666" lon="1.94996">
        <ele>138.8</ele>
        <time>2026-01-13T10:08:46Z</time>
      </trkpt>
      <trkpt lat="48.71663" lon="1.94995">
        <ele>138.8</ele>
        <time>2026-01-13T10:08:47Z</time>
      </trkpt>
      <trkpt lat="48.71661" lon="1.94993">
        <ele>138.8</ele>
        <time>2026-01-13T10:08:48Z</time>
      </trkpt>
      <trkpt lat="48.71658" lon="1.94991">
        <ele>138.8</ele>
        <time>2026-01-13T10:08:49Z</time>
      </trkpt>
      <trkpt lat="48.71656" lon="1.9499">
        <ele>139.8</ele>
        <time>2026-01-13T10:08:50Z</time>
      </trkpt>
      <trkpt lat="48.71653" lon="1.94988">
        <ele>139.8</ele>
        <time>2026-01-13T10:08:51Z</time>
      </trkpt>
      <trkpt lat="48.7165" lon="1.94986">
        <ele>140.4</ele>
        <time>2026-01-13T10:08:52Z</time>
      </trkpt>
      <trkpt lat="48.71647" lon="1.94984">
        <ele>140.4</ele>
        <time>2026-01-13T10:08:53Z</time>
      </trkpt>
      <trkpt lat="48.71644" lon="1.94982">
        <ele>140.4</ele>
        <time>2026-01-13T10:08:54Z</time>
      </trkpt>
      <trkpt lat="48.71641" lon="1.9498">
        <ele>140.4</ele>
        <time>2026-01-13T10:08:55Z</time>
      </trkpt>
      <trkpt lat="48.71638" lon="1.94979">
        <ele>141</ele>
        <time>2026-01-13T10:08:56Z</time>
      </trkpt>
      <trkpt lat="48.71636" lon="1.94977">
        <ele>141</ele>
        <time>2026-01-13T10:08:57Z</time>
      </trkpt>
      <trkpt lat="48.71633" lon="1.94976">
        <ele>141</ele>
        <time>2026-01-13T10:08:58Z</time>
      </trkpt>
      <trkpt lat="48.7163" lon="1.94975">
        <ele>141</ele>
        <time>2026-01-13T10:08:59Z</time>
      </trkpt>
      <trkpt lat="48.71627" lon="1.94974">
        <ele>141.2</ele>
        <time>2026-01-13T10:09:00Z</time>
      </trkpt>
      <trkpt lat="48.71624" lon="1.94972">
        <ele>141.6</ele>
        <time>2026-01-13T10:09:01Z</time>
      </trkpt>
      <trkpt lat="48.71622" lon="1.94971">
        <ele>141.8</ele>
        <time>2026-01-13T10:09:02Z</time>
      </trkpt>
      <trkpt lat="48.71618" lon="1.9497">
        <ele>142</ele>
        <time>2026-01-13T10:09:03Z</time>
      </trkpt>
      <trkpt lat="48.71616" lon="1.9497">
        <ele>142.4</ele>
        <time>2026-01-13T10:09:04Z</time>
      </trkpt>
      <trkpt lat="48.71613" lon="1.94971">
        <ele>142.4</ele>
        <time>2026-01-13T10:09:05Z</time>
      </trkpt>
      <trkpt lat="48.7161" lon="1.94972">
        <ele>142.4</ele>
        <time>2026-01-13T10:09:06Z</time>
      </trkpt>
      <trkpt lat="48.71607" lon="1.94972">
        <ele>142.4</ele>
        <time>2026-01-13T10:09:07Z</time>
      </trkpt>
      <trkpt lat="48.71604" lon="1.94972">
        <ele>143.2</ele>
        <time>2026-01-13T10:09:08Z</time>
      </trkpt>
      <trkpt lat="48.71601" lon="1.9497">
        <ele>143.2</ele>
        <time>2026-01-13T10:09:09Z</time>
      </trkpt>
      <trkpt lat="48.71598" lon="1.9497">
        <ele>143.4</ele>
        <time>2026-01-13T10:09:10Z</time>
      </trkpt>
      <trkpt lat="48.71595" lon="1.94971">
        <ele>143.6</ele>
        <time>2026-01-13T10:09:11Z</time>
      </trkpt>
      <trkpt lat="48.71591" lon="1.94971">
        <ele>143.6</ele>
        <time>2026-01-13T10:09:12Z</time>
      </trkpt>
      <trkpt lat="48.71588" lon="1.9497">
        <ele>143.6</ele>
        <time>2026-01-13T10:09:13Z</time>
      </trkpt>
      <trkpt lat="48.71585" lon="1.9497">
        <ele>143.6</ele>
        <time>2026-01-13T10:09:14Z</time>
      </trkpt>
      <trkpt lat="48.71582" lon="1.94971">
        <ele>143.6</ele>
        <time>2026-01-13T10:09:15Z</time>
      </trkpt>
      <trkpt lat="48.71579" lon="1.94972">
        <ele>144.4</ele>
        <time>2026-01-13T10:09:16Z</time>
      </trkpt>
      <trkpt lat="48.71576" lon="1.94972">
        <ele>144.4</ele>
        <time>2026-01-13T10:09:17Z</time>
      </trkpt>
      <trkpt lat="48.71573" lon="1.94973">
        <ele>144.4</ele>
        <time>2026-01-13T10:09:18Z</time>
      </trkpt>
      <trkpt lat="48.7157" lon="1.94974">
        <ele>144.4</ele>
        <time>2026-01-13T10:09:19Z</time>
      </trkpt>
      <trkpt lat="48.71566" lon="1.94974">
        <ele>145.2</ele>
        <time>2026-01-13T10:09:20Z</time>
      </trkpt>
      <trkpt lat="48.71562" lon="1.94975">
        <ele>146</ele>
        <time>2026-01-13T10:09:21Z</time>
      </trkpt>
      <trkpt lat="48.71559" lon="1.94975">
        <ele>146</ele>
        <time>2026-01-13T10:09:22Z</time>
      </trkpt>
      <trkpt lat="48.71556" lon="1.94975">
        <ele>146</ele>
        <time>2026-01-13T10:09:23Z</time>
      </trkpt>
      <trkpt lat="48.71553" lon="1.94975">
        <ele>145.8</ele>
        <time>2026-01-13T10:09:24Z</time>
      </trkpt>
      <trkpt lat="48.71549" lon="1.94974">
        <ele>145.8</ele>
        <time>2026-01-13T10:09:25Z</time>
      </trkpt>
      <trkpt lat="48.71546" lon="1.94973">
        <ele>145.8</ele>
        <time>2026-01-13T10:09:26Z</time>
      </trkpt>
      <trkpt lat="48.71543" lon="1.94971">
        <ele>146.6</ele>
        <time>2026-01-13T10:09:27Z</time>
      </trkpt>
      <trkpt lat="48.71541" lon="1.9497">
        <ele>146.8</ele>
        <time>2026-01-13T10:09:28Z</time>
      </trkpt>
      <trkpt lat="48.71538" lon="1.94968">
        <ele>146.8</ele>
        <time>2026-01-13T10:09:29Z</time>
      </trkpt>
      <trkpt lat="48.71535" lon="1.94966">
        <ele>147.4</ele>
        <time>2026-01-13T10:09:30Z</time>
      </trkpt>
      <trkpt lat="48.71533" lon="1.94965">
        <ele>147.4</ele>
        <time>2026-01-13T10:09:31Z</time>
      </trkpt>
      <trkpt lat="48.7153" lon="1.94962">
        <ele>148</ele>
        <time>2026-01-13T10:09:32Z</time>
      </trkpt>
      <trkpt lat="48.71528" lon="1.9496">
        <ele>148.2</ele>
        <time>2026-01-13T10:09:33Z</time>
      </trkpt>
      <trkpt lat="48.71525" lon="1.94957">
        <ele>148.4</ele>
        <time>2026-01-13T10:09:34Z</time>
      </trkpt>
      <trkpt lat="48.71522" lon="1.94954">
        <ele>148.4</ele>
        <time>2026-01-13T10:09:35Z</time>
      </trkpt>
      <trkpt lat="48.7152" lon="1.94952">
        <ele>148.4</ele>
        <time>2026-01-13T10:09:36Z</time>
      </trkpt>
      <trkpt lat="48.71517" lon="1.94949">
        <ele>148.4</ele>
        <time>2026-01-13T10:09:37Z</time>
      </trkpt>
      <trkpt lat="48.71515" lon="1.94946">
        <ele>149.4</ele>
        <time>2026-01-13T10:09:38Z</time>
      </trkpt>
      <trkpt lat="48.71513" lon="1.94943">
        <ele>149.8</ele>
        <time>2026-01-13T10:09:39Z</time>
      </trkpt>
      <trkpt lat="48.7151" lon="1.94939">
        <ele>150</ele>
        <time>2026-01-13T10:09:40Z</time>
      </trkpt>
      <trkpt lat="48.71507" lon="1.94936">
        <ele>150.4</ele>
        <time>2026-01-13T10:09:41Z</time>
      </trkpt>
      <trkpt lat="48.71504" lon="1.94933">
        <ele>150.4</ele>
        <time>2026-01-13T10:09:42Z</time>
      </trkpt>
      <trkpt lat="48.71502" lon="1.9493">
        <ele>150.4</ele>
        <time>2026-01-13T10:09:43Z</time>
      </trkpt>
      <trkpt lat="48.71499" lon="1.94927">
        <ele>150.4</ele>
        <time>2026-01-13T10:09:44Z</time>
      </trkpt>
      <trkpt lat="48.71496" lon="1.94925">
        <ele>150.4</ele>
        <time>2026-01-13T10:09:45Z</time>
      </trkpt>
      <trkpt lat="48.71493" lon="1.94923">
        <ele>151</ele>
        <time>2026-01-13T10:09:46Z</time>
      </trkpt>
      <trkpt lat="48.7149" lon="1.9492">
        <ele>151</ele>
        <time>2026-01-13T10:09:47Z</time>
      </trkpt>
      <trkpt lat="48.71487" lon="1.94918">
        <ele>151</ele>
        <time>2026-01-13T10:09:48Z</time>
      </trkpt>
      <trkpt lat="48.71485" lon="1.94917">
        <ele>151</ele>
        <time>2026-01-13T10:09:49Z</time>
      </trkpt>
      <trkpt lat="48.71482" lon="1.94916">
        <ele>151</ele>
        <time>2026-01-13T10:09:50Z</time>
      </trkpt>
      <trkpt lat="48.7148" lon="1.94913">
        <ele>151</ele>
        <time>2026-01-13T10:09:51Z</time>
      </trkpt>
      <trkpt lat="48.71477" lon="1.9491">
        <ele>151</ele>
        <time>2026-01-13T10:09:52Z</time>
      </trkpt>
      <trkpt lat="48.71473" lon="1.94908">
        <ele>151.4</ele>
        <time>2026-01-13T10:09:53Z</time>
      </trkpt>
      <trkpt lat="48.71471" lon="1.94906">
        <ele>151.4</ele>
        <time>2026-01-13T10:09:54Z</time>
      </trkpt>
      <trkpt lat="48.71468" lon="1.94904">
        <ele>151.4</ele>
        <time>2026-01-13T10:09:55Z</time>
      </trkpt>
      <trkpt lat="48.71465" lon="1.94903">
        <ele>151.4</ele>
        <time>2026-01-13T10:09:56Z</time>
      </trkpt>
      <trkpt lat="48.71461" lon="1.94902">
        <ele>151.4</ele>
        <time>2026-01-13T10:09:57Z</time>
      </trkpt>
      <trkpt lat="48.71458" lon="1.94901">
        <ele>151.4</ele>
        <time>2026-01-13T10:09:58Z</time>
      </trkpt>
      <trkpt lat="48.71455" lon="1.949">
        <ele>152.4</ele>
        <time>2026-01-13T10:09:59Z</time>
      </trkpt>
      <trkpt lat="48.71452" lon="1.949">
        <ele>152.8</ele>
        <time>2026-01-13T10:10:00Z</time>
      </trkpt>
      <trkpt lat="48.71449" lon="1.94899">
        <ele>152.8</ele>
        <time>2026-01-13T10:10:01Z</time>
      </trkpt>
      <trkpt lat="48.71445" lon="1.94899">
        <ele>152.8</ele>
        <time>2026-01-13T10:10:02Z</time>
      </trkpt>
      <trkpt lat="48.71442" lon="1.94899">
        <ele>152.8</ele>
        <time>2026-01-13T10:10:03Z</time>
      </trkpt>
      <trkpt lat="48.71439" lon="1.949">
        <ele>153.8</ele>
        <time>2026-01-13T10:10:04Z</time>
      </trkpt>
      <trkpt lat="48.71436" lon="1.949">
        <ele>154.4</ele>
        <time>2026-01-13T10:10:05Z</time>
      </trkpt>
      <trkpt lat="48.71433" lon="1.94901">
        <ele>154.4</ele>
        <time>2026-01-13T10:10:06Z</time>
      </trkpt>
      <trkpt lat="48.7143" lon="1.94902">
        <ele>154.4</ele>
        <time>2026-01-13T10:10:07Z</time>
      </trkpt>
      <trkpt lat="48.71426" lon="1.94903">
        <ele>154.4</ele>
        <time>2026-01-13T10:10:08Z</time>
      </trkpt>
      <trkpt lat="48.71423" lon="1.94904">
        <ele>155.4</ele>
        <time>2026-01-13T10:10:09Z</time>
      </trkpt>
      <trkpt lat="48.7142" lon="1.94906">
        <ele>155.6</ele>
        <time>2026-01-13T10:10:10Z</time>
      </trkpt>
      <trkpt lat="48.71417" lon="1.94908">
        <ele>155.6</ele>
        <time>2026-01-13T10:10:11Z</time>
      </trkpt>
      <trkpt lat="48.71414" lon="1.9491">
        <ele>155.6</ele>
        <time>2026-01-13T10:10:12Z</time>
      </trkpt>
      <trkpt lat="48.71411" lon="1.94912">
        <ele>155.6</ele>
        <time>2026-01-13T10:10:13Z</time>
      </trkpt>
      <trkpt lat="48.71408" lon="1.94914">
        <ele>155.6</ele>
        <time>2026-01-13T10:10:14Z</time>
      </trkpt>
      <trkpt lat="48.71406" lon="1.94916">
        <ele>156.6</ele>
        <time>2026-01-13T10:10:15Z</time>
      </trkpt>
      <trkpt lat="48.71403" lon="1.94918">
        <ele>157.2</ele>
        <time>2026-01-13T10:10:16Z</time>
      </trkpt>
      <trkpt lat="48.714" lon="1.94919">
        <ele>157.2</ele>
        <time>2026-01-13T10:10:17Z</time>
      </trkpt>
      <trkpt lat="48.71397" lon="1.94922">
        <ele>157.2</ele>
        <time>2026-01-13T10:10:18Z</time>
      </trkpt>
      <trkpt lat="48.71395" lon="1.94923">
        <ele>157.2</ele>
        <time>2026-01-13T10:10:19Z</time>
      </trkpt>
      <trkpt lat="48.71392" lon="1.94925">
        <ele>158.2</ele>
        <time>2026-01-13T10:10:20Z</time>
      </trkpt>
      <trkpt lat="48.71389" lon="1.94927">
        <ele>158.6</ele>
        <time>2026-01-13T10:10:21Z</time>
      </trkpt>
      <trkpt lat="48.71386" lon="1.94929">
        <ele>158.8</ele>
        <time>2026-01-13T10:10:22Z</time>
      </trkpt>
      <trkpt lat="48.71383" lon="1.94931">
        <ele>158.8</ele>
        <time>2026-01-13T10:10:23Z</time>
      </trkpt>
      <trkpt lat="48.71381" lon="1.94933">
        <ele>158.8</ele>
        <time>2026-01-13T10:10:24Z</time>
      </trkpt>
      <trkpt lat="48.71378" lon="1.94935">
        <ele>158.8</ele>
        <time>2026-01-13T10:10:25Z</time>
      </trkpt>
      <trkpt lat="48.71375" lon="1.94937">
        <ele>159</ele>
        <time>2026-01-13T10:10:26Z</time>
      </trkpt>
      <trkpt lat="48.71372" lon="1.94939">
        <ele>159</ele>
        <time>2026-01-13T10:10:27Z</time>
      </trkpt>
      <trkpt lat="48.71369" lon="1.94941">
        <ele>159</ele>
        <time>2026-01-13T10:10:28Z</time>
      </trkpt>
      <trkpt lat="48.71366" lon="1.94944">
        <ele>159</ele>
        <time>2026-01-13T10:10:29Z</time>
      </trkpt>
      <trkpt lat="48.71363" lon="1.94946">
        <ele>159</ele>
        <time>2026-01-13T10:10:30Z</time>
      </trkpt>
      <trkpt lat="48.7136" lon="1.94948">
        <ele>159</ele>
        <time>2026-01-13T10:10:31Z</time>
      </trkpt>
      <trkpt lat="48.71357" lon="1.94951">
        <ele>159</ele>
        <time>2026-01-13T10:10:32Z</time>
      </trkpt>
      <trkpt lat="48.71355" lon="1.94953">
        <ele>159.6</ele>
        <time>2026-01-13T10:10:33Z</time>
      </trkpt>
      <trkpt lat="48.71352" lon="1.94956">
        <ele>160.2</ele>
        <time>2026-01-13T10:10:34Z</time>
      </trkpt>
      <trkpt lat="48.71349" lon="1.94958">
        <ele>160.2</ele>
        <time>2026-01-13T10:10:35Z</time>
      </trkpt>
      <trkpt lat="48.71346" lon="1.94961">
        <ele>160.2</ele>
        <time>2026-01-13T10:10:36Z</time>
      </trkpt>
      <trkpt lat="48.71343" lon="1.94963">
        <ele>160.2</ele>
        <time>2026-01-13T10:10:37Z</time>
      </trkpt>
      <trkpt lat="48.7134" lon="1.94965">
        <ele>160.4</ele>
        <time>2026-01-13T10:10:38Z</time>
      </trkpt>
      <trkpt lat="48.71337" lon="1.94967">
        <ele>160.4</ele>
        <time>2026-01-13T10:10:39Z</time>
      </trkpt>
      <trkpt lat="48.71334" lon="1.9497">
        <ele>160.4</ele>
        <time>2026-01-13T10:10:40Z</time>
      </trkpt>
      <trkpt lat="48.71331" lon="1.94972">
        <ele>160.4</ele>
        <time>2026-01-13T10:10:41Z</time>
      </trkpt>
      <trkpt lat="48.71328" lon="1.94974">
        <ele>161</ele>
        <time>2026-01-13T10:10:42Z</time>
      </trkpt>
      <trkpt lat="48.71325" lon="1.94977">
        <ele>161.6</ele>
        <time>2026-01-13T10:10:43Z</time>
      </trkpt>
      <trkpt lat="48.71322" lon="1.94979">
        <ele>162</ele>
        <time>2026-01-13T10:10:44Z</time>
      </trkpt>
      <trkpt lat="48.71319" lon="1.94982">
        <ele>162</ele>
        <time>2026-01-13T10:10:45Z</time>
      </trkpt>
      <trkpt lat="48.71316" lon="1.94984">
        <ele>162</ele>
        <time>2026-01-13T10:10:46Z</time>
      </trkpt>
      <trkpt lat="48.71313" lon="1.94987">
        <ele>162</ele>
        <time>2026-01-13T10:10:47Z</time>
      </trkpt>
      <trkpt lat="48.71309" lon="1.94989">
        <ele>162</ele>
        <time>2026-01-13T10:10:48Z</time>
      </trkpt>
      <trkpt lat="48.71306" lon="1.94992">
        <ele>162.4</ele>
        <time>2026-01-13T10:10:49Z</time>
      </trkpt>
      <trkpt lat="48.71303" lon="1.94994">
        <ele>162.4</ele>
        <time>2026-01-13T10:10:50Z</time>
      </trkpt>
      <trkpt lat="48.713" lon="1.94997">
        <ele>162.4</ele>
        <time>2026-01-13T10:10:51Z</time>
      </trkpt>
      <trkpt lat="48.71297" lon="1.94999">
        <ele>162.2</ele>
        <time>2026-01-13T10:10:52Z</time>
      </trkpt>
      <trkpt lat="48.71294" lon="1.95002">
        <ele>162.2</ele>
        <time>2026-01-13T10:10:53Z</time>
      </trkpt>
      <trkpt lat="48.71291" lon="1.95004">
        <ele>162.2</ele>
        <time>2026-01-13T10:10:54Z</time>
      </trkpt>
      <trkpt lat="48.71287" lon="1.95007">
        <ele>162.2</ele>
        <time>2026-01-13T10:10:55Z</time>
      </trkpt>
      <trkpt lat="48.71284" lon="1.9501">
        <ele>162.2</ele>
        <time>2026-01-13T10:10:56Z</time>
      </trkpt>
      <trkpt lat="48.71281" lon="1.95012">
        <ele>163</ele>
        <time>2026-01-13T10:10:57Z</time>
      </trkpt>
      <trkpt lat="48.71277" lon="1.95015">
        <ele>163.2</ele>
        <time>2026-01-13T10:10:58Z</time>
      </trkpt>
      <trkpt lat="48.71274" lon="1.95017">
        <ele>163.2</ele>
        <time>2026-01-13T10:10:59Z</time>
      </trkpt>
      <trkpt lat="48.7127" lon="1.9502">
        <ele>163.2</ele>
        <time>2026-01-13T10:11:00Z</time>
      </trkpt>
      <trkpt lat="48.71267" lon="1.95023">
        <ele>163.2</ele>
        <time>2026-01-13T10:11:01Z</time>
      </trkpt>
      <trkpt lat="48.71264" lon="1.95025">
        <ele>163.2</ele>
        <time>2026-01-13T10:11:02Z</time>
      </trkpt>
      <trkpt lat="48.7126" lon="1.95028">
        <ele>163.8</ele>
        <time>2026-01-13T10:11:03Z</time>
      </trkpt>
      <trkpt lat="48.71257" lon="1.95031">
        <ele>164.2</ele>
        <time>2026-01-13T10:11:04Z</time>
      </trkpt>
      <trkpt lat="48.71253" lon="1.95033">
        <ele>164.2</ele>
        <time>2026-01-13T10:11:05Z</time>
      </trkpt>
      <trkpt lat="48.7125" lon="1.95036">
        <ele>164.2</ele>
        <time>2026-01-13T10:11:06Z</time>
      </trkpt>
      <trkpt lat="48.71246" lon="1.95039">
        <ele>164.2</ele>
        <time>2026-01-13T10:11:07Z</time>
      </trkpt>
      <trkpt lat="48.71243" lon="1.95041">
        <ele>164.8</ele>
        <time>2026-01-13T10:11:08Z</time>
      </trkpt>
      <trkpt lat="48.71239" lon="1.95044">
        <ele>164.8</ele>
        <time>2026-01-13T10:11:09Z</time>
      </trkpt>
      <trkpt lat="48.71235" lon="1.95047">
        <ele>164.8</ele>
        <time>2026-01-13T10:11:10Z</time>
      </trkpt>
      <trkpt lat="48.71232" lon="1.9505">
        <ele>164.8</ele>
        <time>2026-01-13T10:11:11Z</time>
      </trkpt>
      <trkpt lat="48.71228" lon="1.95053">
        <ele>164.8</ele>
        <time>2026-01-13T10:11:12Z</time>
      </trkpt>
      <trkpt lat="48.71224" lon="1.95056">
        <ele>165.2</ele>
        <time>2026-01-13T10:11:13Z</time>
      </trkpt>
      <trkpt lat="48.7122" lon="1.95058">
        <ele>165.6</ele>
        <time>2026-01-13T10:11:14Z</time>
      </trkpt>
      <trkpt lat="48.71216" lon="1.95061">
        <ele>165.6</ele>
        <time>2026-01-13T10:11:15Z</time>
      </trkpt>
      <trkpt lat="48.71212" lon="1.95064">
        <ele>165.8</ele>
        <time>2026-01-13T10:11:16Z</time>
      </trkpt>
      <trkpt lat="48.71209" lon="1.95067">
        <ele>165.8</ele>
        <time>2026-01-13T10:11:17Z</time>
      </trkpt>
      <trkpt lat="48.71205" lon="1.9507">
        <ele>165.8</ele>
        <time>2026-01-13T10:11:18Z</time>
      </trkpt>
      <trkpt lat="48.71201" lon="1.95073">
        <ele>164.8</ele>
        <time>2026-01-13T10:11:19Z</time>
      </trkpt>
      <trkpt lat="48.71197" lon="1.95075">
        <ele>164.8</ele>
        <time>2026-01-13T10:11:20Z</time>
      </trkpt>
      <trkpt lat="48.71193" lon="1.95078">
        <ele>164.8</ele>
        <time>2026-01-13T10:11:21Z</time>
      </trkpt>
      <trkpt lat="48.71189" lon="1.95081">
        <ele>165.6</ele>
        <time>2026-01-13T10:11:22Z</time>
      </trkpt>
      <trkpt lat="48.71185" lon="1.95083">
        <ele>165.6</ele>
        <time>2026-01-13T10:11:23Z</time>
      </trkpt>
      <trkpt lat="48.7118" lon="1.95085">
        <ele>165.6</ele>
        <time>2026-01-13T10:11:24Z</time>
      </trkpt>
      <trkpt lat="48.71176" lon="1.95087">
        <ele>165.6</ele>
        <time>2026-01-13T10:11:25Z</time>
      </trkpt>
      <trkpt lat="48.71172" lon="1.95089">
        <ele>165.4</ele>
        <time>2026-01-13T10:11:26Z</time>
      </trkpt>
      <trkpt lat="48.71168" lon="1.95091">
        <ele>165.4</ele>
        <time>2026-01-13T10:11:27Z</time>
      </trkpt>
      <trkpt lat="48.71163" lon="1.95092">
        <ele>165.4</ele>
        <time>2026-01-13T10:11:28Z</time>
      </trkpt>
      <trkpt lat="48.71158" lon="1.95092">
        <ele>166.4</ele>
        <time>2026-01-13T10:11:29Z</time>
      </trkpt>
      <trkpt lat="48.71154" lon="1.95092">
        <ele>166.4</ele>
        <time>2026-01-13T10:11:30Z</time>
      </trkpt>
      <trkpt lat="48.71149" lon="1.95091">
        <ele>166.4</ele>
        <time>2026-01-13T10:11:31Z</time>
      </trkpt>
      <trkpt lat="48.71145" lon="1.9509">
        <ele>165.8</ele>
        <time>2026-01-13T10:11:32Z</time>
      </trkpt>
      <trkpt lat="48.71141" lon="1.95088">
        <ele>165.8</ele>
        <time>2026-01-13T10:11:33Z</time>
      </trkpt>
      <trkpt lat="48.71138" lon="1.95086">
        <ele>165.8</ele>
        <time>2026-01-13T10:11:34Z</time>
      </trkpt>
      <trkpt lat="48.71134" lon="1.95083">
        <ele>166.2</ele>
        <time>2026-01-13T10:11:35Z</time>
      </trkpt>
      <trkpt lat="48.7113" lon="1.95081">
        <ele>166.8</ele>
        <time>2026-01-13T10:11:36Z</time>
      </trkpt>
      <trkpt lat="48.71126" lon="1.95078">
        <ele>167.6</ele>
        <time>2026-01-13T10:11:37Z</time>
      </trkpt>
      <trkpt lat="48.71122" lon="1.95075">
        <ele>167.8</ele>
        <time>2026-01-13T10:11:38Z</time>
      </trkpt>
      <trkpt lat="48.71118" lon="1.95072">
        <ele>167.8</ele>
        <time>2026-01-13T10:11:39Z</time>
      </trkpt>
      <trkpt lat="48.71113" lon="1.9507">
        <ele>167.8</ele>
        <time>2026-01-13T10:11:40Z</time>
      </trkpt>
      <trkpt lat="48.71109" lon="1.95067">
        <ele>167.8</ele>
        <time>2026-01-13T10:11:41Z</time>
      </trkpt>
      <trkpt lat="48.71104" lon="1.95065">
        <ele>167.8</ele>
        <time>2026-01-13T10:11:42Z</time>
      </trkpt>
      <trkpt lat="48.711" lon="1.95062">
        <ele>168.6</ele>
        <time>2026-01-13T10:11:43Z</time>
      </trkpt>
      <trkpt lat="48.71096" lon="1.95059">
        <ele>168.6</ele>
        <time>2026-01-13T10:11:44Z</time>
      </trkpt>
      <trkpt lat="48.71092" lon="1.95057">
        <ele>168.6</ele>
        <time>2026-01-13T10:11:45Z</time>
      </trkpt>
      <trkpt lat="48.71087" lon="1.95054">
        <ele>168</ele>
        <time>2026-01-13T10:11:46Z</time>
      </trkpt>
      <trkpt lat="48.71083" lon="1.95052">
        <ele>168</ele>
        <time>2026-01-13T10:11:47Z</time>
      </trkpt>
      <trkpt lat="48.71079" lon="1.95049">
        <ele>168</ele>
        <time>2026-01-13T10:11:48Z</time>
      </trkpt>
      <trkpt lat="48.71075" lon="1.95047">
        <ele>168.2</ele>
        <time>2026-01-13T10:11:49Z</time>
      </trkpt>
      <trkpt lat="48.71071" lon="1.95044">
        <ele>168.2</ele>
        <time>2026-01-13T10:11:50Z</time>
      </trkpt>
      <trkpt lat="48.71066" lon="1.95042">
        <ele>168.2</ele>
        <time>2026-01-13T10:11:51Z</time>
      </trkpt>
      <trkpt lat="48.71062" lon="1.95039">
        <ele>168.2</ele>
        <time>2026-01-13T10:11:52Z</time>
      </trkpt>
      <trkpt lat="48.71058" lon="1.95036">
        <ele>168.2</ele>
        <time>2026-01-13T10:11:53Z</time>
      </trkpt>
      <trkpt lat="48.71053" lon="1.95034">
        <ele>168.2</ele>
        <time>2026-01-13T10:11:54Z</time>
      </trkpt>
      <trkpt lat="48.71049" lon="1.95031">
        <ele>168.2</ele>
        <time>2026-01-13T10:11:55Z</time>
      </trkpt>
      <trkpt lat="48.71045" lon="1.95028">
        <ele>168.2</ele>
        <time>2026-01-13T10:11:56Z</time>
      </trkpt>
      <trkpt lat="48.71041" lon="1.95025">
        <ele>169.2</ele>
        <time>2026-01-13T10:11:57Z</time>
      </trkpt>
      <trkpt lat="48.71036" lon="1.95022">
        <ele>169.2</ele>
        <time>2026-01-13T10:11:58Z</time>
      </trkpt>
      <trkpt lat="48.71032" lon="1.95019">
        <ele>169.2</ele>
        <time>2026-01-13T10:11:59Z</time>
      </trkpt>
      <trkpt lat="48.71028" lon="1.95016">
        <ele>169.2</ele>
        <time>2026-01-13T10:12:00Z</time>
      </trkpt>
      <trkpt lat="48.71023" lon="1.95013">
        <ele>169.2</ele>
        <time>2026-01-13T10:12:01Z</time>
      </trkpt>
      <trkpt lat="48.71019" lon="1.9501">
        <ele>169.6</ele>
        <time>2026-01-13T10:12:02Z</time>
      </trkpt>
      <trkpt lat="48.71014" lon="1.95007">
        <ele>169.6</ele>
        <time>2026-01-13T10:12:03Z</time>
      </trkpt>
      <trkpt lat="48.7101" lon="1.95003">
        <ele>169.6</ele>
        <time>2026-01-13T10:12:04Z</time>
      </trkpt>
      <trkpt lat="48.71005" lon="1.95">
        <ele>169.2</ele>
        <time>2026-01-13T10:12:05Z</time>
      </trkpt>
      <trkpt lat="48.71001" lon="1.94997">
        <ele>169.2</ele>
        <time>2026-01-13T10:12:06Z</time>
      </trkpt>
      <trkpt lat="48.70996" lon="1.94994">
        <ele>169.2</ele>
        <time>2026-01-13T10:12:07Z</time>
      </trkpt>
      <trkpt lat="48.70992" lon="1.94991">
        <ele>169.2</ele>
        <time>2026-01-13T10:12:08Z</time>
      </trkpt>
      <trkpt lat="48.70987" lon="1.94987">
        <ele>169.6</ele>
        <time>2026-01-13T10:12:09Z</time>
      </trkpt>
      <trkpt lat="48.70982" lon="1.94984">
        <ele>169.6</ele>
        <time>2026-01-13T10:12:10Z</time>
      </trkpt>
      <trkpt lat="48.70978" lon="1.9498">
        <ele>169.6</ele>
        <time>2026-01-13T10:12:11Z</time>
      </trkpt>
      <trkpt lat="48.70973" lon="1.94977">
        <ele>169.6</ele>
        <time>2026-01-13T10:12:12Z</time>
      </trkpt>
      <trkpt lat="48.70969" lon="1.94973">
        <ele>169.6</ele>
        <time>2026-01-13T10:12:13Z</time>
      </trkpt>
      <trkpt lat="48.70964" lon="1.9497">
        <ele>169.6</ele>
        <time>2026-01-13T10:12:14Z</time>
      </trkpt>
      <trkpt lat="48.70959" lon="1.94967">
        <ele>169.6</ele>
        <time>2026-01-13T10:12:15Z</time>
      </trkpt>
      <trkpt lat="48.70954" lon="1.94963">
        <ele>169</ele>
        <time>2026-01-13T10:12:16Z</time>
      </trkpt>
      <trkpt lat="48.7095" lon="1.9496">
        <ele>169</ele>
        <time>2026-01-13T10:12:17Z</time>
      </trkpt>
      <trkpt lat="48.70945" lon="1.94956">
        <ele>168.8</ele>
        <time>2026-01-13T10:12:18Z</time>
      </trkpt>
      <trkpt lat="48.7094" lon="1.94952">
        <ele>168.8</ele>
        <time>2026-01-13T10:12:19Z</time>
      </trkpt>
      <trkpt lat="48.70935" lon="1.94949">
        <ele>168.8</ele>
        <time>2026-01-13T10:12:20Z</time>
      </trkpt>
      <trkpt lat="48.70931" lon="1.94945">
        <ele>169</ele>
        <time>2026-01-13T10:12:21Z</time>
      </trkpt>
      <trkpt lat="48.70926" lon="1.94941">
        <ele>169.4</ele>
        <time>2026-01-13T10:12:22Z</time>
      </trkpt>
      <trkpt lat="48.70921" lon="1.94938">
        <ele>169.4</ele>
        <time>2026-01-13T10:12:23Z</time>
      </trkpt>
      <trkpt lat="48.70916" lon="1.94934">
        <ele>169.4</ele>
        <time>2026-01-13T10:12:24Z</time>
      </trkpt>
      <trkpt lat="48.70911" lon="1.9493">
        <ele>168.4</ele>
        <time>2026-01-13T10:12:25Z</time>
      </trkpt>
      <trkpt lat="48.70906" lon="1.94927">
        <ele>168.4</ele>
        <time>2026-01-13T10:12:26Z</time>
      </trkpt>
      <trkpt lat="48.70901" lon="1.94923">
        <ele>168.4</ele>
        <time>2026-01-13T10:12:27Z</time>
      </trkpt>
      <trkpt lat="48.70897" lon="1.9492">
        <ele>168.4</ele>
        <time>2026-01-13T10:12:28Z</time>
      </trkpt>
      <trkpt lat="48.70892" lon="1.94916">
        <ele>168.4</ele>
        <time>2026-01-13T10:12:29Z</time>
      </trkpt>
      <trkpt lat="48.70887" lon="1.94912">
        <ele>168.4</ele>
        <time>2026-01-13T10:12:30Z</time>
      </trkpt>
      <trkpt lat="48.70882" lon="1.94909">
        <ele>168.4</ele>
        <time>2026-01-13T10:12:31Z</time>
      </trkpt>
      <trkpt lat="48.70877" lon="1.94905">
        <ele>168.4</ele>
        <time>2026-01-13T10:12:32Z</time>
      </trkpt>
      <trkpt lat="48.70872" lon="1.94901">
        <ele>167.8</ele>
        <time>2026-01-13T10:12:33Z</time>
      </trkpt>
      <trkpt lat="48.70867" lon="1.94898">
        <ele>167.8</ele>
        <time>2026-01-13T10:12:34Z</time>
      </trkpt>
      <trkpt lat="48.70862" lon="1.94894">
        <ele>167.8</ele>
        <time>2026-01-13T10:12:35Z</time>
      </trkpt>
      <trkpt lat="48.70857" lon="1.9489">
        <ele>168</ele>
        <time>2026-01-13T10:12:36Z</time>
      </trkpt>
      <trkpt lat="48.70851" lon="1.94886">
        <ele>168</ele>
        <time>2026-01-13T10:12:37Z</time>
      </trkpt>
      <trkpt lat="48.70846" lon="1.94882">
        <ele>168</ele>
        <time>2026-01-13T10:12:38Z</time>
      </trkpt>
      <trkpt lat="48.70841" lon="1.94878">
        <ele>168</ele>
        <time>2026-01-13T10:12:39Z</time>
      </trkpt>
      <trkpt lat="48.70835" lon="1.94874">
        <ele>167</ele>
        <time>2026-01-13T10:12:40Z</time>
      </trkpt>
      <trkpt lat="48.7083" lon="1.9487">
        <ele>167</ele>
        <time>2026-01-13T10:12:41Z</time>
      </trkpt>
      <trkpt lat="48.70824" lon="1.94866">
        <ele>167</ele>
        <time>2026-01-13T10:12:42Z</time>
      </trkpt>
      <trkpt lat="48.70819" lon="1.94862">
        <ele>167</ele>
        <time>2026-01-13T10:12:43Z</time>
      </trkpt>
      <trkpt lat="48.70813" lon="1.94858">
        <ele>167</ele>
        <time>2026-01-13T10:12:44Z</time>
      </trkpt>
      <trkpt lat="48.70808" lon="1.94854">
        <ele>166.6</ele>
        <time>2026-01-13T10:12:45Z</time>
      </trkpt>
      <trkpt lat="48.70802" lon="1.94849">
        <ele>165.6</ele>
        <time>2026-01-13T10:12:46Z</time>
      </trkpt>
      <trkpt lat="48.70797" lon="1.94845">
        <ele>165.4</ele>
        <time>2026-01-13T10:12:47Z</time>
      </trkpt>
      <trkpt lat="48.70791" lon="1.94841">
        <ele>165</ele>
        <time>2026-01-13T10:12:48Z</time>
      </trkpt>
      <trkpt lat="48.70785" lon="1.94836">
        <ele>164.8</ele>
        <time>2026-01-13T10:12:49Z</time>
      </trkpt>
      <trkpt lat="48.70779" lon="1.94832">
        <ele>164.2</ele>
        <time>2026-01-13T10:12:50Z</time>
      </trkpt>
      <trkpt lat="48.70774" lon="1.94828">
        <ele>164.2</ele>
        <time>2026-01-13T10:12:51Z</time>
      </trkpt>
      <trkpt lat="48.70768" lon="1.94823">
        <ele>164.2</ele>
        <time>2026-01-13T10:12:52Z</time>
      </trkpt>
      <trkpt lat="48.70762" lon="1.94819">
        <ele>164.2</ele>
        <time>2026-01-13T10:12:53Z</time>
      </trkpt>
      <trkpt lat="48.70756" lon="1.94814">
        <ele>164.2</ele>
        <time>2026-01-13T10:12:54Z</time>
      </trkpt>
      <trkpt lat="48.7075" lon="1.9481">
        <ele>164.2</ele>
        <time>2026-01-13T10:12:55Z</time>
      </trkpt>
      <trkpt lat="48.70744" lon="1.94805">
        <ele>164.2</ele>
        <time>2026-01-13T10:12:56Z</time>
      </trkpt>
      <trkpt lat="48.70738" lon="1.94801">
        <ele>164.2</ele>
        <time>2026-01-13T10:12:57Z</time>
      </trkpt>
      <trkpt lat="48.70732" lon="1.94796">
        <ele>163.2</ele>
        <time>2026-01-13T10:12:58Z</time>
      </trkpt>
      <trkpt lat="48.70726" lon="1.94792">
        <ele>163.2</ele>
        <time>2026-01-13T10:12:59Z</time>
      </trkpt>
      <trkpt lat="48.70719" lon="1.94788">
        <ele>163.2</ele>
        <time>2026-01-13T10:13:00Z</time>
      </trkpt>
      <trkpt lat="48.70713" lon="1.94784">
        <ele>163.2</ele>
        <time>2026-01-13T10:13:01Z</time>
      </trkpt>
      <trkpt lat="48.70707" lon="1.94779">
        <ele>163.2</ele>
        <time>2026-01-13T10:13:02Z</time>
      </trkpt>
      <trkpt lat="48.707" lon="1.94775">
        <ele>162.6</ele>
        <time>2026-01-13T10:13:03Z</time>
      </trkpt>
      <trkpt lat="48.70694" lon="1.94771">
        <ele>162</ele>
        <time>2026-01-13T10:13:04Z</time>
      </trkpt>
      <trkpt lat="48.70688" lon="1.94766">
        <ele>161.6</ele>
        <time>2026-01-13T10:13:05Z</time>
      </trkpt>
      <trkpt lat="48.70682" lon="1.94761">
        <ele>161.6</ele>
        <time>2026-01-13T10:13:06Z</time>
      </trkpt>
      <trkpt lat="48.70676" lon="1.94756">
        <ele>161.6</ele>
        <time>2026-01-13T10:13:07Z</time>
      </trkpt>
      <trkpt lat="48.70671" lon="1.94752">
        <ele>162.4</ele>
        <time>2026-01-13T10:13:08Z</time>
      </trkpt>
      <trkpt lat="48.70665" lon="1.94748">
        <ele>162.4</ele>
        <time>2026-01-13T10:13:09Z</time>
      </trkpt>
      <trkpt lat="48.70659" lon="1.94743">
        <ele>162.4</ele>
        <time>2026-01-13T10:13:10Z</time>
      </trkpt>
      <trkpt lat="48.70654" lon="1.94739">
        <ele>162</ele>
        <time>2026-01-13T10:13:11Z</time>
      </trkpt>
      <trkpt lat="48.70649" lon="1.94735">
        <ele>162</ele>
        <time>2026-01-13T10:13:12Z</time>
      </trkpt>
      <trkpt lat="48.70644" lon="1.94732">
        <ele>162</ele>
        <time>2026-01-13T10:13:13Z</time>
      </trkpt>
      <trkpt lat="48.70639" lon="1.94728">
        <ele>162</ele>
        <time>2026-01-13T10:13:14Z</time>
      </trkpt>
      <trkpt lat="48.70634" lon="1.94723">
        <ele>162</ele>
        <time>2026-01-13T10:13:15Z</time>
      </trkpt>
      <trkpt lat="48.70629" lon="1.9472">
        <ele>162</ele>
        <time>2026-01-13T10:13:16Z</time>
      </trkpt>
      <trkpt lat="48.70624" lon="1.94718">
        <ele>162</ele>
        <time>2026-01-13T10:13:17Z</time>
      </trkpt>
      <trkpt lat="48.70619" lon="1.9472">
        <ele>162.4</ele>
        <time>2026-01-13T10:13:18Z</time>
      </trkpt>
      <trkpt lat="48.70616" lon="1.94726">
        <ele>162.6</ele>
        <time>2026-01-13T10:13:19Z</time>
      </trkpt>
      <trkpt lat="48.70615" lon="1.94733">
        <ele>163.4</ele>
        <time>2026-01-13T10:13:20Z</time>
      </trkpt>
      <trkpt lat="48.70616" lon="1.9474">
        <ele>163.8</ele>
        <time>2026-01-13T10:13:21Z</time>
      </trkpt>
      <trkpt lat="48.70618" lon="1.94748">
        <ele>163.8</ele>
        <time>2026-01-13T10:13:22Z</time>
      </trkpt>
      <trkpt lat="48.7062" lon="1.94756">
        <ele>163.8</ele>
        <time>2026-01-13T10:13:23Z</time>
      </trkpt>
      <trkpt lat="48.70623" lon="1.94764">
        <ele>163.8</ele>
        <time>2026-01-13T10:13:24Z</time>
      </trkpt>
      <trkpt lat="48.70626" lon="1.94773">
        <ele>163.8</ele>
        <time>2026-01-13T10:13:25Z</time>
      </trkpt>
      <trkpt lat="48.70629" lon="1.94782">
        <ele>163.4</ele>
        <time>2026-01-13T10:13:26Z</time>
      </trkpt>
      <trkpt lat="48.70632" lon="1.94791">
        <ele>163.2</ele>
        <time>2026-01-13T10:13:27Z</time>
      </trkpt>
      <trkpt lat="48.70634" lon="1.94801">
        <ele>162.8</ele>
        <time>2026-01-13T10:13:28Z</time>
      </trkpt>
      <trkpt lat="48.70637" lon="1.9481">
        <ele>162.8</ele>
        <time>2026-01-13T10:13:29Z</time>
      </trkpt>
      <trkpt lat="48.7064" lon="1.9482">
        <ele>162.8</ele>
        <time>2026-01-13T10:13:30Z</time>
      </trkpt>
      <trkpt lat="48.70642" lon="1.94829">
        <ele>163.8</ele>
        <time>2026-01-13T10:13:31Z</time>
      </trkpt>
      <trkpt lat="48.70644" lon="1.94839">
        <ele>163.8</ele>
        <time>2026-01-13T10:13:32Z</time>
      </trkpt>
      <trkpt lat="48.70647" lon="1.94849">
        <ele>163.8</ele>
        <time>2026-01-13T10:13:33Z</time>
      </trkpt>
      <trkpt lat="48.70649" lon="1.94859">
        <ele>163.8</ele>
        <time>2026-01-13T10:13:34Z</time>
      </trkpt>
      <trkpt lat="48.70651" lon="1.94869">
        <ele>163.2</ele>
        <time>2026-01-13T10:13:35Z</time>
      </trkpt>
      <trkpt lat="48.70653" lon="1.9488">
        <ele>162.8</ele>
        <time>2026-01-13T10:13:36Z</time>
      </trkpt>
      <trkpt lat="48.70655" lon="1.94891">
        <ele>162.8</ele>
        <time>2026-01-13T10:13:37Z</time>
      </trkpt>
      <trkpt lat="48.70655" lon="1.94902">
        <ele>162.8</ele>
        <time>2026-01-13T10:13:38Z</time>
      </trkpt>
      <trkpt lat="48.70655" lon="1.94913">
        <ele>162.8</ele>
        <time>2026-01-13T10:13:39Z</time>
      </trkpt>
      <trkpt lat="48.70656" lon="1.94924">
        <ele>162.6</ele>
        <time>2026-01-13T10:13:40Z</time>
      </trkpt>
      <trkpt lat="48.70656" lon="1.94935">
        <ele>161.6</ele>
        <time>2026-01-13T10:13:41Z</time>
      </trkpt>
      <trkpt lat="48.70656" lon="1.94946">
        <ele>161.6</ele>
        <time>2026-01-13T10:13:42Z</time>
      </trkpt>
      <trkpt lat="48.70656" lon="1.94956">
        <ele>161.6</ele>
        <time>2026-01-13T10:13:43Z</time>
      </trkpt>
      <trkpt lat="48.70656" lon="1.94967">
        <ele>162</ele>
        <time>2026-01-13T10:13:44Z</time>
      </trkpt>
      <trkpt lat="48.70656" lon="1.94977">
        <ele>163</ele>
        <time>2026-01-13T10:13:45Z</time>
      </trkpt>
      <trkpt lat="48.70656" lon="1.94987">
        <ele>163.2</ele>
        <time>2026-01-13T10:13:46Z</time>
      </trkpt>
      <trkpt lat="48.70656" lon="1.94996">
        <ele>163.8</ele>
        <time>2026-01-13T10:13:47Z</time>
      </trkpt>
      <trkpt lat="48.70656" lon="1.95005">
        <ele>164.2</ele>
        <time>2026-01-13T10:13:48Z</time>
      </trkpt>
      <trkpt lat="48.70656" lon="1.95015">
        <ele>164.6</ele>
        <time>2026-01-13T10:13:49Z</time>
      </trkpt>
      <trkpt lat="48.70656" lon="1.95024">
        <ele>164.8</ele>
        <time>2026-01-13T10:13:50Z</time>
      </trkpt>
      <trkpt lat="48.70656" lon="1.95033">
        <ele>165</ele>
        <time>2026-01-13T10:13:51Z</time>
      </trkpt>
      <trkpt lat="48.70656" lon="1.95042">
        <ele>165.4</ele>
        <time>2026-01-13T10:13:52Z</time>
      </trkpt>
      <trkpt lat="48.70655" lon="1.95051">
        <ele>165.6</ele>
        <time>2026-01-13T10:13:53Z</time>
      </trkpt>
      <trkpt lat="48.70655" lon="1.9506">
        <ele>165.8</ele>
        <time>2026-01-13T10:13:54Z</time>
      </trkpt>
      <trkpt lat="48.70655" lon="1.95068">
        <ele>165.8</ele>
        <time>2026-01-13T10:13:55Z</time>
      </trkpt>
      <trkpt lat="48.70655" lon="1.95077">
        <ele>165.8</ele>
        <time>2026-01-13T10:13:56Z</time>
      </trkpt>
      <trkpt lat="48.70655" lon="1.95086">
        <ele>165.8</ele>
        <time>2026-01-13T10:13:57Z</time>
      </trkpt>
      <trkpt lat="48.70655" lon="1.95094">
        <ele>165.8</ele>
        <time>2026-01-13T10:13:58Z</time>
      </trkpt>
      <trkpt lat="48.70655" lon="1.95103">
        <ele>165.8</ele>
        <time>2026-01-13T10:13:59Z</time>
      </trkpt>
      <trkpt lat="48.70654" lon="1.95112">
        <ele>165.8</ele>
        <time>2026-01-13T10:14:00Z</time>
      </trkpt>
      <trkpt lat="48.70654" lon="1.9512">
        <ele>165.8</ele>
        <time>2026-01-13T10:14:01Z</time>
      </trkpt>
      <trkpt lat="48.70653" lon="1.95129">
        <ele>166.2</ele>
        <time>2026-01-13T10:14:02Z</time>
      </trkpt>
      <trkpt lat="48.70652" lon="1.95137">
        <ele>166.4</ele>
        <time>2026-01-13T10:14:03Z</time>
      </trkpt>
      <trkpt lat="48.70652" lon="1.95145">
        <ele>166.6</ele>
        <time>2026-01-13T10:14:04Z</time>
      </trkpt>
      <trkpt lat="48.70651" lon="1.95154">
        <ele>166.8</ele>
        <time>2026-01-13T10:14:05Z</time>
      </trkpt>
      <trkpt lat="48.70651" lon="1.95162">
        <ele>166.8</ele>
        <time>2026-01-13T10:14:06Z</time>
      </trkpt>
      <trkpt lat="48.7065" lon="1.9517">
        <ele>166.8</ele>
        <time>2026-01-13T10:14:07Z</time>
      </trkpt>
      <trkpt lat="48.70651" lon="1.95179">
        <ele>166.6</ele>
        <time>2026-01-13T10:14:08Z</time>
      </trkpt>
      <trkpt lat="48.70651" lon="1.95188">
        <ele>166</ele>
        <time>2026-01-13T10:14:09Z</time>
      </trkpt>
      <trkpt lat="48.70651" lon="1.95197">
        <ele>166</ele>
        <time>2026-01-13T10:14:10Z</time>
      </trkpt>
      <trkpt lat="48.70651" lon="1.95206">
        <ele>166</ele>
        <time>2026-01-13T10:14:11Z</time>
      </trkpt>
      <trkpt lat="48.70651" lon="1.95215">
        <ele>166</ele>
        <time>2026-01-13T10:14:12Z</time>
      </trkpt>
      <trkpt lat="48.70651" lon="1.95224">
        <ele>166</ele>
        <time>2026-01-13T10:14:13Z</time>
      </trkpt>
      <trkpt lat="48.70651" lon="1.95233">
        <ele>165.6</ele>
        <time>2026-01-13T10:14:14Z</time>
      </trkpt>
      <trkpt lat="48.70651" lon="1.95242">
        <ele>165.6</ele>
        <time>2026-01-13T10:14:15Z</time>
      </trkpt>
      <trkpt lat="48.70651" lon="1.95251">
        <ele>165.6</ele>
        <time>2026-01-13T10:14:16Z</time>
      </trkpt>
      <trkpt lat="48.70651" lon="1.95261">
        <ele>165.6</ele>
        <time>2026-01-13T10:14:17Z</time>
      </trkpt>
      <trkpt lat="48.70651" lon="1.9527">
        <ele>165.6</ele>
        <time>2026-01-13T10:14:18Z</time>
      </trkpt>
      <trkpt lat="48.70652" lon="1.95279">
        <ele>165.6</ele>
        <time>2026-01-13T10:14:19Z</time>
      </trkpt>
      <trkpt lat="48.70652" lon="1.95289">
        <ele>165.6</ele>
        <time>2026-01-13T10:14:20Z</time>
      </trkpt>
      <trkpt lat="48.70652" lon="1.95298">
        <ele>165.6</ele>
        <time>2026-01-13T10:14:21Z</time>
      </trkpt>
      <trkpt lat="48.70652" lon="1.95308">
        <ele>165.6</ele>
        <time>2026-01-13T10:14:22Z</time>
      </trkpt>
      <trkpt lat="48.70653" lon="1.95318">
        <ele>165.6</ele>
        <time>2026-01-13T10:14:23Z</time>
      </trkpt>
      <trkpt lat="48.70653" lon="1.95327">
        <ele>165</ele>
        <time>2026-01-13T10:14:24Z</time>
      </trkpt>
      <trkpt lat="48.70652" lon="1.95337">
        <ele>165</ele>
        <time>2026-01-13T10:14:25Z</time>
      </trkpt>
      <trkpt lat="48.70651" lon="1.95346">
        <ele>165</ele>
        <time>2026-01-13T10:14:26Z</time>
      </trkpt>
      <trkpt lat="48.70651" lon="1.95356">
        <ele>165.4</ele>
        <time>2026-01-13T10:14:27Z</time>
      </trkpt>
      <trkpt lat="48.7065" lon="1.95366">
        <ele>165.4</ele>
        <time>2026-01-13T10:14:28Z</time>
      </trkpt>
      <trkpt lat="48.7065" lon="1.95375">
        <ele>165.4</ele>
        <time>2026-01-13T10:14:29Z</time>
      </trkpt>
      <trkpt lat="48.70648" lon="1.95384">
        <ele>165.4</ele>
        <time>2026-01-13T10:14:30Z</time>
      </trkpt>
      <trkpt lat="48.70647" lon="1.95393">
        <ele>166</ele>
        <time>2026-01-13T10:14:31Z</time>
      </trkpt>
      <trkpt lat="48.70646" lon="1.95402">
        <ele>166</ele>
        <time>2026-01-13T10:14:32Z</time>
      </trkpt>
      <trkpt lat="48.70645" lon="1.95411">
        <ele>166</ele>
        <time>2026-01-13T10:14:33Z</time>
      </trkpt>
      <trkpt lat="48.70644" lon="1.9542">
        <ele>166</ele>
        <time>2026-01-13T10:14:34Z</time>
      </trkpt>
      <trkpt lat="48.70643" lon="1.95429">
        <ele>166</ele>
        <time>2026-01-13T10:14:35Z</time>
      </trkpt>
      <trkpt lat="48.70642" lon="1.95438">
        <ele>166.4</ele>
        <time>2026-01-13T10:14:36Z</time>
      </trkpt>
      <trkpt lat="48.70641" lon="1.95446">
        <ele>166.6</ele>
        <time>2026-01-13T10:14:37Z</time>
      </trkpt>
      <trkpt lat="48.70639" lon="1.95454">
        <ele>167</ele>
        <time>2026-01-13T10:14:38Z</time>
      </trkpt>
      <trkpt lat="48.70639" lon="1.95463">
        <ele>167.2</ele>
        <time>2026-01-13T10:14:39Z</time>
      </trkpt>
      <trkpt lat="48.70638" lon="1.95471">
        <ele>167.2</ele>
        <time>2026-01-13T10:14:40Z</time>
      </trkpt>
      <trkpt lat="48.70637" lon="1.9548">
        <ele>167.2</ele>
        <time>2026-01-13T10:14:41Z</time>
      </trkpt>
      <trkpt lat="48.70637" lon="1.95489">
        <ele>167.2</ele>
        <time>2026-01-13T10:14:42Z</time>
      </trkpt>
      <trkpt lat="48.70636" lon="1.95497">
        <ele>167.2</ele>
        <time>2026-01-13T10:14:43Z</time>
      </trkpt>
      <trkpt lat="48.70634" lon="1.95505">
        <ele>167.2</ele>
        <time>2026-01-13T10:14:44Z</time>
      </trkpt>
      <trkpt lat="48.70633" lon="1.95513">
        <ele>168</ele>
        <time>2026-01-13T10:14:45Z</time>
      </trkpt>
      <trkpt lat="48.70632" lon="1.95522">
        <ele>168.2</ele>
        <time>2026-01-13T10:14:46Z</time>
      </trkpt>
      <trkpt lat="48.7063" lon="1.9553">
        <ele>168.4</ele>
        <time>2026-01-13T10:14:47Z</time>
      </trkpt>
      <trkpt lat="48.70628" lon="1.95537">
        <ele>168.4</ele>
        <time>2026-01-13T10:14:48Z</time>
      </trkpt>
      <trkpt lat="48.70626" lon="1.95545">
        <ele>168.4</ele>
        <time>2026-01-13T10:14:49Z</time>
      </trkpt>
      <trkpt lat="48.70624" lon="1.95553">
        <ele>168.4</ele>
        <time>2026-01-13T10:14:50Z</time>
      </trkpt>
      <trkpt lat="48.70622" lon="1.95561">
        <ele>168.6</ele>
        <time>2026-01-13T10:14:51Z</time>
      </trkpt>
      <trkpt lat="48.7062" lon="1.95569">
        <ele>168.6</ele>
        <time>2026-01-13T10:14:52Z</time>
      </trkpt>
      <trkpt lat="48.70618" lon="1.95577">
        <ele>168.6</ele>
        <time>2026-01-13T10:14:53Z</time>
      </trkpt>
      <trkpt lat="48.70615" lon="1.95586">
        <ele>168.6</ele>
        <time>2026-01-13T10:14:54Z</time>
      </trkpt>
      <trkpt lat="48.70613" lon="1.95594">
        <ele>168.6</ele>
        <time>2026-01-13T10:14:55Z</time>
      </trkpt>
      <trkpt lat="48.70611" lon="1.95602">
        <ele>169</ele>
        <time>2026-01-13T10:14:56Z</time>
      </trkpt>
      <trkpt lat="48.70608" lon="1.9561">
        <ele>169</ele>
        <time>2026-01-13T10:14:57Z</time>
      </trkpt>
      <trkpt lat="48.70605" lon="1.95617">
        <ele>169</ele>
        <time>2026-01-13T10:14:58Z</time>
      </trkpt>
      <trkpt lat="48.70603" lon="1.95624">
        <ele>169</ele>
        <time>2026-01-13T10:14:59Z</time>
      </trkpt>
      <trkpt lat="48.70601" lon="1.95632">
        <ele>169.2</ele>
        <time>2026-01-13T10:15:00Z</time>
      </trkpt>
      <trkpt lat="48.70598" lon="1.95639">
        <ele>169.2</ele>
        <time>2026-01-13T10:15:01Z</time>
      </trkpt>
      <trkpt lat="48.70594" lon="1.95645">
        <ele>169.2</ele>
        <time>2026-01-13T10:15:02Z</time>
      </trkpt>
      <trkpt lat="48.70592" lon="1.95651">
        <ele>169.2</ele>
        <time>2026-01-13T10:15:03Z</time>
      </trkpt>
      <trkpt lat="48.70589" lon="1.95658">
        <ele>169.2</ele>
        <time>2026-01-13T10:15:04Z</time>
      </trkpt>
      <trkpt lat="48.70586" lon="1.95665">
        <ele>169.6</ele>
        <time>2026-01-13T10:15:05Z</time>
      </trkpt>
      <trkpt lat="48.70583" lon="1.95671">
        <ele>169.8</ele>
        <time>2026-01-13T10:15:06Z</time>
      </trkpt>
      <trkpt lat="48.7058" lon="1.95678">
        <ele>169.8</ele>
        <time>2026-01-13T10:15:07Z</time>
      </trkpt>
      <trkpt lat="48.70576" lon="1.95684">
        <ele>169.8</ele>
        <time>2026-01-13T10:15:08Z</time>
      </trkpt>
      <trkpt lat="48.70573" lon="1.95691">
        <ele>169.8</ele>
        <time>2026-01-13T10:15:09Z</time>
      </trkpt>
      <trkpt lat="48.70572" lon="1.957">
        <ele>169.8</ele>
        <time>2026-01-13T10:15:10Z</time>
      </trkpt>
      <trkpt lat="48.7057" lon="1.95707">
        <ele>169.8</ele>
        <time>2026-01-13T10:15:11Z</time>
      </trkpt>
      <trkpt lat="48.70567" lon="1.95715">
        <ele>169.8</ele>
        <time>2026-01-13T10:15:12Z</time>
      </trkpt>
      <trkpt lat="48.70563" lon="1.95722">
        <ele>169.8</ele>
        <time>2026-01-13T10:15:13Z</time>
      </trkpt>
      <trkpt lat="48.70561" lon="1.9573">
        <ele>169.8</ele>
        <time>2026-01-13T10:15:14Z</time>
      </trkpt>
      <trkpt lat="48.70558" lon="1.95738">
        <ele>169.8</ele>
        <time>2026-01-13T10:15:15Z</time>
      </trkpt>
      <trkpt lat="48.70555" lon="1.95745">
        <ele>169.2</ele>
        <time>2026-01-13T10:15:16Z</time>
      </trkpt>
      <trkpt lat="48.70553" lon="1.95754">
        <ele>169.2</ele>
        <time>2026-01-13T10:15:17Z</time>
      </trkpt>
      <trkpt lat="48.7055" lon="1.95762">
        <ele>169.2</ele>
        <time>2026-01-13T10:15:18Z</time>
      </trkpt>
      <trkpt lat="48.70547" lon="1.9577">
        <ele>169.6</ele>
        <time>2026-01-13T10:15:19Z</time>
      </trkpt>
      <trkpt lat="48.70544" lon="1.95779">
        <ele>169.6</ele>
        <time>2026-01-13T10:15:20Z</time>
      </trkpt>
      <trkpt lat="48.70541" lon="1.95786">
        <ele>169.6</ele>
        <time>2026-01-13T10:15:21Z</time>
      </trkpt>
      <trkpt lat="48.70538" lon="1.95795">
        <ele>169.6</ele>
        <time>2026-01-13T10:15:22Z</time>
      </trkpt>
      <trkpt lat="48.70535" lon="1.95802">
        <ele>169.4</ele>
        <time>2026-01-13T10:15:23Z</time>
      </trkpt>
      <trkpt lat="48.70532" lon="1.95811">
        <ele>169.4</ele>
        <time>2026-01-13T10:15:24Z</time>
      </trkpt>
      <trkpt lat="48.7053" lon="1.9582">
        <ele>169.4</ele>
        <time>2026-01-13T10:15:25Z</time>
      </trkpt>
      <trkpt lat="48.70527" lon="1.95829">
        <ele>169.4</ele>
        <time>2026-01-13T10:15:26Z</time>
      </trkpt>
      <trkpt lat="48.70526" lon="1.95839">
        <ele>169.4</ele>
        <time>2026-01-13T10:15:27Z</time>
      </trkpt>
      <trkpt lat="48.70524" lon="1.95849">
        <ele>169.4</ele>
        <time>2026-01-13T10:15:28Z</time>
      </trkpt>
      <trkpt lat="48.70523" lon="1.95858">
        <ele>169.4</ele>
        <time>2026-01-13T10:15:29Z</time>
      </trkpt>
      <trkpt lat="48.70522" lon="1.95869">
        <ele>169.4</ele>
        <time>2026-01-13T10:15:30Z</time>
      </trkpt>
      <trkpt lat="48.70521" lon="1.95879">
        <ele>169.4</ele>
        <time>2026-01-13T10:15:31Z</time>
      </trkpt>
      <trkpt lat="48.7052" lon="1.95888">
        <ele>169.4</ele>
        <time>2026-01-13T10:15:32Z</time>
      </trkpt>
      <trkpt lat="48.70519" lon="1.95897">
        <ele>169.6</ele>
        <time>2026-01-13T10:15:33Z</time>
      </trkpt>
      <trkpt lat="48.70519" lon="1.95906">
        <ele>169.6</ele>
        <time>2026-01-13T10:15:34Z</time>
      </trkpt>
      <trkpt lat="48.70518" lon="1.95913">
        <ele>169.6</ele>
        <time>2026-01-13T10:15:35Z</time>
      </trkpt>
      <trkpt lat="48.70518" lon="1.95922">
        <ele>169.6</ele>
        <time>2026-01-13T10:15:36Z</time>
      </trkpt>
      <trkpt lat="48.70518" lon="1.9593">
        <ele>169.8</ele>
        <time>2026-01-13T10:15:37Z</time>
      </trkpt>
      <trkpt lat="48.70518" lon="1.95938">
        <ele>169.8</ele>
        <time>2026-01-13T10:15:38Z</time>
      </trkpt>
      <trkpt lat="48.70517" lon="1.95946">
        <ele>169.8</ele>
        <time>2026-01-13T10:15:39Z</time>
      </trkpt>
      <trkpt lat="48.70517" lon="1.95954">
        <ele>169.8</ele>
        <time>2026-01-13T10:15:40Z</time>
      </trkpt>
      <trkpt lat="48.70517" lon="1.95962">
        <ele>170</ele>
        <time>2026-01-13T10:15:41Z</time>
      </trkpt>
      <trkpt lat="48.70516" lon="1.95968">
        <ele>170</ele>
        <time>2026-01-13T10:15:42Z</time>
      </trkpt>
      <trkpt lat="48.70515" lon="1.95976">
        <ele>170</ele>
        <time>2026-01-13T10:15:43Z</time>
      </trkpt>
      <trkpt lat="48.70514" lon="1.95985">
        <ele>170</ele>
        <time>2026-01-13T10:15:44Z</time>
      </trkpt>
      <trkpt lat="48.70513" lon="1.95993">
        <ele>170</ele>
        <time>2026-01-13T10:15:45Z</time>
      </trkpt>
      <trkpt lat="48.70513" lon="1.96002">
        <ele>170.2</ele>
        <time>2026-01-13T10:15:46Z</time>
      </trkpt>
      <trkpt lat="48.70512" lon="1.96012">
        <ele>170.2</ele>
        <time>2026-01-13T10:15:47Z</time>
      </trkpt>
      <trkpt lat="48.70511" lon="1.96021">
        <ele>170.2</ele>
        <time>2026-01-13T10:15:48Z</time>
      </trkpt>
      <trkpt lat="48.70509" lon="1.9603">
        <ele>169.6</ele>
        <time>2026-01-13T10:15:49Z</time>
      </trkpt>
      <trkpt lat="48.70507" lon="1.96039">
        <ele>169.4</ele>
        <time>2026-01-13T10:15:50Z</time>
      </trkpt>
      <trkpt lat="48.70505" lon="1.96048">
        <ele>169</ele>
        <time>2026-01-13T10:15:51Z</time>
      </trkpt>
      <trkpt lat="48.70504" lon="1.96058">
        <ele>168.8</ele>
        <time>2026-01-13T10:15:52Z</time>
      </trkpt>
      <trkpt lat="48.70503" lon="1.96068">
        <ele>168.8</ele>
        <time>2026-01-13T10:15:53Z</time>
      </trkpt>
      <trkpt lat="48.70502" lon="1.96077">
        <ele>168.8</ele>
        <time>2026-01-13T10:15:54Z</time>
      </trkpt>
      <trkpt lat="48.70501" lon="1.96087">
        <ele>168.8</ele>
        <time>2026-01-13T10:15:55Z</time>
      </trkpt>
      <trkpt lat="48.70499" lon="1.96096">
        <ele>168.8</ele>
        <time>2026-01-13T10:15:56Z</time>
      </trkpt>
      <trkpt lat="48.70497" lon="1.96106">
        <ele>168.8</ele>
        <time>2026-01-13T10:15:57Z</time>
      </trkpt>
      <trkpt lat="48.70496" lon="1.96116">
        <ele>168.8</ele>
        <time>2026-01-13T10:15:58Z</time>
      </trkpt>
      <trkpt lat="48.70494" lon="1.96126">
        <ele>168.8</ele>
        <time>2026-01-13T10:15:59Z</time>
      </trkpt>
      <trkpt lat="48.70493" lon="1.96136">
        <ele>168.8</ele>
        <time>2026-01-13T10:16:00Z</time>
      </trkpt>
      <trkpt lat="48.70491" lon="1.96147">
        <ele>168.8</ele>
        <time>2026-01-13T10:16:01Z</time>
      </trkpt>
      <trkpt lat="48.70489" lon="1.96156">
        <ele>168.4</ele>
        <time>2026-01-13T10:16:02Z</time>
      </trkpt>
      <trkpt lat="48.70488" lon="1.96166">
        <ele>168</ele>
        <time>2026-01-13T10:16:03Z</time>
      </trkpt>
      <trkpt lat="48.70486" lon="1.96176">
        <ele>168</ele>
        <time>2026-01-13T10:16:04Z</time>
      </trkpt>
      <trkpt lat="48.70484" lon="1.96186">
        <ele>168</ele>
        <time>2026-01-13T10:16:05Z</time>
      </trkpt>
      <trkpt lat="48.70483" lon="1.96197">
        <ele>168</ele>
        <time>2026-01-13T10:16:06Z</time>
      </trkpt>
      <trkpt lat="48.70481" lon="1.96207">
        <ele>168</ele>
        <time>2026-01-13T10:16:07Z</time>
      </trkpt>
      <trkpt lat="48.70479" lon="1.96217">
        <ele>167.6</ele>
        <time>2026-01-13T10:16:08Z</time>
      </trkpt>
      <trkpt lat="48.70478" lon="1.96227">
        <ele>167.6</ele>
        <time>2026-01-13T10:16:09Z</time>
      </trkpt>
      <trkpt lat="48.70476" lon="1.96237">
        <ele>167.6</ele>
        <time>2026-01-13T10:16:10Z</time>
      </trkpt>
      <trkpt lat="48.70474" lon="1.96247">
        <ele>167.6</ele>
        <time>2026-01-13T10:16:11Z</time>
      </trkpt>
      <trkpt lat="48.70472" lon="1.96257">
        <ele>167.6</ele>
        <time>2026-01-13T10:16:12Z</time>
      </trkpt>
      <trkpt lat="48.7047" lon="1.96267">
        <ele>167.6</ele>
        <time>2026-01-13T10:16:13Z</time>
      </trkpt>
      <trkpt lat="48.70469" lon="1.96277">
        <ele>167</ele>
        <time>2026-01-13T10:16:14Z</time>
      </trkpt>
      <trkpt lat="48.70467" lon="1.96286">
        <ele>167</ele>
        <time>2026-01-13T10:16:15Z</time>
      </trkpt>
      <trkpt lat="48.70465" lon="1.96297">
        <ele>167</ele>
        <time>2026-01-13T10:16:16Z</time>
      </trkpt>
      <trkpt lat="48.70464" lon="1.96306">
        <ele>167</ele>
        <time>2026-01-13T10:16:17Z</time>
      </trkpt>
      <trkpt lat="48.70463" lon="1.96316">
        <ele>167</ele>
        <time>2026-01-13T10:16:18Z</time>
      </trkpt>
      <trkpt lat="48.70461" lon="1.96325">
        <ele>167</ele>
        <time>2026-01-13T10:16:19Z</time>
      </trkpt>
      <trkpt lat="48.70461" lon="1.96336">
        <ele>166.8</ele>
        <time>2026-01-13T10:16:20Z</time>
      </trkpt>
      <trkpt lat="48.7046" lon="1.96346">
        <ele>166.8</ele>
        <time>2026-01-13T10:16:21Z</time>
      </trkpt>
      <trkpt lat="48.70459" lon="1.96356">
        <ele>166.8</ele>
        <time>2026-01-13T10:16:22Z</time>
      </trkpt>
      <trkpt lat="48.70459" lon="1.96367">
        <ele>167.2</ele>
        <time>2026-01-13T10:16:23Z</time>
      </trkpt>
      <trkpt lat="48.70459" lon="1.96377">
        <ele>167.4</ele>
        <time>2026-01-13T10:16:24Z</time>
      </trkpt>
      <trkpt lat="48.70458" lon="1.96388">
        <ele>167.4</ele>
        <time>2026-01-13T10:16:25Z</time>
      </trkpt>
      <trkpt lat="48.70458" lon="1.96397">
        <ele>167.4</ele>
        <time>2026-01-13T10:16:26Z</time>
      </trkpt>
      <trkpt lat="48.70458" lon="1.96408">
        <ele>166.4</ele>
        <time>2026-01-13T10:16:27Z</time>
      </trkpt>
      <trkpt lat="48.70457" lon="1.96419">
        <ele>166.2</ele>
        <time>2026-01-13T10:16:28Z</time>
      </trkpt>
      <trkpt lat="48.70457" lon="1.96429">
        <ele>166.2</ele>
        <time>2026-01-13T10:16:29Z</time>
      </trkpt>
      <trkpt lat="48.70456" lon="1.9644">
        <ele>165.8</ele>
        <time>2026-01-13T10:16:30Z</time>
      </trkpt>
      <trkpt lat="48.70456" lon="1.96451">
        <ele>165.8</ele>
        <time>2026-01-13T10:16:31Z</time>
      </trkpt>
      <trkpt lat="48.70456" lon="1.96462">
        <ele>165.4</ele>
        <time>2026-01-13T10:16:32Z</time>
      </trkpt>
      <trkpt lat="48.70456" lon="1.96474">
        <ele>165.2</ele>
        <time>2026-01-13T10:16:33Z</time>
      </trkpt>
      <trkpt lat="48.70456" lon="1.96486">
        <ele>164.8</ele>
        <time>2026-01-13T10:16:34Z</time>
      </trkpt>
      <trkpt lat="48.70455" lon="1.96498">
        <ele>164</ele>
        <time>2026-01-13T10:16:35Z</time>
      </trkpt>
      <trkpt lat="48.70456" lon="1.9651">
        <ele>164</ele>
        <time>2026-01-13T10:16:36Z</time>
      </trkpt>
      <trkpt lat="48.70456" lon="1.96522">
        <ele>164</ele>
        <time>2026-01-13T10:16:37Z</time>
      </trkpt>
      <trkpt lat="48.70456" lon="1.96534">
        <ele>164</ele>
        <time>2026-01-13T10:16:38Z</time>
      </trkpt>
      <trkpt lat="48.70455" lon="1.96546">
        <ele>163.4</ele>
        <time>2026-01-13T10:16:39Z</time>
      </trkpt>
      <trkpt lat="48.70456" lon="1.96558">
        <ele>163.4</ele>
        <time>2026-01-13T10:16:40Z</time>
      </trkpt>
      <trkpt lat="48.70456" lon="1.9657">
        <ele>163.4</ele>
        <time>2026-01-13T10:16:41Z</time>
      </trkpt>
      <trkpt lat="48.70457" lon="1.96581">
        <ele>163.4</ele>
        <time>2026-01-13T10:16:42Z</time>
      </trkpt>
      <trkpt lat="48.70458" lon="1.96595">
        <ele>162.6</ele>
        <time>2026-01-13T10:16:43Z</time>
      </trkpt>
      <trkpt lat="48.70459" lon="1.96608">
        <ele>162.4</ele>
        <time>2026-01-13T10:16:44Z</time>
      </trkpt>
      <trkpt lat="48.70459" lon="1.9662">
        <ele>162.4</ele>
        <time>2026-01-13T10:16:45Z</time>
      </trkpt>
      <trkpt lat="48.7046" lon="1.96632">
        <ele>162.4</ele>
        <time>2026-01-13T10:16:46Z</time>
      </trkpt>
      <trkpt lat="48.70461" lon="1.96645">
        <ele>162.6</ele>
        <time>2026-01-13T10:16:47Z</time>
      </trkpt>
      <trkpt lat="48.70461" lon="1.96657">
        <ele>163</ele>
        <time>2026-01-13T10:16:48Z</time>
      </trkpt>
      <trkpt lat="48.70463" lon="1.96669">
        <ele>163</ele>
        <time>2026-01-13T10:16:49Z</time>
      </trkpt>
      <trkpt lat="48.70464" lon="1.96681">
        <ele>163</ele>
        <time>2026-01-13T10:16:50Z</time>
      </trkpt>
      <trkpt lat="48.70464" lon="1.96692">
        <ele>163</ele>
        <time>2026-01-13T10:16:51Z</time>
      </trkpt>
      <trkpt lat="48.70465" lon="1.96703">
        <ele>163</ele>
        <time>2026-01-13T10:16:52Z</time>
      </trkpt>
      <trkpt lat="48.70465" lon="1.96713">
        <ele>162.6</ele>
        <time>2026-01-13T10:16:53Z</time>
      </trkpt>
      <trkpt lat="48.70465" lon="1.96723">
        <ele>162.6</ele>
        <time>2026-01-13T10:16:54Z</time>
      </trkpt>
      <trkpt lat="48.70466" lon="1.96733">
        <ele>162.6</ele>
        <time>2026-01-13T10:16:55Z</time>
      </trkpt>
      <trkpt lat="48.70466" lon="1.96743">
        <ele>163</ele>
        <time>2026-01-13T10:16:56Z</time>
      </trkpt>
      <trkpt lat="48.70466" lon="1.96753">
        <ele>163</ele>
        <time>2026-01-13T10:16:57Z</time>
      </trkpt>
      <trkpt lat="48.70467" lon="1.96763">
        <ele>163</ele>
        <time>2026-01-13T10:16:58Z</time>
      </trkpt>
      <trkpt lat="48.70467" lon="1.96776">
        <ele>163</ele>
        <time>2026-01-13T10:16:59Z</time>
      </trkpt>
      <trkpt lat="48.70467" lon="1.96786">
        <ele>163.4</ele>
        <time>2026-01-13T10:17:00Z</time>
      </trkpt>
      <trkpt lat="48.70469" lon="1.96798">
        <ele>163.6</ele>
        <time>2026-01-13T10:17:01Z</time>
      </trkpt>
      <trkpt lat="48.7047" lon="1.96808">
        <ele>163.8</ele>
        <time>2026-01-13T10:17:02Z</time>
      </trkpt>
      <trkpt lat="48.70471" lon="1.96818">
        <ele>164.2</ele>
        <time>2026-01-13T10:17:03Z</time>
      </trkpt>
      <trkpt lat="48.70471" lon="1.96827">
        <ele>164.4</ele>
        <time>2026-01-13T10:17:04Z</time>
      </trkpt>
      <trkpt lat="48.70472" lon="1.96837">
        <ele>164.4</ele>
        <time>2026-01-13T10:17:05Z</time>
      </trkpt>
      <trkpt lat="48.70474" lon="1.96848">
        <ele>164.4</ele>
        <time>2026-01-13T10:17:06Z</time>
      </trkpt>
      <trkpt lat="48.70476" lon="1.96858">
        <ele>163.8</ele>
        <time>2026-01-13T10:17:07Z</time>
      </trkpt>
      <trkpt lat="48.70477" lon="1.96869">
        <ele>163.8</ele>
        <time>2026-01-13T10:17:08Z</time>
      </trkpt>
      <trkpt lat="48.70478" lon="1.96879">
        <ele>163.8</ele>
        <time>2026-01-13T10:17:09Z</time>
      </trkpt>
      <trkpt lat="48.70479" lon="1.96889">
        <ele>163.8</ele>
        <time>2026-01-13T10:17:10Z</time>
      </trkpt>
      <trkpt lat="48.7048" lon="1.96899">
        <ele>163.8</ele>
        <time>2026-01-13T10:17:11Z</time>
      </trkpt>
      <trkpt lat="48.70482" lon="1.9691">
        <ele>163.8</ele>
        <time>2026-01-13T10:17:12Z</time>
      </trkpt>
      <trkpt lat="48.70483" lon="1.9692">
        <ele>163.2</ele>
        <time>2026-01-13T10:17:13Z</time>
      </trkpt>
      <trkpt lat="48.70485" lon="1.96931">
        <ele>163</ele>
        <time>2026-01-13T10:17:14Z</time>
      </trkpt>
      <trkpt lat="48.70487" lon="1.96942">
        <ele>162.6</ele>
        <time>2026-01-13T10:17:15Z</time>
      </trkpt>
      <trkpt lat="48.70488" lon="1.96952">
        <ele>162.6</ele>
        <time>2026-01-13T10:17:16Z</time>
      </trkpt>
      <trkpt lat="48.7049" lon="1.96963">
        <ele>162.2</ele>
        <time>2026-01-13T10:17:17Z</time>
      </trkpt>
      <trkpt lat="48.70493" lon="1.96974">
        <ele>162</ele>
        <time>2026-01-13T10:17:18Z</time>
      </trkpt>
      <trkpt lat="48.70495" lon="1.96985">
        <ele>161.8</ele>
        <time>2026-01-13T10:17:19Z</time>
      </trkpt>
      <trkpt lat="48.70497" lon="1.96996">
        <ele>161.4</ele>
        <time>2026-01-13T10:17:20Z</time>
      </trkpt>
      <trkpt lat="48.70499" lon="1.97006">
        <ele>161.2</ele>
        <time>2026-01-13T10:17:21Z</time>
      </trkpt>
      <trkpt lat="48.70502" lon="1.97017">
        <ele>161</ele>
        <time>2026-01-13T10:17:22Z</time>
      </trkpt>
      <trkpt lat="48.70504" lon="1.97027">
        <ele>160.8</ele>
        <time>2026-01-13T10:17:23Z</time>
      </trkpt>
      <trkpt lat="48.70507" lon="1.97038">
        <ele>160.8</ele>
        <time>2026-01-13T10:17:24Z</time>
      </trkpt>
      <trkpt lat="48.7051" lon="1.97048">
        <ele>160.8</ele>
        <time>2026-01-13T10:17:25Z</time>
      </trkpt>
      <trkpt lat="48.70513" lon="1.97058">
        <ele>160.8</ele>
        <time>2026-01-13T10:17:26Z</time>
      </trkpt>
      <trkpt lat="48.70516" lon="1.97069">
        <ele>159.8</ele>
        <time>2026-01-13T10:17:27Z</time>
      </trkpt>
      <trkpt lat="48.70521" lon="1.97079">
        <ele>159.8</ele>
        <time>2026-01-13T10:17:28Z</time>
      </trkpt>
      <trkpt lat="48.70524" lon="1.97091">
        <ele>159.8</ele>
        <time>2026-01-13T10:17:29Z</time>
      </trkpt>
      <trkpt lat="48.70528" lon="1.97102">
        <ele>159.8</ele>
        <time>2026-01-13T10:17:30Z</time>
      </trkpt>
      <trkpt lat="48.70532" lon="1.97112">
        <ele>159.4</ele>
        <time>2026-01-13T10:17:31Z</time>
      </trkpt>
      <trkpt lat="48.70536" lon="1.97123">
        <ele>159.2</ele>
        <time>2026-01-13T10:17:32Z</time>
      </trkpt>
      <trkpt lat="48.7054" lon="1.97133">
        <ele>158.8</ele>
        <time>2026-01-13T10:17:33Z</time>
      </trkpt>
      <trkpt lat="48.70544" lon="1.97143">
        <ele>158.8</ele>
        <time>2026-01-13T10:17:34Z</time>
      </trkpt>
      <trkpt lat="48.70547" lon="1.97152">
        <ele>158.8</ele>
        <time>2026-01-13T10:17:35Z</time>
      </trkpt>
      <trkpt lat="48.70551" lon="1.97162">
        <ele>158.8</ele>
        <time>2026-01-13T10:17:36Z</time>
      </trkpt>
      <trkpt lat="48.70556" lon="1.97173">
        <ele>158.2</ele>
        <time>2026-01-13T10:17:37Z</time>
      </trkpt>
      <trkpt lat="48.7056" lon="1.97182">
        <ele>158.2</ele>
        <time>2026-01-13T10:17:38Z</time>
      </trkpt>
      <trkpt lat="48.70564" lon="1.97193">
        <ele>157.8</ele>
        <time>2026-01-13T10:17:39Z</time>
      </trkpt>
      <trkpt lat="48.70569" lon="1.97203">
        <ele>157.4</ele>
        <time>2026-01-13T10:17:40Z</time>
      </trkpt>
      <trkpt lat="48.70574" lon="1.97214">
        <ele>157.4</ele>
        <time>2026-01-13T10:17:41Z</time>
      </trkpt>
      <trkpt lat="48.70579" lon="1.97224">
        <ele>157.2</ele>
        <time>2026-01-13T10:17:42Z</time>
      </trkpt>
      <trkpt lat="48.70583" lon="1.97235">
        <ele>157.2</ele>
        <time>2026-01-13T10:17:43Z</time>
      </trkpt>
      <trkpt lat="48.70587" lon="1.97245">
        <ele>157.2</ele>
        <time>2026-01-13T10:17:44Z</time>
      </trkpt>
      <trkpt lat="48.70591" lon="1.97256">
        <ele>157.2</ele>
        <time>2026-01-13T10:17:45Z</time>
      </trkpt>
      <trkpt lat="48.70595" lon="1.97266">
        <ele>156.2</ele>
        <time>2026-01-13T10:17:46Z</time>
      </trkpt>
      <trkpt lat="48.70599" lon="1.97277">
        <ele>155.2</ele>
        <time>2026-01-13T10:17:47Z</time>
      </trkpt>
      <trkpt lat="48.70603" lon="1.97288">
        <ele>154.8</ele>
        <time>2026-01-13T10:17:48Z</time>
      </trkpt>
      <trkpt lat="48.70607" lon="1.97299">
        <ele>153.8</ele>
        <time>2026-01-13T10:17:49Z</time>
      </trkpt>
      <trkpt lat="48.70612" lon="1.9731">
        <ele>152.8</ele>
        <time>2026-01-13T10:17:50Z</time>
      </trkpt>
      <trkpt lat="48.70616" lon="1.97322">
        <ele>152.4</ele>
        <time>2026-01-13T10:17:51Z</time>
      </trkpt>
      <trkpt lat="48.70621" lon="1.97333">
        <ele>151.4</ele>
        <time>2026-01-13T10:17:52Z</time>
      </trkpt>
      <trkpt lat="48.70625" lon="1.97345">
        <ele>151</ele>
        <time>2026-01-13T10:17:53Z</time>
      </trkpt>
      <trkpt lat="48.7063" lon="1.97356">
        <ele>150.8</ele>
        <time>2026-01-13T10:17:54Z</time>
      </trkpt>
      <trkpt lat="48.70636" lon="1.97368">
        <ele>149.8</ele>
        <time>2026-01-13T10:17:55Z</time>
      </trkpt>
      <trkpt lat="48.7064" lon="1.9738">
        <ele>149</ele>
        <time>2026-01-13T10:17:56Z</time>
      </trkpt>
      <trkpt lat="48.70645" lon="1.97393">
        <ele>148</ele>
        <time>2026-01-13T10:17:57Z</time>
      </trkpt>
      <trkpt lat="48.7065" lon="1.97404">
        <ele>147.4</ele>
        <time>2026-01-13T10:17:58Z</time>
      </trkpt>
      <trkpt lat="48.70656" lon="1.97417">
        <ele>146.8</ele>
        <time>2026-01-13T10:17:59Z</time>
      </trkpt>
      <trkpt lat="48.70662" lon="1.9743">
        <ele>146</ele>
        <time>2026-01-13T10:18:00Z</time>
      </trkpt>
      <trkpt lat="48.70666" lon="1.97442">
        <ele>145</ele>
        <time>2026-01-13T10:18:01Z</time>
      </trkpt>
      <trkpt lat="48.7067" lon="1.97455">
        <ele>144.2</ele>
        <time>2026-01-13T10:18:02Z</time>
      </trkpt>
      <trkpt lat="48.70674" lon="1.97468">
        <ele>143.2</ele>
        <time>2026-01-13T10:18:03Z</time>
      </trkpt>
      <trkpt lat="48.70679" lon="1.9748">
        <ele>142.6</ele>
        <time>2026-01-13T10:18:04Z</time>
      </trkpt>
      <trkpt lat="48.70684" lon="1.97493">
        <ele>141.6</ele>
        <time>2026-01-13T10:18:05Z</time>
      </trkpt>
      <trkpt lat="48.70689" lon="1.97507">
        <ele>140.8</ele>
        <time>2026-01-13T10:18:06Z</time>
      </trkpt>
      <trkpt lat="48.70693" lon="1.9752">
        <ele>139.8</ele>
        <time>2026-01-13T10:18:07Z</time>
      </trkpt>
      <trkpt lat="48.70698" lon="1.97534">
        <ele>139.2</ele>
        <time>2026-01-13T10:18:08Z</time>
      </trkpt>
      <trkpt lat="48.70704" lon="1.97548">
        <ele>138.4</ele>
        <time>2026-01-13T10:18:09Z</time>
      </trkpt>
      <trkpt lat="48.70707" lon="1.97562">
        <ele>137.6</ele>
        <time>2026-01-13T10:18:10Z</time>
      </trkpt>
      <trkpt lat="48.70712" lon="1.97576">
        <ele>136.6</ele>
        <time>2026-01-13T10:18:11Z</time>
      </trkpt>
      <trkpt lat="48.70718" lon="1.97591">
        <ele>135.6</ele>
        <time>2026-01-13T10:18:12Z</time>
      </trkpt>
      <trkpt lat="48.70724" lon="1.97604">
        <ele>135</ele>
        <time>2026-01-13T10:18:13Z</time>
      </trkpt>
      <trkpt lat="48.7073" lon="1.97618">
        <ele>134</ele>
        <time>2026-01-13T10:18:14Z</time>
      </trkpt>
      <trkpt lat="48.70736" lon="1.97631">
        <ele>133.4</ele>
        <time>2026-01-13T10:18:15Z</time>
      </trkpt>
      <trkpt lat="48.70742" lon="1.97646">
        <ele>132.4</ele>
        <time>2026-01-13T10:18:16Z</time>
      </trkpt>
      <trkpt lat="48.70749" lon="1.97663">
        <ele>131.4</ele>
        <time>2026-01-13T10:18:17Z</time>
      </trkpt>
      <trkpt lat="48.70756" lon="1.9768">
        <ele>130.4</ele>
        <time>2026-01-13T10:18:18Z</time>
      </trkpt>
      <trkpt lat="48.70763" lon="1.97695">
        <ele>129.4</ele>
        <time>2026-01-13T10:18:19Z</time>
      </trkpt>
      <trkpt lat="48.7077" lon="1.9771">
        <ele>128.4</ele>
        <time>2026-01-13T10:18:20Z</time>
      </trkpt>
      <trkpt lat="48.70776" lon="1.97724">
        <ele>128</ele>
        <time>2026-01-13T10:18:21Z</time>
      </trkpt>
      <trkpt lat="48.70784" lon="1.97739">
        <ele>127</ele>
        <time>2026-01-13T10:18:22Z</time>
      </trkpt>
      <trkpt lat="48.70792" lon="1.97754">
        <ele>126.8</ele>
        <time>2026-01-13T10:18:23Z</time>
      </trkpt>
      <trkpt lat="48.70803" lon="1.9777">
        <ele>125.8</ele>
        <time>2026-01-13T10:18:24Z</time>
      </trkpt>
      <trkpt lat="48.70813" lon="1.97786">
        <ele>125</ele>
        <time>2026-01-13T10:18:25Z</time>
      </trkpt>
      <trkpt lat="48.70824" lon="1.97799">
        <ele>124</ele>
        <time>2026-01-13T10:18:26Z</time>
      </trkpt>
      <trkpt lat="48.70834" lon="1.97813">
        <ele>123</ele>
        <time>2026-01-13T10:18:27Z</time>
      </trkpt>
      <trkpt lat="48.70844" lon="1.97826">
        <ele>122.2</ele>
        <time>2026-01-13T10:18:28Z</time>
      </trkpt>
      <trkpt lat="48.70853" lon="1.97839">
        <ele>121.2</ele>
        <time>2026-01-13T10:18:29Z</time>
      </trkpt>
      <trkpt lat="48.70862" lon="1.97852">
        <ele>120.8</ele>
        <time>2026-01-13T10:18:30Z</time>
      </trkpt>
      <trkpt lat="48.70872" lon="1.97865">
        <ele>120</ele>
        <time>2026-01-13T10:18:31Z</time>
      </trkpt>
      <trkpt lat="48.70881" lon="1.97878">
        <ele>119.6</ele>
        <time>2026-01-13T10:18:32Z</time>
      </trkpt>
      <trkpt lat="48.7089" lon="1.97889">
        <ele>119.4</ele>
        <time>2026-01-13T10:18:33Z</time>
      </trkpt>
      <trkpt lat="48.70898" lon="1.97901">
        <ele>119.4</ele>
        <time>2026-01-13T10:18:34Z</time>
      </trkpt>
      <trkpt lat="48.70906" lon="1.97912">
        <ele>119.4</ele>
        <time>2026-01-13T10:18:35Z</time>
      </trkpt>
      <trkpt lat="48.70912" lon="1.97923">
        <ele>119.4</ele>
        <time>2026-01-13T10:18:36Z</time>
      </trkpt>
      <trkpt lat="48.70917" lon="1.97933">
        <ele>118.8</ele>
        <time>2026-01-13T10:18:37Z</time>
      </trkpt>
      <trkpt lat="48.7092" lon="1.97944">
        <ele>118.8</ele>
        <time>2026-01-13T10:18:38Z</time>
      </trkpt>
      <trkpt lat="48.70922" lon="1.97954">
        <ele>118.8</ele>
        <time>2026-01-13T10:18:39Z</time>
      </trkpt>
      <trkpt lat="48.70925" lon="1.97965">
        <ele>118.8</ele>
        <time>2026-01-13T10:18:40Z</time>
      </trkpt>
      <trkpt lat="48.70927" lon="1.97976">
        <ele>118.8</ele>
        <time>2026-01-13T10:18:41Z</time>
      </trkpt>
      <trkpt lat="48.70929" lon="1.97988">
        <ele>117.8</ele>
        <time>2026-01-13T10:18:42Z</time>
      </trkpt>
      <trkpt lat="48.70929" lon="1.98">
        <ele>116.8</ele>
        <time>2026-01-13T10:18:43Z</time>
      </trkpt>
      <trkpt lat="48.70928" lon="1.98012">
        <ele>115.8</ele>
        <time>2026-01-13T10:18:44Z</time>
      </trkpt>
      <trkpt lat="48.70927" lon="1.98024">
        <ele>115</ele>
        <time>2026-01-13T10:18:45Z</time>
      </trkpt>
      <trkpt lat="48.70926" lon="1.98035">
        <ele>114.2</ele>
        <time>2026-01-13T10:18:46Z</time>
      </trkpt>
      <trkpt lat="48.70924" lon="1.98047">
        <ele>114</ele>
        <time>2026-01-13T10:18:47Z</time>
      </trkpt>
      <trkpt lat="48.70921" lon="1.98058">
        <ele>113.2</ele>
        <time>2026-01-13T10:18:48Z</time>
      </trkpt>
      <trkpt lat="48.70919" lon="1.98071">
        <ele>112.2</ele>
        <time>2026-01-13T10:18:49Z</time>
      </trkpt>
      <trkpt lat="48.70916" lon="1.98083">
        <ele>111.6</ele>
        <time>2026-01-13T10:18:50Z</time>
      </trkpt>
      <trkpt lat="48.70914" lon="1.98096">
        <ele>110.6</ele>
        <time>2026-01-13T10:18:51Z</time>
      </trkpt>
      <trkpt lat="48.70911" lon="1.9811">
        <ele>110.2</ele>
        <time>2026-01-13T10:18:52Z</time>
      </trkpt>
      <trkpt lat="48.70909" lon="1.98124">
        <ele>110</ele>
        <time>2026-01-13T10:18:53Z</time>
      </trkpt>
      <trkpt lat="48.70906" lon="1.98138">
        <ele>109</ele>
        <time>2026-01-13T10:18:54Z</time>
      </trkpt>
      <trkpt lat="48.70903" lon="1.98152">
        <ele>108.4</ele>
        <time>2026-01-13T10:18:55Z</time>
      </trkpt>
      <trkpt lat="48.70901" lon="1.98167">
        <ele>107.6</ele>
        <time>2026-01-13T10:18:56Z</time>
      </trkpt>
      <trkpt lat="48.70897" lon="1.98181">
        <ele>107</ele>
        <time>2026-01-13T10:18:57Z</time>
      </trkpt>
      <trkpt lat="48.70893" lon="1.98195">
        <ele>106.4</ele>
        <time>2026-01-13T10:18:58Z</time>
      </trkpt>
      <trkpt lat="48.7089" lon="1.98208">
        <ele>106.4</ele>
        <time>2026-01-13T10:18:59Z</time>
      </trkpt>
      <trkpt lat="48.70887" lon="1.98222">
        <ele>106.4</ele>
        <time>2026-01-13T10:19:00Z</time>
      </trkpt>
      <trkpt lat="48.70883" lon="1.98235">
        <ele>106.4</ele>
        <time>2026-01-13T10:19:01Z</time>
      </trkpt>
      <trkpt lat="48.70879" lon="1.98248">
        <ele>105.4</ele>
        <time>2026-01-13T10:19:02Z</time>
      </trkpt>
      <trkpt lat="48.70876" lon="1.98261">
        <ele>105.4</ele>
        <time>2026-01-13T10:19:03Z</time>
      </trkpt>
      <trkpt lat="48.70874" lon="1.98274">
        <ele>105.4</ele>
        <time>2026-01-13T10:19:04Z</time>
      </trkpt>
      <trkpt lat="48.70871" lon="1.98287">
        <ele>105.4</ele>
        <time>2026-01-13T10:19:05Z</time>
      </trkpt>
      <trkpt lat="48.70868" lon="1.98301">
        <ele>105.4</ele>
        <time>2026-01-13T10:19:06Z</time>
      </trkpt>
      <trkpt lat="48.70866" lon="1.98315">
        <ele>104.6</ele>
        <time>2026-01-13T10:19:07Z</time>
      </trkpt>
      <trkpt lat="48.70864" lon="1.98328">
        <ele>104</ele>
        <time>2026-01-13T10:19:08Z</time>
      </trkpt>
      <trkpt lat="48.70862" lon="1.98341">
        <ele>104</ele>
        <time>2026-01-13T10:19:09Z</time>
      </trkpt>
      <trkpt lat="48.7086" lon="1.98353">
        <ele>104</ele>
        <time>2026-01-13T10:19:10Z</time>
      </trkpt>
      <trkpt lat="48.70858" lon="1.98365">
        <ele>104.6</ele>
        <time>2026-01-13T10:19:11Z</time>
      </trkpt>
      <trkpt lat="48.70856" lon="1.98377">
        <ele>104.8</ele>
        <time>2026-01-13T10:19:12Z</time>
      </trkpt>
      <trkpt lat="48.70854" lon="1.98389">
        <ele>104.8</ele>
        <time>2026-01-13T10:19:13Z</time>
      </trkpt>
      <trkpt lat="48.70851" lon="1.98402">
        <ele>104.8</ele>
        <time>2026-01-13T10:19:14Z</time>
      </trkpt>
      <trkpt lat="48.70849" lon="1.98414">
        <ele>104.8</ele>
        <time>2026-01-13T10:19:15Z</time>
      </trkpt>
      <trkpt lat="48.70847" lon="1.98426">
        <ele>104.8</ele>
        <time>2026-01-13T10:19:16Z</time>
      </trkpt>
      <trkpt lat="48.70844" lon="1.98437">
        <ele>105.8</ele>
        <time>2026-01-13T10:19:17Z</time>
      </trkpt>
      <trkpt lat="48.70841" lon="1.98448">
        <ele>105.8</ele>
        <time>2026-01-13T10:19:18Z</time>
      </trkpt>
      <trkpt lat="48.70839" lon="1.98458">
        <ele>105.8</ele>
        <time>2026-01-13T10:19:19Z</time>
      </trkpt>
      <trkpt lat="48.70837" lon="1.98468">
        <ele>105.8</ele>
        <time>2026-01-13T10:19:20Z</time>
      </trkpt>
      <trkpt lat="48.70835" lon="1.98478">
        <ele>105.8</ele>
        <time>2026-01-13T10:19:21Z</time>
      </trkpt>
      <trkpt lat="48.70832" lon="1.98488">
        <ele>106.2</ele>
        <time>2026-01-13T10:19:22Z</time>
      </trkpt>
      <trkpt lat="48.7083" lon="1.98498">
        <ele>106.6</ele>
        <time>2026-01-13T10:19:23Z</time>
      </trkpt>
      <trkpt lat="48.70828" lon="1.98507">
        <ele>106.6</ele>
        <time>2026-01-13T10:19:24Z</time>
      </trkpt>
      <trkpt lat="48.70827" lon="1.98517">
        <ele>106.6</ele>
        <time>2026-01-13T10:19:25Z</time>
      </trkpt>
      <trkpt lat="48.70826" lon="1.98525">
        <ele>106.4</ele>
        <time>2026-01-13T10:19:26Z</time>
      </trkpt>
      <trkpt lat="48.70824" lon="1.98534">
        <ele>106.4</ele>
        <time>2026-01-13T10:19:27Z</time>
      </trkpt>
      <trkpt lat="48.70823" lon="1.98541">
        <ele>106.4</ele>
        <time>2026-01-13T10:19:28Z</time>
      </trkpt>
      <trkpt lat="48.70821" lon="1.9855">
        <ele>107.2</ele>
        <time>2026-01-13T10:19:29Z</time>
      </trkpt>
      <trkpt lat="48.70819" lon="1.98559">
        <ele>107.4</ele>
        <time>2026-01-13T10:19:30Z</time>
      </trkpt>
      <trkpt lat="48.70817" lon="1.98567">
        <ele>107.6</ele>
        <time>2026-01-13T10:19:31Z</time>
      </trkpt>
      <trkpt lat="48.70814" lon="1.98574">
        <ele>107.6</ele>
        <time>2026-01-13T10:19:32Z</time>
      </trkpt>
      <trkpt lat="48.70811" lon="1.98582">
        <ele>107.6</ele>
        <time>2026-01-13T10:19:33Z</time>
      </trkpt>
      <trkpt lat="48.70808" lon="1.98589">
        <ele>107.6</ele>
        <time>2026-01-13T10:19:34Z</time>
      </trkpt>
      <trkpt lat="48.70805" lon="1.98597">
        <ele>107.2</ele>
        <time>2026-01-13T10:19:35Z</time>
      </trkpt>
      <trkpt lat="48.70802" lon="1.98604">
        <ele>107.2</ele>
        <time>2026-01-13T10:19:36Z</time>
      </trkpt>
      <trkpt lat="48.70799" lon="1.98612">
        <ele>106.8</ele>
        <time>2026-01-13T10:19:37Z</time>
      </trkpt>
      <trkpt lat="48.70796" lon="1.98619">
        <ele>106.8</ele>
        <time>2026-01-13T10:19:38Z</time>
      </trkpt>
      <trkpt lat="48.70792" lon="1.98625">
        <ele>106.8</ele>
        <time>2026-01-13T10:19:39Z</time>
      </trkpt>
      <trkpt lat="48.70789" lon="1.98632">
        <ele>107</ele>
        <time>2026-01-13T10:19:40Z</time>
      </trkpt>
      <trkpt lat="48.70786" lon="1.98639">
        <ele>107</ele>
        <time>2026-01-13T10:19:41Z</time>
      </trkpt>
      <trkpt lat="48.70783" lon="1.98646">
        <ele>107</ele>
        <time>2026-01-13T10:19:42Z</time>
      </trkpt>
      <trkpt lat="48.70779" lon="1.98654">
        <ele>106</ele>
        <time>2026-01-13T10:19:43Z</time>
      </trkpt>
      <trkpt lat="48.70776" lon="1.98661">
        <ele>105.6</ele>
        <time>2026-01-13T10:19:44Z</time>
      </trkpt>
      <trkpt lat="48.70773" lon="1.98669">
        <ele>105</ele>
        <time>2026-01-13T10:19:45Z</time>
      </trkpt>
      <trkpt lat="48.70769" lon="1.98677">
        <ele>104.4</ele>
        <time>2026-01-13T10:19:46Z</time>
      </trkpt>
      <trkpt lat="48.70765" lon="1.98685">
        <ele>104</ele>
        <time>2026-01-13T10:19:47Z</time>
      </trkpt>
      <trkpt lat="48.7076" lon="1.98693">
        <ele>103</ele>
        <time>2026-01-13T10:19:48Z</time>
      </trkpt>
      <trkpt lat="48.70755" lon="1.987">
        <ele>102.6</ele>
        <time>2026-01-13T10:19:49Z</time>
      </trkpt>
      <trkpt lat="48.7075" lon="1.98707">
        <ele>101.6</ele>
        <time>2026-01-13T10:19:50Z</time>
      </trkpt>
      <trkpt lat="48.70744" lon="1.98713">
        <ele>101</ele>
        <time>2026-01-13T10:19:51Z</time>
      </trkpt>
      <trkpt lat="48.70737" lon="1.98718">
        <ele>100.4</ele>
        <time>2026-01-13T10:19:52Z</time>
      </trkpt>
      <trkpt lat="48.70729" lon="1.98722">
        <ele>99.4</ele>
        <time>2026-01-13T10:19:53Z</time>
      </trkpt>
      <trkpt lat="48.70722" lon="1.98726">
        <ele>98.6</ele>
        <time>2026-01-13T10:19:54Z</time>
      </trkpt>
      <trkpt lat="48.70714" lon="1.98729">
        <ele>98</ele>
        <time>2026-01-13T10:19:55Z</time>
      </trkpt>
      <trkpt lat="48.70706" lon="1.98732">
        <ele>97.4</ele>
        <time>2026-01-13T10:19:56Z</time>
      </trkpt>
      <trkpt lat="48.70697" lon="1.98735">
        <ele>97</ele>
        <time>2026-01-13T10:19:57Z</time>
      </trkpt>
      <trkpt lat="48.7069" lon="1.98737">
        <ele>97</ele>
        <time>2026-01-13T10:19:58Z</time>
      </trkpt>
      <trkpt lat="48.70682" lon="1.98739">
        <ele>96.8</ele>
        <time>2026-01-13T10:19:59Z</time>
      </trkpt>
      <trkpt lat="48.70675" lon="1.9874">
        <ele>95.8</ele>
        <time>2026-01-13T10:20:00Z</time>
      </trkpt>
      <trkpt lat="48.70668" lon="1.98742">
        <ele>95.8</ele>
        <time>2026-01-13T10:20:01Z</time>
      </trkpt>
      <trkpt lat="48.70662" lon="1.98744">
        <ele>95.8</ele>
        <time>2026-01-13T10:20:02Z</time>
      </trkpt>
      <trkpt lat="48.70656" lon="1.98747">
        <ele>96.4</ele>
        <time>2026-01-13T10:20:03Z</time>
      </trkpt>
      <trkpt lat="48.70652" lon="1.98751">
        <ele>97</ele>
        <time>2026-01-13T10:20:04Z</time>
      </trkpt>
      <trkpt lat="48.70648" lon="1.98754">
        <ele>97.6</ele>
        <time>2026-01-13T10:20:05Z</time>
      </trkpt>
      <trkpt lat="48.70645" lon="1.98757">
        <ele>97.8</ele>
        <time>2026-01-13T10:20:06Z</time>
      </trkpt>
      <trkpt lat="48.70644" lon="1.98759">
        <ele>98</ele>
        <time>2026-01-13T10:20:07Z</time>
      </trkpt>
      <trkpt lat="48.70644" lon="1.9876">
        <ele>98</ele>
        <time>2026-01-13T10:20:08Z</time>
      </trkpt>
      <trkpt lat="48.70644" lon="1.9876">
        <ele>98</ele>
        <time>2026-01-13T10:20:09Z</time>
      </trkpt>
      <trkpt lat="48.70644" lon="1.9876">
        <ele>98</ele>
        <time>2026-01-13T10:20:10Z</time>
      </trkpt>
      <trkpt lat="48.70642" lon="1.9877">
        <ele>97.4</ele>
        <time>2026-01-13T10:20:22Z</time>
      </trkpt>
      <trkpt lat="48.70643" lon="1.98777">
        <ele>97.4</ele>
        <time>2026-01-13T10:20:23Z</time>
      </trkpt>
      <trkpt lat="48.70645" lon="1.98781">
        <ele>97.4</ele>
        <time>2026-01-13T10:20:24Z</time>
      </trkpt>
      <trkpt lat="48.70647" lon="1.98786">
        <ele>97.4</ele>
        <time>2026-01-13T10:20:25Z</time>
      </trkpt>
      <trkpt lat="48.70649" lon="1.98792">
        <ele>97.4</ele>
        <time>2026-01-13T10:20:26Z</time>
      </trkpt>
      <trkpt lat="48.70651" lon="1.98798">
        <ele>97</ele>
        <time>2026-01-13T10:20:27Z</time>
      </trkpt>
      <trkpt lat="48.70654" lon="1.98805">
        <ele>96.6</ele>
        <time>2026-01-13T10:20:28Z</time>
      </trkpt>
      <trkpt lat="48.70656" lon="1.98812">
        <ele>96.4</ele>
        <time>2026-01-13T10:20:29Z</time>
      </trkpt>
      <trkpt lat="48.70658" lon="1.98819">
        <ele>96.2</ele>
        <time>2026-01-13T10:20:30Z</time>
      </trkpt>
      <trkpt lat="48.70661" lon="1.98827">
        <ele>96</ele>
        <time>2026-01-13T10:20:31Z</time>
      </trkpt>
      <trkpt lat="48.70663" lon="1.98836">
        <ele>95.8</ele>
        <time>2026-01-13T10:20:32Z</time>
      </trkpt>
      <trkpt lat="48.70666" lon="1.98845">
        <ele>95.2</ele>
        <time>2026-01-13T10:20:33Z</time>
      </trkpt>
      <trkpt lat="48.70669" lon="1.98853">
        <ele>95.2</ele>
        <time>2026-01-13T10:20:34Z</time>
      </trkpt>
      <trkpt lat="48.70672" lon="1.98862">
        <ele>95.2</ele>
        <time>2026-01-13T10:20:35Z</time>
      </trkpt>
      <trkpt lat="48.70675" lon="1.98871">
        <ele>95.2</ele>
        <time>2026-01-13T10:20:36Z</time>
      </trkpt>
      <trkpt lat="48.70678" lon="1.98881">
        <ele>95.2</ele>
        <time>2026-01-13T10:20:37Z</time>
      </trkpt>
      <trkpt lat="48.70681" lon="1.98889">
        <ele>94.2</ele>
        <time>2026-01-13T10:20:38Z</time>
      </trkpt>
      <trkpt lat="48.70684" lon="1.98898">
        <ele>93.6</ele>
        <time>2026-01-13T10:20:39Z</time>
      </trkpt>
      <trkpt lat="48.70689" lon="1.98904">
        <ele>93.4</ele>
        <time>2026-01-13T10:20:40Z</time>
      </trkpt>
      <trkpt lat="48.70695" lon="1.9891">
        <ele>93.2</ele>
        <time>2026-01-13T10:20:41Z</time>
      </trkpt>
      <trkpt lat="48.70702" lon="1.98913">
        <ele>93.2</ele>
        <time>2026-01-13T10:20:42Z</time>
      </trkpt>
      <trkpt lat="48.70708" lon="1.98915">
        <ele>93.2</ele>
        <time>2026-01-13T10:20:43Z</time>
      </trkpt>
      <trkpt lat="48.70715" lon="1.98917">
        <ele>93.2</ele>
        <time>2026-01-13T10:20:44Z</time>
      </trkpt>
      <trkpt lat="48.70721" lon="1.98918">
        <ele>93.2</ele>
        <time>2026-01-13T10:20:45Z</time>
      </trkpt>
      <trkpt lat="48.70728" lon="1.98919">
        <ele>94.2</ele>
        <time>2026-01-13T10:20:46Z</time>
      </trkpt>
      <trkpt lat="48.70734" lon="1.98921">
        <ele>94.8</ele>
        <time>2026-01-13T10:20:47Z</time>
      </trkpt>
      <trkpt lat="48.7074" lon="1.98922">
        <ele>94.8</ele>
        <time>2026-01-13T10:20:48Z</time>
      </trkpt>
      <trkpt lat="48.70747" lon="1.98923">
        <ele>94.8</ele>
        <time>2026-01-13T10:20:49Z</time>
      </trkpt>
      <trkpt lat="48.70753" lon="1.98924">
        <ele>94.4</ele>
        <time>2026-01-13T10:20:50Z</time>
      </trkpt>
      <trkpt lat="48.70759" lon="1.98926">
        <ele>94</ele>
        <time>2026-01-13T10:20:51Z</time>
      </trkpt>
      <trkpt lat="48.70766" lon="1.98927">
        <ele>94</ele>
        <time>2026-01-13T10:20:52Z</time>
      </trkpt>
      <trkpt lat="48.70773" lon="1.98927">
        <ele>94</ele>
        <time>2026-01-13T10:20:53Z</time>
      </trkpt>
      <trkpt lat="48.70779" lon="1.98928">
        <ele>94</ele>
        <time>2026-01-13T10:20:54Z</time>
      </trkpt>
      <trkpt lat="48.70786" lon="1.98929">
        <ele>94</ele>
        <time>2026-01-13T10:20:55Z</time>
      </trkpt>
      <trkpt lat="48.70792" lon="1.9893">
        <ele>93.2</ele>
        <time>2026-01-13T10:20:56Z</time>
      </trkpt>
      <trkpt lat="48.70799" lon="1.98932">
        <ele>92.6</ele>
        <time>2026-01-13T10:20:57Z</time>
      </trkpt>
      <trkpt lat="48.70807" lon="1.98934">
        <ele>92.6</ele>
        <time>2026-01-13T10:20:58Z</time>
      </trkpt>
      <trkpt lat="48.70814" lon="1.98936">
        <ele>92</ele>
        <time>2026-01-13T10:20:59Z</time>
      </trkpt>
      <trkpt lat="48.70821" lon="1.98939">
        <ele>91.8</ele>
        <time>2026-01-13T10:21:00Z</time>
      </trkpt>
      <trkpt lat="48.70828" lon="1.9894">
        <ele>91.6</ele>
        <time>2026-01-13T10:21:01Z</time>
      </trkpt>
      <trkpt lat="48.70836" lon="1.98943">
        <ele>91.2</ele>
        <time>2026-01-13T10:21:02Z</time>
      </trkpt>
      <trkpt lat="48.70843" lon="1.98944">
        <ele>90.6</ele>
        <time>2026-01-13T10:21:03Z</time>
      </trkpt>
      <trkpt lat="48.70851" lon="1.98945">
        <ele>90.4</ele>
        <time>2026-01-13T10:21:04Z</time>
      </trkpt>
      <trkpt lat="48.70859" lon="1.98947">
        <ele>89.6</ele>
        <time>2026-01-13T10:21:05Z</time>
      </trkpt>
      <trkpt lat="48.70868" lon="1.98948">
        <ele>89.6</ele>
        <time>2026-01-13T10:21:06Z</time>
      </trkpt>
      <trkpt lat="48.70876" lon="1.9895">
        <ele>89.4</ele>
        <time>2026-01-13T10:21:07Z</time>
      </trkpt>
      <trkpt lat="48.70884" lon="1.98952">
        <ele>89.2</ele>
        <time>2026-01-13T10:21:08Z</time>
      </trkpt>
      <trkpt lat="48.70892" lon="1.98954">
        <ele>89</ele>
        <time>2026-01-13T10:21:09Z</time>
      </trkpt>
      <trkpt lat="48.70901" lon="1.98956">
        <ele>88.8</ele>
        <time>2026-01-13T10:21:10Z</time>
      </trkpt>
      <trkpt lat="48.70909" lon="1.98957">
        <ele>88.8</ele>
        <time>2026-01-13T10:21:11Z</time>
      </trkpt>
      <trkpt lat="48.70917" lon="1.9896">
        <ele>88.6</ele>
        <time>2026-01-13T10:21:12Z</time>
      </trkpt>
      <trkpt lat="48.70925" lon="1.98962">
        <ele>88.6</ele>
        <time>2026-01-13T10:21:13Z</time>
      </trkpt>
      <trkpt lat="48.70933" lon="1.98963">
        <ele>88.6</ele>
        <time>2026-01-13T10:21:14Z</time>
      </trkpt>
      <trkpt lat="48.70941" lon="1.98966">
        <ele>88.6</ele>
        <time>2026-01-13T10:21:15Z</time>
      </trkpt>
      <trkpt lat="48.70949" lon="1.98968">
        <ele>88</ele>
        <time>2026-01-13T10:21:16Z</time>
      </trkpt>
      <trkpt lat="48.70957" lon="1.9897">
        <ele>88</ele>
        <time>2026-01-13T10:21:17Z</time>
      </trkpt>
      <trkpt lat="48.70964" lon="1.98971">
        <ele>88</ele>
        <time>2026-01-13T10:21:18Z</time>
      </trkpt>
      <trkpt lat="48.70971" lon="1.98972">
        <ele>89</ele>
        <time>2026-01-13T10:21:19Z</time>
      </trkpt>
      <trkpt lat="48.70977" lon="1.98974">
        <ele>89</ele>
        <time>2026-01-13T10:21:20Z</time>
      </trkpt>
      <trkpt lat="48.70984" lon="1.98976">
        <ele>89</ele>
        <time>2026-01-13T10:21:21Z</time>
      </trkpt>
      <trkpt lat="48.70991" lon="1.98977">
        <ele>89.4</ele>
        <time>2026-01-13T10:21:22Z</time>
      </trkpt>
      <trkpt lat="48.70998" lon="1.98978">
        <ele>89.6</ele>
        <time>2026-01-13T10:21:23Z</time>
      </trkpt>
      <trkpt lat="48.71004" lon="1.9898">
        <ele>89.8</ele>
        <time>2026-01-13T10:21:24Z</time>
      </trkpt>
      <trkpt lat="48.7101" lon="1.98982">
        <ele>90.4</ele>
        <time>2026-01-13T10:21:25Z</time>
      </trkpt>
      <trkpt lat="48.71016" lon="1.98983">
        <ele>90.4</ele>
        <time>2026-01-13T10:21:26Z</time>
      </trkpt>
      <trkpt lat="48.71021" lon="1.98984">
        <ele>91.2</ele>
        <time>2026-01-13T10:21:27Z</time>
      </trkpt>
      <trkpt lat="48.71026" lon="1.98986">
        <ele>91.4</ele>
        <time>2026-01-13T10:21:28Z</time>
      </trkpt>
      <trkpt lat="48.71032" lon="1.98988">
        <ele>92</ele>
        <time>2026-01-13T10:21:29Z</time>
      </trkpt>
      <trkpt lat="48.71037" lon="1.9899">
        <ele>92.4</ele>
        <time>2026-01-13T10:21:30Z</time>
      </trkpt>
      <trkpt lat="48.71042" lon="1.98993">
        <ele>92.6</ele>
        <time>2026-01-13T10:21:31Z</time>
      </trkpt>
      <trkpt lat="48.71047" lon="1.98995">
        <ele>93</ele>
        <time>2026-01-13T10:21:32Z</time>
      </trkpt>
      <trkpt lat="48.71051" lon="1.98997">
        <ele>93.6</ele>
        <time>2026-01-13T10:21:33Z</time>
      </trkpt>
      <trkpt lat="48.71056" lon="1.98999">
        <ele>93.8</ele>
        <time>2026-01-13T10:21:34Z</time>
      </trkpt>
      <trkpt lat="48.7106" lon="1.99002">
        <ele>94.2</ele>
        <time>2026-01-13T10:21:35Z</time>
      </trkpt>
      <trkpt lat="48.71065" lon="1.99004">
        <ele>94.4</ele>
        <time>2026-01-13T10:21:36Z</time>
      </trkpt>
      <trkpt lat="48.71069" lon="1.99007">
        <ele>94.8</ele>
        <time>2026-01-13T10:21:37Z</time>
      </trkpt>
      <trkpt lat="48.71073" lon="1.99009">
        <ele>95</ele>
        <time>2026-01-13T10:21:38Z</time>
      </trkpt>
      <trkpt lat="48.71076" lon="1.99011">
        <ele>95</ele>
        <time>2026-01-13T10:21:39Z</time>
      </trkpt>
      <trkpt lat="48.71079" lon="1.99013">
        <ele>95</ele>
        <time>2026-01-13T10:21:40Z</time>
      </trkpt>
      <trkpt lat="48.71082" lon="1.99015">
        <ele>95</ele>
        <time>2026-01-13T10:21:41Z</time>
      </trkpt>
      <trkpt lat="48.71086" lon="1.99017">
        <ele>95.8</ele>
        <time>2026-01-13T10:21:42Z</time>
      </trkpt>
      <trkpt lat="48.71088" lon="1.99018">
        <ele>95.8</ele>
        <time>2026-01-13T10:21:43Z</time>
      </trkpt>
      <trkpt lat="48.71092" lon="1.9902">
        <ele>96.8</ele>
        <time>2026-01-13T10:21:44Z</time>
      </trkpt>
      <trkpt lat="48.71095" lon="1.99023">
        <ele>96.8</ele>
        <time>2026-01-13T10:21:45Z</time>
      </trkpt>
      <trkpt lat="48.71098" lon="1.99025">
        <ele>96.8</ele>
        <time>2026-01-13T10:21:46Z</time>
      </trkpt>
      <trkpt lat="48.71101" lon="1.99028">
        <ele>96.8</ele>
        <time>2026-01-13T10:21:47Z</time>
      </trkpt>
      <trkpt lat="48.71104" lon="1.99031">
        <ele>97</ele>
        <time>2026-01-13T10:21:48Z</time>
      </trkpt>
      <trkpt lat="48.71107" lon="1.99034">
        <ele>97.4</ele>
        <time>2026-01-13T10:21:49Z</time>
      </trkpt>
      <trkpt lat="48.7111" lon="1.99037">
        <ele>97.8</ele>
        <time>2026-01-13T10:21:50Z</time>
      </trkpt>
      <trkpt lat="48.71113" lon="1.99039">
        <ele>97.8</ele>
        <time>2026-01-13T10:21:51Z</time>
      </trkpt>
      <trkpt lat="48.71115" lon="1.99042">
        <ele>97.8</ele>
        <time>2026-01-13T10:21:52Z</time>
      </trkpt>
      <trkpt lat="48.71118" lon="1.99045">
        <ele>97.8</ele>
        <time>2026-01-13T10:21:53Z</time>
      </trkpt>
      <trkpt lat="48.7112" lon="1.99048">
        <ele>98.2</ele>
        <time>2026-01-13T10:21:54Z</time>
      </trkpt>
      <trkpt lat="48.71121" lon="1.99052">
        <ele>98.2</ele>
        <time>2026-01-13T10:21:55Z</time>
      </trkpt>
      <trkpt lat="48.71122" lon="1.99056">
        <ele>98.4</ele>
        <time>2026-01-13T10:21:56Z</time>
      </trkpt>
      <trkpt lat="48.71124" lon="1.9906">
        <ele>98.6</ele>
        <time>2026-01-13T10:21:57Z</time>
      </trkpt>
      <trkpt lat="48.71125" lon="1.99063">
        <ele>98.6</ele>
        <time>2026-01-13T10:21:58Z</time>
      </trkpt>
      <trkpt lat="48.71126" lon="1.99067">
        <ele>98.6</ele>
        <time>2026-01-13T10:21:59Z</time>
      </trkpt>
      <trkpt lat="48.71127" lon="1.99071">
        <ele>98.6</ele>
        <time>2026-01-13T10:22:00Z</time>
      </trkpt>
      <trkpt lat="48.71127" lon="1.99075">
        <ele>99.2</ele>
        <time>2026-01-13T10:22:01Z</time>
      </trkpt>
      <trkpt lat="48.71127" lon="1.9908">
        <ele>99.6</ele>
        <time>2026-01-13T10:22:02Z</time>
      </trkpt>
      <trkpt lat="48.71126" lon="1.99083">
        <ele>99.6</ele>
        <time>2026-01-13T10:22:03Z</time>
      </trkpt>
      <trkpt lat="48.71124" lon="1.99087">
        <ele>99.6</ele>
        <time>2026-01-13T10:22:04Z</time>
      </trkpt>
      <trkpt lat="48.71123" lon="1.99092">
        <ele>99.6</ele>
        <time>2026-01-13T10:22:05Z</time>
      </trkpt>
      <trkpt lat="48.71121" lon="1.99095">
        <ele>100.2</ele>
        <time>2026-01-13T10:22:06Z</time>
      </trkpt>
      <trkpt lat="48.71119" lon="1.99098">
        <ele>100.4</ele>
        <time>2026-01-13T10:22:07Z</time>
      </trkpt>
      <trkpt lat="48.71118" lon="1.99102">
        <ele>100.4</ele>
        <time>2026-01-13T10:22:08Z</time>
      </trkpt>
      <trkpt lat="48.71116" lon="1.99106">
        <ele>100.8</ele>
        <time>2026-01-13T10:22:09Z</time>
      </trkpt>
      <trkpt lat="48.71114" lon="1.99109">
        <ele>101</ele>
        <time>2026-01-13T10:22:10Z</time>
      </trkpt>
      <trkpt lat="48.71113" lon="1.99113">
        <ele>101.4</ele>
        <time>2026-01-13T10:22:11Z</time>
      </trkpt>
      <trkpt lat="48.71111" lon="1.99115">
        <ele>101.6</ele>
        <time>2026-01-13T10:22:12Z</time>
      </trkpt>
      <trkpt lat="48.7111" lon="1.99118">
        <ele>101.6</ele>
        <time>2026-01-13T10:22:13Z</time>
      </trkpt>
      <trkpt lat="48.71109" lon="1.99123">
        <ele>101.6</ele>
        <time>2026-01-13T10:22:14Z</time>
      </trkpt>
      <trkpt lat="48.71109" lon="1.99129">
        <ele>101.6</ele>
        <time>2026-01-13T10:22:15Z</time>
      </trkpt>
      <trkpt lat="48.71109" lon="1.99134">
        <ele>102.6</ele>
        <time>2026-01-13T10:22:16Z</time>
      </trkpt>
      <trkpt lat="48.71109" lon="1.99139">
        <ele>102.6</ele>
        <time>2026-01-13T10:22:17Z</time>
      </trkpt>
      <trkpt lat="48.71109" lon="1.99144">
        <ele>102.6</ele>
        <time>2026-01-13T10:22:18Z</time>
      </trkpt>
      <trkpt lat="48.71109" lon="1.99149">
        <ele>102.6</ele>
        <time>2026-01-13T10:22:19Z</time>
      </trkpt>
      <trkpt lat="48.7111" lon="1.99154">
        <ele>102.6</ele>
        <time>2026-01-13T10:22:20Z</time>
      </trkpt>
      <trkpt lat="48.71111" lon="1.99158">
        <ele>103</ele>
        <time>2026-01-13T10:22:21Z</time>
      </trkpt>
      <trkpt lat="48.71112" lon="1.99163">
        <ele>103.4</ele>
        <time>2026-01-13T10:22:22Z</time>
      </trkpt>
      <trkpt lat="48.71113" lon="1.99167">
        <ele>103.4</ele>
        <time>2026-01-13T10:22:23Z</time>
      </trkpt>
      <trkpt lat="48.71115" lon="1.99172">
        <ele>103.4</ele>
        <time>2026-01-13T10:22:24Z</time>
      </trkpt>
      <trkpt lat="48.71115" lon="1.99177">
        <ele>103.4</ele>
        <time>2026-01-13T10:22:25Z</time>
      </trkpt>
      <trkpt lat="48.71116" lon="1.99181">
        <ele>104.4</ele>
        <time>2026-01-13T10:22:26Z</time>
      </trkpt>
      <trkpt lat="48.71117" lon="1.99186">
        <ele>104.8</ele>
        <time>2026-01-13T10:22:27Z</time>
      </trkpt>
      <trkpt lat="48.71118" lon="1.9919">
        <ele>105.2</ele>
        <time>2026-01-13T10:22:28Z</time>
      </trkpt>
      <trkpt lat="48.71118" lon="1.99195">
        <ele>105.2</ele>
        <time>2026-01-13T10:22:29Z</time>
      </trkpt>
      <trkpt lat="48.71118" lon="1.992">
        <ele>105.4</ele>
        <time>2026-01-13T10:22:30Z</time>
      </trkpt>
      <trkpt lat="48.71117" lon="1.99204">
        <ele>105.6</ele>
        <time>2026-01-13T10:22:31Z</time>
      </trkpt>
      <trkpt lat="48.71116" lon="1.99207">
        <ele>105.8</ele>
        <time>2026-01-13T10:22:32Z</time>
      </trkpt>
      <trkpt lat="48.71115" lon="1.99211">
        <ele>106</ele>
        <time>2026-01-13T10:22:33Z</time>
      </trkpt>
      <trkpt lat="48.71114" lon="1.99214">
        <ele>106</ele>
        <time>2026-01-13T10:22:34Z</time>
      </trkpt>
      <trkpt lat="48.71112" lon="1.9922">
        <ele>106.2</ele>
        <time>2026-01-13T10:22:35Z</time>
      </trkpt>
      <trkpt lat="48.71111" lon="1.99224">
        <ele>106.2</ele>
        <time>2026-01-13T10:22:36Z</time>
      </trkpt>
      <trkpt lat="48.7111" lon="1.99228">
        <ele>106.4</ele>
        <time>2026-01-13T10:22:37Z</time>
      </trkpt>
      <trkpt lat="48.71108" lon="1.99232">
        <ele>106.6</ele>
        <time>2026-01-13T10:22:38Z</time>
      </trkpt>
      <trkpt lat="48.71107" lon="1.99236">
        <ele>106.6</ele>
        <time>2026-01-13T10:22:39Z</time>
      </trkpt>
      <trkpt lat="48.71105" lon="1.99239">
        <ele>106.6</ele>
        <time>2026-01-13T10:22:40Z</time>
      </trkpt>
      <trkpt lat="48.71103" lon="1.99242">
        <ele>106.6</ele>
        <time>2026-01-13T10:22:41Z</time>
      </trkpt>
      <trkpt lat="48.71101" lon="1.99245">
        <ele>107.6</ele>
        <time>2026-01-13T10:22:42Z</time>
      </trkpt>
      <trkpt lat="48.71099" lon="1.99248">
        <ele>108</ele>
        <time>2026-01-13T10:22:43Z</time>
      </trkpt>
      <trkpt lat="48.71098" lon="1.99252">
        <ele>108</ele>
        <time>2026-01-13T10:22:44Z</time>
      </trkpt>
      <trkpt lat="48.71096" lon="1.99255">
        <ele>108</ele>
        <time>2026-01-13T10:22:45Z</time>
      </trkpt>
      <trkpt lat="48.71095" lon="1.99258">
        <ele>108</ele>
        <time>2026-01-13T10:22:46Z</time>
      </trkpt>
      <trkpt lat="48.71094" lon="1.99261">
        <ele>108.6</ele>
        <time>2026-01-13T10:22:47Z</time>
      </trkpt>
      <trkpt lat="48.71092" lon="1.99265">
        <ele>108.6</ele>
        <time>2026-01-13T10:22:48Z</time>
      </trkpt>
      <trkpt lat="48.71091" lon="1.99269">
        <ele>108.6</ele>
        <time>2026-01-13T10:22:49Z</time>
      </trkpt>
      <trkpt lat="48.71089" lon="1.99275">
        <ele>108.6</ele>
        <time>2026-01-13T10:22:50Z</time>
      </trkpt>
      <trkpt lat="48.71088" lon="1.9928">
        <ele>109</ele>
        <time>2026-01-13T10:22:51Z</time>
      </trkpt>
      <trkpt lat="48.71087" lon="1.99284">
        <ele>109.4</ele>
        <time>2026-01-13T10:22:52Z</time>
      </trkpt>
      <trkpt lat="48.71086" lon="1.99289">
        <ele>109.4</ele>
        <time>2026-01-13T10:22:53Z</time>
      </trkpt>
      <trkpt lat="48.71086" lon="1.99293">
        <ele>109.4</ele>
        <time>2026-01-13T10:22:54Z</time>
      </trkpt>
      <trkpt lat="48.71086" lon="1.99298">
        <ele>109.4</ele>
        <time>2026-01-13T10:22:55Z</time>
      </trkpt>
      <trkpt lat="48.71084" lon="1.99301">
        <ele>110</ele>
        <time>2026-01-13T10:22:56Z</time>
      </trkpt>
      <trkpt lat="48.71083" lon="1.99306">
        <ele>110.2</ele>
        <time>2026-01-13T10:22:57Z</time>
      </trkpt>
      <trkpt lat="48.71083" lon="1.9931">
        <ele>110.4</ele>
        <time>2026-01-13T10:22:58Z</time>
      </trkpt>
      <trkpt lat="48.71082" lon="1.99315">
        <ele>110.4</ele>
        <time>2026-01-13T10:22:59Z</time>
      </trkpt>
      <trkpt lat="48.71082" lon="1.9932">
        <ele>110.6</ele>
        <time>2026-01-13T10:23:00Z</time>
      </trkpt>
      <trkpt lat="48.71081" lon="1.99324">
        <ele>111</ele>
        <time>2026-01-13T10:23:01Z</time>
      </trkpt>
      <trkpt lat="48.71081" lon="1.99329">
        <ele>111.6</ele>
        <time>2026-01-13T10:23:02Z</time>
      </trkpt>
      <trkpt lat="48.7108" lon="1.99334">
        <ele>111.6</ele>
        <time>2026-01-13T10:23:03Z</time>
      </trkpt>
      <trkpt lat="48.71079" lon="1.99339">
        <ele>111.6</ele>
        <time>2026-01-13T10:23:04Z</time>
      </trkpt>
      <trkpt lat="48.71077" lon="1.99343">
        <ele>111.6</ele>
        <time>2026-01-13T10:23:05Z</time>
      </trkpt>
      <trkpt lat="48.71076" lon="1.99346">
        <ele>111.6</ele>
        <time>2026-01-13T10:23:06Z</time>
      </trkpt>
      <trkpt lat="48.71074" lon="1.9935">
        <ele>111.6</ele>
        <time>2026-01-13T10:23:07Z</time>
      </trkpt>
      <trkpt lat="48.71072" lon="1.99354">
        <ele>112.6</ele>
        <time>2026-01-13T10:23:08Z</time>
      </trkpt>
      <trkpt lat="48.7107" lon="1.99357">
        <ele>112.8</ele>
        <time>2026-01-13T10:23:09Z</time>
      </trkpt>
      <trkpt lat="48.71068" lon="1.9936">
        <ele>113.2</ele>
        <time>2026-01-13T10:23:10Z</time>
      </trkpt>
      <trkpt lat="48.71066" lon="1.99363">
        <ele>113.6</ele>
        <time>2026-01-13T10:23:11Z</time>
      </trkpt>
      <trkpt lat="48.71063" lon="1.99365">
        <ele>113.8</ele>
        <time>2026-01-13T10:23:12Z</time>
      </trkpt>
      <trkpt lat="48.71061" lon="1.99367">
        <ele>114.2</ele>
        <time>2026-01-13T10:23:13Z</time>
      </trkpt>
      <trkpt lat="48.71059" lon="1.99369">
        <ele>114.2</ele>
        <time>2026-01-13T10:23:14Z</time>
      </trkpt>
      <trkpt lat="48.71056" lon="1.99372">
        <ele>114.2</ele>
        <time>2026-01-13T10:23:15Z</time>
      </trkpt>
      <trkpt lat="48.71054" lon="1.99374">
        <ele>114.2</ele>
        <time>2026-01-13T10:23:16Z</time>
      </trkpt>
      <trkpt lat="48.71052" lon="1.99376">
        <ele>114.8</ele>
        <time>2026-01-13T10:23:17Z</time>
      </trkpt>
      <trkpt lat="48.7105" lon="1.99379">
        <ele>115.2</ele>
        <time>2026-01-13T10:23:18Z</time>
      </trkpt>
      <trkpt lat="48.71048" lon="1.99383">
        <ele>115.8</ele>
        <time>2026-01-13T10:23:19Z</time>
      </trkpt>
      <trkpt lat="48.71046" lon="1.99386">
        <ele>115.8</ele>
        <time>2026-01-13T10:23:20Z</time>
      </trkpt>
      <trkpt lat="48.71045" lon="1.99389">
        <ele>115.8</ele>
        <time>2026-01-13T10:23:21Z</time>
      </trkpt>
      <trkpt lat="48.71044" lon="1.99393">
        <ele>115.8</ele>
        <time>2026-01-13T10:23:22Z</time>
      </trkpt>
      <trkpt lat="48.71043" lon="1.99397">
        <ele>116</ele>
        <time>2026-01-13T10:23:23Z</time>
      </trkpt>
      <trkpt lat="48.71042" lon="1.99401">
        <ele>116.4</ele>
        <time>2026-01-13T10:23:24Z</time>
      </trkpt>
      <trkpt lat="48.7104" lon="1.99406">
        <ele>116.4</ele>
        <time>2026-01-13T10:23:25Z</time>
      </trkpt>
      <trkpt lat="48.7104" lon="1.99411">
        <ele>116.4</ele>
        <time>2026-01-13T10:23:26Z</time>
      </trkpt>
      <trkpt lat="48.7104" lon="1.99415">
        <ele>116.4</ele>
        <time>2026-01-13T10:23:27Z</time>
      </trkpt>
      <trkpt lat="48.71039" lon="1.99419">
        <ele>117</ele>
        <time>2026-01-13T10:23:28Z</time>
      </trkpt>
      <trkpt lat="48.71038" lon="1.99423">
        <ele>117.2</ele>
        <time>2026-01-13T10:23:29Z</time>
      </trkpt>
      <trkpt lat="48.71037" lon="1.99428">
        <ele>117.6</ele>
        <time>2026-01-13T10:23:30Z</time>
      </trkpt>
      <trkpt lat="48.71036" lon="1.99433">
        <ele>117.8</ele>
        <time>2026-01-13T10:23:31Z</time>
      </trkpt>
      <trkpt lat="48.71036" lon="1.99438">
        <ele>118</ele>
        <time>2026-01-13T10:23:32Z</time>
      </trkpt>
      <trkpt lat="48.71035" lon="1.99442">
        <ele>118.2</ele>
        <time>2026-01-13T10:23:33Z</time>
      </trkpt>
      <trkpt lat="48.71034" lon="1.99447">
        <ele>118.4</ele>
        <time>2026-01-13T10:23:34Z</time>
      </trkpt>
      <trkpt lat="48.71033" lon="1.99452">
        <ele>118.6</ele>
        <time>2026-01-13T10:23:35Z</time>
      </trkpt>
      <trkpt lat="48.71032" lon="1.99456">
        <ele>118.6</ele>
        <time>2026-01-13T10:23:36Z</time>
      </trkpt>
      <trkpt lat="48.71031" lon="1.9946">
        <ele>118.6</ele>
        <time>2026-01-13T10:23:37Z</time>
      </trkpt>
      <trkpt lat="48.7103" lon="1.99464">
        <ele>118.6</ele>
        <time>2026-01-13T10:23:38Z</time>
      </trkpt>
      <trkpt lat="48.71028" lon="1.99468">
        <ele>119.2</ele>
        <time>2026-01-13T10:23:39Z</time>
      </trkpt>
      <trkpt lat="48.71027" lon="1.99472">
        <ele>119.4</ele>
        <time>2026-01-13T10:23:40Z</time>
      </trkpt>
      <trkpt lat="48.71025" lon="1.99475">
        <ele>119.6</ele>
        <time>2026-01-13T10:23:41Z</time>
      </trkpt>
      <trkpt lat="48.71023" lon="1.99478">
        <ele>119.8</ele>
        <time>2026-01-13T10:23:42Z</time>
      </trkpt>
      <trkpt lat="48.71021" lon="1.99481">
        <ele>119.8</ele>
        <time>2026-01-13T10:23:43Z</time>
      </trkpt>
      <trkpt lat="48.7102" lon="1.99484">
        <ele>119.8</ele>
        <time>2026-01-13T10:23:44Z</time>
      </trkpt>
      <trkpt lat="48.71018" lon="1.99487">
        <ele>119.8</ele>
        <time>2026-01-13T10:23:45Z</time>
      </trkpt>
      <trkpt lat="48.71015" lon="1.99491">
        <ele>120.6</ele>
        <time>2026-01-13T10:23:46Z</time>
      </trkpt>
      <trkpt lat="48.71013" lon="1.99494">
        <ele>120.6</ele>
        <time>2026-01-13T10:23:47Z</time>
      </trkpt>
      <trkpt lat="48.71011" lon="1.99496">
        <ele>120.6</ele>
        <time>2026-01-13T10:23:48Z</time>
      </trkpt>
      <trkpt lat="48.71008" lon="1.99498">
        <ele>120.6</ele>
        <time>2026-01-13T10:23:49Z</time>
      </trkpt>
      <trkpt lat="48.71006" lon="1.99501">
        <ele>121.6</ele>
        <time>2026-01-13T10:23:50Z</time>
      </trkpt>
      <trkpt lat="48.71004" lon="1.99504">
        <ele>121.8</ele>
        <time>2026-01-13T10:23:51Z</time>
      </trkpt>
      <trkpt lat="48.71002" lon="1.99507">
        <ele>122.2</ele>
        <time>2026-01-13T10:23:52Z</time>
      </trkpt>
      <trkpt lat="48.71" lon="1.99509">
        <ele>122.6</ele>
        <time>2026-01-13T10:23:53Z</time>
      </trkpt>
      <trkpt lat="48.70998" lon="1.99513">
        <ele>122.8</ele>
        <time>2026-01-13T10:23:54Z</time>
      </trkpt>
      <trkpt lat="48.70996" lon="1.99516">
        <ele>123.2</ele>
        <time>2026-01-13T10:23:55Z</time>
      </trkpt>
      <trkpt lat="48.70995" lon="1.99519">
        <ele>123.6</ele>
        <time>2026-01-13T10:23:56Z</time>
      </trkpt>
      <trkpt lat="48.70994" lon="1.99523">
        <ele>123.6</ele>
        <time>2026-01-13T10:23:57Z</time>
      </trkpt>
      <trkpt lat="48.70992" lon="1.99525">
        <ele>123.6</ele>
        <time>2026-01-13T10:23:58Z</time>
      </trkpt>
      <trkpt lat="48.70991" lon="1.99528">
        <ele>123.6</ele>
        <time>2026-01-13T10:23:59Z</time>
      </trkpt>
      <trkpt lat="48.7099" lon="1.99533">
        <ele>124.2</ele>
        <time>2026-01-13T10:24:00Z</time>
      </trkpt>
      <trkpt lat="48.70989" lon="1.99537">
        <ele>124.4</ele>
        <time>2026-01-13T10:24:01Z</time>
      </trkpt>
      <trkpt lat="48.70987" lon="1.99542">
        <ele>124.8</ele>
        <time>2026-01-13T10:24:02Z</time>
      </trkpt>
      <trkpt lat="48.70987" lon="1.99547">
        <ele>124.8</ele>
        <time>2026-01-13T10:24:03Z</time>
      </trkpt>
      <trkpt lat="48.70986" lon="1.99551">
        <ele>124.8</ele>
        <time>2026-01-13T10:24:04Z</time>
      </trkpt>
      <trkpt lat="48.70986" lon="1.99556">
        <ele>124.8</ele>
        <time>2026-01-13T10:24:05Z</time>
      </trkpt>
      <trkpt lat="48.70986" lon="1.9956">
        <ele>125.4</ele>
        <time>2026-01-13T10:24:06Z</time>
      </trkpt>
      <trkpt lat="48.70985" lon="1.99564">
        <ele>125.6</ele>
        <time>2026-01-13T10:24:07Z</time>
      </trkpt>
      <trkpt lat="48.70986" lon="1.99568">
        <ele>125.6</ele>
        <time>2026-01-13T10:24:08Z</time>
      </trkpt>
      <trkpt lat="48.70986" lon="1.99572">
        <ele>125.6</ele>
        <time>2026-01-13T10:24:09Z</time>
      </trkpt>
      <trkpt lat="48.70986" lon="1.99576">
        <ele>125.6</ele>
        <time>2026-01-13T10:24:10Z</time>
      </trkpt>
      <trkpt lat="48.70986" lon="1.9958">
        <ele>126</ele>
        <time>2026-01-13T10:24:11Z</time>
      </trkpt>
      <trkpt lat="48.70986" lon="1.99584">
        <ele>126.4</ele>
        <time>2026-01-13T10:24:12Z</time>
      </trkpt>
      <trkpt lat="48.70985" lon="1.99587">
        <ele>126.4</ele>
        <time>2026-01-13T10:24:13Z</time>
      </trkpt>
      <trkpt lat="48.70985" lon="1.99592">
        <ele>126.4</ele>
        <time>2026-01-13T10:24:14Z</time>
      </trkpt>
      <trkpt lat="48.70986" lon="1.99597">
        <ele>126.4</ele>
        <time>2026-01-13T10:24:15Z</time>
      </trkpt>
      <trkpt lat="48.70985" lon="1.99602">
        <ele>127.4</ele>
        <time>2026-01-13T10:24:16Z</time>
      </trkpt>
      <trkpt lat="48.70984" lon="1.99606">
        <ele>127.4</ele>
        <time>2026-01-13T10:24:17Z</time>
      </trkpt>
      <trkpt lat="48.70983" lon="1.9961">
        <ele>127.6</ele>
        <time>2026-01-13T10:24:18Z</time>
      </trkpt>
      <trkpt lat="48.70981" lon="1.99611">
        <ele>127.8</ele>
        <time>2026-01-13T10:24:19Z</time>
      </trkpt>
      <trkpt lat="48.7098" lon="1.99616">
        <ele>128</ele>
        <time>2026-01-13T10:24:20Z</time>
      </trkpt>
      <trkpt lat="48.70978" lon="1.99619">
        <ele>128</ele>
        <time>2026-01-13T10:24:21Z</time>
      </trkpt>
      <trkpt lat="48.70976" lon="1.99622">
        <ele>128</ele>
        <time>2026-01-13T10:24:22Z</time>
      </trkpt>
      <trkpt lat="48.70975" lon="1.99625">
        <ele>128</ele>
        <time>2026-01-13T10:24:23Z</time>
      </trkpt>
      <trkpt lat="48.70973" lon="1.99627">
        <ele>128.4</ele>
        <time>2026-01-13T10:24:24Z</time>
      </trkpt>
      <trkpt lat="48.70971" lon="1.99629">
        <ele>128.8</ele>
        <time>2026-01-13T10:24:25Z</time>
      </trkpt>
      <trkpt lat="48.70968" lon="1.99631">
        <ele>129.2</ele>
        <time>2026-01-13T10:24:26Z</time>
      </trkpt>
      <trkpt lat="48.70966" lon="1.99633">
        <ele>129.2</ele>
        <time>2026-01-13T10:24:27Z</time>
      </trkpt>
      <trkpt lat="48.70963" lon="1.99635">
        <ele>129.2</ele>
        <time>2026-01-13T10:24:28Z</time>
      </trkpt>
      <trkpt lat="48.70961" lon="1.99637">
        <ele>129.2</ele>
        <time>2026-01-13T10:24:29Z</time>
      </trkpt>
      <trkpt lat="48.70958" lon="1.99639">
        <ele>129.8</ele>
        <time>2026-01-13T10:24:30Z</time>
      </trkpt>
      <trkpt lat="48.70956" lon="1.99641">
        <ele>129.8</ele>
        <time>2026-01-13T10:24:31Z</time>
      </trkpt>
      <trkpt lat="48.70953" lon="1.99643">
        <ele>130.2</ele>
        <time>2026-01-13T10:24:32Z</time>
      </trkpt>
      <trkpt lat="48.7095" lon="1.99645">
        <ele>130.2</ele>
        <time>2026-01-13T10:24:33Z</time>
      </trkpt>
      <trkpt lat="48.70948" lon="1.99648">
        <ele>130.2</ele>
        <time>2026-01-13T10:24:34Z</time>
      </trkpt>
      <trkpt lat="48.70946" lon="1.9965">
        <ele>130.2</ele>
        <time>2026-01-13T10:24:35Z</time>
      </trkpt>
      <trkpt lat="48.70943" lon="1.99652">
        <ele>130.6</ele>
        <time>2026-01-13T10:24:36Z</time>
      </trkpt>
      <trkpt lat="48.7094" lon="1.99654">
        <ele>130.6</ele>
        <time>2026-01-13T10:24:37Z</time>
      </trkpt>
      <trkpt lat="48.70938" lon="1.99656">
        <ele>130.6</ele>
        <time>2026-01-13T10:24:38Z</time>
      </trkpt>
      <trkpt lat="48.70936" lon="1.99657">
        <ele>130.6</ele>
        <time>2026-01-13T10:24:39Z</time>
      </trkpt>
      <trkpt lat="48.70933" lon="1.99659">
        <ele>131.4</ele>
        <time>2026-01-13T10:24:40Z</time>
      </trkpt>
      <trkpt lat="48.70931" lon="1.99662">
        <ele>131.6</ele>
        <time>2026-01-13T10:24:41Z</time>
      </trkpt>
      <trkpt lat="48.70928" lon="1.99665">
        <ele>132.2</ele>
        <time>2026-01-13T10:24:42Z</time>
      </trkpt>
      <trkpt lat="48.70926" lon="1.99668">
        <ele>132.2</ele>
        <time>2026-01-13T10:24:43Z</time>
      </trkpt>
      <trkpt lat="48.70924" lon="1.99671">
        <ele>132.2</ele>
        <time>2026-01-13T10:24:44Z</time>
      </trkpt>
      <trkpt lat="48.70922" lon="1.99674">
        <ele>132.4</ele>
        <time>2026-01-13T10:24:45Z</time>
      </trkpt>
      <trkpt lat="48.7092" lon="1.99677">
        <ele>132.8</ele>
        <time>2026-01-13T10:24:46Z</time>
      </trkpt>
      <trkpt lat="48.70918" lon="1.99679">
        <ele>132.8</ele>
        <time>2026-01-13T10:24:47Z</time>
      </trkpt>
      <trkpt lat="48.70918" lon="1.99681">
        <ele>132.8</ele>
        <time>2026-01-13T10:24:48Z</time>
      </trkpt>
      <trkpt lat="48.70917" lon="1.99684">
        <ele>132.8</ele>
        <time>2026-01-13T10:24:49Z</time>
      </trkpt>
      <trkpt lat="48.70916" lon="1.99688">
        <ele>133.8</ele>
        <time>2026-01-13T10:24:50Z</time>
      </trkpt>
      <trkpt lat="48.70915" lon="1.99693">
        <ele>134</ele>
        <time>2026-01-13T10:24:51Z</time>
      </trkpt>
      <trkpt lat="48.70913" lon="1.997">
        <ele>134.2</ele>
        <time>2026-01-13T10:24:52Z</time>
      </trkpt>
      <trkpt lat="48.70912" lon="1.99705">
        <ele>134.4</ele>
        <time>2026-01-13T10:24:53Z</time>
      </trkpt>
      <trkpt lat="48.70912" lon="1.99709">
        <ele>134.6</ele>
        <time>2026-01-13T10:24:54Z</time>
      </trkpt>
      <trkpt lat="48.70912" lon="1.99713">
        <ele>134.6</ele>
        <time>2026-01-13T10:24:55Z</time>
      </trkpt>
      <trkpt lat="48.70911" lon="1.99718">
        <ele>134.6</ele>
        <time>2026-01-13T10:24:56Z</time>
      </trkpt>
      <trkpt lat="48.70911" lon="1.99723">
        <ele>134.6</ele>
        <time>2026-01-13T10:24:57Z</time>
      </trkpt>
      <trkpt lat="48.70911" lon="1.99728">
        <ele>135.6</ele>
        <time>2026-01-13T10:24:58Z</time>
      </trkpt>
      <trkpt lat="48.70911" lon="1.99732">
        <ele>135.6</ele>
        <time>2026-01-13T10:24:59Z</time>
      </trkpt>
      <trkpt lat="48.7091" lon="1.99736">
        <ele>135.8</ele>
        <time>2026-01-13T10:25:00Z</time>
      </trkpt>
      <trkpt lat="48.7091" lon="1.99741">
        <ele>136</ele>
        <time>2026-01-13T10:25:01Z</time>
      </trkpt>
      <trkpt lat="48.7091" lon="1.99746">
        <ele>136.4</ele>
        <time>2026-01-13T10:25:02Z</time>
      </trkpt>
      <trkpt lat="48.7091" lon="1.99749">
        <ele>136.6</ele>
        <time>2026-01-13T10:25:03Z</time>
      </trkpt>
      <trkpt lat="48.7091" lon="1.99753">
        <ele>136.6</ele>
        <time>2026-01-13T10:25:04Z</time>
      </trkpt>
      <trkpt lat="48.70909" lon="1.99757">
        <ele>136.8</ele>
        <time>2026-01-13T10:25:05Z</time>
      </trkpt>
      <trkpt lat="48.70909" lon="1.99761">
        <ele>137</ele>
        <time>2026-01-13T10:25:06Z</time>
      </trkpt>
      <trkpt lat="48.70908" lon="1.99765">
        <ele>137.2</ele>
        <time>2026-01-13T10:25:07Z</time>
      </trkpt>
      <trkpt lat="48.70907" lon="1.99769">
        <ele>137.6</ele>
        <time>2026-01-13T10:25:08Z</time>
      </trkpt>
      <trkpt lat="48.70906" lon="1.99773">
        <ele>137.6</ele>
        <time>2026-01-13T10:25:09Z</time>
      </trkpt>
      <trkpt lat="48.70904" lon="1.99778">
        <ele>137.6</ele>
        <time>2026-01-13T10:25:10Z</time>
      </trkpt>
      <trkpt lat="48.70903" lon="1.99782">
        <ele>137.6</ele>
        <time>2026-01-13T10:25:11Z</time>
      </trkpt>
      <trkpt lat="48.70901" lon="1.99786">
        <ele>138.6</ele>
        <time>2026-01-13T10:25:12Z</time>
      </trkpt>
      <trkpt lat="48.709" lon="1.9979">
        <ele>138.8</ele>
        <time>2026-01-13T10:25:13Z</time>
      </trkpt>
      <trkpt lat="48.70898" lon="1.99793">
        <ele>139</ele>
        <time>2026-01-13T10:25:14Z</time>
      </trkpt>
      <trkpt lat="48.70896" lon="1.99797">
        <ele>139</ele>
        <time>2026-01-13T10:25:15Z</time>
      </trkpt>
      <trkpt lat="48.70895" lon="1.99801">
        <ele>139</ele>
        <time>2026-01-13T10:25:16Z</time>
      </trkpt>
      <trkpt lat="48.70893" lon="1.99805">
        <ele>139</ele>
        <time>2026-01-13T10:25:17Z</time>
      </trkpt>
      <trkpt lat="48.70892" lon="1.99809">
        <ele>139.4</ele>
        <time>2026-01-13T10:25:18Z</time>
      </trkpt>
      <trkpt lat="48.7089" lon="1.99813">
        <ele>139.6</ele>
        <time>2026-01-13T10:25:19Z</time>
      </trkpt>
      <trkpt lat="48.70889" lon="1.99816">
        <ele>139.8</ele>
        <time>2026-01-13T10:25:20Z</time>
      </trkpt>
      <trkpt lat="48.70887" lon="1.9982">
        <ele>139.8</ele>
        <time>2026-01-13T10:25:21Z</time>
      </trkpt>
      <trkpt lat="48.70885" lon="1.99824">
        <ele>140</ele>
        <time>2026-01-13T10:25:22Z</time>
      </trkpt>
      <trkpt lat="48.70884" lon="1.99828">
        <ele>140.2</ele>
        <time>2026-01-13T10:25:23Z</time>
      </trkpt>
      <trkpt lat="48.70882" lon="1.99832">
        <ele>140.6</ele>
        <time>2026-01-13T10:25:24Z</time>
      </trkpt>
      <trkpt lat="48.7088" lon="1.99836">
        <ele>140.8</ele>
        <time>2026-01-13T10:25:25Z</time>
      </trkpt>
      <trkpt lat="48.70878" lon="1.9984">
        <ele>140.8</ele>
        <time>2026-01-13T10:25:26Z</time>
      </trkpt>
      <trkpt lat="48.70875" lon="1.99842">
        <ele>140.8</ele>
        <time>2026-01-13T10:25:27Z</time>
      </trkpt>
      <trkpt lat="48.70873" lon="1.99844">
        <ele>140.8</ele>
        <time>2026-01-13T10:25:28Z</time>
      </trkpt>
      <trkpt lat="48.7087" lon="1.99846">
        <ele>140.8</ele>
        <time>2026-01-13T10:25:29Z</time>
      </trkpt>
      <trkpt lat="48.70867" lon="1.99848">
        <ele>141.8</ele>
        <time>2026-01-13T10:25:30Z</time>
      </trkpt>
      <trkpt lat="48.70865" lon="1.99849">
        <ele>142</ele>
        <time>2026-01-13T10:25:31Z</time>
      </trkpt>
      <trkpt lat="48.70862" lon="1.99851">
        <ele>142</ele>
        <time>2026-01-13T10:25:32Z</time>
      </trkpt>
      <trkpt lat="48.70859" lon="1.99852">
        <ele>142</ele>
        <time>2026-01-13T10:25:33Z</time>
      </trkpt>
      <trkpt lat="48.70857" lon="1.99853">
        <ele>142</ele>
        <time>2026-01-13T10:25:34Z</time>
      </trkpt>
      <trkpt lat="48.70854" lon="1.99855">
        <ele>142.8</ele>
        <time>2026-01-13T10:25:35Z</time>
      </trkpt>
      <trkpt lat="48.70851" lon="1.99856">
        <ele>143.2</ele>
        <time>2026-01-13T10:25:36Z</time>
      </trkpt>
      <trkpt lat="48.70849" lon="1.99858">
        <ele>143.2</ele>
        <time>2026-01-13T10:25:37Z</time>
      </trkpt>
      <trkpt lat="48.70846" lon="1.99861">
        <ele>143.2</ele>
        <time>2026-01-13T10:25:38Z</time>
      </trkpt>
      <trkpt lat="48.70843" lon="1.99864">
        <ele>143.2</ele>
        <time>2026-01-13T10:25:39Z</time>
      </trkpt>
      <trkpt lat="48.70841" lon="1.99867">
        <ele>143.8</ele>
        <time>2026-01-13T10:25:40Z</time>
      </trkpt>
      <trkpt lat="48.70839" lon="1.99871">
        <ele>143.8</ele>
        <time>2026-01-13T10:25:41Z</time>
      </trkpt>
      <trkpt lat="48.70838" lon="1.99875">
        <ele>144.2</ele>
        <time>2026-01-13T10:25:42Z</time>
      </trkpt>
      <trkpt lat="48.70836" lon="1.99879">
        <ele>144.2</ele>
        <time>2026-01-13T10:25:43Z</time>
      </trkpt>
      <trkpt lat="48.70835" lon="1.99884">
        <ele>144.2</ele>
        <time>2026-01-13T10:25:44Z</time>
      </trkpt>
      <trkpt lat="48.70834" lon="1.99888">
        <ele>144.2</ele>
        <time>2026-01-13T10:25:45Z</time>
      </trkpt>
      <trkpt lat="48.70832" lon="1.99892">
        <ele>144.6</ele>
        <time>2026-01-13T10:25:46Z</time>
      </trkpt>
      <trkpt lat="48.70831" lon="1.99896">
        <ele>145.2</ele>
        <time>2026-01-13T10:25:47Z</time>
      </trkpt>
      <trkpt lat="48.70831" lon="1.99901">
        <ele>145.4</ele>
        <time>2026-01-13T10:25:48Z</time>
      </trkpt>
      <trkpt lat="48.7083" lon="1.99905">
        <ele>145.4</ele>
        <time>2026-01-13T10:25:49Z</time>
      </trkpt>
      <trkpt lat="48.70829" lon="1.99909">
        <ele>145.4</ele>
        <time>2026-01-13T10:25:50Z</time>
      </trkpt>
      <trkpt lat="48.70828" lon="1.99913">
        <ele>145.4</ele>
        <time>2026-01-13T10:25:51Z</time>
      </trkpt>
      <trkpt lat="48.70827" lon="1.99917">
        <ele>146</ele>
        <time>2026-01-13T10:25:52Z</time>
      </trkpt>
      <trkpt lat="48.70827" lon="1.99922">
        <ele>146.6</ele>
        <time>2026-01-13T10:25:53Z</time>
      </trkpt>
      <trkpt lat="48.70826" lon="1.99926">
        <ele>146.8</ele>
        <time>2026-01-13T10:25:54Z</time>
      </trkpt>
      <trkpt lat="48.70825" lon="1.99931">
        <ele>147</ele>
        <time>2026-01-13T10:25:55Z</time>
      </trkpt>
      <trkpt lat="48.70824" lon="1.99935">
        <ele>147.6</ele>
        <time>2026-01-13T10:25:56Z</time>
      </trkpt>
      <trkpt lat="48.70823" lon="1.9994">
        <ele>147.6</ele>
        <time>2026-01-13T10:25:57Z</time>
      </trkpt>
      <trkpt lat="48.70822" lon="1.99943">
        <ele>147.6</ele>
        <time>2026-01-13T10:25:58Z</time>
      </trkpt>
      <trkpt lat="48.70821" lon="1.99948">
        <ele>147.6</ele>
        <time>2026-01-13T10:25:59Z</time>
      </trkpt>
      <trkpt lat="48.7082" lon="1.99952">
        <ele>148.2</ele>
        <time>2026-01-13T10:26:00Z</time>
      </trkpt>
      <trkpt lat="48.70819" lon="1.99956">
        <ele>148.2</ele>
        <time>2026-01-13T10:26:01Z</time>
      </trkpt>
      <trkpt lat="48.70818" lon="1.99961">
        <ele>148.2</ele>
        <time>2026-01-13T10:26:02Z</time>
      </trkpt>
      <trkpt lat="48.70817" lon="1.99965">
        <ele>148.2</ele>
        <time>2026-01-13T10:26:03Z</time>
      </trkpt>
      <trkpt lat="48.70816" lon="1.99969">
        <ele>148.2</ele>
        <time>2026-01-13T10:26:04Z</time>
      </trkpt>
      <trkpt lat="48.70815" lon="1.99973">
        <ele>149</ele>
        <time>2026-01-13T10:26:05Z</time>
      </trkpt>
      <trkpt lat="48.70814" lon="1.99977">
        <ele>149</ele>
        <time>2026-01-13T10:26:06Z</time>
      </trkpt>
      <trkpt lat="48.70813" lon="1.99981">
        <ele>149.6</ele>
        <time>2026-01-13T10:26:07Z</time>
      </trkpt>
      <trkpt lat="48.70811" lon="1.99985">
        <ele>149.6</ele>
        <time>2026-01-13T10:26:08Z</time>
      </trkpt>
      <trkpt lat="48.7081" lon="1.99987">
        <ele>149.8</ele>
        <time>2026-01-13T10:26:09Z</time>
      </trkpt>
      <trkpt lat="48.70808" lon="1.99992">
        <ele>150</ele>
        <time>2026-01-13T10:26:10Z</time>
      </trkpt>
      <trkpt lat="48.70807" lon="1.99995">
        <ele>150.4</ele>
        <time>2026-01-13T10:26:11Z</time>
      </trkpt>
      <trkpt lat="48.70805" lon="1.99999">
        <ele>150.8</ele>
        <time>2026-01-13T10:26:12Z</time>
      </trkpt>
      <trkpt lat="48.70803" lon="2.00003">
        <ele>150.8</ele>
        <time>2026-01-13T10:26:13Z</time>
      </trkpt>
      <trkpt lat="48.70801" lon="2.00007">
        <ele>150.8</ele>
        <time>2026-01-13T10:26:14Z</time>
      </trkpt>
      <trkpt lat="48.70799" lon="2.00011">
        <ele>150.8</ele>
        <time>2026-01-13T10:26:15Z</time>
      </trkpt>
      <trkpt lat="48.70798" lon="2.00015">
        <ele>151.4</ele>
        <time>2026-01-13T10:26:16Z</time>
      </trkpt>
      <trkpt lat="48.70796" lon="2.00019">
        <ele>151.6</ele>
        <time>2026-01-13T10:26:17Z</time>
      </trkpt>
      <trkpt lat="48.70794" lon="2.00023">
        <ele>152</ele>
        <time>2026-01-13T10:26:18Z</time>
      </trkpt>
      <trkpt lat="48.70792" lon="2.00027">
        <ele>152</ele>
        <time>2026-01-13T10:26:19Z</time>
      </trkpt>
      <trkpt lat="48.70791" lon="2.0003">
        <ele>152.6</ele>
        <time>2026-01-13T10:26:20Z</time>
      </trkpt>
      <trkpt lat="48.70789" lon="2.00035">
        <ele>152.6</ele>
        <time>2026-01-13T10:26:21Z</time>
      </trkpt>
      <trkpt lat="48.70788" lon="2.00039">
        <ele>152.6</ele>
        <time>2026-01-13T10:26:22Z</time>
      </trkpt>
      <trkpt lat="48.70786" lon="2.00043">
        <ele>152.6</ele>
        <time>2026-01-13T10:26:23Z</time>
      </trkpt>
      <trkpt lat="48.70785" lon="2.00047">
        <ele>152.8</ele>
        <time>2026-01-13T10:26:24Z</time>
      </trkpt>
      <trkpt lat="48.70784" lon="2.00051">
        <ele>153.4</ele>
        <time>2026-01-13T10:26:25Z</time>
      </trkpt>
      <trkpt lat="48.70783" lon="2.00056">
        <ele>153.4</ele>
        <time>2026-01-13T10:26:26Z</time>
      </trkpt>
      <trkpt lat="48.70781" lon="2.0006">
        <ele>153.4</ele>
        <time>2026-01-13T10:26:27Z</time>
      </trkpt>
      <trkpt lat="48.7078" lon="2.00065">
        <ele>153.4</ele>
        <time>2026-01-13T10:26:28Z</time>
      </trkpt>
      <trkpt lat="48.70779" lon="2.00069">
        <ele>153.8</ele>
        <time>2026-01-13T10:26:29Z</time>
      </trkpt>
      <trkpt lat="48.70777" lon="2.00073">
        <ele>154.2</ele>
        <time>2026-01-13T10:26:30Z</time>
      </trkpt>
      <trkpt lat="48.70776" lon="2.00077">
        <ele>154.6</ele>
        <time>2026-01-13T10:26:31Z</time>
      </trkpt>
      <trkpt lat="48.70775" lon="2.00082">
        <ele>154.6</ele>
        <time>2026-01-13T10:26:32Z</time>
      </trkpt>
      <trkpt lat="48.70774" lon="2.00086">
        <ele>155.2</ele>
        <time>2026-01-13T10:26:33Z</time>
      </trkpt>
      <trkpt lat="48.70773" lon="2.00091">
        <ele>155.4</ele>
        <time>2026-01-13T10:26:34Z</time>
      </trkpt>
      <trkpt lat="48.70773" lon="2.00096">
        <ele>155.4</ele>
        <time>2026-01-13T10:26:35Z</time>
      </trkpt>
      <trkpt lat="48.70773" lon="2.00101">
        <ele>155.4</ele>
        <time>2026-01-13T10:26:36Z</time>
      </trkpt>
      <trkpt lat="48.70773" lon="2.00106">
        <ele>155.4</ele>
        <time>2026-01-13T10:26:37Z</time>
      </trkpt>
      <trkpt lat="48.70773" lon="2.00111">
        <ele>156.4</ele>
        <time>2026-01-13T10:26:38Z</time>
      </trkpt>
      <trkpt lat="48.70773" lon="2.00116">
        <ele>156.4</ele>
        <time>2026-01-13T10:26:39Z</time>
      </trkpt>
      <trkpt lat="48.70773" lon="2.00121">
        <ele>156.6</ele>
        <time>2026-01-13T10:26:40Z</time>
      </trkpt>
      <trkpt lat="48.70775" lon="2.00125">
        <ele>156.6</ele>
        <time>2026-01-13T10:26:41Z</time>
      </trkpt>
      <trkpt lat="48.70777" lon="2.00129">
        <ele>156.6</ele>
        <time>2026-01-13T10:26:42Z</time>
      </trkpt>
      <trkpt lat="48.70779" lon="2.00133">
        <ele>156.6</ele>
        <time>2026-01-13T10:26:43Z</time>
      </trkpt>
      <trkpt lat="48.70781" lon="2.00136">
        <ele>156.6</ele>
        <time>2026-01-13T10:26:44Z</time>
      </trkpt>
      <trkpt lat="48.70784" lon="2.00139">
        <ele>156.6</ele>
        <time>2026-01-13T10:26:45Z</time>
      </trkpt>
      <trkpt lat="48.70787" lon="2.00142">
        <ele>157.6</ele>
        <time>2026-01-13T10:26:46Z</time>
      </trkpt>
      <trkpt lat="48.7079" lon="2.00144">
        <ele>158.2</ele>
        <time>2026-01-13T10:26:47Z</time>
      </trkpt>
      <trkpt lat="48.70793" lon="2.00146">
        <ele>158.6</ele>
        <time>2026-01-13T10:26:48Z</time>
      </trkpt>
      <trkpt lat="48.70796" lon="2.00147">
        <ele>158.8</ele>
        <time>2026-01-13T10:26:49Z</time>
      </trkpt>
      <trkpt lat="48.70798" lon="2.00148">
        <ele>158.8</ele>
        <time>2026-01-13T10:26:50Z</time>
      </trkpt>
      <trkpt lat="48.70801" lon="2.00149">
        <ele>158.8</ele>
        <time>2026-01-13T10:26:51Z</time>
      </trkpt>
      <trkpt lat="48.70804" lon="2.00149">
        <ele>158.8</ele>
        <time>2026-01-13T10:26:52Z</time>
      </trkpt>
      <trkpt lat="48.70806" lon="2.0015">
        <ele>158.8</ele>
        <time>2026-01-13T10:26:53Z</time>
      </trkpt>
      <trkpt lat="48.70808" lon="2.00152">
        <ele>158.8</ele>
        <time>2026-01-13T10:26:54Z</time>
      </trkpt>
      <trkpt lat="48.70811" lon="2.00152">
        <ele>159.6</ele>
        <time>2026-01-13T10:26:55Z</time>
      </trkpt>
      <trkpt lat="48.70814" lon="2.00152">
        <ele>160</ele>
        <time>2026-01-13T10:26:56Z</time>
      </trkpt>
      <trkpt lat="48.70817" lon="2.00153">
        <ele>160</ele>
        <time>2026-01-13T10:26:57Z</time>
      </trkpt>
      <trkpt lat="48.70819" lon="2.00153">
        <ele>160.4</ele>
        <time>2026-01-13T10:26:58Z</time>
      </trkpt>
      <trkpt lat="48.70822" lon="2.00154">
        <ele>160.6</ele>
        <time>2026-01-13T10:26:59Z</time>
      </trkpt>
      <trkpt lat="48.70825" lon="2.00154">
        <ele>160.8</ele>
        <time>2026-01-13T10:27:00Z</time>
      </trkpt>
      <trkpt lat="48.70828" lon="2.00154">
        <ele>160.8</ele>
        <time>2026-01-13T10:27:01Z</time>
      </trkpt>
      <trkpt lat="48.7083" lon="2.00155">
        <ele>160.8</ele>
        <time>2026-01-13T10:27:02Z</time>
      </trkpt>
      <trkpt lat="48.70833" lon="2.00156">
        <ele>160.8</ele>
        <time>2026-01-13T10:27:03Z</time>
      </trkpt>
      <trkpt lat="48.70835" lon="2.00156">
        <ele>161.2</ele>
        <time>2026-01-13T10:27:04Z</time>
      </trkpt>
      <trkpt lat="48.70838" lon="2.00157">
        <ele>161.6</ele>
        <time>2026-01-13T10:27:05Z</time>
      </trkpt>
      <trkpt lat="48.70841" lon="2.00158">
        <ele>161.6</ele>
        <time>2026-01-13T10:27:06Z</time>
      </trkpt>
      <trkpt lat="48.70844" lon="2.00159">
        <ele>161.6</ele>
        <time>2026-01-13T10:27:07Z</time>
      </trkpt>
      <trkpt lat="48.70847" lon="2.00158">
        <ele>161.6</ele>
        <time>2026-01-13T10:27:08Z</time>
      </trkpt>
      <trkpt lat="48.7085" lon="2.00158">
        <ele>162.4</ele>
        <time>2026-01-13T10:27:09Z</time>
      </trkpt>
      <trkpt lat="48.70854" lon="2.00158">
        <ele>162.6</ele>
        <time>2026-01-13T10:27:10Z</time>
      </trkpt>
      <trkpt lat="48.70857" lon="2.00158">
        <ele>162.8</ele>
        <time>2026-01-13T10:27:11Z</time>
      </trkpt>
      <trkpt lat="48.7086" lon="2.00159">
        <ele>163.4</ele>
        <time>2026-01-13T10:27:12Z</time>
      </trkpt>
      <trkpt lat="48.70864" lon="2.00159">
        <ele>163.4</ele>
        <time>2026-01-13T10:27:13Z</time>
      </trkpt>
      <trkpt lat="48.70867" lon="2.00159">
        <ele>163.4</ele>
        <time>2026-01-13T10:27:14Z</time>
      </trkpt>
      <trkpt lat="48.70871" lon="2.00159">
        <ele>163.4</ele>
        <time>2026-01-13T10:27:15Z</time>
      </trkpt>
      <trkpt lat="48.70874" lon="2.00159">
        <ele>163.4</ele>
        <time>2026-01-13T10:27:16Z</time>
      </trkpt>
      <trkpt lat="48.70878" lon="2.00159">
        <ele>163.8</ele>
        <time>2026-01-13T10:27:17Z</time>
      </trkpt>
      <trkpt lat="48.70881" lon="2.00159">
        <ele>164.4</ele>
        <time>2026-01-13T10:27:18Z</time>
      </trkpt>
      <trkpt lat="48.70884" lon="2.0016">
        <ele>164.4</ele>
        <time>2026-01-13T10:27:19Z</time>
      </trkpt>
      <trkpt lat="48.70888" lon="2.00161">
        <ele>164.8</ele>
        <time>2026-01-13T10:27:20Z</time>
      </trkpt>
      <trkpt lat="48.70892" lon="2.00161">
        <ele>165</ele>
        <time>2026-01-13T10:27:21Z</time>
      </trkpt>
      <trkpt lat="48.70896" lon="2.00161">
        <ele>165</ele>
        <time>2026-01-13T10:27:22Z</time>
      </trkpt>
      <trkpt lat="48.70899" lon="2.00162">
        <ele>165</ele>
        <time>2026-01-13T10:27:23Z</time>
      </trkpt>
      <trkpt lat="48.70903" lon="2.00162">
        <ele>165</ele>
        <time>2026-01-13T10:27:24Z</time>
      </trkpt>
      <trkpt lat="48.70907" lon="2.00162">
        <ele>165</ele>
        <time>2026-01-13T10:27:25Z</time>
      </trkpt>
      <trkpt lat="48.70912" lon="2.00162">
        <ele>165</ele>
        <time>2026-01-13T10:27:26Z</time>
      </trkpt>
      <trkpt lat="48.70916" lon="2.00163">
        <ele>165.8</ele>
        <time>2026-01-13T10:27:27Z</time>
      </trkpt>
      <trkpt lat="48.70919" lon="2.00165">
        <ele>165.8</ele>
        <time>2026-01-13T10:27:28Z</time>
      </trkpt>
      <trkpt lat="48.70923" lon="2.00165">
        <ele>166</ele>
        <time>2026-01-13T10:27:29Z</time>
      </trkpt>
      <trkpt lat="48.70927" lon="2.00165">
        <ele>166</ele>
        <time>2026-01-13T10:27:30Z</time>
      </trkpt>
      <trkpt lat="48.70932" lon="2.00165">
        <ele>166</ele>
        <time>2026-01-13T10:27:31Z</time>
      </trkpt>
      <trkpt lat="48.70936" lon="2.00166">
        <ele>165.6</ele>
        <time>2026-01-13T10:27:32Z</time>
      </trkpt>
      <trkpt lat="48.70941" lon="2.00166">
        <ele>165.6</ele>
        <time>2026-01-13T10:27:33Z</time>
      </trkpt>
      <trkpt lat="48.70946" lon="2.00167">
        <ele>165.6</ele>
        <time>2026-01-13T10:27:34Z</time>
      </trkpt>
      <trkpt lat="48.70951" lon="2.00168">
        <ele>165.6</ele>
        <time>2026-01-13T10:27:35Z</time>
      </trkpt>
      <trkpt lat="48.70956" lon="2.00169">
        <ele>165.6</ele>
        <time>2026-01-13T10:27:36Z</time>
      </trkpt>
      <trkpt lat="48.7096" lon="2.0017">
        <ele>165.8</ele>
        <time>2026-01-13T10:27:37Z</time>
      </trkpt>
      <trkpt lat="48.70965" lon="2.0017">
        <ele>166.2</ele>
        <time>2026-01-13T10:27:38Z</time>
      </trkpt>
      <trkpt lat="48.7097" lon="2.00171">
        <ele>166.2</ele>
        <time>2026-01-13T10:27:39Z</time>
      </trkpt>
      <trkpt lat="48.70975" lon="2.00172">
        <ele>166.2</ele>
        <time>2026-01-13T10:27:40Z</time>
      </trkpt>
      <trkpt lat="48.7098" lon="2.00172">
        <ele>166.2</ele>
        <time>2026-01-13T10:27:41Z</time>
      </trkpt>
      <trkpt lat="48.70983" lon="2.00172">
        <ele>166.2</ele>
        <time>2026-01-13T10:27:42Z</time>
      </trkpt>
      <trkpt lat="48.70988" lon="2.00174">
        <ele>166.2</ele>
        <time>2026-01-13T10:27:43Z</time>
      </trkpt>
      <trkpt lat="48.70994" lon="2.00174">
        <ele>166</ele>
        <time>2026-01-13T10:27:44Z</time>
      </trkpt>
      <trkpt lat="48.71" lon="2.00175">
        <ele>165.8</ele>
        <time>2026-01-13T10:27:45Z</time>
      </trkpt>
      <trkpt lat="48.71006" lon="2.00174">
        <ele>165.8</ele>
        <time>2026-01-13T10:27:46Z</time>
      </trkpt>
      <trkpt lat="48.71012" lon="2.00175">
        <ele>165.8</ele>
        <time>2026-01-13T10:27:47Z</time>
      </trkpt>
      <trkpt lat="48.71019" lon="2.00176">
        <ele>165.8</ele>
        <time>2026-01-13T10:27:48Z</time>
      </trkpt>
      <trkpt lat="48.71025" lon="2.00177">
        <ele>166</ele>
        <time>2026-01-13T10:27:49Z</time>
      </trkpt>
      <trkpt lat="48.71031" lon="2.00178">
        <ele>166</ele>
        <time>2026-01-13T10:27:50Z</time>
      </trkpt>
      <trkpt lat="48.71039" lon="2.00178">
        <ele>166</ele>
        <time>2026-01-13T10:27:51Z</time>
      </trkpt>
      <trkpt lat="48.71046" lon="2.00178">
        <ele>165.6</ele>
        <time>2026-01-13T10:27:52Z</time>
      </trkpt>
      <trkpt lat="48.71052" lon="2.00178">
        <ele>165.6</ele>
        <time>2026-01-13T10:27:53Z</time>
      </trkpt>
      <trkpt lat="48.71059" lon="2.00179">
        <ele>165.6</ele>
        <time>2026-01-13T10:27:54Z</time>
      </trkpt>
      <trkpt lat="48.71066" lon="2.0018">
        <ele>165.6</ele>
        <time>2026-01-13T10:27:55Z</time>
      </trkpt>
      <trkpt lat="48.71073" lon="2.0018">
        <ele>165.6</ele>
        <time>2026-01-13T10:27:56Z</time>
      </trkpt>
      <trkpt lat="48.7108" lon="2.00181">
        <ele>165.8</ele>
        <time>2026-01-13T10:27:57Z</time>
      </trkpt>
      <trkpt lat="48.71086" lon="2.00182">
        <ele>165.8</ele>
        <time>2026-01-13T10:27:58Z</time>
      </trkpt>
      <trkpt lat="48.71093" lon="2.00182">
        <ele>165.8</ele>
        <time>2026-01-13T10:27:59Z</time>
      </trkpt>
      <trkpt lat="48.71099" lon="2.00183">
        <ele>165.4</ele>
        <time>2026-01-13T10:28:00Z</time>
      </trkpt>
      <trkpt lat="48.71106" lon="2.00184">
        <ele>165.4</ele>
        <time>2026-01-13T10:28:01Z</time>
      </trkpt>
      <trkpt lat="48.71112" lon="2.00184">
        <ele>165.4</ele>
        <time>2026-01-13T10:28:02Z</time>
      </trkpt>
      <trkpt lat="48.71118" lon="2.00185">
        <ele>166</ele>
        <time>2026-01-13T10:28:03Z</time>
      </trkpt>
      <trkpt lat="48.71124" lon="2.00186">
        <ele>166</ele>
        <time>2026-01-13T10:28:04Z</time>
      </trkpt>
      <trkpt lat="48.7113" lon="2.00187">
        <ele>166</ele>
        <time>2026-01-13T10:28:05Z</time>
      </trkpt>
      <trkpt lat="48.71136" lon="2.00187">
        <ele>165.6</ele>
        <time>2026-01-13T10:28:06Z</time>
      </trkpt>
      <trkpt lat="48.71142" lon="2.00188">
        <ele>165.6</ele>
        <time>2026-01-13T10:28:07Z</time>
      </trkpt>
      <trkpt lat="48.71149" lon="2.00189">
        <ele>165.6</ele>
        <time>2026-01-13T10:28:08Z</time>
      </trkpt>
      <trkpt lat="48.71155" lon="2.00189">
        <ele>165.6</ele>
        <time>2026-01-13T10:28:09Z</time>
      </trkpt>
      <trkpt lat="48.71161" lon="2.00189">
        <ele>165.6</ele>
        <time>2026-01-13T10:28:10Z</time>
      </trkpt>
      <trkpt lat="48.71168" lon="2.0019">
        <ele>165.6</ele>
        <time>2026-01-13T10:28:11Z</time>
      </trkpt>
      <trkpt lat="48.71174" lon="2.0019">
        <ele>165.6</ele>
        <time>2026-01-13T10:28:12Z</time>
      </trkpt>
      <trkpt lat="48.71181" lon="2.00191">
        <ele>166</ele>
        <time>2026-01-13T10:28:13Z</time>
      </trkpt>
      <trkpt lat="48.71188" lon="2.00191">
        <ele>166.4</ele>
        <time>2026-01-13T10:28:14Z</time>
      </trkpt>
      <trkpt lat="48.71194" lon="2.00191">
        <ele>166.4</ele>
        <time>2026-01-13T10:28:15Z</time>
      </trkpt>
      <trkpt lat="48.71201" lon="2.00192">
        <ele>166.4</ele>
        <time>2026-01-13T10:28:16Z</time>
      </trkpt>
      <trkpt lat="48.71208" lon="2.00193">
        <ele>166.2</ele>
        <time>2026-01-13T10:28:17Z</time>
      </trkpt>
      <trkpt lat="48.71214" lon="2.00193">
        <ele>165.8</ele>
        <time>2026-01-13T10:28:18Z</time>
      </trkpt>
      <trkpt lat="48.71221" lon="2.00194">
        <ele>165.8</ele>
        <time>2026-01-13T10:28:19Z</time>
      </trkpt>
      <trkpt lat="48.71227" lon="2.00194">
        <ele>165.8</ele>
        <time>2026-01-13T10:28:20Z</time>
      </trkpt>
      <trkpt lat="48.71234" lon="2.00195">
        <ele>165.8</ele>
        <time>2026-01-13T10:28:21Z</time>
      </trkpt>
      <trkpt lat="48.7124" lon="2.00196">
        <ele>165.8</ele>
        <time>2026-01-13T10:28:22Z</time>
      </trkpt>
      <trkpt lat="48.71247" lon="2.00196">
        <ele>164.8</ele>
        <time>2026-01-13T10:28:23Z</time>
      </trkpt>
      <trkpt lat="48.71254" lon="2.00197">
        <ele>164.8</ele>
        <time>2026-01-13T10:28:24Z</time>
      </trkpt>
      <trkpt lat="48.71261" lon="2.00198">
        <ele>164.8</ele>
        <time>2026-01-13T10:28:25Z</time>
      </trkpt>
      <trkpt lat="48.71268" lon="2.00198">
        <ele>164.8</ele>
        <time>2026-01-13T10:28:26Z</time>
      </trkpt>
      <trkpt lat="48.71274" lon="2.00198">
        <ele>164.8</ele>
        <time>2026-01-13T10:28:27Z</time>
      </trkpt>
      <trkpt lat="48.71281" lon="2.00198">
        <ele>164.8</ele>
        <time>2026-01-13T10:28:28Z</time>
      </trkpt>
      <trkpt lat="48.71288" lon="2.00197">
        <ele>164.8</ele>
        <time>2026-01-13T10:28:29Z</time>
      </trkpt>
      <trkpt lat="48.71295" lon="2.00195">
        <ele>164.2</ele>
        <time>2026-01-13T10:28:30Z</time>
      </trkpt>
      <trkpt lat="48.713" lon="2.00189">
        <ele>163.2</ele>
        <time>2026-01-13T10:28:31Z</time>
      </trkpt>
      <trkpt lat="48.71304" lon="2.00181">
        <ele>163.2</ele>
        <time>2026-01-13T10:28:32Z</time>
      </trkpt>
      <trkpt lat="48.71305" lon="2.00171">
        <ele>163.2</ele>
        <time>2026-01-13T10:28:33Z</time>
      </trkpt>
      <trkpt lat="48.71304" lon="2.00161">
        <ele>163.8</ele>
        <time>2026-01-13T10:28:34Z</time>
      </trkpt>
      <trkpt lat="48.71303" lon="2.00151">
        <ele>163.8</ele>
        <time>2026-01-13T10:28:35Z</time>
      </trkpt>
      <trkpt lat="48.71303" lon="2.00141">
        <ele>163.8</ele>
        <time>2026-01-13T10:28:36Z</time>
      </trkpt>
      <trkpt lat="48.71303" lon="2.00131">
        <ele>163.8</ele>
        <time>2026-01-13T10:28:37Z</time>
      </trkpt>
      <trkpt lat="48.71303" lon="2.00121">
        <ele>163.8</ele>
        <time>2026-01-13T10:28:38Z</time>
      </trkpt>
      <trkpt lat="48.71303" lon="2.00111">
        <ele>163.8</ele>
        <time>2026-01-13T10:28:39Z</time>
      </trkpt>
      <trkpt lat="48.71304" lon="2.00101">
        <ele>164.2</ele>
        <time>2026-01-13T10:28:40Z</time>
      </trkpt>
      <trkpt lat="48.71305" lon="2.00091">
        <ele>164.8</ele>
        <time>2026-01-13T10:28:41Z</time>
      </trkpt>
      <trkpt lat="48.71306" lon="2.00081">
        <ele>164.8</ele>
        <time>2026-01-13T10:28:42Z</time>
      </trkpt>
      <trkpt lat="48.71308" lon="2.00071">
        <ele>164.8</ele>
        <time>2026-01-13T10:28:43Z</time>
      </trkpt>
      <trkpt lat="48.7131" lon="2.00061">
        <ele>163.8</ele>
        <time>2026-01-13T10:28:44Z</time>
      </trkpt>
      <trkpt lat="48.71312" lon="2.00052">
        <ele>163.8</ele>
        <time>2026-01-13T10:28:45Z</time>
      </trkpt>
      <trkpt lat="48.71314" lon="2.00043">
        <ele>163.8</ele>
        <time>2026-01-13T10:28:46Z</time>
      </trkpt>
      <trkpt lat="48.71317" lon="2.00034">
        <ele>164</ele>
        <time>2026-01-13T10:28:47Z</time>
      </trkpt>
      <trkpt lat="48.71319" lon="2.00025">
        <ele>164</ele>
        <time>2026-01-13T10:28:48Z</time>
      </trkpt>
      <trkpt lat="48.71322" lon="2.00017">
        <ele>164</ele>
        <time>2026-01-13T10:28:49Z</time>
      </trkpt>
      <trkpt lat="48.71326" lon="2.00009">
        <ele>164</ele>
        <time>2026-01-13T10:28:50Z</time>
      </trkpt>
      <trkpt lat="48.71329" lon="2">
        <ele>163.8</ele>
        <time>2026-01-13T10:28:51Z</time>
      </trkpt>
      <trkpt lat="48.71332" lon="1.9999">
        <ele>163.4</ele>
        <time>2026-01-13T10:28:52Z</time>
      </trkpt>
      <trkpt lat="48.71335" lon="1.99981">
        <ele>163.2</ele>
        <time>2026-01-13T10:28:53Z</time>
      </trkpt>
      <trkpt lat="48.71339" lon="1.99972">
        <ele>163.2</ele>
        <time>2026-01-13T10:28:54Z</time>
      </trkpt>
      <trkpt lat="48.71342" lon="1.99963">
        <ele>163.2</ele>
        <time>2026-01-13T10:28:55Z</time>
      </trkpt>
      <trkpt lat="48.71345" lon="1.99954">
        <ele>164.2</ele>
        <time>2026-01-13T10:28:56Z</time>
      </trkpt>
      <trkpt lat="48.71349" lon="1.99945">
        <ele>164.2</ele>
        <time>2026-01-13T10:28:57Z</time>
      </trkpt>
      <trkpt lat="48.71353" lon="1.99936">
        <ele>164.2</ele>
        <time>2026-01-13T10:28:58Z</time>
      </trkpt>
      <trkpt lat="48.71356" lon="1.99927">
        <ele>164.2</ele>
        <time>2026-01-13T10:28:59Z</time>
      </trkpt>
      <trkpt lat="48.7136" lon="1.99918">
        <ele>164.2</ele>
        <time>2026-01-13T10:29:00Z</time>
      </trkpt>
      <trkpt lat="48.71363" lon="1.99911">
        <ele>165.2</ele>
        <time>2026-01-13T10:29:01Z</time>
      </trkpt>
      <trkpt lat="48.71365" lon="1.99907">
        <ele>166</ele>
        <time>2026-01-13T10:29:02Z</time>
      </trkpt>
      <trkpt lat="48.71365" lon="1.99906">
        <ele>166.4</ele>
        <time>2026-01-13T10:29:03Z</time>
      </trkpt>
      <trkpt lat="48.71366" lon="1.99905">
        <ele>166.4</ele>
        <time>2026-01-13T10:29:04Z</time>
      </trkpt>
      <trkpt lat="48.71366" lon="1.99905">
        <ele>166.4</ele>
        <time>2026-01-13T10:29:05Z</time>
      </trkpt>
      <trkpt lat="48.71366" lon="1.99905">
        <ele>166.2</ele>
        <time>2026-01-13T10:29:06Z</time>
      </trkpt>
      <trkpt lat="48.71371" lon="1.99891">
        <ele>166.4</ele>
        <time>2026-01-13T10:34:49Z</time>
      </trkpt>
      <trkpt lat="48.71372" lon="1.99888">
        <ele>166.4</ele>
        <time>2026-01-13T10:34:50Z</time>
      </trkpt>
      <trkpt lat="48.71373" lon="1.99886">
        <ele>166.4</ele>
        <time>2026-01-13T10:34:51Z</time>
      </trkpt>
      <trkpt lat="48.71375" lon="1.99884">
        <ele>166.4</ele>
        <time>2026-01-13T10:34:52Z</time>
      </trkpt>
      <trkpt lat="48.71376" lon="1.99881">
        <ele>166.4</ele>
        <time>2026-01-13T10:34:53Z</time>
      </trkpt>
      <trkpt lat="48.71377" lon="1.99878">
        <ele>166.4</ele>
        <time>2026-01-13T10:34:54Z</time>
      </trkpt>
      <trkpt lat="48.71378" lon="1.99874">
        <ele>166.4</ele>
        <time>2026-01-13T10:34:55Z</time>
      </trkpt>
      <trkpt lat="48.71379" lon="1.99871">
        <ele>166.4</ele>
        <time>2026-01-13T10:34:56Z</time>
      </trkpt>
      <trkpt lat="48.71381" lon="1.99868">
        <ele>166.4</ele>
        <time>2026-01-13T10:34:57Z</time>
      </trkpt>
      <trkpt lat="48.71382" lon="1.99864">
        <ele>166.4</ele>
        <time>2026-01-13T10:34:58Z</time>
      </trkpt>
      <trkpt lat="48.71384" lon="1.9986">
        <ele>166.4</ele>
        <time>2026-01-13T10:34:59Z</time>
      </trkpt>
      <trkpt lat="48.71386" lon="1.99855">
        <ele>166.4</ele>
        <time>2026-01-13T10:35:00Z</time>
      </trkpt>
      <trkpt lat="48.71387" lon="1.99849">
        <ele>165.8</ele>
        <time>2026-01-13T10:35:01Z</time>
      </trkpt>
      <trkpt lat="48.71388" lon="1.99844">
        <ele>165.4</ele>
        <time>2026-01-13T10:35:02Z</time>
      </trkpt>
      <trkpt lat="48.71389" lon="1.99838">
        <ele>165.4</ele>
        <time>2026-01-13T10:35:03Z</time>
      </trkpt>
      <trkpt lat="48.71391" lon="1.99831">
        <ele>165.4</ele>
        <time>2026-01-13T10:35:04Z</time>
      </trkpt>
      <trkpt lat="48.71394" lon="1.99824">
        <ele>165.4</ele>
        <time>2026-01-13T10:35:05Z</time>
      </trkpt>
      <trkpt lat="48.71396" lon="1.99817">
        <ele>165.4</ele>
        <time>2026-01-13T10:35:06Z</time>
      </trkpt>
      <trkpt lat="48.71398" lon="1.9981">
        <ele>165.4</ele>
        <time>2026-01-13T10:35:07Z</time>
      </trkpt>
      <trkpt lat="48.714" lon="1.99804">
        <ele>165.4</ele>
        <time>2026-01-13T10:35:08Z</time>
      </trkpt>
      <trkpt lat="48.71403" lon="1.99798">
        <ele>165.4</ele>
        <time>2026-01-13T10:35:09Z</time>
      </trkpt>
      <trkpt lat="48.71406" lon="1.99792">
        <ele>165.4</ele>
        <time>2026-01-13T10:35:10Z</time>
      </trkpt>
      <trkpt lat="48.71409" lon="1.99785">
        <ele>165.4</ele>
        <time>2026-01-13T10:35:11Z</time>
      </trkpt>
      <trkpt lat="48.71412" lon="1.99778">
        <ele>165.4</ele>
        <time>2026-01-13T10:35:12Z</time>
      </trkpt>
      <trkpt lat="48.71414" lon="1.99772">
        <ele>165.4</ele>
        <time>2026-01-13T10:35:13Z</time>
      </trkpt>
      <trkpt lat="48.71417" lon="1.99766">
        <ele>165.4</ele>
        <time>2026-01-13T10:35:14Z</time>
      </trkpt>
      <trkpt lat="48.7142" lon="1.99758">
        <ele>165.2</ele>
        <time>2026-01-13T10:35:15Z</time>
      </trkpt>
      <trkpt lat="48.71422" lon="1.99751">
        <ele>164.8</ele>
        <time>2026-01-13T10:35:16Z</time>
      </trkpt>
      <trkpt lat="48.71425" lon="1.99743">
        <ele>164.6</ele>
        <time>2026-01-13T10:35:17Z</time>
      </trkpt>
      <trkpt lat="48.71428" lon="1.99736">
        <ele>164.6</ele>
        <time>2026-01-13T10:35:18Z</time>
      </trkpt>
      <trkpt lat="48.71431" lon="1.99728">
        <ele>164.6</ele>
        <time>2026-01-13T10:35:19Z</time>
      </trkpt>
      <trkpt lat="48.71434" lon="1.99721">
        <ele>164.6</ele>
        <time>2026-01-13T10:35:20Z</time>
      </trkpt>
      <trkpt lat="48.71436" lon="1.99714">
        <ele>164.8</ele>
        <time>2026-01-13T10:35:21Z</time>
      </trkpt>
      <trkpt lat="48.71439" lon="1.99706">
        <ele>164.8</ele>
        <time>2026-01-13T10:35:22Z</time>
      </trkpt>
      <trkpt lat="48.71441" lon="1.99699">
        <ele>164.8</ele>
        <time>2026-01-13T10:35:23Z</time>
      </trkpt>
      <trkpt lat="48.71443" lon="1.99691">
        <ele>164.4</ele>
        <time>2026-01-13T10:35:24Z</time>
      </trkpt>
      <trkpt lat="48.71444" lon="1.99683">
        <ele>164.4</ele>
        <time>2026-01-13T10:35:25Z</time>
      </trkpt>
      <trkpt lat="48.71446" lon="1.99674">
        <ele>164.4</ele>
        <time>2026-01-13T10:35:26Z</time>
      </trkpt>
      <trkpt lat="48.71448" lon="1.99665">
        <ele>164.6</ele>
        <time>2026-01-13T10:35:27Z</time>
      </trkpt>
      <trkpt lat="48.7145" lon="1.99656">
        <ele>164.6</ele>
        <time>2026-01-13T10:35:28Z</time>
      </trkpt>
      <trkpt lat="48.71452" lon="1.99648">
        <ele>164.6</ele>
        <time>2026-01-13T10:35:29Z</time>
      </trkpt>
      <trkpt lat="48.71453" lon="1.99639">
        <ele>164.6</ele>
        <time>2026-01-13T10:35:30Z</time>
      </trkpt>
      <trkpt lat="48.71455" lon="1.99631">
        <ele>164.2</ele>
        <time>2026-01-13T10:35:31Z</time>
      </trkpt>
      <trkpt lat="48.71457" lon="1.99622">
        <ele>164.2</ele>
        <time>2026-01-13T10:35:32Z</time>
      </trkpt>
      <trkpt lat="48.71458" lon="1.99613">
        <ele>164.2</ele>
        <time>2026-01-13T10:35:33Z</time>
      </trkpt>
      <trkpt lat="48.7146" lon="1.99604">
        <ele>165</ele>
        <time>2026-01-13T10:35:34Z</time>
      </trkpt>
      <trkpt lat="48.71462" lon="1.99595">
        <ele>165</ele>
        <time>2026-01-13T10:35:35Z</time>
      </trkpt>
      <trkpt lat="48.71464" lon="1.99587">
        <ele>165</ele>
        <time>2026-01-13T10:35:36Z</time>
      </trkpt>
      <trkpt lat="48.71466" lon="1.99578">
        <ele>165</ele>
        <time>2026-01-13T10:35:37Z</time>
      </trkpt>
      <trkpt lat="48.71467" lon="1.99569">
        <ele>165</ele>
        <time>2026-01-13T10:35:38Z</time>
      </trkpt>
      <trkpt lat="48.71469" lon="1.9956">
        <ele>165</ele>
        <time>2026-01-13T10:35:39Z</time>
      </trkpt>
      <trkpt lat="48.71471" lon="1.99551">
        <ele>164.2</ele>
        <time>2026-01-13T10:35:40Z</time>
      </trkpt>
      <trkpt lat="48.71473" lon="1.99542">
        <ele>164.2</ele>
        <time>2026-01-13T10:35:41Z</time>
      </trkpt>
      <trkpt lat="48.71474" lon="1.99533">
        <ele>164.2</ele>
        <time>2026-01-13T10:35:42Z</time>
      </trkpt>
      <trkpt lat="48.71476" lon="1.99524">
        <ele>164.4</ele>
        <time>2026-01-13T10:35:43Z</time>
      </trkpt>
      <trkpt lat="48.71478" lon="1.99515">
        <ele>164.4</ele>
        <time>2026-01-13T10:35:44Z</time>
      </trkpt>
      <trkpt lat="48.71479" lon="1.99505">
        <ele>164.4</ele>
        <time>2026-01-13T10:35:45Z</time>
      </trkpt>
      <trkpt lat="48.71481" lon="1.99496">
        <ele>164.4</ele>
        <time>2026-01-13T10:35:46Z</time>
      </trkpt>
      <trkpt lat="48.71482" lon="1.99488">
        <ele>164.4</ele>
        <time>2026-01-13T10:35:47Z</time>
      </trkpt>
      <trkpt lat="48.71484" lon="1.99479">
        <ele>165</ele>
        <time>2026-01-13T10:35:48Z</time>
      </trkpt>
      <trkpt lat="48.71485" lon="1.9947">
        <ele>165.4</ele>
        <time>2026-01-13T10:35:49Z</time>
      </trkpt>
      <trkpt lat="48.71486" lon="1.99461">
        <ele>165.6</ele>
        <time>2026-01-13T10:35:50Z</time>
      </trkpt>
      <trkpt lat="48.71486" lon="1.99452">
        <ele>165.6</ele>
        <time>2026-01-13T10:35:51Z</time>
      </trkpt>
      <trkpt lat="48.71487" lon="1.99442">
        <ele>165.6</ele>
        <time>2026-01-13T10:35:52Z</time>
      </trkpt>
      <trkpt lat="48.71488" lon="1.99433">
        <ele>164.6</ele>
        <time>2026-01-13T10:35:53Z</time>
      </trkpt>
      <trkpt lat="48.71488" lon="1.99423">
        <ele>164.6</ele>
        <time>2026-01-13T10:35:54Z</time>
      </trkpt>
      <trkpt lat="48.7149" lon="1.99414">
        <ele>164.6</ele>
        <time>2026-01-13T10:35:55Z</time>
      </trkpt>
      <trkpt lat="48.71492" lon="1.99404">
        <ele>164.6</ele>
        <time>2026-01-13T10:35:56Z</time>
      </trkpt>
      <trkpt lat="48.71493" lon="1.99395">
        <ele>164.6</ele>
        <time>2026-01-13T10:35:57Z</time>
      </trkpt>
      <trkpt lat="48.71494" lon="1.99386">
        <ele>164.6</ele>
        <time>2026-01-13T10:35:58Z</time>
      </trkpt>
      <trkpt lat="48.71495" lon="1.99378">
        <ele>164.6</ele>
        <time>2026-01-13T10:35:59Z</time>
      </trkpt>
      <trkpt lat="48.71497" lon="1.99369">
        <ele>164.6</ele>
        <time>2026-01-13T10:36:00Z</time>
      </trkpt>
      <trkpt lat="48.71499" lon="1.99361">
        <ele>164.2</ele>
        <time>2026-01-13T10:36:01Z</time>
      </trkpt>
      <trkpt lat="48.71501" lon="1.99353">
        <ele>164.2</ele>
        <time>2026-01-13T10:36:02Z</time>
      </trkpt>
      <trkpt lat="48.71503" lon="1.99344">
        <ele>164.2</ele>
        <time>2026-01-13T10:36:03Z</time>
      </trkpt>
      <trkpt lat="48.71505" lon="1.99336">
        <ele>164.8</ele>
        <time>2026-01-13T10:36:04Z</time>
      </trkpt>
      <trkpt lat="48.71507" lon="1.99328">
        <ele>165.2</ele>
        <time>2026-01-13T10:36:05Z</time>
      </trkpt>
      <trkpt lat="48.71509" lon="1.9932">
        <ele>165.2</ele>
        <time>2026-01-13T10:36:06Z</time>
      </trkpt>
      <trkpt lat="48.71511" lon="1.99312">
        <ele>165.2</ele>
        <time>2026-01-13T10:36:07Z</time>
      </trkpt>
      <trkpt lat="48.71513" lon="1.99304">
        <ele>164.8</ele>
        <time>2026-01-13T10:36:08Z</time>
      </trkpt>
      <trkpt lat="48.71515" lon="1.99295">
        <ele>164.8</ele>
        <time>2026-01-13T10:36:09Z</time>
      </trkpt>
      <trkpt lat="48.71518" lon="1.99287">
        <ele>164.8</ele>
        <time>2026-01-13T10:36:10Z</time>
      </trkpt>
      <trkpt lat="48.7152" lon="1.99279">
        <ele>165.2</ele>
        <time>2026-01-13T10:36:11Z</time>
      </trkpt>
      <trkpt lat="48.71522" lon="1.99271">
        <ele>165.6</ele>
        <time>2026-01-13T10:36:12Z</time>
      </trkpt>
      <trkpt lat="48.71525" lon="1.99263">
        <ele>165.6</ele>
        <time>2026-01-13T10:36:13Z</time>
      </trkpt>
      <trkpt lat="48.71528" lon="1.99255">
        <ele>165.6</ele>
        <time>2026-01-13T10:36:14Z</time>
      </trkpt>
      <trkpt lat="48.7153" lon="1.99247">
        <ele>165.4</ele>
        <time>2026-01-13T10:36:15Z</time>
      </trkpt>
      <trkpt lat="48.71533" lon="1.99239">
        <ele>165.2</ele>
        <time>2026-01-13T10:36:16Z</time>
      </trkpt>
      <trkpt lat="48.71537" lon="1.99232">
        <ele>165.2</ele>
        <time>2026-01-13T10:36:17Z</time>
      </trkpt>
      <trkpt lat="48.7154" lon="1.99224">
        <ele>165.2</ele>
        <time>2026-01-13T10:36:18Z</time>
      </trkpt>
      <trkpt lat="48.71543" lon="1.99216">
        <ele>165.2</ele>
        <time>2026-01-13T10:36:19Z</time>
      </trkpt>
      <trkpt lat="48.71546" lon="1.99208">
        <ele>165.2</ele>
        <time>2026-01-13T10:36:20Z</time>
      </trkpt>
      <trkpt lat="48.71549" lon="1.992">
        <ele>165.2</ele>
        <time>2026-01-13T10:36:21Z</time>
      </trkpt>
      <trkpt lat="48.71552" lon="1.99192">
        <ele>165.2</ele>
        <time>2026-01-13T10:36:22Z</time>
      </trkpt>
      <trkpt lat="48.71555" lon="1.99184">
        <ele>165.2</ele>
        <time>2026-01-13T10:36:23Z</time>
      </trkpt>
      <trkpt lat="48.71558" lon="1.99176">
        <ele>165.2</ele>
        <time>2026-01-13T10:36:24Z</time>
      </trkpt>
      <trkpt lat="48.71561" lon="1.99168">
        <ele>165.6</ele>
        <time>2026-01-13T10:36:25Z</time>
      </trkpt>
      <trkpt lat="48.71564" lon="1.9916">
        <ele>165.8</ele>
        <time>2026-01-13T10:36:26Z</time>
      </trkpt>
      <trkpt lat="48.71567" lon="1.99152">
        <ele>165.8</ele>
        <time>2026-01-13T10:36:27Z</time>
      </trkpt>
      <trkpt lat="48.7157" lon="1.99143">
        <ele>165.8</ele>
        <time>2026-01-13T10:36:28Z</time>
      </trkpt>
      <trkpt lat="48.71572" lon="1.99135">
        <ele>165.8</ele>
        <time>2026-01-13T10:36:29Z</time>
      </trkpt>
      <trkpt lat="48.71575" lon="1.99126">
        <ele>165.6</ele>
        <time>2026-01-13T10:36:30Z</time>
      </trkpt>
      <trkpt lat="48.71577" lon="1.99118">
        <ele>165.6</ele>
        <time>2026-01-13T10:36:31Z</time>
      </trkpt>
      <trkpt lat="48.71579" lon="1.99109">
        <ele>165.6</ele>
        <time>2026-01-13T10:36:32Z</time>
      </trkpt>
      <trkpt lat="48.71581" lon="1.991">
        <ele>165.6</ele>
        <time>2026-01-13T10:36:33Z</time>
      </trkpt>
      <trkpt lat="48.71583" lon="1.99091">
        <ele>165.2</ele>
        <time>2026-01-13T10:36:34Z</time>
      </trkpt>
      <trkpt lat="48.71586" lon="1.99082">
        <ele>165.2</ele>
        <time>2026-01-13T10:36:35Z</time>
      </trkpt>
      <trkpt lat="48.71588" lon="1.99073">
        <ele>165.2</ele>
        <time>2026-01-13T10:36:36Z</time>
      </trkpt>
      <trkpt lat="48.7159" lon="1.99064">
        <ele>165.2</ele>
        <time>2026-01-13T10:36:37Z</time>
      </trkpt>
      <trkpt lat="48.71592" lon="1.99054">
        <ele>164.8</ele>
        <time>2026-01-13T10:36:38Z</time>
      </trkpt>
      <trkpt lat="48.71594" lon="1.99046">
        <ele>164.8</ele>
        <time>2026-01-13T10:36:39Z</time>
      </trkpt>
      <trkpt lat="48.71596" lon="1.99037">
        <ele>164.8</ele>
        <time>2026-01-13T10:36:40Z</time>
      </trkpt>
      <trkpt lat="48.71599" lon="1.99028">
        <ele>164.8</ele>
        <time>2026-01-13T10:36:41Z</time>
      </trkpt>
      <trkpt lat="48.71601" lon="1.99019">
        <ele>164.8</ele>
        <time>2026-01-13T10:36:42Z</time>
      </trkpt>
      <trkpt lat="48.71603" lon="1.9901">
        <ele>164.8</ele>
        <time>2026-01-13T10:36:43Z</time>
      </trkpt>
      <trkpt lat="48.71605" lon="1.99">
        <ele>164.8</ele>
        <time>2026-01-13T10:36:44Z</time>
      </trkpt>
      <trkpt lat="48.71607" lon="1.9899">
        <ele>164.6</ele>
        <time>2026-01-13T10:36:45Z</time>
      </trkpt>
      <trkpt lat="48.71609" lon="1.9898">
        <ele>164.2</ele>
        <time>2026-01-13T10:36:46Z</time>
      </trkpt>
      <trkpt lat="48.71611" lon="1.9897">
        <ele>164</ele>
        <time>2026-01-13T10:36:47Z</time>
      </trkpt>
      <trkpt lat="48.71613" lon="1.9896">
        <ele>164</ele>
        <time>2026-01-13T10:36:48Z</time>
      </trkpt>
      <trkpt lat="48.71615" lon="1.9895">
        <ele>164</ele>
        <time>2026-01-13T10:36:49Z</time>
      </trkpt>
      <trkpt lat="48.71617" lon="1.9894">
        <ele>164</ele>
        <time>2026-01-13T10:36:50Z</time>
      </trkpt>
      <trkpt lat="48.71618" lon="1.9893">
        <ele>164</ele>
        <time>2026-01-13T10:36:51Z</time>
      </trkpt>
      <trkpt lat="48.7162" lon="1.9892">
        <ele>164</ele>
        <time>2026-01-13T10:36:52Z</time>
      </trkpt>
      <trkpt lat="48.71621" lon="1.9891">
        <ele>164</ele>
        <time>2026-01-13T10:36:53Z</time>
      </trkpt>
      <trkpt lat="48.71623" lon="1.989">
        <ele>164</ele>
        <time>2026-01-13T10:36:54Z</time>
      </trkpt>
      <trkpt lat="48.71625" lon="1.9889">
        <ele>164</ele>
        <time>2026-01-13T10:36:55Z</time>
      </trkpt>
      <trkpt lat="48.71627" lon="1.9888">
        <ele>164</ele>
        <time>2026-01-13T10:36:56Z</time>
      </trkpt>
      <trkpt lat="48.7163" lon="1.9887">
        <ele>164</ele>
        <time>2026-01-13T10:36:57Z</time>
      </trkpt>
      <trkpt lat="48.71632" lon="1.98861">
        <ele>164</ele>
        <time>2026-01-13T10:36:58Z</time>
      </trkpt>
      <trkpt lat="48.71634" lon="1.98851">
        <ele>163.6</ele>
        <time>2026-01-13T10:36:59Z</time>
      </trkpt>
      <trkpt lat="48.71637" lon="1.98841">
        <ele>163.4</ele>
        <time>2026-01-13T10:37:00Z</time>
      </trkpt>
      <trkpt lat="48.7164" lon="1.98832">
        <ele>163.4</ele>
        <time>2026-01-13T10:37:01Z</time>
      </trkpt>
      <trkpt lat="48.71643" lon="1.98822">
        <ele>163.4</ele>
        <time>2026-01-13T10:37:02Z</time>
      </trkpt>
      <trkpt lat="48.71647" lon="1.98813">
        <ele>163.4</ele>
        <time>2026-01-13T10:37:03Z</time>
      </trkpt>
      <trkpt lat="48.7165" lon="1.98804">
        <ele>162.8</ele>
        <time>2026-01-13T10:37:04Z</time>
      </trkpt>
      <trkpt lat="48.71654" lon="1.98795">
        <ele>162.6</ele>
        <time>2026-01-13T10:37:05Z</time>
      </trkpt>
      <trkpt lat="48.71659" lon="1.98789">
        <ele>162.6</ele>
        <time>2026-01-13T10:37:06Z</time>
      </trkpt>
      <trkpt lat="48.71663" lon="1.98783">
        <ele>162.6</ele>
        <time>2026-01-13T10:37:07Z</time>
      </trkpt>
      <trkpt lat="48.71665" lon="1.98778">
        <ele>163.6</ele>
        <time>2026-01-13T10:37:08Z</time>
      </trkpt>
      <trkpt lat="48.71667" lon="1.98774">
        <ele>164.4</ele>
        <time>2026-01-13T10:37:09Z</time>
      </trkpt>
      <trkpt lat="48.7167" lon="1.98769">
        <ele>164.4</ele>
        <time>2026-01-13T10:37:10Z</time>
      </trkpt>
      <trkpt lat="48.71672" lon="1.98764">
        <ele>164.4</ele>
        <time>2026-01-13T10:37:11Z</time>
      </trkpt>
      <trkpt lat="48.71675" lon="1.98759">
        <ele>163.4</ele>
        <time>2026-01-13T10:37:12Z</time>
      </trkpt>
      <trkpt lat="48.71678" lon="1.98754">
        <ele>163.4</ele>
        <time>2026-01-13T10:37:13Z</time>
      </trkpt>
      <trkpt lat="48.71682" lon="1.98749">
        <ele>163</ele>
        <time>2026-01-13T10:37:14Z</time>
      </trkpt>
      <trkpt lat="48.71685" lon="1.98744">
        <ele>163</ele>
        <time>2026-01-13T10:37:15Z</time>
      </trkpt>
      <trkpt lat="48.71688" lon="1.98738">
        <ele>163</ele>
        <time>2026-01-13T10:37:16Z</time>
      </trkpt>
      <trkpt lat="48.71692" lon="1.98732">
        <ele>164</ele>
        <time>2026-01-13T10:37:17Z</time>
      </trkpt>
      <trkpt lat="48.71695" lon="1.98726">
        <ele>164.6</ele>
        <time>2026-01-13T10:37:18Z</time>
      </trkpt>
      <trkpt lat="48.71699" lon="1.98719">
        <ele>164.6</ele>
        <time>2026-01-13T10:37:19Z</time>
      </trkpt>
      <trkpt lat="48.71702" lon="1.98712">
        <ele>164.6</ele>
        <time>2026-01-13T10:37:20Z</time>
      </trkpt>
      <trkpt lat="48.71706" lon="1.98705">
        <ele>164.4</ele>
        <time>2026-01-13T10:37:21Z</time>
      </trkpt>
      <trkpt lat="48.71709" lon="1.98699">
        <ele>164.2</ele>
        <time>2026-01-13T10:37:22Z</time>
      </trkpt>
      <trkpt lat="48.71713" lon="1.98692">
        <ele>164.2</ele>
        <time>2026-01-13T10:37:23Z</time>
      </trkpt>
      <trkpt lat="48.71716" lon="1.98685">
        <ele>164.2</ele>
        <time>2026-01-13T10:37:24Z</time>
      </trkpt>
      <trkpt lat="48.71719" lon="1.98678">
        <ele>164.2</ele>
        <time>2026-01-13T10:37:25Z</time>
      </trkpt>
      <trkpt lat="48.71723" lon="1.98671">
        <ele>163.4</ele>
        <time>2026-01-13T10:37:26Z</time>
      </trkpt>
      <trkpt lat="48.71727" lon="1.98665">
        <ele>163.4</ele>
        <time>2026-01-13T10:37:27Z</time>
      </trkpt>
      <trkpt lat="48.71731" lon="1.98657">
        <ele>163.4</ele>
        <time>2026-01-13T10:37:28Z</time>
      </trkpt>
      <trkpt lat="48.71734" lon="1.9865">
        <ele>163.4</ele>
        <time>2026-01-13T10:37:29Z</time>
      </trkpt>
      <trkpt lat="48.71738" lon="1.98643">
        <ele>163.4</ele>
        <time>2026-01-13T10:37:30Z</time>
      </trkpt>
      <trkpt lat="48.71742" lon="1.98636">
        <ele>163.4</ele>
        <time>2026-01-13T10:37:31Z</time>
      </trkpt>
      <trkpt lat="48.71746" lon="1.98628">
        <ele>163.4</ele>
        <time>2026-01-13T10:37:32Z</time>
      </trkpt>
      <trkpt lat="48.7175" lon="1.9862">
        <ele>163.4</ele>
        <time>2026-01-13T10:37:33Z</time>
      </trkpt>
      <trkpt lat="48.71755" lon="1.98612">
        <ele>162.4</ele>
        <time>2026-01-13T10:37:34Z</time>
      </trkpt>
      <trkpt lat="48.71759" lon="1.98604">
        <ele>161.6</ele>
        <time>2026-01-13T10:37:35Z</time>
      </trkpt>
      <trkpt lat="48.71763" lon="1.98596">
        <ele>161.6</ele>
        <time>2026-01-13T10:37:36Z</time>
      </trkpt>
      <trkpt lat="48.71768" lon="1.98589">
        <ele>161.6</ele>
        <time>2026-01-13T10:37:37Z</time>
      </trkpt>
      <trkpt lat="48.71772" lon="1.98581">
        <ele>161.6</ele>
        <time>2026-01-13T10:37:38Z</time>
      </trkpt>
      <trkpt lat="48.71777" lon="1.98572">
        <ele>160.8</ele>
        <time>2026-01-13T10:37:39Z</time>
      </trkpt>
      <trkpt lat="48.71781" lon="1.98564">
        <ele>160.8</ele>
        <time>2026-01-13T10:37:40Z</time>
      </trkpt>
      <trkpt lat="48.71785" lon="1.98556">
        <ele>160.8</ele>
        <time>2026-01-13T10:37:41Z</time>
      </trkpt>
      <trkpt lat="48.7179" lon="1.98548">
        <ele>160.8</ele>
        <time>2026-01-13T10:37:42Z</time>
      </trkpt>
      <trkpt lat="48.71794" lon="1.98539">
        <ele>160.8</ele>
        <time>2026-01-13T10:37:43Z</time>
      </trkpt>
      <trkpt lat="48.71797" lon="1.98531">
        <ele>160.8</ele>
        <time>2026-01-13T10:37:44Z</time>
      </trkpt>
      <trkpt lat="48.71801" lon="1.98523">
        <ele>161</ele>
        <time>2026-01-13T10:37:45Z</time>
      </trkpt>
      <trkpt lat="48.71804" lon="1.98516">
        <ele>161</ele>
        <time>2026-01-13T10:37:46Z</time>
      </trkpt>
      <trkpt lat="48.71807" lon="1.98508">
        <ele>161</ele>
        <time>2026-01-13T10:37:47Z</time>
      </trkpt>
      <trkpt lat="48.7181" lon="1.98501">
        <ele>161</ele>
        <time>2026-01-13T10:37:48Z</time>
      </trkpt>
      <trkpt lat="48.71814" lon="1.98495">
        <ele>162</ele>
        <time>2026-01-13T10:37:49Z</time>
      </trkpt>
      <trkpt lat="48.71817" lon="1.98489">
        <ele>163</ele>
        <time>2026-01-13T10:37:50Z</time>
      </trkpt>
      <trkpt lat="48.7182" lon="1.98483">
        <ele>163</ele>
        <time>2026-01-13T10:37:51Z</time>
      </trkpt>
      <trkpt lat="48.71823" lon="1.98477">
        <ele>163</ele>
        <time>2026-01-13T10:37:52Z</time>
      </trkpt>
      <trkpt lat="48.71826" lon="1.98471">
        <ele>163</ele>
        <time>2026-01-13T10:37:53Z</time>
      </trkpt>
      <trkpt lat="48.7183" lon="1.98465">
        <ele>163</ele>
        <time>2026-01-13T10:37:54Z</time>
      </trkpt>
      <trkpt lat="48.71834" lon="1.9846">
        <ele>164</ele>
        <time>2026-01-13T10:37:55Z</time>
      </trkpt>
      <trkpt lat="48.71838" lon="1.98455">
        <ele>164</ele>
        <time>2026-01-13T10:37:56Z</time>
      </trkpt>
      <trkpt lat="48.71843" lon="1.9845">
        <ele>164</ele>
        <time>2026-01-13T10:37:57Z</time>
      </trkpt>
      <trkpt lat="48.71847" lon="1.98445">
        <ele>164</ele>
        <time>2026-01-13T10:37:58Z</time>
      </trkpt>
      <trkpt lat="48.71852" lon="1.98441">
        <ele>164</ele>
        <time>2026-01-13T10:37:59Z</time>
      </trkpt>
      <trkpt lat="48.71856" lon="1.98435">
        <ele>164</ele>
        <time>2026-01-13T10:38:00Z</time>
      </trkpt>
      <trkpt lat="48.7186" lon="1.98429">
        <ele>164</ele>
        <time>2026-01-13T10:38:01Z</time>
      </trkpt>
      <trkpt lat="48.71865" lon="1.98424">
        <ele>163</ele>
        <time>2026-01-13T10:38:02Z</time>
      </trkpt>
      <trkpt lat="48.7187" lon="1.98419">
        <ele>163</ele>
        <time>2026-01-13T10:38:03Z</time>
      </trkpt>
      <trkpt lat="48.71874" lon="1.98413">
        <ele>163</ele>
        <time>2026-01-13T10:38:04Z</time>
      </trkpt>
      <trkpt lat="48.71878" lon="1.98407">
        <ele>163</ele>
        <time>2026-01-13T10:38:05Z</time>
      </trkpt>
      <trkpt lat="48.71881" lon="1.984">
        <ele>163</ele>
        <time>2026-01-13T10:38:06Z</time>
      </trkpt>
      <trkpt lat="48.71884" lon="1.98393">
        <ele>163.2</ele>
        <time>2026-01-13T10:38:07Z</time>
      </trkpt>
      <trkpt lat="48.71887" lon="1.98385">
        <ele>163.2</ele>
        <time>2026-01-13T10:38:08Z</time>
      </trkpt>
      <trkpt lat="48.7189" lon="1.98378">
        <ele>163.2</ele>
        <time>2026-01-13T10:38:09Z</time>
      </trkpt>
      <trkpt lat="48.71894" lon="1.9837">
        <ele>163.2</ele>
        <time>2026-01-13T10:38:10Z</time>
      </trkpt>
      <trkpt lat="48.71897" lon="1.98362">
        <ele>163</ele>
        <time>2026-01-13T10:38:11Z</time>
      </trkpt>
      <trkpt lat="48.71899" lon="1.98355">
        <ele>163</ele>
        <time>2026-01-13T10:38:12Z</time>
      </trkpt>
      <trkpt lat="48.71903" lon="1.98348">
        <ele>163</ele>
        <time>2026-01-13T10:38:13Z</time>
      </trkpt>
      <trkpt lat="48.71906" lon="1.98342">
        <ele>163.8</ele>
        <time>2026-01-13T10:38:14Z</time>
      </trkpt>
      <trkpt lat="48.71909" lon="1.98334">
        <ele>164</ele>
        <time>2026-01-13T10:38:15Z</time>
      </trkpt>
      <trkpt lat="48.71912" lon="1.98327">
        <ele>164</ele>
        <time>2026-01-13T10:38:16Z</time>
      </trkpt>
      <trkpt lat="48.71915" lon="1.9832">
        <ele>164</ele>
        <time>2026-01-13T10:38:17Z</time>
      </trkpt>
      <trkpt lat="48.71918" lon="1.98313">
        <ele>163.8</ele>
        <time>2026-01-13T10:38:18Z</time>
      </trkpt>
      <trkpt lat="48.71921" lon="1.98306">
        <ele>163.8</ele>
        <time>2026-01-13T10:38:19Z</time>
      </trkpt>
      <trkpt lat="48.71925" lon="1.983">
        <ele>163.8</ele>
        <time>2026-01-13T10:38:20Z</time>
      </trkpt>
      <trkpt lat="48.71928" lon="1.98293">
        <ele>164.4</ele>
        <time>2026-01-13T10:38:21Z</time>
      </trkpt>
      <trkpt lat="48.71932" lon="1.98285">
        <ele>164.6</ele>
        <time>2026-01-13T10:38:22Z</time>
      </trkpt>
      <trkpt lat="48.71935" lon="1.98279">
        <ele>164.6</ele>
        <time>2026-01-13T10:38:23Z</time>
      </trkpt>
      <trkpt lat="48.71938" lon="1.98272">
        <ele>164.6</ele>
        <time>2026-01-13T10:38:24Z</time>
      </trkpt>
      <trkpt lat="48.71942" lon="1.98265">
        <ele>164.2</ele>
        <time>2026-01-13T10:38:25Z</time>
      </trkpt>
      <trkpt lat="48.71945" lon="1.98258">
        <ele>164.2</ele>
        <time>2026-01-13T10:38:26Z</time>
      </trkpt>
      <trkpt lat="48.71949" lon="1.98251">
        <ele>164.2</ele>
        <time>2026-01-13T10:38:27Z</time>
      </trkpt>
      <trkpt lat="48.71952" lon="1.98245">
        <ele>164.2</ele>
        <time>2026-01-13T10:38:28Z</time>
      </trkpt>
      <trkpt lat="48.71955" lon="1.98239">
        <ele>163.4</ele>
        <time>2026-01-13T10:38:29Z</time>
      </trkpt>
      <trkpt lat="48.71959" lon="1.98233">
        <ele>163.4</ele>
        <time>2026-01-13T10:38:30Z</time>
      </trkpt>
      <trkpt lat="48.71963" lon="1.98227">
        <ele>163.4</ele>
        <time>2026-01-13T10:38:31Z</time>
      </trkpt>
      <trkpt lat="48.71966" lon="1.98221">
        <ele>164.4</ele>
        <time>2026-01-13T10:38:32Z</time>
      </trkpt>
      <trkpt lat="48.7197" lon="1.98215">
        <ele>164.8</ele>
        <time>2026-01-13T10:38:33Z</time>
      </trkpt>
      <trkpt lat="48.71973" lon="1.98208">
        <ele>164.8</ele>
        <time>2026-01-13T10:38:34Z</time>
      </trkpt>
      <trkpt lat="48.71975" lon="1.98201">
        <ele>164.8</ele>
        <time>2026-01-13T10:38:35Z</time>
      </trkpt>
      <trkpt lat="48.71977" lon="1.98193">
        <ele>164.8</ele>
        <time>2026-01-13T10:38:36Z</time>
      </trkpt>
      <trkpt lat="48.71979" lon="1.98185">
        <ele>164.8</ele>
        <time>2026-01-13T10:38:37Z</time>
      </trkpt>
      <trkpt lat="48.71981" lon="1.98176">
        <ele>164.4</ele>
        <time>2026-01-13T10:38:38Z</time>
      </trkpt>
      <trkpt lat="48.71983" lon="1.98167">
        <ele>164.4</ele>
        <time>2026-01-13T10:38:39Z</time>
      </trkpt>
      <trkpt lat="48.71984" lon="1.98158">
        <ele>164.4</ele>
        <time>2026-01-13T10:38:40Z</time>
      </trkpt>
      <trkpt lat="48.71985" lon="1.98149">
        <ele>164.8</ele>
        <time>2026-01-13T10:38:41Z</time>
      </trkpt>
      <trkpt lat="48.71987" lon="1.98142">
        <ele>165</ele>
        <time>2026-01-13T10:38:42Z</time>
      </trkpt>
      <trkpt lat="48.71988" lon="1.98134">
        <ele>165</ele>
        <time>2026-01-13T10:38:43Z</time>
      </trkpt>
      <trkpt lat="48.7199" lon="1.98127">
        <ele>165</ele>
        <time>2026-01-13T10:38:44Z</time>
      </trkpt>
      <trkpt lat="48.71993" lon="1.98121">
        <ele>165</ele>
        <time>2026-01-13T10:38:45Z</time>
      </trkpt>
      <trkpt lat="48.71996" lon="1.98118">
        <ele>165</ele>
        <time>2026-01-13T10:38:46Z</time>
      </trkpt>
      <trkpt lat="48.71998" lon="1.98118">
        <ele>165</ele>
        <time>2026-01-13T10:38:47Z</time>
      </trkpt>
      <trkpt lat="48.72001" lon="1.98119">
        <ele>165</ele>
        <time>2026-01-13T10:38:48Z</time>
      </trkpt>
      <trkpt lat="48.72003" lon="1.98121">
        <ele>165</ele>
        <time>2026-01-13T10:38:49Z</time>
      </trkpt>
      <trkpt lat="48.72007" lon="1.98122">
        <ele>165</ele>
        <time>2026-01-13T10:38:50Z</time>
      </trkpt>
      <trkpt lat="48.72009" lon="1.98124">
        <ele>165</ele>
        <time>2026-01-13T10:38:51Z</time>
      </trkpt>
      <trkpt lat="48.72012" lon="1.98126">
        <ele>165</ele>
        <time>2026-01-13T10:38:52Z</time>
      </trkpt>
      <trkpt lat="48.72015" lon="1.98127">
        <ele>165</ele>
        <time>2026-01-13T10:38:53Z</time>
      </trkpt>
      <trkpt lat="48.72018" lon="1.98129">
        <ele>164.8</ele>
        <time>2026-01-13T10:38:54Z</time>
      </trkpt>
      <trkpt lat="48.72021" lon="1.9813">
        <ele>164.8</ele>
        <time>2026-01-13T10:38:55Z</time>
      </trkpt>
      <trkpt lat="48.72024" lon="1.98132">
        <ele>164.8</ele>
        <time>2026-01-13T10:38:56Z</time>
      </trkpt>
      <trkpt lat="48.72029" lon="1.98133">
        <ele>165</ele>
        <time>2026-01-13T10:38:57Z</time>
      </trkpt>
      <trkpt lat="48.72034" lon="1.98134">
        <ele>165.2</ele>
        <time>2026-01-13T10:38:58Z</time>
      </trkpt>
      <trkpt lat="48.72037" lon="1.98136">
        <ele>165.4</ele>
        <time>2026-01-13T10:38:59Z</time>
      </trkpt>
      <trkpt lat="48.72043" lon="1.98137">
        <ele>165.4</ele>
        <time>2026-01-13T10:39:00Z</time>
      </trkpt>
      <trkpt lat="48.72047" lon="1.98138">
        <ele>165.4</ele>
        <time>2026-01-13T10:39:01Z</time>
      </trkpt>
      <trkpt lat="48.7205" lon="1.9814">
        <ele>165.4</ele>
        <time>2026-01-13T10:39:02Z</time>
      </trkpt>
      <trkpt lat="48.72056" lon="1.98141">
        <ele>165.2</ele>
        <time>2026-01-13T10:39:03Z</time>
      </trkpt>
      <trkpt lat="48.72061" lon="1.98143">
        <ele>164.6</ele>
        <time>2026-01-13T10:39:04Z</time>
      </trkpt>
      <trkpt lat="48.72067" lon="1.98144">
        <ele>164.6</ele>
        <time>2026-01-13T10:39:05Z</time>
      </trkpt>
      <trkpt lat="48.72072" lon="1.98144">
        <ele>164.6</ele>
        <time>2026-01-13T10:39:06Z</time>
      </trkpt>
      <trkpt lat="48.72077" lon="1.98145">
        <ele>165.2</ele>
        <time>2026-01-13T10:39:07Z</time>
      </trkpt>
      <trkpt lat="48.72083" lon="1.98147">
        <ele>165.6</ele>
        <time>2026-01-13T10:39:08Z</time>
      </trkpt>
      <trkpt lat="48.72087" lon="1.98148">
        <ele>165.8</ele>
        <time>2026-01-13T10:39:09Z</time>
      </trkpt>
      <trkpt lat="48.72092" lon="1.98148">
        <ele>165.8</ele>
        <time>2026-01-13T10:39:10Z</time>
      </trkpt>
      <trkpt lat="48.72096" lon="1.98149">
        <ele>165.8</ele>
        <time>2026-01-13T10:39:11Z</time>
      </trkpt>
      <trkpt lat="48.721" lon="1.98152">
        <ele>165</ele>
        <time>2026-01-13T10:39:12Z</time>
      </trkpt>
      <trkpt lat="48.72104" lon="1.98154">
        <ele>165</ele>
        <time>2026-01-13T10:39:13Z</time>
      </trkpt>
      <trkpt lat="48.72108" lon="1.98156">
        <ele>165</ele>
        <time>2026-01-13T10:39:14Z</time>
      </trkpt>
      <trkpt lat="48.72114" lon="1.98157">
        <ele>165</ele>
        <time>2026-01-13T10:39:15Z</time>
      </trkpt>
      <trkpt lat="48.72117" lon="1.98159">
        <ele>165</ele>
        <time>2026-01-13T10:39:16Z</time>
      </trkpt>
      <trkpt lat="48.72122" lon="1.98161">
        <ele>165</ele>
        <time>2026-01-13T10:39:17Z</time>
      </trkpt>
      <trkpt lat="48.72128" lon="1.98162">
        <ele>165</ele>
        <time>2026-01-13T10:39:18Z</time>
      </trkpt>
      <trkpt lat="48.72133" lon="1.98164">
        <ele>165.6</ele>
        <time>2026-01-13T10:39:19Z</time>
      </trkpt>
      <trkpt lat="48.72139" lon="1.98165">
        <ele>165.6</ele>
        <time>2026-01-13T10:39:20Z</time>
      </trkpt>
      <trkpt lat="48.72145" lon="1.98166">
        <ele>165.6</ele>
        <time>2026-01-13T10:39:21Z</time>
      </trkpt>
      <trkpt lat="48.72151" lon="1.98169">
        <ele>165.4</ele>
        <time>2026-01-13T10:39:22Z</time>
      </trkpt>
      <trkpt lat="48.7216" lon="1.9817">
        <ele>164.8</ele>
        <time>2026-01-13T10:39:23Z</time>
      </trkpt>
      <trkpt lat="48.72165" lon="1.98171">
        <ele>164.8</ele>
        <time>2026-01-13T10:39:24Z</time>
      </trkpt>
      <trkpt lat="48.72171" lon="1.98172">
        <ele>164.8</ele>
        <time>2026-01-13T10:39:25Z</time>
      </trkpt>
      <trkpt lat="48.72182" lon="1.98172">
        <ele>164.8</ele>
        <time>2026-01-13T10:39:26Z</time>
      </trkpt>
      <trkpt lat="48.7219" lon="1.98172">
        <ele>164.8</ele>
        <time>2026-01-13T10:39:27Z</time>
      </trkpt>
      <trkpt lat="48.72196" lon="1.98173">
        <ele>164.8</ele>
        <time>2026-01-13T10:39:28Z</time>
      </trkpt>
      <trkpt lat="48.72203" lon="1.98175">
        <ele>164.8</ele>
        <time>2026-01-13T10:39:29Z</time>
      </trkpt>
      <trkpt lat="48.7221" lon="1.98176">
        <ele>164.8</ele>
        <time>2026-01-13T10:39:30Z</time>
      </trkpt>
      <trkpt lat="48.72215" lon="1.98178">
        <ele>164.8</ele>
        <time>2026-01-13T10:39:31Z</time>
      </trkpt>
      <trkpt lat="48.72219" lon="1.98179">
        <ele>164.8</ele>
        <time>2026-01-13T10:39:32Z</time>
      </trkpt>
      <trkpt lat="48.72226" lon="1.9818">
        <ele>164.8</ele>
        <time>2026-01-13T10:39:33Z</time>
      </trkpt>
      <trkpt lat="48.72231" lon="1.98181">
        <ele>164.8</ele>
        <time>2026-01-13T10:39:34Z</time>
      </trkpt>
      <trkpt lat="48.72237" lon="1.98183">
        <ele>163.8</ele>
        <time>2026-01-13T10:39:35Z</time>
      </trkpt>
      <trkpt lat="48.72242" lon="1.98185">
        <ele>163.4</ele>
        <time>2026-01-13T10:39:36Z</time>
      </trkpt>
      <trkpt lat="48.72248" lon="1.98186">
        <ele>163.4</ele>
        <time>2026-01-13T10:39:37Z</time>
      </trkpt>
      <trkpt lat="48.72254" lon="1.98186">
        <ele>163.4</ele>
        <time>2026-01-13T10:39:38Z</time>
      </trkpt>
      <trkpt lat="48.72261" lon="1.98187">
        <ele>164</ele>
        <time>2026-01-13T10:39:39Z</time>
      </trkpt>
      <trkpt lat="48.72266" lon="1.98189">
        <ele>164.2</ele>
        <time>2026-01-13T10:39:40Z</time>
      </trkpt>
      <trkpt lat="48.72272" lon="1.98191">
        <ele>164.2</ele>
        <time>2026-01-13T10:39:41Z</time>
      </trkpt>
      <trkpt lat="48.72278" lon="1.98192">
        <ele>164.2</ele>
        <time>2026-01-13T10:39:42Z</time>
      </trkpt>
      <trkpt lat="48.72284" lon="1.98193">
        <ele>163.4</ele>
        <time>2026-01-13T10:39:43Z</time>
      </trkpt>
      <trkpt lat="48.72292" lon="1.98195">
        <ele>163</ele>
        <time>2026-01-13T10:39:44Z</time>
      </trkpt>
      <trkpt lat="48.72297" lon="1.98197">
        <ele>162.2</ele>
        <time>2026-01-13T10:39:45Z</time>
      </trkpt>
      <trkpt lat="48.72304" lon="1.98199">
        <ele>162.2</ele>
        <time>2026-01-13T10:39:46Z</time>
      </trkpt>
      <trkpt lat="48.72311" lon="1.982">
        <ele>162.2</ele>
        <time>2026-01-13T10:39:47Z</time>
      </trkpt>
      <trkpt lat="48.72317" lon="1.98202">
        <ele>162.2</ele>
        <time>2026-01-13T10:39:48Z</time>
      </trkpt>
      <trkpt lat="48.72324" lon="1.98204">
        <ele>162.2</ele>
        <time>2026-01-13T10:39:49Z</time>
      </trkpt>
      <trkpt lat="48.72332" lon="1.98207">
        <ele>161.2</ele>
        <time>2026-01-13T10:39:50Z</time>
      </trkpt>
      <trkpt lat="48.72339" lon="1.9821">
        <ele>160.2</ele>
        <time>2026-01-13T10:39:51Z</time>
      </trkpt>
      <trkpt lat="48.72347" lon="1.98212">
        <ele>159.4</ele>
        <time>2026-01-13T10:39:52Z</time>
      </trkpt>
      <trkpt lat="48.72354" lon="1.98213">
        <ele>159</ele>
        <time>2026-01-13T10:39:53Z</time>
      </trkpt>
      <trkpt lat="48.72362" lon="1.98215">
        <ele>159</ele>
        <time>2026-01-13T10:39:54Z</time>
      </trkpt>
      <trkpt lat="48.7237" lon="1.98217">
        <ele>159</ele>
        <time>2026-01-13T10:39:55Z</time>
      </trkpt>
      <trkpt lat="48.72376" lon="1.9822">
        <ele>160</ele>
        <time>2026-01-13T10:39:56Z</time>
      </trkpt>
      <trkpt lat="48.7238" lon="1.98223">
        <ele>160</ele>
        <time>2026-01-13T10:39:57Z</time>
      </trkpt>
      <trkpt lat="48.72382" lon="1.98226">
        <ele>160.4</ele>
        <time>2026-01-13T10:39:58Z</time>
      </trkpt>
      <trkpt lat="48.72385" lon="1.98228">
        <ele>161</ele>
        <time>2026-01-13T10:39:59Z</time>
      </trkpt>
      <trkpt lat="48.72387" lon="1.98231">
        <ele>161</ele>
        <time>2026-01-13T10:40:00Z</time>
      </trkpt>
      <trkpt lat="48.72388" lon="1.98235">
        <ele>161</ele>
        <time>2026-01-13T10:40:01Z</time>
      </trkpt>
      <trkpt lat="48.72388" lon="1.98237">
        <ele>161</ele>
        <time>2026-01-13T10:40:02Z</time>
      </trkpt>
      <trkpt lat="48.72394" lon="1.98242">
        <ele>160.6</ele>
        <time>2026-01-13T10:40:03Z</time>
      </trkpt>
      <trkpt lat="48.72397" lon="1.98244">
        <ele>160.6</ele>
        <time>2026-01-13T10:40:04Z</time>
      </trkpt>
      <trkpt lat="48.72407" lon="1.9825">
        <ele>160.6</ele>
        <time>2026-01-13T10:40:05Z</time>
      </trkpt>
      <trkpt lat="48.72412" lon="1.98252">
        <ele>160.6</ele>
        <time>2026-01-13T10:40:06Z</time>
      </trkpt>
      <trkpt lat="48.72421" lon="1.98256">
        <ele>160.2</ele>
        <time>2026-01-13T10:40:07Z</time>
      </trkpt>
      <trkpt lat="48.72423" lon="1.98262">
        <ele>159.8</ele>
        <time>2026-01-13T10:40:08Z</time>
      </trkpt>
      <trkpt lat="48.72426" lon="1.98267">
        <ele>159.4</ele>
        <time>2026-01-13T10:40:09Z</time>
      </trkpt>
      <trkpt lat="48.72428" lon="1.98273">
        <ele>159.4</ele>
        <time>2026-01-13T10:40:10Z</time>
      </trkpt>
      <trkpt lat="48.72431" lon="1.9828">
        <ele>159.4</ele>
        <time>2026-01-13T10:40:11Z</time>
      </trkpt>
      <trkpt lat="48.72433" lon="1.98287">
        <ele>159.4</ele>
        <time>2026-01-13T10:40:12Z</time>
      </trkpt>
      <trkpt lat="48.72436" lon="1.98293">
        <ele>159.4</ele>
        <time>2026-01-13T10:40:13Z</time>
      </trkpt>
      <trkpt lat="48.7244" lon="1.98301">
        <ele>159.4</ele>
        <time>2026-01-13T10:40:14Z</time>
      </trkpt>
      <trkpt lat="48.72444" lon="1.98308">
        <ele>160</ele>
        <time>2026-01-13T10:40:15Z</time>
      </trkpt>
      <trkpt lat="48.72447" lon="1.98315">
        <ele>160.2</ele>
        <time>2026-01-13T10:40:16Z</time>
      </trkpt>
      <trkpt lat="48.7245" lon="1.98322">
        <ele>160.4</ele>
        <time>2026-01-13T10:40:17Z</time>
      </trkpt>
      <trkpt lat="48.72453" lon="1.98329">
        <ele>160.4</ele>
        <time>2026-01-13T10:40:18Z</time>
      </trkpt>
      <trkpt lat="48.72457" lon="1.98335">
        <ele>160.4</ele>
        <time>2026-01-13T10:40:19Z</time>
      </trkpt>
      <trkpt lat="48.72461" lon="1.98337">
        <ele>160.4</ele>
        <time>2026-01-13T10:40:20Z</time>
      </trkpt>
      <trkpt lat="48.72465" lon="1.98337">
        <ele>160.4</ele>
        <time>2026-01-13T10:40:21Z</time>
      </trkpt>
      <trkpt lat="48.7247" lon="1.98335">
        <ele>161.4</ele>
        <time>2026-01-13T10:40:22Z</time>
      </trkpt>
      <trkpt lat="48.72474" lon="1.98333">
        <ele>162.4</ele>
        <time>2026-01-13T10:40:23Z</time>
      </trkpt>
      <trkpt lat="48.72478" lon="1.98331">
        <ele>162.4</ele>
        <time>2026-01-13T10:40:24Z</time>
      </trkpt>
      <trkpt lat="48.72483" lon="1.98328">
        <ele>162.4</ele>
        <time>2026-01-13T10:40:25Z</time>
      </trkpt>
      <trkpt lat="48.72488" lon="1.98326">
        <ele>161.4</ele>
        <time>2026-01-13T10:40:26Z</time>
      </trkpt>
      <trkpt lat="48.72492" lon="1.98323">
        <ele>160.4</ele>
        <time>2026-01-13T10:40:27Z</time>
      </trkpt>
      <trkpt lat="48.72496" lon="1.9832">
        <ele>160.4</ele>
        <time>2026-01-13T10:40:28Z</time>
      </trkpt>
      <trkpt lat="48.725" lon="1.98317">
        <ele>160.4</ele>
        <time>2026-01-13T10:40:29Z</time>
      </trkpt>
      <trkpt lat="48.72505" lon="1.98313">
        <ele>161.4</ele>
        <time>2026-01-13T10:40:30Z</time>
      </trkpt>
      <trkpt lat="48.7251" lon="1.9831">
        <ele>161.4</ele>
        <time>2026-01-13T10:40:31Z</time>
      </trkpt>
      <trkpt lat="48.72514" lon="1.98306">
        <ele>161.4</ele>
        <time>2026-01-13T10:40:32Z</time>
      </trkpt>
      <trkpt lat="48.72518" lon="1.98303">
        <ele>161.4</ele>
        <time>2026-01-13T10:40:33Z</time>
      </trkpt>
      <trkpt lat="48.72523" lon="1.98299">
        <ele>162.4</ele>
        <time>2026-01-13T10:40:34Z</time>
      </trkpt>
      <trkpt lat="48.72527" lon="1.98297">
        <ele>162.4</ele>
        <time>2026-01-13T10:40:35Z</time>
      </trkpt>
      <trkpt lat="48.72531" lon="1.98294">
        <ele>162.6</ele>
        <time>2026-01-13T10:40:36Z</time>
      </trkpt>
      <trkpt lat="48.72535" lon="1.98291">
        <ele>162.6</ele>
        <time>2026-01-13T10:40:37Z</time>
      </trkpt>
      <trkpt lat="48.72539" lon="1.98289">
        <ele>162.6</ele>
        <time>2026-01-13T10:40:38Z</time>
      </trkpt>
      <trkpt lat="48.72545" lon="1.98286">
        <ele>162.6</ele>
        <time>2026-01-13T10:40:39Z</time>
      </trkpt>
      <trkpt lat="48.7255" lon="1.98283">
        <ele>162.8</ele>
        <time>2026-01-13T10:40:40Z</time>
      </trkpt>
      <trkpt lat="48.72555" lon="1.9828">
        <ele>162.8</ele>
        <time>2026-01-13T10:40:41Z</time>
      </trkpt>
      <trkpt lat="48.7256" lon="1.98277">
        <ele>162.8</ele>
        <time>2026-01-13T10:40:42Z</time>
      </trkpt>
      <trkpt lat="48.72565" lon="1.98274">
        <ele>162</ele>
        <time>2026-01-13T10:40:43Z</time>
      </trkpt>
      <trkpt lat="48.7257" lon="1.98271">
        <ele>161.8</ele>
        <time>2026-01-13T10:40:44Z</time>
      </trkpt>
      <trkpt lat="48.72575" lon="1.98267">
        <ele>161.6</ele>
        <time>2026-01-13T10:40:45Z</time>
      </trkpt>
      <trkpt lat="48.7258" lon="1.98263">
        <ele>161.6</ele>
        <time>2026-01-13T10:40:46Z</time>
      </trkpt>
      <trkpt lat="48.72586" lon="1.98259">
        <ele>161.6</ele>
        <time>2026-01-13T10:40:47Z</time>
      </trkpt>
      <trkpt lat="48.72591" lon="1.98255">
        <ele>161.6</ele>
        <time>2026-01-13T10:40:48Z</time>
      </trkpt>
      <trkpt lat="48.72597" lon="1.98251">
        <ele>161.6</ele>
        <time>2026-01-13T10:40:49Z</time>
      </trkpt>
      <trkpt lat="48.72602" lon="1.98246">
        <ele>160.6</ele>
        <time>2026-01-13T10:40:50Z</time>
      </trkpt>
      <trkpt lat="48.72609" lon="1.98241">
        <ele>159.6</ele>
        <time>2026-01-13T10:40:51Z</time>
      </trkpt>
      <trkpt lat="48.72615" lon="1.98236">
        <ele>159.2</ele>
        <time>2026-01-13T10:40:52Z</time>
      </trkpt>
      <trkpt lat="48.72622" lon="1.98231">
        <ele>158.6</ele>
        <time>2026-01-13T10:40:53Z</time>
      </trkpt>
      <trkpt lat="48.72629" lon="1.98227">
        <ele>157.6</ele>
        <time>2026-01-13T10:40:54Z</time>
      </trkpt>
      <trkpt lat="48.72635" lon="1.98221">
        <ele>157.6</ele>
        <time>2026-01-13T10:40:55Z</time>
      </trkpt>
      <trkpt lat="48.72641" lon="1.98216">
        <ele>157.6</ele>
        <time>2026-01-13T10:40:56Z</time>
      </trkpt>
      <trkpt lat="48.72648" lon="1.9821">
        <ele>157.6</ele>
        <time>2026-01-13T10:40:57Z</time>
      </trkpt>
      <trkpt lat="48.72655" lon="1.98205">
        <ele>157.4</ele>
        <time>2026-01-13T10:40:58Z</time>
      </trkpt>
      <trkpt lat="48.72662" lon="1.98199">
        <ele>157.4</ele>
        <time>2026-01-13T10:40:59Z</time>
      </trkpt>
      <trkpt lat="48.72668" lon="1.98193">
        <ele>156.4</ele>
        <time>2026-01-13T10:41:00Z</time>
      </trkpt>
      <trkpt lat="48.72675" lon="1.98186">
        <ele>155.4</ele>
        <time>2026-01-13T10:41:01Z</time>
      </trkpt>
      <trkpt lat="48.72682" lon="1.9818">
        <ele>154.6</ele>
        <time>2026-01-13T10:41:02Z</time>
      </trkpt>
      <trkpt lat="48.72689" lon="1.98173">
        <ele>154</ele>
        <time>2026-01-13T10:41:03Z</time>
      </trkpt>
      <trkpt lat="48.72697" lon="1.98167">
        <ele>154</ele>
        <time>2026-01-13T10:41:04Z</time>
      </trkpt>
      <trkpt lat="48.72705" lon="1.9816">
        <ele>154</ele>
        <time>2026-01-13T10:41:05Z</time>
      </trkpt>
      <trkpt lat="48.72713" lon="1.98152">
        <ele>154</ele>
        <time>2026-01-13T10:41:06Z</time>
      </trkpt>
      <trkpt lat="48.72721" lon="1.98144">
        <ele>154</ele>
        <time>2026-01-13T10:41:07Z</time>
      </trkpt>
      <trkpt lat="48.72727" lon="1.98135">
        <ele>154</ele>
        <time>2026-01-13T10:41:08Z</time>
      </trkpt>
      <trkpt lat="48.72734" lon="1.98125">
        <ele>154</ele>
        <time>2026-01-13T10:41:09Z</time>
      </trkpt>
      <trkpt lat="48.72738" lon="1.98113">
        <ele>154</ele>
        <time>2026-01-13T10:41:10Z</time>
      </trkpt>
      <trkpt lat="48.72741" lon="1.98101">
        <ele>154</ele>
        <time>2026-01-13T10:41:11Z</time>
      </trkpt>
      <trkpt lat="48.72744" lon="1.98089">
        <ele>154</ele>
        <time>2026-01-13T10:41:12Z</time>
      </trkpt>
      <trkpt lat="48.72747" lon="1.98077">
        <ele>154</ele>
        <time>2026-01-13T10:41:13Z</time>
      </trkpt>
      <trkpt lat="48.7275" lon="1.98067">
        <ele>155</ele>
        <time>2026-01-13T10:41:14Z</time>
      </trkpt>
      <trkpt lat="48.72753" lon="1.98057">
        <ele>156</ele>
        <time>2026-01-13T10:41:15Z</time>
      </trkpt>
      <trkpt lat="48.72757" lon="1.98048">
        <ele>156.4</ele>
        <time>2026-01-13T10:41:16Z</time>
      </trkpt>
      <trkpt lat="48.72761" lon="1.9804">
        <ele>156.4</ele>
        <time>2026-01-13T10:41:17Z</time>
      </trkpt>
      <trkpt lat="48.72765" lon="1.98032">
        <ele>156.4</ele>
        <time>2026-01-13T10:41:18Z</time>
      </trkpt>
      <trkpt lat="48.72769" lon="1.98025">
        <ele>156.4</ele>
        <time>2026-01-13T10:41:19Z</time>
      </trkpt>
      <trkpt lat="48.72773" lon="1.98018">
        <ele>156.8</ele>
        <time>2026-01-13T10:41:20Z</time>
      </trkpt>
      <trkpt lat="48.72777" lon="1.9801">
        <ele>157.8</ele>
        <time>2026-01-13T10:41:21Z</time>
      </trkpt>
      <trkpt lat="48.72781" lon="1.98003">
        <ele>158</ele>
        <time>2026-01-13T10:41:22Z</time>
      </trkpt>
      <trkpt lat="48.72785" lon="1.97996">
        <ele>158.2</ele>
        <time>2026-01-13T10:41:23Z</time>
      </trkpt>
      <trkpt lat="48.72789" lon="1.97989">
        <ele>158.2</ele>
        <time>2026-01-13T10:41:24Z</time>
      </trkpt>
      <trkpt lat="48.72793" lon="1.97982">
        <ele>158.2</ele>
        <time>2026-01-13T10:41:25Z</time>
      </trkpt>
      <trkpt lat="48.72796" lon="1.97976">
        <ele>158.2</ele>
        <time>2026-01-13T10:41:26Z</time>
      </trkpt>
      <trkpt lat="48.728" lon="1.97969">
        <ele>159.2</ele>
        <time>2026-01-13T10:41:27Z</time>
      </trkpt>
      <trkpt lat="48.72803" lon="1.97962">
        <ele>159.2</ele>
        <time>2026-01-13T10:41:28Z</time>
      </trkpt>
      <trkpt lat="48.72807" lon="1.97955">
        <ele>159.2</ele>
        <time>2026-01-13T10:41:29Z</time>
      </trkpt>
      <trkpt lat="48.72811" lon="1.97949">
        <ele>159.2</ele>
        <time>2026-01-13T10:41:30Z</time>
      </trkpt>
      <trkpt lat="48.72815" lon="1.97942">
        <ele>160.2</ele>
        <time>2026-01-13T10:41:31Z</time>
      </trkpt>
      <trkpt lat="48.72818" lon="1.97935">
        <ele>160.2</ele>
        <time>2026-01-13T10:41:32Z</time>
      </trkpt>
      <trkpt lat="48.72822" lon="1.97929">
        <ele>160.2</ele>
        <time>2026-01-13T10:41:33Z</time>
      </trkpt>
      <trkpt lat="48.72826" lon="1.97923">
        <ele>159.2</ele>
        <time>2026-01-13T10:41:34Z</time>
      </trkpt>
      <trkpt lat="48.72829" lon="1.97917">
        <ele>158.6</ele>
        <time>2026-01-13T10:41:35Z</time>
      </trkpt>
      <trkpt lat="48.72832" lon="1.97911">
        <ele>158.6</ele>
        <time>2026-01-13T10:41:36Z</time>
      </trkpt>
      <trkpt lat="48.72835" lon="1.97904">
        <ele>158.6</ele>
        <time>2026-01-13T10:41:37Z</time>
      </trkpt>
      <trkpt lat="48.72839" lon="1.97897">
        <ele>158.8</ele>
        <time>2026-01-13T10:41:38Z</time>
      </trkpt>
      <trkpt lat="48.72842" lon="1.97891">
        <ele>159.6</ele>
        <time>2026-01-13T10:41:39Z</time>
      </trkpt>
      <trkpt lat="48.72844" lon="1.97885">
        <ele>159.6</ele>
        <time>2026-01-13T10:41:40Z</time>
      </trkpt>
      <trkpt lat="48.72848" lon="1.97878">
        <ele>159.6</ele>
        <time>2026-01-13T10:41:41Z</time>
      </trkpt>
      <trkpt lat="48.72851" lon="1.97872">
        <ele>159.4</ele>
        <time>2026-01-13T10:41:42Z</time>
      </trkpt>
      <trkpt lat="48.72855" lon="1.97865">
        <ele>159.4</ele>
        <time>2026-01-13T10:41:43Z</time>
      </trkpt>
      <trkpt lat="48.72858" lon="1.9786">
        <ele>159.4</ele>
        <time>2026-01-13T10:41:44Z</time>
      </trkpt>
      <trkpt lat="48.72861" lon="1.97853">
        <ele>159.4</ele>
        <time>2026-01-13T10:41:45Z</time>
      </trkpt>
      <trkpt lat="48.72865" lon="1.97847">
        <ele>159.2</ele>
        <time>2026-01-13T10:41:46Z</time>
      </trkpt>
      <trkpt lat="48.72868" lon="1.9784">
        <ele>159.2</ele>
        <time>2026-01-13T10:41:47Z</time>
      </trkpt>
      <trkpt lat="48.72872" lon="1.97833">
        <ele>159.2</ele>
        <time>2026-01-13T10:41:48Z</time>
      </trkpt>
      <trkpt lat="48.72875" lon="1.97827">
        <ele>159.6</ele>
        <time>2026-01-13T10:41:49Z</time>
      </trkpt>
      <trkpt lat="48.72878" lon="1.9782">
        <ele>160.4</ele>
        <time>2026-01-13T10:41:50Z</time>
      </trkpt>
      <trkpt lat="48.72881" lon="1.97814">
        <ele>160.6</ele>
        <time>2026-01-13T10:41:51Z</time>
      </trkpt>
      <trkpt lat="48.72884" lon="1.97808">
        <ele>160.6</ele>
        <time>2026-01-13T10:41:52Z</time>
      </trkpt>
      <trkpt lat="48.72888" lon="1.97801">
        <ele>160.6</ele>
        <time>2026-01-13T10:41:53Z</time>
      </trkpt>
      <trkpt lat="48.72891" lon="1.97793">
        <ele>160.4</ele>
        <time>2026-01-13T10:41:54Z</time>
      </trkpt>
      <trkpt lat="48.72894" lon="1.97786">
        <ele>159.6</ele>
        <time>2026-01-13T10:41:55Z</time>
      </trkpt>
      <trkpt lat="48.72898" lon="1.9778">
        <ele>159.6</ele>
        <time>2026-01-13T10:41:56Z</time>
      </trkpt>
      <trkpt lat="48.72902" lon="1.97774">
        <ele>159.6</ele>
        <time>2026-01-13T10:41:57Z</time>
      </trkpt>
      <trkpt lat="48.72906" lon="1.97767">
        <ele>160.4</ele>
        <time>2026-01-13T10:41:58Z</time>
      </trkpt>
      <trkpt lat="48.7291" lon="1.97761">
        <ele>160.8</ele>
        <time>2026-01-13T10:41:59Z</time>
      </trkpt>
      <trkpt lat="48.72914" lon="1.97754">
        <ele>160.8</ele>
        <time>2026-01-13T10:42:00Z</time>
      </trkpt>
      <trkpt lat="48.72917" lon="1.97748">
        <ele>160.8</ele>
        <time>2026-01-13T10:42:01Z</time>
      </trkpt>
      <trkpt lat="48.7292" lon="1.97741">
        <ele>160.4</ele>
        <time>2026-01-13T10:42:02Z</time>
      </trkpt>
      <trkpt lat="48.72923" lon="1.97735">
        <ele>160.4</ele>
        <time>2026-01-13T10:42:03Z</time>
      </trkpt>
      <trkpt lat="48.72926" lon="1.97729">
        <ele>160.4</ele>
        <time>2026-01-13T10:42:04Z</time>
      </trkpt>
      <trkpt lat="48.72929" lon="1.97723">
        <ele>160.6</ele>
        <time>2026-01-13T10:42:05Z</time>
      </trkpt>
      <trkpt lat="48.72932" lon="1.97717">
        <ele>160.8</ele>
        <time>2026-01-13T10:42:06Z</time>
      </trkpt>
      <trkpt lat="48.72935" lon="1.97711">
        <ele>160.8</ele>
        <time>2026-01-13T10:42:07Z</time>
      </trkpt>
      <trkpt lat="48.72938" lon="1.97705">
        <ele>160.8</ele>
        <time>2026-01-13T10:42:08Z</time>
      </trkpt>
      <trkpt lat="48.72942" lon="1.97698">
        <ele>160.8</ele>
        <time>2026-01-13T10:42:09Z</time>
      </trkpt>
      <trkpt lat="48.72946" lon="1.97691">
        <ele>160.8</ele>
        <time>2026-01-13T10:42:10Z</time>
      </trkpt>
      <trkpt lat="48.72949" lon="1.97684">
        <ele>160.8</ele>
        <time>2026-01-13T10:42:11Z</time>
      </trkpt>
      <trkpt lat="48.72953" lon="1.97678">
        <ele>161</ele>
        <time>2026-01-13T10:42:12Z</time>
      </trkpt>
      <trkpt lat="48.72955" lon="1.97672">
        <ele>161.4</ele>
        <time>2026-01-13T10:42:13Z</time>
      </trkpt>
      <trkpt lat="48.72959" lon="1.97665">
        <ele>161.4</ele>
        <time>2026-01-13T10:42:14Z</time>
      </trkpt>
      <trkpt lat="48.72962" lon="1.97659">
        <ele>161.4</ele>
        <time>2026-01-13T10:42:15Z</time>
      </trkpt>
      <trkpt lat="48.72965" lon="1.97651">
        <ele>161.4</ele>
        <time>2026-01-13T10:42:16Z</time>
      </trkpt>
      <trkpt lat="48.72969" lon="1.97644">
        <ele>161.4</ele>
        <time>2026-01-13T10:42:17Z</time>
      </trkpt>
      <trkpt lat="48.72973" lon="1.97636">
        <ele>160.8</ele>
        <time>2026-01-13T10:42:18Z</time>
      </trkpt>
      <trkpt lat="48.72975" lon="1.97628">
        <ele>160.8</ele>
        <time>2026-01-13T10:42:19Z</time>
      </trkpt>
      <trkpt lat="48.72977" lon="1.97619">
        <ele>160.8</ele>
        <time>2026-01-13T10:42:20Z</time>
      </trkpt>
      <trkpt lat="48.72978" lon="1.9761">
        <ele>161.2</ele>
        <time>2026-01-13T10:42:21Z</time>
      </trkpt>
      <trkpt lat="48.72979" lon="1.97601">
        <ele>161.4</ele>
        <time>2026-01-13T10:42:22Z</time>
      </trkpt>
      <trkpt lat="48.72979" lon="1.97592">
        <ele>161.6</ele>
        <time>2026-01-13T10:42:23Z</time>
      </trkpt>
      <trkpt lat="48.72979" lon="1.97583">
        <ele>161.6</ele>
        <time>2026-01-13T10:42:24Z</time>
      </trkpt>
      <trkpt lat="48.72979" lon="1.97575">
        <ele>161.6</ele>
        <time>2026-01-13T10:42:25Z</time>
      </trkpt>
      <trkpt lat="48.72979" lon="1.97565">
        <ele>161.6</ele>
        <time>2026-01-13T10:42:26Z</time>
      </trkpt>
      <trkpt lat="48.72979" lon="1.97556">
        <ele>161.2</ele>
        <time>2026-01-13T10:42:27Z</time>
      </trkpt>
      <trkpt lat="48.72979" lon="1.97547">
        <ele>161.2</ele>
        <time>2026-01-13T10:42:28Z</time>
      </trkpt>
      <trkpt lat="48.72979" lon="1.97539">
        <ele>161.2</ele>
        <time>2026-01-13T10:42:29Z</time>
      </trkpt>
      <trkpt lat="48.72979" lon="1.9753">
        <ele>161.4</ele>
        <time>2026-01-13T10:42:30Z</time>
      </trkpt>
      <trkpt lat="48.72979" lon="1.97521">
        <ele>161.8</ele>
        <time>2026-01-13T10:42:31Z</time>
      </trkpt>
      <trkpt lat="48.72979" lon="1.97513">
        <ele>162</ele>
        <time>2026-01-13T10:42:32Z</time>
      </trkpt>
      <trkpt lat="48.7298" lon="1.97504">
        <ele>162</ele>
        <time>2026-01-13T10:42:33Z</time>
      </trkpt>
      <trkpt lat="48.7298" lon="1.97495">
        <ele>162</ele>
        <time>2026-01-13T10:42:34Z</time>
      </trkpt>
      <trkpt lat="48.7298" lon="1.97486">
        <ele>162</ele>
        <time>2026-01-13T10:42:35Z</time>
      </trkpt>
      <trkpt lat="48.7298" lon="1.97477">
        <ele>162.2</ele>
        <time>2026-01-13T10:42:36Z</time>
      </trkpt>
      <trkpt lat="48.72981" lon="1.97468">
        <ele>162.2</ele>
        <time>2026-01-13T10:42:37Z</time>
      </trkpt>
      <trkpt lat="48.72982" lon="1.9746">
        <ele>162.2</ele>
        <time>2026-01-13T10:42:38Z</time>
      </trkpt>
      <trkpt lat="48.72982" lon="1.97451">
        <ele>162</ele>
        <time>2026-01-13T10:42:39Z</time>
      </trkpt>
      <trkpt lat="48.72983" lon="1.97442">
        <ele>162</ele>
        <time>2026-01-13T10:42:40Z</time>
      </trkpt>
      <trkpt lat="48.72984" lon="1.97433">
        <ele>162</ele>
        <time>2026-01-13T10:42:41Z</time>
      </trkpt>
      <trkpt lat="48.72984" lon="1.97425">
        <ele>162.6</ele>
        <time>2026-01-13T10:42:42Z</time>
      </trkpt>
      <trkpt lat="48.72985" lon="1.97417">
        <ele>163</ele>
        <time>2026-01-13T10:42:43Z</time>
      </trkpt>
      <trkpt lat="48.72986" lon="1.97409">
        <ele>163.2</ele>
        <time>2026-01-13T10:42:44Z</time>
      </trkpt>
      <trkpt lat="48.72988" lon="1.974">
        <ele>163.2</ele>
        <time>2026-01-13T10:42:45Z</time>
      </trkpt>
      <trkpt lat="48.72989" lon="1.97392">
        <ele>163.2</ele>
        <time>2026-01-13T10:42:46Z</time>
      </trkpt>
      <trkpt lat="48.72991" lon="1.97384">
        <ele>162.8</ele>
        <time>2026-01-13T10:42:47Z</time>
      </trkpt>
      <trkpt lat="48.72992" lon="1.97375">
        <ele>162.8</ele>
        <time>2026-01-13T10:42:48Z</time>
      </trkpt>
      <trkpt lat="48.72994" lon="1.97367">
        <ele>162.8</ele>
        <time>2026-01-13T10:42:49Z</time>
      </trkpt>
      <trkpt lat="48.72996" lon="1.97359">
        <ele>162.8</ele>
        <time>2026-01-13T10:42:50Z</time>
      </trkpt>
      <trkpt lat="48.72998" lon="1.97351">
        <ele>162.8</ele>
        <time>2026-01-13T10:42:51Z</time>
      </trkpt>
      <trkpt lat="48.73" lon="1.97344">
        <ele>162.8</ele>
        <time>2026-01-13T10:42:52Z</time>
      </trkpt>
      <trkpt lat="48.73001" lon="1.97336">
        <ele>163.2</ele>
        <time>2026-01-13T10:42:53Z</time>
      </trkpt>
      <trkpt lat="48.73003" lon="1.97329">
        <ele>164</ele>
        <time>2026-01-13T10:42:54Z</time>
      </trkpt>
      <trkpt lat="48.73005" lon="1.97323">
        <ele>164.2</ele>
        <time>2026-01-13T10:42:55Z</time>
      </trkpt>
      <trkpt lat="48.73006" lon="1.97318">
        <ele>164.4</ele>
        <time>2026-01-13T10:42:56Z</time>
      </trkpt>
      <trkpt lat="48.73007" lon="1.97313">
        <ele>164.4</ele>
        <time>2026-01-13T10:42:57Z</time>
      </trkpt>
      <trkpt lat="48.73006" lon="1.97309">
        <ele>164.4</ele>
        <time>2026-01-13T10:42:58Z</time>
      </trkpt>
      <trkpt lat="48.73007" lon="1.97305">
        <ele>164.4</ele>
        <time>2026-01-13T10:42:59Z</time>
      </trkpt>
      <trkpt lat="48.73008" lon="1.97301">
        <ele>164.4</ele>
        <time>2026-01-13T10:43:00Z</time>
      </trkpt>
      <trkpt lat="48.7301" lon="1.97297">
        <ele>164.4</ele>
        <time>2026-01-13T10:43:01Z</time>
      </trkpt>
      <trkpt lat="48.73012" lon="1.97292">
        <ele>164.4</ele>
        <time>2026-01-13T10:43:02Z</time>
      </trkpt>
      <trkpt lat="48.73015" lon="1.97288">
        <ele>164.4</ele>
        <time>2026-01-13T10:43:03Z</time>
      </trkpt>
      <trkpt lat="48.73018" lon="1.97284">
        <ele>164.6</ele>
        <time>2026-01-13T10:43:04Z</time>
      </trkpt>
      <trkpt lat="48.73022" lon="1.97281">
        <ele>164.6</ele>
        <time>2026-01-13T10:43:05Z</time>
      </trkpt>
      <trkpt lat="48.73026" lon="1.97279">
        <ele>164.8</ele>
        <time>2026-01-13T10:43:06Z</time>
      </trkpt>
      <trkpt lat="48.7303" lon="1.97279">
        <ele>165.6</ele>
        <time>2026-01-13T10:43:07Z</time>
      </trkpt>
      <trkpt lat="48.73035" lon="1.97278">
        <ele>165.6</ele>
        <time>2026-01-13T10:43:08Z</time>
      </trkpt>
      <trkpt lat="48.7304" lon="1.97278">
        <ele>165.6</ele>
        <time>2026-01-13T10:43:09Z</time>
      </trkpt>
      <trkpt lat="48.73045" lon="1.97276">
        <ele>164.6</ele>
        <time>2026-01-13T10:43:10Z</time>
      </trkpt>
      <trkpt lat="48.7305" lon="1.97273">
        <ele>164.6</ele>
        <time>2026-01-13T10:43:11Z</time>
      </trkpt>
      <trkpt lat="48.73055" lon="1.97271">
        <ele>164.6</ele>
        <time>2026-01-13T10:43:12Z</time>
      </trkpt>
      <trkpt lat="48.7306" lon="1.9727">
        <ele>164.8</ele>
        <time>2026-01-13T10:43:13Z</time>
      </trkpt>
      <trkpt lat="48.73065" lon="1.97268">
        <ele>164.8</ele>
        <time>2026-01-13T10:43:14Z</time>
      </trkpt>
      <trkpt lat="48.73071" lon="1.97266">
        <ele>164.8</ele>
        <time>2026-01-13T10:43:15Z</time>
      </trkpt>
      <trkpt lat="48.73076" lon="1.97263">
        <ele>164.8</ele>
        <time>2026-01-13T10:43:16Z</time>
      </trkpt>
      <trkpt lat="48.73081" lon="1.97261">
        <ele>164.8</ele>
        <time>2026-01-13T10:43:17Z</time>
      </trkpt>
      <trkpt lat="48.73086" lon="1.97259">
        <ele>164.8</ele>
        <time>2026-01-13T10:43:18Z</time>
      </trkpt>
      <trkpt lat="48.73092" lon="1.97257">
        <ele>164.8</ele>
        <time>2026-01-13T10:43:19Z</time>
      </trkpt>
      <trkpt lat="48.73097" lon="1.97255">
        <ele>164.8</ele>
        <time>2026-01-13T10:43:20Z</time>
      </trkpt>
      <trkpt lat="48.73103" lon="1.97253">
        <ele>165.4</ele>
        <time>2026-01-13T10:43:21Z</time>
      </trkpt>
      <trkpt lat="48.73109" lon="1.9725">
        <ele>165.4</ele>
        <time>2026-01-13T10:43:22Z</time>
      </trkpt>
      <trkpt lat="48.73115" lon="1.97248">
        <ele>165.4</ele>
        <time>2026-01-13T10:43:23Z</time>
      </trkpt>
      <trkpt lat="48.73121" lon="1.97245">
        <ele>165.2</ele>
        <time>2026-01-13T10:43:24Z</time>
      </trkpt>
      <trkpt lat="48.73127" lon="1.97243">
        <ele>165.2</ele>
        <time>2026-01-13T10:43:25Z</time>
      </trkpt>
      <trkpt lat="48.73133" lon="1.97241">
        <ele>165.2</ele>
        <time>2026-01-13T10:43:26Z</time>
      </trkpt>
      <trkpt lat="48.73139" lon="1.97238">
        <ele>165.2</ele>
        <time>2026-01-13T10:43:27Z</time>
      </trkpt>
      <trkpt lat="48.73145" lon="1.97235">
        <ele>164.8</ele>
        <time>2026-01-13T10:43:28Z</time>
      </trkpt>
      <trkpt lat="48.73152" lon="1.97233">
        <ele>164.8</ele>
        <time>2026-01-13T10:43:29Z</time>
      </trkpt>
      <trkpt lat="48.73159" lon="1.97231">
        <ele>164.8</ele>
        <time>2026-01-13T10:43:30Z</time>
      </trkpt>
      <trkpt lat="48.73165" lon="1.97229">
        <ele>164.8</ele>
        <time>2026-01-13T10:43:31Z</time>
      </trkpt>
      <trkpt lat="48.73172" lon="1.97226">
        <ele>164.8</ele>
        <time>2026-01-13T10:43:32Z</time>
      </trkpt>
      <trkpt lat="48.73179" lon="1.97224">
        <ele>163.8</ele>
        <time>2026-01-13T10:43:33Z</time>
      </trkpt>
      <trkpt lat="48.73186" lon="1.97221">
        <ele>163.8</ele>
        <time>2026-01-13T10:43:34Z</time>
      </trkpt>
      <trkpt lat="48.73192" lon="1.97219">
        <ele>163.8</ele>
        <time>2026-01-13T10:43:35Z</time>
      </trkpt>
      <trkpt lat="48.73199" lon="1.97216">
        <ele>164</ele>
        <time>2026-01-13T10:43:36Z</time>
      </trkpt>
      <trkpt lat="48.73206" lon="1.97214">
        <ele>164.2</ele>
        <time>2026-01-13T10:43:37Z</time>
      </trkpt>
      <trkpt lat="48.73213" lon="1.97212">
        <ele>165.2</ele>
        <time>2026-01-13T10:43:38Z</time>
      </trkpt>
      <trkpt lat="48.7322" lon="1.9721">
        <ele>165.2</ele>
        <time>2026-01-13T10:43:39Z</time>
      </trkpt>
      <trkpt lat="48.73226" lon="1.97209">
        <ele>165.2</ele>
        <time>2026-01-13T10:43:40Z</time>
      </trkpt>
      <trkpt lat="48.73233" lon="1.97207">
        <ele>165.2</ele>
        <time>2026-01-13T10:43:41Z</time>
      </trkpt>
      <trkpt lat="48.7324" lon="1.97204">
        <ele>165.2</ele>
        <time>2026-01-13T10:43:42Z</time>
      </trkpt>
      <trkpt lat="48.73247" lon="1.97202">
        <ele>165.2</ele>
        <time>2026-01-13T10:43:43Z</time>
      </trkpt>
      <trkpt lat="48.73253" lon="1.972">
        <ele>165.2</ele>
        <time>2026-01-13T10:43:44Z</time>
      </trkpt>
      <trkpt lat="48.7326" lon="1.97198">
        <ele>165.2</ele>
        <time>2026-01-13T10:43:45Z</time>
      </trkpt>
      <trkpt lat="48.73267" lon="1.97196">
        <ele>165.2</ele>
        <time>2026-01-13T10:43:46Z</time>
      </trkpt>
      <trkpt lat="48.73273" lon="1.97194">
        <ele>165.2</ele>
        <time>2026-01-13T10:43:47Z</time>
      </trkpt>
      <trkpt lat="48.7328" lon="1.97192">
        <ele>165.6</ele>
        <time>2026-01-13T10:43:48Z</time>
      </trkpt>
      <trkpt lat="48.73286" lon="1.97191">
        <ele>166</ele>
        <time>2026-01-13T10:43:49Z</time>
      </trkpt>
      <trkpt lat="48.73292" lon="1.97189">
        <ele>166</ele>
        <time>2026-01-13T10:43:50Z</time>
      </trkpt>
      <trkpt lat="48.73298" lon="1.97188">
        <ele>166</ele>
        <time>2026-01-13T10:43:51Z</time>
      </trkpt>
      <trkpt lat="48.73304" lon="1.97187">
        <ele>166</ele>
        <time>2026-01-13T10:43:52Z</time>
      </trkpt>
      <trkpt lat="48.7331" lon="1.97187">
        <ele>166.6</ele>
        <time>2026-01-13T10:43:53Z</time>
      </trkpt>
      <trkpt lat="48.73316" lon="1.97186">
        <ele>166.6</ele>
        <time>2026-01-13T10:43:54Z</time>
      </trkpt>
      <trkpt lat="48.73322" lon="1.97186">
        <ele>166.6</ele>
        <time>2026-01-13T10:43:55Z</time>
      </trkpt>
      <trkpt lat="48.73328" lon="1.97186">
        <ele>166.6</ele>
        <time>2026-01-13T10:43:56Z</time>
      </trkpt>
      <trkpt lat="48.73333" lon="1.97185">
        <ele>166.6</ele>
        <time>2026-01-13T10:43:57Z</time>
      </trkpt>
      <trkpt lat="48.73339" lon="1.97185">
        <ele>167.6</ele>
        <time>2026-01-13T10:43:58Z</time>
      </trkpt>
      <trkpt lat="48.73345" lon="1.97186">
        <ele>168</ele>
        <time>2026-01-13T10:43:59Z</time>
      </trkpt>
      <trkpt lat="48.7335" lon="1.97187">
        <ele>168</ele>
        <time>2026-01-13T10:44:00Z</time>
      </trkpt>
      <trkpt lat="48.73356" lon="1.97188">
        <ele>168</ele>
        <time>2026-01-13T10:44:01Z</time>
      </trkpt>
      <trkpt lat="48.73362" lon="1.97189">
        <ele>168</ele>
        <time>2026-01-13T10:44:02Z</time>
      </trkpt>
      <trkpt lat="48.73368" lon="1.97191">
        <ele>168</ele>
        <time>2026-01-13T10:44:03Z</time>
      </trkpt>
      <trkpt lat="48.73373" lon="1.97192">
        <ele>168</ele>
        <time>2026-01-13T10:44:04Z</time>
      </trkpt>
      <trkpt lat="48.73379" lon="1.97193">
        <ele>168.4</ele>
        <time>2026-01-13T10:44:05Z</time>
      </trkpt>
      <trkpt lat="48.73385" lon="1.97193">
        <ele>168.4</ele>
        <time>2026-01-13T10:44:06Z</time>
      </trkpt>
      <trkpt lat="48.7339" lon="1.97194">
        <ele>168.4</ele>
        <time>2026-01-13T10:44:07Z</time>
      </trkpt>
      <trkpt lat="48.73396" lon="1.97193">
        <ele>168.4</ele>
        <time>2026-01-13T10:44:08Z</time>
      </trkpt>
      <trkpt lat="48.73402" lon="1.97194">
        <ele>168.4</ele>
        <time>2026-01-13T10:44:09Z</time>
      </trkpt>
      <trkpt lat="48.73408" lon="1.97195">
        <ele>168.4</ele>
        <time>2026-01-13T10:44:10Z</time>
      </trkpt>
      <trkpt lat="48.73414" lon="1.97197">
        <ele>168.4</ele>
        <time>2026-01-13T10:44:11Z</time>
      </trkpt>
      <trkpt lat="48.7342" lon="1.97198">
        <ele>168.4</ele>
        <time>2026-01-13T10:44:12Z</time>
      </trkpt>
      <trkpt lat="48.73426" lon="1.97199">
        <ele>168.4</ele>
        <time>2026-01-13T10:44:13Z</time>
      </trkpt>
      <trkpt lat="48.73432" lon="1.972">
        <ele>168.4</ele>
        <time>2026-01-13T10:44:14Z</time>
      </trkpt>
      <trkpt lat="48.73438" lon="1.97201">
        <ele>168.2</ele>
        <time>2026-01-13T10:44:15Z</time>
      </trkpt>
      <trkpt lat="48.73444" lon="1.97202">
        <ele>167.8</ele>
        <time>2026-01-13T10:44:16Z</time>
      </trkpt>
      <trkpt lat="48.7345" lon="1.97203">
        <ele>167.8</ele>
        <time>2026-01-13T10:44:17Z</time>
      </trkpt>
      <trkpt lat="48.73456" lon="1.97204">
        <ele>167.8</ele>
        <time>2026-01-13T10:44:18Z</time>
      </trkpt>
      <trkpt lat="48.73462" lon="1.97206">
        <ele>168.2</ele>
        <time>2026-01-13T10:44:19Z</time>
      </trkpt>
      <trkpt lat="48.73468" lon="1.97207">
        <ele>169.2</ele>
        <time>2026-01-13T10:44:20Z</time>
      </trkpt>
      <trkpt lat="48.73474" lon="1.97208">
        <ele>169.2</ele>
        <time>2026-01-13T10:44:21Z</time>
      </trkpt>
      <trkpt lat="48.73481" lon="1.97209">
        <ele>169.2</ele>
        <time>2026-01-13T10:44:22Z</time>
      </trkpt>
      <trkpt lat="48.73487" lon="1.9721">
        <ele>168.4</ele>
        <time>2026-01-13T10:44:23Z</time>
      </trkpt>
      <trkpt lat="48.73494" lon="1.97211">
        <ele>168</ele>
        <time>2026-01-13T10:44:24Z</time>
      </trkpt>
      <trkpt lat="48.735" lon="1.97212">
        <ele>168</ele>
        <time>2026-01-13T10:44:25Z</time>
      </trkpt>
      <trkpt lat="48.73507" lon="1.97214">
        <ele>168</ele>
        <time>2026-01-13T10:44:26Z</time>
      </trkpt>
      <trkpt lat="48.73513" lon="1.97215">
        <ele>168</ele>
        <time>2026-01-13T10:44:27Z</time>
      </trkpt>
      <trkpt lat="48.7352" lon="1.97216">
        <ele>168</ele>
        <time>2026-01-13T10:44:28Z</time>
      </trkpt>
      <trkpt lat="48.73526" lon="1.97218">
        <ele>168</ele>
        <time>2026-01-13T10:44:29Z</time>
      </trkpt>
      <trkpt lat="48.73533" lon="1.9722">
        <ele>168</ele>
        <time>2026-01-13T10:44:30Z</time>
      </trkpt>
      <trkpt lat="48.73539" lon="1.97222">
        <ele>168</ele>
        <time>2026-01-13T10:44:31Z</time>
      </trkpt>
      <trkpt lat="48.73545" lon="1.97224">
        <ele>169</ele>
        <time>2026-01-13T10:44:32Z</time>
      </trkpt>
      <trkpt lat="48.73552" lon="1.97227">
        <ele>169.8</ele>
        <time>2026-01-13T10:44:33Z</time>
      </trkpt>
      <trkpt lat="48.73558" lon="1.9723">
        <ele>169.8</ele>
        <time>2026-01-13T10:44:34Z</time>
      </trkpt>
      <trkpt lat="48.73564" lon="1.97232">
        <ele>169.8</ele>
        <time>2026-01-13T10:44:35Z</time>
      </trkpt>
      <trkpt lat="48.7357" lon="1.97236">
        <ele>169</ele>
        <time>2026-01-13T10:44:36Z</time>
      </trkpt>
      <trkpt lat="48.73576" lon="1.97239">
        <ele>169</ele>
        <time>2026-01-13T10:44:37Z</time>
      </trkpt>
      <trkpt lat="48.73582" lon="1.97242">
        <ele>169</ele>
        <time>2026-01-13T10:44:38Z</time>
      </trkpt>
      <trkpt lat="48.73588" lon="1.97246">
        <ele>169.2</ele>
        <time>2026-01-13T10:44:39Z</time>
      </trkpt>
      <trkpt lat="48.73594" lon="1.97249">
        <ele>169.6</ele>
        <time>2026-01-13T10:44:40Z</time>
      </trkpt>
      <trkpt lat="48.736" lon="1.97253">
        <ele>169.6</ele>
        <time>2026-01-13T10:44:41Z</time>
      </trkpt>
      <trkpt lat="48.73606" lon="1.97257">
        <ele>169.6</ele>
        <time>2026-01-13T10:44:42Z</time>
      </trkpt>
      <trkpt lat="48.73612" lon="1.97261">
        <ele>169.6</ele>
        <time>2026-01-13T10:44:43Z</time>
      </trkpt>
      <trkpt lat="48.73618" lon="1.97265">
        <ele>169.6</ele>
        <time>2026-01-13T10:44:44Z</time>
      </trkpt>
      <trkpt lat="48.73624" lon="1.97269">
        <ele>169.6</ele>
        <time>2026-01-13T10:44:45Z</time>
      </trkpt>
      <trkpt lat="48.7363" lon="1.97273">
        <ele>169.6</ele>
        <time>2026-01-13T10:44:46Z</time>
      </trkpt>
      <trkpt lat="48.73636" lon="1.97277">
        <ele>169.8</ele>
        <time>2026-01-13T10:44:47Z</time>
      </trkpt>
      <trkpt lat="48.73642" lon="1.97281">
        <ele>169.8</ele>
        <time>2026-01-13T10:44:48Z</time>
      </trkpt>
      <trkpt lat="48.73648" lon="1.97285">
        <ele>169.8</ele>
        <time>2026-01-13T10:44:49Z</time>
      </trkpt>
      <trkpt lat="48.73653" lon="1.9729">
        <ele>169</ele>
        <time>2026-01-13T10:44:50Z</time>
      </trkpt>
      <trkpt lat="48.73659" lon="1.97294">
        <ele>169</ele>
        <time>2026-01-13T10:44:51Z</time>
      </trkpt>
      <trkpt lat="48.73665" lon="1.97298">
        <ele>169</ele>
        <time>2026-01-13T10:44:52Z</time>
      </trkpt>
      <trkpt lat="48.73671" lon="1.97302">
        <ele>170</ele>
        <time>2026-01-13T10:44:53Z</time>
      </trkpt>
      <trkpt lat="48.73677" lon="1.97306">
        <ele>170.2</ele>
        <time>2026-01-13T10:44:54Z</time>
      </trkpt>
      <trkpt lat="48.73683" lon="1.97309">
        <ele>170.2</ele>
        <time>2026-01-13T10:44:55Z</time>
      </trkpt>
      <trkpt lat="48.73688" lon="1.97314">
        <ele>170.2</ele>
        <time>2026-01-13T10:44:56Z</time>
      </trkpt>
      <trkpt lat="48.73694" lon="1.97318">
        <ele>170.2</ele>
        <time>2026-01-13T10:44:57Z</time>
      </trkpt>
      <trkpt lat="48.737" lon="1.97322">
        <ele>170.2</ele>
        <time>2026-01-13T10:44:58Z</time>
      </trkpt>
      <trkpt lat="48.73706" lon="1.97326">
        <ele>170.2</ele>
        <time>2026-01-13T10:44:59Z</time>
      </trkpt>
      <trkpt lat="48.73712" lon="1.9733">
        <ele>170.2</ele>
        <time>2026-01-13T10:45:00Z</time>
      </trkpt>
      <trkpt lat="48.73719" lon="1.97333">
        <ele>170.2</ele>
        <time>2026-01-13T10:45:01Z</time>
      </trkpt>
      <trkpt lat="48.73724" lon="1.97337">
        <ele>170.2</ele>
        <time>2026-01-13T10:45:02Z</time>
      </trkpt>
      <trkpt lat="48.7373" lon="1.97341">
        <ele>170.8</ele>
        <time>2026-01-13T10:45:03Z</time>
      </trkpt>
      <trkpt lat="48.73736" lon="1.97344">
        <ele>170.8</ele>
        <time>2026-01-13T10:45:04Z</time>
      </trkpt>
      <trkpt lat="48.73742" lon="1.97347">
        <ele>170.8</ele>
        <time>2026-01-13T10:45:05Z</time>
      </trkpt>
      <trkpt lat="48.73748" lon="1.9735">
        <ele>170.8</ele>
        <time>2026-01-13T10:45:06Z</time>
      </trkpt>
      <trkpt lat="48.73754" lon="1.97352">
        <ele>170.6</ele>
        <time>2026-01-13T10:45:07Z</time>
      </trkpt>
      <trkpt lat="48.73761" lon="1.97356">
        <ele>169.6</ele>
        <time>2026-01-13T10:45:08Z</time>
      </trkpt>
      <trkpt lat="48.73767" lon="1.97358">
        <ele>168.8</ele>
        <time>2026-01-13T10:45:09Z</time>
      </trkpt>
      <trkpt lat="48.73774" lon="1.97358">
        <ele>168.2</ele>
        <time>2026-01-13T10:45:10Z</time>
      </trkpt>
      <trkpt lat="48.7378" lon="1.97356">
        <ele>168.2</ele>
        <time>2026-01-13T10:45:11Z</time>
      </trkpt>
      <trkpt lat="48.73786" lon="1.97353">
        <ele>168.2</ele>
        <time>2026-01-13T10:45:12Z</time>
      </trkpt>
      <trkpt lat="48.73792" lon="1.97348">
        <ele>169.2</ele>
        <time>2026-01-13T10:45:13Z</time>
      </trkpt>
      <trkpt lat="48.73798" lon="1.97342">
        <ele>169.6</ele>
        <time>2026-01-13T10:45:14Z</time>
      </trkpt>
      <trkpt lat="48.73803" lon="1.97336">
        <ele>169.6</ele>
        <time>2026-01-13T10:45:15Z</time>
      </trkpt>
      <trkpt lat="48.73808" lon="1.97329">
        <ele>169.6</ele>
        <time>2026-01-13T10:45:16Z</time>
      </trkpt>
      <trkpt lat="48.73813" lon="1.97322">
        <ele>169.6</ele>
        <time>2026-01-13T10:45:17Z</time>
      </trkpt>
      <trkpt lat="48.73818" lon="1.97315">
        <ele>169.6</ele>
        <time>2026-01-13T10:45:18Z</time>
      </trkpt>
      <trkpt lat="48.73823" lon="1.97308">
        <ele>169.6</ele>
        <time>2026-01-13T10:45:19Z</time>
      </trkpt>
      <trkpt lat="48.73828" lon="1.97301">
        <ele>169.6</ele>
        <time>2026-01-13T10:45:20Z</time>
      </trkpt>
      <trkpt lat="48.73833" lon="1.97294">
        <ele>170</ele>
        <time>2026-01-13T10:45:21Z</time>
      </trkpt>
      <trkpt lat="48.73838" lon="1.97287">
        <ele>170</ele>
        <time>2026-01-13T10:45:22Z</time>
      </trkpt>
      <trkpt lat="48.73842" lon="1.97279">
        <ele>170</ele>
        <time>2026-01-13T10:45:23Z</time>
      </trkpt>
      <trkpt lat="48.73847" lon="1.97272">
        <ele>170</ele>
        <time>2026-01-13T10:45:24Z</time>
      </trkpt>
      <trkpt lat="48.73851" lon="1.97264">
        <ele>170</ele>
        <time>2026-01-13T10:45:25Z</time>
      </trkpt>
      <trkpt lat="48.73856" lon="1.97257">
        <ele>170</ele>
        <time>2026-01-13T10:45:26Z</time>
      </trkpt>
      <trkpt lat="48.7386" lon="1.97249">
        <ele>170</ele>
        <time>2026-01-13T10:45:27Z</time>
      </trkpt>
      <trkpt lat="48.73864" lon="1.97241">
        <ele>170.4</ele>
        <time>2026-01-13T10:45:28Z</time>
      </trkpt>
      <trkpt lat="48.73868" lon="1.97232">
        <ele>170.4</ele>
        <time>2026-01-13T10:45:29Z</time>
      </trkpt>
      <trkpt lat="48.73872" lon="1.97224">
        <ele>170.4</ele>
        <time>2026-01-13T10:45:30Z</time>
      </trkpt>
      <trkpt lat="48.73876" lon="1.97215">
        <ele>170.4</ele>
        <time>2026-01-13T10:45:31Z</time>
      </trkpt>
      <trkpt lat="48.7388" lon="1.97207">
        <ele>170.4</ele>
        <time>2026-01-13T10:45:32Z</time>
      </trkpt>
      <trkpt lat="48.73884" lon="1.97198">
        <ele>169.8</ele>
        <time>2026-01-13T10:45:33Z</time>
      </trkpt>
      <trkpt lat="48.73888" lon="1.97189">
        <ele>169.8</ele>
        <time>2026-01-13T10:45:34Z</time>
      </trkpt>
      <trkpt lat="48.73892" lon="1.9718">
        <ele>169.8</ele>
        <time>2026-01-13T10:45:35Z</time>
      </trkpt>
      <trkpt lat="48.73896" lon="1.97171">
        <ele>170.8</ele>
        <time>2026-01-13T10:45:36Z</time>
      </trkpt>
      <trkpt lat="48.73899" lon="1.97162">
        <ele>170.8</ele>
        <time>2026-01-13T10:45:37Z</time>
      </trkpt>
      <trkpt lat="48.73903" lon="1.97152">
        <ele>170.8</ele>
        <time>2026-01-13T10:45:38Z</time>
      </trkpt>
      <trkpt lat="48.73907" lon="1.97143">
        <ele>169.8</ele>
        <time>2026-01-13T10:45:39Z</time>
      </trkpt>
      <trkpt lat="48.7391" lon="1.97133">
        <ele>169.8</ele>
        <time>2026-01-13T10:45:40Z</time>
      </trkpt>
      <trkpt lat="48.73914" lon="1.97123">
        <ele>169.8</ele>
        <time>2026-01-13T10:45:41Z</time>
      </trkpt>
      <trkpt lat="48.73917" lon="1.97114">
        <ele>169.8</ele>
        <time>2026-01-13T10:45:42Z</time>
      </trkpt>
      <trkpt lat="48.73921" lon="1.97104">
        <ele>169.8</ele>
        <time>2026-01-13T10:45:43Z</time>
      </trkpt>
      <trkpt lat="48.73924" lon="1.97094">
        <ele>169.8</ele>
        <time>2026-01-13T10:45:44Z</time>
      </trkpt>
      <trkpt lat="48.73928" lon="1.97084">
        <ele>169.8</ele>
        <time>2026-01-13T10:45:45Z</time>
      </trkpt>
      <trkpt lat="48.73931" lon="1.97075">
        <ele>169.8</ele>
        <time>2026-01-13T10:45:46Z</time>
      </trkpt>
      <trkpt lat="48.73935" lon="1.97065">
        <ele>169.8</ele>
        <time>2026-01-13T10:45:47Z</time>
      </trkpt>
      <trkpt lat="48.73939" lon="1.97055">
        <ele>169.4</ele>
        <time>2026-01-13T10:45:48Z</time>
      </trkpt>
      <trkpt lat="48.73942" lon="1.97045">
        <ele>169.4</ele>
        <time>2026-01-13T10:45:49Z</time>
      </trkpt>
      <trkpt lat="48.73946" lon="1.97035">
        <ele>169.4</ele>
        <time>2026-01-13T10:45:50Z</time>
      </trkpt>
      <trkpt lat="48.7395" lon="1.97025">
        <ele>169.4</ele>
        <time>2026-01-13T10:45:51Z</time>
      </trkpt>
      <trkpt lat="48.73953" lon="1.97015">
        <ele>169.4</ele>
        <time>2026-01-13T10:45:52Z</time>
      </trkpt>
      <trkpt lat="48.73958" lon="1.97006">
        <ele>169.4</ele>
        <time>2026-01-13T10:45:53Z</time>
      </trkpt>
      <trkpt lat="48.73962" lon="1.96996">
        <ele>168.4</ele>
        <time>2026-01-13T10:45:54Z</time>
      </trkpt>
      <trkpt lat="48.73966" lon="1.96986">
        <ele>168.4</ele>
        <time>2026-01-13T10:45:55Z</time>
      </trkpt>
      <trkpt lat="48.73971" lon="1.96977">
        <ele>168.4</ele>
        <time>2026-01-13T10:45:56Z</time>
      </trkpt>
      <trkpt lat="48.73976" lon="1.96968">
        <ele>168.8</ele>
        <time>2026-01-13T10:45:57Z</time>
      </trkpt>
      <trkpt lat="48.73982" lon="1.96959">
        <ele>169</ele>
        <time>2026-01-13T10:45:58Z</time>
      </trkpt>
      <trkpt lat="48.73988" lon="1.96951">
        <ele>169</ele>
        <time>2026-01-13T10:45:59Z</time>
      </trkpt>
      <trkpt lat="48.73994" lon="1.96944">
        <ele>169</ele>
        <time>2026-01-13T10:46:00Z</time>
      </trkpt>
      <trkpt lat="48.74" lon="1.96937">
        <ele>169</ele>
        <time>2026-01-13T10:46:01Z</time>
      </trkpt>
      <trkpt lat="48.74006" lon="1.96929">
        <ele>169</ele>
        <time>2026-01-13T10:46:02Z</time>
      </trkpt>
      <trkpt lat="48.74012" lon="1.96921">
        <ele>169</ele>
        <time>2026-01-13T10:46:03Z</time>
      </trkpt>
      <trkpt lat="48.74018" lon="1.96913">
        <ele>169</ele>
        <time>2026-01-13T10:46:04Z</time>
      </trkpt>
      <trkpt lat="48.74025" lon="1.96906">
        <ele>169</ele>
        <time>2026-01-13T10:46:05Z</time>
      </trkpt>
      <trkpt lat="48.74031" lon="1.96898">
        <ele>168.6</ele>
        <time>2026-01-13T10:46:06Z</time>
      </trkpt>
      <trkpt lat="48.74037" lon="1.9689">
        <ele>168.6</ele>
        <time>2026-01-13T10:46:07Z</time>
      </trkpt>
      <trkpt lat="48.74043" lon="1.96882">
        <ele>168.6</ele>
        <time>2026-01-13T10:46:08Z</time>
      </trkpt>
      <trkpt lat="48.74049" lon="1.96874">
        <ele>168.6</ele>
        <time>2026-01-13T10:46:09Z</time>
      </trkpt>
      <trkpt lat="48.74055" lon="1.96866">
        <ele>168.6</ele>
        <time>2026-01-13T10:46:10Z</time>
      </trkpt>
      <trkpt lat="48.74061" lon="1.96859">
        <ele>168.6</ele>
        <time>2026-01-13T10:46:11Z</time>
      </trkpt>
      <trkpt lat="48.74068" lon="1.96851">
        <ele>168</ele>
        <time>2026-01-13T10:46:12Z</time>
      </trkpt>
      <trkpt lat="48.74074" lon="1.96843">
        <ele>167.8</ele>
        <time>2026-01-13T10:46:13Z</time>
      </trkpt>
      <trkpt lat="48.7408" lon="1.96835">
        <ele>167.4</ele>
        <time>2026-01-13T10:46:14Z</time>
      </trkpt>
      <trkpt lat="48.74086" lon="1.96827">
        <ele>167.4</ele>
        <time>2026-01-13T10:46:15Z</time>
      </trkpt>
      <trkpt lat="48.74092" lon="1.96819">
        <ele>167.4</ele>
        <time>2026-01-13T10:46:16Z</time>
      </trkpt>
      <trkpt lat="48.74098" lon="1.96811">
        <ele>167.4</ele>
        <time>2026-01-13T10:46:17Z</time>
      </trkpt>
      <trkpt lat="48.74103" lon="1.96802">
        <ele>167.4</ele>
        <time>2026-01-13T10:46:18Z</time>
      </trkpt>
      <trkpt lat="48.74108" lon="1.96793">
        <ele>167.4</ele>
        <time>2026-01-13T10:46:19Z</time>
      </trkpt>
      <trkpt lat="48.74113" lon="1.96784">
        <ele>167.4</ele>
        <time>2026-01-13T10:46:20Z</time>
      </trkpt>
      <trkpt lat="48.74118" lon="1.96775">
        <ele>167.4</ele>
        <time>2026-01-13T10:46:21Z</time>
      </trkpt>
      <trkpt lat="48.74123" lon="1.96765">
        <ele>167.4</ele>
        <time>2026-01-13T10:46:22Z</time>
      </trkpt>
      <trkpt lat="48.74127" lon="1.96756">
        <ele>167.4</ele>
        <time>2026-01-13T10:46:23Z</time>
      </trkpt>
      <trkpt lat="48.74131" lon="1.96746">
        <ele>167</ele>
        <time>2026-01-13T10:46:24Z</time>
      </trkpt>
      <trkpt lat="48.74135" lon="1.96736">
        <ele>167</ele>
        <time>2026-01-13T10:46:25Z</time>
      </trkpt>
      <trkpt lat="48.7414" lon="1.96726">
        <ele>167</ele>
        <time>2026-01-13T10:46:26Z</time>
      </trkpt>
      <trkpt lat="48.74144" lon="1.96716">
        <ele>167.2</ele>
        <time>2026-01-13T10:46:27Z</time>
      </trkpt>
      <trkpt lat="48.74148" lon="1.96707">
        <ele>167.4</ele>
        <time>2026-01-13T10:46:28Z</time>
      </trkpt>
      <trkpt lat="48.74151" lon="1.96697">
        <ele>168</ele>
        <time>2026-01-13T10:46:29Z</time>
      </trkpt>
      <trkpt lat="48.74155" lon="1.96687">
        <ele>168.2</ele>
        <time>2026-01-13T10:46:30Z</time>
      </trkpt>
      <trkpt lat="48.74159" lon="1.96677">
        <ele>168.4</ele>
        <time>2026-01-13T10:46:31Z</time>
      </trkpt>
      <trkpt lat="48.74163" lon="1.96668">
        <ele>168.4</ele>
        <time>2026-01-13T10:46:32Z</time>
      </trkpt>
      <trkpt lat="48.74167" lon="1.96658">
        <ele>168.4</ele>
        <time>2026-01-13T10:46:33Z</time>
      </trkpt>
      <trkpt lat="48.7417" lon="1.96649">
        <ele>168</ele>
        <time>2026-01-13T10:46:34Z</time>
      </trkpt>
      <trkpt lat="48.74174" lon="1.9664">
        <ele>167.6</ele>
        <time>2026-01-13T10:46:35Z</time>
      </trkpt>
      <trkpt lat="48.74178" lon="1.96631">
        <ele>167.6</ele>
        <time>2026-01-13T10:46:36Z</time>
      </trkpt>
      <trkpt lat="48.74181" lon="1.9662">
        <ele>167.6</ele>
        <time>2026-01-13T10:46:37Z</time>
      </trkpt>
      <trkpt lat="48.74184" lon="1.96611">
        <ele>168.2</ele>
        <time>2026-01-13T10:46:38Z</time>
      </trkpt>
      <trkpt lat="48.74188" lon="1.96603">
        <ele>168.2</ele>
        <time>2026-01-13T10:46:39Z</time>
      </trkpt>
      <trkpt lat="48.74191" lon="1.96594">
        <ele>168.2</ele>
        <time>2026-01-13T10:46:40Z</time>
      </trkpt>
      <trkpt lat="48.74195" lon="1.96586">
        <ele>168.2</ele>
        <time>2026-01-13T10:46:41Z</time>
      </trkpt>
      <trkpt lat="48.74199" lon="1.96576">
        <ele>168.2</ele>
        <time>2026-01-13T10:46:42Z</time>
      </trkpt>
      <trkpt lat="48.74202" lon="1.96567">
        <ele>168.2</ele>
        <time>2026-01-13T10:46:43Z</time>
      </trkpt>
      <trkpt lat="48.74206" lon="1.96558">
        <ele>168.2</ele>
        <time>2026-01-13T10:46:44Z</time>
      </trkpt>
      <trkpt lat="48.74209" lon="1.96549">
        <ele>168.2</ele>
        <time>2026-01-13T10:46:45Z</time>
      </trkpt>
      <trkpt lat="48.74213" lon="1.96541">
        <ele>168.4</ele>
        <time>2026-01-13T10:46:46Z</time>
      </trkpt>
      <trkpt lat="48.74217" lon="1.96533">
        <ele>168.4</ele>
        <time>2026-01-13T10:46:47Z</time>
      </trkpt>
      <trkpt lat="48.74221" lon="1.96524">
        <ele>168.4</ele>
        <time>2026-01-13T10:46:48Z</time>
      </trkpt>
      <trkpt lat="48.74224" lon="1.96516">
        <ele>168.4</ele>
        <time>2026-01-13T10:46:49Z</time>
      </trkpt>
      <trkpt lat="48.74228" lon="1.96508">
        <ele>169.4</ele>
        <time>2026-01-13T10:46:50Z</time>
      </trkpt>
      <trkpt lat="48.74232" lon="1.965">
        <ele>170</ele>
        <time>2026-01-13T10:46:51Z</time>
      </trkpt>
      <trkpt lat="48.74236" lon="1.96492">
        <ele>170</ele>
        <time>2026-01-13T10:46:52Z</time>
      </trkpt>
      <trkpt lat="48.7424" lon="1.96484">
        <ele>170</ele>
        <time>2026-01-13T10:46:53Z</time>
      </trkpt>
      <trkpt lat="48.74243" lon="1.96476">
        <ele>170</ele>
        <time>2026-01-13T10:46:54Z</time>
      </trkpt>
      <trkpt lat="48.74247" lon="1.96468">
        <ele>169.6</ele>
        <time>2026-01-13T10:46:55Z</time>
      </trkpt>
      <trkpt lat="48.7425" lon="1.96461">
        <ele>169.4</ele>
        <time>2026-01-13T10:46:56Z</time>
      </trkpt>
      <trkpt lat="48.74254" lon="1.96454">
        <ele>169.4</ele>
        <time>2026-01-13T10:46:57Z</time>
      </trkpt>
      <trkpt lat="48.74256" lon="1.96448">
        <ele>169.4</ele>
        <time>2026-01-13T10:46:58Z</time>
      </trkpt>
      <trkpt lat="48.74258" lon="1.96443">
        <ele>170.4</ele>
        <time>2026-01-13T10:46:59Z</time>
      </trkpt>
      <trkpt lat="48.74259" lon="1.96441">
        <ele>171</ele>
        <time>2026-01-13T10:47:00Z</time>
      </trkpt>
      <trkpt lat="48.7426" lon="1.96437">
        <ele>171</ele>
        <time>2026-01-13T10:47:01Z</time>
      </trkpt>
      <trkpt lat="48.74262" lon="1.96434">
        <ele>171</ele>
        <time>2026-01-13T10:47:02Z</time>
      </trkpt>
      <trkpt lat="48.74263" lon="1.96429">
        <ele>170</ele>
        <time>2026-01-13T10:47:03Z</time>
      </trkpt>
      <trkpt lat="48.74263" lon="1.96424">
        <ele>170</ele>
        <time>2026-01-13T10:47:04Z</time>
      </trkpt>
      <trkpt lat="48.74263" lon="1.96419">
        <ele>170</ele>
        <time>2026-01-13T10:47:05Z</time>
      </trkpt>
      <trkpt lat="48.74264" lon="1.96414">
        <ele>171</ele>
        <time>2026-01-13T10:47:06Z</time>
      </trkpt>
      <trkpt lat="48.74265" lon="1.96409">
        <ele>171.4</ele>
        <time>2026-01-13T10:47:07Z</time>
      </trkpt>
      <trkpt lat="48.74267" lon="1.96404">
        <ele>171.4</ele>
        <time>2026-01-13T10:47:08Z</time>
      </trkpt>
      <trkpt lat="48.74268" lon="1.96399">
        <ele>171.4</ele>
        <time>2026-01-13T10:47:09Z</time>
      </trkpt>
      <trkpt lat="48.7427" lon="1.96393">
        <ele>171.4</ele>
        <time>2026-01-13T10:47:10Z</time>
      </trkpt>
      <trkpt lat="48.74272" lon="1.96387">
        <ele>172.4</ele>
        <time>2026-01-13T10:47:11Z</time>
      </trkpt>
      <trkpt lat="48.74274" lon="1.96381">
        <ele>172.4</ele>
        <time>2026-01-13T10:47:12Z</time>
      </trkpt>
      <trkpt lat="48.74276" lon="1.96375">
        <ele>172.4</ele>
        <time>2026-01-13T10:47:13Z</time>
      </trkpt>
      <trkpt lat="48.74278" lon="1.96369">
        <ele>171.6</ele>
        <time>2026-01-13T10:47:14Z</time>
      </trkpt>
      <trkpt lat="48.7428" lon="1.96362">
        <ele>171.6</ele>
        <time>2026-01-13T10:47:15Z</time>
      </trkpt>
      <trkpt lat="48.74282" lon="1.96357">
        <ele>171.6</ele>
        <time>2026-01-13T10:47:16Z</time>
      </trkpt>
      <trkpt lat="48.74284" lon="1.9635">
        <ele>171.6</ele>
        <time>2026-01-13T10:47:17Z</time>
      </trkpt>
      <trkpt lat="48.74287" lon="1.96343">
        <ele>171.4</ele>
        <time>2026-01-13T10:47:18Z</time>
      </trkpt>
      <trkpt lat="48.74289" lon="1.96335">
        <ele>170.8</ele>
        <time>2026-01-13T10:47:19Z</time>
      </trkpt>
      <trkpt lat="48.74291" lon="1.96328">
        <ele>170.8</ele>
        <time>2026-01-13T10:47:20Z</time>
      </trkpt>
      <trkpt lat="48.74294" lon="1.96322">
        <ele>170.8</ele>
        <time>2026-01-13T10:47:21Z</time>
      </trkpt>
      <trkpt lat="48.74296" lon="1.96315">
        <ele>171.8</ele>
        <time>2026-01-13T10:47:22Z</time>
      </trkpt>
      <trkpt lat="48.74298" lon="1.96307">
        <ele>171.8</ele>
        <time>2026-01-13T10:47:23Z</time>
      </trkpt>
      <trkpt lat="48.74299" lon="1.963">
        <ele>171.8</ele>
        <time>2026-01-13T10:47:24Z</time>
      </trkpt>
      <trkpt lat="48.743" lon="1.96294">
        <ele>171.8</ele>
        <time>2026-01-13T10:47:25Z</time>
      </trkpt>
      <trkpt lat="48.74301" lon="1.96287">
        <ele>171.6</ele>
        <time>2026-01-13T10:47:26Z</time>
      </trkpt>
      <trkpt lat="48.74301" lon="1.9628">
        <ele>171.6</ele>
        <time>2026-01-13T10:47:27Z</time>
      </trkpt>
      <trkpt lat="48.74301" lon="1.96273">
        <ele>171.6</ele>
        <time>2026-01-13T10:47:28Z</time>
      </trkpt>
      <trkpt lat="48.74299" lon="1.96265">
        <ele>172.2</ele>
        <time>2026-01-13T10:47:29Z</time>
      </trkpt>
      <trkpt lat="48.74298" lon="1.96257">
        <ele>172.2</ele>
        <time>2026-01-13T10:47:30Z</time>
      </trkpt>
      <trkpt lat="48.74297" lon="1.9625">
        <ele>172.2</ele>
        <time>2026-01-13T10:47:31Z</time>
      </trkpt>
      <trkpt lat="48.74296" lon="1.96242">
        <ele>171.8</ele>
        <time>2026-01-13T10:47:32Z</time>
      </trkpt>
      <trkpt lat="48.74294" lon="1.96235">
        <ele>171.8</ele>
        <time>2026-01-13T10:47:33Z</time>
      </trkpt>
      <trkpt lat="48.74292" lon="1.96228">
        <ele>171.8</ele>
        <time>2026-01-13T10:47:34Z</time>
      </trkpt>
      <trkpt lat="48.7429" lon="1.96221">
        <ele>172.4</ele>
        <time>2026-01-13T10:47:35Z</time>
      </trkpt>
      <trkpt lat="48.74288" lon="1.96217">
        <ele>172.8</ele>
        <time>2026-01-13T10:47:36Z</time>
      </trkpt>
      <trkpt lat="48.74284" lon="1.96215">
        <ele>172.8</ele>
        <time>2026-01-13T10:47:37Z</time>
      </trkpt>
      <trkpt lat="48.74281" lon="1.96214">
        <ele>172.8</ele>
        <time>2026-01-13T10:47:38Z</time>
      </trkpt>
      <trkpt lat="48.74279" lon="1.96214">
        <ele>172.8</ele>
        <time>2026-01-13T10:47:39Z</time>
      </trkpt>
      <trkpt lat="48.74277" lon="1.96215">
        <ele>172.8</ele>
        <time>2026-01-13T10:47:40Z</time>
      </trkpt>
      <trkpt lat="48.74277" lon="1.96218">
        <ele>173.2</ele>
        <time>2026-01-13T10:47:41Z</time>
      </trkpt>
      <trkpt lat="48.74278" lon="1.96222">
        <ele>173.2</ele>
        <time>2026-01-13T10:47:42Z</time>
      </trkpt>
      <trkpt lat="48.74279" lon="1.96227">
        <ele>173.2</ele>
        <time>2026-01-13T10:47:43Z</time>
      </trkpt>
      <trkpt lat="48.7428" lon="1.96231">
        <ele>172.6</ele>
        <time>2026-01-13T10:47:44Z</time>
      </trkpt>
      <trkpt lat="48.74281" lon="1.96237">
        <ele>172.4</ele>
        <time>2026-01-13T10:47:45Z</time>
      </trkpt>
      <trkpt lat="48.74283" lon="1.96241">
        <ele>172.4</ele>
        <time>2026-01-13T10:47:46Z</time>
      </trkpt>
      <trkpt lat="48.74282" lon="1.96246">
        <ele>172.4</ele>
        <time>2026-01-13T10:47:47Z</time>
      </trkpt>
      <trkpt lat="48.74281" lon="1.96248">
        <ele>172.6</ele>
        <time>2026-01-13T10:47:48Z</time>
      </trkpt>
      <trkpt lat="48.74279" lon="1.96249">
        <ele>172.6</ele>
        <time>2026-01-13T10:47:49Z</time>
      </trkpt>
      <trkpt lat="48.74277" lon="1.96248">
        <ele>173</ele>
        <time>2026-01-13T10:47:50Z</time>
      </trkpt>
      <trkpt lat="48.74275" lon="1.96246">
        <ele>173.2</ele>
        <time>2026-01-13T10:47:51Z</time>
      </trkpt>
      <trkpt lat="48.74274" lon="1.96243">
        <ele>173.2</ele>
        <time>2026-01-13T10:47:52Z</time>
      </trkpt>
      <trkpt lat="48.74274" lon="1.96242">
        <ele>173.2</ele>
        <time>2026-01-13T10:47:53Z</time>
      </trkpt>
      <trkpt lat="48.74273" lon="1.96241">
        <ele>173.2</ele>
        <time>2026-01-13T10:47:54Z</time>
      </trkpt>
      <trkpt lat="48.74273" lon="1.96242">
        <ele>173.6</ele>
        <time>2026-01-13T10:47:55Z</time>
      </trkpt>
      <trkpt lat="48.74273" lon="1.96242">
        <ele>173.6</ele>
        <time>2026-01-13T10:47:56Z</time>
      </trkpt>
      <trkpt lat="48.74283" lon="1.96245">
        <ele>174</ele>
        <time>2026-01-13T10:49:54Z</time>
      </trkpt>
      <trkpt lat="48.74285" lon="1.96245">
        <ele>174</ele>
        <time>2026-01-13T10:49:55Z</time>
      </trkpt>
      <trkpt lat="48.74287" lon="1.96243">
        <ele>174</ele>
        <time>2026-01-13T10:49:56Z</time>
      </trkpt>
      <trkpt lat="48.74288" lon="1.96241">
        <ele>174</ele>
        <time>2026-01-13T10:49:57Z</time>
      </trkpt>
      <trkpt lat="48.74289" lon="1.96239">
        <ele>173.6</ele>
        <time>2026-01-13T10:49:58Z</time>
      </trkpt>
      <trkpt lat="48.7429" lon="1.96237">
        <ele>173.6</ele>
        <time>2026-01-13T10:49:59Z</time>
      </trkpt>
      <trkpt lat="48.74291" lon="1.96237">
        <ele>173.6</ele>
        <time>2026-01-13T10:50:00Z</time>
      </trkpt>
      <trkpt lat="48.74292" lon="1.96236">
        <ele>173.6</ele>
        <time>2026-01-13T10:50:01Z</time>
      </trkpt>
      <trkpt lat="48.74293" lon="1.96236">
        <ele>173.2</ele>
        <time>2026-01-13T10:50:02Z</time>
      </trkpt>
      <trkpt lat="48.74295" lon="1.96236">
        <ele>173.2</ele>
        <time>2026-01-13T10:50:03Z</time>
      </trkpt>
      <trkpt lat="48.74296" lon="1.96233">
        <ele>173.2</ele>
        <time>2026-01-13T10:50:04Z</time>
      </trkpt>
      <trkpt lat="48.74296" lon="1.96229">
        <ele>173.2</ele>
        <time>2026-01-13T10:50:05Z</time>
      </trkpt>
      <trkpt lat="48.74295" lon="1.96225">
        <ele>173.2</ele>
        <time>2026-01-13T10:50:06Z</time>
      </trkpt>
      <trkpt lat="48.74293" lon="1.96219">
        <ele>173</ele>
        <time>2026-01-13T10:50:07Z</time>
      </trkpt>
      <trkpt lat="48.74292" lon="1.96214">
        <ele>172.4</ele>
        <time>2026-01-13T10:50:08Z</time>
      </trkpt>
      <trkpt lat="48.74292" lon="1.96208">
        <ele>172.4</ele>
        <time>2026-01-13T10:50:09Z</time>
      </trkpt>
      <trkpt lat="48.74292" lon="1.96201">
        <ele>172.4</ele>
        <time>2026-01-13T10:50:10Z</time>
      </trkpt>
      <trkpt lat="48.74292" lon="1.96195">
        <ele>173</ele>
        <time>2026-01-13T10:50:11Z</time>
      </trkpt>
      <trkpt lat="48.74293" lon="1.96187">
        <ele>173</ele>
        <time>2026-01-13T10:50:12Z</time>
      </trkpt>
      <trkpt lat="48.74294" lon="1.9618">
        <ele>173</ele>
        <time>2026-01-13T10:50:13Z</time>
      </trkpt>
      <trkpt lat="48.74296" lon="1.96172">
        <ele>172.8</ele>
        <time>2026-01-13T10:50:14Z</time>
      </trkpt>
      <trkpt lat="48.74298" lon="1.96165">
        <ele>172.8</ele>
        <time>2026-01-13T10:50:15Z</time>
      </trkpt>
      <trkpt lat="48.74299" lon="1.96157">
        <ele>172.8</ele>
        <time>2026-01-13T10:50:16Z</time>
      </trkpt>
      <trkpt lat="48.743" lon="1.96149">
        <ele>172.8</ele>
        <time>2026-01-13T10:50:17Z</time>
      </trkpt>
      <trkpt lat="48.74301" lon="1.96142">
        <ele>172.8</ele>
        <time>2026-01-13T10:50:18Z</time>
      </trkpt>
      <trkpt lat="48.74303" lon="1.96134">
        <ele>172.8</ele>
        <time>2026-01-13T10:50:19Z</time>
      </trkpt>
      <trkpt lat="48.74304" lon="1.96127">
        <ele>172.8</ele>
        <time>2026-01-13T10:50:20Z</time>
      </trkpt>
      <trkpt lat="48.74306" lon="1.96119">
        <ele>172.8</ele>
        <time>2026-01-13T10:50:21Z</time>
      </trkpt>
      <trkpt lat="48.74308" lon="1.96112">
        <ele>173.6</ele>
        <time>2026-01-13T10:50:22Z</time>
      </trkpt>
      <trkpt lat="48.7431" lon="1.96104">
        <ele>173.6</ele>
        <time>2026-01-13T10:50:23Z</time>
      </trkpt>
      <trkpt lat="48.74312" lon="1.96096">
        <ele>173.6</ele>
        <time>2026-01-13T10:50:24Z</time>
      </trkpt>
      <trkpt lat="48.74314" lon="1.96089">
        <ele>173.6</ele>
        <time>2026-01-13T10:50:25Z</time>
      </trkpt>
      <trkpt lat="48.74316" lon="1.96081">
        <ele>172.6</ele>
        <time>2026-01-13T10:50:26Z</time>
      </trkpt>
      <trkpt lat="48.74317" lon="1.96073">
        <ele>172.6</ele>
        <time>2026-01-13T10:50:27Z</time>
      </trkpt>
      <trkpt lat="48.74319" lon="1.96065">
        <ele>172.6</ele>
        <time>2026-01-13T10:50:28Z</time>
      </trkpt>
      <trkpt lat="48.74321" lon="1.96057">
        <ele>173</ele>
        <time>2026-01-13T10:50:29Z</time>
      </trkpt>
      <trkpt lat="48.74323" lon="1.9605">
        <ele>173</ele>
        <time>2026-01-13T10:50:30Z</time>
      </trkpt>
      <trkpt lat="48.74326" lon="1.96043">
        <ele>173.2</ele>
        <time>2026-01-13T10:50:31Z</time>
      </trkpt>
      <trkpt lat="48.74329" lon="1.96036">
        <ele>173.6</ele>
        <time>2026-01-13T10:50:32Z</time>
      </trkpt>
      <trkpt lat="48.74332" lon="1.96029">
        <ele>174</ele>
        <time>2026-01-13T10:50:33Z</time>
      </trkpt>
      <trkpt lat="48.74335" lon="1.96022">
        <ele>174</ele>
        <time>2026-01-13T10:50:34Z</time>
      </trkpt>
      <trkpt lat="48.74338" lon="1.96015">
        <ele>174</ele>
        <time>2026-01-13T10:50:35Z</time>
      </trkpt>
      <trkpt lat="48.74342" lon="1.96009">
        <ele>173</ele>
        <time>2026-01-13T10:50:36Z</time>
      </trkpt>
      <trkpt lat="48.74345" lon="1.96002">
        <ele>173</ele>
        <time>2026-01-13T10:50:37Z</time>
      </trkpt>
      <trkpt lat="48.74348" lon="1.95996">
        <ele>173</ele>
        <time>2026-01-13T10:50:38Z</time>
      </trkpt>
      <trkpt lat="48.74351" lon="1.95988">
        <ele>173</ele>
        <time>2026-01-13T10:50:39Z</time>
      </trkpt>
      <trkpt lat="48.74354" lon="1.95981">
        <ele>173</ele>
        <time>2026-01-13T10:50:40Z</time>
      </trkpt>
      <trkpt lat="48.74357" lon="1.95974">
        <ele>174</ele>
        <time>2026-01-13T10:50:41Z</time>
      </trkpt>
      <trkpt lat="48.7436" lon="1.95967">
        <ele>174.6</ele>
        <time>2026-01-13T10:50:42Z</time>
      </trkpt>
      <trkpt lat="48.74363" lon="1.9596">
        <ele>174.6</ele>
        <time>2026-01-13T10:50:43Z</time>
      </trkpt>
      <trkpt lat="48.74366" lon="1.95953">
        <ele>174.6</ele>
        <time>2026-01-13T10:50:44Z</time>
      </trkpt>
      <trkpt lat="48.74369" lon="1.95945">
        <ele>174.6</ele>
        <time>2026-01-13T10:50:45Z</time>
      </trkpt>
      <trkpt lat="48.74372" lon="1.95938">
        <ele>174.8</ele>
        <time>2026-01-13T10:50:46Z</time>
      </trkpt>
      <trkpt lat="48.74375" lon="1.95931">
        <ele>175.2</ele>
        <time>2026-01-13T10:50:47Z</time>
      </trkpt>
      <trkpt lat="48.74378" lon="1.95924">
        <ele>175.2</ele>
        <time>2026-01-13T10:50:48Z</time>
      </trkpt>
      <trkpt lat="48.74381" lon="1.95917">
        <ele>175.2</ele>
        <time>2026-01-13T10:50:49Z</time>
      </trkpt>
      <trkpt lat="48.74384" lon="1.9591">
        <ele>175.2</ele>
        <time>2026-01-13T10:50:50Z</time>
      </trkpt>
      <trkpt lat="48.74387" lon="1.95903">
        <ele>175.2</ele>
        <time>2026-01-13T10:50:51Z</time>
      </trkpt>
      <trkpt lat="48.74391" lon="1.95896">
        <ele>175.2</ele>
        <time>2026-01-13T10:50:52Z</time>
      </trkpt>
      <trkpt lat="48.74394" lon="1.95889">
        <ele>175.8</ele>
        <time>2026-01-13T10:50:53Z</time>
      </trkpt>
      <trkpt lat="48.74398" lon="1.95882">
        <ele>175.8</ele>
        <time>2026-01-13T10:50:54Z</time>
      </trkpt>
      <trkpt lat="48.74401" lon="1.95875">
        <ele>175.8</ele>
        <time>2026-01-13T10:50:55Z</time>
      </trkpt>
      <trkpt lat="48.74405" lon="1.95868">
        <ele>175.2</ele>
        <time>2026-01-13T10:50:56Z</time>
      </trkpt>
      <trkpt lat="48.74408" lon="1.95861">
        <ele>174.6</ele>
        <time>2026-01-13T10:50:57Z</time>
      </trkpt>
      <trkpt lat="48.74412" lon="1.95853">
        <ele>174.6</ele>
        <time>2026-01-13T10:50:58Z</time>
      </trkpt>
      <trkpt lat="48.74415" lon="1.95845">
        <ele>174.6</ele>
        <time>2026-01-13T10:50:59Z</time>
      </trkpt>
      <trkpt lat="48.74418" lon="1.95838">
        <ele>174.8</ele>
        <time>2026-01-13T10:51:00Z</time>
      </trkpt>
      <trkpt lat="48.74422" lon="1.9583">
        <ele>174.8</ele>
        <time>2026-01-13T10:51:01Z</time>
      </trkpt>
      <trkpt lat="48.74425" lon="1.95822">
        <ele>174.8</ele>
        <time>2026-01-13T10:51:02Z</time>
      </trkpt>
      <trkpt lat="48.74429" lon="1.95815">
        <ele>174.8</ele>
        <time>2026-01-13T10:51:03Z</time>
      </trkpt>
      <trkpt lat="48.74433" lon="1.95806">
        <ele>175.2</ele>
        <time>2026-01-13T10:51:04Z</time>
      </trkpt>
      <trkpt lat="48.74436" lon="1.95798">
        <ele>175.2</ele>
        <time>2026-01-13T10:51:05Z</time>
      </trkpt>
      <trkpt lat="48.7444" lon="1.95791">
        <ele>175.2</ele>
        <time>2026-01-13T10:51:06Z</time>
      </trkpt>
      <trkpt lat="48.74444" lon="1.95782">
        <ele>174.2</ele>
        <time>2026-01-13T10:51:07Z</time>
      </trkpt>
      <trkpt lat="48.74447" lon="1.95774">
        <ele>173.2</ele>
        <time>2026-01-13T10:51:08Z</time>
      </trkpt>
      <trkpt lat="48.74451" lon="1.95766">
        <ele>173.2</ele>
        <time>2026-01-13T10:51:09Z</time>
      </trkpt>
      <trkpt lat="48.74454" lon="1.95757">
        <ele>173.2</ele>
        <time>2026-01-13T10:51:10Z</time>
      </trkpt>
      <trkpt lat="48.74458" lon="1.95749">
        <ele>174.2</ele>
        <time>2026-01-13T10:51:11Z</time>
      </trkpt>
      <trkpt lat="48.74462" lon="1.95741">
        <ele>174.2</ele>
        <time>2026-01-13T10:51:12Z</time>
      </trkpt>
      <trkpt lat="48.74466" lon="1.95733">
        <ele>174.4</ele>
        <time>2026-01-13T10:51:13Z</time>
      </trkpt>
      <trkpt lat="48.7447" lon="1.95725">
        <ele>174.4</ele>
        <time>2026-01-13T10:51:14Z</time>
      </trkpt>
      <trkpt lat="48.74474" lon="1.95717">
        <ele>174.4</ele>
        <time>2026-01-13T10:51:15Z</time>
      </trkpt>
      <trkpt lat="48.74478" lon="1.95709">
        <ele>174.2</ele>
        <time>2026-01-13T10:51:16Z</time>
      </trkpt>
      <trkpt lat="48.74483" lon="1.95701">
        <ele>174.2</ele>
        <time>2026-01-13T10:51:17Z</time>
      </trkpt>
      <trkpt lat="48.74488" lon="1.95694">
        <ele>174.2</ele>
        <time>2026-01-13T10:51:18Z</time>
      </trkpt>
      <trkpt lat="48.74491" lon="1.95685">
        <ele>174.2</ele>
        <time>2026-01-13T10:51:19Z</time>
      </trkpt>
      <trkpt lat="48.74494" lon="1.95675">
        <ele>173.2</ele>
        <time>2026-01-13T10:51:20Z</time>
      </trkpt>
      <trkpt lat="48.74497" lon="1.95665">
        <ele>173.2</ele>
        <time>2026-01-13T10:51:21Z</time>
      </trkpt>
      <trkpt lat="48.745" lon="1.95656">
        <ele>172.8</ele>
        <time>2026-01-13T10:51:22Z</time>
      </trkpt>
      <trkpt lat="48.74503" lon="1.95647">
        <ele>172.8</ele>
        <time>2026-01-13T10:51:23Z</time>
      </trkpt>
      <trkpt lat="48.74507" lon="1.95638">
        <ele>172.8</ele>
        <time>2026-01-13T10:51:24Z</time>
      </trkpt>
      <trkpt lat="48.7451" lon="1.95629">
        <ele>173.4</ele>
        <time>2026-01-13T10:51:25Z</time>
      </trkpt>
      <trkpt lat="48.74514" lon="1.9562">
        <ele>174</ele>
        <time>2026-01-13T10:51:26Z</time>
      </trkpt>
      <trkpt lat="48.74518" lon="1.95612">
        <ele>174</ele>
        <time>2026-01-13T10:51:27Z</time>
      </trkpt>
      <trkpt lat="48.74521" lon="1.95603">
        <ele>174.2</ele>
        <time>2026-01-13T10:51:28Z</time>
      </trkpt>
      <trkpt lat="48.74525" lon="1.95594">
        <ele>174.2</ele>
        <time>2026-01-13T10:51:29Z</time>
      </trkpt>
      <trkpt lat="48.74529" lon="1.95586">
        <ele>174.2</ele>
        <time>2026-01-13T10:51:30Z</time>
      </trkpt>
      <trkpt lat="48.74534" lon="1.95577">
        <ele>174.2</ele>
        <time>2026-01-13T10:51:31Z</time>
      </trkpt>
      <trkpt lat="48.74538" lon="1.95569">
        <ele>174.2</ele>
        <time>2026-01-13T10:51:32Z</time>
      </trkpt>
      <trkpt lat="48.74542" lon="1.9556">
        <ele>174.2</ele>
        <time>2026-01-13T10:51:33Z</time>
      </trkpt>
      <trkpt lat="48.74546" lon="1.95551">
        <ele>174.2</ele>
        <time>2026-01-13T10:51:34Z</time>
      </trkpt>
      <trkpt lat="48.7455" lon="1.95542">
        <ele>174.2</ele>
        <time>2026-01-13T10:51:35Z</time>
      </trkpt>
      <trkpt lat="48.74554" lon="1.95534">
        <ele>174.2</ele>
        <time>2026-01-13T10:51:36Z</time>
      </trkpt>
      <trkpt lat="48.74557" lon="1.95525">
        <ele>174.2</ele>
        <time>2026-01-13T10:51:37Z</time>
      </trkpt>
      <trkpt lat="48.74561" lon="1.95516">
        <ele>174.2</ele>
        <time>2026-01-13T10:51:38Z</time>
      </trkpt>
      <trkpt lat="48.74565" lon="1.95507">
        <ele>174.2</ele>
        <time>2026-01-13T10:51:39Z</time>
      </trkpt>
      <trkpt lat="48.74569" lon="1.95499">
        <ele>174.2</ele>
        <time>2026-01-13T10:51:40Z</time>
      </trkpt>
      <trkpt lat="48.74573" lon="1.9549">
        <ele>173.4</ele>
        <time>2026-01-13T10:51:41Z</time>
      </trkpt>
      <trkpt lat="48.74577" lon="1.95481">
        <ele>173.4</ele>
        <time>2026-01-13T10:51:42Z</time>
      </trkpt>
      <trkpt lat="48.7458" lon="1.95472">
        <ele>173.4</ele>
        <time>2026-01-13T10:51:43Z</time>
      </trkpt>
      <trkpt lat="48.74584" lon="1.95464">
        <ele>174.4</ele>
        <time>2026-01-13T10:51:44Z</time>
      </trkpt>
      <trkpt lat="48.74588" lon="1.95455">
        <ele>174.8</ele>
        <time>2026-01-13T10:51:45Z</time>
      </trkpt>
      <trkpt lat="48.74592" lon="1.95446">
        <ele>174.8</ele>
        <time>2026-01-13T10:51:46Z</time>
      </trkpt>
      <trkpt lat="48.74595" lon="1.95438">
        <ele>174.8</ele>
        <time>2026-01-13T10:51:47Z</time>
      </trkpt>
      <trkpt lat="48.74599" lon="1.95429">
        <ele>174.8</ele>
        <time>2026-01-13T10:51:48Z</time>
      </trkpt>
      <trkpt lat="48.74603" lon="1.9542">
        <ele>174.8</ele>
        <time>2026-01-13T10:51:49Z</time>
      </trkpt>
      <trkpt lat="48.74606" lon="1.95412">
        <ele>174.8</ele>
        <time>2026-01-13T10:51:50Z</time>
      </trkpt>
      <trkpt lat="48.7461" lon="1.95403">
        <ele>175.4</ele>
        <time>2026-01-13T10:51:51Z</time>
      </trkpt>
      <trkpt lat="48.74614" lon="1.95395">
        <ele>175.4</ele>
        <time>2026-01-13T10:51:52Z</time>
      </trkpt>
      <trkpt lat="48.74617" lon="1.95386">
        <ele>175.4</ele>
        <time>2026-01-13T10:51:53Z</time>
      </trkpt>
      <trkpt lat="48.74621" lon="1.95378">
        <ele>175.4</ele>
        <time>2026-01-13T10:51:54Z</time>
      </trkpt>
      <trkpt lat="48.74625" lon="1.9537">
        <ele>175.4</ele>
        <time>2026-01-13T10:51:55Z</time>
      </trkpt>
      <trkpt lat="48.74629" lon="1.95362">
        <ele>175.4</ele>
        <time>2026-01-13T10:51:56Z</time>
      </trkpt>
      <trkpt lat="48.74632" lon="1.95353">
        <ele>176.4</ele>
        <time>2026-01-13T10:51:57Z</time>
      </trkpt>
      <trkpt lat="48.74636" lon="1.95345">
        <ele>176.4</ele>
        <time>2026-01-13T10:51:58Z</time>
      </trkpt>
      <trkpt lat="48.7464" lon="1.95336">
        <ele>176.4</ele>
        <time>2026-01-13T10:51:59Z</time>
      </trkpt>
      <trkpt lat="48.74644" lon="1.95328">
        <ele>175.8</ele>
        <time>2026-01-13T10:52:00Z</time>
      </trkpt>
      <trkpt lat="48.74647" lon="1.95319">
        <ele>175.4</ele>
        <time>2026-01-13T10:52:01Z</time>
      </trkpt>
      <trkpt lat="48.74651" lon="1.95311">
        <ele>175.4</ele>
        <time>2026-01-13T10:52:02Z</time>
      </trkpt>
      <trkpt lat="48.74655" lon="1.95302">
        <ele>175.4</ele>
        <time>2026-01-13T10:52:03Z</time>
      </trkpt>
      <trkpt lat="48.74659" lon="1.95294">
        <ele>175.4</ele>
        <time>2026-01-13T10:52:04Z</time>
      </trkpt>
      <trkpt lat="48.74662" lon="1.95285">
        <ele>175.8</ele>
        <time>2026-01-13T10:52:05Z</time>
      </trkpt>
      <trkpt lat="48.74666" lon="1.95277">
        <ele>176.4</ele>
        <time>2026-01-13T10:52:06Z</time>
      </trkpt>
      <trkpt lat="48.7467" lon="1.95269">
        <ele>176.4</ele>
        <time>2026-01-13T10:52:07Z</time>
      </trkpt>
      <trkpt lat="48.74673" lon="1.9526">
        <ele>176.4</ele>
        <time>2026-01-13T10:52:08Z</time>
      </trkpt>
      <trkpt lat="48.74677" lon="1.95252">
        <ele>175.4</ele>
        <time>2026-01-13T10:52:09Z</time>
      </trkpt>
      <trkpt lat="48.74681" lon="1.95243">
        <ele>175</ele>
        <time>2026-01-13T10:52:10Z</time>
      </trkpt>
      <trkpt lat="48.74684" lon="1.95235">
        <ele>175</ele>
        <time>2026-01-13T10:52:11Z</time>
      </trkpt>
      <trkpt lat="48.74687" lon="1.95226">
        <ele>175</ele>
        <time>2026-01-13T10:52:12Z</time>
      </trkpt>
      <trkpt lat="48.7469" lon="1.95218">
        <ele>175</ele>
        <time>2026-01-13T10:52:13Z</time>
      </trkpt>
      <trkpt lat="48.74693" lon="1.95209">
        <ele>175</ele>
        <time>2026-01-13T10:52:14Z</time>
      </trkpt>
      <trkpt lat="48.74697" lon="1.95202">
        <ele>175.6</ele>
        <time>2026-01-13T10:52:15Z</time>
      </trkpt>
      <trkpt lat="48.74701" lon="1.95195">
        <ele>176.2</ele>
        <time>2026-01-13T10:52:16Z</time>
      </trkpt>
      <trkpt lat="48.74705" lon="1.95188">
        <ele>176.8</ele>
        <time>2026-01-13T10:52:17Z</time>
      </trkpt>
      <trkpt lat="48.74709" lon="1.95181">
        <ele>176.8</ele>
        <time>2026-01-13T10:52:18Z</time>
      </trkpt>
      <trkpt lat="48.7471" lon="1.95173">
        <ele>176.8</ele>
        <time>2026-01-13T10:52:19Z</time>
      </trkpt>
      <trkpt lat="48.74709" lon="1.95164">
        <ele>176.8</ele>
        <time>2026-01-13T10:52:20Z</time>
      </trkpt>
      <trkpt lat="48.74706" lon="1.95158">
        <ele>176.8</ele>
        <time>2026-01-13T10:52:21Z</time>
      </trkpt>
      <trkpt lat="48.74702" lon="1.95154">
        <ele>176.4</ele>
        <time>2026-01-13T10:52:22Z</time>
      </trkpt>
      <trkpt lat="48.74696" lon="1.95153">
        <ele>176</ele>
        <time>2026-01-13T10:52:23Z</time>
      </trkpt>
      <trkpt lat="48.74691" lon="1.95154">
        <ele>176</ele>
        <time>2026-01-13T10:52:24Z</time>
      </trkpt>
      <trkpt lat="48.74686" lon="1.95156">
        <ele>176</ele>
        <time>2026-01-13T10:52:25Z</time>
      </trkpt>
      <trkpt lat="48.74681" lon="1.9516">
        <ele>176</ele>
        <time>2026-01-13T10:52:26Z</time>
      </trkpt>
      <trkpt lat="48.74678" lon="1.95164">
        <ele>176</ele>
        <time>2026-01-13T10:52:27Z</time>
      </trkpt>
      <trkpt lat="48.74674" lon="1.95167">
        <ele>177</ele>
        <time>2026-01-13T10:52:28Z</time>
      </trkpt>
      <trkpt lat="48.7467" lon="1.95165">
        <ele>177.6</ele>
        <time>2026-01-13T10:52:29Z</time>
      </trkpt>
      <trkpt lat="48.74666" lon="1.95163">
        <ele>177.6</ele>
        <time>2026-01-13T10:52:30Z</time>
      </trkpt>
      <trkpt lat="48.74662" lon="1.9516">
        <ele>177.6</ele>
        <time>2026-01-13T10:52:31Z</time>
      </trkpt>
      <trkpt lat="48.7466" lon="1.95158">
        <ele>177.2</ele>
        <time>2026-01-13T10:52:32Z</time>
      </trkpt>
      <trkpt lat="48.74655" lon="1.95155">
        <ele>177.2</ele>
        <time>2026-01-13T10:52:33Z</time>
      </trkpt>
      <trkpt lat="48.74651" lon="1.95152">
        <ele>177.2</ele>
        <time>2026-01-13T10:52:34Z</time>
      </trkpt>
      <trkpt lat="48.74647" lon="1.95149">
        <ele>177.4</ele>
        <time>2026-01-13T10:52:35Z</time>
      </trkpt>
      <trkpt lat="48.74643" lon="1.95146">
        <ele>177.4</ele>
        <time>2026-01-13T10:52:36Z</time>
      </trkpt>
      <trkpt lat="48.74638" lon="1.95145">
        <ele>177.4</ele>
        <time>2026-01-13T10:52:37Z</time>
      </trkpt>
      <trkpt lat="48.74633" lon="1.95144">
        <ele>177.4</ele>
        <time>2026-01-13T10:52:38Z</time>
      </trkpt>
      <trkpt lat="48.74629" lon="1.95141">
        <ele>177.4</ele>
        <time>2026-01-13T10:52:39Z</time>
      </trkpt>
      <trkpt lat="48.74625" lon="1.95138">
        <ele>177.4</ele>
        <time>2026-01-13T10:52:40Z</time>
      </trkpt>
      <trkpt lat="48.74623" lon="1.95134">
        <ele>178</ele>
        <time>2026-01-13T10:52:41Z</time>
      </trkpt>
      <trkpt lat="48.74621" lon="1.9513">
        <ele>179</ele>
        <time>2026-01-13T10:52:42Z</time>
      </trkpt>
      <trkpt lat="48.74617" lon="1.95127">
        <ele>179</ele>
        <time>2026-01-13T10:52:43Z</time>
      </trkpt>
      <trkpt lat="48.74612" lon="1.95124">
        <ele>179</ele>
        <time>2026-01-13T10:52:44Z</time>
      </trkpt>
      <trkpt lat="48.74608" lon="1.95121">
        <ele>178</ele>
        <time>2026-01-13T10:52:45Z</time>
      </trkpt>
      <trkpt lat="48.74604" lon="1.95118">
        <ele>178</ele>
        <time>2026-01-13T10:52:46Z</time>
      </trkpt>
      <trkpt lat="48.74599" lon="1.95115">
        <ele>178</ele>
        <time>2026-01-13T10:52:47Z</time>
      </trkpt>
      <trkpt lat="48.74594" lon="1.95111">
        <ele>178</ele>
        <time>2026-01-13T10:52:48Z</time>
      </trkpt>
      <trkpt lat="48.74589" lon="1.95108">
        <ele>178</ele>
        <time>2026-01-13T10:52:49Z</time>
      </trkpt>
      <trkpt lat="48.74585" lon="1.95104">
        <ele>177.8</ele>
        <time>2026-01-13T10:52:50Z</time>
      </trkpt>
      <trkpt lat="48.7458" lon="1.95101">
        <ele>177.8</ele>
        <time>2026-01-13T10:52:51Z</time>
      </trkpt>
      <trkpt lat="48.74575" lon="1.95097">
        <ele>177.8</ele>
        <time>2026-01-13T10:52:52Z</time>
      </trkpt>
      <trkpt lat="48.7457" lon="1.95093">
        <ele>177.8</ele>
        <time>2026-01-13T10:52:53Z</time>
      </trkpt>
      <trkpt lat="48.74565" lon="1.9509">
        <ele>177.8</ele>
        <time>2026-01-13T10:52:54Z</time>
      </trkpt>
      <trkpt lat="48.7456" lon="1.95087">
        <ele>177.8</ele>
        <time>2026-01-13T10:52:55Z</time>
      </trkpt>
      <trkpt lat="48.74555" lon="1.95084">
        <ele>177.8</ele>
        <time>2026-01-13T10:52:56Z</time>
      </trkpt>
      <trkpt lat="48.74551" lon="1.9508">
        <ele>177.8</ele>
        <time>2026-01-13T10:52:57Z</time>
      </trkpt>
      <trkpt lat="48.74546" lon="1.95076">
        <ele>177.4</ele>
        <time>2026-01-13T10:52:58Z</time>
      </trkpt>
      <trkpt lat="48.74541" lon="1.95073">
        <ele>177.2</ele>
        <time>2026-01-13T10:52:59Z</time>
      </trkpt>
      <trkpt lat="48.74536" lon="1.95069">
        <ele>177.2</ele>
        <time>2026-01-13T10:53:00Z</time>
      </trkpt>
      <trkpt lat="48.74532" lon="1.95067">
        <ele>177.2</ele>
        <time>2026-01-13T10:53:01Z</time>
      </trkpt>
      <trkpt lat="48.74527" lon="1.95066">
        <ele>178.2</ele>
        <time>2026-01-13T10:53:02Z</time>
      </trkpt>
      <trkpt lat="48.74523" lon="1.95068">
        <ele>178.2</ele>
        <time>2026-01-13T10:53:03Z</time>
      </trkpt>
      <trkpt lat="48.74518" lon="1.95068">
        <ele>178.2</ele>
        <time>2026-01-13T10:53:04Z</time>
      </trkpt>
      <trkpt lat="48.74514" lon="1.95064">
        <ele>178.2</ele>
        <time>2026-01-13T10:53:05Z</time>
      </trkpt>
      <trkpt lat="48.74509" lon="1.9506">
        <ele>178.2</ele>
        <time>2026-01-13T10:53:06Z</time>
      </trkpt>
      <trkpt lat="48.74505" lon="1.95055">
        <ele>177.6</ele>
        <time>2026-01-13T10:53:07Z</time>
      </trkpt>
      <trkpt lat="48.745" lon="1.95051">
        <ele>177.6</ele>
        <time>2026-01-13T10:53:08Z</time>
      </trkpt>
      <trkpt lat="48.74495" lon="1.95046">
        <ele>177.6</ele>
        <time>2026-01-13T10:53:09Z</time>
      </trkpt>
      <trkpt lat="48.7449" lon="1.95041">
        <ele>178.2</ele>
        <time>2026-01-13T10:53:10Z</time>
      </trkpt>
      <trkpt lat="48.74486" lon="1.95036">
        <ele>178.6</ele>
        <time>2026-01-13T10:53:11Z</time>
      </trkpt>
      <trkpt lat="48.74482" lon="1.95031">
        <ele>179</ele>
        <time>2026-01-13T10:53:12Z</time>
      </trkpt>
      <trkpt lat="48.74477" lon="1.95028">
        <ele>179.2</ele>
        <time>2026-01-13T10:53:13Z</time>
      </trkpt>
      <trkpt lat="48.74471" lon="1.95025">
        <ele>179.2</ele>
        <time>2026-01-13T10:53:14Z</time>
      </trkpt>
      <trkpt lat="48.74467" lon="1.95021">
        <ele>179.2</ele>
        <time>2026-01-13T10:53:15Z</time>
      </trkpt>
      <trkpt lat="48.74461" lon="1.95017">
        <ele>178.4</ele>
        <time>2026-01-13T10:53:16Z</time>
      </trkpt>
      <trkpt lat="48.74456" lon="1.95013">
        <ele>178.4</ele>
        <time>2026-01-13T10:53:17Z</time>
      </trkpt>
      <trkpt lat="48.74451" lon="1.95008">
        <ele>178.4</ele>
        <time>2026-01-13T10:53:18Z</time>
      </trkpt>
      <trkpt lat="48.74446" lon="1.95005">
        <ele>178.4</ele>
        <time>2026-01-13T10:53:19Z</time>
      </trkpt>
      <trkpt lat="48.74441" lon="1.95001">
        <ele>178.4</ele>
        <time>2026-01-13T10:53:20Z</time>
      </trkpt>
      <trkpt lat="48.74436" lon="1.94998">
        <ele>178.4</ele>
        <time>2026-01-13T10:53:21Z</time>
      </trkpt>
      <trkpt lat="48.74431" lon="1.94995">
        <ele>178.4</ele>
        <time>2026-01-13T10:53:22Z</time>
      </trkpt>
      <trkpt lat="48.74426" lon="1.94991">
        <ele>178.4</ele>
        <time>2026-01-13T10:53:23Z</time>
      </trkpt>
      <trkpt lat="48.74422" lon="1.94986">
        <ele>178.4</ele>
        <time>2026-01-13T10:53:24Z</time>
      </trkpt>
      <trkpt lat="48.74419" lon="1.9498">
        <ele>177.8</ele>
        <time>2026-01-13T10:53:25Z</time>
      </trkpt>
      <trkpt lat="48.74415" lon="1.94974">
        <ele>177.6</ele>
        <time>2026-01-13T10:53:26Z</time>
      </trkpt>
      <trkpt lat="48.74411" lon="1.94968">
        <ele>177.4</ele>
        <time>2026-01-13T10:53:27Z</time>
      </trkpt>
      <trkpt lat="48.74406" lon="1.94963">
        <ele>177.4</ele>
        <time>2026-01-13T10:53:28Z</time>
      </trkpt>
      <trkpt lat="48.74402" lon="1.94958">
        <ele>177.4</ele>
        <time>2026-01-13T10:53:29Z</time>
      </trkpt>
      <trkpt lat="48.74397" lon="1.94953">
        <ele>178.4</ele>
        <time>2026-01-13T10:53:30Z</time>
      </trkpt>
      <trkpt lat="48.74394" lon="1.94947">
        <ele>178.4</ele>
        <time>2026-01-13T10:53:31Z</time>
      </trkpt>
      <trkpt lat="48.74394" lon="1.94939">
        <ele>178.4</ele>
        <time>2026-01-13T10:53:32Z</time>
      </trkpt>
      <trkpt lat="48.74395" lon="1.94931">
        <ele>177.8</ele>
        <time>2026-01-13T10:53:33Z</time>
      </trkpt>
      <trkpt lat="48.74397" lon="1.94924">
        <ele>177.8</ele>
        <time>2026-01-13T10:53:34Z</time>
      </trkpt>
      <trkpt lat="48.744" lon="1.94916">
        <ele>177.8</ele>
        <time>2026-01-13T10:53:35Z</time>
      </trkpt>
      <trkpt lat="48.74403" lon="1.94908">
        <ele>177.8</ele>
        <time>2026-01-13T10:53:36Z</time>
      </trkpt>
      <trkpt lat="48.74405" lon="1.949">
        <ele>178</ele>
        <time>2026-01-13T10:53:37Z</time>
      </trkpt>
      <trkpt lat="48.74408" lon="1.94891">
        <ele>178</ele>
        <time>2026-01-13T10:53:38Z</time>
      </trkpt>
      <trkpt lat="48.74411" lon="1.94883">
        <ele>178</ele>
        <time>2026-01-13T10:53:39Z</time>
      </trkpt>
      <trkpt lat="48.74414" lon="1.94875">
        <ele>178</ele>
        <time>2026-01-13T10:53:40Z</time>
      </trkpt>
      <trkpt lat="48.74416" lon="1.94866">
        <ele>178</ele>
        <time>2026-01-13T10:53:41Z</time>
      </trkpt>
      <trkpt lat="48.74419" lon="1.94857">
        <ele>178</ele>
        <time>2026-01-13T10:53:42Z</time>
      </trkpt>
      <trkpt lat="48.74421" lon="1.94847">
        <ele>178</ele>
        <time>2026-01-13T10:53:43Z</time>
      </trkpt>
      <trkpt lat="48.74424" lon="1.94838">
        <ele>177.6</ele>
        <time>2026-01-13T10:53:44Z</time>
      </trkpt>
      <trkpt lat="48.74426" lon="1.94828">
        <ele>177.6</ele>
        <time>2026-01-13T10:53:45Z</time>
      </trkpt>
      <trkpt lat="48.74429" lon="1.94819">
        <ele>177.6</ele>
        <time>2026-01-13T10:53:46Z</time>
      </trkpt>
      <trkpt lat="48.74431" lon="1.9481">
        <ele>177.6</ele>
        <time>2026-01-13T10:53:47Z</time>
      </trkpt>
      <trkpt lat="48.74433" lon="1.948">
        <ele>177.6</ele>
        <time>2026-01-13T10:53:48Z</time>
      </trkpt>
      <trkpt lat="48.74436" lon="1.9479">
        <ele>177.6</ele>
        <time>2026-01-13T10:53:49Z</time>
      </trkpt>
      <trkpt lat="48.74438" lon="1.94781">
        <ele>177.6</ele>
        <time>2026-01-13T10:53:50Z</time>
      </trkpt>
      <trkpt lat="48.7444" lon="1.94771">
        <ele>177.6</ele>
        <time>2026-01-13T10:53:51Z</time>
      </trkpt>
      <trkpt lat="48.74443" lon="1.94761">
        <ele>176.6</ele>
        <time>2026-01-13T10:53:52Z</time>
      </trkpt>
      <trkpt lat="48.74445" lon="1.94751">
        <ele>176.6</ele>
        <time>2026-01-13T10:53:53Z</time>
      </trkpt>
      <trkpt lat="48.74447" lon="1.9474">
        <ele>176.6</ele>
        <time>2026-01-13T10:53:54Z</time>
      </trkpt>
      <trkpt lat="48.74449" lon="1.9473">
        <ele>176.6</ele>
        <time>2026-01-13T10:53:55Z</time>
      </trkpt>
      <trkpt lat="48.74451" lon="1.9472">
        <ele>176.6</ele>
        <time>2026-01-13T10:53:56Z</time>
      </trkpt>
      <trkpt lat="48.74452" lon="1.94709">
        <ele>176.6</ele>
        <time>2026-01-13T10:53:57Z</time>
      </trkpt>
      <trkpt lat="48.74454" lon="1.94698">
        <ele>176.4</ele>
        <time>2026-01-13T10:53:58Z</time>
      </trkpt>
      <trkpt lat="48.74456" lon="1.94688">
        <ele>175.6</ele>
        <time>2026-01-13T10:53:59Z</time>
      </trkpt>
      <trkpt lat="48.74458" lon="1.94677">
        <ele>175.6</ele>
        <time>2026-01-13T10:54:00Z</time>
      </trkpt>
      <trkpt lat="48.74459" lon="1.94666">
        <ele>175.6</ele>
        <time>2026-01-13T10:54:01Z</time>
      </trkpt>
      <trkpt lat="48.74461" lon="1.94655">
        <ele>175.6</ele>
        <time>2026-01-13T10:54:02Z</time>
      </trkpt>
      <trkpt lat="48.74463" lon="1.94645">
        <ele>175.6</ele>
        <time>2026-01-13T10:54:03Z</time>
      </trkpt>
      <trkpt lat="48.74466" lon="1.94636">
        <ele>176.2</ele>
        <time>2026-01-13T10:54:04Z</time>
      </trkpt>
      <trkpt lat="48.74469" lon="1.94627">
        <ele>176.6</ele>
        <time>2026-01-13T10:54:05Z</time>
      </trkpt>
      <trkpt lat="48.74472" lon="1.94617">
        <ele>177</ele>
        <time>2026-01-13T10:54:06Z</time>
      </trkpt>
      <trkpt lat="48.74474" lon="1.94607">
        <ele>177</ele>
        <time>2026-01-13T10:54:07Z</time>
      </trkpt>
      <trkpt lat="48.74475" lon="1.94597">
        <ele>177</ele>
        <time>2026-01-13T10:54:08Z</time>
      </trkpt>
      <trkpt lat="48.74477" lon="1.94586">
        <ele>176.4</ele>
        <time>2026-01-13T10:54:09Z</time>
      </trkpt>
      <trkpt lat="48.74478" lon="1.94574">
        <ele>175.8</ele>
        <time>2026-01-13T10:54:10Z</time>
      </trkpt>
      <trkpt lat="48.7448" lon="1.94563">
        <ele>175.6</ele>
        <time>2026-01-13T10:54:11Z</time>
      </trkpt>
      <trkpt lat="48.74482" lon="1.94552">
        <ele>175.6</ele>
        <time>2026-01-13T10:54:12Z</time>
      </trkpt>
      <trkpt lat="48.74485" lon="1.94541">
        <ele>175.6</ele>
        <time>2026-01-13T10:54:13Z</time>
      </trkpt>
      <trkpt lat="48.74487" lon="1.9453">
        <ele>175.6</ele>
        <time>2026-01-13T10:54:14Z</time>
      </trkpt>
      <trkpt lat="48.74489" lon="1.94518">
        <ele>175</ele>
        <time>2026-01-13T10:54:15Z</time>
      </trkpt>
      <trkpt lat="48.74491" lon="1.94507">
        <ele>175</ele>
        <time>2026-01-13T10:54:16Z</time>
      </trkpt>
      <trkpt lat="48.74494" lon="1.94496">
        <ele>175</ele>
        <time>2026-01-13T10:54:17Z</time>
      </trkpt>
      <trkpt lat="48.74496" lon="1.94485">
        <ele>175</ele>
        <time>2026-01-13T10:54:18Z</time>
      </trkpt>
      <trkpt lat="48.74498" lon="1.94473">
        <ele>174.2</ele>
        <time>2026-01-13T10:54:19Z</time>
      </trkpt>
      <trkpt lat="48.745" lon="1.94462">
        <ele>174</ele>
        <time>2026-01-13T10:54:20Z</time>
      </trkpt>
      <trkpt lat="48.74502" lon="1.94451">
        <ele>174</ele>
        <time>2026-01-13T10:54:21Z</time>
      </trkpt>
      <trkpt lat="48.74504" lon="1.94439">
        <ele>174</ele>
        <time>2026-01-13T10:54:22Z</time>
      </trkpt>
      <trkpt lat="48.74506" lon="1.94429">
        <ele>174</ele>
        <time>2026-01-13T10:54:23Z</time>
      </trkpt>
      <trkpt lat="48.74509" lon="1.94418">
        <ele>174</ele>
        <time>2026-01-13T10:54:24Z</time>
      </trkpt>
      <trkpt lat="48.74511" lon="1.94407">
        <ele>174</ele>
        <time>2026-01-13T10:54:25Z</time>
      </trkpt>
      <trkpt lat="48.74513" lon="1.94396">
        <ele>174</ele>
        <time>2026-01-13T10:54:26Z</time>
      </trkpt>
      <trkpt lat="48.74516" lon="1.94385">
        <ele>174</ele>
        <time>2026-01-13T10:54:27Z</time>
      </trkpt>
      <trkpt lat="48.74519" lon="1.94374">
        <ele>174</ele>
        <time>2026-01-13T10:54:28Z</time>
      </trkpt>
      <trkpt lat="48.74521" lon="1.94363">
        <ele>174</ele>
        <time>2026-01-13T10:54:29Z</time>
      </trkpt>
      <trkpt lat="48.74524" lon="1.94353">
        <ele>174</ele>
        <time>2026-01-13T10:54:30Z</time>
      </trkpt>
      <trkpt lat="48.74526" lon="1.94344">
        <ele>175</ele>
        <time>2026-01-13T10:54:31Z</time>
      </trkpt>
      <trkpt lat="48.74528" lon="1.94335">
        <ele>175.6</ele>
        <time>2026-01-13T10:54:32Z</time>
      </trkpt>
      <trkpt lat="48.74529" lon="1.94329">
        <ele>175.8</ele>
        <time>2026-01-13T10:54:33Z</time>
      </trkpt>
      <trkpt lat="48.7453" lon="1.94323">
        <ele>176</ele>
        <time>2026-01-13T10:54:34Z</time>
      </trkpt>
      <trkpt lat="48.74532" lon="1.94318">
        <ele>176.8</ele>
        <time>2026-01-13T10:54:35Z</time>
      </trkpt>
      <trkpt lat="48.74534" lon="1.94313">
        <ele>176.8</ele>
        <time>2026-01-13T10:54:36Z</time>
      </trkpt>
      <trkpt lat="48.74537" lon="1.94309">
        <ele>176.8</ele>
        <time>2026-01-13T10:54:37Z</time>
      </trkpt>
      <trkpt lat="48.74538" lon="1.94302">
        <ele>175.8</ele>
        <time>2026-01-13T10:54:38Z</time>
      </trkpt>
      <trkpt lat="48.74538" lon="1.94295">
        <ele>175.2</ele>
        <time>2026-01-13T10:54:39Z</time>
      </trkpt>
      <trkpt lat="48.74538" lon="1.94287">
        <ele>174.6</ele>
        <time>2026-01-13T10:54:40Z</time>
      </trkpt>
      <trkpt lat="48.74538" lon="1.94278">
        <ele>174.6</ele>
        <time>2026-01-13T10:54:41Z</time>
      </trkpt>
      <trkpt lat="48.74539" lon="1.94268">
        <ele>174.6</ele>
        <time>2026-01-13T10:54:42Z</time>
      </trkpt>
      <trkpt lat="48.7454" lon="1.94259">
        <ele>174.6</ele>
        <time>2026-01-13T10:54:43Z</time>
      </trkpt>
      <trkpt lat="48.74541" lon="1.9425">
        <ele>174.6</ele>
        <time>2026-01-13T10:54:44Z</time>
      </trkpt>
      <trkpt lat="48.74542" lon="1.9424">
        <ele>174.4</ele>
        <time>2026-01-13T10:54:45Z</time>
      </trkpt>
      <trkpt lat="48.74544" lon="1.9423">
        <ele>173.6</ele>
        <time>2026-01-13T10:54:46Z</time>
      </trkpt>
      <trkpt lat="48.74545" lon="1.94219">
        <ele>173.6</ele>
        <time>2026-01-13T10:54:47Z</time>
      </trkpt>
      <trkpt lat="48.74547" lon="1.94209">
        <ele>173.6</ele>
        <time>2026-01-13T10:54:48Z</time>
      </trkpt>
      <trkpt lat="48.74549" lon="1.94199">
        <ele>173.6</ele>
        <time>2026-01-13T10:54:49Z</time>
      </trkpt>
      <trkpt lat="48.74551" lon="1.94188">
        <ele>173.2</ele>
        <time>2026-01-13T10:54:50Z</time>
      </trkpt>
      <trkpt lat="48.74553" lon="1.94178">
        <ele>173</ele>
        <time>2026-01-13T10:54:51Z</time>
      </trkpt>
      <trkpt lat="48.74555" lon="1.94167">
        <ele>172.4</ele>
        <time>2026-01-13T10:54:52Z</time>
      </trkpt>
      <trkpt lat="48.74557" lon="1.94156">
        <ele>172.4</ele>
        <time>2026-01-13T10:54:53Z</time>
      </trkpt>
      <trkpt lat="48.7456" lon="1.94147">
        <ele>172.4</ele>
        <time>2026-01-13T10:54:54Z</time>
      </trkpt>
      <trkpt lat="48.74562" lon="1.94136">
        <ele>172.4</ele>
        <time>2026-01-13T10:54:55Z</time>
      </trkpt>
      <trkpt lat="48.74565" lon="1.94127">
        <ele>172.4</ele>
        <time>2026-01-13T10:54:56Z</time>
      </trkpt>
      <trkpt lat="48.74566" lon="1.94116">
        <ele>171.4</ele>
        <time>2026-01-13T10:54:57Z</time>
      </trkpt>
      <trkpt lat="48.74568" lon="1.94106">
        <ele>170.8</ele>
        <time>2026-01-13T10:54:58Z</time>
      </trkpt>
      <trkpt lat="48.7457" lon="1.94095">
        <ele>170.8</ele>
        <time>2026-01-13T10:54:59Z</time>
      </trkpt>
      <trkpt lat="48.74572" lon="1.94084">
        <ele>170.8</ele>
        <time>2026-01-13T10:55:00Z</time>
      </trkpt>
      <trkpt lat="48.74574" lon="1.94072">
        <ele>171.8</ele>
        <time>2026-01-13T10:55:01Z</time>
      </trkpt>
      <trkpt lat="48.74577" lon="1.94062">
        <ele>171.8</ele>
        <time>2026-01-13T10:55:02Z</time>
      </trkpt>
      <trkpt lat="48.74579" lon="1.94053">
        <ele>171.8</ele>
        <time>2026-01-13T10:55:03Z</time>
      </trkpt>
      <trkpt lat="48.74581" lon="1.94044">
        <ele>170.8</ele>
        <time>2026-01-13T10:55:04Z</time>
      </trkpt>
      <trkpt lat="48.74583" lon="1.94034">
        <ele>170.8</ele>
        <time>2026-01-13T10:55:05Z</time>
      </trkpt>
      <trkpt lat="48.74585" lon="1.94023">
        <ele>170.8</ele>
        <time>2026-01-13T10:55:06Z</time>
      </trkpt>
      <trkpt lat="48.74588" lon="1.94012">
        <ele>170.8</ele>
        <time>2026-01-13T10:55:07Z</time>
      </trkpt>
      <trkpt lat="48.74591" lon="1.94002">
        <ele>169.8</ele>
        <time>2026-01-13T10:55:08Z</time>
      </trkpt>
      <trkpt lat="48.74594" lon="1.93991">
        <ele>169.8</ele>
        <time>2026-01-13T10:55:09Z</time>
      </trkpt>
      <trkpt lat="48.74598" lon="1.9398">
        <ele>169.8</ele>
        <time>2026-01-13T10:55:10Z</time>
      </trkpt>
      <trkpt lat="48.74601" lon="1.93969">
        <ele>169.8</ele>
        <time>2026-01-13T10:55:11Z</time>
      </trkpt>
      <trkpt lat="48.74604" lon="1.93958">
        <ele>170.2</ele>
        <time>2026-01-13T10:55:12Z</time>
      </trkpt>
      <trkpt lat="48.74608" lon="1.93947">
        <ele>170.2</ele>
        <time>2026-01-13T10:55:13Z</time>
      </trkpt>
      <trkpt lat="48.74611" lon="1.93937">
        <ele>170.2</ele>
        <time>2026-01-13T10:55:14Z</time>
      </trkpt>
      <trkpt lat="48.74615" lon="1.93927">
        <ele>169.2</ele>
        <time>2026-01-13T10:55:15Z</time>
      </trkpt>
      <trkpt lat="48.74618" lon="1.93916">
        <ele>169.2</ele>
        <time>2026-01-13T10:55:16Z</time>
      </trkpt>
      <trkpt lat="48.74621" lon="1.93906">
        <ele>169.2</ele>
        <time>2026-01-13T10:55:17Z</time>
      </trkpt>
      <trkpt lat="48.74625" lon="1.93896">
        <ele>169.2</ele>
        <time>2026-01-13T10:55:18Z</time>
      </trkpt>
      <trkpt lat="48.74628" lon="1.93884">
        <ele>168.4</ele>
        <time>2026-01-13T10:55:19Z</time>
      </trkpt>
      <trkpt lat="48.74631" lon="1.93874">
        <ele>168.4</ele>
        <time>2026-01-13T10:55:20Z</time>
      </trkpt>
      <trkpt lat="48.74634" lon="1.93864">
        <ele>168.4</ele>
        <time>2026-01-13T10:55:21Z</time>
      </trkpt>
      <trkpt lat="48.74637" lon="1.93853">
        <ele>168.4</ele>
        <time>2026-01-13T10:55:22Z</time>
      </trkpt>
      <trkpt lat="48.74639" lon="1.93842">
        <ele>168.4</ele>
        <time>2026-01-13T10:55:23Z</time>
      </trkpt>
      <trkpt lat="48.74641" lon="1.93831">
        <ele>168.4</ele>
        <time>2026-01-13T10:55:24Z</time>
      </trkpt>
      <trkpt lat="48.74643" lon="1.9382">
        <ele>168.4</ele>
        <time>2026-01-13T10:55:25Z</time>
      </trkpt>
      <trkpt lat="48.74644" lon="1.93809">
        <ele>168.2</ele>
        <time>2026-01-13T10:55:26Z</time>
      </trkpt>
      <trkpt lat="48.74646" lon="1.93798">
        <ele>168.2</ele>
        <time>2026-01-13T10:55:27Z</time>
      </trkpt>
      <trkpt lat="48.74648" lon="1.93787">
        <ele>168.2</ele>
        <time>2026-01-13T10:55:28Z</time>
      </trkpt>
      <trkpt lat="48.7465" lon="1.93777">
        <ele>168.2</ele>
        <time>2026-01-13T10:55:29Z</time>
      </trkpt>
      <trkpt lat="48.74651" lon="1.93766">
        <ele>168.2</ele>
        <time>2026-01-13T10:55:30Z</time>
      </trkpt>
      <trkpt lat="48.74653" lon="1.93755">
        <ele>168</ele>
        <time>2026-01-13T10:55:31Z</time>
      </trkpt>
      <trkpt lat="48.74654" lon="1.93743">
        <ele>167.8</ele>
        <time>2026-01-13T10:55:32Z</time>
      </trkpt>
      <trkpt lat="48.74656" lon="1.93731">
        <ele>167.8</ele>
        <time>2026-01-13T10:55:33Z</time>
      </trkpt>
      <trkpt lat="48.74658" lon="1.93721">
        <ele>167.8</ele>
        <time>2026-01-13T10:55:34Z</time>
      </trkpt>
      <trkpt lat="48.74659" lon="1.93709">
        <ele>167.8</ele>
        <time>2026-01-13T10:55:35Z</time>
      </trkpt>
      <trkpt lat="48.74661" lon="1.93698">
        <ele>167.2</ele>
        <time>2026-01-13T10:55:36Z</time>
      </trkpt>
      <trkpt lat="48.74662" lon="1.93686">
        <ele>167.2</ele>
        <time>2026-01-13T10:55:37Z</time>
      </trkpt>
      <trkpt lat="48.74663" lon="1.93675">
        <ele>167.2</ele>
        <time>2026-01-13T10:55:38Z</time>
      </trkpt>
      <trkpt lat="48.74665" lon="1.93664">
        <ele>167.2</ele>
        <time>2026-01-13T10:55:39Z</time>
      </trkpt>
      <trkpt lat="48.74667" lon="1.93653">
        <ele>167.2</ele>
        <time>2026-01-13T10:55:40Z</time>
      </trkpt>
      <trkpt lat="48.74668" lon="1.93642">
        <ele>167.2</ele>
        <time>2026-01-13T10:55:41Z</time>
      </trkpt>
      <trkpt lat="48.74669" lon="1.93631">
        <ele>167.2</ele>
        <time>2026-01-13T10:55:42Z</time>
      </trkpt>
      <trkpt lat="48.74671" lon="1.9362">
        <ele>167.2</ele>
        <time>2026-01-13T10:55:43Z</time>
      </trkpt>
      <trkpt lat="48.74672" lon="1.93608">
        <ele>167.2</ele>
        <time>2026-01-13T10:55:44Z</time>
      </trkpt>
      <trkpt lat="48.74673" lon="1.93596">
        <ele>167.6</ele>
        <time>2026-01-13T10:55:45Z</time>
      </trkpt>
      <trkpt lat="48.74674" lon="1.93585">
        <ele>168</ele>
        <time>2026-01-13T10:55:46Z</time>
      </trkpt>
      <trkpt lat="48.74676" lon="1.93574">
        <ele>168</ele>
        <time>2026-01-13T10:55:47Z</time>
      </trkpt>
      <trkpt lat="48.74677" lon="1.93562">
        <ele>168</ele>
        <time>2026-01-13T10:55:48Z</time>
      </trkpt>
      <trkpt lat="48.74678" lon="1.9355">
        <ele>168</ele>
        <time>2026-01-13T10:55:49Z</time>
      </trkpt>
      <trkpt lat="48.74679" lon="1.93538">
        <ele>168.8</ele>
        <time>2026-01-13T10:55:50Z</time>
      </trkpt>
      <trkpt lat="48.7468" lon="1.93527">
        <ele>168.8</ele>
        <time>2026-01-13T10:55:51Z</time>
      </trkpt>
      <trkpt lat="48.74682" lon="1.93516">
        <ele>168.8</ele>
        <time>2026-01-13T10:55:52Z</time>
      </trkpt>
      <trkpt lat="48.74683" lon="1.93505">
        <ele>168.8</ele>
        <time>2026-01-13T10:55:53Z</time>
      </trkpt>
      <trkpt lat="48.74684" lon="1.93494">
        <ele>168.8</ele>
        <time>2026-01-13T10:55:54Z</time>
      </trkpt>
      <trkpt lat="48.74686" lon="1.93483">
        <ele>168.8</ele>
        <time>2026-01-13T10:55:55Z</time>
      </trkpt>
      <trkpt lat="48.74687" lon="1.93472">
        <ele>168.8</ele>
        <time>2026-01-13T10:55:56Z</time>
      </trkpt>
      <trkpt lat="48.74688" lon="1.93462">
        <ele>168.8</ele>
        <time>2026-01-13T10:55:57Z</time>
      </trkpt>
      <trkpt lat="48.7469" lon="1.93451">
        <ele>168.8</ele>
        <time>2026-01-13T10:55:58Z</time>
      </trkpt>
      <trkpt lat="48.74691" lon="1.93441">
        <ele>169.8</ele>
        <time>2026-01-13T10:55:59Z</time>
      </trkpt>
      <trkpt lat="48.74693" lon="1.93431">
        <ele>169.8</ele>
        <time>2026-01-13T10:56:00Z</time>
      </trkpt>
      <trkpt lat="48.74695" lon="1.93421">
        <ele>169.8</ele>
        <time>2026-01-13T10:56:01Z</time>
      </trkpt>
      <trkpt lat="48.74697" lon="1.93411">
        <ele>169.8</ele>
        <time>2026-01-13T10:56:02Z</time>
      </trkpt>
      <trkpt lat="48.747" lon="1.93401">
        <ele>169.8</ele>
        <time>2026-01-13T10:56:03Z</time>
      </trkpt>
      <trkpt lat="48.74702" lon="1.93392">
        <ele>169.8</ele>
        <time>2026-01-13T10:56:04Z</time>
      </trkpt>
      <trkpt lat="48.74704" lon="1.93383">
        <ele>169.8</ele>
        <time>2026-01-13T10:56:05Z</time>
      </trkpt>
      <trkpt lat="48.74706" lon="1.93374">
        <ele>170.8</ele>
        <time>2026-01-13T10:56:06Z</time>
      </trkpt>
      <trkpt lat="48.74709" lon="1.93366">
        <ele>170.8</ele>
        <time>2026-01-13T10:56:07Z</time>
      </trkpt>
      <trkpt lat="48.74712" lon="1.93358">
        <ele>170.8</ele>
        <time>2026-01-13T10:56:08Z</time>
      </trkpt>
      <trkpt lat="48.74714" lon="1.93351">
        <ele>170.8</ele>
        <time>2026-01-13T10:56:09Z</time>
      </trkpt>
      <trkpt lat="48.74717" lon="1.93344">
        <ele>170.8</ele>
        <time>2026-01-13T10:56:10Z</time>
      </trkpt>
      <trkpt lat="48.74719" lon="1.93338">
        <ele>170.8</ele>
        <time>2026-01-13T10:56:11Z</time>
      </trkpt>
      <trkpt lat="48.74721" lon="1.93331">
        <ele>170.8</ele>
        <time>2026-01-13T10:56:12Z</time>
      </trkpt>
      <trkpt lat="48.74723" lon="1.93323">
        <ele>170.8</ele>
        <time>2026-01-13T10:56:13Z</time>
      </trkpt>
      <trkpt lat="48.74725" lon="1.93314">
        <ele>170.8</ele>
        <time>2026-01-13T10:56:14Z</time>
      </trkpt>
      <trkpt lat="48.74728" lon="1.93306">
        <ele>170.8</ele>
        <time>2026-01-13T10:56:15Z</time>
      </trkpt>
      <trkpt lat="48.7473" lon="1.93296">
        <ele>170.8</ele>
        <time>2026-01-13T10:56:16Z</time>
      </trkpt>
      <trkpt lat="48.74733" lon="1.93287">
        <ele>170.8</ele>
        <time>2026-01-13T10:56:17Z</time>
      </trkpt>
      <trkpt lat="48.74736" lon="1.93276">
        <ele>169.8</ele>
        <time>2026-01-13T10:56:18Z</time>
      </trkpt>
      <trkpt lat="48.74738" lon="1.93266">
        <ele>169.4</ele>
        <time>2026-01-13T10:56:19Z</time>
      </trkpt>
      <trkpt lat="48.74741" lon="1.93255">
        <ele>169.4</ele>
        <time>2026-01-13T10:56:20Z</time>
      </trkpt>
      <trkpt lat="48.74744" lon="1.93244">
        <ele>169.4</ele>
        <time>2026-01-13T10:56:21Z</time>
      </trkpt>
      <trkpt lat="48.74747" lon="1.93233">
        <ele>169.4</ele>
        <time>2026-01-13T10:56:22Z</time>
      </trkpt>
      <trkpt lat="48.74749" lon="1.93222">
        <ele>169.4</ele>
        <time>2026-01-13T10:56:23Z</time>
      </trkpt>
      <trkpt lat="48.74752" lon="1.9321">
        <ele>169.4</ele>
        <time>2026-01-13T10:56:24Z</time>
      </trkpt>
      <trkpt lat="48.74755" lon="1.932">
        <ele>169.4</ele>
        <time>2026-01-13T10:56:25Z</time>
      </trkpt>
      <trkpt lat="48.74758" lon="1.93189">
        <ele>169.4</ele>
        <time>2026-01-13T10:56:26Z</time>
      </trkpt>
      <trkpt lat="48.74761" lon="1.93178">
        <ele>168.4</ele>
        <time>2026-01-13T10:56:27Z</time>
      </trkpt>
      <trkpt lat="48.74763" lon="1.93166">
        <ele>168.4</ele>
        <time>2026-01-13T10:56:28Z</time>
      </trkpt>
      <trkpt lat="48.74766" lon="1.93155">
        <ele>168.2</ele>
        <time>2026-01-13T10:56:29Z</time>
      </trkpt>
      <trkpt lat="48.74768" lon="1.93143">
        <ele>168.2</ele>
        <time>2026-01-13T10:56:30Z</time>
      </trkpt>
      <trkpt lat="48.7477" lon="1.9313">
        <ele>168.2</ele>
        <time>2026-01-13T10:56:31Z</time>
      </trkpt>
      <trkpt lat="48.74771" lon="1.93117">
        <ele>168.2</ele>
        <time>2026-01-13T10:56:32Z</time>
      </trkpt>
      <trkpt lat="48.74771" lon="1.93104">
        <ele>168.2</ele>
        <time>2026-01-13T10:56:33Z</time>
      </trkpt>
      <trkpt lat="48.7477" lon="1.93092">
        <ele>168.2</ele>
        <time>2026-01-13T10:56:34Z</time>
      </trkpt>
      <trkpt lat="48.74769" lon="1.93081">
        <ele>168.2</ele>
        <time>2026-01-13T10:56:35Z</time>
      </trkpt>
      <trkpt lat="48.74768" lon="1.93072">
        <ele>168.2</ele>
        <time>2026-01-13T10:56:36Z</time>
      </trkpt>
      <trkpt lat="48.74766" lon="1.93063">
        <ele>168.2</ele>
        <time>2026-01-13T10:56:37Z</time>
      </trkpt>
      <trkpt lat="48.74764" lon="1.93053">
        <ele>168.2</ele>
        <time>2026-01-13T10:56:38Z</time>
      </trkpt>
      <trkpt lat="48.74763" lon="1.93044">
        <ele>168.2</ele>
        <time>2026-01-13T10:56:39Z</time>
      </trkpt>
      <trkpt lat="48.74761" lon="1.93035">
        <ele>168.2</ele>
        <time>2026-01-13T10:56:40Z</time>
      </trkpt>
      <trkpt lat="48.74759" lon="1.93025">
        <ele>168.2</ele>
        <time>2026-01-13T10:56:41Z</time>
      </trkpt>
      <trkpt lat="48.74757" lon="1.93014">
        <ele>168.2</ele>
        <time>2026-01-13T10:56:42Z</time>
      </trkpt>
      <trkpt lat="48.74756" lon="1.93004">
        <ele>167.2</ele>
        <time>2026-01-13T10:56:43Z</time>
      </trkpt>
      <trkpt lat="48.74754" lon="1.92993">
        <ele>167.2</ele>
        <time>2026-01-13T10:56:44Z</time>
      </trkpt>
      <trkpt lat="48.74753" lon="1.92982">
        <ele>167.2</ele>
        <time>2026-01-13T10:56:45Z</time>
      </trkpt>
      <trkpt lat="48.74752" lon="1.92971">
        <ele>167.2</ele>
        <time>2026-01-13T10:56:46Z</time>
      </trkpt>
      <trkpt lat="48.74751" lon="1.9296">
        <ele>167</ele>
        <time>2026-01-13T10:56:47Z</time>
      </trkpt>
      <trkpt lat="48.7475" lon="1.9295">
        <ele>167</ele>
        <time>2026-01-13T10:56:48Z</time>
      </trkpt>
      <trkpt lat="48.74749" lon="1.92939">
        <ele>167</ele>
        <time>2026-01-13T10:56:49Z</time>
      </trkpt>
      <trkpt lat="48.74748" lon="1.92929">
        <ele>167</ele>
        <time>2026-01-13T10:56:50Z</time>
      </trkpt>
      <trkpt lat="48.74746" lon="1.92919">
        <ele>167</ele>
        <time>2026-01-13T10:56:51Z</time>
      </trkpt>
      <trkpt lat="48.74743" lon="1.9291">
        <ele>168</ele>
        <time>2026-01-13T10:56:52Z</time>
      </trkpt>
      <trkpt lat="48.74739" lon="1.92901">
        <ele>168</ele>
        <time>2026-01-13T10:56:53Z</time>
      </trkpt>
      <trkpt lat="48.74735" lon="1.92893">
        <ele>168</ele>
        <time>2026-01-13T10:56:54Z</time>
      </trkpt>
      <trkpt lat="48.7473" lon="1.92885">
        <ele>168</ele>
        <time>2026-01-13T10:56:55Z</time>
      </trkpt>
      <trkpt lat="48.74725" lon="1.92877">
        <ele>167.4</ele>
        <time>2026-01-13T10:56:56Z</time>
      </trkpt>
      <trkpt lat="48.7472" lon="1.9287">
        <ele>167.4</ele>
        <time>2026-01-13T10:56:57Z</time>
      </trkpt>
      <trkpt lat="48.74717" lon="1.92862">
        <ele>167.4</ele>
        <time>2026-01-13T10:56:58Z</time>
      </trkpt>
      <trkpt lat="48.74719" lon="1.92854">
        <ele>167.6</ele>
        <time>2026-01-13T10:56:59Z</time>
      </trkpt>
      <trkpt lat="48.74723" lon="1.92848">
        <ele>167.8</ele>
        <time>2026-01-13T10:57:00Z</time>
      </trkpt>
      <trkpt lat="48.74727" lon="1.92844">
        <ele>168</ele>
        <time>2026-01-13T10:57:01Z</time>
      </trkpt>
      <trkpt lat="48.74732" lon="1.92839">
        <ele>168</ele>
        <time>2026-01-13T10:57:02Z</time>
      </trkpt>
      <trkpt lat="48.74736" lon="1.92831">
        <ele>168</ele>
        <time>2026-01-13T10:57:03Z</time>
      </trkpt>
      <trkpt lat="48.74736" lon="1.92822">
        <ele>167.6</ele>
        <time>2026-01-13T10:57:04Z</time>
      </trkpt>
      <trkpt lat="48.74734" lon="1.92813">
        <ele>167.6</ele>
        <time>2026-01-13T10:57:05Z</time>
      </trkpt>
      <trkpt lat="48.74731" lon="1.92806">
        <ele>167.6</ele>
        <time>2026-01-13T10:57:06Z</time>
      </trkpt>
      <trkpt lat="48.74725" lon="1.92802">
        <ele>167.6</ele>
        <time>2026-01-13T10:57:07Z</time>
      </trkpt>
      <trkpt lat="48.74719" lon="1.92803">
        <ele>167.2</ele>
        <time>2026-01-13T10:57:08Z</time>
      </trkpt>
      <trkpt lat="48.74714" lon="1.92806">
        <ele>167</ele>
        <time>2026-01-13T10:57:09Z</time>
      </trkpt>
      <trkpt lat="48.74709" lon="1.92812">
        <ele>166.4</ele>
        <time>2026-01-13T10:57:10Z</time>
      </trkpt>
      <trkpt lat="48.74704" lon="1.92817">
        <ele>166.4</ele>
        <time>2026-01-13T10:57:11Z</time>
      </trkpt>
      <trkpt lat="48.74699" lon="1.92821">
        <ele>166.4</ele>
        <time>2026-01-13T10:57:12Z</time>
      </trkpt>
      <trkpt lat="48.74694" lon="1.92822">
        <ele>167.4</ele>
        <time>2026-01-13T10:57:13Z</time>
      </trkpt>
      <trkpt lat="48.74688" lon="1.92821">
        <ele>167.8</ele>
        <time>2026-01-13T10:57:14Z</time>
      </trkpt>
      <trkpt lat="48.74682" lon="1.9282">
        <ele>167.8</ele>
        <time>2026-01-13T10:57:15Z</time>
      </trkpt>
      <trkpt lat="48.74676" lon="1.92819">
        <ele>167.8</ele>
        <time>2026-01-13T10:57:16Z</time>
      </trkpt>
      <trkpt lat="48.7467" lon="1.92818">
        <ele>167.8</ele>
        <time>2026-01-13T10:57:17Z</time>
      </trkpt>
      <trkpt lat="48.74664" lon="1.9282">
        <ele>167.8</ele>
        <time>2026-01-13T10:57:18Z</time>
      </trkpt>
      <trkpt lat="48.74659" lon="1.92824">
        <ele>167.8</ele>
        <time>2026-01-13T10:57:19Z</time>
      </trkpt>
      <trkpt lat="48.74654" lon="1.92829">
        <ele>167.8</ele>
        <time>2026-01-13T10:57:20Z</time>
      </trkpt>
      <trkpt lat="48.74648" lon="1.92834">
        <ele>168</ele>
        <time>2026-01-13T10:57:21Z</time>
      </trkpt>
      <trkpt lat="48.74643" lon="1.92838">
        <ele>168</ele>
        <time>2026-01-13T10:57:22Z</time>
      </trkpt>
      <trkpt lat="48.74637" lon="1.92841">
        <ele>168</ele>
        <time>2026-01-13T10:57:23Z</time>
      </trkpt>
      <trkpt lat="48.7463" lon="1.92841">
        <ele>167</ele>
        <time>2026-01-13T10:57:24Z</time>
      </trkpt>
      <trkpt lat="48.74624" lon="1.92841">
        <ele>166.8</ele>
        <time>2026-01-13T10:57:25Z</time>
      </trkpt>
      <trkpt lat="48.74618" lon="1.92839">
        <ele>166.8</ele>
        <time>2026-01-13T10:57:26Z</time>
      </trkpt>
      <trkpt lat="48.74611" lon="1.92838">
        <ele>166.8</ele>
        <time>2026-01-13T10:57:27Z</time>
      </trkpt>
      <trkpt lat="48.74605" lon="1.92836">
        <ele>167</ele>
        <time>2026-01-13T10:57:28Z</time>
      </trkpt>
      <trkpt lat="48.74598" lon="1.92835">
        <ele>167.4</ele>
        <time>2026-01-13T10:57:29Z</time>
      </trkpt>
      <trkpt lat="48.74592" lon="1.92833">
        <ele>167.4</ele>
        <time>2026-01-13T10:57:30Z</time>
      </trkpt>
      <trkpt lat="48.74585" lon="1.92832">
        <ele>167.4</ele>
        <time>2026-01-13T10:57:31Z</time>
      </trkpt>
      <trkpt lat="48.74578" lon="1.92831">
        <ele>167.4</ele>
        <time>2026-01-13T10:57:32Z</time>
      </trkpt>
      <trkpt lat="48.74572" lon="1.9283">
        <ele>167</ele>
        <time>2026-01-13T10:57:33Z</time>
      </trkpt>
      <trkpt lat="48.74565" lon="1.92828">
        <ele>167</ele>
        <time>2026-01-13T10:57:34Z</time>
      </trkpt>
      <trkpt lat="48.74559" lon="1.92826">
        <ele>167</ele>
        <time>2026-01-13T10:57:35Z</time>
      </trkpt>
      <trkpt lat="48.74552" lon="1.92825">
        <ele>167</ele>
        <time>2026-01-13T10:57:36Z</time>
      </trkpt>
      <trkpt lat="48.74546" lon="1.92823">
        <ele>167</ele>
        <time>2026-01-13T10:57:37Z</time>
      </trkpt>
      <trkpt lat="48.74539" lon="1.92822">
        <ele>167</ele>
        <time>2026-01-13T10:57:38Z</time>
      </trkpt>
      <trkpt lat="48.74532" lon="1.9282">
        <ele>167</ele>
        <time>2026-01-13T10:57:39Z</time>
      </trkpt>
      <trkpt lat="48.74526" lon="1.92819">
        <ele>167</ele>
        <time>2026-01-13T10:57:40Z</time>
      </trkpt>
      <trkpt lat="48.74519" lon="1.92817">
        <ele>167</ele>
        <time>2026-01-13T10:57:41Z</time>
      </trkpt>
      <trkpt lat="48.74512" lon="1.92816">
        <ele>167</ele>
        <time>2026-01-13T10:57:42Z</time>
      </trkpt>
      <trkpt lat="48.74506" lon="1.92814">
        <ele>167</ele>
        <time>2026-01-13T10:57:43Z</time>
      </trkpt>
      <trkpt lat="48.74499" lon="1.92813">
        <ele>167</ele>
        <time>2026-01-13T10:57:44Z</time>
      </trkpt>
      <trkpt lat="48.74492" lon="1.92811">
        <ele>166.2</ele>
        <time>2026-01-13T10:57:45Z</time>
      </trkpt>
      <trkpt lat="48.74486" lon="1.9281">
        <ele>166.2</ele>
        <time>2026-01-13T10:57:46Z</time>
      </trkpt>
      <trkpt lat="48.74479" lon="1.92808">
        <ele>166.2</ele>
        <time>2026-01-13T10:57:47Z</time>
      </trkpt>
      <trkpt lat="48.74472" lon="1.92807">
        <ele>166.2</ele>
        <time>2026-01-13T10:57:48Z</time>
      </trkpt>
      <trkpt lat="48.74465" lon="1.92805">
        <ele>166.6</ele>
        <time>2026-01-13T10:57:49Z</time>
      </trkpt>
      <trkpt lat="48.74459" lon="1.92804">
        <ele>166.6</ele>
        <time>2026-01-13T10:57:50Z</time>
      </trkpt>
      <trkpt lat="48.74452" lon="1.92802">
        <ele>166.6</ele>
        <time>2026-01-13T10:57:51Z</time>
      </trkpt>
      <trkpt lat="48.74445" lon="1.92801">
        <ele>166.6</ele>
        <time>2026-01-13T10:57:52Z</time>
      </trkpt>
      <trkpt lat="48.74439" lon="1.92799">
        <ele>166.4</ele>
        <time>2026-01-13T10:57:53Z</time>
      </trkpt>
      <trkpt lat="48.74432" lon="1.92797">
        <ele>166.4</ele>
        <time>2026-01-13T10:57:54Z</time>
      </trkpt>
      <trkpt lat="48.74425" lon="1.92796">
        <ele>166.4</ele>
        <time>2026-01-13T10:57:55Z</time>
      </trkpt>
      <trkpt lat="48.74419" lon="1.92794">
        <ele>166.4</ele>
        <time>2026-01-13T10:57:56Z</time>
      </trkpt>
      <trkpt lat="48.74412" lon="1.92793">
        <ele>166.4</ele>
        <time>2026-01-13T10:57:57Z</time>
      </trkpt>
      <trkpt lat="48.74406" lon="1.92792">
        <ele>166.4</ele>
        <time>2026-01-13T10:57:58Z</time>
      </trkpt>
      <trkpt lat="48.74399" lon="1.9279">
        <ele>166.8</ele>
        <time>2026-01-13T10:57:59Z</time>
      </trkpt>
      <trkpt lat="48.74393" lon="1.92788">
        <ele>166.8</ele>
        <time>2026-01-13T10:58:00Z</time>
      </trkpt>
      <trkpt lat="48.74387" lon="1.92787">
        <ele>166.8</ele>
        <time>2026-01-13T10:58:01Z</time>
      </trkpt>
      <trkpt lat="48.7438" lon="1.92786">
        <ele>166.8</ele>
        <time>2026-01-13T10:58:02Z</time>
      </trkpt>
      <trkpt lat="48.74374" lon="1.92785">
        <ele>166.8</ele>
        <time>2026-01-13T10:58:03Z</time>
      </trkpt>
      <trkpt lat="48.74367" lon="1.92785">
        <ele>165.8</ele>
        <time>2026-01-13T10:58:04Z</time>
      </trkpt>
      <trkpt lat="48.74361" lon="1.92785">
        <ele>165.8</ele>
        <time>2026-01-13T10:58:05Z</time>
      </trkpt>
      <trkpt lat="48.74355" lon="1.92786">
        <ele>165.8</ele>
        <time>2026-01-13T10:58:06Z</time>
      </trkpt>
      <trkpt lat="48.74349" lon="1.92789">
        <ele>166.8</ele>
        <time>2026-01-13T10:58:07Z</time>
      </trkpt>
      <trkpt lat="48.74343" lon="1.92792">
        <ele>166.8</ele>
        <time>2026-01-13T10:58:08Z</time>
      </trkpt>
      <trkpt lat="48.74337" lon="1.92796">
        <ele>167</ele>
        <time>2026-01-13T10:58:09Z</time>
      </trkpt>
      <trkpt lat="48.74331" lon="1.928">
        <ele>167.6</ele>
        <time>2026-01-13T10:58:10Z</time>
      </trkpt>
      <trkpt lat="48.74326" lon="1.92805">
        <ele>167.6</ele>
        <time>2026-01-13T10:58:11Z</time>
      </trkpt>
      <trkpt lat="48.74321" lon="1.92811">
        <ele>167.6</ele>
        <time>2026-01-13T10:58:12Z</time>
      </trkpt>
      <trkpt lat="48.74316" lon="1.92816">
        <ele>167</ele>
        <time>2026-01-13T10:58:13Z</time>
      </trkpt>
      <trkpt lat="48.7431" lon="1.92822">
        <ele>167</ele>
        <time>2026-01-13T10:58:14Z</time>
      </trkpt>
      <trkpt lat="48.74305" lon="1.92828">
        <ele>167</ele>
        <time>2026-01-13T10:58:15Z</time>
      </trkpt>
      <trkpt lat="48.743" lon="1.92834">
        <ele>167</ele>
        <time>2026-01-13T10:58:16Z</time>
      </trkpt>
      <trkpt lat="48.74295" lon="1.92839">
        <ele>167</ele>
        <time>2026-01-13T10:58:17Z</time>
      </trkpt>
      <trkpt lat="48.74289" lon="1.92844">
        <ele>167</ele>
        <time>2026-01-13T10:58:18Z</time>
      </trkpt>
      <trkpt lat="48.74283" lon="1.9285">
        <ele>167</ele>
        <time>2026-01-13T10:58:19Z</time>
      </trkpt>
      <trkpt lat="48.74277" lon="1.92854">
        <ele>166</ele>
        <time>2026-01-13T10:58:20Z</time>
      </trkpt>
      <trkpt lat="48.74271" lon="1.92858">
        <ele>166</ele>
        <time>2026-01-13T10:58:21Z</time>
      </trkpt>
      <trkpt lat="48.74264" lon="1.92861">
        <ele>166</ele>
        <time>2026-01-13T10:58:22Z</time>
      </trkpt>
      <trkpt lat="48.74257" lon="1.92863">
        <ele>166</ele>
        <time>2026-01-13T10:58:23Z</time>
      </trkpt>
      <trkpt lat="48.74251" lon="1.92865">
        <ele>165.8</ele>
        <time>2026-01-13T10:58:24Z</time>
      </trkpt>
      <trkpt lat="48.74244" lon="1.92867">
        <ele>165.6</ele>
        <time>2026-01-13T10:58:25Z</time>
      </trkpt>
      <trkpt lat="48.74237" lon="1.92869">
        <ele>165.4</ele>
        <time>2026-01-13T10:58:26Z</time>
      </trkpt>
      <trkpt lat="48.7423" lon="1.92871">
        <ele>165.2</ele>
        <time>2026-01-13T10:58:27Z</time>
      </trkpt>
      <trkpt lat="48.74223" lon="1.92873">
        <ele>164.8</ele>
        <time>2026-01-13T10:58:28Z</time>
      </trkpt>
      <trkpt lat="48.74216" lon="1.92875">
        <ele>164.8</ele>
        <time>2026-01-13T10:58:29Z</time>
      </trkpt>
      <trkpt lat="48.74208" lon="1.92876">
        <ele>164.8</ele>
        <time>2026-01-13T10:58:30Z</time>
      </trkpt>
      <trkpt lat="48.74201" lon="1.92878">
        <ele>164.8</ele>
        <time>2026-01-13T10:58:31Z</time>
      </trkpt>
      <trkpt lat="48.74194" lon="1.92879">
        <ele>163.8</ele>
        <time>2026-01-13T10:58:32Z</time>
      </trkpt>
      <trkpt lat="48.74187" lon="1.92879">
        <ele>163.8</ele>
        <time>2026-01-13T10:58:33Z</time>
      </trkpt>
      <trkpt lat="48.7418" lon="1.92879">
        <ele>163.8</ele>
        <time>2026-01-13T10:58:34Z</time>
      </trkpt>
      <trkpt lat="48.74173" lon="1.92879">
        <ele>163.8</ele>
        <time>2026-01-13T10:58:35Z</time>
      </trkpt>
      <trkpt lat="48.74165" lon="1.92878">
        <ele>164.6</ele>
        <time>2026-01-13T10:58:36Z</time>
      </trkpt>
      <trkpt lat="48.74158" lon="1.92876">
        <ele>164.6</ele>
        <time>2026-01-13T10:58:37Z</time>
      </trkpt>
      <trkpt lat="48.74152" lon="1.92874">
        <ele>164.6</ele>
        <time>2026-01-13T10:58:38Z</time>
      </trkpt>
      <trkpt lat="48.74145" lon="1.92871">
        <ele>163.6</ele>
        <time>2026-01-13T10:58:39Z</time>
      </trkpt>
      <trkpt lat="48.74138" lon="1.92868">
        <ele>163.6</ele>
        <time>2026-01-13T10:58:40Z</time>
      </trkpt>
      <trkpt lat="48.74131" lon="1.92865">
        <ele>163.6</ele>
        <time>2026-01-13T10:58:41Z</time>
      </trkpt>
      <trkpt lat="48.74125" lon="1.92862">
        <ele>164.6</ele>
        <time>2026-01-13T10:58:42Z</time>
      </trkpt>
      <trkpt lat="48.74118" lon="1.92859">
        <ele>165.2</ele>
        <time>2026-01-13T10:58:43Z</time>
      </trkpt>
      <trkpt lat="48.74112" lon="1.92856">
        <ele>165.2</ele>
        <time>2026-01-13T10:58:44Z</time>
      </trkpt>
      <trkpt lat="48.74105" lon="1.92853">
        <ele>165.2</ele>
        <time>2026-01-13T10:58:45Z</time>
      </trkpt>
      <trkpt lat="48.74099" lon="1.9285">
        <ele>164.2</ele>
        <time>2026-01-13T10:58:46Z</time>
      </trkpt>
      <trkpt lat="48.74092" lon="1.92848">
        <ele>164.2</ele>
        <time>2026-01-13T10:58:47Z</time>
      </trkpt>
      <trkpt lat="48.74085" lon="1.92845">
        <ele>164.2</ele>
        <time>2026-01-13T10:58:48Z</time>
      </trkpt>
      <trkpt lat="48.74079" lon="1.92842">
        <ele>164.2</ele>
        <time>2026-01-13T10:58:49Z</time>
      </trkpt>
      <trkpt lat="48.74072" lon="1.92839">
        <ele>164</ele>
        <time>2026-01-13T10:58:50Z</time>
      </trkpt>
      <trkpt lat="48.74066" lon="1.92836">
        <ele>163.6</ele>
        <time>2026-01-13T10:58:51Z</time>
      </trkpt>
      <trkpt lat="48.74059" lon="1.92833">
        <ele>163.6</ele>
        <time>2026-01-13T10:58:52Z</time>
      </trkpt>
      <trkpt lat="48.74053" lon="1.9283">
        <ele>163.6</ele>
        <time>2026-01-13T10:58:53Z</time>
      </trkpt>
      <trkpt lat="48.74046" lon="1.92827">
        <ele>163.8</ele>
        <time>2026-01-13T10:58:54Z</time>
      </trkpt>
      <trkpt lat="48.74039" lon="1.92824">
        <ele>163.8</ele>
        <time>2026-01-13T10:58:55Z</time>
      </trkpt>
      <trkpt lat="48.74033" lon="1.92822">
        <ele>164</ele>
        <time>2026-01-13T10:58:56Z</time>
      </trkpt>
      <trkpt lat="48.74026" lon="1.92819">
        <ele>164</ele>
        <time>2026-01-13T10:58:57Z</time>
      </trkpt>
      <trkpt lat="48.7402" lon="1.92816">
        <ele>164</ele>
        <time>2026-01-13T10:58:58Z</time>
      </trkpt>
      <trkpt lat="48.74013" lon="1.92813">
        <ele>164</ele>
        <time>2026-01-13T10:58:59Z</time>
      </trkpt>
      <trkpt lat="48.74007" lon="1.9281">
        <ele>164</ele>
        <time>2026-01-13T10:59:00Z</time>
      </trkpt>
      <trkpt lat="48.74" lon="1.92807">
        <ele>164</ele>
        <time>2026-01-13T10:59:01Z</time>
      </trkpt>
      <trkpt lat="48.73993" lon="1.92804">
        <ele>164</ele>
        <time>2026-01-13T10:59:02Z</time>
      </trkpt>
      <trkpt lat="48.73987" lon="1.92802">
        <ele>165</ele>
        <time>2026-01-13T10:59:03Z</time>
      </trkpt>
      <trkpt lat="48.7398" lon="1.92801">
        <ele>165</ele>
        <time>2026-01-13T10:59:04Z</time>
      </trkpt>
      <trkpt lat="48.73973" lon="1.92799">
        <ele>165</ele>
        <time>2026-01-13T10:59:05Z</time>
      </trkpt>
      <trkpt lat="48.73966" lon="1.92798">
        <ele>164.6</ele>
        <time>2026-01-13T10:59:06Z</time>
      </trkpt>
      <trkpt lat="48.7396" lon="1.92798">
        <ele>164.4</ele>
        <time>2026-01-13T10:59:07Z</time>
      </trkpt>
      <trkpt lat="48.73953" lon="1.928">
        <ele>164.2</ele>
        <time>2026-01-13T10:59:08Z</time>
      </trkpt>
      <trkpt lat="48.73946" lon="1.92802">
        <ele>163.8</ele>
        <time>2026-01-13T10:59:09Z</time>
      </trkpt>
      <trkpt lat="48.73939" lon="1.92805">
        <ele>163.8</ele>
        <time>2026-01-13T10:59:10Z</time>
      </trkpt>
      <trkpt lat="48.73933" lon="1.92809">
        <ele>163.8</ele>
        <time>2026-01-13T10:59:11Z</time>
      </trkpt>
      <trkpt lat="48.73927" lon="1.92814">
        <ele>164.8</ele>
        <time>2026-01-13T10:59:12Z</time>
      </trkpt>
      <trkpt lat="48.73921" lon="1.92819">
        <ele>164.8</ele>
        <time>2026-01-13T10:59:13Z</time>
      </trkpt>
      <trkpt lat="48.73915" lon="1.92823">
        <ele>164.8</ele>
        <time>2026-01-13T10:59:14Z</time>
      </trkpt>
      <trkpt lat="48.7391" lon="1.92827">
        <ele>164.2</ele>
        <time>2026-01-13T10:59:15Z</time>
      </trkpt>
      <trkpt lat="48.73905" lon="1.92829">
        <ele>164.2</ele>
        <time>2026-01-13T10:59:16Z</time>
      </trkpt>
      <trkpt lat="48.73901" lon="1.92832">
        <ele>164.2</ele>
        <time>2026-01-13T10:59:17Z</time>
      </trkpt>
      <trkpt lat="48.73895" lon="1.92835">
        <ele>164.8</ele>
        <time>2026-01-13T10:59:18Z</time>
      </trkpt>
      <trkpt lat="48.7389" lon="1.92839">
        <ele>164.8</ele>
        <time>2026-01-13T10:59:19Z</time>
      </trkpt>
      <trkpt lat="48.73885" lon="1.92842">
        <ele>164.8</ele>
        <time>2026-01-13T10:59:20Z</time>
      </trkpt>
      <trkpt lat="48.7388" lon="1.92846">
        <ele>164.8</ele>
        <time>2026-01-13T10:59:21Z</time>
      </trkpt>
      <trkpt lat="48.73874" lon="1.92849">
        <ele>164.8</ele>
        <time>2026-01-13T10:59:22Z</time>
      </trkpt>
      <trkpt lat="48.73869" lon="1.92852">
        <ele>165.8</ele>
        <time>2026-01-13T10:59:23Z</time>
      </trkpt>
      <trkpt lat="48.73864" lon="1.92855">
        <ele>166.8</ele>
        <time>2026-01-13T10:59:24Z</time>
      </trkpt>
      <trkpt lat="48.7386" lon="1.92858">
        <ele>166.8</ele>
        <time>2026-01-13T10:59:25Z</time>
      </trkpt>
      <trkpt lat="48.73856" lon="1.9286">
        <ele>166.8</ele>
        <time>2026-01-13T10:59:26Z</time>
      </trkpt>
      <trkpt lat="48.73852" lon="1.92863">
        <ele>166.8</ele>
        <time>2026-01-13T10:59:27Z</time>
      </trkpt>
      <trkpt lat="48.73848" lon="1.92866">
        <ele>166.8</ele>
        <time>2026-01-13T10:59:28Z</time>
      </trkpt>
      <trkpt lat="48.73843" lon="1.92869">
        <ele>167.2</ele>
        <time>2026-01-13T10:59:29Z</time>
      </trkpt>
      <trkpt lat="48.73839" lon="1.92872">
        <ele>167.2</ele>
        <time>2026-01-13T10:59:30Z</time>
      </trkpt>
      <trkpt lat="48.73834" lon="1.92876">
        <ele>167.6</ele>
        <time>2026-01-13T10:59:31Z</time>
      </trkpt>
      <trkpt lat="48.73829" lon="1.9288">
        <ele>167.8</ele>
        <time>2026-01-13T10:59:32Z</time>
      </trkpt>
      <trkpt lat="48.73825" lon="1.92885">
        <ele>167.8</ele>
        <time>2026-01-13T10:59:33Z</time>
      </trkpt>
      <trkpt lat="48.7382" lon="1.92889">
        <ele>167.8</ele>
        <time>2026-01-13T10:59:34Z</time>
      </trkpt>
      <trkpt lat="48.73815" lon="1.92893">
        <ele>167.8</ele>
        <time>2026-01-13T10:59:35Z</time>
      </trkpt>
      <trkpt lat="48.73811" lon="1.92897">
        <ele>168.4</ele>
        <time>2026-01-13T10:59:36Z</time>
      </trkpt>
      <trkpt lat="48.73806" lon="1.92901">
        <ele>168.4</ele>
        <time>2026-01-13T10:59:37Z</time>
      </trkpt>
      <trkpt lat="48.73802" lon="1.92906">
        <ele>168.4</ele>
        <time>2026-01-13T10:59:38Z</time>
      </trkpt>
      <trkpt lat="48.73797" lon="1.9291">
        <ele>168.4</ele>
        <time>2026-01-13T10:59:39Z</time>
      </trkpt>
      <trkpt lat="48.73793" lon="1.92914">
        <ele>168.8</ele>
        <time>2026-01-13T10:59:40Z</time>
      </trkpt>
      <trkpt lat="48.73788" lon="1.92918">
        <ele>169.2</ele>
        <time>2026-01-13T10:59:41Z</time>
      </trkpt>
      <trkpt lat="48.73784" lon="1.92923">
        <ele>169.2</ele>
        <time>2026-01-13T10:59:42Z</time>
      </trkpt>
      <trkpt lat="48.73779" lon="1.92928">
        <ele>169.2</ele>
        <time>2026-01-13T10:59:43Z</time>
      </trkpt>
      <trkpt lat="48.73774" lon="1.92932">
        <ele>169.2</ele>
        <time>2026-01-13T10:59:44Z</time>
      </trkpt>
      <trkpt lat="48.73769" lon="1.92937">
        <ele>169.2</ele>
        <time>2026-01-13T10:59:45Z</time>
      </trkpt>
      <trkpt lat="48.73765" lon="1.92941">
        <ele>169.6</ele>
        <time>2026-01-13T10:59:46Z</time>
      </trkpt>
      <trkpt lat="48.7376" lon="1.92946">
        <ele>169.6</ele>
        <time>2026-01-13T10:59:47Z</time>
      </trkpt>
      <trkpt lat="48.73756" lon="1.9295">
        <ele>169.6</ele>
        <time>2026-01-13T10:59:48Z</time>
      </trkpt>
      <trkpt lat="48.73751" lon="1.92954">
        <ele>169.6</ele>
        <time>2026-01-13T10:59:49Z</time>
      </trkpt>
      <trkpt lat="48.73746" lon="1.92959">
        <ele>169.6</ele>
        <time>2026-01-13T10:59:50Z</time>
      </trkpt>
      <trkpt lat="48.73742" lon="1.92963">
        <ele>169.8</ele>
        <time>2026-01-13T10:59:51Z</time>
      </trkpt>
      <trkpt lat="48.73738" lon="1.92966">
        <ele>170.2</ele>
        <time>2026-01-13T10:59:52Z</time>
      </trkpt>
      <trkpt lat="48.73733" lon="1.9297">
        <ele>170.2</ele>
        <time>2026-01-13T10:59:53Z</time>
      </trkpt>
      <trkpt lat="48.73729" lon="1.92974">
        <ele>170.2</ele>
        <time>2026-01-13T10:59:54Z</time>
      </trkpt>
      <trkpt lat="48.73724" lon="1.92978">
        <ele>170.2</ele>
        <time>2026-01-13T10:59:55Z</time>
      </trkpt>
      <trkpt lat="48.7372" lon="1.92982">
        <ele>170.2</ele>
        <time>2026-01-13T10:59:56Z</time>
      </trkpt>
      <trkpt lat="48.73715" lon="1.92985">
        <ele>170.2</ele>
        <time>2026-01-13T10:59:57Z</time>
      </trkpt>
      <trkpt lat="48.7371" lon="1.92988">
        <ele>170.6</ele>
        <time>2026-01-13T10:59:58Z</time>
      </trkpt>
      <trkpt lat="48.73706" lon="1.92991">
        <ele>170.8</ele>
        <time>2026-01-13T10:59:59Z</time>
      </trkpt>
      <trkpt lat="48.73702" lon="1.92993">
        <ele>171.4</ele>
        <time>2026-01-13T11:00:00Z</time>
      </trkpt>
      <trkpt lat="48.73697" lon="1.92997">
        <ele>171.4</ele>
        <time>2026-01-13T11:00:01Z</time>
      </trkpt>
      <trkpt lat="48.73692" lon="1.92999">
        <ele>171.4</ele>
        <time>2026-01-13T11:00:02Z</time>
      </trkpt>
      <trkpt lat="48.73687" lon="1.93002">
        <ele>170.4</ele>
        <time>2026-01-13T11:00:03Z</time>
      </trkpt>
      <trkpt lat="48.73682" lon="1.93005">
        <ele>170.4</ele>
        <time>2026-01-13T11:00:04Z</time>
      </trkpt>
      <trkpt lat="48.73677" lon="1.93007">
        <ele>170.4</ele>
        <time>2026-01-13T11:00:05Z</time>
      </trkpt>
      <trkpt lat="48.73673" lon="1.93009">
        <ele>170.4</ele>
        <time>2026-01-13T11:00:06Z</time>
      </trkpt>
      <trkpt lat="48.73668" lon="1.93012">
        <ele>170.4</ele>
        <time>2026-01-13T11:00:07Z</time>
      </trkpt>
      <trkpt lat="48.73662" lon="1.93014">
        <ele>170.4</ele>
        <time>2026-01-13T11:00:08Z</time>
      </trkpt>
      <trkpt lat="48.73657" lon="1.93017">
        <ele>170.4</ele>
        <time>2026-01-13T11:00:09Z</time>
      </trkpt>
      <trkpt lat="48.73652" lon="1.93019">
        <ele>171</ele>
        <time>2026-01-13T11:00:10Z</time>
      </trkpt>
      <trkpt lat="48.73648" lon="1.93021">
        <ele>171</ele>
        <time>2026-01-13T11:00:11Z</time>
      </trkpt>
      <trkpt lat="48.73643" lon="1.93024">
        <ele>171</ele>
        <time>2026-01-13T11:00:12Z</time>
      </trkpt>
      <trkpt lat="48.73638" lon="1.93027">
        <ele>171</ele>
        <time>2026-01-13T11:00:13Z</time>
      </trkpt>
      <trkpt lat="48.73633" lon="1.93029">
        <ele>170.6</ele>
        <time>2026-01-13T11:00:14Z</time>
      </trkpt>
      <trkpt lat="48.73628" lon="1.93033">
        <ele>170.6</ele>
        <time>2026-01-13T11:00:15Z</time>
      </trkpt>
      <trkpt lat="48.73623" lon="1.93037">
        <ele>170.6</ele>
        <time>2026-01-13T11:00:16Z</time>
      </trkpt>
      <trkpt lat="48.73618" lon="1.93041">
        <ele>170.8</ele>
        <time>2026-01-13T11:00:17Z</time>
      </trkpt>
      <trkpt lat="48.73613" lon="1.93045">
        <ele>171</ele>
        <time>2026-01-13T11:00:18Z</time>
      </trkpt>
      <trkpt lat="48.73608" lon="1.9305">
        <ele>171</ele>
        <time>2026-01-13T11:00:19Z</time>
      </trkpt>
      <trkpt lat="48.73603" lon="1.93055">
        <ele>171</ele>
        <time>2026-01-13T11:00:20Z</time>
      </trkpt>
      <trkpt lat="48.73598" lon="1.93059">
        <ele>171</ele>
        <time>2026-01-13T11:00:21Z</time>
      </trkpt>
      <trkpt lat="48.73593" lon="1.93064">
        <ele>171</ele>
        <time>2026-01-13T11:00:22Z</time>
      </trkpt>
      <trkpt lat="48.73589" lon="1.93069">
        <ele>171</ele>
        <time>2026-01-13T11:00:23Z</time>
      </trkpt>
      <trkpt lat="48.73583" lon="1.93074">
        <ele>171</ele>
        <time>2026-01-13T11:00:24Z</time>
      </trkpt>
      <trkpt lat="48.73578" lon="1.93079">
        <ele>170.2</ele>
        <time>2026-01-13T11:00:25Z</time>
      </trkpt>
      <trkpt lat="48.73573" lon="1.93085">
        <ele>170.2</ele>
        <time>2026-01-13T11:00:26Z</time>
      </trkpt>
      <trkpt lat="48.73568" lon="1.93092">
        <ele>169.8</ele>
        <time>2026-01-13T11:00:27Z</time>
      </trkpt>
      <trkpt lat="48.73562" lon="1.93098">
        <ele>169.8</ele>
        <time>2026-01-13T11:00:28Z</time>
      </trkpt>
      <trkpt lat="48.73557" lon="1.93103">
        <ele>169.8</ele>
        <time>2026-01-13T11:00:29Z</time>
      </trkpt>
      <trkpt lat="48.73551" lon="1.93109">
        <ele>169.8</ele>
        <time>2026-01-13T11:00:30Z</time>
      </trkpt>
      <trkpt lat="48.73546" lon="1.93115">
        <ele>169.8</ele>
        <time>2026-01-13T11:00:31Z</time>
      </trkpt>
      <trkpt lat="48.73541" lon="1.93121">
        <ele>169.8</ele>
        <time>2026-01-13T11:00:32Z</time>
      </trkpt>
      <trkpt lat="48.73535" lon="1.93127">
        <ele>169.8</ele>
        <time>2026-01-13T11:00:33Z</time>
      </trkpt>
      <trkpt lat="48.7353" lon="1.93132">
        <ele>169.8</ele>
        <time>2026-01-13T11:00:34Z</time>
      </trkpt>
      <trkpt lat="48.73525" lon="1.93137">
        <ele>169.8</ele>
        <time>2026-01-13T11:00:35Z</time>
      </trkpt>
      <trkpt lat="48.7352" lon="1.93142">
        <ele>169</ele>
        <time>2026-01-13T11:00:36Z</time>
      </trkpt>
      <trkpt lat="48.73515" lon="1.93148">
        <ele>169</ele>
        <time>2026-01-13T11:00:37Z</time>
      </trkpt>
      <trkpt lat="48.7351" lon="1.93153">
        <ele>169</ele>
        <time>2026-01-13T11:00:38Z</time>
      </trkpt>
      <trkpt lat="48.73505" lon="1.93159">
        <ele>169.8</ele>
        <time>2026-01-13T11:00:39Z</time>
      </trkpt>
      <trkpt lat="48.735" lon="1.93165">
        <ele>169.8</ele>
        <time>2026-01-13T11:00:40Z</time>
      </trkpt>
      <trkpt lat="48.73494" lon="1.9317">
        <ele>169.8</ele>
        <time>2026-01-13T11:00:41Z</time>
      </trkpt>
      <trkpt lat="48.7349" lon="1.93175">
        <ele>169.6</ele>
        <time>2026-01-13T11:00:42Z</time>
      </trkpt>
      <trkpt lat="48.73485" lon="1.9318">
        <ele>169.6</ele>
        <time>2026-01-13T11:00:43Z</time>
      </trkpt>
      <trkpt lat="48.7348" lon="1.93185">
        <ele>169.6</ele>
        <time>2026-01-13T11:00:44Z</time>
      </trkpt>
      <trkpt lat="48.73475" lon="1.9319">
        <ele>169.6</ele>
        <time>2026-01-13T11:00:45Z</time>
      </trkpt>
      <trkpt lat="48.7347" lon="1.93195">
        <ele>169.6</ele>
        <time>2026-01-13T11:00:46Z</time>
      </trkpt>
      <trkpt lat="48.73465" lon="1.93201">
        <ele>169</ele>
        <time>2026-01-13T11:00:47Z</time>
      </trkpt>
      <trkpt lat="48.7346" lon="1.93206">
        <ele>169</ele>
        <time>2026-01-13T11:00:48Z</time>
      </trkpt>
      <trkpt lat="48.73455" lon="1.93211">
        <ele>169</ele>
        <time>2026-01-13T11:00:49Z</time>
      </trkpt>
      <trkpt lat="48.7345" lon="1.93216">
        <ele>170</ele>
        <time>2026-01-13T11:00:50Z</time>
      </trkpt>
      <trkpt lat="48.73445" lon="1.93221">
        <ele>170</ele>
        <time>2026-01-13T11:00:51Z</time>
      </trkpt>
      <trkpt lat="48.73441" lon="1.93227">
        <ele>170</ele>
        <time>2026-01-13T11:00:52Z</time>
      </trkpt>
      <trkpt lat="48.73436" lon="1.93232">
        <ele>170</ele>
        <time>2026-01-13T11:00:53Z</time>
      </trkpt>
      <trkpt lat="48.73431" lon="1.93238">
        <ele>170.8</ele>
        <time>2026-01-13T11:00:54Z</time>
      </trkpt>
      <trkpt lat="48.73426" lon="1.93244">
        <ele>171.6</ele>
        <time>2026-01-13T11:00:55Z</time>
      </trkpt>
      <trkpt lat="48.73421" lon="1.93249">
        <ele>172.4</ele>
        <time>2026-01-13T11:00:56Z</time>
      </trkpt>
      <trkpt lat="48.73416" lon="1.93255">
        <ele>172.4</ele>
        <time>2026-01-13T11:00:57Z</time>
      </trkpt>
      <trkpt lat="48.73411" lon="1.9326">
        <ele>172.4</ele>
        <time>2026-01-13T11:00:58Z</time>
      </trkpt>
      <trkpt lat="48.73406" lon="1.93265">
        <ele>171.4</ele>
        <time>2026-01-13T11:00:59Z</time>
      </trkpt>
      <trkpt lat="48.73401" lon="1.9327">
        <ele>170.6</ele>
        <time>2026-01-13T11:01:00Z</time>
      </trkpt>
      <trkpt lat="48.73396" lon="1.93275">
        <ele>170.6</ele>
        <time>2026-01-13T11:01:01Z</time>
      </trkpt>
      <trkpt lat="48.73391" lon="1.93281">
        <ele>170.6</ele>
        <time>2026-01-13T11:01:02Z</time>
      </trkpt>
      <trkpt lat="48.73387" lon="1.93287">
        <ele>170.6</ele>
        <time>2026-01-13T11:01:03Z</time>
      </trkpt>
      <trkpt lat="48.73382" lon="1.93293">
        <ele>170.6</ele>
        <time>2026-01-13T11:01:04Z</time>
      </trkpt>
      <trkpt lat="48.73376" lon="1.933">
        <ele>169.6</ele>
        <time>2026-01-13T11:01:05Z</time>
      </trkpt>
      <trkpt lat="48.73372" lon="1.93306">
        <ele>168.6</ele>
        <time>2026-01-13T11:01:06Z</time>
      </trkpt>
      <trkpt lat="48.73367" lon="1.93312">
        <ele>168.6</ele>
        <time>2026-01-13T11:01:07Z</time>
      </trkpt>
      <trkpt lat="48.73362" lon="1.93319">
        <ele>168.6</ele>
        <time>2026-01-13T11:01:08Z</time>
      </trkpt>
      <trkpt lat="48.73358" lon="1.93325">
        <ele>168.6</ele>
        <time>2026-01-13T11:01:09Z</time>
      </trkpt>
      <trkpt lat="48.73353" lon="1.93332">
        <ele>168.6</ele>
        <time>2026-01-13T11:01:10Z</time>
      </trkpt>
      <trkpt lat="48.73348" lon="1.93338">
        <ele>168.6</ele>
        <time>2026-01-13T11:01:11Z</time>
      </trkpt>
      <trkpt lat="48.73344" lon="1.93344">
        <ele>168.8</ele>
        <time>2026-01-13T11:01:12Z</time>
      </trkpt>
      <trkpt lat="48.73339" lon="1.93351">
        <ele>169</ele>
        <time>2026-01-13T11:01:13Z</time>
      </trkpt>
      <trkpt lat="48.73334" lon="1.93357">
        <ele>169</ele>
        <time>2026-01-13T11:01:14Z</time>
      </trkpt>
      <trkpt lat="48.7333" lon="1.93364">
        <ele>169</ele>
        <time>2026-01-13T11:01:15Z</time>
      </trkpt>
      <trkpt lat="48.73325" lon="1.9337">
        <ele>169</ele>
        <time>2026-01-13T11:01:16Z</time>
      </trkpt>
      <trkpt lat="48.7332" lon="1.93377">
        <ele>169</ele>
        <time>2026-01-13T11:01:17Z</time>
      </trkpt>
      <trkpt lat="48.73315" lon="1.93383">
        <ele>169.4</ele>
        <time>2026-01-13T11:01:18Z</time>
      </trkpt>
      <trkpt lat="48.73311" lon="1.9339">
        <ele>169.4</ele>
        <time>2026-01-13T11:01:19Z</time>
      </trkpt>
      <trkpt lat="48.73306" lon="1.93396">
        <ele>169.4</ele>
        <time>2026-01-13T11:01:20Z</time>
      </trkpt>
      <trkpt lat="48.73301" lon="1.93403">
        <ele>168.8</ele>
        <time>2026-01-13T11:01:21Z</time>
      </trkpt>
      <trkpt lat="48.73296" lon="1.9341">
        <ele>168.4</ele>
        <time>2026-01-13T11:01:22Z</time>
      </trkpt>
      <trkpt lat="48.73291" lon="1.93415">
        <ele>168.4</ele>
        <time>2026-01-13T11:01:23Z</time>
      </trkpt>
      <trkpt lat="48.73286" lon="1.93421">
        <ele>168</ele>
        <time>2026-01-13T11:01:24Z</time>
      </trkpt>
      <trkpt lat="48.7328" lon="1.93427">
        <ele>167.8</ele>
        <time>2026-01-13T11:01:25Z</time>
      </trkpt>
      <trkpt lat="48.73275" lon="1.93433">
        <ele>167.8</ele>
        <time>2026-01-13T11:01:26Z</time>
      </trkpt>
      <trkpt lat="48.73269" lon="1.93439">
        <ele>167.8</ele>
        <time>2026-01-13T11:01:27Z</time>
      </trkpt>
      <trkpt lat="48.73265" lon="1.93444">
        <ele>168</ele>
        <time>2026-01-13T11:01:28Z</time>
      </trkpt>
      <trkpt lat="48.7326" lon="1.9345">
        <ele>168</ele>
        <time>2026-01-13T11:01:29Z</time>
      </trkpt>
      <trkpt lat="48.73256" lon="1.93456">
        <ele>168</ele>
        <time>2026-01-13T11:01:30Z</time>
      </trkpt>
      <trkpt lat="48.73251" lon="1.93462">
        <ele>168</ele>
        <time>2026-01-13T11:01:31Z</time>
      </trkpt>
      <trkpt lat="48.73246" lon="1.93469">
        <ele>168.4</ele>
        <time>2026-01-13T11:01:32Z</time>
      </trkpt>
      <trkpt lat="48.73242" lon="1.93476">
        <ele>168.6</ele>
        <time>2026-01-13T11:01:33Z</time>
      </trkpt>
      <trkpt lat="48.73237" lon="1.93482">
        <ele>169</ele>
        <time>2026-01-13T11:01:34Z</time>
      </trkpt>
      <trkpt lat="48.73232" lon="1.93489">
        <ele>169.2</ele>
        <time>2026-01-13T11:01:35Z</time>
      </trkpt>
      <trkpt lat="48.73228" lon="1.93496">
        <ele>169.6</ele>
        <time>2026-01-13T11:01:36Z</time>
      </trkpt>
      <trkpt lat="48.73224" lon="1.93503">
        <ele>169.6</ele>
        <time>2026-01-13T11:01:37Z</time>
      </trkpt>
      <trkpt lat="48.7322" lon="1.93511">
        <ele>169.6</ele>
        <time>2026-01-13T11:01:38Z</time>
      </trkpt>
      <trkpt lat="48.73215" lon="1.93519">
        <ele>169.6</ele>
        <time>2026-01-13T11:01:39Z</time>
      </trkpt>
      <trkpt lat="48.73211" lon="1.93526">
        <ele>170.2</ele>
        <time>2026-01-13T11:01:40Z</time>
      </trkpt>
      <trkpt lat="48.73207" lon="1.93532">
        <ele>170.2</ele>
        <time>2026-01-13T11:01:41Z</time>
      </trkpt>
      <trkpt lat="48.73203" lon="1.9354">
        <ele>170.2</ele>
        <time>2026-01-13T11:01:42Z</time>
      </trkpt>
      <trkpt lat="48.73199" lon="1.93547">
        <ele>170.2</ele>
        <time>2026-01-13T11:01:43Z</time>
      </trkpt>
      <trkpt lat="48.73194" lon="1.93554">
        <ele>170.8</ele>
        <time>2026-01-13T11:01:44Z</time>
      </trkpt>
      <trkpt lat="48.7319" lon="1.93562">
        <ele>171.4</ele>
        <time>2026-01-13T11:01:45Z</time>
      </trkpt>
      <trkpt lat="48.73186" lon="1.93569">
        <ele>171.4</ele>
        <time>2026-01-13T11:01:46Z</time>
      </trkpt>
      <trkpt lat="48.73182" lon="1.93576">
        <ele>171.4</ele>
        <time>2026-01-13T11:01:47Z</time>
      </trkpt>
      <trkpt lat="48.73178" lon="1.93583">
        <ele>171</ele>
        <time>2026-01-13T11:01:48Z</time>
      </trkpt>
      <trkpt lat="48.73175" lon="1.93589">
        <ele>171</ele>
        <time>2026-01-13T11:01:49Z</time>
      </trkpt>
      <trkpt lat="48.73171" lon="1.93596">
        <ele>171</ele>
        <time>2026-01-13T11:01:50Z</time>
      </trkpt>
      <trkpt lat="48.73166" lon="1.93604">
        <ele>171.4</ele>
        <time>2026-01-13T11:01:51Z</time>
      </trkpt>
      <trkpt lat="48.73162" lon="1.93611">
        <ele>171.6</ele>
        <time>2026-01-13T11:01:52Z</time>
      </trkpt>
      <trkpt lat="48.73158" lon="1.93617">
        <ele>171.6</ele>
        <time>2026-01-13T11:01:53Z</time>
      </trkpt>
      <trkpt lat="48.73154" lon="1.93625">
        <ele>171.6</ele>
        <time>2026-01-13T11:01:54Z</time>
      </trkpt>
      <trkpt lat="48.7315" lon="1.93632">
        <ele>171</ele>
        <time>2026-01-13T11:01:55Z</time>
      </trkpt>
      <trkpt lat="48.73146" lon="1.93638">
        <ele>170.8</ele>
        <time>2026-01-13T11:01:56Z</time>
      </trkpt>
      <trkpt lat="48.73141" lon="1.93645">
        <ele>170.8</ele>
        <time>2026-01-13T11:01:57Z</time>
      </trkpt>
      <trkpt lat="48.73137" lon="1.93652">
        <ele>170.6</ele>
        <time>2026-01-13T11:01:58Z</time>
      </trkpt>
      <trkpt lat="48.73133" lon="1.93659">
        <ele>169.8</ele>
        <time>2026-01-13T11:01:59Z</time>
      </trkpt>
      <trkpt lat="48.73128" lon="1.93666">
        <ele>169.6</ele>
        <time>2026-01-13T11:02:00Z</time>
      </trkpt>
      <trkpt lat="48.73123" lon="1.93674">
        <ele>169.4</ele>
        <time>2026-01-13T11:02:01Z</time>
      </trkpt>
      <trkpt lat="48.73118" lon="1.93682">
        <ele>169.4</ele>
        <time>2026-01-13T11:02:02Z</time>
      </trkpt>
      <trkpt lat="48.73113" lon="1.93689">
        <ele>169.4</ele>
        <time>2026-01-13T11:02:03Z</time>
      </trkpt>
      <trkpt lat="48.73108" lon="1.93697">
        <ele>169.4</ele>
        <time>2026-01-13T11:02:04Z</time>
      </trkpt>
      <trkpt lat="48.73103" lon="1.93705">
        <ele>169.8</ele>
        <time>2026-01-13T11:02:05Z</time>
      </trkpt>
      <trkpt lat="48.73097" lon="1.93713">
        <ele>170.4</ele>
        <time>2026-01-13T11:02:06Z</time>
      </trkpt>
      <trkpt lat="48.73092" lon="1.9372">
        <ele>170.4</ele>
        <time>2026-01-13T11:02:07Z</time>
      </trkpt>
      <trkpt lat="48.73087" lon="1.93728">
        <ele>170.4</ele>
        <time>2026-01-13T11:02:08Z</time>
      </trkpt>
      <trkpt lat="48.73083" lon="1.93736">
        <ele>170.4</ele>
        <time>2026-01-13T11:02:09Z</time>
      </trkpt>
      <trkpt lat="48.73078" lon="1.93743">
        <ele>170.6</ele>
        <time>2026-01-13T11:02:10Z</time>
      </trkpt>
      <trkpt lat="48.73074" lon="1.93751">
        <ele>170.6</ele>
        <time>2026-01-13T11:02:11Z</time>
      </trkpt>
      <trkpt lat="48.73069" lon="1.93758">
        <ele>170.6</ele>
        <time>2026-01-13T11:02:12Z</time>
      </trkpt>
      <trkpt lat="48.73065" lon="1.93766">
        <ele>170.6</ele>
        <time>2026-01-13T11:02:13Z</time>
      </trkpt>
      <trkpt lat="48.7306" lon="1.93774">
        <ele>170.2</ele>
        <time>2026-01-13T11:02:14Z</time>
      </trkpt>
      <trkpt lat="48.73056" lon="1.93781">
        <ele>170</ele>
        <time>2026-01-13T11:02:15Z</time>
      </trkpt>
      <trkpt lat="48.73051" lon="1.93788">
        <ele>170</ele>
        <time>2026-01-13T11:02:16Z</time>
      </trkpt>
      <trkpt lat="48.73047" lon="1.93796">
        <ele>170</ele>
        <time>2026-01-13T11:02:17Z</time>
      </trkpt>
      <trkpt lat="48.73043" lon="1.93803">
        <ele>170</ele>
        <time>2026-01-13T11:02:18Z</time>
      </trkpt>
      <trkpt lat="48.73038" lon="1.93811">
        <ele>169</ele>
        <time>2026-01-13T11:02:19Z</time>
      </trkpt>
      <trkpt lat="48.73033" lon="1.93819">
        <ele>169</ele>
        <time>2026-01-13T11:02:20Z</time>
      </trkpt>
      <trkpt lat="48.73029" lon="1.93827">
        <ele>168.2</ele>
        <time>2026-01-13T11:02:21Z</time>
      </trkpt>
      <trkpt lat="48.73024" lon="1.93834">
        <ele>167.4</ele>
        <time>2026-01-13T11:02:22Z</time>
      </trkpt>
      <trkpt lat="48.7302" lon="1.93842">
        <ele>167.4</ele>
        <time>2026-01-13T11:02:23Z</time>
      </trkpt>
      <trkpt lat="48.73015" lon="1.93849">
        <ele>167.4</ele>
        <time>2026-01-13T11:02:24Z</time>
      </trkpt>
      <trkpt lat="48.73011" lon="1.93857">
        <ele>168.4</ele>
        <time>2026-01-13T11:02:25Z</time>
      </trkpt>
      <trkpt lat="48.73006" lon="1.93865">
        <ele>169</ele>
        <time>2026-01-13T11:02:26Z</time>
      </trkpt>
      <trkpt lat="48.73001" lon="1.93872">
        <ele>169</ele>
        <time>2026-01-13T11:02:27Z</time>
      </trkpt>
      <trkpt lat="48.72996" lon="1.93879">
        <ele>169</ele>
        <time>2026-01-13T11:02:28Z</time>
      </trkpt>
      <trkpt lat="48.72991" lon="1.93885">
        <ele>169</ele>
        <time>2026-01-13T11:02:29Z</time>
      </trkpt>
      <trkpt lat="48.72986" lon="1.93892">
        <ele>169</ele>
        <time>2026-01-13T11:02:30Z</time>
      </trkpt>
      <trkpt lat="48.72981" lon="1.93899">
        <ele>169.2</ele>
        <time>2026-01-13T11:02:31Z</time>
      </trkpt>
      <trkpt lat="48.72976" lon="1.93905">
        <ele>169.2</ele>
        <time>2026-01-13T11:02:32Z</time>
      </trkpt>
      <trkpt lat="48.7297" lon="1.93912">
        <ele>169.2</ele>
        <time>2026-01-13T11:02:33Z</time>
      </trkpt>
      <trkpt lat="48.72965" lon="1.93917">
        <ele>168.8</ele>
        <time>2026-01-13T11:02:34Z</time>
      </trkpt>
      <trkpt lat="48.7296" lon="1.93923">
        <ele>168.8</ele>
        <time>2026-01-13T11:02:35Z</time>
      </trkpt>
      <trkpt lat="48.72954" lon="1.93928">
        <ele>168.8</ele>
        <time>2026-01-13T11:02:36Z</time>
      </trkpt>
      <trkpt lat="48.72949" lon="1.93932">
        <ele>169.6</ele>
        <time>2026-01-13T11:02:37Z</time>
      </trkpt>
      <trkpt lat="48.72943" lon="1.93936">
        <ele>169.6</ele>
        <time>2026-01-13T11:02:38Z</time>
      </trkpt>
      <trkpt lat="48.72937" lon="1.9394">
        <ele>169.6</ele>
        <time>2026-01-13T11:02:39Z</time>
      </trkpt>
      <trkpt lat="48.72931" lon="1.93943">
        <ele>169.6</ele>
        <time>2026-01-13T11:02:40Z</time>
      </trkpt>
      <trkpt lat="48.72925" lon="1.93946">
        <ele>169.6</ele>
        <time>2026-01-13T11:02:41Z</time>
      </trkpt>
      <trkpt lat="48.72919" lon="1.93948">
        <ele>168.6</ele>
        <time>2026-01-13T11:02:42Z</time>
      </trkpt>
      <trkpt lat="48.72912" lon="1.93951">
        <ele>168.2</ele>
        <time>2026-01-13T11:02:43Z</time>
      </trkpt>
      <trkpt lat="48.72905" lon="1.93953">
        <ele>168.2</ele>
        <time>2026-01-13T11:02:44Z</time>
      </trkpt>
      <trkpt lat="48.72899" lon="1.93954">
        <ele>168.2</ele>
        <time>2026-01-13T11:02:45Z</time>
      </trkpt>
      <trkpt lat="48.72891" lon="1.93956">
        <ele>168.2</ele>
        <time>2026-01-13T11:02:46Z</time>
      </trkpt>
      <trkpt lat="48.72884" lon="1.93958">
        <ele>167.6</ele>
        <time>2026-01-13T11:02:47Z</time>
      </trkpt>
      <trkpt lat="48.72877" lon="1.93959">
        <ele>166.6</ele>
        <time>2026-01-13T11:02:48Z</time>
      </trkpt>
      <trkpt lat="48.72869" lon="1.9396">
        <ele>166.6</ele>
        <time>2026-01-13T11:02:49Z</time>
      </trkpt>
      <trkpt lat="48.72862" lon="1.93961">
        <ele>166.6</ele>
        <time>2026-01-13T11:02:50Z</time>
      </trkpt>
      <trkpt lat="48.72854" lon="1.93962">
        <ele>166.6</ele>
        <time>2026-01-13T11:02:51Z</time>
      </trkpt>
      <trkpt lat="48.72846" lon="1.93962">
        <ele>165.6</ele>
        <time>2026-01-13T11:02:52Z</time>
      </trkpt>
      <trkpt lat="48.72838" lon="1.93963">
        <ele>165</ele>
        <time>2026-01-13T11:02:53Z</time>
      </trkpt>
      <trkpt lat="48.7283" lon="1.93964">
        <ele>164</ele>
        <time>2026-01-13T11:02:54Z</time>
      </trkpt>
      <trkpt lat="48.72821" lon="1.93964">
        <ele>163.2</ele>
        <time>2026-01-13T11:02:55Z</time>
      </trkpt>
      <trkpt lat="48.72813" lon="1.93963">
        <ele>163.2</ele>
        <time>2026-01-13T11:02:56Z</time>
      </trkpt>
      <trkpt lat="48.72804" lon="1.93962">
        <ele>163.2</ele>
        <time>2026-01-13T11:02:57Z</time>
      </trkpt>
      <trkpt lat="48.72795" lon="1.9396">
        <ele>163.2</ele>
        <time>2026-01-13T11:02:58Z</time>
      </trkpt>
      <trkpt lat="48.72787" lon="1.93957">
        <ele>162.2</ele>
        <time>2026-01-13T11:02:59Z</time>
      </trkpt>
      <trkpt lat="48.72778" lon="1.93953">
        <ele>161.2</ele>
        <time>2026-01-13T11:03:00Z</time>
      </trkpt>
      <trkpt lat="48.72769" lon="1.93949">
        <ele>161.2</ele>
        <time>2026-01-13T11:03:01Z</time>
      </trkpt>
      <trkpt lat="48.72761" lon="1.93943">
        <ele>161.2</ele>
        <time>2026-01-13T11:03:02Z</time>
      </trkpt>
      <trkpt lat="48.72752" lon="1.93938">
        <ele>161.2</ele>
        <time>2026-01-13T11:03:03Z</time>
      </trkpt>
      <trkpt lat="48.72744" lon="1.93932">
        <ele>160.4</ele>
        <time>2026-01-13T11:03:04Z</time>
      </trkpt>
      <trkpt lat="48.72735" lon="1.93926">
        <ele>159.4</ele>
        <time>2026-01-13T11:03:05Z</time>
      </trkpt>
      <trkpt lat="48.72727" lon="1.9392">
        <ele>159.4</ele>
        <time>2026-01-13T11:03:06Z</time>
      </trkpt>
      <trkpt lat="48.72718" lon="1.93914">
        <ele>159.4</ele>
        <time>2026-01-13T11:03:07Z</time>
      </trkpt>
      <trkpt lat="48.7271" lon="1.93907">
        <ele>159.4</ele>
        <time>2026-01-13T11:03:08Z</time>
      </trkpt>
      <trkpt lat="48.72702" lon="1.93901">
        <ele>158.4</ele>
        <time>2026-01-13T11:03:09Z</time>
      </trkpt>
      <trkpt lat="48.72694" lon="1.93894">
        <ele>157.4</ele>
        <time>2026-01-13T11:03:10Z</time>
      </trkpt>
      <trkpt lat="48.72685" lon="1.93887">
        <ele>156.8</ele>
        <time>2026-01-13T11:03:11Z</time>
      </trkpt>
      <trkpt lat="48.72677" lon="1.93881">
        <ele>156.6</ele>
        <time>2026-01-13T11:03:12Z</time>
      </trkpt>
      <trkpt lat="48.72669" lon="1.93876">
        <ele>156</ele>
        <time>2026-01-13T11:03:13Z</time>
      </trkpt>
      <trkpt lat="48.72661" lon="1.93871">
        <ele>155.6</ele>
        <time>2026-01-13T11:03:14Z</time>
      </trkpt>
      <trkpt lat="48.72654" lon="1.93869">
        <ele>155.6</ele>
        <time>2026-01-13T11:03:15Z</time>
      </trkpt>
      <trkpt lat="48.72647" lon="1.93869">
        <ele>155.6</ele>
        <time>2026-01-13T11:03:16Z</time>
      </trkpt>
      <trkpt lat="48.7264" lon="1.93874">
        <ele>156.6</ele>
        <time>2026-01-13T11:03:17Z</time>
      </trkpt>
      <trkpt lat="48.72635" lon="1.93881">
        <ele>157.6</ele>
        <time>2026-01-13T11:03:18Z</time>
      </trkpt>
      <trkpt lat="48.72631" lon="1.93889">
        <ele>157.6</ele>
        <time>2026-01-13T11:03:19Z</time>
      </trkpt>
      <trkpt lat="48.72627" lon="1.93898">
        <ele>157.6</ele>
        <time>2026-01-13T11:03:20Z</time>
      </trkpt>
      <trkpt lat="48.72623" lon="1.93907">
        <ele>157.6</ele>
        <time>2026-01-13T11:03:21Z</time>
      </trkpt>
      <trkpt lat="48.7262" lon="1.93916">
        <ele>158.6</ele>
        <time>2026-01-13T11:03:22Z</time>
      </trkpt>
      <trkpt lat="48.72617" lon="1.93925">
        <ele>158.8</ele>
        <time>2026-01-13T11:03:23Z</time>
      </trkpt>
      <trkpt lat="48.72613" lon="1.93934">
        <ele>159.2</ele>
        <time>2026-01-13T11:03:24Z</time>
      </trkpt>
      <trkpt lat="48.7261" lon="1.93943">
        <ele>159.4</ele>
        <time>2026-01-13T11:03:25Z</time>
      </trkpt>
      <trkpt lat="48.72607" lon="1.93951">
        <ele>159.8</ele>
        <time>2026-01-13T11:03:26Z</time>
      </trkpt>
      <trkpt lat="48.72603" lon="1.93959">
        <ele>159.8</ele>
        <time>2026-01-13T11:03:27Z</time>
      </trkpt>
      <trkpt lat="48.726" lon="1.93966">
        <ele>159.8</ele>
        <time>2026-01-13T11:03:28Z</time>
      </trkpt>
      <trkpt lat="48.72597" lon="1.93974">
        <ele>159.8</ele>
        <time>2026-01-13T11:03:29Z</time>
      </trkpt>
      <trkpt lat="48.72594" lon="1.93981">
        <ele>159.8</ele>
        <time>2026-01-13T11:03:30Z</time>
      </trkpt>
      <trkpt lat="48.72591" lon="1.93989">
        <ele>160.8</ele>
        <time>2026-01-13T11:03:31Z</time>
      </trkpt>
      <trkpt lat="48.72588" lon="1.93996">
        <ele>160.8</ele>
        <time>2026-01-13T11:03:32Z</time>
      </trkpt>
      <trkpt lat="48.72585" lon="1.94003">
        <ele>160.8</ele>
        <time>2026-01-13T11:03:33Z</time>
      </trkpt>
      <trkpt lat="48.72582" lon="1.9401">
        <ele>160.8</ele>
        <time>2026-01-13T11:03:34Z</time>
      </trkpt>
      <trkpt lat="48.72579" lon="1.94017">
        <ele>161</ele>
        <time>2026-01-13T11:03:35Z</time>
      </trkpt>
      <trkpt lat="48.72576" lon="1.94024">
        <ele>161.6</ele>
        <time>2026-01-13T11:03:36Z</time>
      </trkpt>
      <trkpt lat="48.72573" lon="1.9403">
        <ele>161.8</ele>
        <time>2026-01-13T11:03:37Z</time>
      </trkpt>
      <trkpt lat="48.72569" lon="1.94037">
        <ele>161.8</ele>
        <time>2026-01-13T11:03:38Z</time>
      </trkpt>
      <trkpt lat="48.72566" lon="1.94044">
        <ele>161.8</ele>
        <time>2026-01-13T11:03:39Z</time>
      </trkpt>
      <trkpt lat="48.72563" lon="1.94051">
        <ele>161.2</ele>
        <time>2026-01-13T11:03:40Z</time>
      </trkpt>
      <trkpt lat="48.72561" lon="1.94058">
        <ele>161</ele>
        <time>2026-01-13T11:03:41Z</time>
      </trkpt>
      <trkpt lat="48.72558" lon="1.94064">
        <ele>161</ele>
        <time>2026-01-13T11:03:42Z</time>
      </trkpt>
      <trkpt lat="48.72556" lon="1.94071">
        <ele>161</ele>
        <time>2026-01-13T11:03:43Z</time>
      </trkpt>
      <trkpt lat="48.72553" lon="1.94078">
        <ele>161.6</ele>
        <time>2026-01-13T11:03:44Z</time>
      </trkpt>
      <trkpt lat="48.72551" lon="1.94085">
        <ele>162</ele>
        <time>2026-01-13T11:03:45Z</time>
      </trkpt>
      <trkpt lat="48.72549" lon="1.94093">
        <ele>162.2</ele>
        <time>2026-01-13T11:03:46Z</time>
      </trkpt>
      <trkpt lat="48.72547" lon="1.941">
        <ele>162.2</ele>
        <time>2026-01-13T11:03:47Z</time>
      </trkpt>
      <trkpt lat="48.72545" lon="1.94107">
        <ele>162.2</ele>
        <time>2026-01-13T11:03:48Z</time>
      </trkpt>
      <trkpt lat="48.72543" lon="1.94114">
        <ele>162</ele>
        <time>2026-01-13T11:03:49Z</time>
      </trkpt>
      <trkpt lat="48.72541" lon="1.94122">
        <ele>162</ele>
        <time>2026-01-13T11:03:50Z</time>
      </trkpt>
      <trkpt lat="48.72538" lon="1.94129">
        <ele>161.8</ele>
        <time>2026-01-13T11:03:51Z</time>
      </trkpt>
      <trkpt lat="48.72536" lon="1.94137">
        <ele>161.8</ele>
        <time>2026-01-13T11:03:52Z</time>
      </trkpt>
      <trkpt lat="48.72535" lon="1.94145">
        <ele>161.8</ele>
        <time>2026-01-13T11:03:53Z</time>
      </trkpt>
      <trkpt lat="48.72533" lon="1.94154">
        <ele>161.8</ele>
        <time>2026-01-13T11:03:54Z</time>
      </trkpt>
      <trkpt lat="48.72531" lon="1.94162">
        <ele>161.8</ele>
        <time>2026-01-13T11:03:55Z</time>
      </trkpt>
      <trkpt lat="48.7253" lon="1.94171">
        <ele>160.8</ele>
        <time>2026-01-13T11:03:56Z</time>
      </trkpt>
      <trkpt lat="48.72528" lon="1.9418">
        <ele>160.2</ele>
        <time>2026-01-13T11:03:57Z</time>
      </trkpt>
      <trkpt lat="48.72526" lon="1.94189">
        <ele>160.2</ele>
        <time>2026-01-13T11:03:58Z</time>
      </trkpt>
      <trkpt lat="48.72524" lon="1.94198">
        <ele>160.2</ele>
        <time>2026-01-13T11:03:59Z</time>
      </trkpt>
      <trkpt lat="48.72522" lon="1.94208">
        <ele>160.2</ele>
        <time>2026-01-13T11:04:00Z</time>
      </trkpt>
      <trkpt lat="48.7252" lon="1.94217">
        <ele>160.2</ele>
        <time>2026-01-13T11:04:01Z</time>
      </trkpt>
      <trkpt lat="48.72518" lon="1.94227">
        <ele>160.2</ele>
        <time>2026-01-13T11:04:02Z</time>
      </trkpt>
      <trkpt lat="48.72517" lon="1.94237">
        <ele>160.2</ele>
        <time>2026-01-13T11:04:03Z</time>
      </trkpt>
      <trkpt lat="48.72515" lon="1.94247">
        <ele>160.2</ele>
        <time>2026-01-13T11:04:04Z</time>
      </trkpt>
      <trkpt lat="48.72513" lon="1.94257">
        <ele>160.2</ele>
        <time>2026-01-13T11:04:05Z</time>
      </trkpt>
      <trkpt lat="48.72512" lon="1.94267">
        <ele>160.2</ele>
        <time>2026-01-13T11:04:06Z</time>
      </trkpt>
      <trkpt lat="48.7251" lon="1.94276">
        <ele>159.6</ele>
        <time>2026-01-13T11:04:07Z</time>
      </trkpt>
      <trkpt lat="48.72509" lon="1.94286">
        <ele>159.6</ele>
        <time>2026-01-13T11:04:08Z</time>
      </trkpt>
      <trkpt lat="48.72508" lon="1.94295">
        <ele>159.6</ele>
        <time>2026-01-13T11:04:09Z</time>
      </trkpt>
      <trkpt lat="48.72507" lon="1.94304">
        <ele>160.2</ele>
        <time>2026-01-13T11:04:10Z</time>
      </trkpt>
      <trkpt lat="48.72506" lon="1.94313">
        <ele>161.2</ele>
        <time>2026-01-13T11:04:11Z</time>
      </trkpt>
      <trkpt lat="48.72505" lon="1.94321">
        <ele>161.6</ele>
        <time>2026-01-13T11:04:12Z</time>
      </trkpt>
      <trkpt lat="48.72504" lon="1.94328">
        <ele>161.6</ele>
        <time>2026-01-13T11:04:13Z</time>
      </trkpt>
      <trkpt lat="48.72503" lon="1.94335">
        <ele>161.6</ele>
        <time>2026-01-13T11:04:14Z</time>
      </trkpt>
      <trkpt lat="48.72501" lon="1.94339">
        <ele>161.6</ele>
        <time>2026-01-13T11:04:15Z</time>
      </trkpt>
      <trkpt lat="48.725" lon="1.94343">
        <ele>162</ele>
        <time>2026-01-13T11:04:16Z</time>
      </trkpt>
      <trkpt lat="48.72499" lon="1.94348">
        <ele>162.2</ele>
        <time>2026-01-13T11:04:17Z</time>
      </trkpt>
      <trkpt lat="48.72498" lon="1.94352">
        <ele>162.2</ele>
        <time>2026-01-13T11:04:18Z</time>
      </trkpt>
      <trkpt lat="48.72497" lon="1.94357">
        <ele>162.2</ele>
        <time>2026-01-13T11:04:19Z</time>
      </trkpt>
      <trkpt lat="48.72497" lon="1.94362">
        <ele>162.2</ele>
        <time>2026-01-13T11:04:20Z</time>
      </trkpt>
      <trkpt lat="48.72496" lon="1.94367">
        <ele>162.2</ele>
        <time>2026-01-13T11:04:21Z</time>
      </trkpt>
      <trkpt lat="48.72495" lon="1.94372">
        <ele>162.4</ele>
        <time>2026-01-13T11:04:22Z</time>
      </trkpt>
      <trkpt lat="48.72493" lon="1.94378">
        <ele>162.8</ele>
        <time>2026-01-13T11:04:23Z</time>
      </trkpt>
      <trkpt lat="48.72493" lon="1.94384">
        <ele>162.8</ele>
        <time>2026-01-13T11:04:24Z</time>
      </trkpt>
      <trkpt lat="48.72491" lon="1.9439">
        <ele>162.8</ele>
        <time>2026-01-13T11:04:25Z</time>
      </trkpt>
      <trkpt lat="48.7249" lon="1.94397">
        <ele>162.8</ele>
        <time>2026-01-13T11:04:26Z</time>
      </trkpt>
      <trkpt lat="48.72489" lon="1.94404">
        <ele>162.8</ele>
        <time>2026-01-13T11:04:27Z</time>
      </trkpt>
      <trkpt lat="48.72487" lon="1.94411">
        <ele>162.8</ele>
        <time>2026-01-13T11:04:28Z</time>
      </trkpt>
      <trkpt lat="48.72486" lon="1.94417">
        <ele>163.6</ele>
        <time>2026-01-13T11:04:29Z</time>
      </trkpt>
      <trkpt lat="48.72484" lon="1.94423">
        <ele>163.6</ele>
        <time>2026-01-13T11:04:30Z</time>
      </trkpt>
      <trkpt lat="48.72483" lon="1.9443">
        <ele>163.6</ele>
        <time>2026-01-13T11:04:31Z</time>
      </trkpt>
      <trkpt lat="48.72481" lon="1.94437">
        <ele>163.6</ele>
        <time>2026-01-13T11:04:32Z</time>
      </trkpt>
      <trkpt lat="48.7248" lon="1.94444">
        <ele>163.2</ele>
        <time>2026-01-13T11:04:33Z</time>
      </trkpt>
      <trkpt lat="48.72479" lon="1.94452">
        <ele>163.2</ele>
        <time>2026-01-13T11:04:34Z</time>
      </trkpt>
      <trkpt lat="48.72477" lon="1.94459">
        <ele>163.2</ele>
        <time>2026-01-13T11:04:35Z</time>
      </trkpt>
      <trkpt lat="48.72475" lon="1.94466">
        <ele>163.2</ele>
        <time>2026-01-13T11:04:36Z</time>
      </trkpt>
      <trkpt lat="48.72474" lon="1.94473">
        <ele>163.2</ele>
        <time>2026-01-13T11:04:37Z</time>
      </trkpt>
      <trkpt lat="48.72472" lon="1.94481">
        <ele>162.4</ele>
        <time>2026-01-13T11:04:38Z</time>
      </trkpt>
      <trkpt lat="48.7247" lon="1.94489">
        <ele>162</ele>
        <time>2026-01-13T11:04:39Z</time>
      </trkpt>
      <trkpt lat="48.72468" lon="1.94497">
        <ele>162</ele>
        <time>2026-01-13T11:04:40Z</time>
      </trkpt>
      <trkpt lat="48.72465" lon="1.94505">
        <ele>161.6</ele>
        <time>2026-01-13T11:04:41Z</time>
      </trkpt>
      <trkpt lat="48.72463" lon="1.94514">
        <ele>161.6</ele>
        <time>2026-01-13T11:04:42Z</time>
      </trkpt>
      <trkpt lat="48.7246" lon="1.94522">
        <ele>160.6</ele>
        <time>2026-01-13T11:04:43Z</time>
      </trkpt>
      <trkpt lat="48.72456" lon="1.94531">
        <ele>159.6</ele>
        <time>2026-01-13T11:04:44Z</time>
      </trkpt>
      <trkpt lat="48.72451" lon="1.9454">
        <ele>158.6</ele>
        <time>2026-01-13T11:04:45Z</time>
      </trkpt>
      <trkpt lat="48.72446" lon="1.94549">
        <ele>157.6</ele>
        <time>2026-01-13T11:04:46Z</time>
      </trkpt>
      <trkpt lat="48.72441" lon="1.94559">
        <ele>156.6</ele>
        <time>2026-01-13T11:04:47Z</time>
      </trkpt>
      <trkpt lat="48.72435" lon="1.94568">
        <ele>155.6</ele>
        <time>2026-01-13T11:04:48Z</time>
      </trkpt>
      <trkpt lat="48.72429" lon="1.94578">
        <ele>154.6</ele>
        <time>2026-01-13T11:04:49Z</time>
      </trkpt>
      <trkpt lat="48.72423" lon="1.94588">
        <ele>153.6</ele>
        <time>2026-01-13T11:04:50Z</time>
      </trkpt>
      <trkpt lat="48.72416" lon="1.94598">
        <ele>153</ele>
        <time>2026-01-13T11:04:51Z</time>
      </trkpt>
      <trkpt lat="48.7241" lon="1.94607">
        <ele>152.8</ele>
        <time>2026-01-13T11:04:52Z</time>
      </trkpt>
      <trkpt lat="48.72404" lon="1.94617">
        <ele>152.8</ele>
        <time>2026-01-13T11:04:53Z</time>
      </trkpt>
      <trkpt lat="48.72399" lon="1.94627">
        <ele>152.8</ele>
        <time>2026-01-13T11:04:54Z</time>
      </trkpt>
      <trkpt lat="48.72394" lon="1.94637">
        <ele>153.4</ele>
        <time>2026-01-13T11:04:55Z</time>
      </trkpt>
      <trkpt lat="48.72389" lon="1.94647">
        <ele>153.4</ele>
        <time>2026-01-13T11:04:56Z</time>
      </trkpt>
      <trkpt lat="48.72385" lon="1.94659">
        <ele>153.4</ele>
        <time>2026-01-13T11:04:57Z</time>
      </trkpt>
      <trkpt lat="48.72382" lon="1.94672">
        <ele>153.4</ele>
        <time>2026-01-13T11:04:58Z</time>
      </trkpt>
      <trkpt lat="48.7238" lon="1.94685">
        <ele>153.4</ele>
        <time>2026-01-13T11:04:59Z</time>
      </trkpt>
      <trkpt lat="48.72377" lon="1.94698">
        <ele>152.4</ele>
        <time>2026-01-13T11:05:00Z</time>
      </trkpt>
      <trkpt lat="48.72374" lon="1.94711">
        <ele>151.4</ele>
        <time>2026-01-13T11:05:01Z</time>
      </trkpt>
      <trkpt lat="48.7237" lon="1.94723">
        <ele>150.4</ele>
        <time>2026-01-13T11:05:02Z</time>
      </trkpt>
      <trkpt lat="48.72366" lon="1.94735">
        <ele>149.8</ele>
        <time>2026-01-13T11:05:03Z</time>
      </trkpt>
      <trkpt lat="48.72361" lon="1.94746">
        <ele>149.8</ele>
        <time>2026-01-13T11:05:04Z</time>
      </trkpt>
      <trkpt lat="48.72357" lon="1.94758">
        <ele>149.8</ele>
        <time>2026-01-13T11:05:05Z</time>
      </trkpt>
      <trkpt lat="48.72352" lon="1.94769">
        <ele>149.8</ele>
        <time>2026-01-13T11:05:06Z</time>
      </trkpt>
      <trkpt lat="48.72348" lon="1.9478">
        <ele>149</ele>
        <time>2026-01-13T11:05:07Z</time>
      </trkpt>
      <trkpt lat="48.72344" lon="1.94792">
        <ele>148.4</ele>
        <time>2026-01-13T11:05:08Z</time>
      </trkpt>
      <trkpt lat="48.72339" lon="1.94803">
        <ele>148.4</ele>
        <time>2026-01-13T11:05:09Z</time>
      </trkpt>
      <trkpt lat="48.72335" lon="1.94814">
        <ele>148.4</ele>
        <time>2026-01-13T11:05:10Z</time>
      </trkpt>
      <trkpt lat="48.72331" lon="1.94826">
        <ele>148.4</ele>
        <time>2026-01-13T11:05:11Z</time>
      </trkpt>
      <trkpt lat="48.72326" lon="1.94837">
        <ele>148.4</ele>
        <time>2026-01-13T11:05:12Z</time>
      </trkpt>
      <trkpt lat="48.72321" lon="1.94849">
        <ele>147.4</ele>
        <time>2026-01-13T11:05:13Z</time>
      </trkpt>
      <trkpt lat="48.72316" lon="1.94859">
        <ele>146.4</ele>
        <time>2026-01-13T11:05:14Z</time>
      </trkpt>
      <trkpt lat="48.72311" lon="1.94867">
        <ele>145.6</ele>
        <time>2026-01-13T11:05:15Z</time>
      </trkpt>
      <trkpt lat="48.72306" lon="1.94873">
        <ele>144.6</ele>
        <time>2026-01-13T11:05:16Z</time>
      </trkpt>
      <trkpt lat="48.72301" lon="1.94881">
        <ele>143.6</ele>
        <time>2026-01-13T11:05:17Z</time>
      </trkpt>
      <trkpt lat="48.72295" lon="1.94888">
        <ele>142.6</ele>
        <time>2026-01-13T11:05:18Z</time>
      </trkpt>
      <trkpt lat="48.7229" lon="1.94895">
        <ele>141.6</ele>
        <time>2026-01-13T11:05:19Z</time>
      </trkpt>
      <trkpt lat="48.72284" lon="1.94902">
        <ele>140.6</ele>
        <time>2026-01-13T11:05:20Z</time>
      </trkpt>
      <trkpt lat="48.72279" lon="1.94908">
        <ele>139.6</ele>
        <time>2026-01-13T11:05:21Z</time>
      </trkpt>
      <trkpt lat="48.72274" lon="1.94916">
        <ele>138.6</ele>
        <time>2026-01-13T11:05:22Z</time>
      </trkpt>
      <trkpt lat="48.7227" lon="1.94924">
        <ele>137.6</ele>
        <time>2026-01-13T11:05:23Z</time>
      </trkpt>
      <trkpt lat="48.72266" lon="1.94933">
        <ele>136.6</ele>
        <time>2026-01-13T11:05:24Z</time>
      </trkpt>
      <trkpt lat="48.72263" lon="1.94943">
        <ele>135.6</ele>
        <time>2026-01-13T11:05:25Z</time>
      </trkpt>
      <trkpt lat="48.7226" lon="1.94954">
        <ele>134.6</ele>
        <time>2026-01-13T11:05:26Z</time>
      </trkpt>
      <trkpt lat="48.72258" lon="1.94965">
        <ele>133.6</ele>
        <time>2026-01-13T11:05:27Z</time>
      </trkpt>
      <trkpt lat="48.72255" lon="1.94978">
        <ele>132.6</ele>
        <time>2026-01-13T11:05:28Z</time>
      </trkpt>
      <trkpt lat="48.72253" lon="1.94991">
        <ele>131.6</ele>
        <time>2026-01-13T11:05:29Z</time>
      </trkpt>
      <trkpt lat="48.72252" lon="1.95003">
        <ele>130.6</ele>
        <time>2026-01-13T11:05:30Z</time>
      </trkpt>
      <trkpt lat="48.7225" lon="1.95016">
        <ele>129.6</ele>
        <time>2026-01-13T11:05:31Z</time>
      </trkpt>
      <trkpt lat="48.72247" lon="1.95029">
        <ele>128.6</ele>
        <time>2026-01-13T11:05:32Z</time>
      </trkpt>
      <trkpt lat="48.72245" lon="1.9504">
        <ele>127.6</ele>
        <time>2026-01-13T11:05:33Z</time>
      </trkpt>
      <trkpt lat="48.72243" lon="1.9505">
        <ele>126.6</ele>
        <time>2026-01-13T11:05:34Z</time>
      </trkpt>
      <trkpt lat="48.7224" lon="1.95062">
        <ele>125.6</ele>
        <time>2026-01-13T11:05:35Z</time>
      </trkpt>
      <trkpt lat="48.72237" lon="1.95072">
        <ele>124.6</ele>
        <time>2026-01-13T11:05:36Z</time>
      </trkpt>
      <trkpt lat="48.72235" lon="1.95081">
        <ele>123.6</ele>
        <time>2026-01-13T11:05:37Z</time>
      </trkpt>
      <trkpt lat="48.72233" lon="1.9509">
        <ele>122.6</ele>
        <time>2026-01-13T11:05:38Z</time>
      </trkpt>
      <trkpt lat="48.72231" lon="1.95097">
        <ele>121.6</ele>
        <time>2026-01-13T11:05:39Z</time>
      </trkpt>
      <trkpt lat="48.72229" lon="1.95104">
        <ele>121.6</ele>
        <time>2026-01-13T11:05:40Z</time>
      </trkpt>
      <trkpt lat="48.72227" lon="1.95109">
        <ele>121.6</ele>
        <time>2026-01-13T11:05:41Z</time>
      </trkpt>
      <trkpt lat="48.72226" lon="1.95113">
        <ele>121.6</ele>
        <time>2026-01-13T11:05:42Z</time>
      </trkpt>
      <trkpt lat="48.72223" lon="1.95114">
        <ele>121.6</ele>
        <time>2026-01-13T11:05:43Z</time>
      </trkpt>
      <trkpt lat="48.72221" lon="1.95111">
        <ele>121.2</ele>
        <time>2026-01-13T11:05:44Z</time>
      </trkpt>
      <trkpt lat="48.7222" lon="1.95107">
        <ele>120.2</ele>
        <time>2026-01-13T11:05:45Z</time>
      </trkpt>
      <trkpt lat="48.72219" lon="1.95102">
        <ele>119.2</ele>
        <time>2026-01-13T11:05:46Z</time>
      </trkpt>
      <trkpt lat="48.72217" lon="1.95096">
        <ele>119</ele>
        <time>2026-01-13T11:05:47Z</time>
      </trkpt>
      <trkpt lat="48.72215" lon="1.9509">
        <ele>119</ele>
        <time>2026-01-13T11:05:48Z</time>
      </trkpt>
      <trkpt lat="48.72213" lon="1.95082">
        <ele>119</ele>
        <time>2026-01-13T11:05:49Z</time>
      </trkpt>
      <trkpt lat="48.72211" lon="1.95074">
        <ele>119</ele>
        <time>2026-01-13T11:05:50Z</time>
      </trkpt>
      <trkpt lat="48.72209" lon="1.95066">
        <ele>118</ele>
        <time>2026-01-13T11:05:51Z</time>
      </trkpt>
      <trkpt lat="48.72207" lon="1.95057">
        <ele>117</ele>
        <time>2026-01-13T11:05:52Z</time>
      </trkpt>
      <trkpt lat="48.72205" lon="1.95047">
        <ele>116</ele>
        <time>2026-01-13T11:05:53Z</time>
      </trkpt>
      <trkpt lat="48.72202" lon="1.95037">
        <ele>115</ele>
        <time>2026-01-13T11:05:54Z</time>
      </trkpt>
      <trkpt lat="48.722" lon="1.95027">
        <ele>114</ele>
        <time>2026-01-13T11:05:55Z</time>
      </trkpt>
      <trkpt lat="48.72199" lon="1.95016">
        <ele>113.2</ele>
        <time>2026-01-13T11:05:56Z</time>
      </trkpt>
      <trkpt lat="48.72197" lon="1.95005">
        <ele>113.2</ele>
        <time>2026-01-13T11:05:57Z</time>
      </trkpt>
      <trkpt lat="48.72195" lon="1.94994">
        <ele>113.2</ele>
        <time>2026-01-13T11:05:58Z</time>
      </trkpt>
      <trkpt lat="48.72193" lon="1.94983">
        <ele>114</ele>
        <time>2026-01-13T11:05:59Z</time>
      </trkpt>
      <trkpt lat="48.72191" lon="1.94971">
        <ele>114</ele>
        <time>2026-01-13T11:06:00Z</time>
      </trkpt>
      <trkpt lat="48.72189" lon="1.94959">
        <ele>114</ele>
        <time>2026-01-13T11:06:01Z</time>
      </trkpt>
      <trkpt lat="48.72187" lon="1.94948">
        <ele>113</ele>
        <time>2026-01-13T11:06:02Z</time>
      </trkpt>
      <trkpt lat="48.72186" lon="1.94936">
        <ele>112.4</ele>
        <time>2026-01-13T11:06:03Z</time>
      </trkpt>
      <trkpt lat="48.72183" lon="1.94924">
        <ele>112.2</ele>
        <time>2026-01-13T11:06:04Z</time>
      </trkpt>
      <trkpt lat="48.72181" lon="1.94913">
        <ele>112.2</ele>
        <time>2026-01-13T11:06:05Z</time>
      </trkpt>
      <trkpt lat="48.72178" lon="1.94902">
        <ele>112.2</ele>
        <time>2026-01-13T11:06:06Z</time>
      </trkpt>
      <trkpt lat="48.72175" lon="1.94891">
        <ele>112.2</ele>
        <time>2026-01-13T11:06:07Z</time>
      </trkpt>
      <trkpt lat="48.7217" lon="1.94882">
        <ele>112.2</ele>
        <time>2026-01-13T11:06:08Z</time>
      </trkpt>
      <trkpt lat="48.72165" lon="1.94873">
        <ele>112.2</ele>
        <time>2026-01-13T11:06:09Z</time>
      </trkpt>
      <trkpt lat="48.7216" lon="1.94864">
        <ele>112.2</ele>
        <time>2026-01-13T11:06:10Z</time>
      </trkpt>
      <trkpt lat="48.72155" lon="1.94855">
        <ele>112.2</ele>
        <time>2026-01-13T11:06:11Z</time>
      </trkpt>
      <trkpt lat="48.72151" lon="1.94845">
        <ele>111.2</ele>
        <time>2026-01-13T11:06:12Z</time>
      </trkpt>
      <trkpt lat="48.72148" lon="1.94834">
        <ele>110.2</ele>
        <time>2026-01-13T11:06:13Z</time>
      </trkpt>
      <trkpt lat="48.72147" lon="1.94822">
        <ele>110.2</ele>
        <time>2026-01-13T11:06:14Z</time>
      </trkpt>
      <trkpt lat="48.72145" lon="1.9481">
        <ele>109.8</ele>
        <time>2026-01-13T11:06:15Z</time>
      </trkpt>
      <trkpt lat="48.72144" lon="1.94799">
        <ele>109.8</ele>
        <time>2026-01-13T11:06:16Z</time>
      </trkpt>
      <trkpt lat="48.72142" lon="1.94788">
        <ele>109.8</ele>
        <time>2026-01-13T11:06:17Z</time>
      </trkpt>
      <trkpt lat="48.7214" lon="1.94776">
        <ele>110.8</ele>
        <time>2026-01-13T11:06:18Z</time>
      </trkpt>
      <trkpt lat="48.72138" lon="1.94766">
        <ele>111</ele>
        <time>2026-01-13T11:06:19Z</time>
      </trkpt>
      <trkpt lat="48.72136" lon="1.94755">
        <ele>111.4</ele>
        <time>2026-01-13T11:06:20Z</time>
      </trkpt>
      <trkpt lat="48.72134" lon="1.94745">
        <ele>111.4</ele>
        <time>2026-01-13T11:06:21Z</time>
      </trkpt>
      <trkpt lat="48.72132" lon="1.94735">
        <ele>111.4</ele>
        <time>2026-01-13T11:06:22Z</time>
      </trkpt>
      <trkpt lat="48.7213" lon="1.94725">
        <ele>111.4</ele>
        <time>2026-01-13T11:06:23Z</time>
      </trkpt>
      <trkpt lat="48.72127" lon="1.94715">
        <ele>111.4</ele>
        <time>2026-01-13T11:06:24Z</time>
      </trkpt>
      <trkpt lat="48.72125" lon="1.94705">
        <ele>111.4</ele>
        <time>2026-01-13T11:06:25Z</time>
      </trkpt>
      <trkpt lat="48.72123" lon="1.94695">
        <ele>111.4</ele>
        <time>2026-01-13T11:06:26Z</time>
      </trkpt>
      <trkpt lat="48.7212" lon="1.94685">
        <ele>110.4</ele>
        <time>2026-01-13T11:06:27Z</time>
      </trkpt>
      <trkpt lat="48.72118" lon="1.94676">
        <ele>110</ele>
        <time>2026-01-13T11:06:28Z</time>
      </trkpt>
      <trkpt lat="48.72115" lon="1.94666">
        <ele>110</ele>
        <time>2026-01-13T11:06:29Z</time>
      </trkpt>
      <trkpt lat="48.72113" lon="1.94657">
        <ele>110</ele>
        <time>2026-01-13T11:06:30Z</time>
      </trkpt>
      <trkpt lat="48.7211" lon="1.94647">
        <ele>110</ele>
        <time>2026-01-13T11:06:31Z</time>
      </trkpt>
      <trkpt lat="48.72108" lon="1.94638">
        <ele>111</ele>
        <time>2026-01-13T11:06:32Z</time>
      </trkpt>
      <trkpt lat="48.72106" lon="1.94629">
        <ele>111.2</ele>
        <time>2026-01-13T11:06:33Z</time>
      </trkpt>
      <trkpt lat="48.72104" lon="1.9462">
        <ele>111.6</ele>
        <time>2026-01-13T11:06:34Z</time>
      </trkpt>
      <trkpt lat="48.72102" lon="1.94611">
        <ele>111.6</ele>
        <time>2026-01-13T11:06:35Z</time>
      </trkpt>
      <trkpt lat="48.721" lon="1.94602">
        <ele>111.6</ele>
        <time>2026-01-13T11:06:36Z</time>
      </trkpt>
      <trkpt lat="48.72099" lon="1.94594">
        <ele>111.6</ele>
        <time>2026-01-13T11:06:37Z</time>
      </trkpt>
      <trkpt lat="48.72097" lon="1.94585">
        <ele>111.6</ele>
        <time>2026-01-13T11:06:38Z</time>
      </trkpt>
      <trkpt lat="48.72096" lon="1.94576">
        <ele>111.6</ele>
        <time>2026-01-13T11:06:39Z</time>
      </trkpt>
      <trkpt lat="48.72093" lon="1.94567">
        <ele>112.4</ele>
        <time>2026-01-13T11:06:40Z</time>
      </trkpt>
      <trkpt lat="48.72091" lon="1.94558">
        <ele>112.8</ele>
        <time>2026-01-13T11:06:41Z</time>
      </trkpt>
      <trkpt lat="48.72089" lon="1.94548">
        <ele>112.8</ele>
        <time>2026-01-13T11:06:42Z</time>
      </trkpt>
      <trkpt lat="48.72087" lon="1.94538">
        <ele>112.8</ele>
        <time>2026-01-13T11:06:43Z</time>
      </trkpt>
      <trkpt lat="48.72085" lon="1.94529">
        <ele>112.6</ele>
        <time>2026-01-13T11:06:44Z</time>
      </trkpt>
      <trkpt lat="48.72084" lon="1.94519">
        <ele>112.6</ele>
        <time>2026-01-13T11:06:45Z</time>
      </trkpt>
      <trkpt lat="48.72083" lon="1.9451">
        <ele>112.6</ele>
        <time>2026-01-13T11:06:46Z</time>
      </trkpt>
      <trkpt lat="48.72082" lon="1.94501">
        <ele>113.6</ele>
        <time>2026-01-13T11:06:47Z</time>
      </trkpt>
      <trkpt lat="48.72081" lon="1.94492">
        <ele>113.6</ele>
        <time>2026-01-13T11:06:48Z</time>
      </trkpt>
      <trkpt lat="48.7208" lon="1.94483">
        <ele>113.6</ele>
        <time>2026-01-13T11:06:49Z</time>
      </trkpt>
      <trkpt lat="48.72079" lon="1.94474">
        <ele>113.6</ele>
        <time>2026-01-13T11:06:50Z</time>
      </trkpt>
      <trkpt lat="48.72078" lon="1.94465">
        <ele>113.6</ele>
        <time>2026-01-13T11:06:51Z</time>
      </trkpt>
      <trkpt lat="48.72078" lon="1.94455">
        <ele>113.6</ele>
        <time>2026-01-13T11:06:52Z</time>
      </trkpt>
      <trkpt lat="48.72077" lon="1.94445">
        <ele>113.6</ele>
        <time>2026-01-13T11:06:53Z</time>
      </trkpt>
      <trkpt lat="48.72076" lon="1.94436">
        <ele>113.4</ele>
        <time>2026-01-13T11:06:54Z</time>
      </trkpt>
      <trkpt lat="48.72074" lon="1.94426">
        <ele>113.2</ele>
        <time>2026-01-13T11:06:55Z</time>
      </trkpt>
      <trkpt lat="48.72073" lon="1.94417">
        <ele>113</ele>
        <time>2026-01-13T11:06:56Z</time>
      </trkpt>
      <trkpt lat="48.72072" lon="1.94408">
        <ele>113</ele>
        <time>2026-01-13T11:06:57Z</time>
      </trkpt>
      <trkpt lat="48.7207" lon="1.94399">
        <ele>113</ele>
        <time>2026-01-13T11:06:58Z</time>
      </trkpt>
      <trkpt lat="48.72068" lon="1.9439">
        <ele>114</ele>
        <time>2026-01-13T11:06:59Z</time>
      </trkpt>
      <trkpt lat="48.72066" lon="1.94382">
        <ele>114.8</ele>
        <time>2026-01-13T11:07:00Z</time>
      </trkpt>
      <trkpt lat="48.72064" lon="1.94373">
        <ele>114.8</ele>
        <time>2026-01-13T11:07:01Z</time>
      </trkpt>
      <trkpt lat="48.72062" lon="1.94366">
        <ele>114.8</ele>
        <time>2026-01-13T11:07:02Z</time>
      </trkpt>
      <trkpt lat="48.72061" lon="1.9436">
        <ele>114.8</ele>
        <time>2026-01-13T11:07:03Z</time>
      </trkpt>
      <trkpt lat="48.7206" lon="1.94352">
        <ele>114.8</ele>
        <time>2026-01-13T11:07:04Z</time>
      </trkpt>
      <trkpt lat="48.72058" lon="1.94346">
        <ele>115.8</ele>
        <time>2026-01-13T11:07:05Z</time>
      </trkpt>
      <trkpt lat="48.72056" lon="1.94339">
        <ele>115.8</ele>
        <time>2026-01-13T11:07:06Z</time>
      </trkpt>
      <trkpt lat="48.72054" lon="1.94332">
        <ele>115.8</ele>
        <time>2026-01-13T11:07:07Z</time>
      </trkpt>
      <trkpt lat="48.72053" lon="1.94326">
        <ele>115.8</ele>
        <time>2026-01-13T11:07:08Z</time>
      </trkpt>
      <trkpt lat="48.72051" lon="1.94318">
        <ele>115.8</ele>
        <time>2026-01-13T11:07:09Z</time>
      </trkpt>
      <trkpt lat="48.72048" lon="1.9431">
        <ele>115.8</ele>
        <time>2026-01-13T11:07:10Z</time>
      </trkpt>
      <trkpt lat="48.72045" lon="1.94302">
        <ele>115.8</ele>
        <time>2026-01-13T11:07:11Z</time>
      </trkpt>
      <trkpt lat="48.72042" lon="1.94293">
        <ele>115.2</ele>
        <time>2026-01-13T11:07:12Z</time>
      </trkpt>
      <trkpt lat="48.7204" lon="1.94284">
        <ele>115</ele>
        <time>2026-01-13T11:07:13Z</time>
      </trkpt>
      <trkpt lat="48.72038" lon="1.94275">
        <ele>115</ele>
        <time>2026-01-13T11:07:14Z</time>
      </trkpt>
      <trkpt lat="48.72036" lon="1.94265">
        <ele>115</ele>
        <time>2026-01-13T11:07:15Z</time>
      </trkpt>
      <trkpt lat="48.72034" lon="1.94256">
        <ele>115</ele>
        <time>2026-01-13T11:07:16Z</time>
      </trkpt>
      <trkpt lat="48.72032" lon="1.94246">
        <ele>114</ele>
        <time>2026-01-13T11:07:17Z</time>
      </trkpt>
      <trkpt lat="48.7203" lon="1.94236">
        <ele>113.8</ele>
        <time>2026-01-13T11:07:18Z</time>
      </trkpt>
      <trkpt lat="48.72028" lon="1.94227">
        <ele>113.8</ele>
        <time>2026-01-13T11:07:19Z</time>
      </trkpt>
      <trkpt lat="48.72026" lon="1.94217">
        <ele>113.8</ele>
        <time>2026-01-13T11:07:20Z</time>
      </trkpt>
      <trkpt lat="48.72025" lon="1.94207">
        <ele>114.2</ele>
        <time>2026-01-13T11:07:21Z</time>
      </trkpt>
      <trkpt lat="48.72024" lon="1.94197">
        <ele>114.6</ele>
        <time>2026-01-13T11:07:22Z</time>
      </trkpt>
      <trkpt lat="48.72024" lon="1.94187">
        <ele>114.6</ele>
        <time>2026-01-13T11:07:23Z</time>
      </trkpt>
      <trkpt lat="48.72024" lon="1.94176">
        <ele>114.6</ele>
        <time>2026-01-13T11:07:24Z</time>
      </trkpt>
      <trkpt lat="48.72024" lon="1.94166">
        <ele>114.6</ele>
        <time>2026-01-13T11:07:25Z</time>
      </trkpt>
      <trkpt lat="48.72025" lon="1.94157">
        <ele>114.6</ele>
        <time>2026-01-13T11:07:26Z</time>
      </trkpt>
      <trkpt lat="48.72026" lon="1.94147">
        <ele>114.6</ele>
        <time>2026-01-13T11:07:27Z</time>
      </trkpt>
      <trkpt lat="48.72027" lon="1.94137">
        <ele>114.6</ele>
        <time>2026-01-13T11:07:28Z</time>
      </trkpt>
      <trkpt lat="48.72028" lon="1.94127">
        <ele>114</ele>
        <time>2026-01-13T11:07:29Z</time>
      </trkpt>
      <trkpt lat="48.72028" lon="1.94117">
        <ele>114</ele>
        <time>2026-01-13T11:07:30Z</time>
      </trkpt>
      <trkpt lat="48.72029" lon="1.94107">
        <ele>114</ele>
        <time>2026-01-13T11:07:31Z</time>
      </trkpt>
      <trkpt lat="48.7203" lon="1.94097">
        <ele>115</ele>
        <time>2026-01-13T11:07:32Z</time>
      </trkpt>
      <trkpt lat="48.72031" lon="1.94087">
        <ele>115.8</ele>
        <time>2026-01-13T11:07:33Z</time>
      </trkpt>
      <trkpt lat="48.72032" lon="1.94077">
        <ele>115.8</ele>
        <time>2026-01-13T11:07:34Z</time>
      </trkpt>
      <trkpt lat="48.72033" lon="1.94068">
        <ele>115.8</ele>
        <time>2026-01-13T11:07:35Z</time>
      </trkpt>
      <trkpt lat="48.72033" lon="1.94058">
        <ele>115</ele>
        <time>2026-01-13T11:07:36Z</time>
      </trkpt>
      <trkpt lat="48.72034" lon="1.94049">
        <ele>115</ele>
        <time>2026-01-13T11:07:37Z</time>
      </trkpt>
      <trkpt lat="48.72034" lon="1.94039">
        <ele>115</ele>
        <time>2026-01-13T11:07:38Z</time>
      </trkpt>
      <trkpt lat="48.72033" lon="1.9403">
        <ele>115</ele>
        <time>2026-01-13T11:07:39Z</time>
      </trkpt>
      <trkpt lat="48.72033" lon="1.94021">
        <ele>115</ele>
        <time>2026-01-13T11:07:40Z</time>
      </trkpt>
      <trkpt lat="48.72033" lon="1.94014">
        <ele>116</ele>
        <time>2026-01-13T11:07:41Z</time>
      </trkpt>
      <trkpt lat="48.72033" lon="1.94006">
        <ele>116</ele>
        <time>2026-01-13T11:07:42Z</time>
      </trkpt>
      <trkpt lat="48.72034" lon="1.93997">
        <ele>116</ele>
        <time>2026-01-13T11:07:43Z</time>
      </trkpt>
      <trkpt lat="48.72034" lon="1.9399">
        <ele>116</ele>
        <time>2026-01-13T11:07:44Z</time>
      </trkpt>
      <trkpt lat="48.72034" lon="1.93981">
        <ele>116</ele>
        <time>2026-01-13T11:07:45Z</time>
      </trkpt>
      <trkpt lat="48.72035" lon="1.93971">
        <ele>116</ele>
        <time>2026-01-13T11:07:46Z</time>
      </trkpt>
      <trkpt lat="48.72034" lon="1.93963">
        <ele>116</ele>
        <time>2026-01-13T11:07:47Z</time>
      </trkpt>
      <trkpt lat="48.72035" lon="1.93955">
        <ele>116</ele>
        <time>2026-01-13T11:07:48Z</time>
      </trkpt>
      <trkpt lat="48.72036" lon="1.93946">
        <ele>116</ele>
        <time>2026-01-13T11:07:49Z</time>
      </trkpt>
      <trkpt lat="48.72038" lon="1.93937">
        <ele>115.4</ele>
        <time>2026-01-13T11:07:50Z</time>
      </trkpt>
      <trkpt lat="48.72039" lon="1.93929">
        <ele>114.8</ele>
        <time>2026-01-13T11:07:51Z</time>
      </trkpt>
      <trkpt lat="48.72039" lon="1.93919">
        <ele>114.8</ele>
        <time>2026-01-13T11:07:52Z</time>
      </trkpt>
      <trkpt lat="48.72039" lon="1.9391">
        <ele>114.8</ele>
        <time>2026-01-13T11:07:53Z</time>
      </trkpt>
      <trkpt lat="48.72038" lon="1.939">
        <ele>115.8</ele>
        <time>2026-01-13T11:07:54Z</time>
      </trkpt>
      <trkpt lat="48.72038" lon="1.93891">
        <ele>115.8</ele>
        <time>2026-01-13T11:07:55Z</time>
      </trkpt>
      <trkpt lat="48.72038" lon="1.93881">
        <ele>115.8</ele>
        <time>2026-01-13T11:07:56Z</time>
      </trkpt>
      <trkpt lat="48.72037" lon="1.93872">
        <ele>115.8</ele>
        <time>2026-01-13T11:07:57Z</time>
      </trkpt>
      <trkpt lat="48.72037" lon="1.93863">
        <ele>115.8</ele>
        <time>2026-01-13T11:07:58Z</time>
      </trkpt>
      <trkpt lat="48.72037" lon="1.93854">
        <ele>115.8</ele>
        <time>2026-01-13T11:07:59Z</time>
      </trkpt>
      <trkpt lat="48.72037" lon="1.93845">
        <ele>116.4</ele>
        <time>2026-01-13T11:08:00Z</time>
      </trkpt>
      <trkpt lat="48.72036" lon="1.93837">
        <ele>116.4</ele>
        <time>2026-01-13T11:08:01Z</time>
      </trkpt>
      <trkpt lat="48.72036" lon="1.93828">
        <ele>116.4</ele>
        <time>2026-01-13T11:08:02Z</time>
      </trkpt>
      <trkpt lat="48.72036" lon="1.9382">
        <ele>116.2</ele>
        <time>2026-01-13T11:08:03Z</time>
      </trkpt>
      <trkpt lat="48.72035" lon="1.93813">
        <ele>116.2</ele>
        <time>2026-01-13T11:08:04Z</time>
      </trkpt>
      <trkpt lat="48.72036" lon="1.93805">
        <ele>115.6</ele>
        <time>2026-01-13T11:08:05Z</time>
      </trkpt>
      <trkpt lat="48.72034" lon="1.93797">
        <ele>115.4</ele>
        <time>2026-01-13T11:08:06Z</time>
      </trkpt>
      <trkpt lat="48.72034" lon="1.93787">
        <ele>115.4</ele>
        <time>2026-01-13T11:08:07Z</time>
      </trkpt>
      <trkpt lat="48.72033" lon="1.93777">
        <ele>115.4</ele>
        <time>2026-01-13T11:08:08Z</time>
      </trkpt>
      <trkpt lat="48.72032" lon="1.93767">
        <ele>115.4</ele>
        <time>2026-01-13T11:08:09Z</time>
      </trkpt>
      <trkpt lat="48.72033" lon="1.9376">
        <ele>115.8</ele>
        <time>2026-01-13T11:08:10Z</time>
      </trkpt>
      <trkpt lat="48.72032" lon="1.93755">
        <ele>116.8</ele>
        <time>2026-01-13T11:08:11Z</time>
      </trkpt>
      <trkpt lat="48.72033" lon="1.93748">
        <ele>116.8</ele>
        <time>2026-01-13T11:08:12Z</time>
      </trkpt>
      <trkpt lat="48.72033" lon="1.9374">
        <ele>116.8</ele>
        <time>2026-01-13T11:08:13Z</time>
      </trkpt>
      <trkpt lat="48.72033" lon="1.93731">
        <ele>116.8</ele>
        <time>2026-01-13T11:08:14Z</time>
      </trkpt>
      <trkpt lat="48.72033" lon="1.93725">
        <ele>116.8</ele>
        <time>2026-01-13T11:08:15Z</time>
      </trkpt>
      <trkpt lat="48.72032" lon="1.93717">
        <ele>117.8</ele>
        <time>2026-01-13T11:08:16Z</time>
      </trkpt>
      <trkpt lat="48.72032" lon="1.93709">
        <ele>117.8</ele>
        <time>2026-01-13T11:08:17Z</time>
      </trkpt>
      <trkpt lat="48.72032" lon="1.937">
        <ele>117.8</ele>
        <time>2026-01-13T11:08:18Z</time>
      </trkpt>
      <trkpt lat="48.7203" lon="1.93693">
        <ele>117.8</ele>
        <time>2026-01-13T11:08:19Z</time>
      </trkpt>
      <trkpt lat="48.72031" lon="1.93686">
        <ele>117.8</ele>
        <time>2026-01-13T11:08:20Z</time>
      </trkpt>
      <trkpt lat="48.7203" lon="1.93677">
        <ele>117.8</ele>
        <time>2026-01-13T11:08:21Z</time>
      </trkpt>
      <trkpt lat="48.7203" lon="1.93669">
        <ele>117.8</ele>
        <time>2026-01-13T11:08:22Z</time>
      </trkpt>
      <trkpt lat="48.7203" lon="1.9366">
        <ele>117.8</ele>
        <time>2026-01-13T11:08:23Z</time>
      </trkpt>
      <trkpt lat="48.7203" lon="1.93651">
        <ele>117.8</ele>
        <time>2026-01-13T11:08:24Z</time>
      </trkpt>
      <trkpt lat="48.7203" lon="1.93641">
        <ele>117</ele>
        <time>2026-01-13T11:08:25Z</time>
      </trkpt>
      <trkpt lat="48.7203" lon="1.93635">
        <ele>117</ele>
        <time>2026-01-13T11:08:26Z</time>
      </trkpt>
      <trkpt lat="48.72032" lon="1.9363">
        <ele>117</ele>
        <time>2026-01-13T11:08:27Z</time>
      </trkpt>
      <trkpt lat="48.72033" lon="1.93624">
        <ele>117</ele>
        <time>2026-01-13T11:08:28Z</time>
      </trkpt>
      <trkpt lat="48.72034" lon="1.93616">
        <ele>117</ele>
        <time>2026-01-13T11:08:29Z</time>
      </trkpt>
      <trkpt lat="48.72035" lon="1.93607">
        <ele>116.6</ele>
        <time>2026-01-13T11:08:30Z</time>
      </trkpt>
      <trkpt lat="48.72035" lon="1.936">
        <ele>116.2</ele>
        <time>2026-01-13T11:08:31Z</time>
      </trkpt>
      <trkpt lat="48.72036" lon="1.93593">
        <ele>116.2</ele>
        <time>2026-01-13T11:08:32Z</time>
      </trkpt>
      <trkpt lat="48.72036" lon="1.93585">
        <ele>116.2</ele>
        <time>2026-01-13T11:08:33Z</time>
      </trkpt>
      <trkpt lat="48.72035" lon="1.93572">
        <ele>117.2</ele>
        <time>2026-01-13T11:08:34Z</time>
      </trkpt>
      <trkpt lat="48.72035" lon="1.93564">
        <ele>117.2</ele>
        <time>2026-01-13T11:08:35Z</time>
      </trkpt>
      <trkpt lat="48.72035" lon="1.93557">
        <ele>117.2</ele>
        <time>2026-01-13T11:08:36Z</time>
      </trkpt>
      <trkpt lat="48.72035" lon="1.93547">
        <ele>117.2</ele>
        <time>2026-01-13T11:08:37Z</time>
      </trkpt>
      <trkpt lat="48.72034" lon="1.93538">
        <ele>117.2</ele>
        <time>2026-01-13T11:08:38Z</time>
      </trkpt>
      <trkpt lat="48.72034" lon="1.93529">
        <ele>117.2</ele>
        <time>2026-01-13T11:08:39Z</time>
      </trkpt>
      <trkpt lat="48.72032" lon="1.93516">
        <ele>117.2</ele>
        <time>2026-01-13T11:08:40Z</time>
      </trkpt>
      <trkpt lat="48.72031" lon="1.93506">
        <ele>117.4</ele>
        <time>2026-01-13T11:08:41Z</time>
      </trkpt>
      <trkpt lat="48.72029" lon="1.93494">
        <ele>117.4</ele>
        <time>2026-01-13T11:08:42Z</time>
      </trkpt>
      <trkpt lat="48.72028" lon="1.93482">
        <ele>117.4</ele>
        <time>2026-01-13T11:08:43Z</time>
      </trkpt>
      <trkpt lat="48.72026" lon="1.9347">
        <ele>117.2</ele>
        <time>2026-01-13T11:08:44Z</time>
      </trkpt>
      <trkpt lat="48.72023" lon="1.93459">
        <ele>117.2</ele>
        <time>2026-01-13T11:08:45Z</time>
      </trkpt>
      <trkpt lat="48.72021" lon="1.93447">
        <ele>117.2</ele>
        <time>2026-01-13T11:08:46Z</time>
      </trkpt>
      <trkpt lat="48.72019" lon="1.93435">
        <ele>117.6</ele>
        <time>2026-01-13T11:08:47Z</time>
      </trkpt>
      <trkpt lat="48.72017" lon="1.93425">
        <ele>118</ele>
        <time>2026-01-13T11:08:48Z</time>
      </trkpt>
      <trkpt lat="48.72015" lon="1.93416">
        <ele>118.4</ele>
        <time>2026-01-13T11:08:49Z</time>
      </trkpt>
      <trkpt lat="48.72014" lon="1.93407">
        <ele>118.4</ele>
        <time>2026-01-13T11:08:50Z</time>
      </trkpt>
      <trkpt lat="48.72013" lon="1.93398">
        <ele>118.4</ele>
        <time>2026-01-13T11:08:51Z</time>
      </trkpt>
      <trkpt lat="48.72013" lon="1.93389">
        <ele>118.4</ele>
        <time>2026-01-13T11:08:52Z</time>
      </trkpt>
      <trkpt lat="48.72011" lon="1.93378">
        <ele>118.4</ele>
        <time>2026-01-13T11:08:53Z</time>
      </trkpt>
      <trkpt lat="48.7201" lon="1.9337">
        <ele>119</ele>
        <time>2026-01-13T11:08:54Z</time>
      </trkpt>
      <trkpt lat="48.72009" lon="1.9336">
        <ele>119</ele>
        <time>2026-01-13T11:08:55Z</time>
      </trkpt>
      <trkpt lat="48.72007" lon="1.9335">
        <ele>119</ele>
        <time>2026-01-13T11:08:56Z</time>
      </trkpt>
      <trkpt lat="48.72007" lon="1.93341">
        <ele>118.2</ele>
        <time>2026-01-13T11:08:57Z</time>
      </trkpt>
      <trkpt lat="48.72007" lon="1.9333">
        <ele>118.2</ele>
        <time>2026-01-13T11:08:58Z</time>
      </trkpt>
      <trkpt lat="48.72007" lon="1.9332">
        <ele>118.2</ele>
        <time>2026-01-13T11:08:59Z</time>
      </trkpt>
      <trkpt lat="48.72007" lon="1.93311">
        <ele>118.2</ele>
        <time>2026-01-13T11:09:00Z</time>
      </trkpt>
      <trkpt lat="48.72009" lon="1.93301">
        <ele>118.2</ele>
        <time>2026-01-13T11:09:01Z</time>
      </trkpt>
      <trkpt lat="48.7201" lon="1.93293">
        <ele>118.2</ele>
        <time>2026-01-13T11:09:02Z</time>
      </trkpt>
      <trkpt lat="48.72011" lon="1.93284">
        <ele>119</ele>
        <time>2026-01-13T11:09:03Z</time>
      </trkpt>
      <trkpt lat="48.72014" lon="1.93276">
        <ele>119</ele>
        <time>2026-01-13T11:09:04Z</time>
      </trkpt>
      <trkpt lat="48.72016" lon="1.93268">
        <ele>119</ele>
        <time>2026-01-13T11:09:05Z</time>
      </trkpt>
      <trkpt lat="48.72018" lon="1.93261">
        <ele>118.8</ele>
        <time>2026-01-13T11:09:06Z</time>
      </trkpt>
      <trkpt lat="48.7202" lon="1.93252">
        <ele>118.4</ele>
        <time>2026-01-13T11:09:07Z</time>
      </trkpt>
      <trkpt lat="48.72022" lon="1.93245">
        <ele>118.4</ele>
        <time>2026-01-13T11:09:08Z</time>
      </trkpt>
      <trkpt lat="48.72024" lon="1.93238">
        <ele>118.4</ele>
        <time>2026-01-13T11:09:09Z</time>
      </trkpt>
      <trkpt lat="48.72025" lon="1.9323">
        <ele>118.8</ele>
        <time>2026-01-13T11:09:10Z</time>
      </trkpt>
      <trkpt lat="48.72027" lon="1.93223">
        <ele>119</ele>
        <time>2026-01-13T11:09:11Z</time>
      </trkpt>
      <trkpt lat="48.72029" lon="1.93217">
        <ele>119.2</ele>
        <time>2026-01-13T11:09:12Z</time>
      </trkpt>
      <trkpt lat="48.7203" lon="1.9321">
        <ele>119.4</ele>
        <time>2026-01-13T11:09:13Z</time>
      </trkpt>
      <trkpt lat="48.72031" lon="1.93203">
        <ele>119.6</ele>
        <time>2026-01-13T11:09:14Z</time>
      </trkpt>
      <trkpt lat="48.72033" lon="1.93194">
        <ele>119.6</ele>
        <time>2026-01-13T11:09:15Z</time>
      </trkpt>
      <trkpt lat="48.72034" lon="1.93184">
        <ele>120</ele>
        <time>2026-01-13T11:09:16Z</time>
      </trkpt>
      <trkpt lat="48.72036" lon="1.93176">
        <ele>120</ele>
        <time>2026-01-13T11:09:17Z</time>
      </trkpt>
      <trkpt lat="48.72037" lon="1.93166">
        <ele>120</ele>
        <time>2026-01-13T11:09:18Z</time>
      </trkpt>
      <trkpt lat="48.72038" lon="1.93157">
        <ele>120</ele>
        <time>2026-01-13T11:09:19Z</time>
      </trkpt>
      <trkpt lat="48.72039" lon="1.9315">
        <ele>120</ele>
        <time>2026-01-13T11:09:20Z</time>
      </trkpt>
      <trkpt lat="48.72041" lon="1.93143">
        <ele>120</ele>
        <time>2026-01-13T11:09:21Z</time>
      </trkpt>
      <trkpt lat="48.72043" lon="1.93135">
        <ele>120</ele>
        <time>2026-01-13T11:09:22Z</time>
      </trkpt>
      <trkpt lat="48.72045" lon="1.93127">
        <ele>120</ele>
        <time>2026-01-13T11:09:23Z</time>
      </trkpt>
      <trkpt lat="48.72047" lon="1.9312">
        <ele>120.6</ele>
        <time>2026-01-13T11:09:24Z</time>
      </trkpt>
      <trkpt lat="48.72049" lon="1.93113">
        <ele>120.6</ele>
        <time>2026-01-13T11:09:25Z</time>
      </trkpt>
      <trkpt lat="48.72051" lon="1.93105">
        <ele>120.6</ele>
        <time>2026-01-13T11:09:26Z</time>
      </trkpt>
      <trkpt lat="48.72052" lon="1.93096">
        <ele>120</ele>
        <time>2026-01-13T11:09:27Z</time>
      </trkpt>
      <trkpt lat="48.72052" lon="1.93085">
        <ele>120</ele>
        <time>2026-01-13T11:09:28Z</time>
      </trkpt>
      <trkpt lat="48.72053" lon="1.93074">
        <ele>120</ele>
        <time>2026-01-13T11:09:29Z</time>
      </trkpt>
      <trkpt lat="48.72053" lon="1.93062">
        <ele>120.6</ele>
        <time>2026-01-13T11:09:30Z</time>
      </trkpt>
      <trkpt lat="48.72054" lon="1.93051">
        <ele>120.8</ele>
        <time>2026-01-13T11:09:31Z</time>
      </trkpt>
      <trkpt lat="48.72054" lon="1.93041">
        <ele>121</ele>
        <time>2026-01-13T11:09:32Z</time>
      </trkpt>
      <trkpt lat="48.72055" lon="1.9303">
        <ele>121.2</ele>
        <time>2026-01-13T11:09:33Z</time>
      </trkpt>
      <trkpt lat="48.72055" lon="1.9302">
        <ele>121.2</ele>
        <time>2026-01-13T11:09:34Z</time>
      </trkpt>
      <trkpt lat="48.72055" lon="1.93011">
        <ele>121.2</ele>
        <time>2026-01-13T11:09:35Z</time>
      </trkpt>
      <trkpt lat="48.72055" lon="1.93001">
        <ele>121.2</ele>
        <time>2026-01-13T11:09:36Z</time>
      </trkpt>
      <trkpt lat="48.72054" lon="1.92993">
        <ele>121</ele>
        <time>2026-01-13T11:09:37Z</time>
      </trkpt>
      <trkpt lat="48.72055" lon="1.92984">
        <ele>121</ele>
        <time>2026-01-13T11:09:38Z</time>
      </trkpt>
      <trkpt lat="48.72056" lon="1.92977">
        <ele>121</ele>
        <time>2026-01-13T11:09:39Z</time>
      </trkpt>
      <trkpt lat="48.72057" lon="1.92967">
        <ele>121</ele>
        <time>2026-01-13T11:09:40Z</time>
      </trkpt>
      <trkpt lat="48.72058" lon="1.92958">
        <ele>121</ele>
        <time>2026-01-13T11:09:41Z</time>
      </trkpt>
      <trkpt lat="48.72059" lon="1.9295">
        <ele>121</ele>
        <time>2026-01-13T11:09:42Z</time>
      </trkpt>
      <trkpt lat="48.72061" lon="1.92941">
        <ele>121</ele>
        <time>2026-01-13T11:09:43Z</time>
      </trkpt>
      <trkpt lat="48.72063" lon="1.92932">
        <ele>120.6</ele>
        <time>2026-01-13T11:09:44Z</time>
      </trkpt>
      <trkpt lat="48.72065" lon="1.92923">
        <ele>120.2</ele>
        <time>2026-01-13T11:09:45Z</time>
      </trkpt>
      <trkpt lat="48.72067" lon="1.92914">
        <ele>120.2</ele>
        <time>2026-01-13T11:09:46Z</time>
      </trkpt>
      <trkpt lat="48.72068" lon="1.92904">
        <ele>120.2</ele>
        <time>2026-01-13T11:09:47Z</time>
      </trkpt>
      <trkpt lat="48.72071" lon="1.92895">
        <ele>121.2</ele>
        <time>2026-01-13T11:09:48Z</time>
      </trkpt>
      <trkpt lat="48.72074" lon="1.92888">
        <ele>121.6</ele>
        <time>2026-01-13T11:09:49Z</time>
      </trkpt>
      <trkpt lat="48.72077" lon="1.92883">
        <ele>121.8</ele>
        <time>2026-01-13T11:09:50Z</time>
      </trkpt>
      <trkpt lat="48.7208" lon="1.92877">
        <ele>121.8</ele>
        <time>2026-01-13T11:09:51Z</time>
      </trkpt>
      <trkpt lat="48.72082" lon="1.92868">
        <ele>121.8</ele>
        <time>2026-01-13T11:09:52Z</time>
      </trkpt>
      <trkpt lat="48.72085" lon="1.92861">
        <ele>121.8</ele>
        <time>2026-01-13T11:09:53Z</time>
      </trkpt>
      <trkpt lat="48.72088" lon="1.92853">
        <ele>121.8</ele>
        <time>2026-01-13T11:09:54Z</time>
      </trkpt>
      <trkpt lat="48.72091" lon="1.92844">
        <ele>121.8</ele>
        <time>2026-01-13T11:09:55Z</time>
      </trkpt>
      <trkpt lat="48.72093" lon="1.92836">
        <ele>122.6</ele>
        <time>2026-01-13T11:09:56Z</time>
      </trkpt>
      <trkpt lat="48.72096" lon="1.92827">
        <ele>122.8</ele>
        <time>2026-01-13T11:09:57Z</time>
      </trkpt>
      <trkpt lat="48.72098" lon="1.92818">
        <ele>122.8</ele>
        <time>2026-01-13T11:09:58Z</time>
      </trkpt>
      <trkpt lat="48.72101" lon="1.9281">
        <ele>122.8</ele>
        <time>2026-01-13T11:09:59Z</time>
      </trkpt>
      <trkpt lat="48.72103" lon="1.92803">
        <ele>122.6</ele>
        <time>2026-01-13T11:10:00Z</time>
      </trkpt>
      <trkpt lat="48.72105" lon="1.92796">
        <ele>122.4</ele>
        <time>2026-01-13T11:10:01Z</time>
      </trkpt>
      <trkpt lat="48.72108" lon="1.92789">
        <ele>122.4</ele>
        <time>2026-01-13T11:10:02Z</time>
      </trkpt>
      <trkpt lat="48.72111" lon="1.92781">
        <ele>122.4</ele>
        <time>2026-01-13T11:10:03Z</time>
      </trkpt>
      <trkpt lat="48.72113" lon="1.92774">
        <ele>123.2</ele>
        <time>2026-01-13T11:10:04Z</time>
      </trkpt>
      <trkpt lat="48.72116" lon="1.92766">
        <ele>123.2</ele>
        <time>2026-01-13T11:10:05Z</time>
      </trkpt>
      <trkpt lat="48.72118" lon="1.92759">
        <ele>123.2</ele>
        <time>2026-01-13T11:10:06Z</time>
      </trkpt>
      <trkpt lat="48.7212" lon="1.92752">
        <ele>123.2</ele>
        <time>2026-01-13T11:10:07Z</time>
      </trkpt>
      <trkpt lat="48.72122" lon="1.92745">
        <ele>123.6</ele>
        <time>2026-01-13T11:10:08Z</time>
      </trkpt>
      <trkpt lat="48.72124" lon="1.92734">
        <ele>123.6</ele>
        <time>2026-01-13T11:10:09Z</time>
      </trkpt>
      <trkpt lat="48.72127" lon="1.92725">
        <ele>123.6</ele>
        <time>2026-01-13T11:10:10Z</time>
      </trkpt>
      <trkpt lat="48.7213" lon="1.92717">
        <ele>123</ele>
        <time>2026-01-13T11:10:11Z</time>
      </trkpt>
      <trkpt lat="48.72132" lon="1.92708">
        <ele>122.6</ele>
        <time>2026-01-13T11:10:12Z</time>
      </trkpt>
      <trkpt lat="48.72133" lon="1.92698">
        <ele>122.6</ele>
        <time>2026-01-13T11:10:13Z</time>
      </trkpt>
      <trkpt lat="48.72135" lon="1.92689">
        <ele>122.6</ele>
        <time>2026-01-13T11:10:14Z</time>
      </trkpt>
      <trkpt lat="48.72139" lon="1.92682">
        <ele>122.6</ele>
        <time>2026-01-13T11:10:15Z</time>
      </trkpt>
      <trkpt lat="48.72142" lon="1.92675">
        <ele>122.6</ele>
        <time>2026-01-13T11:10:16Z</time>
      </trkpt>
      <trkpt lat="48.72145" lon="1.92666">
        <ele>122.6</ele>
        <time>2026-01-13T11:10:17Z</time>
      </trkpt>
      <trkpt lat="48.72149" lon="1.92659">
        <ele>122.6</ele>
        <time>2026-01-13T11:10:18Z</time>
      </trkpt>
      <trkpt lat="48.72151" lon="1.92648">
        <ele>122.6</ele>
        <time>2026-01-13T11:10:19Z</time>
      </trkpt>
      <trkpt lat="48.72153" lon="1.92635">
        <ele>122</ele>
        <time>2026-01-13T11:10:20Z</time>
      </trkpt>
      <trkpt lat="48.72156" lon="1.92626">
        <ele>121.6</ele>
        <time>2026-01-13T11:10:21Z</time>
      </trkpt>
      <trkpt lat="48.72159" lon="1.92616">
        <ele>121.6</ele>
        <time>2026-01-13T11:10:22Z</time>
      </trkpt>
      <trkpt lat="48.72161" lon="1.92607">
        <ele>121.6</ele>
        <time>2026-01-13T11:10:23Z</time>
      </trkpt>
      <trkpt lat="48.72164" lon="1.92598">
        <ele>121.6</ele>
        <time>2026-01-13T11:10:24Z</time>
      </trkpt>
      <trkpt lat="48.72167" lon="1.92589">
        <ele>121.6</ele>
        <time>2026-01-13T11:10:25Z</time>
      </trkpt>
      <trkpt lat="48.7217" lon="1.9258">
        <ele>121.8</ele>
        <time>2026-01-13T11:10:26Z</time>
      </trkpt>
      <trkpt lat="48.72173" lon="1.92571">
        <ele>121.8</ele>
        <time>2026-01-13T11:10:27Z</time>
      </trkpt>
      <trkpt lat="48.72175" lon="1.92561">
        <ele>122</ele>
        <time>2026-01-13T11:10:28Z</time>
      </trkpt>
      <trkpt lat="48.72178" lon="1.92553">
        <ele>122.2</ele>
        <time>2026-01-13T11:10:29Z</time>
      </trkpt>
      <trkpt lat="48.7218" lon="1.92543">
        <ele>122.2</ele>
        <time>2026-01-13T11:10:30Z</time>
      </trkpt>
      <trkpt lat="48.72182" lon="1.92533">
        <ele>122.2</ele>
        <time>2026-01-13T11:10:31Z</time>
      </trkpt>
      <trkpt lat="48.72184" lon="1.92522">
        <ele>122.6</ele>
        <time>2026-01-13T11:10:32Z</time>
      </trkpt>
      <trkpt lat="48.72187" lon="1.92513">
        <ele>122.6</ele>
        <time>2026-01-13T11:10:33Z</time>
      </trkpt>
      <trkpt lat="48.72189" lon="1.92503">
        <ele>122.6</ele>
        <time>2026-01-13T11:10:34Z</time>
      </trkpt>
      <trkpt lat="48.72192" lon="1.92493">
        <ele>122.4</ele>
        <time>2026-01-13T11:10:35Z</time>
      </trkpt>
      <trkpt lat="48.72194" lon="1.92484">
        <ele>122.2</ele>
        <time>2026-01-13T11:10:36Z</time>
      </trkpt>
      <trkpt lat="48.72196" lon="1.92475">
        <ele>122.2</ele>
        <time>2026-01-13T11:10:37Z</time>
      </trkpt>
      <trkpt lat="48.72198" lon="1.92467">
        <ele>122.2</ele>
        <time>2026-01-13T11:10:38Z</time>
      </trkpt>
      <trkpt lat="48.72201" lon="1.92458">
        <ele>122.6</ele>
        <time>2026-01-13T11:10:39Z</time>
      </trkpt>
      <trkpt lat="48.72204" lon="1.9245">
        <ele>122.6</ele>
        <time>2026-01-13T11:10:40Z</time>
      </trkpt>
      <trkpt lat="48.72206" lon="1.92441">
        <ele>122.6</ele>
        <time>2026-01-13T11:10:41Z</time>
      </trkpt>
      <trkpt lat="48.72208" lon="1.92433">
        <ele>122.6</ele>
        <time>2026-01-13T11:10:42Z</time>
      </trkpt>
      <trkpt lat="48.72211" lon="1.92425">
        <ele>122.6</ele>
        <time>2026-01-13T11:10:43Z</time>
      </trkpt>
      <trkpt lat="48.72213" lon="1.92417">
        <ele>123.6</ele>
        <time>2026-01-13T11:10:44Z</time>
      </trkpt>
      <trkpt lat="48.72215" lon="1.9241">
        <ele>123.6</ele>
        <time>2026-01-13T11:10:45Z</time>
      </trkpt>
      <trkpt lat="48.72217" lon="1.92402">
        <ele>123.6</ele>
        <time>2026-01-13T11:10:46Z</time>
      </trkpt>
      <trkpt lat="48.72218" lon="1.92395">
        <ele>123.6</ele>
        <time>2026-01-13T11:10:47Z</time>
      </trkpt>
      <trkpt lat="48.7222" lon="1.92387">
        <ele>124.4</ele>
        <time>2026-01-13T11:10:48Z</time>
      </trkpt>
      <trkpt lat="48.72222" lon="1.92379">
        <ele>124.4</ele>
        <time>2026-01-13T11:10:49Z</time>
      </trkpt>
      <trkpt lat="48.72224" lon="1.92372">
        <ele>124.4</ele>
        <time>2026-01-13T11:10:50Z</time>
      </trkpt>
      <trkpt lat="48.72227" lon="1.92364">
        <ele>124.4</ele>
        <time>2026-01-13T11:10:51Z</time>
      </trkpt>
      <trkpt lat="48.72229" lon="1.92357">
        <ele>125</ele>
        <time>2026-01-13T11:10:52Z</time>
      </trkpt>
      <trkpt lat="48.72232" lon="1.9235">
        <ele>125</ele>
        <time>2026-01-13T11:10:53Z</time>
      </trkpt>
      <trkpt lat="48.72234" lon="1.92342">
        <ele>125</ele>
        <time>2026-01-13T11:10:54Z</time>
      </trkpt>
      <trkpt lat="48.72237" lon="1.92335">
        <ele>125</ele>
        <time>2026-01-13T11:10:55Z</time>
      </trkpt>
      <trkpt lat="48.7224" lon="1.92328">
        <ele>124.6</ele>
        <time>2026-01-13T11:10:56Z</time>
      </trkpt>
      <trkpt lat="48.72244" lon="1.92322">
        <ele>124.4</ele>
        <time>2026-01-13T11:10:57Z</time>
      </trkpt>
      <trkpt lat="48.72248" lon="1.92316">
        <ele>124.4</ele>
        <time>2026-01-13T11:10:58Z</time>
      </trkpt>
      <trkpt lat="48.72251" lon="1.9231">
        <ele>124.4</ele>
        <time>2026-01-13T11:10:59Z</time>
      </trkpt>
      <trkpt lat="48.72255" lon="1.92305">
        <ele>124.4</ele>
        <time>2026-01-13T11:11:00Z</time>
      </trkpt>
      <trkpt lat="48.72259" lon="1.923">
        <ele>124.8</ele>
        <time>2026-01-13T11:11:01Z</time>
      </trkpt>
      <trkpt lat="48.72262" lon="1.92295">
        <ele>125</ele>
        <time>2026-01-13T11:11:02Z</time>
      </trkpt>
      <trkpt lat="48.72266" lon="1.92289">
        <ele>125</ele>
        <time>2026-01-13T11:11:03Z</time>
      </trkpt>
      <trkpt lat="48.7227" lon="1.92283">
        <ele>125</ele>
        <time>2026-01-13T11:11:04Z</time>
      </trkpt>
      <trkpt lat="48.72273" lon="1.92277">
        <ele>125</ele>
        <time>2026-01-13T11:11:05Z</time>
      </trkpt>
      <trkpt lat="48.72277" lon="1.92272">
        <ele>125</ele>
        <time>2026-01-13T11:11:06Z</time>
      </trkpt>
      <trkpt lat="48.72281" lon="1.92267">
        <ele>125.8</ele>
        <time>2026-01-13T11:11:07Z</time>
      </trkpt>
      <trkpt lat="48.72284" lon="1.92261">
        <ele>125.8</ele>
        <time>2026-01-13T11:11:08Z</time>
      </trkpt>
      <trkpt lat="48.72288" lon="1.92256">
        <ele>125.8</ele>
        <time>2026-01-13T11:11:09Z</time>
      </trkpt>
      <trkpt lat="48.72291" lon="1.92251">
        <ele>125.8</ele>
        <time>2026-01-13T11:11:10Z</time>
      </trkpt>
      <trkpt lat="48.72295" lon="1.92245">
        <ele>126.4</ele>
        <time>2026-01-13T11:11:11Z</time>
      </trkpt>
      <trkpt lat="48.72298" lon="1.9224">
        <ele>126.6</ele>
        <time>2026-01-13T11:11:12Z</time>
      </trkpt>
      <trkpt lat="48.72302" lon="1.92234">
        <ele>126.6</ele>
        <time>2026-01-13T11:11:13Z</time>
      </trkpt>
      <trkpt lat="48.72305" lon="1.92228">
        <ele>126.6</ele>
        <time>2026-01-13T11:11:14Z</time>
      </trkpt>
      <trkpt lat="48.72307" lon="1.92221">
        <ele>126.6</ele>
        <time>2026-01-13T11:11:15Z</time>
      </trkpt>
      <trkpt lat="48.7231" lon="1.92215">
        <ele>126.6</ele>
        <time>2026-01-13T11:11:16Z</time>
      </trkpt>
      <trkpt lat="48.72313" lon="1.92209">
        <ele>126.6</ele>
        <time>2026-01-13T11:11:17Z</time>
      </trkpt>
      <trkpt lat="48.72315" lon="1.92203">
        <ele>126.6</ele>
        <time>2026-01-13T11:11:18Z</time>
      </trkpt>
      <trkpt lat="48.72318" lon="1.92196">
        <ele>126.8</ele>
        <time>2026-01-13T11:11:19Z</time>
      </trkpt>
      <trkpt lat="48.72321" lon="1.9219">
        <ele>127.6</ele>
        <time>2026-01-13T11:11:20Z</time>
      </trkpt>
      <trkpt lat="48.72323" lon="1.92183">
        <ele>127.6</ele>
        <time>2026-01-13T11:11:21Z</time>
      </trkpt>
      <trkpt lat="48.72323" lon="1.92175">
        <ele>127.6</ele>
        <time>2026-01-13T11:11:22Z</time>
      </trkpt>
      <trkpt lat="48.72323" lon="1.92168">
        <ele>127.6</ele>
        <time>2026-01-13T11:11:23Z</time>
      </trkpt>
      <trkpt lat="48.72323" lon="1.9216">
        <ele>127.6</ele>
        <time>2026-01-13T11:11:24Z</time>
      </trkpt>
      <trkpt lat="48.72324" lon="1.92152">
        <ele>127.6</ele>
        <time>2026-01-13T11:11:25Z</time>
      </trkpt>
      <trkpt lat="48.72325" lon="1.92145">
        <ele>127.6</ele>
        <time>2026-01-13T11:11:26Z</time>
      </trkpt>
      <trkpt lat="48.72327" lon="1.92137">
        <ele>127.6</ele>
        <time>2026-01-13T11:11:27Z</time>
      </trkpt>
      <trkpt lat="48.72329" lon="1.9213">
        <ele>127.6</ele>
        <time>2026-01-13T11:11:28Z</time>
      </trkpt>
      <trkpt lat="48.72331" lon="1.92123">
        <ele>127.6</ele>
        <time>2026-01-13T11:11:29Z</time>
      </trkpt>
      <trkpt lat="48.72333" lon="1.92117">
        <ele>127.6</ele>
        <time>2026-01-13T11:11:30Z</time>
      </trkpt>
      <trkpt lat="48.72335" lon="1.92112">
        <ele>127.6</ele>
        <time>2026-01-13T11:11:31Z</time>
      </trkpt>
      <trkpt lat="48.72338" lon="1.92107">
        <ele>127.6</ele>
        <time>2026-01-13T11:11:32Z</time>
      </trkpt>
      <trkpt lat="48.72341" lon="1.92101">
        <ele>127.6</ele>
        <time>2026-01-13T11:11:33Z</time>
      </trkpt>
      <trkpt lat="48.72343" lon="1.92095">
        <ele>127.6</ele>
        <time>2026-01-13T11:11:34Z</time>
      </trkpt>
      <trkpt lat="48.72345" lon="1.92089">
        <ele>128.2</ele>
        <time>2026-01-13T11:11:35Z</time>
      </trkpt>
      <trkpt lat="48.72347" lon="1.92083">
        <ele>128.2</ele>
        <time>2026-01-13T11:11:36Z</time>
      </trkpt>
      <trkpt lat="48.72348" lon="1.92077">
        <ele>128.2</ele>
        <time>2026-01-13T11:11:37Z</time>
      </trkpt>
      <trkpt lat="48.7235" lon="1.92071">
        <ele>128.2</ele>
        <time>2026-01-13T11:11:38Z</time>
      </trkpt>
      <trkpt lat="48.72352" lon="1.92064">
        <ele>128.2</ele>
        <time>2026-01-13T11:11:39Z</time>
      </trkpt>
      <trkpt lat="48.72353" lon="1.92057">
        <ele>128.2</ele>
        <time>2026-01-13T11:11:40Z</time>
      </trkpt>
      <trkpt lat="48.72355" lon="1.92051">
        <ele>128.2</ele>
        <time>2026-01-13T11:11:41Z</time>
      </trkpt>
      <trkpt lat="48.72356" lon="1.92044">
        <ele>128.6</ele>
        <time>2026-01-13T11:11:42Z</time>
      </trkpt>
      <trkpt lat="48.72358" lon="1.92037">
        <ele>128.6</ele>
        <time>2026-01-13T11:11:43Z</time>
      </trkpt>
      <trkpt lat="48.7236" lon="1.9203">
        <ele>128.6</ele>
        <time>2026-01-13T11:11:44Z</time>
      </trkpt>
      <trkpt lat="48.72362" lon="1.92024">
        <ele>128.6</ele>
        <time>2026-01-13T11:11:45Z</time>
      </trkpt>
      <trkpt lat="48.72363" lon="1.92017">
        <ele>128.6</ele>
        <time>2026-01-13T11:11:46Z</time>
      </trkpt>
      <trkpt lat="48.72365" lon="1.92011">
        <ele>129</ele>
        <time>2026-01-13T11:11:47Z</time>
      </trkpt>
      <trkpt lat="48.72367" lon="1.92005">
        <ele>129</ele>
        <time>2026-01-13T11:11:48Z</time>
      </trkpt>
      <trkpt lat="48.72368" lon="1.91999">
        <ele>129</ele>
        <time>2026-01-13T11:11:49Z</time>
      </trkpt>
      <trkpt lat="48.7237" lon="1.91992">
        <ele>128.6</ele>
        <time>2026-01-13T11:11:50Z</time>
      </trkpt>
      <trkpt lat="48.72372" lon="1.91986">
        <ele>128.6</ele>
        <time>2026-01-13T11:11:51Z</time>
      </trkpt>
      <trkpt lat="48.72373" lon="1.91979">
        <ele>128.6</ele>
        <time>2026-01-13T11:11:52Z</time>
      </trkpt>
      <trkpt lat="48.72375" lon="1.91972">
        <ele>129.6</ele>
        <time>2026-01-13T11:11:53Z</time>
      </trkpt>
      <trkpt lat="48.72377" lon="1.91965">
        <ele>130.2</ele>
        <time>2026-01-13T11:11:54Z</time>
      </trkpt>
      <trkpt lat="48.72379" lon="1.91958">
        <ele>130.2</ele>
        <time>2026-01-13T11:11:55Z</time>
      </trkpt>
      <trkpt lat="48.7238" lon="1.91952">
        <ele>130.2</ele>
        <time>2026-01-13T11:11:56Z</time>
      </trkpt>
      <trkpt lat="48.72382" lon="1.91945">
        <ele>130.2</ele>
        <time>2026-01-13T11:11:57Z</time>
      </trkpt>
      <trkpt lat="48.72383" lon="1.91938">
        <ele>130.6</ele>
        <time>2026-01-13T11:11:58Z</time>
      </trkpt>
      <trkpt lat="48.72385" lon="1.9193">
        <ele>130.8</ele>
        <time>2026-01-13T11:11:59Z</time>
      </trkpt>
      <trkpt lat="48.72386" lon="1.91923">
        <ele>130.8</ele>
        <time>2026-01-13T11:12:00Z</time>
      </trkpt>
      <trkpt lat="48.72388" lon="1.91916">
        <ele>130.8</ele>
        <time>2026-01-13T11:12:01Z</time>
      </trkpt>
      <trkpt lat="48.7239" lon="1.91909">
        <ele>130.4</ele>
        <time>2026-01-13T11:12:02Z</time>
      </trkpt>
      <trkpt lat="48.72391" lon="1.91902">
        <ele>130.4</ele>
        <time>2026-01-13T11:12:03Z</time>
      </trkpt>
      <trkpt lat="48.72393" lon="1.91895">
        <ele>130.4</ele>
        <time>2026-01-13T11:12:04Z</time>
      </trkpt>
      <trkpt lat="48.72396" lon="1.91889">
        <ele>131</ele>
        <time>2026-01-13T11:12:05Z</time>
      </trkpt>
      <trkpt lat="48.72397" lon="1.91882">
        <ele>131</ele>
        <time>2026-01-13T11:12:06Z</time>
      </trkpt>
      <trkpt lat="48.72399" lon="1.91875">
        <ele>131</ele>
        <time>2026-01-13T11:12:07Z</time>
      </trkpt>
      <trkpt lat="48.72402" lon="1.91867">
        <ele>130.8</ele>
        <time>2026-01-13T11:12:08Z</time>
      </trkpt>
      <trkpt lat="48.72404" lon="1.9186">
        <ele>130.8</ele>
        <time>2026-01-13T11:12:09Z</time>
      </trkpt>
      <trkpt lat="48.72406" lon="1.91853">
        <ele>130.8</ele>
        <time>2026-01-13T11:12:10Z</time>
      </trkpt>
      <trkpt lat="48.72408" lon="1.91845">
        <ele>130.8</ele>
        <time>2026-01-13T11:12:11Z</time>
      </trkpt>
      <trkpt lat="48.7241" lon="1.91837">
        <ele>130.8</ele>
        <time>2026-01-13T11:12:12Z</time>
      </trkpt>
      <trkpt lat="48.72412" lon="1.91829">
        <ele>130.6</ele>
        <time>2026-01-13T11:12:13Z</time>
      </trkpt>
      <trkpt lat="48.72414" lon="1.91821">
        <ele>130.6</ele>
        <time>2026-01-13T11:12:14Z</time>
      </trkpt>
      <trkpt lat="48.72415" lon="1.91812">
        <ele>129.8</ele>
        <time>2026-01-13T11:12:15Z</time>
      </trkpt>
      <trkpt lat="48.72417" lon="1.91804">
        <ele>129.8</ele>
        <time>2026-01-13T11:12:16Z</time>
      </trkpt>
      <trkpt lat="48.72418" lon="1.91795">
        <ele>129.8</ele>
        <time>2026-01-13T11:12:17Z</time>
      </trkpt>
      <trkpt lat="48.72419" lon="1.91786">
        <ele>130</ele>
        <time>2026-01-13T11:12:18Z</time>
      </trkpt>
      <trkpt lat="48.72419" lon="1.91777">
        <ele>130.2</ele>
        <time>2026-01-13T11:12:19Z</time>
      </trkpt>
      <trkpt lat="48.72418" lon="1.91768">
        <ele>130.2</ele>
        <time>2026-01-13T11:12:20Z</time>
      </trkpt>
      <trkpt lat="48.72417" lon="1.9176">
        <ele>130.2</ele>
        <time>2026-01-13T11:12:21Z</time>
      </trkpt>
      <trkpt lat="48.72415" lon="1.91751">
        <ele>129.8</ele>
        <time>2026-01-13T11:12:22Z</time>
      </trkpt>
      <trkpt lat="48.72413" lon="1.91742">
        <ele>129.8</ele>
        <time>2026-01-13T11:12:23Z</time>
      </trkpt>
      <trkpt lat="48.72411" lon="1.91734">
        <ele>129.8</ele>
        <time>2026-01-13T11:12:24Z</time>
      </trkpt>
      <trkpt lat="48.72408" lon="1.91726">
        <ele>129.8</ele>
        <time>2026-01-13T11:12:25Z</time>
      </trkpt>
      <trkpt lat="48.72406" lon="1.91718">
        <ele>129.8</ele>
        <time>2026-01-13T11:12:26Z</time>
      </trkpt>
      <trkpt lat="48.72405" lon="1.91709">
        <ele>129.8</ele>
        <time>2026-01-13T11:12:27Z</time>
      </trkpt>
      <trkpt lat="48.72403" lon="1.91701">
        <ele>129.8</ele>
        <time>2026-01-13T11:12:28Z</time>
      </trkpt>
      <trkpt lat="48.72401" lon="1.91693">
        <ele>129.8</ele>
        <time>2026-01-13T11:12:29Z</time>
      </trkpt>
      <trkpt lat="48.724" lon="1.91684">
        <ele>129.8</ele>
        <time>2026-01-13T11:12:30Z</time>
      </trkpt>
      <trkpt lat="48.724" lon="1.91677">
        <ele>129.8</ele>
        <time>2026-01-13T11:12:31Z</time>
      </trkpt>
      <trkpt lat="48.72401" lon="1.9167">
        <ele>129.8</ele>
        <time>2026-01-13T11:12:32Z</time>
      </trkpt>
      <trkpt lat="48.72403" lon="1.91663">
        <ele>130.8</ele>
        <time>2026-01-13T11:12:33Z</time>
      </trkpt>
      <trkpt lat="48.72405" lon="1.91657">
        <ele>131.4</ele>
        <time>2026-01-13T11:12:34Z</time>
      </trkpt>
      <trkpt lat="48.72407" lon="1.91651">
        <ele>132.2</ele>
        <time>2026-01-13T11:12:35Z</time>
      </trkpt>
      <trkpt lat="48.72408" lon="1.91645">
        <ele>132.2</ele>
        <time>2026-01-13T11:12:36Z</time>
      </trkpt>
      <trkpt lat="48.72409" lon="1.91638">
        <ele>132.2</ele>
        <time>2026-01-13T11:12:37Z</time>
      </trkpt>
      <trkpt lat="48.7241" lon="1.91632">
        <ele>132</ele>
        <time>2026-01-13T11:12:38Z</time>
      </trkpt>
      <trkpt lat="48.72412" lon="1.91625">
        <ele>132</ele>
        <time>2026-01-13T11:12:39Z</time>
      </trkpt>
      <trkpt lat="48.72412" lon="1.91619">
        <ele>132</ele>
        <time>2026-01-13T11:12:40Z</time>
      </trkpt>
      <trkpt lat="48.72413" lon="1.91613">
        <ele>133</ele>
        <time>2026-01-13T11:12:41Z</time>
      </trkpt>
      <trkpt lat="48.72414" lon="1.91607">
        <ele>133.4</ele>
        <time>2026-01-13T11:12:42Z</time>
      </trkpt>
      <trkpt lat="48.72415" lon="1.91601">
        <ele>133.4</ele>
        <time>2026-01-13T11:12:43Z</time>
      </trkpt>
      <trkpt lat="48.72416" lon="1.91596">
        <ele>133.4</ele>
        <time>2026-01-13T11:12:44Z</time>
      </trkpt>
      <trkpt lat="48.72416" lon="1.9159">
        <ele>133.4</ele>
        <time>2026-01-13T11:12:45Z</time>
      </trkpt>
      <trkpt lat="48.72417" lon="1.91584">
        <ele>133.4</ele>
        <time>2026-01-13T11:12:46Z</time>
      </trkpt>
      <trkpt lat="48.72418" lon="1.91579">
        <ele>133.4</ele>
        <time>2026-01-13T11:12:47Z</time>
      </trkpt>
      <trkpt lat="48.72419" lon="1.91573">
        <ele>133.4</ele>
        <time>2026-01-13T11:12:48Z</time>
      </trkpt>
      <trkpt lat="48.7242" lon="1.91567">
        <ele>133.4</ele>
        <time>2026-01-13T11:12:49Z</time>
      </trkpt>
      <trkpt lat="48.72421" lon="1.91561">
        <ele>133.6</ele>
        <time>2026-01-13T11:12:50Z</time>
      </trkpt>
      <trkpt lat="48.72422" lon="1.91555">
        <ele>133.8</ele>
        <time>2026-01-13T11:12:51Z</time>
      </trkpt>
      <trkpt lat="48.72423" lon="1.91549">
        <ele>133.8</ele>
        <time>2026-01-13T11:12:52Z</time>
      </trkpt>
      <trkpt lat="48.72424" lon="1.91543">
        <ele>133.8</ele>
        <time>2026-01-13T11:12:53Z</time>
      </trkpt>
      <trkpt lat="48.72425" lon="1.91537">
        <ele>133.8</ele>
        <time>2026-01-13T11:12:54Z</time>
      </trkpt>
      <trkpt lat="48.72426" lon="1.91531">
        <ele>133.8</ele>
        <time>2026-01-13T11:12:55Z</time>
      </trkpt>
      <trkpt lat="48.72427" lon="1.91525">
        <ele>133.8</ele>
        <time>2026-01-13T11:12:56Z</time>
      </trkpt>
      <trkpt lat="48.72429" lon="1.9152">
        <ele>134.8</ele>
        <time>2026-01-13T11:12:57Z</time>
      </trkpt>
      <trkpt lat="48.7243" lon="1.91514">
        <ele>135.4</ele>
        <time>2026-01-13T11:12:58Z</time>
      </trkpt>
      <trkpt lat="48.72431" lon="1.91509">
        <ele>135.4</ele>
        <time>2026-01-13T11:12:59Z</time>
      </trkpt>
      <trkpt lat="48.72433" lon="1.91503">
        <ele>135.4</ele>
        <time>2026-01-13T11:13:00Z</time>
      </trkpt>
      <trkpt lat="48.72434" lon="1.91497">
        <ele>135.4</ele>
        <time>2026-01-13T11:13:01Z</time>
      </trkpt>
      <trkpt lat="48.72435" lon="1.91491">
        <ele>135.4</ele>
        <time>2026-01-13T11:13:02Z</time>
      </trkpt>
      <trkpt lat="48.72437" lon="1.91486">
        <ele>135.4</ele>
        <time>2026-01-13T11:13:03Z</time>
      </trkpt>
      <trkpt lat="48.72438" lon="1.9148">
        <ele>135.8</ele>
        <time>2026-01-13T11:13:04Z</time>
      </trkpt>
      <trkpt lat="48.7244" lon="1.91475">
        <ele>135.8</ele>
        <time>2026-01-13T11:13:05Z</time>
      </trkpt>
      <trkpt lat="48.72441" lon="1.91469">
        <ele>135.8</ele>
        <time>2026-01-13T11:13:06Z</time>
      </trkpt>
      <trkpt lat="48.72442" lon="1.91463">
        <ele>135.8</ele>
        <time>2026-01-13T11:13:07Z</time>
      </trkpt>
      <trkpt lat="48.72444" lon="1.91457">
        <ele>136.6</ele>
        <time>2026-01-13T11:13:08Z</time>
      </trkpt>
      <trkpt lat="48.72445" lon="1.91452">
        <ele>136.8</ele>
        <time>2026-01-13T11:13:09Z</time>
      </trkpt>
      <trkpt lat="48.72446" lon="1.91446">
        <ele>136.8</ele>
        <time>2026-01-13T11:13:10Z</time>
      </trkpt>
      <trkpt lat="48.72447" lon="1.91441">
        <ele>137</ele>
        <time>2026-01-13T11:13:11Z</time>
      </trkpt>
      <trkpt lat="48.72449" lon="1.91435">
        <ele>137.8</ele>
        <time>2026-01-13T11:13:12Z</time>
      </trkpt>
      <trkpt lat="48.7245" lon="1.9143">
        <ele>137.8</ele>
        <time>2026-01-13T11:13:13Z</time>
      </trkpt>
      <trkpt lat="48.72451" lon="1.91425">
        <ele>137.8</ele>
        <time>2026-01-13T11:13:14Z</time>
      </trkpt>
      <trkpt lat="48.72453" lon="1.91419">
        <ele>137.2</ele>
        <time>2026-01-13T11:13:15Z</time>
      </trkpt>
      <trkpt lat="48.72454" lon="1.91414">
        <ele>137.2</ele>
        <time>2026-01-13T11:13:16Z</time>
      </trkpt>
      <trkpt lat="48.72456" lon="1.91408">
        <ele>137.2</ele>
        <time>2026-01-13T11:13:17Z</time>
      </trkpt>
      <trkpt lat="48.72457" lon="1.91403">
        <ele>137.2</ele>
        <time>2026-01-13T11:13:18Z</time>
      </trkpt>
      <trkpt lat="48.72459" lon="1.91397">
        <ele>137.6</ele>
        <time>2026-01-13T11:13:19Z</time>
      </trkpt>
      <trkpt lat="48.7246" lon="1.91392">
        <ele>137.8</ele>
        <time>2026-01-13T11:13:20Z</time>
      </trkpt>
      <trkpt lat="48.72461" lon="1.91386">
        <ele>138.2</ele>
        <time>2026-01-13T11:13:21Z</time>
      </trkpt>
      <trkpt lat="48.72463" lon="1.91381">
        <ele>138.2</ele>
        <time>2026-01-13T11:13:22Z</time>
      </trkpt>
      <trkpt lat="48.72464" lon="1.91376">
        <ele>138.2</ele>
        <time>2026-01-13T11:13:23Z</time>
      </trkpt>
      <trkpt lat="48.72466" lon="1.91371">
        <ele>138.2</ele>
        <time>2026-01-13T11:13:24Z</time>
      </trkpt>
      <trkpt lat="48.72468" lon="1.91365">
        <ele>138.2</ele>
        <time>2026-01-13T11:13:25Z</time>
      </trkpt>
      <trkpt lat="48.7247" lon="1.9136">
        <ele>138.2</ele>
        <time>2026-01-13T11:13:26Z</time>
      </trkpt>
      <trkpt lat="48.72472" lon="1.91354">
        <ele>138.2</ele>
        <time>2026-01-13T11:13:27Z</time>
      </trkpt>
      <trkpt lat="48.72473" lon="1.91349">
        <ele>138.2</ele>
        <time>2026-01-13T11:13:28Z</time>
      </trkpt>
      <trkpt lat="48.72475" lon="1.91344">
        <ele>138.2</ele>
        <time>2026-01-13T11:13:29Z</time>
      </trkpt>
      <trkpt lat="48.72477" lon="1.91339">
        <ele>138.4</ele>
        <time>2026-01-13T11:13:30Z</time>
      </trkpt>
      <trkpt lat="48.72479" lon="1.91333">
        <ele>138.6</ele>
        <time>2026-01-13T11:13:31Z</time>
      </trkpt>
      <trkpt lat="48.72481" lon="1.91328">
        <ele>138.8</ele>
        <time>2026-01-13T11:13:32Z</time>
      </trkpt>
      <trkpt lat="48.72483" lon="1.91323">
        <ele>138.8</ele>
        <time>2026-01-13T11:13:33Z</time>
      </trkpt>
      <trkpt lat="48.72485" lon="1.91318">
        <ele>138.8</ele>
        <time>2026-01-13T11:13:34Z</time>
      </trkpt>
      <trkpt lat="48.72487" lon="1.91313">
        <ele>138.8</ele>
        <time>2026-01-13T11:13:35Z</time>
      </trkpt>
      <trkpt lat="48.72489" lon="1.91308">
        <ele>138.8</ele>
        <time>2026-01-13T11:13:36Z</time>
      </trkpt>
      <trkpt lat="48.72491" lon="1.91303">
        <ele>139.6</ele>
        <time>2026-01-13T11:13:37Z</time>
      </trkpt>
      <trkpt lat="48.72493" lon="1.91297">
        <ele>139.6</ele>
        <time>2026-01-13T11:13:38Z</time>
      </trkpt>
      <trkpt lat="48.72495" lon="1.91291">
        <ele>139.6</ele>
        <time>2026-01-13T11:13:39Z</time>
      </trkpt>
      <trkpt lat="48.72497" lon="1.91286">
        <ele>139.6</ele>
        <time>2026-01-13T11:13:40Z</time>
      </trkpt>
      <trkpt lat="48.72499" lon="1.9128">
        <ele>139.6</ele>
        <time>2026-01-13T11:13:41Z</time>
      </trkpt>
      <trkpt lat="48.72501" lon="1.91275">
        <ele>139.6</ele>
        <time>2026-01-13T11:13:42Z</time>
      </trkpt>
      <trkpt lat="48.72504" lon="1.91269">
        <ele>139.6</ele>
        <time>2026-01-13T11:13:43Z</time>
      </trkpt>
      <trkpt lat="48.72506" lon="1.91264">
        <ele>140</ele>
        <time>2026-01-13T11:13:44Z</time>
      </trkpt>
      <trkpt lat="48.72508" lon="1.91258">
        <ele>140.2</ele>
        <time>2026-01-13T11:13:45Z</time>
      </trkpt>
      <trkpt lat="48.7251" lon="1.91253">
        <ele>140.2</ele>
        <time>2026-01-13T11:13:46Z</time>
      </trkpt>
      <trkpt lat="48.72512" lon="1.91247">
        <ele>140.2</ele>
        <time>2026-01-13T11:13:47Z</time>
      </trkpt>
      <trkpt lat="48.72514" lon="1.91242">
        <ele>140.2</ele>
        <time>2026-01-13T11:13:48Z</time>
      </trkpt>
      <trkpt lat="48.72516" lon="1.91237">
        <ele>140.2</ele>
        <time>2026-01-13T11:13:49Z</time>
      </trkpt>
      <trkpt lat="48.72518" lon="1.91232">
        <ele>140.4</ele>
        <time>2026-01-13T11:13:50Z</time>
      </trkpt>
      <trkpt lat="48.72519" lon="1.91226">
        <ele>140.8</ele>
        <time>2026-01-13T11:13:51Z</time>
      </trkpt>
      <trkpt lat="48.72521" lon="1.91221">
        <ele>140.8</ele>
        <time>2026-01-13T11:13:52Z</time>
      </trkpt>
      <trkpt lat="48.72523" lon="1.91216">
        <ele>141</ele>
        <time>2026-01-13T11:13:53Z</time>
      </trkpt>
      <trkpt lat="48.72525" lon="1.91211">
        <ele>141</ele>
        <time>2026-01-13T11:13:54Z</time>
      </trkpt>
      <trkpt lat="48.72527" lon="1.91206">
        <ele>141</ele>
        <time>2026-01-13T11:13:55Z</time>
      </trkpt>
      <trkpt lat="48.72529" lon="1.91201">
        <ele>141</ele>
        <time>2026-01-13T11:13:56Z</time>
      </trkpt>
      <trkpt lat="48.72532" lon="1.91196">
        <ele>141.6</ele>
        <time>2026-01-13T11:13:57Z</time>
      </trkpt>
      <trkpt lat="48.72535" lon="1.91191">
        <ele>141.6</ele>
        <time>2026-01-13T11:13:58Z</time>
      </trkpt>
      <trkpt lat="48.72537" lon="1.91186">
        <ele>141.6</ele>
        <time>2026-01-13T11:13:59Z</time>
      </trkpt>
      <trkpt lat="48.72539" lon="1.9118">
        <ele>141.6</ele>
        <time>2026-01-13T11:14:00Z</time>
      </trkpt>
      <trkpt lat="48.72541" lon="1.91175">
        <ele>142</ele>
        <time>2026-01-13T11:14:01Z</time>
      </trkpt>
      <trkpt lat="48.72543" lon="1.9117">
        <ele>142</ele>
        <time>2026-01-13T11:14:02Z</time>
      </trkpt>
      <trkpt lat="48.72545" lon="1.91165">
        <ele>142</ele>
        <time>2026-01-13T11:14:03Z</time>
      </trkpt>
      <trkpt lat="48.72547" lon="1.9116">
        <ele>142</ele>
        <time>2026-01-13T11:14:04Z</time>
      </trkpt>
      <trkpt lat="48.72549" lon="1.91156">
        <ele>143</ele>
        <time>2026-01-13T11:14:05Z</time>
      </trkpt>
      <trkpt lat="48.72551" lon="1.91151">
        <ele>144</ele>
        <time>2026-01-13T11:14:06Z</time>
      </trkpt>
      <trkpt lat="48.72554" lon="1.91147">
        <ele>144.2</ele>
        <time>2026-01-13T11:14:07Z</time>
      </trkpt>
      <trkpt lat="48.72556" lon="1.91142">
        <ele>144.4</ele>
        <time>2026-01-13T11:14:08Z</time>
      </trkpt>
      <trkpt lat="48.72558" lon="1.91137">
        <ele>144.6</ele>
        <time>2026-01-13T11:14:09Z</time>
      </trkpt>
      <trkpt lat="48.7256" lon="1.91132">
        <ele>145.2</ele>
        <time>2026-01-13T11:14:10Z</time>
      </trkpt>
      <trkpt lat="48.72562" lon="1.91127">
        <ele>145.4</ele>
        <time>2026-01-13T11:14:11Z</time>
      </trkpt>
      <trkpt lat="48.72564" lon="1.91122">
        <ele>145.6</ele>
        <time>2026-01-13T11:14:12Z</time>
      </trkpt>
      <trkpt lat="48.72565" lon="1.91117">
        <ele>145.6</ele>
        <time>2026-01-13T11:14:13Z</time>
      </trkpt>
      <trkpt lat="48.72567" lon="1.91112">
        <ele>145.6</ele>
        <time>2026-01-13T11:14:14Z</time>
      </trkpt>
      <trkpt lat="48.72569" lon="1.91106">
        <ele>145.6</ele>
        <time>2026-01-13T11:14:15Z</time>
      </trkpt>
      <trkpt lat="48.72571" lon="1.91101">
        <ele>145.6</ele>
        <time>2026-01-13T11:14:16Z</time>
      </trkpt>
      <trkpt lat="48.72573" lon="1.91096">
        <ele>146.2</ele>
        <time>2026-01-13T11:14:17Z</time>
      </trkpt>
      <trkpt lat="48.72575" lon="1.91091">
        <ele>146.2</ele>
        <time>2026-01-13T11:14:18Z</time>
      </trkpt>
      <trkpt lat="48.72576" lon="1.91085">
        <ele>146.2</ele>
        <time>2026-01-13T11:14:19Z</time>
      </trkpt>
      <trkpt lat="48.72578" lon="1.91079">
        <ele>146.2</ele>
        <time>2026-01-13T11:14:20Z</time>
      </trkpt>
      <trkpt lat="48.7258" lon="1.91074">
        <ele>147</ele>
        <time>2026-01-13T11:14:21Z</time>
      </trkpt>
      <trkpt lat="48.72581" lon="1.91068">
        <ele>147</ele>
        <time>2026-01-13T11:14:22Z</time>
      </trkpt>
      <trkpt lat="48.72583" lon="1.91063">
        <ele>147</ele>
        <time>2026-01-13T11:14:23Z</time>
      </trkpt>
      <trkpt lat="48.72584" lon="1.91057">
        <ele>146.8</ele>
        <time>2026-01-13T11:14:24Z</time>
      </trkpt>
      <trkpt lat="48.72586" lon="1.91051">
        <ele>146.8</ele>
        <time>2026-01-13T11:14:25Z</time>
      </trkpt>
      <trkpt lat="48.72587" lon="1.91046">
        <ele>146.8</ele>
        <time>2026-01-13T11:14:26Z</time>
      </trkpt>
      <trkpt lat="48.72588" lon="1.9104">
        <ele>146.8</ele>
        <time>2026-01-13T11:14:27Z</time>
      </trkpt>
      <trkpt lat="48.72589" lon="1.91034">
        <ele>146.8</ele>
        <time>2026-01-13T11:14:28Z</time>
      </trkpt>
      <trkpt lat="48.72591" lon="1.91028">
        <ele>146.8</ele>
        <time>2026-01-13T11:14:29Z</time>
      </trkpt>
      <trkpt lat="48.72592" lon="1.91023">
        <ele>146.8</ele>
        <time>2026-01-13T11:14:30Z</time>
      </trkpt>
      <trkpt lat="48.72593" lon="1.91017">
        <ele>147.6</ele>
        <time>2026-01-13T11:14:31Z</time>
      </trkpt>
      <trkpt lat="48.72594" lon="1.91011">
        <ele>147.6</ele>
        <time>2026-01-13T11:14:32Z</time>
      </trkpt>
      <trkpt lat="48.72595" lon="1.91006">
        <ele>147.6</ele>
        <time>2026-01-13T11:14:33Z</time>
      </trkpt>
      <trkpt lat="48.72596" lon="1.91">
        <ele>147.6</ele>
        <time>2026-01-13T11:14:34Z</time>
      </trkpt>
      <trkpt lat="48.72597" lon="1.90995">
        <ele>148.4</ele>
        <time>2026-01-13T11:14:35Z</time>
      </trkpt>
      <trkpt lat="48.72599" lon="1.90989">
        <ele>148.4</ele>
        <time>2026-01-13T11:14:36Z</time>
      </trkpt>
      <trkpt lat="48.726" lon="1.90984">
        <ele>148.4</ele>
        <time>2026-01-13T11:14:37Z</time>
      </trkpt>
      <trkpt lat="48.72601" lon="1.9098">
        <ele>148.4</ele>
        <time>2026-01-13T11:14:38Z</time>
      </trkpt>
      <trkpt lat="48.72603" lon="1.90975">
        <ele>149</ele>
        <time>2026-01-13T11:14:39Z</time>
      </trkpt>
      <trkpt lat="48.72605" lon="1.9097">
        <ele>149</ele>
        <time>2026-01-13T11:14:40Z</time>
      </trkpt>
      <trkpt lat="48.72607" lon="1.90966">
        <ele>149</ele>
        <time>2026-01-13T11:14:41Z</time>
      </trkpt>
      <trkpt lat="48.7261" lon="1.90961">
        <ele>149</ele>
        <time>2026-01-13T11:14:42Z</time>
      </trkpt>
      <trkpt lat="48.72613" lon="1.90956">
        <ele>148.8</ele>
        <time>2026-01-13T11:14:43Z</time>
      </trkpt>
      <trkpt lat="48.72615" lon="1.90952">
        <ele>148.8</ele>
        <time>2026-01-13T11:14:44Z</time>
      </trkpt>
      <trkpt lat="48.72617" lon="1.90947">
        <ele>148.8</ele>
        <time>2026-01-13T11:14:45Z</time>
      </trkpt>
      <trkpt lat="48.7262" lon="1.90943">
        <ele>149.2</ele>
        <time>2026-01-13T11:14:46Z</time>
      </trkpt>
      <trkpt lat="48.72623" lon="1.90938">
        <ele>149.8</ele>
        <time>2026-01-13T11:14:47Z</time>
      </trkpt>
      <trkpt lat="48.72625" lon="1.90933">
        <ele>149.8</ele>
        <time>2026-01-13T11:14:48Z</time>
      </trkpt>
      <trkpt lat="48.72628" lon="1.90929">
        <ele>149.8</ele>
        <time>2026-01-13T11:14:49Z</time>
      </trkpt>
      <trkpt lat="48.7263" lon="1.90924">
        <ele>149.8</ele>
        <time>2026-01-13T11:14:50Z</time>
      </trkpt>
      <trkpt lat="48.72633" lon="1.9092">
        <ele>149.8</ele>
        <time>2026-01-13T11:14:51Z</time>
      </trkpt>
      <trkpt lat="48.72635" lon="1.90915">
        <ele>150.2</ele>
        <time>2026-01-13T11:14:52Z</time>
      </trkpt>
      <trkpt lat="48.72637" lon="1.90911">
        <ele>150.4</ele>
        <time>2026-01-13T11:14:53Z</time>
      </trkpt>
      <trkpt lat="48.7264" lon="1.90906">
        <ele>151.2</ele>
        <time>2026-01-13T11:14:54Z</time>
      </trkpt>
      <trkpt lat="48.72642" lon="1.90902">
        <ele>151.2</ele>
        <time>2026-01-13T11:14:55Z</time>
      </trkpt>
      <trkpt lat="48.72644" lon="1.90898">
        <ele>151.2</ele>
        <time>2026-01-13T11:14:56Z</time>
      </trkpt>
      <trkpt lat="48.72647" lon="1.90893">
        <ele>151.2</ele>
        <time>2026-01-13T11:14:57Z</time>
      </trkpt>
      <trkpt lat="48.7265" lon="1.90889">
        <ele>151.2</ele>
        <time>2026-01-13T11:14:58Z</time>
      </trkpt>
      <trkpt lat="48.72652" lon="1.90884">
        <ele>151.2</ele>
        <time>2026-01-13T11:14:59Z</time>
      </trkpt>
      <trkpt lat="48.72655" lon="1.90879">
        <ele>151.2</ele>
        <time>2026-01-13T11:15:00Z</time>
      </trkpt>
      <trkpt lat="48.72657" lon="1.90875">
        <ele>151.2</ele>
        <time>2026-01-13T11:15:01Z</time>
      </trkpt>
      <trkpt lat="48.72659" lon="1.90871">
        <ele>152.2</ele>
        <time>2026-01-13T11:15:02Z</time>
      </trkpt>
      <trkpt lat="48.72662" lon="1.90866">
        <ele>152.2</ele>
        <time>2026-01-13T11:15:03Z</time>
      </trkpt>
      <trkpt lat="48.72664" lon="1.90863">
        <ele>152.2</ele>
        <time>2026-01-13T11:15:04Z</time>
      </trkpt>
      <trkpt lat="48.72667" lon="1.90859">
        <ele>152.2</ele>
        <time>2026-01-13T11:15:05Z</time>
      </trkpt>
      <trkpt lat="48.72669" lon="1.90855">
        <ele>152.2</ele>
        <time>2026-01-13T11:15:06Z</time>
      </trkpt>
      <trkpt lat="48.72673" lon="1.90852">
        <ele>152.2</ele>
        <time>2026-01-13T11:15:07Z</time>
      </trkpt>
      <trkpt lat="48.72676" lon="1.90849">
        <ele>152.4</ele>
        <time>2026-01-13T11:15:08Z</time>
      </trkpt>
      <trkpt lat="48.7268" lon="1.90846">
        <ele>152.4</ele>
        <time>2026-01-13T11:15:09Z</time>
      </trkpt>
      <trkpt lat="48.72683" lon="1.90843">
        <ele>152.4</ele>
        <time>2026-01-13T11:15:10Z</time>
      </trkpt>
      <trkpt lat="48.72686" lon="1.9084">
        <ele>152.4</ele>
        <time>2026-01-13T11:15:11Z</time>
      </trkpt>
      <trkpt lat="48.72689" lon="1.90837">
        <ele>152</ele>
        <time>2026-01-13T11:15:12Z</time>
      </trkpt>
      <trkpt lat="48.72693" lon="1.90835">
        <ele>152</ele>
        <time>2026-01-13T11:15:13Z</time>
      </trkpt>
      <trkpt lat="48.72696" lon="1.90831">
        <ele>152</ele>
        <time>2026-01-13T11:15:14Z</time>
      </trkpt>
      <trkpt lat="48.727" lon="1.90828">
        <ele>152</ele>
        <time>2026-01-13T11:15:15Z</time>
      </trkpt>
      <trkpt lat="48.72704" lon="1.90824">
        <ele>152</ele>
        <time>2026-01-13T11:15:16Z</time>
      </trkpt>
      <trkpt lat="48.72707" lon="1.90819">
        <ele>152</ele>
        <time>2026-01-13T11:15:17Z</time>
      </trkpt>
      <trkpt lat="48.7271" lon="1.90815">
        <ele>152</ele>
        <time>2026-01-13T11:15:18Z</time>
      </trkpt>
      <trkpt lat="48.72712" lon="1.90809">
        <ele>152</ele>
        <time>2026-01-13T11:15:19Z</time>
      </trkpt>
      <trkpt lat="48.72714" lon="1.90804">
        <ele>152</ele>
        <time>2026-01-13T11:15:20Z</time>
      </trkpt>
      <trkpt lat="48.72716" lon="1.90798">
        <ele>152.6</ele>
        <time>2026-01-13T11:15:21Z</time>
      </trkpt>
      <trkpt lat="48.72718" lon="1.90792">
        <ele>152.8</ele>
        <time>2026-01-13T11:15:22Z</time>
      </trkpt>
      <trkpt lat="48.7272" lon="1.90786">
        <ele>153</ele>
        <time>2026-01-13T11:15:23Z</time>
      </trkpt>
      <trkpt lat="48.72721" lon="1.90779">
        <ele>153</ele>
        <time>2026-01-13T11:15:24Z</time>
      </trkpt>
      <trkpt lat="48.72723" lon="1.90772">
        <ele>153</ele>
        <time>2026-01-13T11:15:25Z</time>
      </trkpt>
      <trkpt lat="48.72724" lon="1.90765">
        <ele>153</ele>
        <time>2026-01-13T11:15:26Z</time>
      </trkpt>
      <trkpt lat="48.72726" lon="1.90758">
        <ele>153</ele>
        <time>2026-01-13T11:15:27Z</time>
      </trkpt>
      <trkpt lat="48.72727" lon="1.90751">
        <ele>153</ele>
        <time>2026-01-13T11:15:28Z</time>
      </trkpt>
      <trkpt lat="48.72729" lon="1.90745">
        <ele>153</ele>
        <time>2026-01-13T11:15:29Z</time>
      </trkpt>
      <trkpt lat="48.7273" lon="1.90737">
        <ele>153</ele>
        <time>2026-01-13T11:15:30Z</time>
      </trkpt>
      <trkpt lat="48.72731" lon="1.9073">
        <ele>153.8</ele>
        <time>2026-01-13T11:15:31Z</time>
      </trkpt>
      <trkpt lat="48.72733" lon="1.90723">
        <ele>153.8</ele>
        <time>2026-01-13T11:15:32Z</time>
      </trkpt>
      <trkpt lat="48.72734" lon="1.90717">
        <ele>153.8</ele>
        <time>2026-01-13T11:15:33Z</time>
      </trkpt>
      <trkpt lat="48.72736" lon="1.90709">
        <ele>153.8</ele>
        <time>2026-01-13T11:15:34Z</time>
      </trkpt>
      <trkpt lat="48.72737" lon="1.90703">
        <ele>153.8</ele>
        <time>2026-01-13T11:15:35Z</time>
      </trkpt>
      <trkpt lat="48.72738" lon="1.90696">
        <ele>153.8</ele>
        <time>2026-01-13T11:15:36Z</time>
      </trkpt>
      <trkpt lat="48.72739" lon="1.90689">
        <ele>154.6</ele>
        <time>2026-01-13T11:15:37Z</time>
      </trkpt>
      <trkpt lat="48.72741" lon="1.90683">
        <ele>154.8</ele>
        <time>2026-01-13T11:15:38Z</time>
      </trkpt>
      <trkpt lat="48.72742" lon="1.90676">
        <ele>154.8</ele>
        <time>2026-01-13T11:15:39Z</time>
      </trkpt>
      <trkpt lat="48.72744" lon="1.9067">
        <ele>154.8</ele>
        <time>2026-01-13T11:15:40Z</time>
      </trkpt>
      <trkpt lat="48.72745" lon="1.90664">
        <ele>154.8</ele>
        <time>2026-01-13T11:15:41Z</time>
      </trkpt>
      <trkpt lat="48.72747" lon="1.90659">
        <ele>154.8</ele>
        <time>2026-01-13T11:15:42Z</time>
      </trkpt>
      <trkpt lat="48.72747" lon="1.90652">
        <ele>155.6</ele>
        <time>2026-01-13T11:15:43Z</time>
      </trkpt>
      <trkpt lat="48.72748" lon="1.90646">
        <ele>155.8</ele>
        <time>2026-01-13T11:15:44Z</time>
      </trkpt>
      <trkpt lat="48.72749" lon="1.90639">
        <ele>155.8</ele>
        <time>2026-01-13T11:15:45Z</time>
      </trkpt>
      <trkpt lat="48.7275" lon="1.90633">
        <ele>155.8</ele>
        <time>2026-01-13T11:15:46Z</time>
      </trkpt>
      <trkpt lat="48.72751" lon="1.90626">
        <ele>155.8</ele>
        <time>2026-01-13T11:15:47Z</time>
      </trkpt>
      <trkpt lat="48.72752" lon="1.9062">
        <ele>155.8</ele>
        <time>2026-01-13T11:15:48Z</time>
      </trkpt>
      <trkpt lat="48.72753" lon="1.90614">
        <ele>156.6</ele>
        <time>2026-01-13T11:15:49Z</time>
      </trkpt>
      <trkpt lat="48.72754" lon="1.90609">
        <ele>156.8</ele>
        <time>2026-01-13T11:15:50Z</time>
      </trkpt>
      <trkpt lat="48.72755" lon="1.90603">
        <ele>157.4</ele>
        <time>2026-01-13T11:15:51Z</time>
      </trkpt>
      <trkpt lat="48.72756" lon="1.90598">
        <ele>157.4</ele>
        <time>2026-01-13T11:15:52Z</time>
      </trkpt>
      <trkpt lat="48.72757" lon="1.90592">
        <ele>157.4</ele>
        <time>2026-01-13T11:15:53Z</time>
      </trkpt>
      <trkpt lat="48.72757" lon="1.90587">
        <ele>157.4</ele>
        <time>2026-01-13T11:15:54Z</time>
      </trkpt>
      <trkpt lat="48.72758" lon="1.90581">
        <ele>157.4</ele>
        <time>2026-01-13T11:15:55Z</time>
      </trkpt>
      <trkpt lat="48.72759" lon="1.90576">
        <ele>157.4</ele>
        <time>2026-01-13T11:15:56Z</time>
      </trkpt>
      <trkpt lat="48.72759" lon="1.90571">
        <ele>157.4</ele>
        <time>2026-01-13T11:15:57Z</time>
      </trkpt>
      <trkpt lat="48.7276" lon="1.90565">
        <ele>157.4</ele>
        <time>2026-01-13T11:15:58Z</time>
      </trkpt>
      <trkpt lat="48.7276" lon="1.9056">
        <ele>157.4</ele>
        <time>2026-01-13T11:15:59Z</time>
      </trkpt>
      <trkpt lat="48.72761" lon="1.90555">
        <ele>157.4</ele>
        <time>2026-01-13T11:16:00Z</time>
      </trkpt>
      <trkpt lat="48.72761" lon="1.9055">
        <ele>158.2</ele>
        <time>2026-01-13T11:16:01Z</time>
      </trkpt>
      <trkpt lat="48.72761" lon="1.90545">
        <ele>158.2</ele>
        <time>2026-01-13T11:16:02Z</time>
      </trkpt>
      <trkpt lat="48.72762" lon="1.9054">
        <ele>158.6</ele>
        <time>2026-01-13T11:16:03Z</time>
      </trkpt>
      <trkpt lat="48.72763" lon="1.90535">
        <ele>158.6</ele>
        <time>2026-01-13T11:16:04Z</time>
      </trkpt>
      <trkpt lat="48.72764" lon="1.9053">
        <ele>158.6</ele>
        <time>2026-01-13T11:16:05Z</time>
      </trkpt>
      <trkpt lat="48.72764" lon="1.90524">
        <ele>158.6</ele>
        <time>2026-01-13T11:16:06Z</time>
      </trkpt>
      <trkpt lat="48.72765" lon="1.90519">
        <ele>158.6</ele>
        <time>2026-01-13T11:16:07Z</time>
      </trkpt>
      <trkpt lat="48.72765" lon="1.90513">
        <ele>158.6</ele>
        <time>2026-01-13T11:16:08Z</time>
      </trkpt>
      <trkpt lat="48.72766" lon="1.90508">
        <ele>158.6</ele>
        <time>2026-01-13T11:16:09Z</time>
      </trkpt>
      <trkpt lat="48.72767" lon="1.90502">
        <ele>158.6</ele>
        <time>2026-01-13T11:16:10Z</time>
      </trkpt>
      <trkpt lat="48.72768" lon="1.90497">
        <ele>159.6</ele>
        <time>2026-01-13T11:16:11Z</time>
      </trkpt>
      <trkpt lat="48.72769" lon="1.90492">
        <ele>159.8</ele>
        <time>2026-01-13T11:16:12Z</time>
      </trkpt>
      <trkpt lat="48.7277" lon="1.90487">
        <ele>160.4</ele>
        <time>2026-01-13T11:16:13Z</time>
      </trkpt>
      <trkpt lat="48.72771" lon="1.90482">
        <ele>160.6</ele>
        <time>2026-01-13T11:16:14Z</time>
      </trkpt>
      <trkpt lat="48.72772" lon="1.90479">
        <ele>160.6</ele>
        <time>2026-01-13T11:16:15Z</time>
      </trkpt>
      <trkpt lat="48.72773" lon="1.90475">
        <ele>160.6</ele>
        <time>2026-01-13T11:16:16Z</time>
      </trkpt>
      <trkpt lat="48.72775" lon="1.90471">
        <ele>160.6</ele>
        <time>2026-01-13T11:16:17Z</time>
      </trkpt>
      <trkpt lat="48.72777" lon="1.90467">
        <ele>161.6</ele>
        <time>2026-01-13T11:16:18Z</time>
      </trkpt>
      <trkpt lat="48.72778" lon="1.90463">
        <ele>161.8</ele>
        <time>2026-01-13T11:16:19Z</time>
      </trkpt>
      <trkpt lat="48.7278" lon="1.90459">
        <ele>162.8</ele>
        <time>2026-01-13T11:16:20Z</time>
      </trkpt>
      <trkpt lat="48.72781" lon="1.90455">
        <ele>162.8</ele>
        <time>2026-01-13T11:16:21Z</time>
      </trkpt>
      <trkpt lat="48.72783" lon="1.90451">
        <ele>162.8</ele>
        <time>2026-01-13T11:16:22Z</time>
      </trkpt>
      <trkpt lat="48.72785" lon="1.90446">
        <ele>162.8</ele>
        <time>2026-01-13T11:16:23Z</time>
      </trkpt>
      <trkpt lat="48.72787" lon="1.90442">
        <ele>162.8</ele>
        <time>2026-01-13T11:16:24Z</time>
      </trkpt>
      <trkpt lat="48.72789" lon="1.90438">
        <ele>163.6</ele>
        <time>2026-01-13T11:16:25Z</time>
      </trkpt>
      <trkpt lat="48.72791" lon="1.90433">
        <ele>163.6</ele>
        <time>2026-01-13T11:16:26Z</time>
      </trkpt>
      <trkpt lat="48.72794" lon="1.90429">
        <ele>163.6</ele>
        <time>2026-01-13T11:16:27Z</time>
      </trkpt>
      <trkpt lat="48.72796" lon="1.90425">
        <ele>163.6</ele>
        <time>2026-01-13T11:16:28Z</time>
      </trkpt>
      <trkpt lat="48.72798" lon="1.90421">
        <ele>163.6</ele>
        <time>2026-01-13T11:16:29Z</time>
      </trkpt>
      <trkpt lat="48.728" lon="1.90418">
        <ele>164.6</ele>
        <time>2026-01-13T11:16:30Z</time>
      </trkpt>
      <trkpt lat="48.72803" lon="1.90414">
        <ele>165</ele>
        <time>2026-01-13T11:16:31Z</time>
      </trkpt>
      <trkpt lat="48.72805" lon="1.9041">
        <ele>165.2</ele>
        <time>2026-01-13T11:16:32Z</time>
      </trkpt>
      <trkpt lat="48.72807" lon="1.90406">
        <ele>165.8</ele>
        <time>2026-01-13T11:16:33Z</time>
      </trkpt>
      <trkpt lat="48.72809" lon="1.90402">
        <ele>166</ele>
        <time>2026-01-13T11:16:34Z</time>
      </trkpt>
      <trkpt lat="48.72809" lon="1.90398">
        <ele>166.2</ele>
        <time>2026-01-13T11:16:35Z</time>
      </trkpt>
      <trkpt lat="48.72808" lon="1.90392">
        <ele>166.4</ele>
        <time>2026-01-13T11:16:36Z</time>
      </trkpt>
      <trkpt lat="48.72807" lon="1.90388">
        <ele>167</ele>
        <time>2026-01-13T11:16:37Z</time>
      </trkpt>
      <trkpt lat="48.72805" lon="1.90383">
        <ele>167</ele>
        <time>2026-01-13T11:16:38Z</time>
      </trkpt>
      <trkpt lat="48.72804" lon="1.90378">
        <ele>167</ele>
        <time>2026-01-13T11:16:39Z</time>
      </trkpt>
      <trkpt lat="48.72803" lon="1.90373">
        <ele>167</ele>
        <time>2026-01-13T11:16:40Z</time>
      </trkpt>
      <trkpt lat="48.72802" lon="1.90368">
        <ele>167.4</ele>
        <time>2026-01-13T11:16:41Z</time>
      </trkpt>
      <trkpt lat="48.72802" lon="1.90363">
        <ele>167.4</ele>
        <time>2026-01-13T11:16:42Z</time>
      </trkpt>
      <trkpt lat="48.72802" lon="1.90358">
        <ele>167.4</ele>
        <time>2026-01-13T11:16:43Z</time>
      </trkpt>
      <trkpt lat="48.72802" lon="1.90353">
        <ele>167.4</ele>
        <time>2026-01-13T11:16:44Z</time>
      </trkpt>
      <trkpt lat="48.72802" lon="1.90348">
        <ele>168</ele>
        <time>2026-01-13T11:16:45Z</time>
      </trkpt>
      <trkpt lat="48.72803" lon="1.90343">
        <ele>168.8</ele>
        <time>2026-01-13T11:16:46Z</time>
      </trkpt>
      <trkpt lat="48.72803" lon="1.90337">
        <ele>168.8</ele>
        <time>2026-01-13T11:16:47Z</time>
      </trkpt>
      <trkpt lat="48.72803" lon="1.90332">
        <ele>168.8</ele>
        <time>2026-01-13T11:16:48Z</time>
      </trkpt>
      <trkpt lat="48.72803" lon="1.90327">
        <ele>168.8</ele>
        <time>2026-01-13T11:16:49Z</time>
      </trkpt>
      <trkpt lat="48.72804" lon="1.90321">
        <ele>168.8</ele>
        <time>2026-01-13T11:16:50Z</time>
      </trkpt>
      <trkpt lat="48.72804" lon="1.90316">
        <ele>168.8</ele>
        <time>2026-01-13T11:16:51Z</time>
      </trkpt>
      <trkpt lat="48.72804" lon="1.90311">
        <ele>168.8</ele>
        <time>2026-01-13T11:16:52Z</time>
      </trkpt>
      <trkpt lat="48.72805" lon="1.90306">
        <ele>168.8</ele>
        <time>2026-01-13T11:16:53Z</time>
      </trkpt>
      <trkpt lat="48.72805" lon="1.90301">
        <ele>169.2</ele>
        <time>2026-01-13T11:16:54Z</time>
      </trkpt>
      <trkpt lat="48.72806" lon="1.90296">
        <ele>169.6</ele>
        <time>2026-01-13T11:16:55Z</time>
      </trkpt>
      <trkpt lat="48.72807" lon="1.90291">
        <ele>169.6</ele>
        <time>2026-01-13T11:16:56Z</time>
      </trkpt>
      <trkpt lat="48.72809" lon="1.90286">
        <ele>169.6</ele>
        <time>2026-01-13T11:16:57Z</time>
      </trkpt>
      <trkpt lat="48.72809" lon="1.90281">
        <ele>169.2</ele>
        <time>2026-01-13T11:16:58Z</time>
      </trkpt>
      <trkpt lat="48.7281" lon="1.90275">
        <ele>169.2</ele>
        <time>2026-01-13T11:16:59Z</time>
      </trkpt>
      <trkpt lat="48.72811" lon="1.9027">
        <ele>169.2</ele>
        <time>2026-01-13T11:17:00Z</time>
      </trkpt>
      <trkpt lat="48.72811" lon="1.90265">
        <ele>170.2</ele>
        <time>2026-01-13T11:17:01Z</time>
      </trkpt>
      <trkpt lat="48.72812" lon="1.90259">
        <ele>170.6</ele>
        <time>2026-01-13T11:17:02Z</time>
      </trkpt>
      <trkpt lat="48.72813" lon="1.90253">
        <ele>170.6</ele>
        <time>2026-01-13T11:17:03Z</time>
      </trkpt>
      <trkpt lat="48.72813" lon="1.90247">
        <ele>170.6</ele>
        <time>2026-01-13T11:17:04Z</time>
      </trkpt>
      <trkpt lat="48.72814" lon="1.90242">
        <ele>169.8</ele>
        <time>2026-01-13T11:17:05Z</time>
      </trkpt>
      <trkpt lat="48.72815" lon="1.90236">
        <ele>169.8</ele>
        <time>2026-01-13T11:17:06Z</time>
      </trkpt>
      <trkpt lat="48.72816" lon="1.9023">
        <ele>169.8</ele>
        <time>2026-01-13T11:17:07Z</time>
      </trkpt>
      <trkpt lat="48.72817" lon="1.90223">
        <ele>169.8</ele>
        <time>2026-01-13T11:17:08Z</time>
      </trkpt>
      <trkpt lat="48.72818" lon="1.90217">
        <ele>169.8</ele>
        <time>2026-01-13T11:17:09Z</time>
      </trkpt>
      <trkpt lat="48.72818" lon="1.9021">
        <ele>169.8</ele>
        <time>2026-01-13T11:17:10Z</time>
      </trkpt>
      <trkpt lat="48.72819" lon="1.90204">
        <ele>169.8</ele>
        <time>2026-01-13T11:17:11Z</time>
      </trkpt>
      <trkpt lat="48.7282" lon="1.90198">
        <ele>169.8</ele>
        <time>2026-01-13T11:17:12Z</time>
      </trkpt>
      <trkpt lat="48.7282" lon="1.90191">
        <ele>169.8</ele>
        <time>2026-01-13T11:17:13Z</time>
      </trkpt>
      <trkpt lat="48.72821" lon="1.90184">
        <ele>170.8</ele>
        <time>2026-01-13T11:17:14Z</time>
      </trkpt>
      <trkpt lat="48.72823" lon="1.90178">
        <ele>170.8</ele>
        <time>2026-01-13T11:17:15Z</time>
      </trkpt>
      <trkpt lat="48.72824" lon="1.90171">
        <ele>170.8</ele>
        <time>2026-01-13T11:17:16Z</time>
      </trkpt>
      <trkpt lat="48.72825" lon="1.90164">
        <ele>170</ele>
        <time>2026-01-13T11:17:17Z</time>
      </trkpt>
      <trkpt lat="48.72826" lon="1.90156">
        <ele>170</ele>
        <time>2026-01-13T11:17:18Z</time>
      </trkpt>
      <trkpt lat="48.72827" lon="1.90149">
        <ele>170</ele>
        <time>2026-01-13T11:17:19Z</time>
      </trkpt>
      <trkpt lat="48.72828" lon="1.90141">
        <ele>170</ele>
        <time>2026-01-13T11:17:20Z</time>
      </trkpt>
      <trkpt lat="48.72829" lon="1.90133">
        <ele>170</ele>
        <time>2026-01-13T11:17:21Z</time>
      </trkpt>
      <trkpt lat="48.7283" lon="1.90125">
        <ele>170</ele>
        <time>2026-01-13T11:17:22Z</time>
      </trkpt>
      <trkpt lat="48.72831" lon="1.90117">
        <ele>170</ele>
        <time>2026-01-13T11:17:23Z</time>
      </trkpt>
      <trkpt lat="48.72832" lon="1.90108">
        <ele>170</ele>
        <time>2026-01-13T11:17:24Z</time>
      </trkpt>
      <trkpt lat="48.72833" lon="1.901">
        <ele>170</ele>
        <time>2026-01-13T11:17:25Z</time>
      </trkpt>
      <trkpt lat="48.72834" lon="1.90092">
        <ele>170</ele>
        <time>2026-01-13T11:17:26Z</time>
      </trkpt>
      <trkpt lat="48.72835" lon="1.90083">
        <ele>170</ele>
        <time>2026-01-13T11:17:27Z</time>
      </trkpt>
      <trkpt lat="48.72836" lon="1.90075">
        <ele>169.6</ele>
        <time>2026-01-13T11:17:28Z</time>
      </trkpt>
      <trkpt lat="48.72837" lon="1.90067">
        <ele>169.6</ele>
        <time>2026-01-13T11:17:29Z</time>
      </trkpt>
      <trkpt lat="48.72838" lon="1.90059">
        <ele>169.6</ele>
        <time>2026-01-13T11:17:30Z</time>
      </trkpt>
      <trkpt lat="48.72839" lon="1.9005">
        <ele>169.6</ele>
        <time>2026-01-13T11:17:31Z</time>
      </trkpt>
      <trkpt lat="48.7284" lon="1.90042">
        <ele>169.4</ele>
        <time>2026-01-13T11:17:32Z</time>
      </trkpt>
      <trkpt lat="48.72841" lon="1.90034">
        <ele>169.4</ele>
        <time>2026-01-13T11:17:33Z</time>
      </trkpt>
      <trkpt lat="48.72843" lon="1.90026">
        <ele>169.4</ele>
        <time>2026-01-13T11:17:34Z</time>
      </trkpt>
      <trkpt lat="48.72844" lon="1.90018">
        <ele>169.4</ele>
        <time>2026-01-13T11:17:35Z</time>
      </trkpt>
      <trkpt lat="48.72845" lon="1.9001">
        <ele>168.6</ele>
        <time>2026-01-13T11:17:36Z</time>
      </trkpt>
      <trkpt lat="48.72847" lon="1.90002">
        <ele>168.6</ele>
        <time>2026-01-13T11:17:37Z</time>
      </trkpt>
      <trkpt lat="48.72849" lon="1.89994">
        <ele>168.6</ele>
        <time>2026-01-13T11:17:38Z</time>
      </trkpt>
      <trkpt lat="48.7285" lon="1.89985">
        <ele>169.6</ele>
        <time>2026-01-13T11:17:39Z</time>
      </trkpt>
      <trkpt lat="48.7285" lon="1.89977">
        <ele>169.8</ele>
        <time>2026-01-13T11:17:40Z</time>
      </trkpt>
      <trkpt lat="48.72847" lon="1.8997">
        <ele>169.8</ele>
        <time>2026-01-13T11:17:41Z</time>
      </trkpt>
      <trkpt lat="48.72843" lon="1.89963">
        <ele>169.8</ele>
        <time>2026-01-13T11:17:42Z</time>
      </trkpt>
      <trkpt lat="48.7284" lon="1.89956">
        <ele>169.8</ele>
        <time>2026-01-13T11:17:43Z</time>
      </trkpt>
      <trkpt lat="48.72836" lon="1.8995">
        <ele>170.8</ele>
        <time>2026-01-13T11:17:44Z</time>
      </trkpt>
      <trkpt lat="48.72832" lon="1.89944">
        <ele>170.8</ele>
        <time>2026-01-13T11:17:45Z</time>
      </trkpt>
      <trkpt lat="48.72829" lon="1.89938">
        <ele>170.8</ele>
        <time>2026-01-13T11:17:46Z</time>
      </trkpt>
      <trkpt lat="48.72826" lon="1.89932">
        <ele>170.8</ele>
        <time>2026-01-13T11:17:47Z</time>
      </trkpt>
      <trkpt lat="48.72823" lon="1.89926">
        <ele>169.8</ele>
        <time>2026-01-13T11:17:48Z</time>
      </trkpt>
      <trkpt lat="48.72819" lon="1.89921">
        <ele>169.8</ele>
        <time>2026-01-13T11:17:49Z</time>
      </trkpt>
      <trkpt lat="48.72816" lon="1.89915">
        <ele>169.8</ele>
        <time>2026-01-13T11:17:50Z</time>
      </trkpt>
      <trkpt lat="48.72813" lon="1.8991">
        <ele>170.8</ele>
        <time>2026-01-13T11:17:51Z</time>
      </trkpt>
      <trkpt lat="48.7281" lon="1.89905">
        <ele>171.8</ele>
        <time>2026-01-13T11:17:52Z</time>
      </trkpt>
      <trkpt lat="48.72807" lon="1.899">
        <ele>172</ele>
        <time>2026-01-13T11:17:53Z</time>
      </trkpt>
      <trkpt lat="48.72803" lon="1.89895">
        <ele>172</ele>
        <time>2026-01-13T11:17:54Z</time>
      </trkpt>
      <trkpt lat="48.72799" lon="1.8989">
        <ele>172</ele>
        <time>2026-01-13T11:17:55Z</time>
      </trkpt>
      <trkpt lat="48.72795" lon="1.89884">
        <ele>172</ele>
        <time>2026-01-13T11:17:56Z</time>
      </trkpt>
      <trkpt lat="48.72791" lon="1.89879">
        <ele>172</ele>
        <time>2026-01-13T11:17:57Z</time>
      </trkpt>
      <trkpt lat="48.72787" lon="1.89873">
        <ele>172.6</ele>
        <time>2026-01-13T11:17:58Z</time>
      </trkpt>
      <trkpt lat="48.72782" lon="1.89867">
        <ele>172.8</ele>
        <time>2026-01-13T11:17:59Z</time>
      </trkpt>
      <trkpt lat="48.72778" lon="1.89861">
        <ele>172.8</ele>
        <time>2026-01-13T11:18:00Z</time>
      </trkpt>
      <trkpt lat="48.72774" lon="1.89856">
        <ele>172.8</ele>
        <time>2026-01-13T11:18:01Z</time>
      </trkpt>
      <trkpt lat="48.7277" lon="1.89851">
        <ele>171.8</ele>
        <time>2026-01-13T11:18:02Z</time>
      </trkpt>
      <trkpt lat="48.72765" lon="1.89847">
        <ele>171.4</ele>
        <time>2026-01-13T11:18:03Z</time>
      </trkpt>
      <trkpt lat="48.7276" lon="1.89843">
        <ele>171.4</ele>
        <time>2026-01-13T11:18:04Z</time>
      </trkpt>
      <trkpt lat="48.72755" lon="1.89839">
        <ele>171.4</ele>
        <time>2026-01-13T11:18:05Z</time>
      </trkpt>
      <trkpt lat="48.72749" lon="1.89835">
        <ele>171.4</ele>
        <time>2026-01-13T11:18:06Z</time>
      </trkpt>
      <trkpt lat="48.72744" lon="1.89832">
        <ele>171.4</ele>
        <time>2026-01-13T11:18:07Z</time>
      </trkpt>
      <trkpt lat="48.72739" lon="1.89829">
        <ele>171.4</ele>
        <time>2026-01-13T11:18:08Z</time>
      </trkpt>
      <trkpt lat="48.72734" lon="1.89826">
        <ele>172.4</ele>
        <time>2026-01-13T11:18:09Z</time>
      </trkpt>
      <trkpt lat="48.72728" lon="1.89823">
        <ele>172.6</ele>
        <time>2026-01-13T11:18:10Z</time>
      </trkpt>
      <trkpt lat="48.72723" lon="1.89819">
        <ele>172.6</ele>
        <time>2026-01-13T11:18:11Z</time>
      </trkpt>
      <trkpt lat="48.72718" lon="1.89816">
        <ele>172.6</ele>
        <time>2026-01-13T11:18:12Z</time>
      </trkpt>
      <trkpt lat="48.72714" lon="1.89813">
        <ele>172.6</ele>
        <time>2026-01-13T11:18:13Z</time>
      </trkpt>
      <trkpt lat="48.72709" lon="1.8981">
        <ele>172.6</ele>
        <time>2026-01-13T11:18:14Z</time>
      </trkpt>
      <trkpt lat="48.72704" lon="1.89806">
        <ele>173.2</ele>
        <time>2026-01-13T11:18:15Z</time>
      </trkpt>
      <trkpt lat="48.72699" lon="1.89803">
        <ele>173.2</ele>
        <time>2026-01-13T11:18:16Z</time>
      </trkpt>
      <trkpt lat="48.72694" lon="1.898">
        <ele>173.2</ele>
        <time>2026-01-13T11:18:17Z</time>
      </trkpt>
      <trkpt lat="48.72689" lon="1.89798">
        <ele>172.2</ele>
        <time>2026-01-13T11:18:18Z</time>
      </trkpt>
      <trkpt lat="48.72684" lon="1.89795">
        <ele>172</ele>
        <time>2026-01-13T11:18:19Z</time>
      </trkpt>
      <trkpt lat="48.7268" lon="1.89792">
        <ele>171.4</ele>
        <time>2026-01-13T11:18:20Z</time>
      </trkpt>
      <trkpt lat="48.72675" lon="1.89789">
        <ele>171.4</ele>
        <time>2026-01-13T11:18:21Z</time>
      </trkpt>
      <trkpt lat="48.72672" lon="1.89786">
        <ele>171.4</ele>
        <time>2026-01-13T11:18:22Z</time>
      </trkpt>
      <trkpt lat="48.72668" lon="1.89784">
        <ele>172.4</ele>
        <time>2026-01-13T11:18:23Z</time>
      </trkpt>
      <trkpt lat="48.72663" lon="1.89781">
        <ele>173.4</ele>
        <time>2026-01-13T11:18:24Z</time>
      </trkpt>
      <trkpt lat="48.72659" lon="1.89779">
        <ele>174.4</ele>
        <time>2026-01-13T11:18:25Z</time>
      </trkpt>
      <trkpt lat="48.72654" lon="1.89777">
        <ele>174.4</ele>
        <time>2026-01-13T11:18:26Z</time>
      </trkpt>
      <trkpt lat="48.7265" lon="1.89774">
        <ele>174.4</ele>
        <time>2026-01-13T11:18:27Z</time>
      </trkpt>
      <trkpt lat="48.72646" lon="1.89772">
        <ele>174.4</ele>
        <time>2026-01-13T11:18:28Z</time>
      </trkpt>
      <trkpt lat="48.72642" lon="1.8977">
        <ele>174.4</ele>
        <time>2026-01-13T11:18:29Z</time>
      </trkpt>
      <trkpt lat="48.72637" lon="1.8977">
        <ele>175</ele>
        <time>2026-01-13T11:18:30Z</time>
      </trkpt>
      <trkpt lat="48.72633" lon="1.89771">
        <ele>175</ele>
        <time>2026-01-13T11:18:31Z</time>
      </trkpt>
      <trkpt lat="48.72628" lon="1.89774">
        <ele>175</ele>
        <time>2026-01-13T11:18:32Z</time>
      </trkpt>
      <trkpt lat="48.72625" lon="1.89778">
        <ele>175</ele>
        <time>2026-01-13T11:18:33Z</time>
      </trkpt>
      <trkpt lat="48.72622" lon="1.89783">
        <ele>175</ele>
        <time>2026-01-13T11:18:34Z</time>
      </trkpt>
      <trkpt lat="48.72619" lon="1.89789">
        <ele>175.4</ele>
        <time>2026-01-13T11:18:35Z</time>
      </trkpt>
      <trkpt lat="48.72616" lon="1.89795">
        <ele>175.4</ele>
        <time>2026-01-13T11:18:36Z</time>
      </trkpt>
      <trkpt lat="48.72614" lon="1.89801">
        <ele>175.4</ele>
        <time>2026-01-13T11:18:37Z</time>
      </trkpt>
      <trkpt lat="48.72611" lon="1.89807">
        <ele>175.4</ele>
        <time>2026-01-13T11:18:38Z</time>
      </trkpt>
      <trkpt lat="48.72609" lon="1.89814">
        <ele>175.4</ele>
        <time>2026-01-13T11:18:39Z</time>
      </trkpt>
      <trkpt lat="48.72606" lon="1.8982">
        <ele>175.8</ele>
        <time>2026-01-13T11:18:40Z</time>
      </trkpt>
      <trkpt lat="48.72604" lon="1.89827">
        <ele>175.8</ele>
        <time>2026-01-13T11:18:41Z</time>
      </trkpt>
      <trkpt lat="48.72602" lon="1.89834">
        <ele>175.8</ele>
        <time>2026-01-13T11:18:42Z</time>
      </trkpt>
      <trkpt lat="48.72599" lon="1.89841">
        <ele>174.8</ele>
        <time>2026-01-13T11:18:43Z</time>
      </trkpt>
      <trkpt lat="48.72595" lon="1.89847">
        <ele>174.6</ele>
        <time>2026-01-13T11:18:44Z</time>
      </trkpt>
      <trkpt lat="48.7259" lon="1.8985">
        <ele>174.6</ele>
        <time>2026-01-13T11:18:45Z</time>
      </trkpt>
      <trkpt lat="48.72585" lon="1.89851">
        <ele>174.6</ele>
        <time>2026-01-13T11:18:46Z</time>
      </trkpt>
      <trkpt lat="48.7258" lon="1.89849">
        <ele>175.4</ele>
        <time>2026-01-13T11:18:47Z</time>
      </trkpt>
      <trkpt lat="48.72575" lon="1.89845">
        <ele>175.4</ele>
        <time>2026-01-13T11:18:48Z</time>
      </trkpt>
      <trkpt lat="48.7257" lon="1.89841">
        <ele>175.4</ele>
        <time>2026-01-13T11:18:49Z</time>
      </trkpt>
      <trkpt lat="48.72566" lon="1.89837">
        <ele>175.4</ele>
        <time>2026-01-13T11:18:50Z</time>
      </trkpt>
      <trkpt lat="48.72561" lon="1.89834">
        <ele>175</ele>
        <time>2026-01-13T11:18:51Z</time>
      </trkpt>
      <trkpt lat="48.72556" lon="1.8983">
        <ele>175</ele>
        <time>2026-01-13T11:18:52Z</time>
      </trkpt>
      <trkpt lat="48.72552" lon="1.89826">
        <ele>175</ele>
        <time>2026-01-13T11:18:53Z</time>
      </trkpt>
      <trkpt lat="48.72547" lon="1.89822">
        <ele>175</ele>
        <time>2026-01-13T11:18:54Z</time>
      </trkpt>
      <trkpt lat="48.72543" lon="1.89818">
        <ele>175</ele>
        <time>2026-01-13T11:18:55Z</time>
      </trkpt>
      <trkpt lat="48.72538" lon="1.89815">
        <ele>175.4</ele>
        <time>2026-01-13T11:18:56Z</time>
      </trkpt>
      <trkpt lat="48.72534" lon="1.89811">
        <ele>175.8</ele>
        <time>2026-01-13T11:18:57Z</time>
      </trkpt>
      <trkpt lat="48.7253" lon="1.89808">
        <ele>176</ele>
        <time>2026-01-13T11:18:58Z</time>
      </trkpt>
      <trkpt lat="48.72525" lon="1.89804">
        <ele>176</ele>
        <time>2026-01-13T11:18:59Z</time>
      </trkpt>
      <trkpt lat="48.7252" lon="1.898">
        <ele>176</ele>
        <time>2026-01-13T11:19:00Z</time>
      </trkpt>
      <trkpt lat="48.72516" lon="1.89797">
        <ele>176</ele>
        <time>2026-01-13T11:19:01Z</time>
      </trkpt>
      <trkpt lat="48.72511" lon="1.89793">
        <ele>176.8</ele>
        <time>2026-01-13T11:19:02Z</time>
      </trkpt>
      <trkpt lat="48.72506" lon="1.8979">
        <ele>176.8</ele>
        <time>2026-01-13T11:19:03Z</time>
      </trkpt>
      <trkpt lat="48.72502" lon="1.89785">
        <ele>177</ele>
        <time>2026-01-13T11:19:04Z</time>
      </trkpt>
      <trkpt lat="48.72498" lon="1.89782">
        <ele>177</ele>
        <time>2026-01-13T11:19:05Z</time>
      </trkpt>
      <trkpt lat="48.72493" lon="1.89778">
        <ele>177</ele>
        <time>2026-01-13T11:19:06Z</time>
      </trkpt>
      <trkpt lat="48.72488" lon="1.89774">
        <ele>176.4</ele>
        <time>2026-01-13T11:19:07Z</time>
      </trkpt>
      <trkpt lat="48.72483" lon="1.8977">
        <ele>176.4</ele>
        <time>2026-01-13T11:19:08Z</time>
      </trkpt>
      <trkpt lat="48.72478" lon="1.89766">
        <ele>176.4</ele>
        <time>2026-01-13T11:19:09Z</time>
      </trkpt>
      <trkpt lat="48.72473" lon="1.89761">
        <ele>176.4</ele>
        <time>2026-01-13T11:19:10Z</time>
      </trkpt>
      <trkpt lat="48.72468" lon="1.89758">
        <ele>176.4</ele>
        <time>2026-01-13T11:19:11Z</time>
      </trkpt>
      <trkpt lat="48.72463" lon="1.89754">
        <ele>176.4</ele>
        <time>2026-01-13T11:19:12Z</time>
      </trkpt>
      <trkpt lat="48.72459" lon="1.8975">
        <ele>177</ele>
        <time>2026-01-13T11:19:13Z</time>
      </trkpt>
      <trkpt lat="48.72454" lon="1.89746">
        <ele>177</ele>
        <time>2026-01-13T11:19:14Z</time>
      </trkpt>
      <trkpt lat="48.72449" lon="1.89742">
        <ele>177</ele>
        <time>2026-01-13T11:19:15Z</time>
      </trkpt>
      <trkpt lat="48.72444" lon="1.89738">
        <ele>177</ele>
        <time>2026-01-13T11:19:16Z</time>
      </trkpt>
      <trkpt lat="48.72439" lon="1.89734">
        <ele>177</ele>
        <time>2026-01-13T11:19:17Z</time>
      </trkpt>
      <trkpt lat="48.72434" lon="1.8973">
        <ele>178</ele>
        <time>2026-01-13T11:19:18Z</time>
      </trkpt>
      <trkpt lat="48.72429" lon="1.89727">
        <ele>178</ele>
        <time>2026-01-13T11:19:19Z</time>
      </trkpt>
      <trkpt lat="48.72425" lon="1.89722">
        <ele>178</ele>
        <time>2026-01-13T11:19:20Z</time>
      </trkpt>
      <trkpt lat="48.72422" lon="1.89715">
        <ele>178</ele>
        <time>2026-01-13T11:19:21Z</time>
      </trkpt>
      <trkpt lat="48.72421" lon="1.89708">
        <ele>177.4</ele>
        <time>2026-01-13T11:19:22Z</time>
      </trkpt>
      <trkpt lat="48.72421" lon="1.897">
        <ele>177.4</ele>
        <time>2026-01-13T11:19:23Z</time>
      </trkpt>
      <trkpt lat="48.72423" lon="1.89693">
        <ele>177.4</ele>
        <time>2026-01-13T11:19:24Z</time>
      </trkpt>
      <trkpt lat="48.72425" lon="1.89686">
        <ele>178.4</ele>
        <time>2026-01-13T11:19:25Z</time>
      </trkpt>
      <trkpt lat="48.72427" lon="1.89679">
        <ele>179.2</ele>
        <time>2026-01-13T11:19:26Z</time>
      </trkpt>
      <trkpt lat="48.72429" lon="1.89671">
        <ele>179.2</ele>
        <time>2026-01-13T11:19:27Z</time>
      </trkpt>
      <trkpt lat="48.7243" lon="1.89664">
        <ele>179.2</ele>
        <time>2026-01-13T11:19:28Z</time>
      </trkpt>
      <trkpt lat="48.72431" lon="1.8966">
        <ele>179.2</ele>
        <time>2026-01-13T11:19:29Z</time>
      </trkpt>
      <trkpt lat="48.72431" lon="1.89658">
        <ele>179.2</ele>
        <time>2026-01-13T11:19:30Z</time>
      </trkpt>
      <trkpt lat="48.72431" lon="1.89656">
        <ele>179.6</ele>
        <time>2026-01-13T11:19:31Z</time>
      </trkpt>
      <trkpt lat="48.72431" lon="1.89654">
        <ele>179.6</ele>
        <time>2026-01-13T11:19:32Z</time>
      </trkpt>
      <trkpt lat="48.72429" lon="1.89652">
        <ele>179.6</ele>
        <time>2026-01-13T11:19:33Z</time>
      </trkpt>
      <trkpt lat="48.72426" lon="1.89648">
        <ele>179</ele>
        <time>2026-01-13T11:19:34Z</time>
      </trkpt>
      <trkpt lat="48.72423" lon="1.89645">
        <ele>178.6</ele>
        <time>2026-01-13T11:19:35Z</time>
      </trkpt>
      <trkpt lat="48.72419" lon="1.89642">
        <ele>178.4</ele>
        <time>2026-01-13T11:19:36Z</time>
      </trkpt>
      <trkpt lat="48.72416" lon="1.89638">
        <ele>178.2</ele>
        <time>2026-01-13T11:19:37Z</time>
      </trkpt>
      <trkpt lat="48.72412" lon="1.89634">
        <ele>178.2</ele>
        <time>2026-01-13T11:19:38Z</time>
      </trkpt>
      <trkpt lat="48.72408" lon="1.8963">
        <ele>178.2</ele>
        <time>2026-01-13T11:19:39Z</time>
      </trkpt>
      <trkpt lat="48.72405" lon="1.89625">
        <ele>179.2</ele>
        <time>2026-01-13T11:19:40Z</time>
      </trkpt>
      <trkpt lat="48.72402" lon="1.89621">
        <ele>179.2</ele>
        <time>2026-01-13T11:19:41Z</time>
      </trkpt>
      <trkpt lat="48.72398" lon="1.89618">
        <ele>179.2</ele>
        <time>2026-01-13T11:19:42Z</time>
      </trkpt>
      <trkpt lat="48.72393" lon="1.89616">
        <ele>178.2</ele>
        <time>2026-01-13T11:19:43Z</time>
      </trkpt>
      <trkpt lat="48.72388" lon="1.89615">
        <ele>178.2</ele>
        <time>2026-01-13T11:19:44Z</time>
      </trkpt>
      <trkpt lat="48.72383" lon="1.89613">
        <ele>178.2</ele>
        <time>2026-01-13T11:19:45Z</time>
      </trkpt>
      <trkpt lat="48.72378" lon="1.89611">
        <ele>178.2</ele>
        <time>2026-01-13T11:19:46Z</time>
      </trkpt>
      <trkpt lat="48.72373" lon="1.89608">
        <ele>177.2</ele>
        <time>2026-01-13T11:19:47Z</time>
      </trkpt>
      <trkpt lat="48.72368" lon="1.89604">
        <ele>176.4</ele>
        <time>2026-01-13T11:19:48Z</time>
      </trkpt>
      <trkpt lat="48.72364" lon="1.89599">
        <ele>176.4</ele>
        <time>2026-01-13T11:19:49Z</time>
      </trkpt>
      <trkpt lat="48.72359" lon="1.89595">
        <ele>176.4</ele>
        <time>2026-01-13T11:19:50Z</time>
      </trkpt>
      <trkpt lat="48.72353" lon="1.8959">
        <ele>176.4</ele>
        <time>2026-01-13T11:19:51Z</time>
      </trkpt>
      <trkpt lat="48.72348" lon="1.89586">
        <ele>176.4</ele>
        <time>2026-01-13T11:19:52Z</time>
      </trkpt>
      <trkpt lat="48.72343" lon="1.89583">
        <ele>176.4</ele>
        <time>2026-01-13T11:19:53Z</time>
      </trkpt>
      <trkpt lat="48.72336" lon="1.89579">
        <ele>175.4</ele>
        <time>2026-01-13T11:19:54Z</time>
      </trkpt>
      <trkpt lat="48.7233" lon="1.89576">
        <ele>174.4</ele>
        <time>2026-01-13T11:19:55Z</time>
      </trkpt>
      <trkpt lat="48.72323" lon="1.89574">
        <ele>173.6</ele>
        <time>2026-01-13T11:19:56Z</time>
      </trkpt>
      <trkpt lat="48.72315" lon="1.89571">
        <ele>173</ele>
        <time>2026-01-13T11:19:57Z</time>
      </trkpt>
      <trkpt lat="48.72308" lon="1.89569">
        <ele>172.6</ele>
        <time>2026-01-13T11:19:58Z</time>
      </trkpt>
      <trkpt lat="48.723" lon="1.89568">
        <ele>172.6</ele>
        <time>2026-01-13T11:19:59Z</time>
      </trkpt>
      <trkpt lat="48.72293" lon="1.89566">
        <ele>172.6</ele>
        <time>2026-01-13T11:20:00Z</time>
      </trkpt>
      <trkpt lat="48.72285" lon="1.89565">
        <ele>172.6</ele>
        <time>2026-01-13T11:20:01Z</time>
      </trkpt>
      <trkpt lat="48.72278" lon="1.89563">
        <ele>173</ele>
        <time>2026-01-13T11:20:02Z</time>
      </trkpt>
      <trkpt lat="48.7227" lon="1.89562">
        <ele>173</ele>
        <time>2026-01-13T11:20:03Z</time>
      </trkpt>
      <trkpt lat="48.72262" lon="1.89561">
        <ele>173</ele>
        <time>2026-01-13T11:20:04Z</time>
      </trkpt>
      <trkpt lat="48.72255" lon="1.8956">
        <ele>172.6</ele>
        <time>2026-01-13T11:20:05Z</time>
      </trkpt>
      <trkpt lat="48.72247" lon="1.89559">
        <ele>172.6</ele>
        <time>2026-01-13T11:20:06Z</time>
      </trkpt>
      <trkpt lat="48.7224" lon="1.89557">
        <ele>172.6</ele>
        <time>2026-01-13T11:20:07Z</time>
      </trkpt>
      <trkpt lat="48.72233" lon="1.89555">
        <ele>172.6</ele>
        <time>2026-01-13T11:20:08Z</time>
      </trkpt>
      <trkpt lat="48.72226" lon="1.89554">
        <ele>172.6</ele>
        <time>2026-01-13T11:20:09Z</time>
      </trkpt>
      <trkpt lat="48.72219" lon="1.89554">
        <ele>172.6</ele>
        <time>2026-01-13T11:20:10Z</time>
      </trkpt>
      <trkpt lat="48.72213" lon="1.89554">
        <ele>173.4</ele>
        <time>2026-01-13T11:20:11Z</time>
      </trkpt>
      <trkpt lat="48.72206" lon="1.89553">
        <ele>173.4</ele>
        <time>2026-01-13T11:20:12Z</time>
      </trkpt>
      <trkpt lat="48.722" lon="1.89553">
        <ele>173.4</ele>
        <time>2026-01-13T11:20:13Z</time>
      </trkpt>
      <trkpt lat="48.72194" lon="1.89553">
        <ele>173.4</ele>
        <time>2026-01-13T11:20:14Z</time>
      </trkpt>
      <trkpt lat="48.72188" lon="1.89553">
        <ele>174.2</ele>
        <time>2026-01-13T11:20:15Z</time>
      </trkpt>
      <trkpt lat="48.72182" lon="1.89553">
        <ele>174.2</ele>
        <time>2026-01-13T11:20:16Z</time>
      </trkpt>
      <trkpt lat="48.72177" lon="1.89553">
        <ele>174.2</ele>
        <time>2026-01-13T11:20:17Z</time>
      </trkpt>
      <trkpt lat="48.72171" lon="1.89552">
        <ele>174.2</ele>
        <time>2026-01-13T11:20:18Z</time>
      </trkpt>
      <trkpt lat="48.72165" lon="1.89552">
        <ele>174.2</ele>
        <time>2026-01-13T11:20:19Z</time>
      </trkpt>
      <trkpt lat="48.72159" lon="1.89552">
        <ele>174.2</ele>
        <time>2026-01-13T11:20:20Z</time>
      </trkpt>
      <trkpt lat="48.72153" lon="1.89553">
        <ele>174.2</ele>
        <time>2026-01-13T11:20:21Z</time>
      </trkpt>
      <trkpt lat="48.72147" lon="1.89555">
        <ele>174</ele>
        <time>2026-01-13T11:20:22Z</time>
      </trkpt>
      <trkpt lat="48.72142" lon="1.89558">
        <ele>174</ele>
        <time>2026-01-13T11:20:23Z</time>
      </trkpt>
      <trkpt lat="48.72137" lon="1.89561">
        <ele>174</ele>
        <time>2026-01-13T11:20:24Z</time>
      </trkpt>
      <trkpt lat="48.72132" lon="1.89565">
        <ele>174.6</ele>
        <time>2026-01-13T11:20:25Z</time>
      </trkpt>
      <trkpt lat="48.72126" lon="1.89568">
        <ele>175.2</ele>
        <time>2026-01-13T11:20:26Z</time>
      </trkpt>
      <trkpt lat="48.72121" lon="1.89569">
        <ele>175.4</ele>
        <time>2026-01-13T11:20:27Z</time>
      </trkpt>
      <trkpt lat="48.72116" lon="1.8957">
        <ele>175.4</ele>
        <time>2026-01-13T11:20:28Z</time>
      </trkpt>
      <trkpt lat="48.7211" lon="1.89572">
        <ele>175.4</ele>
        <time>2026-01-13T11:20:29Z</time>
      </trkpt>
      <trkpt lat="48.72104" lon="1.89573">
        <ele>175.4</ele>
        <time>2026-01-13T11:20:30Z</time>
      </trkpt>
      <trkpt lat="48.72098" lon="1.89575">
        <ele>175.4</ele>
        <time>2026-01-13T11:20:31Z</time>
      </trkpt>
      <trkpt lat="48.72093" lon="1.89578">
        <ele>175.4</ele>
        <time>2026-01-13T11:20:32Z</time>
      </trkpt>
      <trkpt lat="48.72087" lon="1.8958">
        <ele>175.4</ele>
        <time>2026-01-13T11:20:33Z</time>
      </trkpt>
      <trkpt lat="48.72083" lon="1.89581">
        <ele>175.4</ele>
        <time>2026-01-13T11:20:34Z</time>
      </trkpt>
      <trkpt lat="48.72079" lon="1.89583">
        <ele>175.4</ele>
        <time>2026-01-13T11:20:35Z</time>
      </trkpt>
      <trkpt lat="48.72075" lon="1.89584">
        <ele>176.4</ele>
        <time>2026-01-13T11:20:36Z</time>
      </trkpt>
      <trkpt lat="48.72071" lon="1.89583">
        <ele>176.4</ele>
        <time>2026-01-13T11:20:37Z</time>
      </trkpt>
      <trkpt lat="48.72067" lon="1.89583">
        <ele>176.4</ele>
        <time>2026-01-13T11:20:38Z</time>
      </trkpt>
      <trkpt lat="48.72063" lon="1.89582">
        <ele>176.4</ele>
        <time>2026-01-13T11:20:39Z</time>
      </trkpt>
      <trkpt lat="48.72058" lon="1.89583">
        <ele>176.4</ele>
        <time>2026-01-13T11:20:40Z</time>
      </trkpt>
      <trkpt lat="48.72054" lon="1.89583">
        <ele>176.4</ele>
        <time>2026-01-13T11:20:41Z</time>
      </trkpt>
      <trkpt lat="48.72048" lon="1.89585">
        <ele>176.4</ele>
        <time>2026-01-13T11:20:42Z</time>
      </trkpt>
      <trkpt lat="48.72043" lon="1.89585">
        <ele>176.4</ele>
        <time>2026-01-13T11:20:43Z</time>
      </trkpt>
      <trkpt lat="48.72037" lon="1.89586">
        <ele>175.4</ele>
        <time>2026-01-13T11:20:44Z</time>
      </trkpt>
      <trkpt lat="48.72032" lon="1.89587">
        <ele>175.4</ele>
        <time>2026-01-13T11:20:45Z</time>
      </trkpt>
      <trkpt lat="48.72027" lon="1.89587">
        <ele>175.4</ele>
        <time>2026-01-13T11:20:46Z</time>
      </trkpt>
      <trkpt lat="48.72022" lon="1.89586">
        <ele>176.4</ele>
        <time>2026-01-13T11:20:47Z</time>
      </trkpt>
      <trkpt lat="48.72017" lon="1.89584">
        <ele>176.8</ele>
        <time>2026-01-13T11:20:48Z</time>
      </trkpt>
      <trkpt lat="48.72012" lon="1.89583">
        <ele>177.2</ele>
        <time>2026-01-13T11:20:49Z</time>
      </trkpt>
      <trkpt lat="48.72006" lon="1.89582">
        <ele>177.6</ele>
        <time>2026-01-13T11:20:50Z</time>
      </trkpt>
      <trkpt lat="48.72001" lon="1.89581">
        <ele>177.6</ele>
        <time>2026-01-13T11:20:51Z</time>
      </trkpt>
      <trkpt lat="48.71996" lon="1.89579">
        <ele>177.6</ele>
        <time>2026-01-13T11:20:52Z</time>
      </trkpt>
      <trkpt lat="48.71992" lon="1.89577">
        <ele>176.8</ele>
        <time>2026-01-13T11:20:53Z</time>
      </trkpt>
      <trkpt lat="48.71987" lon="1.89574">
        <ele>176.8</ele>
        <time>2026-01-13T11:20:54Z</time>
      </trkpt>
      <trkpt lat="48.71982" lon="1.89573">
        <ele>176.8</ele>
        <time>2026-01-13T11:20:55Z</time>
      </trkpt>
      <trkpt lat="48.71976" lon="1.89571">
        <ele>177.6</ele>
        <time>2026-01-13T11:20:56Z</time>
      </trkpt>
      <trkpt lat="48.71971" lon="1.8957">
        <ele>178.6</ele>
        <time>2026-01-13T11:20:57Z</time>
      </trkpt>
      <trkpt lat="48.71966" lon="1.89568">
        <ele>178.6</ele>
        <time>2026-01-13T11:20:58Z</time>
      </trkpt>
      <trkpt lat="48.71961" lon="1.89567">
        <ele>178.6</ele>
        <time>2026-01-13T11:20:59Z</time>
      </trkpt>
      <trkpt lat="48.71955" lon="1.89565">
        <ele>178.6</ele>
        <time>2026-01-13T11:21:00Z</time>
      </trkpt>
      <trkpt lat="48.7195" lon="1.89563">
        <ele>178</ele>
        <time>2026-01-13T11:21:01Z</time>
      </trkpt>
      <trkpt lat="48.71945" lon="1.89562">
        <ele>178</ele>
        <time>2026-01-13T11:21:02Z</time>
      </trkpt>
      <trkpt lat="48.7194" lon="1.89561">
        <ele>178</ele>
        <time>2026-01-13T11:21:03Z</time>
      </trkpt>
      <trkpt lat="48.71934" lon="1.89559">
        <ele>178.6</ele>
        <time>2026-01-13T11:21:04Z</time>
      </trkpt>
      <trkpt lat="48.71929" lon="1.89558">
        <ele>179</ele>
        <time>2026-01-13T11:21:05Z</time>
      </trkpt>
      <trkpt lat="48.71924" lon="1.89556">
        <ele>179.4</ele>
        <time>2026-01-13T11:21:06Z</time>
      </trkpt>
      <trkpt lat="48.71919" lon="1.89554">
        <ele>180.2</ele>
        <time>2026-01-13T11:21:07Z</time>
      </trkpt>
      <trkpt lat="48.71914" lon="1.89553">
        <ele>180.2</ele>
        <time>2026-01-13T11:21:08Z</time>
      </trkpt>
      <trkpt lat="48.7191" lon="1.89552">
        <ele>180.2</ele>
        <time>2026-01-13T11:21:09Z</time>
      </trkpt>
      <trkpt lat="48.71905" lon="1.8955">
        <ele>179.8</ele>
        <time>2026-01-13T11:21:10Z</time>
      </trkpt>
      <trkpt lat="48.719" lon="1.89548">
        <ele>179.8</ele>
        <time>2026-01-13T11:21:11Z</time>
      </trkpt>
      <trkpt lat="48.71895" lon="1.89547">
        <ele>179.8</ele>
        <time>2026-01-13T11:21:12Z</time>
      </trkpt>
      <trkpt lat="48.7189" lon="1.89545">
        <ele>179.8</ele>
        <time>2026-01-13T11:21:13Z</time>
      </trkpt>
      <trkpt lat="48.71885" lon="1.89542">
        <ele>179.8</ele>
        <time>2026-01-13T11:21:14Z</time>
      </trkpt>
      <trkpt lat="48.7188" lon="1.8954">
        <ele>179.8</ele>
        <time>2026-01-13T11:21:15Z</time>
      </trkpt>
      <trkpt lat="48.71875" lon="1.89537">
        <ele>179.8</ele>
        <time>2026-01-13T11:21:16Z</time>
      </trkpt>
      <trkpt lat="48.71871" lon="1.89534">
        <ele>179.8</ele>
        <time>2026-01-13T11:21:17Z</time>
      </trkpt>
      <trkpt lat="48.71866" lon="1.89531">
        <ele>179.8</ele>
        <time>2026-01-13T11:21:18Z</time>
      </trkpt>
      <trkpt lat="48.71862" lon="1.89527">
        <ele>179.8</ele>
        <time>2026-01-13T11:21:19Z</time>
      </trkpt>
      <trkpt lat="48.71857" lon="1.89523">
        <ele>179.8</ele>
        <time>2026-01-13T11:21:20Z</time>
      </trkpt>
      <trkpt lat="48.71852" lon="1.89519">
        <ele>179.8</ele>
        <time>2026-01-13T11:21:21Z</time>
      </trkpt>
      <trkpt lat="48.71848" lon="1.89514">
        <ele>178.8</ele>
        <time>2026-01-13T11:21:22Z</time>
      </trkpt>
      <trkpt lat="48.71843" lon="1.89508">
        <ele>178.4</ele>
        <time>2026-01-13T11:21:23Z</time>
      </trkpt>
      <trkpt lat="48.71839" lon="1.89503">
        <ele>178.4</ele>
        <time>2026-01-13T11:21:24Z</time>
      </trkpt>
      <trkpt lat="48.71835" lon="1.89497">
        <ele>178.4</ele>
        <time>2026-01-13T11:21:25Z</time>
      </trkpt>
      <trkpt lat="48.71832" lon="1.89492">
        <ele>178.8</ele>
        <time>2026-01-13T11:21:26Z</time>
      </trkpt>
      <trkpt lat="48.71828" lon="1.89487">
        <ele>178.8</ele>
        <time>2026-01-13T11:21:27Z</time>
      </trkpt>
      <trkpt lat="48.71824" lon="1.89482">
        <ele>178.8</ele>
        <time>2026-01-13T11:21:28Z</time>
      </trkpt>
      <trkpt lat="48.71821" lon="1.89478">
        <ele>178.6</ele>
        <time>2026-01-13T11:21:29Z</time>
      </trkpt>
      <trkpt lat="48.71817" lon="1.89474">
        <ele>178</ele>
        <time>2026-01-13T11:21:30Z</time>
      </trkpt>
      <trkpt lat="48.71813" lon="1.89469">
        <ele>177.4</ele>
        <time>2026-01-13T11:21:31Z</time>
      </trkpt>
      <trkpt lat="48.71809" lon="1.89465">
        <ele>177.4</ele>
        <time>2026-01-13T11:21:32Z</time>
      </trkpt>
      <trkpt lat="48.71804" lon="1.8946">
        <ele>177.4</ele>
        <time>2026-01-13T11:21:33Z</time>
      </trkpt>
      <trkpt lat="48.71799" lon="1.89455">
        <ele>177.4</ele>
        <time>2026-01-13T11:21:34Z</time>
      </trkpt>
      <trkpt lat="48.71794" lon="1.89449">
        <ele>177.4</ele>
        <time>2026-01-13T11:21:35Z</time>
      </trkpt>
      <trkpt lat="48.7179" lon="1.89445">
        <ele>178.4</ele>
        <time>2026-01-13T11:21:36Z</time>
      </trkpt>
      <trkpt lat="48.71785" lon="1.8944">
        <ele>178.4</ele>
        <time>2026-01-13T11:21:37Z</time>
      </trkpt>
      <trkpt lat="48.7178" lon="1.89435">
        <ele>178.4</ele>
        <time>2026-01-13T11:21:38Z</time>
      </trkpt>
      <trkpt lat="48.71775" lon="1.89429">
        <ele>178.4</ele>
        <time>2026-01-13T11:21:39Z</time>
      </trkpt>
      <trkpt lat="48.7177" lon="1.89424">
        <ele>178.4</ele>
        <time>2026-01-13T11:21:40Z</time>
      </trkpt>
      <trkpt lat="48.71765" lon="1.89419">
        <ele>178.4</ele>
        <time>2026-01-13T11:21:41Z</time>
      </trkpt>
      <trkpt lat="48.7176" lon="1.89414">
        <ele>177.4</ele>
        <time>2026-01-13T11:21:42Z</time>
      </trkpt>
      <trkpt lat="48.71755" lon="1.89409">
        <ele>177.4</ele>
        <time>2026-01-13T11:21:43Z</time>
      </trkpt>
      <trkpt lat="48.7175" lon="1.89404">
        <ele>177.4</ele>
        <time>2026-01-13T11:21:44Z</time>
      </trkpt>
      <trkpt lat="48.71745" lon="1.89398">
        <ele>178.4</ele>
        <time>2026-01-13T11:21:45Z</time>
      </trkpt>
      <trkpt lat="48.7174" lon="1.89393">
        <ele>178.4</ele>
        <time>2026-01-13T11:21:46Z</time>
      </trkpt>
      <trkpt lat="48.71736" lon="1.89388">
        <ele>178.4</ele>
        <time>2026-01-13T11:21:47Z</time>
      </trkpt>
      <trkpt lat="48.71731" lon="1.89383">
        <ele>177.4</ele>
        <time>2026-01-13T11:21:48Z</time>
      </trkpt>
      <trkpt lat="48.71727" lon="1.89377">
        <ele>177.4</ele>
        <time>2026-01-13T11:21:49Z</time>
      </trkpt>
      <trkpt lat="48.71723" lon="1.89371">
        <ele>177.4</ele>
        <time>2026-01-13T11:21:50Z</time>
      </trkpt>
      <trkpt lat="48.71719" lon="1.89365">
        <ele>178.4</ele>
        <time>2026-01-13T11:21:51Z</time>
      </trkpt>
      <trkpt lat="48.71715" lon="1.89359">
        <ele>178.4</ele>
        <time>2026-01-13T11:21:52Z</time>
      </trkpt>
      <trkpt lat="48.71711" lon="1.89353">
        <ele>179.4</ele>
        <time>2026-01-13T11:21:53Z</time>
      </trkpt>
      <trkpt lat="48.71707" lon="1.89348">
        <ele>179.6</ele>
        <time>2026-01-13T11:21:54Z</time>
      </trkpt>
      <trkpt lat="48.71702" lon="1.89344">
        <ele>179.6</ele>
        <time>2026-01-13T11:21:55Z</time>
      </trkpt>
      <trkpt lat="48.71698" lon="1.89339">
        <ele>179.6</ele>
        <time>2026-01-13T11:21:56Z</time>
      </trkpt>
      <trkpt lat="48.71694" lon="1.89336">
        <ele>178.6</ele>
        <time>2026-01-13T11:21:57Z</time>
      </trkpt>
      <trkpt lat="48.71689" lon="1.89334">
        <ele>178.6</ele>
        <time>2026-01-13T11:21:58Z</time>
      </trkpt>
      <trkpt lat="48.71685" lon="1.89333">
        <ele>178.6</ele>
        <time>2026-01-13T11:21:59Z</time>
      </trkpt>
      <trkpt lat="48.7168" lon="1.89337">
        <ele>178.6</ele>
        <time>2026-01-13T11:22:00Z</time>
      </trkpt>
      <trkpt lat="48.71677" lon="1.89341">
        <ele>178.6</ele>
        <time>2026-01-13T11:22:01Z</time>
      </trkpt>
      <trkpt lat="48.71674" lon="1.89347">
        <ele>178.6</ele>
        <time>2026-01-13T11:22:02Z</time>
      </trkpt>
      <trkpt lat="48.7167" lon="1.89352">
        <ele>177.6</ele>
        <time>2026-01-13T11:22:03Z</time>
      </trkpt>
      <trkpt lat="48.71665" lon="1.89356">
        <ele>176.6</ele>
        <time>2026-01-13T11:22:04Z</time>
      </trkpt>
      <trkpt lat="48.71659" lon="1.89359">
        <ele>175.8</ele>
        <time>2026-01-13T11:22:05Z</time>
      </trkpt>
      <trkpt lat="48.71652" lon="1.89362">
        <ele>175.2</ele>
        <time>2026-01-13T11:22:06Z</time>
      </trkpt>
      <trkpt lat="48.71645" lon="1.89363">
        <ele>174.2</ele>
        <time>2026-01-13T11:22:07Z</time>
      </trkpt>
      <trkpt lat="48.71638" lon="1.89363">
        <ele>174.2</ele>
        <time>2026-01-13T11:22:08Z</time>
      </trkpt>
      <trkpt lat="48.71631" lon="1.89362">
        <ele>174.2</ele>
        <time>2026-01-13T11:22:09Z</time>
      </trkpt>
      <trkpt lat="48.71624" lon="1.89361">
        <ele>174.2</ele>
        <time>2026-01-13T11:22:10Z</time>
      </trkpt>
      <trkpt lat="48.71618" lon="1.89359">
        <ele>174.2</ele>
        <time>2026-01-13T11:22:11Z</time>
      </trkpt>
      <trkpt lat="48.71611" lon="1.89357">
        <ele>174.2</ele>
        <time>2026-01-13T11:22:12Z</time>
      </trkpt>
      <trkpt lat="48.71604" lon="1.89354">
        <ele>174.2</ele>
        <time>2026-01-13T11:22:13Z</time>
      </trkpt>
      <trkpt lat="48.71597" lon="1.89352">
        <ele>174.2</ele>
        <time>2026-01-13T11:22:14Z</time>
      </trkpt>
      <trkpt lat="48.71591" lon="1.89349">
        <ele>174.2</ele>
        <time>2026-01-13T11:22:15Z</time>
      </trkpt>
      <trkpt lat="48.71584" lon="1.89347">
        <ele>174.2</ele>
        <time>2026-01-13T11:22:16Z</time>
      </trkpt>
      <trkpt lat="48.71578" lon="1.89345">
        <ele>174.2</ele>
        <time>2026-01-13T11:22:17Z</time>
      </trkpt>
      <trkpt lat="48.71572" lon="1.89342">
        <ele>174.2</ele>
        <time>2026-01-13T11:22:18Z</time>
      </trkpt>
      <trkpt lat="48.71566" lon="1.8934">
        <ele>174.2</ele>
        <time>2026-01-13T11:22:19Z</time>
      </trkpt>
      <trkpt lat="48.7156" lon="1.89335">
        <ele>174.4</ele>
        <time>2026-01-13T11:22:20Z</time>
      </trkpt>
      <trkpt lat="48.71555" lon="1.8933">
        <ele>174.4</ele>
        <time>2026-01-13T11:22:21Z</time>
      </trkpt>
      <trkpt lat="48.71551" lon="1.89324">
        <ele>174.4</ele>
        <time>2026-01-13T11:22:22Z</time>
      </trkpt>
      <trkpt lat="48.71547" lon="1.89317">
        <ele>173.4</ele>
        <time>2026-01-13T11:22:23Z</time>
      </trkpt>
      <trkpt lat="48.71543" lon="1.8931">
        <ele>172.4</ele>
        <time>2026-01-13T11:22:24Z</time>
      </trkpt>
      <trkpt lat="48.71538" lon="1.89303">
        <ele>171.6</ele>
        <time>2026-01-13T11:22:25Z</time>
      </trkpt>
      <trkpt lat="48.71533" lon="1.89296">
        <ele>171.6</ele>
        <time>2026-01-13T11:22:26Z</time>
      </trkpt>
      <trkpt lat="48.71528" lon="1.89289">
        <ele>171.6</ele>
        <time>2026-01-13T11:22:27Z</time>
      </trkpt>
      <trkpt lat="48.71523" lon="1.89284">
        <ele>171.6</ele>
        <time>2026-01-13T11:22:28Z</time>
      </trkpt>
      <trkpt lat="48.71517" lon="1.89279">
        <ele>171.6</ele>
        <time>2026-01-13T11:22:29Z</time>
      </trkpt>
      <trkpt lat="48.71511" lon="1.89274">
        <ele>171.2</ele>
        <time>2026-01-13T11:22:30Z</time>
      </trkpt>
      <trkpt lat="48.71505" lon="1.89268">
        <ele>171.2</ele>
        <time>2026-01-13T11:22:31Z</time>
      </trkpt>
      <trkpt lat="48.715" lon="1.89263">
        <ele>171.2</ele>
        <time>2026-01-13T11:22:32Z</time>
      </trkpt>
      <trkpt lat="48.71494" lon="1.89258">
        <ele>171.2</ele>
        <time>2026-01-13T11:22:33Z</time>
      </trkpt>
      <trkpt lat="48.71488" lon="1.89253">
        <ele>171.2</ele>
        <time>2026-01-13T11:22:34Z</time>
      </trkpt>
      <trkpt lat="48.71483" lon="1.89248">
        <ele>171.2</ele>
        <time>2026-01-13T11:22:35Z</time>
      </trkpt>
      <trkpt lat="48.71478" lon="1.89243">
        <ele>171.2</ele>
        <time>2026-01-13T11:22:36Z</time>
      </trkpt>
      <trkpt lat="48.71473" lon="1.89238">
        <ele>171.2</ele>
        <time>2026-01-13T11:22:37Z</time>
      </trkpt>
      <trkpt lat="48.71469" lon="1.89233">
        <ele>171.2</ele>
        <time>2026-01-13T11:22:38Z</time>
      </trkpt>
      <trkpt lat="48.71464" lon="1.89229">
        <ele>171.2</ele>
        <time>2026-01-13T11:22:39Z</time>
      </trkpt>
      <trkpt lat="48.7146" lon="1.89225">
        <ele>172.2</ele>
        <time>2026-01-13T11:22:40Z</time>
      </trkpt>
      <trkpt lat="48.71456" lon="1.89221">
        <ele>172.6</ele>
        <time>2026-01-13T11:22:41Z</time>
      </trkpt>
      <trkpt lat="48.71452" lon="1.89217">
        <ele>172.6</ele>
        <time>2026-01-13T11:22:42Z</time>
      </trkpt>
      <trkpt lat="48.71448" lon="1.89214">
        <ele>172.6</ele>
        <time>2026-01-13T11:22:43Z</time>
      </trkpt>
      <trkpt lat="48.71445" lon="1.8921">
        <ele>171.8</ele>
        <time>2026-01-13T11:22:44Z</time>
      </trkpt>
      <trkpt lat="48.71442" lon="1.89207">
        <ele>171.4</ele>
        <time>2026-01-13T11:22:45Z</time>
      </trkpt>
      <trkpt lat="48.71439" lon="1.89204">
        <ele>171.4</ele>
        <time>2026-01-13T11:22:46Z</time>
      </trkpt>
      <trkpt lat="48.71436" lon="1.89201">
        <ele>171.4</ele>
        <time>2026-01-13T11:22:47Z</time>
      </trkpt>
      <trkpt lat="48.71433" lon="1.89198">
        <ele>172.4</ele>
        <time>2026-01-13T11:22:48Z</time>
      </trkpt>
      <trkpt lat="48.71429" lon="1.89194">
        <ele>173</ele>
        <time>2026-01-13T11:22:49Z</time>
      </trkpt>
      <trkpt lat="48.71427" lon="1.89191">
        <ele>174</ele>
        <time>2026-01-13T11:22:50Z</time>
      </trkpt>
      <trkpt lat="48.71423" lon="1.89188">
        <ele>174.6</ele>
        <time>2026-01-13T11:22:51Z</time>
      </trkpt>
      <trkpt lat="48.7142" lon="1.89185">
        <ele>174.6</ele>
        <time>2026-01-13T11:22:52Z</time>
      </trkpt>
      <trkpt lat="48.71416" lon="1.89182">
        <ele>174.6</ele>
        <time>2026-01-13T11:22:53Z</time>
      </trkpt>
      <trkpt lat="48.71412" lon="1.89179">
        <ele>174.4</ele>
        <time>2026-01-13T11:22:54Z</time>
      </trkpt>
      <trkpt lat="48.71408" lon="1.89176">
        <ele>174.2</ele>
        <time>2026-01-13T11:22:55Z</time>
      </trkpt>
      <trkpt lat="48.71405" lon="1.89173">
        <ele>174.2</ele>
        <time>2026-01-13T11:22:56Z</time>
      </trkpt>
      <trkpt lat="48.71401" lon="1.89169">
        <ele>174.2</ele>
        <time>2026-01-13T11:22:57Z</time>
      </trkpt>
      <trkpt lat="48.71398" lon="1.89166">
        <ele>174.2</ele>
        <time>2026-01-13T11:22:58Z</time>
      </trkpt>
      <trkpt lat="48.71394" lon="1.89163">
        <ele>174.2</ele>
        <time>2026-01-13T11:22:59Z</time>
      </trkpt>
      <trkpt lat="48.71391" lon="1.8916">
        <ele>174.2</ele>
        <time>2026-01-13T11:23:00Z</time>
      </trkpt>
      <trkpt lat="48.71387" lon="1.89158">
        <ele>174.2</ele>
        <time>2026-01-13T11:23:01Z</time>
      </trkpt>
      <trkpt lat="48.71383" lon="1.89155">
        <ele>175.2</ele>
        <time>2026-01-13T11:23:02Z</time>
      </trkpt>
      <trkpt lat="48.71379" lon="1.89152">
        <ele>175.6</ele>
        <time>2026-01-13T11:23:03Z</time>
      </trkpt>
      <trkpt lat="48.71375" lon="1.89149">
        <ele>175.6</ele>
        <time>2026-01-13T11:23:04Z</time>
      </trkpt>
      <trkpt lat="48.71371" lon="1.89147">
        <ele>175.6</ele>
        <time>2026-01-13T11:23:05Z</time>
      </trkpt>
      <trkpt lat="48.71368" lon="1.89144">
        <ele>175.6</ele>
        <time>2026-01-13T11:23:06Z</time>
      </trkpt>
      <trkpt lat="48.71364" lon="1.89142">
        <ele>175.6</ele>
        <time>2026-01-13T11:23:07Z</time>
      </trkpt>
      <trkpt lat="48.7136" lon="1.89139">
        <ele>175.8</ele>
        <time>2026-01-13T11:23:08Z</time>
      </trkpt>
      <trkpt lat="48.71356" lon="1.89137">
        <ele>176.2</ele>
        <time>2026-01-13T11:23:09Z</time>
      </trkpt>
      <trkpt lat="48.71352" lon="1.89135">
        <ele>176.4</ele>
        <time>2026-01-13T11:23:10Z</time>
      </trkpt>
      <trkpt lat="48.71348" lon="1.89133">
        <ele>176.6</ele>
        <time>2026-01-13T11:23:11Z</time>
      </trkpt>
      <trkpt lat="48.71344" lon="1.89131">
        <ele>177.6</ele>
        <time>2026-01-13T11:23:12Z</time>
      </trkpt>
      <trkpt lat="48.7134" lon="1.89128">
        <ele>177.6</ele>
        <time>2026-01-13T11:23:13Z</time>
      </trkpt>
      <trkpt lat="48.71336" lon="1.89127">
        <ele>177.6</ele>
        <time>2026-01-13T11:23:14Z</time>
      </trkpt>
      <trkpt lat="48.71332" lon="1.89125">
        <ele>177</ele>
        <time>2026-01-13T11:23:15Z</time>
      </trkpt>
      <trkpt lat="48.71328" lon="1.89123">
        <ele>177</ele>
        <time>2026-01-13T11:23:16Z</time>
      </trkpt>
      <trkpt lat="48.71324" lon="1.89122">
        <ele>177</ele>
        <time>2026-01-13T11:23:17Z</time>
      </trkpt>
      <trkpt lat="48.7132" lon="1.8912">
        <ele>177</ele>
        <time>2026-01-13T11:23:18Z</time>
      </trkpt>
      <trkpt lat="48.71316" lon="1.89118">
        <ele>177</ele>
        <time>2026-01-13T11:23:19Z</time>
      </trkpt>
      <trkpt lat="48.71312" lon="1.89116">
        <ele>177</ele>
        <time>2026-01-13T11:23:20Z</time>
      </trkpt>
      <trkpt lat="48.71308" lon="1.89114">
        <ele>177</ele>
        <time>2026-01-13T11:23:21Z</time>
      </trkpt>
      <trkpt lat="48.71304" lon="1.89113">
        <ele>177</ele>
        <time>2026-01-13T11:23:22Z</time>
      </trkpt>
      <trkpt lat="48.713" lon="1.89111">
        <ele>178</ele>
        <time>2026-01-13T11:23:23Z</time>
      </trkpt>
      <trkpt lat="48.71296" lon="1.8911">
        <ele>178.4</ele>
        <time>2026-01-13T11:23:24Z</time>
      </trkpt>
      <trkpt lat="48.71292" lon="1.89108">
        <ele>178.4</ele>
        <time>2026-01-13T11:23:25Z</time>
      </trkpt>
      <trkpt lat="48.71288" lon="1.89106">
        <ele>178.4</ele>
        <time>2026-01-13T11:23:26Z</time>
      </trkpt>
      <trkpt lat="48.71285" lon="1.89104">
        <ele>178.4</ele>
        <time>2026-01-13T11:23:27Z</time>
      </trkpt>
      <trkpt lat="48.71281" lon="1.89103">
        <ele>178.4</ele>
        <time>2026-01-13T11:23:28Z</time>
      </trkpt>
      <trkpt lat="48.71277" lon="1.89101">
        <ele>178.4</ele>
        <time>2026-01-13T11:23:29Z</time>
      </trkpt>
      <trkpt lat="48.71273" lon="1.89099">
        <ele>178.4</ele>
        <time>2026-01-13T11:23:30Z</time>
      </trkpt>
      <trkpt lat="48.71269" lon="1.89097">
        <ele>178.4</ele>
        <time>2026-01-13T11:23:31Z</time>
      </trkpt>
      <trkpt lat="48.71265" lon="1.89096">
        <ele>178.4</ele>
        <time>2026-01-13T11:23:32Z</time>
      </trkpt>
      <trkpt lat="48.71261" lon="1.89094">
        <ele>178.2</ele>
        <time>2026-01-13T11:23:33Z</time>
      </trkpt>
      <trkpt lat="48.71257" lon="1.89092">
        <ele>178.2</ele>
        <time>2026-01-13T11:23:34Z</time>
      </trkpt>
      <trkpt lat="48.71253" lon="1.8909">
        <ele>178.2</ele>
        <time>2026-01-13T11:23:35Z</time>
      </trkpt>
      <trkpt lat="48.71248" lon="1.89088">
        <ele>178.2</ele>
        <time>2026-01-13T11:23:36Z</time>
      </trkpt>
      <trkpt lat="48.71244" lon="1.89087">
        <ele>178.2</ele>
        <time>2026-01-13T11:23:37Z</time>
      </trkpt>
      <trkpt lat="48.7124" lon="1.89085">
        <ele>178.2</ele>
        <time>2026-01-13T11:23:38Z</time>
      </trkpt>
      <trkpt lat="48.71236" lon="1.89083">
        <ele>178.2</ele>
        <time>2026-01-13T11:23:39Z</time>
      </trkpt>
      <trkpt lat="48.71232" lon="1.89081">
        <ele>178.2</ele>
        <time>2026-01-13T11:23:40Z</time>
      </trkpt>
      <trkpt lat="48.71228" lon="1.89079">
        <ele>178.2</ele>
        <time>2026-01-13T11:23:41Z</time>
      </trkpt>
      <trkpt lat="48.71224" lon="1.89077">
        <ele>179</ele>
        <time>2026-01-13T11:23:42Z</time>
      </trkpt>
      <trkpt lat="48.7122" lon="1.89075">
        <ele>179</ele>
        <time>2026-01-13T11:23:43Z</time>
      </trkpt>
      <trkpt lat="48.71216" lon="1.89073">
        <ele>179</ele>
        <time>2026-01-13T11:23:44Z</time>
      </trkpt>
      <trkpt lat="48.71212" lon="1.89071">
        <ele>179</ele>
        <time>2026-01-13T11:23:45Z</time>
      </trkpt>
      <trkpt lat="48.71208" lon="1.89069">
        <ele>179</ele>
        <time>2026-01-13T11:23:46Z</time>
      </trkpt>
      <trkpt lat="48.71204" lon="1.89067">
        <ele>179</ele>
        <time>2026-01-13T11:23:47Z</time>
      </trkpt>
      <trkpt lat="48.712" lon="1.89065">
        <ele>179</ele>
        <time>2026-01-13T11:23:48Z</time>
      </trkpt>
      <trkpt lat="48.71196" lon="1.89063">
        <ele>179</ele>
        <time>2026-01-13T11:23:49Z</time>
      </trkpt>
      <trkpt lat="48.71192" lon="1.89061">
        <ele>179.6</ele>
        <time>2026-01-13T11:23:50Z</time>
      </trkpt>
      <trkpt lat="48.71188" lon="1.8906">
        <ele>179.6</ele>
        <time>2026-01-13T11:23:51Z</time>
      </trkpt>
      <trkpt lat="48.71184" lon="1.89058">
        <ele>179.6</ele>
        <time>2026-01-13T11:23:52Z</time>
      </trkpt>
      <trkpt lat="48.71179" lon="1.89056">
        <ele>179</ele>
        <time>2026-01-13T11:23:53Z</time>
      </trkpt>
      <trkpt lat="48.71175" lon="1.89054">
        <ele>178</ele>
        <time>2026-01-13T11:23:54Z</time>
      </trkpt>
      <trkpt lat="48.71171" lon="1.89052">
        <ele>178</ele>
        <time>2026-01-13T11:23:55Z</time>
      </trkpt>
      <trkpt lat="48.71167" lon="1.89051">
        <ele>178</ele>
        <time>2026-01-13T11:23:56Z</time>
      </trkpt>
      <trkpt lat="48.71163" lon="1.89049">
        <ele>179</ele>
        <time>2026-01-13T11:23:57Z</time>
      </trkpt>
      <trkpt lat="48.71158" lon="1.89047">
        <ele>179.2</ele>
        <time>2026-01-13T11:23:58Z</time>
      </trkpt>
      <trkpt lat="48.71154" lon="1.89045">
        <ele>179.2</ele>
        <time>2026-01-13T11:23:59Z</time>
      </trkpt>
      <trkpt lat="48.7115" lon="1.89043">
        <ele>179.2</ele>
        <time>2026-01-13T11:24:00Z</time>
      </trkpt>
      <trkpt lat="48.71145" lon="1.89041">
        <ele>179.2</ele>
        <time>2026-01-13T11:24:01Z</time>
      </trkpt>
      <trkpt lat="48.71141" lon="1.89039">
        <ele>178.6</ele>
        <time>2026-01-13T11:24:02Z</time>
      </trkpt>
      <trkpt lat="48.71137" lon="1.89037">
        <ele>178.6</ele>
        <time>2026-01-13T11:24:03Z</time>
      </trkpt>
      <trkpt lat="48.71132" lon="1.89036">
        <ele>178.6</ele>
        <time>2026-01-13T11:24:04Z</time>
      </trkpt>
      <trkpt lat="48.71128" lon="1.89034">
        <ele>179.6</ele>
        <time>2026-01-13T11:24:05Z</time>
      </trkpt>
      <trkpt lat="48.71124" lon="1.89033">
        <ele>180.2</ele>
        <time>2026-01-13T11:24:06Z</time>
      </trkpt>
      <trkpt lat="48.71119" lon="1.89031">
        <ele>180.2</ele>
        <time>2026-01-13T11:24:07Z</time>
      </trkpt>
      <trkpt lat="48.71115" lon="1.8903">
        <ele>180.8</ele>
        <time>2026-01-13T11:24:08Z</time>
      </trkpt>
      <trkpt lat="48.71111" lon="1.89028">
        <ele>181</ele>
        <time>2026-01-13T11:24:09Z</time>
      </trkpt>
      <trkpt lat="48.71108" lon="1.89025">
        <ele>181</ele>
        <time>2026-01-13T11:24:10Z</time>
      </trkpt>
      <trkpt lat="48.71106" lon="1.89021">
        <ele>181</ele>
        <time>2026-01-13T11:24:11Z</time>
      </trkpt>
      <trkpt lat="48.71104" lon="1.89017">
        <ele>181</ele>
        <time>2026-01-13T11:24:12Z</time>
      </trkpt>
      <trkpt lat="48.71105" lon="1.89012">
        <ele>182</ele>
        <time>2026-01-13T11:24:13Z</time>
      </trkpt>
      <trkpt lat="48.71107" lon="1.89008">
        <ele>182</ele>
        <time>2026-01-13T11:24:14Z</time>
      </trkpt>
      <trkpt lat="48.71109" lon="1.89003">
        <ele>182</ele>
        <time>2026-01-13T11:24:15Z</time>
      </trkpt>
      <trkpt lat="48.71111" lon="1.88998">
        <ele>182</ele>
        <time>2026-01-13T11:24:16Z</time>
      </trkpt>
      <trkpt lat="48.71113" lon="1.88992">
        <ele>181.8</ele>
        <time>2026-01-13T11:24:17Z</time>
      </trkpt>
      <trkpt lat="48.71116" lon="1.88985">
        <ele>181.4</ele>
        <time>2026-01-13T11:24:18Z</time>
      </trkpt>
      <trkpt lat="48.71118" lon="1.88979">
        <ele>181</ele>
        <time>2026-01-13T11:24:19Z</time>
      </trkpt>
      <trkpt lat="48.7112" lon="1.88972">
        <ele>181</ele>
        <time>2026-01-13T11:24:20Z</time>
      </trkpt>
      <trkpt lat="48.71123" lon="1.88965">
        <ele>181</ele>
        <time>2026-01-13T11:24:21Z</time>
      </trkpt>
      <trkpt lat="48.71126" lon="1.88958">
        <ele>181</ele>
        <time>2026-01-13T11:24:22Z</time>
      </trkpt>
      <trkpt lat="48.71129" lon="1.8895">
        <ele>180.8</ele>
        <time>2026-01-13T11:24:23Z</time>
      </trkpt>
      <trkpt lat="48.71131" lon="1.88943">
        <ele>180.2</ele>
        <time>2026-01-13T11:24:24Z</time>
      </trkpt>
      <trkpt lat="48.71134" lon="1.88935">
        <ele>180</ele>
        <time>2026-01-13T11:24:25Z</time>
      </trkpt>
      <trkpt lat="48.71137" lon="1.88927">
        <ele>179.6</ele>
        <time>2026-01-13T11:24:26Z</time>
      </trkpt>
      <trkpt lat="48.7114" lon="1.88919">
        <ele>179.6</ele>
        <time>2026-01-13T11:24:27Z</time>
      </trkpt>
      <trkpt lat="48.71143" lon="1.88911">
        <ele>179.6</ele>
        <time>2026-01-13T11:24:28Z</time>
      </trkpt>
      <trkpt lat="48.71145" lon="1.88903">
        <ele>179.6</ele>
        <time>2026-01-13T11:24:29Z</time>
      </trkpt>
      <trkpt lat="48.71148" lon="1.88895">
        <ele>179.6</ele>
        <time>2026-01-13T11:24:30Z</time>
      </trkpt>
      <trkpt lat="48.71151" lon="1.88887">
        <ele>179.6</ele>
        <time>2026-01-13T11:24:31Z</time>
      </trkpt>
      <trkpt lat="48.71154" lon="1.88879">
        <ele>180</ele>
        <time>2026-01-13T11:24:32Z</time>
      </trkpt>
      <trkpt lat="48.71157" lon="1.88871">
        <ele>180</ele>
        <time>2026-01-13T11:24:33Z</time>
      </trkpt>
      <trkpt lat="48.7116" lon="1.88862">
        <ele>180</ele>
        <time>2026-01-13T11:24:34Z</time>
      </trkpt>
      <trkpt lat="48.71163" lon="1.88854">
        <ele>180</ele>
        <time>2026-01-13T11:24:35Z</time>
      </trkpt>
      <trkpt lat="48.71166" lon="1.88845">
        <ele>180</ele>
        <time>2026-01-13T11:24:36Z</time>
      </trkpt>
      <trkpt lat="48.71169" lon="1.88837">
        <ele>180</ele>
        <time>2026-01-13T11:24:37Z</time>
      </trkpt>
      <trkpt lat="48.71172" lon="1.88828">
        <ele>180</ele>
        <time>2026-01-13T11:24:38Z</time>
      </trkpt>
      <trkpt lat="48.71175" lon="1.88819">
        <ele>180</ele>
        <time>2026-01-13T11:24:39Z</time>
      </trkpt>
      <trkpt lat="48.71178" lon="1.8881">
        <ele>180</ele>
        <time>2026-01-13T11:24:40Z</time>
      </trkpt>
      <trkpt lat="48.71181" lon="1.88802">
        <ele>180.8</ele>
        <time>2026-01-13T11:24:41Z</time>
      </trkpt>
      <trkpt lat="48.71185" lon="1.88793">
        <ele>180.8</ele>
        <time>2026-01-13T11:24:42Z</time>
      </trkpt>
      <trkpt lat="48.71188" lon="1.88784">
        <ele>180.8</ele>
        <time>2026-01-13T11:24:43Z</time>
      </trkpt>
      <trkpt lat="48.71192" lon="1.88775">
        <ele>180.8</ele>
        <time>2026-01-13T11:24:44Z</time>
      </trkpt>
      <trkpt lat="48.71195" lon="1.88766">
        <ele>180.8</ele>
        <time>2026-01-13T11:24:45Z</time>
      </trkpt>
      <trkpt lat="48.71198" lon="1.88757">
        <ele>180</ele>
        <time>2026-01-13T11:24:46Z</time>
      </trkpt>
      <trkpt lat="48.71201" lon="1.88748">
        <ele>179.6</ele>
        <time>2026-01-13T11:24:47Z</time>
      </trkpt>
      <trkpt lat="48.71204" lon="1.88739">
        <ele>179.6</ele>
        <time>2026-01-13T11:24:48Z</time>
      </trkpt>
      <trkpt lat="48.71208" lon="1.8873">
        <ele>179.6</ele>
        <time>2026-01-13T11:24:49Z</time>
      </trkpt>
      <trkpt lat="48.71211" lon="1.88721">
        <ele>179.6</ele>
        <time>2026-01-13T11:24:50Z</time>
      </trkpt>
      <trkpt lat="48.71214" lon="1.88712">
        <ele>179.6</ele>
        <time>2026-01-13T11:24:51Z</time>
      </trkpt>
      <trkpt lat="48.71218" lon="1.88703">
        <ele>179.6</ele>
        <time>2026-01-13T11:24:52Z</time>
      </trkpt>
      <trkpt lat="48.71221" lon="1.88693">
        <ele>179.6</ele>
        <time>2026-01-13T11:24:53Z</time>
      </trkpt>
      <trkpt lat="48.71224" lon="1.88684">
        <ele>179.6</ele>
        <time>2026-01-13T11:24:54Z</time>
      </trkpt>
      <trkpt lat="48.71227" lon="1.88675">
        <ele>179.8</ele>
        <time>2026-01-13T11:24:55Z</time>
      </trkpt>
      <trkpt lat="48.71231" lon="1.88666">
        <ele>179.8</ele>
        <time>2026-01-13T11:24:56Z</time>
      </trkpt>
      <trkpt lat="48.71234" lon="1.88657">
        <ele>179.8</ele>
        <time>2026-01-13T11:24:57Z</time>
      </trkpt>
      <trkpt lat="48.71237" lon="1.88648">
        <ele>179.8</ele>
        <time>2026-01-13T11:24:58Z</time>
      </trkpt>
      <trkpt lat="48.71241" lon="1.88639">
        <ele>179.6</ele>
        <time>2026-01-13T11:24:59Z</time>
      </trkpt>
      <trkpt lat="48.71244" lon="1.8863">
        <ele>179.6</ele>
        <time>2026-01-13T11:25:00Z</time>
      </trkpt>
      <trkpt lat="48.71247" lon="1.88621">
        <ele>179.6</ele>
        <time>2026-01-13T11:25:01Z</time>
      </trkpt>
      <trkpt lat="48.71251" lon="1.88612">
        <ele>179.6</ele>
        <time>2026-01-13T11:25:02Z</time>
      </trkpt>
      <trkpt lat="48.71254" lon="1.88602">
        <ele>179.6</ele>
        <time>2026-01-13T11:25:03Z</time>
      </trkpt>
      <trkpt lat="48.71257" lon="1.88593">
        <ele>179.6</ele>
        <time>2026-01-13T11:25:04Z</time>
      </trkpt>
      <trkpt lat="48.71261" lon="1.88584">
        <ele>179.2</ele>
        <time>2026-01-13T11:25:05Z</time>
      </trkpt>
      <trkpt lat="48.71264" lon="1.88575">
        <ele>178.8</ele>
        <time>2026-01-13T11:25:06Z</time>
      </trkpt>
      <trkpt lat="48.71267" lon="1.88566">
        <ele>178.8</ele>
        <time>2026-01-13T11:25:07Z</time>
      </trkpt>
      <trkpt lat="48.71271" lon="1.88557">
        <ele>178.8</ele>
        <time>2026-01-13T11:25:08Z</time>
      </trkpt>
      <trkpt lat="48.71274" lon="1.88547">
        <ele>179.8</ele>
        <time>2026-01-13T11:25:09Z</time>
      </trkpt>
      <trkpt lat="48.71277" lon="1.88538">
        <ele>179.8</ele>
        <time>2026-01-13T11:25:10Z</time>
      </trkpt>
      <trkpt lat="48.7128" lon="1.88529">
        <ele>179.8</ele>
        <time>2026-01-13T11:25:11Z</time>
      </trkpt>
      <trkpt lat="48.71284" lon="1.8852">
        <ele>179.8</ele>
        <time>2026-01-13T11:25:12Z</time>
      </trkpt>
      <trkpt lat="48.71287" lon="1.88511">
        <ele>179.4</ele>
        <time>2026-01-13T11:25:13Z</time>
      </trkpt>
      <trkpt lat="48.7129" lon="1.88502">
        <ele>179.4</ele>
        <time>2026-01-13T11:25:14Z</time>
      </trkpt>
      <trkpt lat="48.71293" lon="1.88494">
        <ele>179.4</ele>
        <time>2026-01-13T11:25:15Z</time>
      </trkpt>
      <trkpt lat="48.71296" lon="1.88486">
        <ele>180</ele>
        <time>2026-01-13T11:25:16Z</time>
      </trkpt>
      <trkpt lat="48.71299" lon="1.88478">
        <ele>180</ele>
        <time>2026-01-13T11:25:17Z</time>
      </trkpt>
      <trkpt lat="48.71302" lon="1.8847">
        <ele>180</ele>
        <time>2026-01-13T11:25:18Z</time>
      </trkpt>
      <trkpt lat="48.71301" lon="1.88462">
        <ele>180</ele>
        <time>2026-01-13T11:25:19Z</time>
      </trkpt>
      <trkpt lat="48.71298" lon="1.88455">
        <ele>180</ele>
        <time>2026-01-13T11:25:20Z</time>
      </trkpt>
      <trkpt lat="48.71295" lon="1.88448">
        <ele>180</ele>
        <time>2026-01-13T11:25:21Z</time>
      </trkpt>
      <trkpt lat="48.71292" lon="1.8844">
        <ele>179.4</ele>
        <time>2026-01-13T11:25:22Z</time>
      </trkpt>
      <trkpt lat="48.7129" lon="1.88432">
        <ele>179.4</ele>
        <time>2026-01-13T11:25:23Z</time>
      </trkpt>
      <trkpt lat="48.71287" lon="1.88424">
        <ele>179.4</ele>
        <time>2026-01-13T11:25:24Z</time>
      </trkpt>
      <trkpt lat="48.71284" lon="1.88416">
        <ele>179.4</ele>
        <time>2026-01-13T11:25:25Z</time>
      </trkpt>
      <trkpt lat="48.7128" lon="1.88408">
        <ele>179.4</ele>
        <time>2026-01-13T11:25:26Z</time>
      </trkpt>
      <trkpt lat="48.71276" lon="1.884">
        <ele>179.4</ele>
        <time>2026-01-13T11:25:27Z</time>
      </trkpt>
      <trkpt lat="48.71273" lon="1.88393">
        <ele>179.4</ele>
        <time>2026-01-13T11:25:28Z</time>
      </trkpt>
      <trkpt lat="48.71269" lon="1.88385">
        <ele>179.4</ele>
        <time>2026-01-13T11:25:29Z</time>
      </trkpt>
      <trkpt lat="48.71265" lon="1.88378">
        <ele>179.4</ele>
        <time>2026-01-13T11:25:30Z</time>
      </trkpt>
      <trkpt lat="48.71262" lon="1.8837">
        <ele>179.6</ele>
        <time>2026-01-13T11:25:31Z</time>
      </trkpt>
      <trkpt lat="48.71258" lon="1.88363">
        <ele>179.6</ele>
        <time>2026-01-13T11:25:32Z</time>
      </trkpt>
      <trkpt lat="48.71255" lon="1.88355">
        <ele>179.6</ele>
        <time>2026-01-13T11:25:33Z</time>
      </trkpt>
      <trkpt lat="48.71251" lon="1.88348">
        <ele>179.6</ele>
        <time>2026-01-13T11:25:34Z</time>
      </trkpt>
      <trkpt lat="48.71247" lon="1.88341">
        <ele>179.6</ele>
        <time>2026-01-13T11:25:35Z</time>
      </trkpt>
      <trkpt lat="48.71244" lon="1.88333">
        <ele>180.4</ele>
        <time>2026-01-13T11:25:36Z</time>
      </trkpt>
      <trkpt lat="48.7124" lon="1.88326">
        <ele>180.4</ele>
        <time>2026-01-13T11:25:37Z</time>
      </trkpt>
      <trkpt lat="48.71237" lon="1.88319">
        <ele>180.4</ele>
        <time>2026-01-13T11:25:38Z</time>
      </trkpt>
      <trkpt lat="48.71233" lon="1.88312">
        <ele>180.4</ele>
        <time>2026-01-13T11:25:39Z</time>
      </trkpt>
      <trkpt lat="48.7123" lon="1.88305">
        <ele>180.4</ele>
        <time>2026-01-13T11:25:40Z</time>
      </trkpt>
      <trkpt lat="48.71227" lon="1.88298">
        <ele>180.6</ele>
        <time>2026-01-13T11:25:41Z</time>
      </trkpt>
      <trkpt lat="48.71224" lon="1.88291">
        <ele>180.6</ele>
        <time>2026-01-13T11:25:42Z</time>
      </trkpt>
      <trkpt lat="48.7122" lon="1.88284">
        <ele>180.6</ele>
        <time>2026-01-13T11:25:43Z</time>
      </trkpt>
      <trkpt lat="48.71217" lon="1.88277">
        <ele>180.6</ele>
        <time>2026-01-13T11:25:44Z</time>
      </trkpt>
      <trkpt lat="48.71214" lon="1.8827">
        <ele>180.6</ele>
        <time>2026-01-13T11:25:45Z</time>
      </trkpt>
      <trkpt lat="48.7121" lon="1.88263">
        <ele>181.4</ele>
        <time>2026-01-13T11:25:46Z</time>
      </trkpt>
      <trkpt lat="48.71207" lon="1.88256">
        <ele>181.4</ele>
        <time>2026-01-13T11:25:47Z</time>
      </trkpt>
      <trkpt lat="48.71203" lon="1.88248">
        <ele>181.4</ele>
        <time>2026-01-13T11:25:48Z</time>
      </trkpt>
      <trkpt lat="48.712" lon="1.88241">
        <ele>181.4</ele>
        <time>2026-01-13T11:25:49Z</time>
      </trkpt>
      <trkpt lat="48.71197" lon="1.88234">
        <ele>180.8</ele>
        <time>2026-01-13T11:25:50Z</time>
      </trkpt>
      <trkpt lat="48.71194" lon="1.88226">
        <ele>180.8</ele>
        <time>2026-01-13T11:25:51Z</time>
      </trkpt>
      <trkpt lat="48.71191" lon="1.88219">
        <ele>180.8</ele>
        <time>2026-01-13T11:25:52Z</time>
      </trkpt>
      <trkpt lat="48.71188" lon="1.8821">
        <ele>181</ele>
        <time>2026-01-13T11:25:53Z</time>
      </trkpt>
      <trkpt lat="48.71185" lon="1.88202">
        <ele>181.6</ele>
        <time>2026-01-13T11:25:54Z</time>
      </trkpt>
      <trkpt lat="48.71183" lon="1.88194">
        <ele>181.8</ele>
        <time>2026-01-13T11:25:55Z</time>
      </trkpt>
      <trkpt lat="48.7118" lon="1.88185">
        <ele>181.8</ele>
        <time>2026-01-13T11:25:56Z</time>
      </trkpt>
      <trkpt lat="48.71178" lon="1.88176">
        <ele>181.8</ele>
        <time>2026-01-13T11:25:57Z</time>
      </trkpt>
      <trkpt lat="48.71175" lon="1.88167">
        <ele>181.8</ele>
        <time>2026-01-13T11:25:58Z</time>
      </trkpt>
      <trkpt lat="48.71173" lon="1.88158">
        <ele>181.8</ele>
        <time>2026-01-13T11:25:59Z</time>
      </trkpt>
      <trkpt lat="48.71171" lon="1.8815">
        <ele>181.8</ele>
        <time>2026-01-13T11:26:00Z</time>
      </trkpt>
      <trkpt lat="48.71169" lon="1.88141">
        <ele>181.8</ele>
        <time>2026-01-13T11:26:01Z</time>
      </trkpt>
      <trkpt lat="48.71167" lon="1.88132">
        <ele>181.8</ele>
        <time>2026-01-13T11:26:02Z</time>
      </trkpt>
      <trkpt lat="48.71165" lon="1.88123">
        <ele>181.8</ele>
        <time>2026-01-13T11:26:03Z</time>
      </trkpt>
      <trkpt lat="48.71163" lon="1.88114">
        <ele>182.4</ele>
        <time>2026-01-13T11:26:04Z</time>
      </trkpt>
      <trkpt lat="48.71161" lon="1.88105">
        <ele>182.4</ele>
        <time>2026-01-13T11:26:05Z</time>
      </trkpt>
      <trkpt lat="48.71159" lon="1.88096">
        <ele>182.4</ele>
        <time>2026-01-13T11:26:06Z</time>
      </trkpt>
      <trkpt lat="48.71157" lon="1.88088">
        <ele>182.2</ele>
        <time>2026-01-13T11:26:07Z</time>
      </trkpt>
      <trkpt lat="48.71155" lon="1.88079">
        <ele>182.2</ele>
        <time>2026-01-13T11:26:08Z</time>
      </trkpt>
      <trkpt lat="48.71152" lon="1.8807">
        <ele>182.2</ele>
        <time>2026-01-13T11:26:09Z</time>
      </trkpt>
      <trkpt lat="48.7115" lon="1.88061">
        <ele>182.2</ele>
        <time>2026-01-13T11:26:10Z</time>
      </trkpt>
      <trkpt lat="48.71147" lon="1.88052">
        <ele>181.4</ele>
        <time>2026-01-13T11:26:11Z</time>
      </trkpt>
      <trkpt lat="48.71145" lon="1.88042">
        <ele>181.4</ele>
        <time>2026-01-13T11:26:12Z</time>
      </trkpt>
      <trkpt lat="48.71143" lon="1.88033">
        <ele>181.4</ele>
        <time>2026-01-13T11:26:13Z</time>
      </trkpt>
      <trkpt lat="48.7114" lon="1.88023">
        <ele>181.4</ele>
        <time>2026-01-13T11:26:14Z</time>
      </trkpt>
      <trkpt lat="48.71138" lon="1.88013">
        <ele>181.4</ele>
        <time>2026-01-13T11:26:15Z</time>
      </trkpt>
      <trkpt lat="48.71136" lon="1.88003">
        <ele>180.6</ele>
        <time>2026-01-13T11:26:16Z</time>
      </trkpt>
      <trkpt lat="48.71133" lon="1.87993">
        <ele>180.6</ele>
        <time>2026-01-13T11:26:17Z</time>
      </trkpt>
      <trkpt lat="48.71131" lon="1.87982">
        <ele>180.6</ele>
        <time>2026-01-13T11:26:18Z</time>
      </trkpt>
      <trkpt lat="48.71128" lon="1.87972">
        <ele>180.6</ele>
        <time>2026-01-13T11:26:19Z</time>
      </trkpt>
      <trkpt lat="48.71126" lon="1.87962">
        <ele>180.2</ele>
        <time>2026-01-13T11:26:20Z</time>
      </trkpt>
      <trkpt lat="48.71123" lon="1.87952">
        <ele>180.2</ele>
        <time>2026-01-13T11:26:21Z</time>
      </trkpt>
      <trkpt lat="48.71121" lon="1.87941">
        <ele>180.2</ele>
        <time>2026-01-13T11:26:22Z</time>
      </trkpt>
      <trkpt lat="48.71119" lon="1.87932">
        <ele>180.2</ele>
        <time>2026-01-13T11:26:23Z</time>
      </trkpt>
      <trkpt lat="48.71116" lon="1.87922">
        <ele>180.2</ele>
        <time>2026-01-13T11:26:24Z</time>
      </trkpt>
      <trkpt lat="48.71114" lon="1.87912">
        <ele>179.8</ele>
        <time>2026-01-13T11:26:25Z</time>
      </trkpt>
      <trkpt lat="48.71111" lon="1.87902">
        <ele>179.8</ele>
        <time>2026-01-13T11:26:26Z</time>
      </trkpt>
      <trkpt lat="48.71109" lon="1.87891">
        <ele>179.8</ele>
        <time>2026-01-13T11:26:27Z</time>
      </trkpt>
      <trkpt lat="48.71106" lon="1.8788">
        <ele>179.8</ele>
        <time>2026-01-13T11:26:28Z</time>
      </trkpt>
      <trkpt lat="48.71103" lon="1.8787">
        <ele>179.8</ele>
        <time>2026-01-13T11:26:29Z</time>
      </trkpt>
      <trkpt lat="48.71101" lon="1.87859">
        <ele>179.4</ele>
        <time>2026-01-13T11:26:30Z</time>
      </trkpt>
      <trkpt lat="48.71098" lon="1.87848">
        <ele>178.6</ele>
        <time>2026-01-13T11:26:31Z</time>
      </trkpt>
      <trkpt lat="48.71095" lon="1.87838">
        <ele>178.6</ele>
        <time>2026-01-13T11:26:32Z</time>
      </trkpt>
      <trkpt lat="48.71092" lon="1.87827">
        <ele>178.2</ele>
        <time>2026-01-13T11:26:33Z</time>
      </trkpt>
      <trkpt lat="48.7109" lon="1.87817">
        <ele>178.2</ele>
        <time>2026-01-13T11:26:34Z</time>
      </trkpt>
      <trkpt lat="48.71087" lon="1.87806">
        <ele>178.2</ele>
        <time>2026-01-13T11:26:35Z</time>
      </trkpt>
      <trkpt lat="48.71085" lon="1.87795">
        <ele>178.2</ele>
        <time>2026-01-13T11:26:36Z</time>
      </trkpt>
      <trkpt lat="48.71082" lon="1.87784">
        <ele>178.2</ele>
        <time>2026-01-13T11:26:37Z</time>
      </trkpt>
      <trkpt lat="48.7108" lon="1.87773">
        <ele>178.2</ele>
        <time>2026-01-13T11:26:38Z</time>
      </trkpt>
      <trkpt lat="48.71078" lon="1.87762">
        <ele>178.2</ele>
        <time>2026-01-13T11:26:39Z</time>
      </trkpt>
      <trkpt lat="48.71075" lon="1.8775">
        <ele>178.2</ele>
        <time>2026-01-13T11:26:40Z</time>
      </trkpt>
      <trkpt lat="48.71072" lon="1.87739">
        <ele>178.2</ele>
        <time>2026-01-13T11:26:41Z</time>
      </trkpt>
      <trkpt lat="48.7107" lon="1.87728">
        <ele>178</ele>
        <time>2026-01-13T11:26:42Z</time>
      </trkpt>
      <trkpt lat="48.71067" lon="1.87717">
        <ele>177.2</ele>
        <time>2026-01-13T11:26:43Z</time>
      </trkpt>
      <trkpt lat="48.71065" lon="1.87706">
        <ele>177.2</ele>
        <time>2026-01-13T11:26:44Z</time>
      </trkpt>
      <trkpt lat="48.71062" lon="1.87695">
        <ele>177.2</ele>
        <time>2026-01-13T11:26:45Z</time>
      </trkpt>
      <trkpt lat="48.7106" lon="1.87684">
        <ele>177.2</ele>
        <time>2026-01-13T11:26:46Z</time>
      </trkpt>
      <trkpt lat="48.71057" lon="1.87672">
        <ele>176.8</ele>
        <time>2026-01-13T11:26:47Z</time>
      </trkpt>
      <trkpt lat="48.71055" lon="1.87661">
        <ele>176.8</ele>
        <time>2026-01-13T11:26:48Z</time>
      </trkpt>
      <trkpt lat="48.71052" lon="1.8765">
        <ele>176.8</ele>
        <time>2026-01-13T11:26:49Z</time>
      </trkpt>
      <trkpt lat="48.7105" lon="1.87639">
        <ele>177.2</ele>
        <time>2026-01-13T11:26:50Z</time>
      </trkpt>
      <trkpt lat="48.71047" lon="1.87628">
        <ele>177.2</ele>
        <time>2026-01-13T11:26:51Z</time>
      </trkpt>
      <trkpt lat="48.71045" lon="1.87618">
        <ele>177.2</ele>
        <time>2026-01-13T11:26:52Z</time>
      </trkpt>
      <trkpt lat="48.71042" lon="1.87607">
        <ele>177.2</ele>
        <time>2026-01-13T11:26:53Z</time>
      </trkpt>
      <trkpt lat="48.7104" lon="1.87597">
        <ele>177.2</ele>
        <time>2026-01-13T11:26:54Z</time>
      </trkpt>
      <trkpt lat="48.71037" lon="1.87586">
        <ele>178.2</ele>
        <time>2026-01-13T11:26:55Z</time>
      </trkpt>
      <trkpt lat="48.71035" lon="1.87576">
        <ele>178.2</ele>
        <time>2026-01-13T11:26:56Z</time>
      </trkpt>
      <trkpt lat="48.71033" lon="1.87566">
        <ele>178.2</ele>
        <time>2026-01-13T11:26:57Z</time>
      </trkpt>
      <trkpt lat="48.71031" lon="1.87557">
        <ele>178.2</ele>
        <time>2026-01-13T11:26:58Z</time>
      </trkpt>
      <trkpt lat="48.71029" lon="1.87547">
        <ele>179.2</ele>
        <time>2026-01-13T11:26:59Z</time>
      </trkpt>
      <trkpt lat="48.71027" lon="1.87538">
        <ele>179.8</ele>
        <time>2026-01-13T11:27:00Z</time>
      </trkpt>
      <trkpt lat="48.71025" lon="1.8753">
        <ele>179.8</ele>
        <time>2026-01-13T11:27:01Z</time>
      </trkpt>
      <trkpt lat="48.71023" lon="1.87521">
        <ele>179.8</ele>
        <time>2026-01-13T11:27:02Z</time>
      </trkpt>
      <trkpt lat="48.71021" lon="1.87512">
        <ele>179.8</ele>
        <time>2026-01-13T11:27:03Z</time>
      </trkpt>
      <trkpt lat="48.71019" lon="1.87504">
        <ele>180</ele>
        <time>2026-01-13T11:27:04Z</time>
      </trkpt>
      <trkpt lat="48.71017" lon="1.87496">
        <ele>180.2</ele>
        <time>2026-01-13T11:27:05Z</time>
      </trkpt>
      <trkpt lat="48.71014" lon="1.87487">
        <ele>180.2</ele>
        <time>2026-01-13T11:27:06Z</time>
      </trkpt>
      <trkpt lat="48.71012" lon="1.87477">
        <ele>180.2</ele>
        <time>2026-01-13T11:27:07Z</time>
      </trkpt>
      <trkpt lat="48.7101" lon="1.87467">
        <ele>180.2</ele>
        <time>2026-01-13T11:27:08Z</time>
      </trkpt>
      <trkpt lat="48.71008" lon="1.87458">
        <ele>180.2</ele>
        <time>2026-01-13T11:27:09Z</time>
      </trkpt>
      <trkpt lat="48.71006" lon="1.87449">
        <ele>180.2</ele>
        <time>2026-01-13T11:27:10Z</time>
      </trkpt>
      <trkpt lat="48.71004" lon="1.8744">
        <ele>181.2</ele>
        <time>2026-01-13T11:27:11Z</time>
      </trkpt>
      <trkpt lat="48.71002" lon="1.87431">
        <ele>181.2</ele>
        <time>2026-01-13T11:27:12Z</time>
      </trkpt>
      <trkpt lat="48.71" lon="1.87422">
        <ele>181.4</ele>
        <time>2026-01-13T11:27:13Z</time>
      </trkpt>
      <trkpt lat="48.70998" lon="1.87413">
        <ele>181.4</ele>
        <time>2026-01-13T11:27:14Z</time>
      </trkpt>
      <trkpt lat="48.70995" lon="1.87403">
        <ele>181.4</ele>
        <time>2026-01-13T11:27:15Z</time>
      </trkpt>
      <trkpt lat="48.70992" lon="1.87394">
        <ele>180.8</ele>
        <time>2026-01-13T11:27:16Z</time>
      </trkpt>
      <trkpt lat="48.7099" lon="1.87384">
        <ele>180.8</ele>
        <time>2026-01-13T11:27:17Z</time>
      </trkpt>
      <trkpt lat="48.70989" lon="1.87375">
        <ele>180.8</ele>
        <time>2026-01-13T11:27:18Z</time>
      </trkpt>
      <trkpt lat="48.70987" lon="1.87365">
        <ele>180.8</ele>
        <time>2026-01-13T11:27:19Z</time>
      </trkpt>
      <trkpt lat="48.70984" lon="1.87356">
        <ele>181.4</ele>
        <time>2026-01-13T11:27:20Z</time>
      </trkpt>
      <trkpt lat="48.70982" lon="1.87346">
        <ele>181.4</ele>
        <time>2026-01-13T11:27:21Z</time>
      </trkpt>
      <trkpt lat="48.70981" lon="1.87336">
        <ele>181.4</ele>
        <time>2026-01-13T11:27:22Z</time>
      </trkpt>
      <trkpt lat="48.7098" lon="1.87326">
        <ele>181.4</ele>
        <time>2026-01-13T11:27:23Z</time>
      </trkpt>
      <trkpt lat="48.70981" lon="1.87317">
        <ele>181.4</ele>
        <time>2026-01-13T11:27:24Z</time>
      </trkpt>
      <trkpt lat="48.70984" lon="1.87309">
        <ele>181.4</ele>
        <time>2026-01-13T11:27:25Z</time>
      </trkpt>
      <trkpt lat="48.70987" lon="1.87301">
        <ele>181.4</ele>
        <time>2026-01-13T11:27:26Z</time>
      </trkpt>
      <trkpt lat="48.70991" lon="1.87292">
        <ele>181.4</ele>
        <time>2026-01-13T11:27:27Z</time>
      </trkpt>
      <trkpt lat="48.70994" lon="1.87284">
        <ele>181.4</ele>
        <time>2026-01-13T11:27:28Z</time>
      </trkpt>
      <trkpt lat="48.70996" lon="1.87275">
        <ele>182</ele>
        <time>2026-01-13T11:27:29Z</time>
      </trkpt>
      <trkpt lat="48.70998" lon="1.87266">
        <ele>182</ele>
        <time>2026-01-13T11:27:30Z</time>
      </trkpt>
      <trkpt lat="48.71" lon="1.87257">
        <ele>182</ele>
        <time>2026-01-13T11:27:31Z</time>
      </trkpt>
      <trkpt lat="48.71003" lon="1.87247">
        <ele>181.4</ele>
        <time>2026-01-13T11:27:32Z</time>
      </trkpt>
      <trkpt lat="48.71005" lon="1.87238">
        <ele>180.8</ele>
        <time>2026-01-13T11:27:33Z</time>
      </trkpt>
      <trkpt lat="48.71007" lon="1.87228">
        <ele>180.8</ele>
        <time>2026-01-13T11:27:34Z</time>
      </trkpt>
      <trkpt lat="48.71009" lon="1.87219">
        <ele>180.8</ele>
        <time>2026-01-13T11:27:35Z</time>
      </trkpt>
      <trkpt lat="48.71012" lon="1.8721">
        <ele>180.8</ele>
        <time>2026-01-13T11:27:36Z</time>
      </trkpt>
      <trkpt lat="48.71014" lon="1.87201">
        <ele>180.8</ele>
        <time>2026-01-13T11:27:37Z</time>
      </trkpt>
      <trkpt lat="48.71017" lon="1.87193">
        <ele>181.8</ele>
        <time>2026-01-13T11:27:38Z</time>
      </trkpt>
      <trkpt lat="48.71019" lon="1.87184">
        <ele>181.8</ele>
        <time>2026-01-13T11:27:39Z</time>
      </trkpt>
      <trkpt lat="48.71021" lon="1.87176">
        <ele>181.8</ele>
        <time>2026-01-13T11:27:40Z</time>
      </trkpt>
      <trkpt lat="48.71024" lon="1.87167">
        <ele>181.8</ele>
        <time>2026-01-13T11:27:41Z</time>
      </trkpt>
      <trkpt lat="48.71026" lon="1.87159">
        <ele>181.8</ele>
        <time>2026-01-13T11:27:42Z</time>
      </trkpt>
      <trkpt lat="48.71028" lon="1.8715">
        <ele>182.4</ele>
        <time>2026-01-13T11:27:43Z</time>
      </trkpt>
      <trkpt lat="48.7103" lon="1.87142">
        <ele>182.6</ele>
        <time>2026-01-13T11:27:44Z</time>
      </trkpt>
      <trkpt lat="48.71032" lon="1.87134">
        <ele>182.8</ele>
        <time>2026-01-13T11:27:45Z</time>
      </trkpt>
      <trkpt lat="48.71034" lon="1.87126">
        <ele>182.8</ele>
        <time>2026-01-13T11:27:46Z</time>
      </trkpt>
      <trkpt lat="48.71036" lon="1.87118">
        <ele>182.8</ele>
        <time>2026-01-13T11:27:47Z</time>
      </trkpt>
      <trkpt lat="48.71038" lon="1.8711">
        <ele>182.8</ele>
        <time>2026-01-13T11:27:48Z</time>
      </trkpt>
      <trkpt lat="48.7104" lon="1.87101">
        <ele>183.8</ele>
        <time>2026-01-13T11:27:49Z</time>
      </trkpt>
      <trkpt lat="48.71042" lon="1.87093">
        <ele>183.8</ele>
        <time>2026-01-13T11:27:50Z</time>
      </trkpt>
      <trkpt lat="48.71044" lon="1.87086">
        <ele>183.8</ele>
        <time>2026-01-13T11:27:51Z</time>
      </trkpt>
      <trkpt lat="48.71047" lon="1.87078">
        <ele>183.8</ele>
        <time>2026-01-13T11:27:52Z</time>
      </trkpt>
      <trkpt lat="48.71049" lon="1.87069">
        <ele>183.8</ele>
        <time>2026-01-13T11:27:53Z</time>
      </trkpt>
      <trkpt lat="48.71051" lon="1.87061">
        <ele>184.2</ele>
        <time>2026-01-13T11:27:54Z</time>
      </trkpt>
      <trkpt lat="48.71053" lon="1.87052">
        <ele>184.4</ele>
        <time>2026-01-13T11:27:55Z</time>
      </trkpt>
      <trkpt lat="48.71055" lon="1.87044">
        <ele>184.4</ele>
        <time>2026-01-13T11:27:56Z</time>
      </trkpt>
      <trkpt lat="48.71058" lon="1.87035">
        <ele>184.4</ele>
        <time>2026-01-13T11:27:57Z</time>
      </trkpt>
      <trkpt lat="48.7106" lon="1.87027">
        <ele>183.4</ele>
        <time>2026-01-13T11:27:58Z</time>
      </trkpt>
      <trkpt lat="48.71062" lon="1.87018">
        <ele>183.2</ele>
        <time>2026-01-13T11:27:59Z</time>
      </trkpt>
      <trkpt lat="48.71065" lon="1.8701">
        <ele>183.2</ele>
        <time>2026-01-13T11:28:00Z</time>
      </trkpt>
      <trkpt lat="48.71067" lon="1.87001">
        <ele>183.2</ele>
        <time>2026-01-13T11:28:01Z</time>
      </trkpt>
      <trkpt lat="48.7107" lon="1.86992">
        <ele>184</ele>
        <time>2026-01-13T11:28:02Z</time>
      </trkpt>
      <trkpt lat="48.71072" lon="1.86983">
        <ele>184</ele>
        <time>2026-01-13T11:28:03Z</time>
      </trkpt>
      <trkpt lat="48.71075" lon="1.86973">
        <ele>184</ele>
        <time>2026-01-13T11:28:04Z</time>
      </trkpt>
      <trkpt lat="48.71077" lon="1.86964">
        <ele>183.6</ele>
        <time>2026-01-13T11:28:05Z</time>
      </trkpt>
      <trkpt lat="48.7108" lon="1.86954">
        <ele>183.2</ele>
        <time>2026-01-13T11:28:06Z</time>
      </trkpt>
      <trkpt lat="48.71082" lon="1.86944">
        <ele>183</ele>
        <time>2026-01-13T11:28:07Z</time>
      </trkpt>
      <trkpt lat="48.71085" lon="1.86934">
        <ele>182.4</ele>
        <time>2026-01-13T11:28:08Z</time>
      </trkpt>
      <trkpt lat="48.71088" lon="1.86924">
        <ele>181.8</ele>
        <time>2026-01-13T11:28:09Z</time>
      </trkpt>
      <trkpt lat="48.71091" lon="1.86914">
        <ele>181</ele>
        <time>2026-01-13T11:28:10Z</time>
      </trkpt>
      <trkpt lat="48.71093" lon="1.86903">
        <ele>181</ele>
        <time>2026-01-13T11:28:11Z</time>
      </trkpt>
      <trkpt lat="48.71096" lon="1.86893">
        <ele>181</ele>
        <time>2026-01-13T11:28:12Z</time>
      </trkpt>
      <trkpt lat="48.71099" lon="1.86882">
        <ele>181</ele>
        <time>2026-01-13T11:28:13Z</time>
      </trkpt>
      <trkpt lat="48.71102" lon="1.86872">
        <ele>181</ele>
        <time>2026-01-13T11:28:14Z</time>
      </trkpt>
      <trkpt lat="48.71104" lon="1.86862">
        <ele>181</ele>
        <time>2026-01-13T11:28:15Z</time>
      </trkpt>
      <trkpt lat="48.71107" lon="1.86852">
        <ele>181</ele>
        <time>2026-01-13T11:28:16Z</time>
      </trkpt>
      <trkpt lat="48.7111" lon="1.86842">
        <ele>181</ele>
        <time>2026-01-13T11:28:17Z</time>
      </trkpt>
      <trkpt lat="48.71113" lon="1.86832">
        <ele>181</ele>
        <time>2026-01-13T11:28:18Z</time>
      </trkpt>
      <trkpt lat="48.71115" lon="1.86822">
        <ele>181</ele>
        <time>2026-01-13T11:28:19Z</time>
      </trkpt>
      <trkpt lat="48.71118" lon="1.86813">
        <ele>180</ele>
        <time>2026-01-13T11:28:20Z</time>
      </trkpt>
      <trkpt lat="48.71121" lon="1.86803">
        <ele>180</ele>
        <time>2026-01-13T11:28:21Z</time>
      </trkpt>
      <trkpt lat="48.71124" lon="1.86794">
        <ele>180</ele>
        <time>2026-01-13T11:28:22Z</time>
      </trkpt>
      <trkpt lat="48.71126" lon="1.86784">
        <ele>181</ele>
        <time>2026-01-13T11:28:23Z</time>
      </trkpt>
      <trkpt lat="48.71129" lon="1.86775">
        <ele>182</ele>
        <time>2026-01-13T11:28:24Z</time>
      </trkpt>
      <trkpt lat="48.71131" lon="1.86766">
        <ele>182</ele>
        <time>2026-01-13T11:28:25Z</time>
      </trkpt>
      <trkpt lat="48.71133" lon="1.86756">
        <ele>182</ele>
        <time>2026-01-13T11:28:26Z</time>
      </trkpt>
      <trkpt lat="48.71136" lon="1.86747">
        <ele>182</ele>
        <time>2026-01-13T11:28:27Z</time>
      </trkpt>
      <trkpt lat="48.71138" lon="1.86738">
        <ele>182</ele>
        <time>2026-01-13T11:28:28Z</time>
      </trkpt>
      <trkpt lat="48.71141" lon="1.86729">
        <ele>182</ele>
        <time>2026-01-13T11:28:29Z</time>
      </trkpt>
      <trkpt lat="48.71143" lon="1.8672">
        <ele>182</ele>
        <time>2026-01-13T11:28:30Z</time>
      </trkpt>
      <trkpt lat="48.71146" lon="1.8671">
        <ele>182</ele>
        <time>2026-01-13T11:28:31Z</time>
      </trkpt>
      <trkpt lat="48.71148" lon="1.86701">
        <ele>182</ele>
        <time>2026-01-13T11:28:32Z</time>
      </trkpt>
      <trkpt lat="48.71151" lon="1.86692">
        <ele>182</ele>
        <time>2026-01-13T11:28:33Z</time>
      </trkpt>
      <trkpt lat="48.71153" lon="1.86683">
        <ele>182</ele>
        <time>2026-01-13T11:28:34Z</time>
      </trkpt>
      <trkpt lat="48.71156" lon="1.86674">
        <ele>182</ele>
        <time>2026-01-13T11:28:35Z</time>
      </trkpt>
      <trkpt lat="48.71158" lon="1.86665">
        <ele>181</ele>
        <time>2026-01-13T11:28:36Z</time>
      </trkpt>
      <trkpt lat="48.71161" lon="1.86657">
        <ele>181</ele>
        <time>2026-01-13T11:28:37Z</time>
      </trkpt>
      <trkpt lat="48.71164" lon="1.86648">
        <ele>181</ele>
        <time>2026-01-13T11:28:38Z</time>
      </trkpt>
      <trkpt lat="48.71166" lon="1.86639">
        <ele>182</ele>
        <time>2026-01-13T11:28:39Z</time>
      </trkpt>
      <trkpt lat="48.71168" lon="1.8663">
        <ele>183</ele>
        <time>2026-01-13T11:28:40Z</time>
      </trkpt>
      <trkpt lat="48.71171" lon="1.86621">
        <ele>183</ele>
        <time>2026-01-13T11:28:41Z</time>
      </trkpt>
      <trkpt lat="48.71174" lon="1.86611">
        <ele>183</ele>
        <time>2026-01-13T11:28:42Z</time>
      </trkpt>
      <trkpt lat="48.71176" lon="1.86602">
        <ele>182.6</ele>
        <time>2026-01-13T11:28:43Z</time>
      </trkpt>
      <trkpt lat="48.71179" lon="1.86593">
        <ele>182.4</ele>
        <time>2026-01-13T11:28:44Z</time>
      </trkpt>
      <trkpt lat="48.71181" lon="1.86584">
        <ele>182.4</ele>
        <time>2026-01-13T11:28:45Z</time>
      </trkpt>
      <trkpt lat="48.71184" lon="1.86574">
        <ele>182.4</ele>
        <time>2026-01-13T11:28:46Z</time>
      </trkpt>
      <trkpt lat="48.71186" lon="1.86565">
        <ele>182.4</ele>
        <time>2026-01-13T11:28:47Z</time>
      </trkpt>
      <trkpt lat="48.71189" lon="1.86556">
        <ele>182.4</ele>
        <time>2026-01-13T11:28:48Z</time>
      </trkpt>
      <trkpt lat="48.71191" lon="1.86547">
        <ele>182.4</ele>
        <time>2026-01-13T11:28:49Z</time>
      </trkpt>
      <trkpt lat="48.71193" lon="1.86538">
        <ele>183.2</ele>
        <time>2026-01-13T11:28:50Z</time>
      </trkpt>
      <trkpt lat="48.71196" lon="1.86529">
        <ele>183.6</ele>
        <time>2026-01-13T11:28:51Z</time>
      </trkpt>
      <trkpt lat="48.71198" lon="1.8652">
        <ele>183.6</ele>
        <time>2026-01-13T11:28:52Z</time>
      </trkpt>
      <trkpt lat="48.712" lon="1.86511">
        <ele>183.6</ele>
        <time>2026-01-13T11:28:53Z</time>
      </trkpt>
      <trkpt lat="48.71203" lon="1.86503">
        <ele>183.6</ele>
        <time>2026-01-13T11:28:54Z</time>
      </trkpt>
      <trkpt lat="48.71205" lon="1.86494">
        <ele>183.6</ele>
        <time>2026-01-13T11:28:55Z</time>
      </trkpt>
      <trkpt lat="48.71208" lon="1.86485">
        <ele>183</ele>
        <time>2026-01-13T11:28:56Z</time>
      </trkpt>
      <trkpt lat="48.71211" lon="1.86476">
        <ele>182.4</ele>
        <time>2026-01-13T11:28:57Z</time>
      </trkpt>
      <trkpt lat="48.71213" lon="1.86467">
        <ele>182.4</ele>
        <time>2026-01-13T11:28:58Z</time>
      </trkpt>
      <trkpt lat="48.71215" lon="1.86457">
        <ele>182.4</ele>
        <time>2026-01-13T11:28:59Z</time>
      </trkpt>
      <trkpt lat="48.71218" lon="1.86448">
        <ele>182.6</ele>
        <time>2026-01-13T11:29:00Z</time>
      </trkpt>
      <trkpt lat="48.7122" lon="1.86439">
        <ele>182.6</ele>
        <time>2026-01-13T11:29:01Z</time>
      </trkpt>
      <trkpt lat="48.71222" lon="1.8643">
        <ele>182.6</ele>
        <time>2026-01-13T11:29:02Z</time>
      </trkpt>
      <trkpt lat="48.71225" lon="1.86421">
        <ele>182.6</ele>
        <time>2026-01-13T11:29:03Z</time>
      </trkpt>
      <trkpt lat="48.71227" lon="1.86412">
        <ele>182.6</ele>
        <time>2026-01-13T11:29:04Z</time>
      </trkpt>
      <trkpt lat="48.7123" lon="1.86403">
        <ele>182.6</ele>
        <time>2026-01-13T11:29:05Z</time>
      </trkpt>
      <trkpt lat="48.71232" lon="1.86393">
        <ele>183</ele>
        <time>2026-01-13T11:29:06Z</time>
      </trkpt>
      <trkpt lat="48.71235" lon="1.86384">
        <ele>183</ele>
        <time>2026-01-13T11:29:07Z</time>
      </trkpt>
      <trkpt lat="48.71238" lon="1.86375">
        <ele>183</ele>
        <time>2026-01-13T11:29:08Z</time>
      </trkpt>
      <trkpt lat="48.7124" lon="1.86365">
        <ele>182.6</ele>
        <time>2026-01-13T11:29:09Z</time>
      </trkpt>
      <trkpt lat="48.71243" lon="1.86356">
        <ele>182.6</ele>
        <time>2026-01-13T11:29:10Z</time>
      </trkpt>
      <trkpt lat="48.71245" lon="1.86346">
        <ele>182.6</ele>
        <time>2026-01-13T11:29:11Z</time>
      </trkpt>
      <trkpt lat="48.71248" lon="1.86336">
        <ele>182.6</ele>
        <time>2026-01-13T11:29:12Z</time>
      </trkpt>
      <trkpt lat="48.7125" lon="1.86327">
        <ele>182.6</ele>
        <time>2026-01-13T11:29:13Z</time>
      </trkpt>
      <trkpt lat="48.71253" lon="1.86317">
        <ele>182.6</ele>
        <time>2026-01-13T11:29:14Z</time>
      </trkpt>
      <trkpt lat="48.71256" lon="1.86308">
        <ele>182.6</ele>
        <time>2026-01-13T11:29:15Z</time>
      </trkpt>
      <trkpt lat="48.71258" lon="1.86298">
        <ele>182.6</ele>
        <time>2026-01-13T11:29:16Z</time>
      </trkpt>
      <trkpt lat="48.71261" lon="1.86289">
        <ele>181.8</ele>
        <time>2026-01-13T11:29:17Z</time>
      </trkpt>
      <trkpt lat="48.71263" lon="1.8628">
        <ele>181.8</ele>
        <time>2026-01-13T11:29:18Z</time>
      </trkpt>
      <trkpt lat="48.71266" lon="1.86271">
        <ele>181.8</ele>
        <time>2026-01-13T11:29:19Z</time>
      </trkpt>
      <trkpt lat="48.71268" lon="1.86262">
        <ele>182.8</ele>
        <time>2026-01-13T11:29:20Z</time>
      </trkpt>
      <trkpt lat="48.71271" lon="1.86252">
        <ele>182.8</ele>
        <time>2026-01-13T11:29:21Z</time>
      </trkpt>
      <trkpt lat="48.71273" lon="1.86244">
        <ele>182.8</ele>
        <time>2026-01-13T11:29:22Z</time>
      </trkpt>
      <trkpt lat="48.71276" lon="1.86235">
        <ele>182.4</ele>
        <time>2026-01-13T11:29:23Z</time>
      </trkpt>
      <trkpt lat="48.71278" lon="1.86226">
        <ele>181.4</ele>
        <time>2026-01-13T11:29:24Z</time>
      </trkpt>
      <trkpt lat="48.7128" lon="1.86217">
        <ele>181.4</ele>
        <time>2026-01-13T11:29:25Z</time>
      </trkpt>
      <trkpt lat="48.71283" lon="1.86209">
        <ele>181.4</ele>
        <time>2026-01-13T11:29:26Z</time>
      </trkpt>
      <trkpt lat="48.71284" lon="1.862">
        <ele>182.4</ele>
        <time>2026-01-13T11:29:27Z</time>
      </trkpt>
      <trkpt lat="48.71286" lon="1.86191">
        <ele>183.4</ele>
        <time>2026-01-13T11:29:28Z</time>
      </trkpt>
      <trkpt lat="48.71287" lon="1.86182">
        <ele>183.6</ele>
        <time>2026-01-13T11:29:29Z</time>
      </trkpt>
      <trkpt lat="48.71289" lon="1.86172">
        <ele>184</ele>
        <time>2026-01-13T11:29:30Z</time>
      </trkpt>
      <trkpt lat="48.71291" lon="1.86164">
        <ele>184</ele>
        <time>2026-01-13T11:29:31Z</time>
      </trkpt>
      <trkpt lat="48.71293" lon="1.86155">
        <ele>184</ele>
        <time>2026-01-13T11:29:32Z</time>
      </trkpt>
      <trkpt lat="48.71296" lon="1.86146">
        <ele>183</ele>
        <time>2026-01-13T11:29:33Z</time>
      </trkpt>
      <trkpt lat="48.71297" lon="1.86136">
        <ele>182.6</ele>
        <time>2026-01-13T11:29:34Z</time>
      </trkpt>
      <trkpt lat="48.71299" lon="1.86127">
        <ele>182</ele>
        <time>2026-01-13T11:29:35Z</time>
      </trkpt>
      <trkpt lat="48.71301" lon="1.86119">
        <ele>182</ele>
        <time>2026-01-13T11:29:36Z</time>
      </trkpt>
      <trkpt lat="48.71303" lon="1.8611">
        <ele>182</ele>
        <time>2026-01-13T11:29:37Z</time>
      </trkpt>
      <trkpt lat="48.71306" lon="1.86101">
        <ele>183</ele>
        <time>2026-01-13T11:29:38Z</time>
      </trkpt>
      <trkpt lat="48.71307" lon="1.86092">
        <ele>183.8</ele>
        <time>2026-01-13T11:29:39Z</time>
      </trkpt>
      <trkpt lat="48.71305" lon="1.86083">
        <ele>183.8</ele>
        <time>2026-01-13T11:29:40Z</time>
      </trkpt>
      <trkpt lat="48.71301" lon="1.86076">
        <ele>183.8</ele>
        <time>2026-01-13T11:29:41Z</time>
      </trkpt>
      <trkpt lat="48.71296" lon="1.86071">
        <ele>183.8</ele>
        <time>2026-01-13T11:29:42Z</time>
      </trkpt>
      <trkpt lat="48.7129" lon="1.86067">
        <ele>182.8</ele>
        <time>2026-01-13T11:29:43Z</time>
      </trkpt>
      <trkpt lat="48.71285" lon="1.86062">
        <ele>181.8</ele>
        <time>2026-01-13T11:29:44Z</time>
      </trkpt>
      <trkpt lat="48.71279" lon="1.86057">
        <ele>181</ele>
        <time>2026-01-13T11:29:45Z</time>
      </trkpt>
      <trkpt lat="48.71274" lon="1.86052">
        <ele>181</ele>
        <time>2026-01-13T11:29:46Z</time>
      </trkpt>
      <trkpt lat="48.71268" lon="1.86046">
        <ele>181</ele>
        <time>2026-01-13T11:29:47Z</time>
      </trkpt>
      <trkpt lat="48.71263" lon="1.8604">
        <ele>181</ele>
        <time>2026-01-13T11:29:48Z</time>
      </trkpt>
      <trkpt lat="48.71257" lon="1.86035">
        <ele>180</ele>
        <time>2026-01-13T11:29:49Z</time>
      </trkpt>
      <trkpt lat="48.71252" lon="1.86029">
        <ele>180</ele>
        <time>2026-01-13T11:29:50Z</time>
      </trkpt>
      <trkpt lat="48.71247" lon="1.86023">
        <ele>180</ele>
        <time>2026-01-13T11:29:51Z</time>
      </trkpt>
      <trkpt lat="48.71242" lon="1.86017">
        <ele>180.2</ele>
        <time>2026-01-13T11:29:52Z</time>
      </trkpt>
      <trkpt lat="48.71236" lon="1.86011">
        <ele>180.2</ele>
        <time>2026-01-13T11:29:53Z</time>
      </trkpt>
      <trkpt lat="48.71231" lon="1.86005">
        <ele>180.2</ele>
        <time>2026-01-13T11:29:54Z</time>
      </trkpt>
      <trkpt lat="48.71225" lon="1.86">
        <ele>179.2</ele>
        <time>2026-01-13T11:29:55Z</time>
      </trkpt>
      <trkpt lat="48.7122" lon="1.85994">
        <ele>178.8</ele>
        <time>2026-01-13T11:29:56Z</time>
      </trkpt>
      <trkpt lat="48.71214" lon="1.85988">
        <ele>178.6</ele>
        <time>2026-01-13T11:29:57Z</time>
      </trkpt>
      <trkpt lat="48.71209" lon="1.85982">
        <ele>178</ele>
        <time>2026-01-13T11:29:58Z</time>
      </trkpt>
      <trkpt lat="48.71204" lon="1.85976">
        <ele>178</ele>
        <time>2026-01-13T11:29:59Z</time>
      </trkpt>
      <trkpt lat="48.71198" lon="1.8597">
        <ele>178</ele>
        <time>2026-01-13T11:30:00Z</time>
      </trkpt>
      <trkpt lat="48.71193" lon="1.85963">
        <ele>179</ele>
        <time>2026-01-13T11:30:01Z</time>
      </trkpt>
      <trkpt lat="48.71187" lon="1.85957">
        <ele>179</ele>
        <time>2026-01-13T11:30:02Z</time>
      </trkpt>
      <trkpt lat="48.71181" lon="1.85951">
        <ele>179</ele>
        <time>2026-01-13T11:30:03Z</time>
      </trkpt>
      <trkpt lat="48.71176" lon="1.85945">
        <ele>179</ele>
        <time>2026-01-13T11:30:04Z</time>
      </trkpt>
      <trkpt lat="48.7117" lon="1.85938">
        <ele>178</ele>
        <time>2026-01-13T11:30:05Z</time>
      </trkpt>
      <trkpt lat="48.71164" lon="1.85931">
        <ele>177</ele>
        <time>2026-01-13T11:30:06Z</time>
      </trkpt>
      <trkpt lat="48.71158" lon="1.85925">
        <ele>177</ele>
        <time>2026-01-13T11:30:07Z</time>
      </trkpt>
      <trkpt lat="48.71153" lon="1.85918">
        <ele>177</ele>
        <time>2026-01-13T11:30:08Z</time>
      </trkpt>
      <trkpt lat="48.71147" lon="1.85912">
        <ele>178</ele>
        <time>2026-01-13T11:30:09Z</time>
      </trkpt>
      <trkpt lat="48.71141" lon="1.85906">
        <ele>178.4</ele>
        <time>2026-01-13T11:30:10Z</time>
      </trkpt>
      <trkpt lat="48.71135" lon="1.859">
        <ele>178.4</ele>
        <time>2026-01-13T11:30:11Z</time>
      </trkpt>
      <trkpt lat="48.71129" lon="1.85893">
        <ele>178.4</ele>
        <time>2026-01-13T11:30:12Z</time>
      </trkpt>
      <trkpt lat="48.71124" lon="1.85887">
        <ele>178</ele>
        <time>2026-01-13T11:30:13Z</time>
      </trkpt>
      <trkpt lat="48.71118" lon="1.85881">
        <ele>178</ele>
        <time>2026-01-13T11:30:14Z</time>
      </trkpt>
      <trkpt lat="48.71113" lon="1.85874">
        <ele>178</ele>
        <time>2026-01-13T11:30:15Z</time>
      </trkpt>
      <trkpt lat="48.71107" lon="1.85869">
        <ele>178.6</ele>
        <time>2026-01-13T11:30:16Z</time>
      </trkpt>
      <trkpt lat="48.71102" lon="1.85863">
        <ele>179</ele>
        <time>2026-01-13T11:30:17Z</time>
      </trkpt>
      <trkpt lat="48.71096" lon="1.85857">
        <ele>179</ele>
        <time>2026-01-13T11:30:18Z</time>
      </trkpt>
      <trkpt lat="48.71091" lon="1.85852">
        <ele>179</ele>
        <time>2026-01-13T11:30:19Z</time>
      </trkpt>
      <trkpt lat="48.71086" lon="1.85846">
        <ele>178</ele>
        <time>2026-01-13T11:30:20Z</time>
      </trkpt>
      <trkpt lat="48.71081" lon="1.8584">
        <ele>178</ele>
        <time>2026-01-13T11:30:21Z</time>
      </trkpt>
      <trkpt lat="48.71077" lon="1.85835">
        <ele>178</ele>
        <time>2026-01-13T11:30:22Z</time>
      </trkpt>
      <trkpt lat="48.71072" lon="1.8583">
        <ele>179</ele>
        <time>2026-01-13T11:30:23Z</time>
      </trkpt>
      <trkpt lat="48.71067" lon="1.85824">
        <ele>179.8</ele>
        <time>2026-01-13T11:30:24Z</time>
      </trkpt>
      <trkpt lat="48.71062" lon="1.85819">
        <ele>180.2</ele>
        <time>2026-01-13T11:30:25Z</time>
      </trkpt>
      <trkpt lat="48.71057" lon="1.85814">
        <ele>180.2</ele>
        <time>2026-01-13T11:30:26Z</time>
      </trkpt>
      <trkpt lat="48.71052" lon="1.85808">
        <ele>180.2</ele>
        <time>2026-01-13T11:30:27Z</time>
      </trkpt>
      <trkpt lat="48.71048" lon="1.85803">
        <ele>179.2</ele>
        <time>2026-01-13T11:30:28Z</time>
      </trkpt>
      <trkpt lat="48.71043" lon="1.85798">
        <ele>179.2</ele>
        <time>2026-01-13T11:30:29Z</time>
      </trkpt>
      <trkpt lat="48.71038" lon="1.85793">
        <ele>179.2</ele>
        <time>2026-01-13T11:30:30Z</time>
      </trkpt>
      <trkpt lat="48.71032" lon="1.85787">
        <ele>179.2</ele>
        <time>2026-01-13T11:30:31Z</time>
      </trkpt>
      <trkpt lat="48.71027" lon="1.85782">
        <ele>179.2</ele>
        <time>2026-01-13T11:30:32Z</time>
      </trkpt>
      <trkpt lat="48.71022" lon="1.85776">
        <ele>179.2</ele>
        <time>2026-01-13T11:30:33Z</time>
      </trkpt>
      <trkpt lat="48.71017" lon="1.85771">
        <ele>179.2</ele>
        <time>2026-01-13T11:30:34Z</time>
      </trkpt>
      <trkpt lat="48.71012" lon="1.85766">
        <ele>178.2</ele>
        <time>2026-01-13T11:30:35Z</time>
      </trkpt>
      <trkpt lat="48.71008" lon="1.8576">
        <ele>178.2</ele>
        <time>2026-01-13T11:30:36Z</time>
      </trkpt>
      <trkpt lat="48.71003" lon="1.85755">
        <ele>178.2</ele>
        <time>2026-01-13T11:30:37Z</time>
      </trkpt>
      <trkpt lat="48.70998" lon="1.8575">
        <ele>179</ele>
        <time>2026-01-13T11:30:38Z</time>
      </trkpt>
      <trkpt lat="48.70993" lon="1.85744">
        <ele>179.4</ele>
        <time>2026-01-13T11:30:39Z</time>
      </trkpt>
      <trkpt lat="48.70988" lon="1.85739">
        <ele>179.4</ele>
        <time>2026-01-13T11:30:40Z</time>
      </trkpt>
      <trkpt lat="48.70983" lon="1.85734">
        <ele>179.4</ele>
        <time>2026-01-13T11:30:41Z</time>
      </trkpt>
      <trkpt lat="48.70979" lon="1.85729">
        <ele>179</ele>
        <time>2026-01-13T11:30:42Z</time>
      </trkpt>
      <trkpt lat="48.70974" lon="1.85724">
        <ele>179</ele>
        <time>2026-01-13T11:30:43Z</time>
      </trkpt>
      <trkpt lat="48.70969" lon="1.85718">
        <ele>179</ele>
        <time>2026-01-13T11:30:44Z</time>
      </trkpt>
      <trkpt lat="48.70964" lon="1.85713">
        <ele>179</ele>
        <time>2026-01-13T11:30:45Z</time>
      </trkpt>
      <trkpt lat="48.70959" lon="1.85707">
        <ele>179</ele>
        <time>2026-01-13T11:30:46Z</time>
      </trkpt>
      <trkpt lat="48.70954" lon="1.85702">
        <ele>179</ele>
        <time>2026-01-13T11:30:47Z</time>
      </trkpt>
      <trkpt lat="48.70949" lon="1.85697">
        <ele>179</ele>
        <time>2026-01-13T11:30:48Z</time>
      </trkpt>
      <trkpt lat="48.70944" lon="1.85691">
        <ele>179</ele>
        <time>2026-01-13T11:30:49Z</time>
      </trkpt>
      <trkpt lat="48.70939" lon="1.85686">
        <ele>180</ele>
        <time>2026-01-13T11:30:50Z</time>
      </trkpt>
      <trkpt lat="48.70934" lon="1.8568">
        <ele>180.6</ele>
        <time>2026-01-13T11:30:51Z</time>
      </trkpt>
      <trkpt lat="48.70929" lon="1.85675">
        <ele>180.6</ele>
        <time>2026-01-13T11:30:52Z</time>
      </trkpt>
      <trkpt lat="48.70923" lon="1.85669">
        <ele>180.6</ele>
        <time>2026-01-13T11:30:53Z</time>
      </trkpt>
      <trkpt lat="48.70918" lon="1.85664">
        <ele>180</ele>
        <time>2026-01-13T11:30:54Z</time>
      </trkpt>
      <trkpt lat="48.70913" lon="1.85658">
        <ele>179.2</ele>
        <time>2026-01-13T11:30:55Z</time>
      </trkpt>
      <trkpt lat="48.70908" lon="1.85652">
        <ele>179.2</ele>
        <time>2026-01-13T11:30:56Z</time>
      </trkpt>
      <trkpt lat="48.70903" lon="1.85647">
        <ele>179.2</ele>
        <time>2026-01-13T11:30:57Z</time>
      </trkpt>
      <trkpt lat="48.70898" lon="1.85641">
        <ele>180</ele>
        <time>2026-01-13T11:30:58Z</time>
      </trkpt>
      <trkpt lat="48.70893" lon="1.85636">
        <ele>180</ele>
        <time>2026-01-13T11:30:59Z</time>
      </trkpt>
      <trkpt lat="48.70888" lon="1.8563">
        <ele>180</ele>
        <time>2026-01-13T11:31:00Z</time>
      </trkpt>
      <trkpt lat="48.70883" lon="1.85625">
        <ele>180</ele>
        <time>2026-01-13T11:31:01Z</time>
      </trkpt>
      <trkpt lat="48.70878" lon="1.85619">
        <ele>180</ele>
        <time>2026-01-13T11:31:02Z</time>
      </trkpt>
      <trkpt lat="48.70873" lon="1.85614">
        <ele>180.8</ele>
        <time>2026-01-13T11:31:03Z</time>
      </trkpt>
      <trkpt lat="48.70867" lon="1.85608">
        <ele>180.8</ele>
        <time>2026-01-13T11:31:04Z</time>
      </trkpt>
      <trkpt lat="48.70862" lon="1.85602">
        <ele>180.8</ele>
        <time>2026-01-13T11:31:05Z</time>
      </trkpt>
      <trkpt lat="48.70857" lon="1.85597">
        <ele>180.2</ele>
        <time>2026-01-13T11:31:06Z</time>
      </trkpt>
      <trkpt lat="48.70852" lon="1.85591">
        <ele>180.2</ele>
        <time>2026-01-13T11:31:07Z</time>
      </trkpt>
      <trkpt lat="48.70847" lon="1.85586">
        <ele>180.2</ele>
        <time>2026-01-13T11:31:08Z</time>
      </trkpt>
      <trkpt lat="48.70842" lon="1.8558">
        <ele>180.2</ele>
        <time>2026-01-13T11:31:09Z</time>
      </trkpt>
      <trkpt lat="48.70837" lon="1.85575">
        <ele>180.2</ele>
        <time>2026-01-13T11:31:10Z</time>
      </trkpt>
      <trkpt lat="48.70832" lon="1.85569">
        <ele>180.2</ele>
        <time>2026-01-13T11:31:11Z</time>
      </trkpt>
      <trkpt lat="48.70828" lon="1.85563">
        <ele>179.4</ele>
        <time>2026-01-13T11:31:12Z</time>
      </trkpt>
      <trkpt lat="48.70824" lon="1.85559">
        <ele>179.2</ele>
        <time>2026-01-13T11:31:13Z</time>
      </trkpt>
      <trkpt lat="48.70819" lon="1.85554">
        <ele>179.2</ele>
        <time>2026-01-13T11:31:14Z</time>
      </trkpt>
      <trkpt lat="48.70815" lon="1.85548">
        <ele>179.2</ele>
        <time>2026-01-13T11:31:15Z</time>
      </trkpt>
      <trkpt lat="48.7081" lon="1.85543">
        <ele>179.4</ele>
        <time>2026-01-13T11:31:16Z</time>
      </trkpt>
      <trkpt lat="48.70806" lon="1.85538">
        <ele>179.4</ele>
        <time>2026-01-13T11:31:17Z</time>
      </trkpt>
      <trkpt lat="48.70801" lon="1.85532">
        <ele>179.4</ele>
        <time>2026-01-13T11:31:18Z</time>
      </trkpt>
      <trkpt lat="48.70796" lon="1.85526">
        <ele>179.4</ele>
        <time>2026-01-13T11:31:19Z</time>
      </trkpt>
      <trkpt lat="48.70792" lon="1.85521">
        <ele>179.4</ele>
        <time>2026-01-13T11:31:20Z</time>
      </trkpt>
      <trkpt lat="48.70786" lon="1.85516">
        <ele>179.4</ele>
        <time>2026-01-13T11:31:21Z</time>
      </trkpt>
      <trkpt lat="48.7078" lon="1.85511">
        <ele>179.6</ele>
        <time>2026-01-13T11:31:22Z</time>
      </trkpt>
      <trkpt lat="48.70775" lon="1.85508">
        <ele>179.6</ele>
        <time>2026-01-13T11:31:23Z</time>
      </trkpt>
      <trkpt lat="48.70768" lon="1.85506">
        <ele>179.6</ele>
        <time>2026-01-13T11:31:24Z</time>
      </trkpt>
      <trkpt lat="48.70761" lon="1.85506">
        <ele>178.6</ele>
        <time>2026-01-13T11:31:25Z</time>
      </trkpt>
      <trkpt lat="48.70754" lon="1.85507">
        <ele>178.6</ele>
        <time>2026-01-13T11:31:26Z</time>
      </trkpt>
      <trkpt lat="48.70749" lon="1.8551">
        <ele>178.6</ele>
        <time>2026-01-13T11:31:27Z</time>
      </trkpt>
      <trkpt lat="48.70743" lon="1.85513">
        <ele>178.6</ele>
        <time>2026-01-13T11:31:28Z</time>
      </trkpt>
      <trkpt lat="48.70738" lon="1.85517">
        <ele>179.4</ele>
        <time>2026-01-13T11:31:29Z</time>
      </trkpt>
      <trkpt lat="48.70734" lon="1.8552">
        <ele>179.4</ele>
        <time>2026-01-13T11:31:30Z</time>
      </trkpt>
      <trkpt lat="48.70729" lon="1.85525">
        <ele>179.4</ele>
        <time>2026-01-13T11:31:31Z</time>
      </trkpt>
      <trkpt lat="48.70725" lon="1.8553">
        <ele>179.4</ele>
        <time>2026-01-13T11:31:32Z</time>
      </trkpt>
      <trkpt lat="48.7072" lon="1.85535">
        <ele>179.4</ele>
        <time>2026-01-13T11:31:33Z</time>
      </trkpt>
      <trkpt lat="48.70715" lon="1.8554">
        <ele>180.4</ele>
        <time>2026-01-13T11:31:34Z</time>
      </trkpt>
      <trkpt lat="48.70711" lon="1.85545">
        <ele>181.4</ele>
        <time>2026-01-13T11:31:35Z</time>
      </trkpt>
      <trkpt lat="48.70706" lon="1.8555">
        <ele>181.4</ele>
        <time>2026-01-13T11:31:36Z</time>
      </trkpt>
      <trkpt lat="48.70701" lon="1.85556">
        <ele>181.4</ele>
        <time>2026-01-13T11:31:37Z</time>
      </trkpt>
      <trkpt lat="48.70696" lon="1.85561">
        <ele>181.4</ele>
        <time>2026-01-13T11:31:38Z</time>
      </trkpt>
      <trkpt lat="48.70691" lon="1.85567">
        <ele>182.4</ele>
        <time>2026-01-13T11:31:39Z</time>
      </trkpt>
      <trkpt lat="48.70686" lon="1.85572">
        <ele>182.4</ele>
        <time>2026-01-13T11:31:40Z</time>
      </trkpt>
      <trkpt lat="48.70681" lon="1.85577">
        <ele>182.4</ele>
        <time>2026-01-13T11:31:41Z</time>
      </trkpt>
      <trkpt lat="48.70676" lon="1.85582">
        <ele>182.4</ele>
        <time>2026-01-13T11:31:42Z</time>
      </trkpt>
      <trkpt lat="48.70672" lon="1.85587">
        <ele>182.4</ele>
        <time>2026-01-13T11:31:43Z</time>
      </trkpt>
      <trkpt lat="48.70667" lon="1.85592">
        <ele>183.4</ele>
        <time>2026-01-13T11:31:44Z</time>
      </trkpt>
      <trkpt lat="48.70662" lon="1.85597">
        <ele>184.2</ele>
        <time>2026-01-13T11:31:45Z</time>
      </trkpt>
      <trkpt lat="48.70658" lon="1.85602">
        <ele>184.2</ele>
        <time>2026-01-13T11:31:46Z</time>
      </trkpt>
      <trkpt lat="48.70653" lon="1.85608">
        <ele>184.2</ele>
        <time>2026-01-13T11:31:47Z</time>
      </trkpt>
      <trkpt lat="48.70648" lon="1.85613">
        <ele>184.2</ele>
        <time>2026-01-13T11:31:48Z</time>
      </trkpt>
      <trkpt lat="48.70643" lon="1.85619">
        <ele>184.2</ele>
        <time>2026-01-13T11:31:49Z</time>
      </trkpt>
      <trkpt lat="48.70638" lon="1.85624">
        <ele>184.6</ele>
        <time>2026-01-13T11:31:50Z</time>
      </trkpt>
      <trkpt lat="48.70634" lon="1.85629">
        <ele>185.2</ele>
        <time>2026-01-13T11:31:51Z</time>
      </trkpt>
      <trkpt lat="48.70629" lon="1.85634">
        <ele>185.2</ele>
        <time>2026-01-13T11:31:52Z</time>
      </trkpt>
      <trkpt lat="48.70625" lon="1.85639">
        <ele>185.2</ele>
        <time>2026-01-13T11:31:53Z</time>
      </trkpt>
      <trkpt lat="48.7062" lon="1.85644">
        <ele>184.2</ele>
        <time>2026-01-13T11:31:54Z</time>
      </trkpt>
      <trkpt lat="48.70616" lon="1.85649">
        <ele>184.2</ele>
        <time>2026-01-13T11:31:55Z</time>
      </trkpt>
      <trkpt lat="48.70611" lon="1.85654">
        <ele>184.2</ele>
        <time>2026-01-13T11:31:56Z</time>
      </trkpt>
      <trkpt lat="48.70607" lon="1.85659">
        <ele>184.2</ele>
        <time>2026-01-13T11:31:57Z</time>
      </trkpt>
      <trkpt lat="48.70602" lon="1.85664">
        <ele>184.2</ele>
        <time>2026-01-13T11:31:58Z</time>
      </trkpt>
      <trkpt lat="48.70597" lon="1.85669">
        <ele>184.2</ele>
        <time>2026-01-13T11:31:59Z</time>
      </trkpt>
      <trkpt lat="48.70593" lon="1.85675">
        <ele>184.4</ele>
        <time>2026-01-13T11:32:00Z</time>
      </trkpt>
      <trkpt lat="48.70588" lon="1.8568">
        <ele>184.4</ele>
        <time>2026-01-13T11:32:01Z</time>
      </trkpt>
      <trkpt lat="48.70584" lon="1.85685">
        <ele>184.4</ele>
        <time>2026-01-13T11:32:02Z</time>
      </trkpt>
      <trkpt lat="48.70579" lon="1.85689">
        <ele>184.4</ele>
        <time>2026-01-13T11:32:03Z</time>
      </trkpt>
      <trkpt lat="48.70575" lon="1.85694">
        <ele>185.4</ele>
        <time>2026-01-13T11:32:04Z</time>
      </trkpt>
      <trkpt lat="48.7057" lon="1.85699">
        <ele>185.8</ele>
        <time>2026-01-13T11:32:05Z</time>
      </trkpt>
      <trkpt lat="48.70566" lon="1.85704">
        <ele>185.8</ele>
        <time>2026-01-13T11:32:06Z</time>
      </trkpt>
      <trkpt lat="48.70561" lon="1.85709">
        <ele>185.8</ele>
        <time>2026-01-13T11:32:07Z</time>
      </trkpt>
      <trkpt lat="48.70556" lon="1.85713">
        <ele>185</ele>
        <time>2026-01-13T11:32:08Z</time>
      </trkpt>
      <trkpt lat="48.70551" lon="1.85719">
        <ele>185</ele>
        <time>2026-01-13T11:32:09Z</time>
      </trkpt>
      <trkpt lat="48.70546" lon="1.85725">
        <ele>185</ele>
        <time>2026-01-13T11:32:10Z</time>
      </trkpt>
      <trkpt lat="48.70541" lon="1.8573">
        <ele>185</ele>
        <time>2026-01-13T11:32:11Z</time>
      </trkpt>
      <trkpt lat="48.70536" lon="1.85736">
        <ele>184</ele>
        <time>2026-01-13T11:32:12Z</time>
      </trkpt>
      <trkpt lat="48.70531" lon="1.85742">
        <ele>183</ele>
        <time>2026-01-13T11:32:13Z</time>
      </trkpt>
      <trkpt lat="48.70526" lon="1.85748">
        <ele>182.4</ele>
        <time>2026-01-13T11:32:14Z</time>
      </trkpt>
      <trkpt lat="48.70521" lon="1.85754">
        <ele>182.4</ele>
        <time>2026-01-13T11:32:15Z</time>
      </trkpt>
      <trkpt lat="48.70517" lon="1.8576">
        <ele>182.4</ele>
        <time>2026-01-13T11:32:16Z</time>
      </trkpt>
      <trkpt lat="48.70511" lon="1.85766">
        <ele>182.4</ele>
        <time>2026-01-13T11:32:17Z</time>
      </trkpt>
      <trkpt lat="48.70506" lon="1.85773">
        <ele>182.4</ele>
        <time>2026-01-13T11:32:18Z</time>
      </trkpt>
      <trkpt lat="48.705" lon="1.85779">
        <ele>182.4</ele>
        <time>2026-01-13T11:32:19Z</time>
      </trkpt>
      <trkpt lat="48.70495" lon="1.85785">
        <ele>182.4</ele>
        <time>2026-01-13T11:32:20Z</time>
      </trkpt>
      <trkpt lat="48.7049" lon="1.85791">
        <ele>182.4</ele>
        <time>2026-01-13T11:32:21Z</time>
      </trkpt>
      <trkpt lat="48.70484" lon="1.85798">
        <ele>182.4</ele>
        <time>2026-01-13T11:32:22Z</time>
      </trkpt>
      <trkpt lat="48.70479" lon="1.85804">
        <ele>182.8</ele>
        <time>2026-01-13T11:32:23Z</time>
      </trkpt>
      <trkpt lat="48.70474" lon="1.8581">
        <ele>182.8</ele>
        <time>2026-01-13T11:32:24Z</time>
      </trkpt>
      <trkpt lat="48.70469" lon="1.85816">
        <ele>182.8</ele>
        <time>2026-01-13T11:32:25Z</time>
      </trkpt>
      <trkpt lat="48.70463" lon="1.85822">
        <ele>182.8</ele>
        <time>2026-01-13T11:32:26Z</time>
      </trkpt>
      <trkpt lat="48.70458" lon="1.85829">
        <ele>182.8</ele>
        <time>2026-01-13T11:32:27Z</time>
      </trkpt>
      <trkpt lat="48.70453" lon="1.85835">
        <ele>182.8</ele>
        <time>2026-01-13T11:32:28Z</time>
      </trkpt>
      <trkpt lat="48.70447" lon="1.85841">
        <ele>182.8</ele>
        <time>2026-01-13T11:32:29Z</time>
      </trkpt>
      <trkpt lat="48.70442" lon="1.85846">
        <ele>182.4</ele>
        <time>2026-01-13T11:32:30Z</time>
      </trkpt>
      <trkpt lat="48.70437" lon="1.85851">
        <ele>182.4</ele>
        <time>2026-01-13T11:32:31Z</time>
      </trkpt>
      <trkpt lat="48.70431" lon="1.85853">
        <ele>182.4</ele>
        <time>2026-01-13T11:32:32Z</time>
      </trkpt>
      <trkpt lat="48.70425" lon="1.85852">
        <ele>182.4</ele>
        <time>2026-01-13T11:32:33Z</time>
      </trkpt>
      <trkpt lat="48.70419" lon="1.85848">
        <ele>182.4</ele>
        <time>2026-01-13T11:32:34Z</time>
      </trkpt>
      <trkpt lat="48.70415" lon="1.85843">
        <ele>181.4</ele>
        <time>2026-01-13T11:32:35Z</time>
      </trkpt>
      <trkpt lat="48.7041" lon="1.85837">
        <ele>181.4</ele>
        <time>2026-01-13T11:32:36Z</time>
      </trkpt>
      <trkpt lat="48.70406" lon="1.85832">
        <ele>181.4</ele>
        <time>2026-01-13T11:32:37Z</time>
      </trkpt>
      <trkpt lat="48.70401" lon="1.85826">
        <ele>181.4</ele>
        <time>2026-01-13T11:32:38Z</time>
      </trkpt>
      <trkpt lat="48.70396" lon="1.85821">
        <ele>180.8</ele>
        <time>2026-01-13T11:32:39Z</time>
      </trkpt>
      <trkpt lat="48.70392" lon="1.85816">
        <ele>180.2</ele>
        <time>2026-01-13T11:32:40Z</time>
      </trkpt>
      <trkpt lat="48.70387" lon="1.8581">
        <ele>180.2</ele>
        <time>2026-01-13T11:32:41Z</time>
      </trkpt>
      <trkpt lat="48.70383" lon="1.85805">
        <ele>180.2</ele>
        <time>2026-01-13T11:32:42Z</time>
      </trkpt>
      <trkpt lat="48.70378" lon="1.85799">
        <ele>180.8</ele>
        <time>2026-01-13T11:32:43Z</time>
      </trkpt>
      <trkpt lat="48.70374" lon="1.85794">
        <ele>181.4</ele>
        <time>2026-01-13T11:32:44Z</time>
      </trkpt>
      <trkpt lat="48.70369" lon="1.85788">
        <ele>181.8</ele>
        <time>2026-01-13T11:32:45Z</time>
      </trkpt>
      <trkpt lat="48.70365" lon="1.85783">
        <ele>182</ele>
        <time>2026-01-13T11:32:46Z</time>
      </trkpt>
      <trkpt lat="48.7036" lon="1.85777">
        <ele>182</ele>
        <time>2026-01-13T11:32:47Z</time>
      </trkpt>
      <trkpt lat="48.70355" lon="1.85771">
        <ele>182</ele>
        <time>2026-01-13T11:32:48Z</time>
      </trkpt>
      <trkpt lat="48.70351" lon="1.85766">
        <ele>182</ele>
        <time>2026-01-13T11:32:49Z</time>
      </trkpt>
      <trkpt lat="48.70346" lon="1.8576">
        <ele>182</ele>
        <time>2026-01-13T11:32:50Z</time>
      </trkpt>
      <trkpt lat="48.70341" lon="1.85754">
        <ele>181</ele>
        <time>2026-01-13T11:32:51Z</time>
      </trkpt>
      <trkpt lat="48.70337" lon="1.85749">
        <ele>180.6</ele>
        <time>2026-01-13T11:32:52Z</time>
      </trkpt>
      <trkpt lat="48.70333" lon="1.85743">
        <ele>180.6</ele>
        <time>2026-01-13T11:32:53Z</time>
      </trkpt>
      <trkpt lat="48.70328" lon="1.85738">
        <ele>180.6</ele>
        <time>2026-01-13T11:32:54Z</time>
      </trkpt>
      <trkpt lat="48.70324" lon="1.85732">
        <ele>181.2</ele>
        <time>2026-01-13T11:32:55Z</time>
      </trkpt>
      <trkpt lat="48.7032" lon="1.85727">
        <ele>181.2</ele>
        <time>2026-01-13T11:32:56Z</time>
      </trkpt>
      <trkpt lat="48.70315" lon="1.85721">
        <ele>181.2</ele>
        <time>2026-01-13T11:32:57Z</time>
      </trkpt>
      <trkpt lat="48.70311" lon="1.85716">
        <ele>181.2</ele>
        <time>2026-01-13T11:32:58Z</time>
      </trkpt>
      <trkpt lat="48.70306" lon="1.85711">
        <ele>181.2</ele>
        <time>2026-01-13T11:32:59Z</time>
      </trkpt>
      <trkpt lat="48.70301" lon="1.85705">
        <ele>181.2</ele>
        <time>2026-01-13T11:33:00Z</time>
      </trkpt>
      <trkpt lat="48.70297" lon="1.85699">
        <ele>181</ele>
        <time>2026-01-13T11:33:01Z</time>
      </trkpt>
      <trkpt lat="48.70292" lon="1.85694">
        <ele>181</ele>
        <time>2026-01-13T11:33:02Z</time>
      </trkpt>
      <trkpt lat="48.70288" lon="1.85688">
        <ele>181</ele>
        <time>2026-01-13T11:33:03Z</time>
      </trkpt>
      <trkpt lat="48.70283" lon="1.85683">
        <ele>181.6</ele>
        <time>2026-01-13T11:33:04Z</time>
      </trkpt>
      <trkpt lat="48.70278" lon="1.85677">
        <ele>181.6</ele>
        <time>2026-01-13T11:33:05Z</time>
      </trkpt>
      <trkpt lat="48.70274" lon="1.85671">
        <ele>181.6</ele>
        <time>2026-01-13T11:33:06Z</time>
      </trkpt>
      <trkpt lat="48.7027" lon="1.85663">
        <ele>181.6</ele>
        <time>2026-01-13T11:33:07Z</time>
      </trkpt>
      <trkpt lat="48.70266" lon="1.85656">
        <ele>181.6</ele>
        <time>2026-01-13T11:33:08Z</time>
      </trkpt>
      <trkpt lat="48.70261" lon="1.8565">
        <ele>181.6</ele>
        <time>2026-01-13T11:33:09Z</time>
      </trkpt>
      <trkpt lat="48.70255" lon="1.85646">
        <ele>180.6</ele>
        <time>2026-01-13T11:33:10Z</time>
      </trkpt>
      <trkpt lat="48.7025" lon="1.85641">
        <ele>180.4</ele>
        <time>2026-01-13T11:33:11Z</time>
      </trkpt>
      <trkpt lat="48.70245" lon="1.85635">
        <ele>179.8</ele>
        <time>2026-01-13T11:33:12Z</time>
      </trkpt>
      <trkpt lat="48.7024" lon="1.85629">
        <ele>178.8</ele>
        <time>2026-01-13T11:33:13Z</time>
      </trkpt>
      <trkpt lat="48.70234" lon="1.85624">
        <ele>178.8</ele>
        <time>2026-01-13T11:33:14Z</time>
      </trkpt>
      <trkpt lat="48.70229" lon="1.85619">
        <ele>178.8</ele>
        <time>2026-01-13T11:33:15Z</time>
      </trkpt>
      <trkpt lat="48.70224" lon="1.85614">
        <ele>179.8</ele>
        <time>2026-01-13T11:33:16Z</time>
      </trkpt>
      <trkpt lat="48.70218" lon="1.85609">
        <ele>180.8</ele>
        <time>2026-01-13T11:33:17Z</time>
      </trkpt>
      <trkpt lat="48.70213" lon="1.85604">
        <ele>180.8</ele>
        <time>2026-01-13T11:33:18Z</time>
      </trkpt>
      <trkpt lat="48.70207" lon="1.85599">
        <ele>180.8</ele>
        <time>2026-01-13T11:33:19Z</time>
      </trkpt>
      <trkpt lat="48.70201" lon="1.85595">
        <ele>180.8</ele>
        <time>2026-01-13T11:33:20Z</time>
      </trkpt>
      <trkpt lat="48.70195" lon="1.8559">
        <ele>180.2</ele>
        <time>2026-01-13T11:33:21Z</time>
      </trkpt>
      <trkpt lat="48.7019" lon="1.85585">
        <ele>180.2</ele>
        <time>2026-01-13T11:33:22Z</time>
      </trkpt>
      <trkpt lat="48.70184" lon="1.8558">
        <ele>179.2</ele>
        <time>2026-01-13T11:33:23Z</time>
      </trkpt>
      <trkpt lat="48.70179" lon="1.85576">
        <ele>179.2</ele>
        <time>2026-01-13T11:33:24Z</time>
      </trkpt>
      <trkpt lat="48.70173" lon="1.85571">
        <ele>179.2</ele>
        <time>2026-01-13T11:33:25Z</time>
      </trkpt>
      <trkpt lat="48.70168" lon="1.85566">
        <ele>180.2</ele>
        <time>2026-01-13T11:33:26Z</time>
      </trkpt>
      <trkpt lat="48.70163" lon="1.85561">
        <ele>180.2</ele>
        <time>2026-01-13T11:33:27Z</time>
      </trkpt>
      <trkpt lat="48.70157" lon="1.85556">
        <ele>180.2</ele>
        <time>2026-01-13T11:33:28Z</time>
      </trkpt>
      <trkpt lat="48.70152" lon="1.8555">
        <ele>180.2</ele>
        <time>2026-01-13T11:33:29Z</time>
      </trkpt>
      <trkpt lat="48.70147" lon="1.85545">
        <ele>180.2</ele>
        <time>2026-01-13T11:33:30Z</time>
      </trkpt>
      <trkpt lat="48.70142" lon="1.85539">
        <ele>180.2</ele>
        <time>2026-01-13T11:33:31Z</time>
      </trkpt>
      <trkpt lat="48.70137" lon="1.85533">
        <ele>180.4</ele>
        <time>2026-01-13T11:33:32Z</time>
      </trkpt>
      <trkpt lat="48.70132" lon="1.85527">
        <ele>180.4</ele>
        <time>2026-01-13T11:33:33Z</time>
      </trkpt>
      <trkpt lat="48.70128" lon="1.85521">
        <ele>180.4</ele>
        <time>2026-01-13T11:33:34Z</time>
      </trkpt>
      <trkpt lat="48.70123" lon="1.85515">
        <ele>179.4</ele>
        <time>2026-01-13T11:33:35Z</time>
      </trkpt>
      <trkpt lat="48.70118" lon="1.8551">
        <ele>179.4</ele>
        <time>2026-01-13T11:33:36Z</time>
      </trkpt>
      <trkpt lat="48.70114" lon="1.85504">
        <ele>179.4</ele>
        <time>2026-01-13T11:33:37Z</time>
      </trkpt>
      <trkpt lat="48.7011" lon="1.85499">
        <ele>180</ele>
        <time>2026-01-13T11:33:38Z</time>
      </trkpt>
      <trkpt lat="48.70105" lon="1.85494">
        <ele>180.2</ele>
        <time>2026-01-13T11:33:39Z</time>
      </trkpt>
      <trkpt lat="48.701" lon="1.8549">
        <ele>180.2</ele>
        <time>2026-01-13T11:33:40Z</time>
      </trkpt>
      <trkpt lat="48.70094" lon="1.85487">
        <ele>180.2</ele>
        <time>2026-01-13T11:33:41Z</time>
      </trkpt>
      <trkpt lat="48.70089" lon="1.85482">
        <ele>180.2</ele>
        <time>2026-01-13T11:33:42Z</time>
      </trkpt>
      <trkpt lat="48.70085" lon="1.85476">
        <ele>180.2</ele>
        <time>2026-01-13T11:33:43Z</time>
      </trkpt>
      <trkpt lat="48.70081" lon="1.8547">
        <ele>180.2</ele>
        <time>2026-01-13T11:33:44Z</time>
      </trkpt>
      <trkpt lat="48.70077" lon="1.85463">
        <ele>180.2</ele>
        <time>2026-01-13T11:33:45Z</time>
      </trkpt>
      <trkpt lat="48.70073" lon="1.85457">
        <ele>181</ele>
        <time>2026-01-13T11:33:46Z</time>
      </trkpt>
      <trkpt lat="48.70068" lon="1.85451">
        <ele>181.4</ele>
        <time>2026-01-13T11:33:47Z</time>
      </trkpt>
      <trkpt lat="48.70062" lon="1.85447">
        <ele>181.4</ele>
        <time>2026-01-13T11:33:48Z</time>
      </trkpt>
      <trkpt lat="48.70057" lon="1.85443">
        <ele>181.4</ele>
        <time>2026-01-13T11:33:49Z</time>
      </trkpt>
      <trkpt lat="48.70051" lon="1.8544">
        <ele>180.4</ele>
        <time>2026-01-13T11:33:50Z</time>
      </trkpt>
      <trkpt lat="48.70045" lon="1.85437">
        <ele>180</ele>
        <time>2026-01-13T11:33:51Z</time>
      </trkpt>
      <trkpt lat="48.7004" lon="1.85432">
        <ele>180</ele>
        <time>2026-01-13T11:33:52Z</time>
      </trkpt>
      <trkpt lat="48.70035" lon="1.85427">
        <ele>180</ele>
        <time>2026-01-13T11:33:53Z</time>
      </trkpt>
      <trkpt lat="48.7003" lon="1.85421">
        <ele>180.2</ele>
        <time>2026-01-13T11:33:54Z</time>
      </trkpt>
      <trkpt lat="48.70025" lon="1.85416">
        <ele>180.2</ele>
        <time>2026-01-13T11:33:55Z</time>
      </trkpt>
      <trkpt lat="48.7002" lon="1.8541">
        <ele>180.2</ele>
        <time>2026-01-13T11:33:56Z</time>
      </trkpt>
      <trkpt lat="48.70015" lon="1.85405">
        <ele>180.2</ele>
        <time>2026-01-13T11:33:57Z</time>
      </trkpt>
      <trkpt lat="48.70009" lon="1.854">
        <ele>180.2</ele>
        <time>2026-01-13T11:33:58Z</time>
      </trkpt>
      <trkpt lat="48.70004" lon="1.85395">
        <ele>180.2</ele>
        <time>2026-01-13T11:33:59Z</time>
      </trkpt>
      <trkpt lat="48.69998" lon="1.8539">
        <ele>180.2</ele>
        <time>2026-01-13T11:34:00Z</time>
      </trkpt>
      <trkpt lat="48.69993" lon="1.85385">
        <ele>179.2</ele>
        <time>2026-01-13T11:34:01Z</time>
      </trkpt>
      <trkpt lat="48.69987" lon="1.8538">
        <ele>179.2</ele>
        <time>2026-01-13T11:34:02Z</time>
      </trkpt>
      <trkpt lat="48.69982" lon="1.85375">
        <ele>179.2</ele>
        <time>2026-01-13T11:34:03Z</time>
      </trkpt>
      <trkpt lat="48.69977" lon="1.8537">
        <ele>179.2</ele>
        <time>2026-01-13T11:34:04Z</time>
      </trkpt>
      <trkpt lat="48.69971" lon="1.85366">
        <ele>179.2</ele>
        <time>2026-01-13T11:34:05Z</time>
      </trkpt>
      <trkpt lat="48.69966" lon="1.85361">
        <ele>179.2</ele>
        <time>2026-01-13T11:34:06Z</time>
      </trkpt>
      <trkpt lat="48.69961" lon="1.85356">
        <ele>179.6</ele>
        <time>2026-01-13T11:34:07Z</time>
      </trkpt>
      <trkpt lat="48.69955" lon="1.85351">
        <ele>179.6</ele>
        <time>2026-01-13T11:34:08Z</time>
      </trkpt>
      <trkpt lat="48.69949" lon="1.85347">
        <ele>179.6</ele>
        <time>2026-01-13T11:34:09Z</time>
      </trkpt>
      <trkpt lat="48.69944" lon="1.85342">
        <ele>179</ele>
        <time>2026-01-13T11:34:10Z</time>
      </trkpt>
      <trkpt lat="48.69938" lon="1.85337">
        <ele>178.8</ele>
        <time>2026-01-13T11:34:11Z</time>
      </trkpt>
      <trkpt lat="48.69933" lon="1.85332">
        <ele>178.4</ele>
        <time>2026-01-13T11:34:12Z</time>
      </trkpt>
      <trkpt lat="48.69927" lon="1.85327">
        <ele>177.6</ele>
        <time>2026-01-13T11:34:13Z</time>
      </trkpt>
      <trkpt lat="48.69922" lon="1.85322">
        <ele>177.6</ele>
        <time>2026-01-13T11:34:14Z</time>
      </trkpt>
      <trkpt lat="48.69917" lon="1.85317">
        <ele>177.6</ele>
        <time>2026-01-13T11:34:15Z</time>
      </trkpt>
      <trkpt lat="48.69912" lon="1.85312">
        <ele>178.4</ele>
        <time>2026-01-13T11:34:16Z</time>
      </trkpt>
      <trkpt lat="48.69907" lon="1.85307">
        <ele>178.4</ele>
        <time>2026-01-13T11:34:17Z</time>
      </trkpt>
      <trkpt lat="48.69902" lon="1.85301">
        <ele>178.4</ele>
        <time>2026-01-13T11:34:18Z</time>
      </trkpt>
      <trkpt lat="48.69897" lon="1.85295">
        <ele>178.4</ele>
        <time>2026-01-13T11:34:19Z</time>
      </trkpt>
      <trkpt lat="48.69892" lon="1.85289">
        <ele>178.4</ele>
        <time>2026-01-13T11:34:20Z</time>
      </trkpt>
      <trkpt lat="48.69888" lon="1.85283">
        <ele>178.4</ele>
        <time>2026-01-13T11:34:21Z</time>
      </trkpt>
      <trkpt lat="48.69883" lon="1.85277">
        <ele>178.4</ele>
        <time>2026-01-13T11:34:22Z</time>
      </trkpt>
      <trkpt lat="48.69879" lon="1.8527">
        <ele>178.4</ele>
        <time>2026-01-13T11:34:23Z</time>
      </trkpt>
      <trkpt lat="48.69874" lon="1.85264">
        <ele>178.6</ele>
        <time>2026-01-13T11:34:24Z</time>
      </trkpt>
      <trkpt lat="48.69869" lon="1.85258">
        <ele>178.6</ele>
        <time>2026-01-13T11:34:25Z</time>
      </trkpt>
      <trkpt lat="48.69864" lon="1.85252">
        <ele>178.6</ele>
        <time>2026-01-13T11:34:26Z</time>
      </trkpt>
      <trkpt lat="48.69859" lon="1.85246">
        <ele>178.6</ele>
        <time>2026-01-13T11:34:27Z</time>
      </trkpt>
      <trkpt lat="48.69854" lon="1.8524">
        <ele>179</ele>
        <time>2026-01-13T11:34:28Z</time>
      </trkpt>
      <trkpt lat="48.69849" lon="1.85234">
        <ele>179</ele>
        <time>2026-01-13T11:34:29Z</time>
      </trkpt>
      <trkpt lat="48.69844" lon="1.85229">
        <ele>179</ele>
        <time>2026-01-13T11:34:30Z</time>
      </trkpt>
      <trkpt lat="48.69839" lon="1.85223">
        <ele>178</ele>
        <time>2026-01-13T11:34:31Z</time>
      </trkpt>
      <trkpt lat="48.69834" lon="1.85217">
        <ele>178</ele>
        <time>2026-01-13T11:34:32Z</time>
      </trkpt>
      <trkpt lat="48.6983" lon="1.8521">
        <ele>178</ele>
        <time>2026-01-13T11:34:33Z</time>
      </trkpt>
      <trkpt lat="48.69825" lon="1.85204">
        <ele>178</ele>
        <time>2026-01-13T11:34:34Z</time>
      </trkpt>
      <trkpt lat="48.69821" lon="1.85197">
        <ele>178</ele>
        <time>2026-01-13T11:34:35Z</time>
      </trkpt>
      <trkpt lat="48.69817" lon="1.85191">
        <ele>178</ele>
        <time>2026-01-13T11:34:36Z</time>
      </trkpt>
      <trkpt lat="48.69812" lon="1.85185">
        <ele>178</ele>
        <time>2026-01-13T11:34:37Z</time>
      </trkpt>
      <trkpt lat="48.69807" lon="1.85179">
        <ele>178.4</ele>
        <time>2026-01-13T11:34:38Z</time>
      </trkpt>
      <trkpt lat="48.69803" lon="1.85172">
        <ele>178.6</ele>
        <time>2026-01-13T11:34:39Z</time>
      </trkpt>
      <trkpt lat="48.69799" lon="1.85166">
        <ele>178.8</ele>
        <time>2026-01-13T11:34:40Z</time>
      </trkpt>
      <trkpt lat="48.69794" lon="1.8516">
        <ele>178.8</ele>
        <time>2026-01-13T11:34:41Z</time>
      </trkpt>
      <trkpt lat="48.69791" lon="1.85154">
        <ele>178.8</ele>
        <time>2026-01-13T11:34:42Z</time>
      </trkpt>
      <trkpt lat="48.69785" lon="1.85149">
        <ele>177.8</ele>
        <time>2026-01-13T11:34:43Z</time>
      </trkpt>
      <trkpt lat="48.69779" lon="1.85145">
        <ele>177.2</ele>
        <time>2026-01-13T11:34:44Z</time>
      </trkpt>
      <trkpt lat="48.69772" lon="1.85142">
        <ele>177.2</ele>
        <time>2026-01-13T11:34:45Z</time>
      </trkpt>
      <trkpt lat="48.69765" lon="1.85141">
        <ele>177.2</ele>
        <time>2026-01-13T11:34:46Z</time>
      </trkpt>
      <trkpt lat="48.69758" lon="1.85141">
        <ele>177.2</ele>
        <time>2026-01-13T11:34:47Z</time>
      </trkpt>
      <trkpt lat="48.69752" lon="1.85141">
        <ele>178.2</ele>
        <time>2026-01-13T11:34:48Z</time>
      </trkpt>
      <trkpt lat="48.69745" lon="1.85141">
        <ele>179.2</ele>
        <time>2026-01-13T11:34:49Z</time>
      </trkpt>
      <trkpt lat="48.69738" lon="1.85141">
        <ele>180.2</ele>
        <time>2026-01-13T11:34:50Z</time>
      </trkpt>
      <trkpt lat="48.69731" lon="1.85142">
        <ele>180.4</ele>
        <time>2026-01-13T11:34:51Z</time>
      </trkpt>
      <trkpt lat="48.69724" lon="1.85143">
        <ele>180.4</ele>
        <time>2026-01-13T11:34:52Z</time>
      </trkpt>
      <trkpt lat="48.69717" lon="1.85145">
        <ele>180.4</ele>
        <time>2026-01-13T11:34:53Z</time>
      </trkpt>
      <trkpt lat="48.69711" lon="1.85148">
        <ele>179.4</ele>
        <time>2026-01-13T11:34:54Z</time>
      </trkpt>
      <trkpt lat="48.69704" lon="1.85151">
        <ele>179.2</ele>
        <time>2026-01-13T11:34:55Z</time>
      </trkpt>
      <trkpt lat="48.69697" lon="1.85153">
        <ele>178.8</ele>
        <time>2026-01-13T11:34:56Z</time>
      </trkpt>
      <trkpt lat="48.6969" lon="1.85155">
        <ele>178.8</ele>
        <time>2026-01-13T11:34:57Z</time>
      </trkpt>
      <trkpt lat="48.69683" lon="1.85157">
        <ele>178.8</ele>
        <time>2026-01-13T11:34:58Z</time>
      </trkpt>
      <trkpt lat="48.69676" lon="1.8516">
        <ele>178.8</ele>
        <time>2026-01-13T11:34:59Z</time>
      </trkpt>
      <trkpt lat="48.6967" lon="1.85161">
        <ele>178.8</ele>
        <time>2026-01-13T11:35:00Z</time>
      </trkpt>
      <trkpt lat="48.69663" lon="1.85163">
        <ele>178.8</ele>
        <time>2026-01-13T11:35:01Z</time>
      </trkpt>
      <trkpt lat="48.69656" lon="1.85165">
        <ele>179.8</ele>
        <time>2026-01-13T11:35:02Z</time>
      </trkpt>
      <trkpt lat="48.6965" lon="1.85167">
        <ele>179.8</ele>
        <time>2026-01-13T11:35:03Z</time>
      </trkpt>
      <trkpt lat="48.69644" lon="1.85169">
        <ele>179.8</ele>
        <time>2026-01-13T11:35:04Z</time>
      </trkpt>
      <trkpt lat="48.69637" lon="1.85172">
        <ele>179.6</ele>
        <time>2026-01-13T11:35:05Z</time>
      </trkpt>
      <trkpt lat="48.69631" lon="1.85175">
        <ele>179.6</ele>
        <time>2026-01-13T11:35:06Z</time>
      </trkpt>
      <trkpt lat="48.69624" lon="1.85177">
        <ele>179.6</ele>
        <time>2026-01-13T11:35:07Z</time>
      </trkpt>
      <trkpt lat="48.69618" lon="1.8518">
        <ele>179.6</ele>
        <time>2026-01-13T11:35:08Z</time>
      </trkpt>
      <trkpt lat="48.69612" lon="1.85183">
        <ele>179.6</ele>
        <time>2026-01-13T11:35:09Z</time>
      </trkpt>
      <trkpt lat="48.69606" lon="1.85186">
        <ele>179.6</ele>
        <time>2026-01-13T11:35:10Z</time>
      </trkpt>
      <trkpt lat="48.696" lon="1.85189">
        <ele>179.6</ele>
        <time>2026-01-13T11:35:11Z</time>
      </trkpt>
      <trkpt lat="48.69595" lon="1.85192">
        <ele>179.6</ele>
        <time>2026-01-13T11:35:12Z</time>
      </trkpt>
      <trkpt lat="48.69589" lon="1.85195">
        <ele>179.6</ele>
        <time>2026-01-13T11:35:13Z</time>
      </trkpt>
      <trkpt lat="48.69584" lon="1.85198">
        <ele>180.6</ele>
        <time>2026-01-13T11:35:14Z</time>
      </trkpt>
      <trkpt lat="48.69578" lon="1.85201">
        <ele>180.6</ele>
        <time>2026-01-13T11:35:15Z</time>
      </trkpt>
      <trkpt lat="48.69573" lon="1.85203">
        <ele>180.6</ele>
        <time>2026-01-13T11:35:16Z</time>
      </trkpt>
      <trkpt lat="48.69568" lon="1.85206">
        <ele>180.6</ele>
        <time>2026-01-13T11:35:17Z</time>
      </trkpt>
      <trkpt lat="48.69562" lon="1.85209">
        <ele>180.6</ele>
        <time>2026-01-13T11:35:18Z</time>
      </trkpt>
      <trkpt lat="48.69556" lon="1.85211">
        <ele>179.6</ele>
        <time>2026-01-13T11:35:19Z</time>
      </trkpt>
      <trkpt lat="48.6955" lon="1.85213">
        <ele>179.6</ele>
        <time>2026-01-13T11:35:20Z</time>
      </trkpt>
      <trkpt lat="48.69544" lon="1.85216">
        <ele>179.6</ele>
        <time>2026-01-13T11:35:21Z</time>
      </trkpt>
      <trkpt lat="48.69539" lon="1.85219">
        <ele>180.6</ele>
        <time>2026-01-13T11:35:22Z</time>
      </trkpt>
      <trkpt lat="48.69533" lon="1.85221">
        <ele>181.2</ele>
        <time>2026-01-13T11:35:23Z</time>
      </trkpt>
      <trkpt lat="48.69527" lon="1.85224">
        <ele>181.8</ele>
        <time>2026-01-13T11:35:24Z</time>
      </trkpt>
      <trkpt lat="48.69522" lon="1.85227">
        <ele>181.8</ele>
        <time>2026-01-13T11:35:25Z</time>
      </trkpt>
      <trkpt lat="48.69516" lon="1.85229">
        <ele>181.8</ele>
        <time>2026-01-13T11:35:26Z</time>
      </trkpt>
      <trkpt lat="48.69511" lon="1.85232">
        <ele>180.8</ele>
        <time>2026-01-13T11:35:27Z</time>
      </trkpt>
      <trkpt lat="48.69506" lon="1.85234">
        <ele>180.8</ele>
        <time>2026-01-13T11:35:28Z</time>
      </trkpt>
      <trkpt lat="48.695" lon="1.85236">
        <ele>180.8</ele>
        <time>2026-01-13T11:35:29Z</time>
      </trkpt>
      <trkpt lat="48.69496" lon="1.85235">
        <ele>180.8</ele>
        <time>2026-01-13T11:35:30Z</time>
      </trkpt>
      <trkpt lat="48.69491" lon="1.85231">
        <ele>180.8</ele>
        <time>2026-01-13T11:35:31Z</time>
      </trkpt>
      <trkpt lat="48.69488" lon="1.85225">
        <ele>180.8</ele>
        <time>2026-01-13T11:35:32Z</time>
      </trkpt>
      <trkpt lat="48.69486" lon="1.85218">
        <ele>181.8</ele>
        <time>2026-01-13T11:35:33Z</time>
      </trkpt>
      <trkpt lat="48.69484" lon="1.8521">
        <ele>182.8</ele>
        <time>2026-01-13T11:35:34Z</time>
      </trkpt>
      <trkpt lat="48.69482" lon="1.85202">
        <ele>183.2</ele>
        <time>2026-01-13T11:35:35Z</time>
      </trkpt>
      <trkpt lat="48.69479" lon="1.85194">
        <ele>183.2</ele>
        <time>2026-01-13T11:35:36Z</time>
      </trkpt>
      <trkpt lat="48.69477" lon="1.85186">
        <ele>183.6</ele>
        <time>2026-01-13T11:35:37Z</time>
      </trkpt>
      <trkpt lat="48.69477" lon="1.85178">
        <ele>183.6</ele>
        <time>2026-01-13T11:35:38Z</time>
      </trkpt>
      <trkpt lat="48.69479" lon="1.85171">
        <ele>184</ele>
        <time>2026-01-13T11:35:39Z</time>
      </trkpt>
      <trkpt lat="48.69482" lon="1.85163">
        <ele>184.2</ele>
        <time>2026-01-13T11:35:40Z</time>
      </trkpt>
      <trkpt lat="48.69486" lon="1.85156">
        <ele>184.2</ele>
        <time>2026-01-13T11:35:41Z</time>
      </trkpt>
      <trkpt lat="48.69489" lon="1.85149">
        <ele>184.2</ele>
        <time>2026-01-13T11:35:42Z</time>
      </trkpt>
      <trkpt lat="48.69492" lon="1.85141">
        <ele>184</ele>
        <time>2026-01-13T11:35:43Z</time>
      </trkpt>
      <trkpt lat="48.69496" lon="1.85133">
        <ele>183.6</ele>
        <time>2026-01-13T11:35:44Z</time>
      </trkpt>
      <trkpt lat="48.69499" lon="1.85125">
        <ele>183</ele>
        <time>2026-01-13T11:35:45Z</time>
      </trkpt>
      <trkpt lat="48.69502" lon="1.85118">
        <ele>183</ele>
        <time>2026-01-13T11:35:46Z</time>
      </trkpt>
      <trkpt lat="48.69505" lon="1.8511">
        <ele>183</ele>
        <time>2026-01-13T11:35:47Z</time>
      </trkpt>
      <trkpt lat="48.69509" lon="1.85102">
        <ele>184</ele>
        <time>2026-01-13T11:35:48Z</time>
      </trkpt>
      <trkpt lat="48.69512" lon="1.85094">
        <ele>184</ele>
        <time>2026-01-13T11:35:49Z</time>
      </trkpt>
      <trkpt lat="48.69515" lon="1.85086">
        <ele>184</ele>
        <time>2026-01-13T11:35:50Z</time>
      </trkpt>
      <trkpt lat="48.69518" lon="1.85078">
        <ele>183</ele>
        <time>2026-01-13T11:35:51Z</time>
      </trkpt>
      <trkpt lat="48.69521" lon="1.8507">
        <ele>183</ele>
        <time>2026-01-13T11:35:52Z</time>
      </trkpt>
      <trkpt lat="48.69524" lon="1.85062">
        <ele>183</ele>
        <time>2026-01-13T11:35:53Z</time>
      </trkpt>
      <trkpt lat="48.69527" lon="1.85054">
        <ele>183.2</ele>
        <time>2026-01-13T11:35:54Z</time>
      </trkpt>
      <trkpt lat="48.6953" lon="1.85046">
        <ele>183.8</ele>
        <time>2026-01-13T11:35:55Z</time>
      </trkpt>
      <trkpt lat="48.69533" lon="1.85038">
        <ele>183.8</ele>
        <time>2026-01-13T11:35:56Z</time>
      </trkpt>
      <trkpt lat="48.69536" lon="1.8503">
        <ele>183.8</ele>
        <time>2026-01-13T11:35:57Z</time>
      </trkpt>
      <trkpt lat="48.69538" lon="1.85021">
        <ele>183.8</ele>
        <time>2026-01-13T11:35:58Z</time>
      </trkpt>
      <trkpt lat="48.6954" lon="1.85012">
        <ele>183.8</ele>
        <time>2026-01-13T11:35:59Z</time>
      </trkpt>
      <trkpt lat="48.69542" lon="1.85003">
        <ele>183.8</ele>
        <time>2026-01-13T11:36:00Z</time>
      </trkpt>
      <trkpt lat="48.69544" lon="1.84994">
        <ele>183.8</ele>
        <time>2026-01-13T11:36:01Z</time>
      </trkpt>
      <trkpt lat="48.69547" lon="1.84986">
        <ele>183.8</ele>
        <time>2026-01-13T11:36:02Z</time>
      </trkpt>
      <trkpt lat="48.69549" lon="1.84977">
        <ele>183.8</ele>
        <time>2026-01-13T11:36:03Z</time>
      </trkpt>
      <trkpt lat="48.69551" lon="1.84968">
        <ele>183.8</ele>
        <time>2026-01-13T11:36:04Z</time>
      </trkpt>
      <trkpt lat="48.69554" lon="1.84959">
        <ele>183.8</ele>
        <time>2026-01-13T11:36:05Z</time>
      </trkpt>
      <trkpt lat="48.69556" lon="1.84951">
        <ele>183.8</ele>
        <time>2026-01-13T11:36:06Z</time>
      </trkpt>
      <trkpt lat="48.69558" lon="1.84942">
        <ele>183.8</ele>
        <time>2026-01-13T11:36:07Z</time>
      </trkpt>
      <trkpt lat="48.6956" lon="1.84933">
        <ele>182.8</ele>
        <time>2026-01-13T11:36:08Z</time>
      </trkpt>
      <trkpt lat="48.69562" lon="1.84924">
        <ele>182</ele>
        <time>2026-01-13T11:36:09Z</time>
      </trkpt>
      <trkpt lat="48.69564" lon="1.84915">
        <ele>182</ele>
        <time>2026-01-13T11:36:10Z</time>
      </trkpt>
      <trkpt lat="48.69566" lon="1.84905">
        <ele>182</ele>
        <time>2026-01-13T11:36:11Z</time>
      </trkpt>
      <trkpt lat="48.69568" lon="1.84896">
        <ele>183</ele>
        <time>2026-01-13T11:36:12Z</time>
      </trkpt>
      <trkpt lat="48.6957" lon="1.84886">
        <ele>183.8</ele>
        <time>2026-01-13T11:36:13Z</time>
      </trkpt>
      <trkpt lat="48.69572" lon="1.84877">
        <ele>183.8</ele>
        <time>2026-01-13T11:36:14Z</time>
      </trkpt>
      <trkpt lat="48.69574" lon="1.84867">
        <ele>183.8</ele>
        <time>2026-01-13T11:36:15Z</time>
      </trkpt>
      <trkpt lat="48.69575" lon="1.84857">
        <ele>183.8</ele>
        <time>2026-01-13T11:36:16Z</time>
      </trkpt>
      <trkpt lat="48.69576" lon="1.84847">
        <ele>183.8</ele>
        <time>2026-01-13T11:36:17Z</time>
      </trkpt>
      <trkpt lat="48.69578" lon="1.84837">
        <ele>183.8</ele>
        <time>2026-01-13T11:36:18Z</time>
      </trkpt>
      <trkpt lat="48.69579" lon="1.84827">
        <ele>183.8</ele>
        <time>2026-01-13T11:36:19Z</time>
      </trkpt>
      <trkpt lat="48.6958" lon="1.84817">
        <ele>184</ele>
        <time>2026-01-13T11:36:20Z</time>
      </trkpt>
      <trkpt lat="48.69581" lon="1.84808">
        <ele>184</ele>
        <time>2026-01-13T11:36:21Z</time>
      </trkpt>
      <trkpt lat="48.69582" lon="1.84798">
        <ele>184</ele>
        <time>2026-01-13T11:36:22Z</time>
      </trkpt>
      <trkpt lat="48.69583" lon="1.84788">
        <ele>183</ele>
        <time>2026-01-13T11:36:23Z</time>
      </trkpt>
      <trkpt lat="48.69583" lon="1.84778">
        <ele>182</ele>
        <time>2026-01-13T11:36:24Z</time>
      </trkpt>
      <trkpt lat="48.69584" lon="1.84768">
        <ele>182</ele>
        <time>2026-01-13T11:36:25Z</time>
      </trkpt>
      <trkpt lat="48.69585" lon="1.84759">
        <ele>182</ele>
        <time>2026-01-13T11:36:26Z</time>
      </trkpt>
      <trkpt lat="48.69585" lon="1.84749">
        <ele>182.8</ele>
        <time>2026-01-13T11:36:27Z</time>
      </trkpt>
      <trkpt lat="48.69586" lon="1.84739">
        <ele>182.8</ele>
        <time>2026-01-13T11:36:28Z</time>
      </trkpt>
      <trkpt lat="48.69587" lon="1.84729">
        <ele>182.8</ele>
        <time>2026-01-13T11:36:29Z</time>
      </trkpt>
      <trkpt lat="48.69588" lon="1.84719">
        <ele>182.8</ele>
        <time>2026-01-13T11:36:30Z</time>
      </trkpt>
      <trkpt lat="48.69589" lon="1.84709">
        <ele>183.8</ele>
        <time>2026-01-13T11:36:31Z</time>
      </trkpt>
      <trkpt lat="48.6959" lon="1.84699">
        <ele>183.8</ele>
        <time>2026-01-13T11:36:32Z</time>
      </trkpt>
      <trkpt lat="48.69591" lon="1.84689">
        <ele>183.8</ele>
        <time>2026-01-13T11:36:33Z</time>
      </trkpt>
      <trkpt lat="48.69592" lon="1.84678">
        <ele>182.8</ele>
        <time>2026-01-13T11:36:34Z</time>
      </trkpt>
      <trkpt lat="48.69593" lon="1.84668">
        <ele>182.2</ele>
        <time>2026-01-13T11:36:35Z</time>
      </trkpt>
      <trkpt lat="48.69594" lon="1.84657">
        <ele>181.8</ele>
        <time>2026-01-13T11:36:36Z</time>
      </trkpt>
      <trkpt lat="48.69594" lon="1.84646">
        <ele>181.4</ele>
        <time>2026-01-13T11:36:37Z</time>
      </trkpt>
      <trkpt lat="48.69593" lon="1.84636">
        <ele>180.8</ele>
        <time>2026-01-13T11:36:38Z</time>
      </trkpt>
      <trkpt lat="48.69591" lon="1.84627">
        <ele>180.8</ele>
        <time>2026-01-13T11:36:39Z</time>
      </trkpt>
      <trkpt lat="48.69586" lon="1.84619">
        <ele>180.8</ele>
        <time>2026-01-13T11:36:40Z</time>
      </trkpt>
      <trkpt lat="48.69581" lon="1.84614">
        <ele>180.8</ele>
        <time>2026-01-13T11:36:41Z</time>
      </trkpt>
      <trkpt lat="48.69575" lon="1.84609">
        <ele>181.8</ele>
        <time>2026-01-13T11:36:42Z</time>
      </trkpt>
      <trkpt lat="48.69569" lon="1.84607">
        <ele>182.2</ele>
        <time>2026-01-13T11:36:43Z</time>
      </trkpt>
      <trkpt lat="48.69563" lon="1.84604">
        <ele>182.4</ele>
        <time>2026-01-13T11:36:44Z</time>
      </trkpt>
      <trkpt lat="48.69557" lon="1.84602">
        <ele>182.4</ele>
        <time>2026-01-13T11:36:45Z</time>
      </trkpt>
      <trkpt lat="48.69551" lon="1.846">
        <ele>182.4</ele>
        <time>2026-01-13T11:36:46Z</time>
      </trkpt>
      <trkpt lat="48.69545" lon="1.84598">
        <ele>181.4</ele>
        <time>2026-01-13T11:36:47Z</time>
      </trkpt>
      <trkpt lat="48.69538" lon="1.84596">
        <ele>181</ele>
        <time>2026-01-13T11:36:48Z</time>
      </trkpt>
      <trkpt lat="48.69532" lon="1.84594">
        <ele>181</ele>
        <time>2026-01-13T11:36:49Z</time>
      </trkpt>
      <trkpt lat="48.69526" lon="1.84593">
        <ele>181</ele>
        <time>2026-01-13T11:36:50Z</time>
      </trkpt>
      <trkpt lat="48.6952" lon="1.84591">
        <ele>181.8</ele>
        <time>2026-01-13T11:36:51Z</time>
      </trkpt>
      <trkpt lat="48.69515" lon="1.84589">
        <ele>182.4</ele>
        <time>2026-01-13T11:36:52Z</time>
      </trkpt>
      <trkpt lat="48.69509" lon="1.84587">
        <ele>182.4</ele>
        <time>2026-01-13T11:36:53Z</time>
      </trkpt>
      <trkpt lat="48.69503" lon="1.84585">
        <ele>182.4</ele>
        <time>2026-01-13T11:36:54Z</time>
      </trkpt>
      <trkpt lat="48.69497" lon="1.84584">
        <ele>182.4</ele>
        <time>2026-01-13T11:36:55Z</time>
      </trkpt>
      <trkpt lat="48.69491" lon="1.84582">
        <ele>182.4</ele>
        <time>2026-01-13T11:36:56Z</time>
      </trkpt>
      <trkpt lat="48.69486" lon="1.8458">
        <ele>182.4</ele>
        <time>2026-01-13T11:36:57Z</time>
      </trkpt>
      <trkpt lat="48.6948" lon="1.84578">
        <ele>181.8</ele>
        <time>2026-01-13T11:36:58Z</time>
      </trkpt>
      <trkpt lat="48.69475" lon="1.84576">
        <ele>181.8</ele>
        <time>2026-01-13T11:36:59Z</time>
      </trkpt>
      <trkpt lat="48.6947" lon="1.84574">
        <ele>181.8</ele>
        <time>2026-01-13T11:37:00Z</time>
      </trkpt>
      <trkpt lat="48.69464" lon="1.84572">
        <ele>182.8</ele>
        <time>2026-01-13T11:37:01Z</time>
      </trkpt>
      <trkpt lat="48.69459" lon="1.8457">
        <ele>182.8</ele>
        <time>2026-01-13T11:37:02Z</time>
      </trkpt>
      <trkpt lat="48.69453" lon="1.84568">
        <ele>182.8</ele>
        <time>2026-01-13T11:37:03Z</time>
      </trkpt>
      <trkpt lat="48.69448" lon="1.84566">
        <ele>182.4</ele>
        <time>2026-01-13T11:37:04Z</time>
      </trkpt>
      <trkpt lat="48.69443" lon="1.84564">
        <ele>182.4</ele>
        <time>2026-01-13T11:37:05Z</time>
      </trkpt>
      <trkpt lat="48.69437" lon="1.84563">
        <ele>182.4</ele>
        <time>2026-01-13T11:37:06Z</time>
      </trkpt>
      <trkpt lat="48.69432" lon="1.84559">
        <ele>183</ele>
        <time>2026-01-13T11:37:07Z</time>
      </trkpt>
      <trkpt lat="48.69429" lon="1.84555">
        <ele>183.6</ele>
        <time>2026-01-13T11:37:08Z</time>
      </trkpt>
      <trkpt lat="48.69427" lon="1.8455">
        <ele>183.6</ele>
        <time>2026-01-13T11:37:09Z</time>
      </trkpt>
      <trkpt lat="48.69427" lon="1.84544">
        <ele>183.6</ele>
        <time>2026-01-13T11:37:10Z</time>
      </trkpt>
      <trkpt lat="48.69428" lon="1.84538">
        <ele>183.6</ele>
        <time>2026-01-13T11:37:11Z</time>
      </trkpt>
      <trkpt lat="48.69431" lon="1.84533">
        <ele>184.2</ele>
        <time>2026-01-13T11:37:12Z</time>
      </trkpt>
      <trkpt lat="48.69432" lon="1.84526">
        <ele>184.2</ele>
        <time>2026-01-13T11:37:13Z</time>
      </trkpt>
      <trkpt lat="48.69435" lon="1.84519">
        <ele>184.2</ele>
        <time>2026-01-13T11:37:14Z</time>
      </trkpt>
      <trkpt lat="48.69438" lon="1.84511">
        <ele>183.6</ele>
        <time>2026-01-13T11:37:15Z</time>
      </trkpt>
      <trkpt lat="48.6944" lon="1.84504">
        <ele>183.6</ele>
        <time>2026-01-13T11:37:16Z</time>
      </trkpt>
      <trkpt lat="48.69442" lon="1.84497">
        <ele>183.6</ele>
        <time>2026-01-13T11:37:17Z</time>
      </trkpt>
      <trkpt lat="48.69444" lon="1.84488">
        <ele>183.6</ele>
        <time>2026-01-13T11:37:18Z</time>
      </trkpt>
      <trkpt lat="48.69447" lon="1.84478">
        <ele>183.6</ele>
        <time>2026-01-13T11:37:19Z</time>
      </trkpt>
      <trkpt lat="48.6945" lon="1.8447">
        <ele>183.6</ele>
        <time>2026-01-13T11:37:20Z</time>
      </trkpt>
      <trkpt lat="48.69453" lon="1.8446">
        <ele>183.6</ele>
        <time>2026-01-13T11:37:21Z</time>
      </trkpt>
      <trkpt lat="48.69456" lon="1.84451">
        <ele>183.6</ele>
        <time>2026-01-13T11:37:22Z</time>
      </trkpt>
      <trkpt lat="48.69459" lon="1.84442">
        <ele>183.6</ele>
        <time>2026-01-13T11:37:23Z</time>
      </trkpt>
      <trkpt lat="48.69461" lon="1.84434">
        <ele>183.6</ele>
        <time>2026-01-13T11:37:24Z</time>
      </trkpt>
      <trkpt lat="48.69465" lon="1.84425">
        <ele>183.6</ele>
        <time>2026-01-13T11:37:25Z</time>
      </trkpt>
      <trkpt lat="48.69468" lon="1.84417">
        <ele>183.6</ele>
        <time>2026-01-13T11:37:26Z</time>
      </trkpt>
      <trkpt lat="48.69471" lon="1.84408">
        <ele>183.6</ele>
        <time>2026-01-13T11:37:27Z</time>
      </trkpt>
      <trkpt lat="48.69474" lon="1.844">
        <ele>183.6</ele>
        <time>2026-01-13T11:37:28Z</time>
      </trkpt>
      <trkpt lat="48.69477" lon="1.84391">
        <ele>183.6</ele>
        <time>2026-01-13T11:37:29Z</time>
      </trkpt>
      <trkpt lat="48.69479" lon="1.84382">
        <ele>183.6</ele>
        <time>2026-01-13T11:37:30Z</time>
      </trkpt>
      <trkpt lat="48.69482" lon="1.84373">
        <ele>183.6</ele>
        <time>2026-01-13T11:37:31Z</time>
      </trkpt>
      <trkpt lat="48.69484" lon="1.84364">
        <ele>183.6</ele>
        <time>2026-01-13T11:37:32Z</time>
      </trkpt>
      <trkpt lat="48.69487" lon="1.84355">
        <ele>183.6</ele>
        <time>2026-01-13T11:37:33Z</time>
      </trkpt>
      <trkpt lat="48.69489" lon="1.84346">
        <ele>183.6</ele>
        <time>2026-01-13T11:37:34Z</time>
      </trkpt>
      <trkpt lat="48.69491" lon="1.84336">
        <ele>183.6</ele>
        <time>2026-01-13T11:37:35Z</time>
      </trkpt>
      <trkpt lat="48.69493" lon="1.84327">
        <ele>184.2</ele>
        <time>2026-01-13T11:37:36Z</time>
      </trkpt>
      <trkpt lat="48.69495" lon="1.84317">
        <ele>184.2</ele>
        <time>2026-01-13T11:37:37Z</time>
      </trkpt>
      <trkpt lat="48.69497" lon="1.84308">
        <ele>184.2</ele>
        <time>2026-01-13T11:37:38Z</time>
      </trkpt>
      <trkpt lat="48.69499" lon="1.84298">
        <ele>183.6</ele>
        <time>2026-01-13T11:37:39Z</time>
      </trkpt>
      <trkpt lat="48.69501" lon="1.84289">
        <ele>183.6</ele>
        <time>2026-01-13T11:37:40Z</time>
      </trkpt>
      <trkpt lat="48.69503" lon="1.84279">
        <ele>183.6</ele>
        <time>2026-01-13T11:37:41Z</time>
      </trkpt>
      <trkpt lat="48.69505" lon="1.84269">
        <ele>183.6</ele>
        <time>2026-01-13T11:37:42Z</time>
      </trkpt>
      <trkpt lat="48.69507" lon="1.84259">
        <ele>182.6</ele>
        <time>2026-01-13T11:37:43Z</time>
      </trkpt>
      <trkpt lat="48.69509" lon="1.84249">
        <ele>182.4</ele>
        <time>2026-01-13T11:37:44Z</time>
      </trkpt>
      <trkpt lat="48.6951" lon="1.8424">
        <ele>182</ele>
        <time>2026-01-13T11:37:45Z</time>
      </trkpt>
      <trkpt lat="48.69512" lon="1.8423">
        <ele>182</ele>
        <time>2026-01-13T11:37:46Z</time>
      </trkpt>
      <trkpt lat="48.69514" lon="1.8422">
        <ele>181.6</ele>
        <time>2026-01-13T11:37:47Z</time>
      </trkpt>
      <trkpt lat="48.69516" lon="1.8421">
        <ele>181.6</ele>
        <time>2026-01-13T11:37:48Z</time>
      </trkpt>
      <trkpt lat="48.69518" lon="1.84201">
        <ele>181.6</ele>
        <time>2026-01-13T11:37:49Z</time>
      </trkpt>
      <trkpt lat="48.6952" lon="1.84191">
        <ele>182.4</ele>
        <time>2026-01-13T11:37:50Z</time>
      </trkpt>
      <trkpt lat="48.69522" lon="1.84181">
        <ele>183</ele>
        <time>2026-01-13T11:37:51Z</time>
      </trkpt>
      <trkpt lat="48.69524" lon="1.84172">
        <ele>183</ele>
        <time>2026-01-13T11:37:52Z</time>
      </trkpt>
      <trkpt lat="48.69526" lon="1.84162">
        <ele>183</ele>
        <time>2026-01-13T11:37:53Z</time>
      </trkpt>
      <trkpt lat="48.69528" lon="1.84152">
        <ele>182</ele>
        <time>2026-01-13T11:37:54Z</time>
      </trkpt>
      <trkpt lat="48.69529" lon="1.84143">
        <ele>181</ele>
        <time>2026-01-13T11:37:55Z</time>
      </trkpt>
      <trkpt lat="48.69531" lon="1.84133">
        <ele>180</ele>
        <time>2026-01-13T11:37:56Z</time>
      </trkpt>
      <trkpt lat="48.69533" lon="1.84124">
        <ele>180</ele>
        <time>2026-01-13T11:37:57Z</time>
      </trkpt>
      <trkpt lat="48.69535" lon="1.84115">
        <ele>180</ele>
        <time>2026-01-13T11:37:58Z</time>
      </trkpt>
      <trkpt lat="48.69537" lon="1.84105">
        <ele>181</ele>
        <time>2026-01-13T11:37:59Z</time>
      </trkpt>
      <trkpt lat="48.69539" lon="1.84096">
        <ele>182</ele>
        <time>2026-01-13T11:38:00Z</time>
      </trkpt>
      <trkpt lat="48.69541" lon="1.84087">
        <ele>183</ele>
        <time>2026-01-13T11:38:01Z</time>
      </trkpt>
      <trkpt lat="48.69543" lon="1.84078">
        <ele>183.6</ele>
        <time>2026-01-13T11:38:02Z</time>
      </trkpt>
      <trkpt lat="48.69545" lon="1.84069">
        <ele>184.2</ele>
        <time>2026-01-13T11:38:03Z</time>
      </trkpt>
      <trkpt lat="48.69548" lon="1.8406">
        <ele>184.2</ele>
        <time>2026-01-13T11:38:04Z</time>
      </trkpt>
      <trkpt lat="48.69551" lon="1.84051">
        <ele>184.2</ele>
        <time>2026-01-13T11:38:05Z</time>
      </trkpt>
      <trkpt lat="48.69555" lon="1.84043">
        <ele>184.2</ele>
        <time>2026-01-13T11:38:06Z</time>
      </trkpt>
      <trkpt lat="48.69558" lon="1.84034">
        <ele>183.8</ele>
        <time>2026-01-13T11:38:07Z</time>
      </trkpt>
      <trkpt lat="48.69561" lon="1.84026">
        <ele>183.4</ele>
        <time>2026-01-13T11:38:08Z</time>
      </trkpt>
      <trkpt lat="48.69565" lon="1.84017">
        <ele>183.4</ele>
        <time>2026-01-13T11:38:09Z</time>
      </trkpt>
      <trkpt lat="48.69569" lon="1.84009">
        <ele>183.4</ele>
        <time>2026-01-13T11:38:10Z</time>
      </trkpt>
      <trkpt lat="48.69573" lon="1.84001">
        <ele>184</ele>
        <time>2026-01-13T11:38:11Z</time>
      </trkpt>
      <trkpt lat="48.69578" lon="1.83993">
        <ele>185</ele>
        <time>2026-01-13T11:38:12Z</time>
      </trkpt>
      <trkpt lat="48.69582" lon="1.83985">
        <ele>185.2</ele>
        <time>2026-01-13T11:38:13Z</time>
      </trkpt>
      <trkpt lat="48.69587" lon="1.83978">
        <ele>185.4</ele>
        <time>2026-01-13T11:38:14Z</time>
      </trkpt>
      <trkpt lat="48.69592" lon="1.83971">
        <ele>185.4</ele>
        <time>2026-01-13T11:38:15Z</time>
      </trkpt>
      <trkpt lat="48.69598" lon="1.83964">
        <ele>185.4</ele>
        <time>2026-01-13T11:38:16Z</time>
      </trkpt>
      <trkpt lat="48.69603" lon="1.83957">
        <ele>185.2</ele>
        <time>2026-01-13T11:38:17Z</time>
      </trkpt>
      <trkpt lat="48.69609" lon="1.83951">
        <ele>185.2</ele>
        <time>2026-01-13T11:38:18Z</time>
      </trkpt>
      <trkpt lat="48.69615" lon="1.83945">
        <ele>185.2</ele>
        <time>2026-01-13T11:38:19Z</time>
      </trkpt>
      <trkpt lat="48.69621" lon="1.83939">
        <ele>185.8</ele>
        <time>2026-01-13T11:38:20Z</time>
      </trkpt>
      <trkpt lat="48.69627" lon="1.83933">
        <ele>185.8</ele>
        <time>2026-01-13T11:38:21Z</time>
      </trkpt>
      <trkpt lat="48.69633" lon="1.83928">
        <ele>185.8</ele>
        <time>2026-01-13T11:38:22Z</time>
      </trkpt>
      <trkpt lat="48.69639" lon="1.83922">
        <ele>185.8</ele>
        <time>2026-01-13T11:38:23Z</time>
      </trkpt>
      <trkpt lat="48.69646" lon="1.83917">
        <ele>185.8</ele>
        <time>2026-01-13T11:38:24Z</time>
      </trkpt>
      <trkpt lat="48.69652" lon="1.83911">
        <ele>185.8</ele>
        <time>2026-01-13T11:38:25Z</time>
      </trkpt>
      <trkpt lat="48.69658" lon="1.83906">
        <ele>185.6</ele>
        <time>2026-01-13T11:38:26Z</time>
      </trkpt>
      <trkpt lat="48.69665" lon="1.83901">
        <ele>184.6</ele>
        <time>2026-01-13T11:38:27Z</time>
      </trkpt>
      <trkpt lat="48.69671" lon="1.83895">
        <ele>184.6</ele>
        <time>2026-01-13T11:38:28Z</time>
      </trkpt>
      <trkpt lat="48.69677" lon="1.8389">
        <ele>184.6</ele>
        <time>2026-01-13T11:38:29Z</time>
      </trkpt>
      <trkpt lat="48.69684" lon="1.83884">
        <ele>185</ele>
        <time>2026-01-13T11:38:30Z</time>
      </trkpt>
      <trkpt lat="48.6969" lon="1.83878">
        <ele>185.2</ele>
        <time>2026-01-13T11:38:31Z</time>
      </trkpt>
      <trkpt lat="48.69696" lon="1.83873">
        <ele>185.2</ele>
        <time>2026-01-13T11:38:32Z</time>
      </trkpt>
      <trkpt lat="48.69702" lon="1.83867">
        <ele>185.2</ele>
        <time>2026-01-13T11:38:33Z</time>
      </trkpt>
      <trkpt lat="48.69709" lon="1.83861">
        <ele>184.8</ele>
        <time>2026-01-13T11:38:34Z</time>
      </trkpt>
      <trkpt lat="48.69715" lon="1.83856">
        <ele>184.6</ele>
        <time>2026-01-13T11:38:35Z</time>
      </trkpt>
      <trkpt lat="48.69721" lon="1.8385">
        <ele>184.6</ele>
        <time>2026-01-13T11:38:36Z</time>
      </trkpt>
      <trkpt lat="48.69728" lon="1.83844">
        <ele>184.6</ele>
        <time>2026-01-13T11:38:37Z</time>
      </trkpt>
      <trkpt lat="48.69734" lon="1.83838">
        <ele>184.8</ele>
        <time>2026-01-13T11:38:38Z</time>
      </trkpt>
      <trkpt lat="48.69741" lon="1.83833">
        <ele>185.2</ele>
        <time>2026-01-13T11:38:39Z</time>
      </trkpt>
      <trkpt lat="48.69748" lon="1.83828">
        <ele>185.2</ele>
        <time>2026-01-13T11:38:40Z</time>
      </trkpt>
      <trkpt lat="48.69755" lon="1.83823">
        <ele>185.2</ele>
        <time>2026-01-13T11:38:41Z</time>
      </trkpt>
      <trkpt lat="48.69761" lon="1.83818">
        <ele>185.2</ele>
        <time>2026-01-13T11:38:42Z</time>
      </trkpt>
      <trkpt lat="48.69768" lon="1.83812">
        <ele>185.2</ele>
        <time>2026-01-13T11:38:43Z</time>
      </trkpt>
      <trkpt lat="48.69775" lon="1.83806">
        <ele>185.2</ele>
        <time>2026-01-13T11:38:44Z</time>
      </trkpt>
      <trkpt lat="48.69781" lon="1.838">
        <ele>185.2</ele>
        <time>2026-01-13T11:38:45Z</time>
      </trkpt>
      <trkpt lat="48.69788" lon="1.83795">
        <ele>185.2</ele>
        <time>2026-01-13T11:38:46Z</time>
      </trkpt>
      <trkpt lat="48.69795" lon="1.83789">
        <ele>185.2</ele>
        <time>2026-01-13T11:38:47Z</time>
      </trkpt>
      <trkpt lat="48.69802" lon="1.83783">
        <ele>184.6</ele>
        <time>2026-01-13T11:38:48Z</time>
      </trkpt>
      <trkpt lat="48.69808" lon="1.83777">
        <ele>184</ele>
        <time>2026-01-13T11:38:49Z</time>
      </trkpt>
      <trkpt lat="48.69815" lon="1.83771">
        <ele>184</ele>
        <time>2026-01-13T11:38:50Z</time>
      </trkpt>
      <trkpt lat="48.69822" lon="1.83765">
        <ele>184</ele>
        <time>2026-01-13T11:38:51Z</time>
      </trkpt>
      <trkpt lat="48.69828" lon="1.83758">
        <ele>184.6</ele>
        <time>2026-01-13T11:38:52Z</time>
      </trkpt>
      <trkpt lat="48.69835" lon="1.83752">
        <ele>185</ele>
        <time>2026-01-13T11:38:53Z</time>
      </trkpt>
      <trkpt lat="48.69841" lon="1.83745">
        <ele>185.2</ele>
        <time>2026-01-13T11:38:54Z</time>
      </trkpt>
      <trkpt lat="48.69847" lon="1.83738">
        <ele>185.2</ele>
        <time>2026-01-13T11:38:55Z</time>
      </trkpt>
      <trkpt lat="48.69854" lon="1.83731">
        <ele>185.2</ele>
        <time>2026-01-13T11:38:56Z</time>
      </trkpt>
      <trkpt lat="48.6986" lon="1.83723">
        <ele>184.8</ele>
        <time>2026-01-13T11:38:57Z</time>
      </trkpt>
      <trkpt lat="48.69866" lon="1.83715">
        <ele>184.2</ele>
        <time>2026-01-13T11:38:58Z</time>
      </trkpt>
      <trkpt lat="48.69871" lon="1.83706">
        <ele>184.2</ele>
        <time>2026-01-13T11:38:59Z</time>
      </trkpt>
      <trkpt lat="48.69877" lon="1.83698">
        <ele>184.2</ele>
        <time>2026-01-13T11:39:00Z</time>
      </trkpt>
      <trkpt lat="48.69882" lon="1.83688">
        <ele>184.2</ele>
        <time>2026-01-13T11:39:01Z</time>
      </trkpt>
      <trkpt lat="48.69887" lon="1.83679">
        <ele>184.4</ele>
        <time>2026-01-13T11:39:02Z</time>
      </trkpt>
      <trkpt lat="48.69892" lon="1.83669">
        <ele>184.6</ele>
        <time>2026-01-13T11:39:03Z</time>
      </trkpt>
      <trkpt lat="48.69897" lon="1.83659">
        <ele>184.6</ele>
        <time>2026-01-13T11:39:04Z</time>
      </trkpt>
      <trkpt lat="48.69902" lon="1.8365">
        <ele>184.6</ele>
        <time>2026-01-13T11:39:05Z</time>
      </trkpt>
      <trkpt lat="48.69907" lon="1.8364">
        <ele>184.6</ele>
        <time>2026-01-13T11:39:06Z</time>
      </trkpt>
      <trkpt lat="48.69912" lon="1.8363">
        <ele>184.6</ele>
        <time>2026-01-13T11:39:07Z</time>
      </trkpt>
      <trkpt lat="48.69916" lon="1.8362">
        <ele>184.6</ele>
        <time>2026-01-13T11:39:08Z</time>
      </trkpt>
      <trkpt lat="48.69921" lon="1.8361">
        <ele>184.6</ele>
        <time>2026-01-13T11:39:09Z</time>
      </trkpt>
      <trkpt lat="48.69925" lon="1.836">
        <ele>184.6</ele>
        <time>2026-01-13T11:39:10Z</time>
      </trkpt>
      <trkpt lat="48.6993" lon="1.8359">
        <ele>184</ele>
        <time>2026-01-13T11:39:11Z</time>
      </trkpt>
      <trkpt lat="48.69934" lon="1.8358">
        <ele>183.6</ele>
        <time>2026-01-13T11:39:12Z</time>
      </trkpt>
      <trkpt lat="48.69938" lon="1.8357">
        <ele>183.6</ele>
        <time>2026-01-13T11:39:13Z</time>
      </trkpt>
      <trkpt lat="48.69942" lon="1.8356">
        <ele>183.6</ele>
        <time>2026-01-13T11:39:14Z</time>
      </trkpt>
      <trkpt lat="48.69946" lon="1.8355">
        <ele>184.6</ele>
        <time>2026-01-13T11:39:15Z</time>
      </trkpt>
      <trkpt lat="48.69951" lon="1.8354">
        <ele>185.4</ele>
        <time>2026-01-13T11:39:16Z</time>
      </trkpt>
      <trkpt lat="48.69955" lon="1.8353">
        <ele>185.4</ele>
        <time>2026-01-13T11:39:17Z</time>
      </trkpt>
      <trkpt lat="48.69959" lon="1.83521">
        <ele>185.4</ele>
        <time>2026-01-13T11:39:18Z</time>
      </trkpt>
      <trkpt lat="48.69963" lon="1.83511">
        <ele>185.4</ele>
        <time>2026-01-13T11:39:19Z</time>
      </trkpt>
      <trkpt lat="48.69967" lon="1.83501">
        <ele>185.4</ele>
        <time>2026-01-13T11:39:20Z</time>
      </trkpt>
      <trkpt lat="48.69972" lon="1.83491">
        <ele>185.4</ele>
        <time>2026-01-13T11:39:21Z</time>
      </trkpt>
      <trkpt lat="48.69976" lon="1.83481">
        <ele>184.6</ele>
        <time>2026-01-13T11:39:22Z</time>
      </trkpt>
      <trkpt lat="48.6998" lon="1.83471">
        <ele>184.2</ele>
        <time>2026-01-13T11:39:23Z</time>
      </trkpt>
      <trkpt lat="48.69984" lon="1.83461">
        <ele>184.2</ele>
        <time>2026-01-13T11:39:24Z</time>
      </trkpt>
      <trkpt lat="48.69988" lon="1.83452">
        <ele>184.2</ele>
        <time>2026-01-13T11:39:25Z</time>
      </trkpt>
      <trkpt lat="48.69992" lon="1.83442">
        <ele>184.6</ele>
        <time>2026-01-13T11:39:26Z</time>
      </trkpt>
      <trkpt lat="48.69996" lon="1.83432">
        <ele>184.6</ele>
        <time>2026-01-13T11:39:27Z</time>
      </trkpt>
      <trkpt lat="48.7" lon="1.83423">
        <ele>184.6</ele>
        <time>2026-01-13T11:39:28Z</time>
      </trkpt>
      <trkpt lat="48.70004" lon="1.83413">
        <ele>184.2</ele>
        <time>2026-01-13T11:39:29Z</time>
      </trkpt>
      <trkpt lat="48.70007" lon="1.83403">
        <ele>184.2</ele>
        <time>2026-01-13T11:39:30Z</time>
      </trkpt>
      <trkpt lat="48.7001" lon="1.83394">
        <ele>184.2</ele>
        <time>2026-01-13T11:39:31Z</time>
      </trkpt>
      <trkpt lat="48.70013" lon="1.83384">
        <ele>185</ele>
        <time>2026-01-13T11:39:32Z</time>
      </trkpt>
      <trkpt lat="48.70016" lon="1.83374">
        <ele>185</ele>
        <time>2026-01-13T11:39:33Z</time>
      </trkpt>
      <trkpt lat="48.70019" lon="1.83365">
        <ele>185</ele>
        <time>2026-01-13T11:39:34Z</time>
      </trkpt>
      <trkpt lat="48.70022" lon="1.83355">
        <ele>185</ele>
        <time>2026-01-13T11:39:35Z</time>
      </trkpt>
      <trkpt lat="48.70025" lon="1.83345">
        <ele>185.2</ele>
        <time>2026-01-13T11:39:36Z</time>
      </trkpt>
      <trkpt lat="48.70028" lon="1.83336">
        <ele>185.4</ele>
        <time>2026-01-13T11:39:37Z</time>
      </trkpt>
      <trkpt lat="48.70031" lon="1.83326">
        <ele>186.2</ele>
        <time>2026-01-13T11:39:38Z</time>
      </trkpt>
      <trkpt lat="48.70034" lon="1.83316">
        <ele>186.2</ele>
        <time>2026-01-13T11:39:39Z</time>
      </trkpt>
      <trkpt lat="48.70037" lon="1.83306">
        <ele>186.2</ele>
        <time>2026-01-13T11:39:40Z</time>
      </trkpt>
      <trkpt lat="48.7004" lon="1.83296">
        <ele>185.4</ele>
        <time>2026-01-13T11:39:41Z</time>
      </trkpt>
      <trkpt lat="48.70043" lon="1.83286">
        <ele>185.4</ele>
        <time>2026-01-13T11:39:42Z</time>
      </trkpt>
      <trkpt lat="48.70047" lon="1.83277">
        <ele>185.4</ele>
        <time>2026-01-13T11:39:43Z</time>
      </trkpt>
      <trkpt lat="48.7005" lon="1.83267">
        <ele>185.4</ele>
        <time>2026-01-13T11:39:44Z</time>
      </trkpt>
      <trkpt lat="48.70053" lon="1.83257">
        <ele>185.4</ele>
        <time>2026-01-13T11:39:45Z</time>
      </trkpt>
      <trkpt lat="48.70056" lon="1.83247">
        <ele>185.4</ele>
        <time>2026-01-13T11:39:46Z</time>
      </trkpt>
      <trkpt lat="48.7006" lon="1.83237">
        <ele>185.8</ele>
        <time>2026-01-13T11:39:47Z</time>
      </trkpt>
      <trkpt lat="48.70063" lon="1.83227">
        <ele>186</ele>
        <time>2026-01-13T11:39:48Z</time>
      </trkpt>
      <trkpt lat="48.70067" lon="1.83217">
        <ele>186</ele>
        <time>2026-01-13T11:39:49Z</time>
      </trkpt>
      <trkpt lat="48.7007" lon="1.83208">
        <ele>186</ele>
        <time>2026-01-13T11:39:50Z</time>
      </trkpt>
      <trkpt lat="48.70074" lon="1.83198">
        <ele>186</ele>
        <time>2026-01-13T11:39:51Z</time>
      </trkpt>
      <trkpt lat="48.70078" lon="1.83189">
        <ele>186</ele>
        <time>2026-01-13T11:39:52Z</time>
      </trkpt>
      <trkpt lat="48.70081" lon="1.83179">
        <ele>186</ele>
        <time>2026-01-13T11:39:53Z</time>
      </trkpt>
      <trkpt lat="48.70085" lon="1.8317">
        <ele>186</ele>
        <time>2026-01-13T11:39:54Z</time>
      </trkpt>
      <trkpt lat="48.70089" lon="1.8316">
        <ele>186</ele>
        <time>2026-01-13T11:39:55Z</time>
      </trkpt>
      <trkpt lat="48.70093" lon="1.8315">
        <ele>186.2</ele>
        <time>2026-01-13T11:39:56Z</time>
      </trkpt>
      <trkpt lat="48.70096" lon="1.83141">
        <ele>186.2</ele>
        <time>2026-01-13T11:39:57Z</time>
      </trkpt>
      <trkpt lat="48.701" lon="1.83131">
        <ele>186.6</ele>
        <time>2026-01-13T11:39:58Z</time>
      </trkpt>
      <trkpt lat="48.70104" lon="1.83122">
        <ele>186.6</ele>
        <time>2026-01-13T11:39:59Z</time>
      </trkpt>
      <trkpt lat="48.70107" lon="1.83112">
        <ele>186.6</ele>
        <time>2026-01-13T11:40:00Z</time>
      </trkpt>
      <trkpt lat="48.70111" lon="1.83103">
        <ele>186</ele>
        <time>2026-01-13T11:40:01Z</time>
      </trkpt>
      <trkpt lat="48.70115" lon="1.83093">
        <ele>186</ele>
        <time>2026-01-13T11:40:02Z</time>
      </trkpt>
      <trkpt lat="48.70118" lon="1.83084">
        <ele>186</ele>
        <time>2026-01-13T11:40:03Z</time>
      </trkpt>
      <trkpt lat="48.70122" lon="1.83074">
        <ele>186</ele>
        <time>2026-01-13T11:40:04Z</time>
      </trkpt>
      <trkpt lat="48.70126" lon="1.83064">
        <ele>186</ele>
        <time>2026-01-13T11:40:05Z</time>
      </trkpt>
      <trkpt lat="48.70129" lon="1.83055">
        <ele>186</ele>
        <time>2026-01-13T11:40:06Z</time>
      </trkpt>
      <trkpt lat="48.70133" lon="1.83045">
        <ele>186</ele>
        <time>2026-01-13T11:40:07Z</time>
      </trkpt>
      <trkpt lat="48.70136" lon="1.83035">
        <ele>186</ele>
        <time>2026-01-13T11:40:08Z</time>
      </trkpt>
      <trkpt lat="48.70139" lon="1.83026">
        <ele>186</ele>
        <time>2026-01-13T11:40:09Z</time>
      </trkpt>
      <trkpt lat="48.70143" lon="1.83016">
        <ele>186</ele>
        <time>2026-01-13T11:40:10Z</time>
      </trkpt>
      <trkpt lat="48.70146" lon="1.83006">
        <ele>186</ele>
        <time>2026-01-13T11:40:11Z</time>
      </trkpt>
      <trkpt lat="48.70149" lon="1.82996">
        <ele>186</ele>
        <time>2026-01-13T11:40:12Z</time>
      </trkpt>
      <trkpt lat="48.70152" lon="1.82986">
        <ele>185.2</ele>
        <time>2026-01-13T11:40:13Z</time>
      </trkpt>
      <trkpt lat="48.70155" lon="1.82976">
        <ele>185.2</ele>
        <time>2026-01-13T11:40:14Z</time>
      </trkpt>
      <trkpt lat="48.70158" lon="1.82965">
        <ele>185.2</ele>
        <time>2026-01-13T11:40:15Z</time>
      </trkpt>
      <trkpt lat="48.70161" lon="1.82955">
        <ele>185.2</ele>
        <time>2026-01-13T11:40:16Z</time>
      </trkpt>
      <trkpt lat="48.70164" lon="1.82945">
        <ele>185.2</ele>
        <time>2026-01-13T11:40:17Z</time>
      </trkpt>
      <trkpt lat="48.70166" lon="1.82935">
        <ele>185.2</ele>
        <time>2026-01-13T11:40:18Z</time>
      </trkpt>
      <trkpt lat="48.70169" lon="1.82925">
        <ele>185.6</ele>
        <time>2026-01-13T11:40:19Z</time>
      </trkpt>
      <trkpt lat="48.70171" lon="1.82914">
        <ele>185.8</ele>
        <time>2026-01-13T11:40:20Z</time>
      </trkpt>
      <trkpt lat="48.70174" lon="1.82904">
        <ele>185.8</ele>
        <time>2026-01-13T11:40:21Z</time>
      </trkpt>
      <trkpt lat="48.70176" lon="1.82894">
        <ele>185.8</ele>
        <time>2026-01-13T11:40:22Z</time>
      </trkpt>
      <trkpt lat="48.70179" lon="1.82884">
        <ele>185.4</ele>
        <time>2026-01-13T11:40:23Z</time>
      </trkpt>
      <trkpt lat="48.70181" lon="1.82874">
        <ele>185.4</ele>
        <time>2026-01-13T11:40:24Z</time>
      </trkpt>
      <trkpt lat="48.70183" lon="1.82865">
        <ele>185.4</ele>
        <time>2026-01-13T11:40:25Z</time>
      </trkpt>
      <trkpt lat="48.70186" lon="1.82855">
        <ele>186.2</ele>
        <time>2026-01-13T11:40:26Z</time>
      </trkpt>
      <trkpt lat="48.70188" lon="1.82845">
        <ele>186.4</ele>
        <time>2026-01-13T11:40:27Z</time>
      </trkpt>
      <trkpt lat="48.70191" lon="1.82835">
        <ele>186.4</ele>
        <time>2026-01-13T11:40:28Z</time>
      </trkpt>
      <trkpt lat="48.70193" lon="1.82825">
        <ele>186.4</ele>
        <time>2026-01-13T11:40:29Z</time>
      </trkpt>
      <trkpt lat="48.70195" lon="1.82816">
        <ele>185.8</ele>
        <time>2026-01-13T11:40:30Z</time>
      </trkpt>
      <trkpt lat="48.70198" lon="1.82806">
        <ele>185.8</ele>
        <time>2026-01-13T11:40:31Z</time>
      </trkpt>
      <trkpt lat="48.702" lon="1.82797">
        <ele>185.8</ele>
        <time>2026-01-13T11:40:32Z</time>
      </trkpt>
      <trkpt lat="48.70202" lon="1.82787">
        <ele>186.8</ele>
        <time>2026-01-13T11:40:33Z</time>
      </trkpt>
      <trkpt lat="48.70205" lon="1.82777">
        <ele>186.8</ele>
        <time>2026-01-13T11:40:34Z</time>
      </trkpt>
      <trkpt lat="48.70207" lon="1.82768">
        <ele>186.8</ele>
        <time>2026-01-13T11:40:35Z</time>
      </trkpt>
      <trkpt lat="48.7021" lon="1.82758">
        <ele>185.8</ele>
        <time>2026-01-13T11:40:36Z</time>
      </trkpt>
      <trkpt lat="48.70212" lon="1.82749">
        <ele>185.2</ele>
        <time>2026-01-13T11:40:37Z</time>
      </trkpt>
      <trkpt lat="48.70215" lon="1.82739">
        <ele>185.2</ele>
        <time>2026-01-13T11:40:38Z</time>
      </trkpt>
      <trkpt lat="48.70217" lon="1.8273">
        <ele>185.2</ele>
        <time>2026-01-13T11:40:39Z</time>
      </trkpt>
      <trkpt lat="48.7022" lon="1.8272">
        <ele>185.4</ele>
        <time>2026-01-13T11:40:40Z</time>
      </trkpt>
      <trkpt lat="48.70222" lon="1.82711">
        <ele>186.4</ele>
        <time>2026-01-13T11:40:41Z</time>
      </trkpt>
      <trkpt lat="48.70224" lon="1.82701">
        <ele>187.4</ele>
        <time>2026-01-13T11:40:42Z</time>
      </trkpt>
      <trkpt lat="48.70227" lon="1.82692">
        <ele>187.4</ele>
        <time>2026-01-13T11:40:43Z</time>
      </trkpt>
      <trkpt lat="48.70229" lon="1.82682">
        <ele>187.4</ele>
        <time>2026-01-13T11:40:44Z</time>
      </trkpt>
      <trkpt lat="48.70232" lon="1.82673">
        <ele>186.4</ele>
        <time>2026-01-13T11:40:45Z</time>
      </trkpt>
      <trkpt lat="48.70234" lon="1.82663">
        <ele>186.4</ele>
        <time>2026-01-13T11:40:46Z</time>
      </trkpt>
      <trkpt lat="48.70236" lon="1.82653">
        <ele>186.4</ele>
        <time>2026-01-13T11:40:47Z</time>
      </trkpt>
      <trkpt lat="48.70238" lon="1.82643">
        <ele>186.4</ele>
        <time>2026-01-13T11:40:48Z</time>
      </trkpt>
      <trkpt lat="48.70241" lon="1.82634">
        <ele>186.8</ele>
        <time>2026-01-13T11:40:49Z</time>
      </trkpt>
      <trkpt lat="48.70243" lon="1.82624">
        <ele>186.8</ele>
        <time>2026-01-13T11:40:50Z</time>
      </trkpt>
      <trkpt lat="48.70245" lon="1.82614">
        <ele>186.8</ele>
        <time>2026-01-13T11:40:51Z</time>
      </trkpt>
      <trkpt lat="48.70247" lon="1.82604">
        <ele>186.8</ele>
        <time>2026-01-13T11:40:52Z</time>
      </trkpt>
      <trkpt lat="48.70249" lon="1.82593">
        <ele>186.8</ele>
        <time>2026-01-13T11:40:53Z</time>
      </trkpt>
      <trkpt lat="48.7025" lon="1.82582">
        <ele>186.8</ele>
        <time>2026-01-13T11:40:54Z</time>
      </trkpt>
      <trkpt lat="48.70252" lon="1.82571">
        <ele>187.8</ele>
        <time>2026-01-13T11:40:55Z</time>
      </trkpt>
      <trkpt lat="48.70254" lon="1.8256">
        <ele>187.8</ele>
        <time>2026-01-13T11:40:56Z</time>
      </trkpt>
      <trkpt lat="48.70255" lon="1.82549">
        <ele>187.8</ele>
        <time>2026-01-13T11:40:57Z</time>
      </trkpt>
      <trkpt lat="48.70257" lon="1.82538">
        <ele>186.8</ele>
        <time>2026-01-13T11:40:58Z</time>
      </trkpt>
      <trkpt lat="48.70258" lon="1.82528">
        <ele>185.8</ele>
        <time>2026-01-13T11:40:59Z</time>
      </trkpt>
      <trkpt lat="48.70259" lon="1.82517">
        <ele>185.6</ele>
        <time>2026-01-13T11:41:00Z</time>
      </trkpt>
      <trkpt lat="48.7026" lon="1.82507">
        <ele>185.6</ele>
        <time>2026-01-13T11:41:01Z</time>
      </trkpt>
      <trkpt lat="48.70261" lon="1.82496">
        <ele>185.6</ele>
        <time>2026-01-13T11:41:02Z</time>
      </trkpt>
      <trkpt lat="48.70262" lon="1.82486">
        <ele>186</ele>
        <time>2026-01-13T11:41:03Z</time>
      </trkpt>
      <trkpt lat="48.70263" lon="1.82476">
        <ele>186.8</ele>
        <time>2026-01-13T11:41:04Z</time>
      </trkpt>
      <trkpt lat="48.70264" lon="1.82466">
        <ele>186.8</ele>
        <time>2026-01-13T11:41:05Z</time>
      </trkpt>
      <trkpt lat="48.70265" lon="1.82456">
        <ele>186.8</ele>
        <time>2026-01-13T11:41:06Z</time>
      </trkpt>
      <trkpt lat="48.70266" lon="1.82446">
        <ele>186.8</ele>
        <time>2026-01-13T11:41:07Z</time>
      </trkpt>
      <trkpt lat="48.70267" lon="1.82436">
        <ele>186.8</ele>
        <time>2026-01-13T11:41:08Z</time>
      </trkpt>
      <trkpt lat="48.70268" lon="1.82425">
        <ele>185.8</ele>
        <time>2026-01-13T11:41:09Z</time>
      </trkpt>
      <trkpt lat="48.70269" lon="1.82416">
        <ele>185.8</ele>
        <time>2026-01-13T11:41:10Z</time>
      </trkpt>
      <trkpt lat="48.70271" lon="1.82405">
        <ele>185.8</ele>
        <time>2026-01-13T11:41:11Z</time>
      </trkpt>
      <trkpt lat="48.70272" lon="1.82395">
        <ele>186.2</ele>
        <time>2026-01-13T11:41:12Z</time>
      </trkpt>
      <trkpt lat="48.70272" lon="1.82385">
        <ele>187.2</ele>
        <time>2026-01-13T11:41:13Z</time>
      </trkpt>
      <trkpt lat="48.70273" lon="1.82375">
        <ele>187.2</ele>
        <time>2026-01-13T11:41:14Z</time>
      </trkpt>
      <trkpt lat="48.70274" lon="1.82365">
        <ele>187.2</ele>
        <time>2026-01-13T11:41:15Z</time>
      </trkpt>
      <trkpt lat="48.70275" lon="1.82354">
        <ele>187.2</ele>
        <time>2026-01-13T11:41:16Z</time>
      </trkpt>
      <trkpt lat="48.70276" lon="1.82344">
        <ele>187.2</ele>
        <time>2026-01-13T11:41:17Z</time>
      </trkpt>
      <trkpt lat="48.70278" lon="1.82333">
        <ele>187.2</ele>
        <time>2026-01-13T11:41:18Z</time>
      </trkpt>
      <trkpt lat="48.70279" lon="1.82323">
        <ele>186.2</ele>
        <time>2026-01-13T11:41:19Z</time>
      </trkpt>
      <trkpt lat="48.70281" lon="1.82312">
        <ele>186.2</ele>
        <time>2026-01-13T11:41:20Z</time>
      </trkpt>
      <trkpt lat="48.70283" lon="1.82301">
        <ele>186.2</ele>
        <time>2026-01-13T11:41:21Z</time>
      </trkpt>
      <trkpt lat="48.70285" lon="1.82291">
        <ele>186.2</ele>
        <time>2026-01-13T11:41:22Z</time>
      </trkpt>
      <trkpt lat="48.70287" lon="1.8228">
        <ele>186.2</ele>
        <time>2026-01-13T11:41:23Z</time>
      </trkpt>
      <trkpt lat="48.70289" lon="1.82269">
        <ele>186.2</ele>
        <time>2026-01-13T11:41:24Z</time>
      </trkpt>
      <trkpt lat="48.70291" lon="1.82258">
        <ele>186.2</ele>
        <time>2026-01-13T11:41:25Z</time>
      </trkpt>
      <trkpt lat="48.70294" lon="1.82248">
        <ele>186.2</ele>
        <time>2026-01-13T11:41:26Z</time>
      </trkpt>
      <trkpt lat="48.70297" lon="1.82237">
        <ele>186.8</ele>
        <time>2026-01-13T11:41:27Z</time>
      </trkpt>
      <trkpt lat="48.703" lon="1.82227">
        <ele>186.8</ele>
        <time>2026-01-13T11:41:28Z</time>
      </trkpt>
      <trkpt lat="48.70303" lon="1.82217">
        <ele>186.8</ele>
        <time>2026-01-13T11:41:29Z</time>
      </trkpt>
      <trkpt lat="48.70307" lon="1.82206">
        <ele>186.8</ele>
        <time>2026-01-13T11:41:30Z</time>
      </trkpt>
      <trkpt lat="48.7031" lon="1.82196">
        <ele>186.8</ele>
        <time>2026-01-13T11:41:31Z</time>
      </trkpt>
      <trkpt lat="48.70314" lon="1.82186">
        <ele>185.8</ele>
        <time>2026-01-13T11:41:32Z</time>
      </trkpt>
      <trkpt lat="48.70318" lon="1.82176">
        <ele>185.8</ele>
        <time>2026-01-13T11:41:33Z</time>
      </trkpt>
      <trkpt lat="48.70321" lon="1.82165">
        <ele>185.8</ele>
        <time>2026-01-13T11:41:34Z</time>
      </trkpt>
      <trkpt lat="48.70325" lon="1.82155">
        <ele>185.8</ele>
        <time>2026-01-13T11:41:35Z</time>
      </trkpt>
      <trkpt lat="48.70329" lon="1.82145">
        <ele>185.8</ele>
        <time>2026-01-13T11:41:36Z</time>
      </trkpt>
      <trkpt lat="48.70332" lon="1.82135">
        <ele>185.6</ele>
        <time>2026-01-13T11:41:37Z</time>
      </trkpt>
      <trkpt lat="48.70336" lon="1.82125">
        <ele>185.6</ele>
        <time>2026-01-13T11:41:38Z</time>
      </trkpt>
      <trkpt lat="48.7034" lon="1.82114">
        <ele>185.6</ele>
        <time>2026-01-13T11:41:39Z</time>
      </trkpt>
      <trkpt lat="48.70343" lon="1.82104">
        <ele>185.6</ele>
        <time>2026-01-13T11:41:40Z</time>
      </trkpt>
      <trkpt lat="48.70347" lon="1.82094">
        <ele>185.6</ele>
        <time>2026-01-13T11:41:41Z</time>
      </trkpt>
      <trkpt lat="48.70351" lon="1.82084">
        <ele>186.2</ele>
        <time>2026-01-13T11:41:42Z</time>
      </trkpt>
      <trkpt lat="48.70355" lon="1.82073">
        <ele>186.2</ele>
        <time>2026-01-13T11:41:43Z</time>
      </trkpt>
      <trkpt lat="48.70359" lon="1.82065">
        <ele>186.2</ele>
        <time>2026-01-13T11:41:44Z</time>
      </trkpt>
      <trkpt lat="48.70363" lon="1.82056">
        <ele>185.8</ele>
        <time>2026-01-13T11:41:45Z</time>
      </trkpt>
      <trkpt lat="48.70367" lon="1.82047">
        <ele>185.8</ele>
        <time>2026-01-13T11:41:46Z</time>
      </trkpt>
      <trkpt lat="48.70371" lon="1.82038">
        <ele>185.8</ele>
        <time>2026-01-13T11:41:47Z</time>
      </trkpt>
      <trkpt lat="48.70375" lon="1.82029">
        <ele>186.8</ele>
        <time>2026-01-13T11:41:48Z</time>
      </trkpt>
      <trkpt lat="48.70379" lon="1.8202">
        <ele>186.8</ele>
        <time>2026-01-13T11:41:49Z</time>
      </trkpt>
      <trkpt lat="48.70383" lon="1.8201">
        <ele>186.8</ele>
        <time>2026-01-13T11:41:50Z</time>
      </trkpt>
      <trkpt lat="48.70387" lon="1.82001">
        <ele>185.8</ele>
        <time>2026-01-13T11:41:51Z</time>
      </trkpt>
      <trkpt lat="48.70391" lon="1.81992">
        <ele>185.8</ele>
        <time>2026-01-13T11:41:52Z</time>
      </trkpt>
      <trkpt lat="48.70395" lon="1.81985">
        <ele>185.8</ele>
        <time>2026-01-13T11:41:53Z</time>
      </trkpt>
      <trkpt lat="48.70399" lon="1.81976">
        <ele>185.8</ele>
        <time>2026-01-13T11:41:54Z</time>
      </trkpt>
      <trkpt lat="48.70402" lon="1.81968">
        <ele>185.8</ele>
        <time>2026-01-13T11:41:55Z</time>
      </trkpt>
      <trkpt lat="48.70406" lon="1.81959">
        <ele>185.8</ele>
        <time>2026-01-13T11:41:56Z</time>
      </trkpt>
      <trkpt lat="48.70409" lon="1.81949">
        <ele>185.8</ele>
        <time>2026-01-13T11:41:57Z</time>
      </trkpt>
      <trkpt lat="48.70413" lon="1.8194">
        <ele>185.4</ele>
        <time>2026-01-13T11:41:58Z</time>
      </trkpt>
      <trkpt lat="48.70417" lon="1.81932">
        <ele>185.4</ele>
        <time>2026-01-13T11:41:59Z</time>
      </trkpt>
      <trkpt lat="48.70421" lon="1.81923">
        <ele>185.4</ele>
        <time>2026-01-13T11:42:00Z</time>
      </trkpt>
      <trkpt lat="48.70424" lon="1.81914">
        <ele>185.4</ele>
        <time>2026-01-13T11:42:01Z</time>
      </trkpt>
      <trkpt lat="48.70427" lon="1.81905">
        <ele>184.6</ele>
        <time>2026-01-13T11:42:02Z</time>
      </trkpt>
      <trkpt lat="48.70431" lon="1.81896">
        <ele>184.2</ele>
        <time>2026-01-13T11:42:03Z</time>
      </trkpt>
      <trkpt lat="48.70435" lon="1.81886">
        <ele>184.2</ele>
        <time>2026-01-13T11:42:04Z</time>
      </trkpt>
      <trkpt lat="48.70438" lon="1.81876">
        <ele>184.2</ele>
        <time>2026-01-13T11:42:05Z</time>
      </trkpt>
      <trkpt lat="48.7044" lon="1.81868">
        <ele>185</ele>
        <time>2026-01-13T11:42:06Z</time>
      </trkpt>
      <trkpt lat="48.70444" lon="1.8186">
        <ele>185.8</ele>
        <time>2026-01-13T11:42:07Z</time>
      </trkpt>
      <trkpt lat="48.70446" lon="1.81852">
        <ele>185.8</ele>
        <time>2026-01-13T11:42:08Z</time>
      </trkpt>
      <trkpt lat="48.70449" lon="1.81843">
        <ele>185.8</ele>
        <time>2026-01-13T11:42:09Z</time>
      </trkpt>
      <trkpt lat="48.70452" lon="1.81834">
        <ele>185.8</ele>
        <time>2026-01-13T11:42:10Z</time>
      </trkpt>
      <trkpt lat="48.70455" lon="1.81824">
        <ele>186.6</ele>
        <time>2026-01-13T11:42:11Z</time>
      </trkpt>
      <trkpt lat="48.70458" lon="1.81816">
        <ele>186.6</ele>
        <time>2026-01-13T11:42:12Z</time>
      </trkpt>
      <trkpt lat="48.70461" lon="1.81807">
        <ele>186.6</ele>
        <time>2026-01-13T11:42:13Z</time>
      </trkpt>
      <trkpt lat="48.70464" lon="1.81798">
        <ele>186.6</ele>
        <time>2026-01-13T11:42:14Z</time>
      </trkpt>
      <trkpt lat="48.70468" lon="1.81789">
        <ele>186.6</ele>
        <time>2026-01-13T11:42:15Z</time>
      </trkpt>
      <trkpt lat="48.70471" lon="1.8178">
        <ele>186.6</ele>
        <time>2026-01-13T11:42:16Z</time>
      </trkpt>
      <trkpt lat="48.70474" lon="1.8177">
        <ele>186.4</ele>
        <time>2026-01-13T11:42:17Z</time>
      </trkpt>
      <trkpt lat="48.70478" lon="1.8176">
        <ele>186</ele>
        <time>2026-01-13T11:42:18Z</time>
      </trkpt>
      <trkpt lat="48.70481" lon="1.81751">
        <ele>186</ele>
        <time>2026-01-13T11:42:19Z</time>
      </trkpt>
      <trkpt lat="48.70485" lon="1.81742">
        <ele>186</ele>
        <time>2026-01-13T11:42:20Z</time>
      </trkpt>
      <trkpt lat="48.70488" lon="1.81733">
        <ele>186.2</ele>
        <time>2026-01-13T11:42:21Z</time>
      </trkpt>
      <trkpt lat="48.70492" lon="1.81722">
        <ele>186.2</ele>
        <time>2026-01-13T11:42:22Z</time>
      </trkpt>
      <trkpt lat="48.70495" lon="1.81712">
        <ele>186.2</ele>
        <time>2026-01-13T11:42:23Z</time>
      </trkpt>
      <trkpt lat="48.70498" lon="1.81703">
        <ele>186.2</ele>
        <time>2026-01-13T11:42:24Z</time>
      </trkpt>
      <trkpt lat="48.70502" lon="1.81693">
        <ele>186.2</ele>
        <time>2026-01-13T11:42:25Z</time>
      </trkpt>
      <trkpt lat="48.70505" lon="1.81683">
        <ele>186.2</ele>
        <time>2026-01-13T11:42:26Z</time>
      </trkpt>
      <trkpt lat="48.70509" lon="1.81673">
        <ele>186.2</ele>
        <time>2026-01-13T11:42:27Z</time>
      </trkpt>
      <trkpt lat="48.70512" lon="1.81664">
        <ele>186.2</ele>
        <time>2026-01-13T11:42:28Z</time>
      </trkpt>
      <trkpt lat="48.70516" lon="1.81652">
        <ele>186.2</ele>
        <time>2026-01-13T11:42:29Z</time>
      </trkpt>
      <trkpt lat="48.70519" lon="1.81642">
        <ele>186.2</ele>
        <time>2026-01-13T11:42:30Z</time>
      </trkpt>
      <trkpt lat="48.70523" lon="1.81631">
        <ele>186.2</ele>
        <time>2026-01-13T11:42:31Z</time>
      </trkpt>
      <trkpt lat="48.70526" lon="1.81621">
        <ele>186.2</ele>
        <time>2026-01-13T11:42:32Z</time>
      </trkpt>
      <trkpt lat="48.70529" lon="1.8161">
        <ele>186.2</ele>
        <time>2026-01-13T11:42:33Z</time>
      </trkpt>
      <trkpt lat="48.70532" lon="1.81599">
        <ele>186.2</ele>
        <time>2026-01-13T11:42:34Z</time>
      </trkpt>
      <trkpt lat="48.70536" lon="1.81588">
        <ele>186.2</ele>
        <time>2026-01-13T11:42:35Z</time>
      </trkpt>
      <trkpt lat="48.70539" lon="1.81578">
        <ele>185.4</ele>
        <time>2026-01-13T11:42:36Z</time>
      </trkpt>
      <trkpt lat="48.70543" lon="1.81567">
        <ele>185.4</ele>
        <time>2026-01-13T11:42:37Z</time>
      </trkpt>
      <trkpt lat="48.70546" lon="1.81557">
        <ele>185.4</ele>
        <time>2026-01-13T11:42:38Z</time>
      </trkpt>
      <trkpt lat="48.7055" lon="1.81547">
        <ele>185.4</ele>
        <time>2026-01-13T11:42:39Z</time>
      </trkpt>
      <trkpt lat="48.70553" lon="1.81536">
        <ele>185.4</ele>
        <time>2026-01-13T11:42:40Z</time>
      </trkpt>
      <trkpt lat="48.70557" lon="1.81524">
        <ele>185.4</ele>
        <time>2026-01-13T11:42:41Z</time>
      </trkpt>
      <trkpt lat="48.70561" lon="1.81513">
        <ele>185.4</ele>
        <time>2026-01-13T11:42:42Z</time>
      </trkpt>
      <trkpt lat="48.70565" lon="1.81503">
        <ele>185.4</ele>
        <time>2026-01-13T11:42:43Z</time>
      </trkpt>
      <trkpt lat="48.70568" lon="1.81493">
        <ele>185.4</ele>
        <time>2026-01-13T11:42:44Z</time>
      </trkpt>
      <trkpt lat="48.70572" lon="1.81484">
        <ele>186.2</ele>
        <time>2026-01-13T11:42:45Z</time>
      </trkpt>
      <trkpt lat="48.70576" lon="1.81474">
        <ele>186.2</ele>
        <time>2026-01-13T11:42:46Z</time>
      </trkpt>
      <trkpt lat="48.70579" lon="1.81465">
        <ele>186.2</ele>
        <time>2026-01-13T11:42:47Z</time>
      </trkpt>
      <trkpt lat="48.70582" lon="1.81457">
        <ele>186.2</ele>
        <time>2026-01-13T11:42:48Z</time>
      </trkpt>
      <trkpt lat="48.70586" lon="1.81447">
        <ele>186.4</ele>
        <time>2026-01-13T11:42:49Z</time>
      </trkpt>
      <trkpt lat="48.70589" lon="1.81439">
        <ele>187</ele>
        <time>2026-01-13T11:42:50Z</time>
      </trkpt>
      <trkpt lat="48.70593" lon="1.81429">
        <ele>187</ele>
        <time>2026-01-13T11:42:51Z</time>
      </trkpt>
      <trkpt lat="48.70597" lon="1.8142">
        <ele>187</ele>
        <time>2026-01-13T11:42:52Z</time>
      </trkpt>
      <trkpt lat="48.706" lon="1.8141">
        <ele>186.2</ele>
        <time>2026-01-13T11:42:53Z</time>
      </trkpt>
      <trkpt lat="48.70603" lon="1.81401">
        <ele>186.2</ele>
        <time>2026-01-13T11:42:54Z</time>
      </trkpt>
      <trkpt lat="48.70607" lon="1.8139">
        <ele>186.2</ele>
        <time>2026-01-13T11:42:55Z</time>
      </trkpt>
      <trkpt lat="48.7061" lon="1.8138">
        <ele>186.2</ele>
        <time>2026-01-13T11:42:56Z</time>
      </trkpt>
      <trkpt lat="48.70614" lon="1.81369">
        <ele>186.2</ele>
        <time>2026-01-13T11:42:57Z</time>
      </trkpt>
      <trkpt lat="48.70617" lon="1.81357">
        <ele>186.2</ele>
        <time>2026-01-13T11:42:58Z</time>
      </trkpt>
      <trkpt lat="48.70621" lon="1.81346">
        <ele>186.2</ele>
        <time>2026-01-13T11:42:59Z</time>
      </trkpt>
      <trkpt lat="48.70625" lon="1.81335">
        <ele>186.6</ele>
        <time>2026-01-13T11:43:00Z</time>
      </trkpt>
      <trkpt lat="48.70628" lon="1.81324">
        <ele>186.6</ele>
        <time>2026-01-13T11:43:01Z</time>
      </trkpt>
      <trkpt lat="48.70632" lon="1.81314">
        <ele>186.6</ele>
        <time>2026-01-13T11:43:02Z</time>
      </trkpt>
      <trkpt lat="48.70636" lon="1.81302">
        <ele>186.2</ele>
        <time>2026-01-13T11:43:03Z</time>
      </trkpt>
      <trkpt lat="48.70643" lon="1.81296">
        <ele>186.2</ele>
        <time>2026-01-13T11:43:04Z</time>
      </trkpt>
      <trkpt lat="48.7065" lon="1.81293">
        <ele>186.2</ele>
        <time>2026-01-13T11:43:05Z</time>
      </trkpt>
      <trkpt lat="48.70657" lon="1.81294">
        <ele>186.2</ele>
        <time>2026-01-13T11:43:06Z</time>
      </trkpt>
      <trkpt lat="48.70663" lon="1.81296">
        <ele>186.2</ele>
        <time>2026-01-13T11:43:07Z</time>
      </trkpt>
      <trkpt lat="48.7067" lon="1.813">
        <ele>186.2</ele>
        <time>2026-01-13T11:43:08Z</time>
      </trkpt>
      <trkpt lat="48.70677" lon="1.81303">
        <ele>186.8</ele>
        <time>2026-01-13T11:43:09Z</time>
      </trkpt>
      <trkpt lat="48.70685" lon="1.81306">
        <ele>187</ele>
        <time>2026-01-13T11:43:10Z</time>
      </trkpt>
      <trkpt lat="48.70692" lon="1.8131">
        <ele>187</ele>
        <time>2026-01-13T11:43:11Z</time>
      </trkpt>
      <trkpt lat="48.707" lon="1.81314">
        <ele>187</ele>
        <time>2026-01-13T11:43:12Z</time>
      </trkpt>
      <trkpt lat="48.70707" lon="1.81318">
        <ele>186</ele>
        <time>2026-01-13T11:43:13Z</time>
      </trkpt>
      <trkpt lat="48.70715" lon="1.81321">
        <ele>185.2</ele>
        <time>2026-01-13T11:43:14Z</time>
      </trkpt>
      <trkpt lat="48.70723" lon="1.81324">
        <ele>185.2</ele>
        <time>2026-01-13T11:43:15Z</time>
      </trkpt>
      <trkpt lat="48.70731" lon="1.81327">
        <ele>185.2</ele>
        <time>2026-01-13T11:43:16Z</time>
      </trkpt>
      <trkpt lat="48.70738" lon="1.8133">
        <ele>186</ele>
        <time>2026-01-13T11:43:17Z</time>
      </trkpt>
      <trkpt lat="48.70746" lon="1.81335">
        <ele>186</ele>
        <time>2026-01-13T11:43:18Z</time>
      </trkpt>
      <trkpt lat="48.70753" lon="1.8134">
        <ele>186</ele>
        <time>2026-01-13T11:43:19Z</time>
      </trkpt>
      <trkpt lat="48.70761" lon="1.81344">
        <ele>185.4</ele>
        <time>2026-01-13T11:43:20Z</time>
      </trkpt>
      <trkpt lat="48.70768" lon="1.81349">
        <ele>185.4</ele>
        <time>2026-01-13T11:43:21Z</time>
      </trkpt>
      <trkpt lat="48.70776" lon="1.81353">
        <ele>185.4</ele>
        <time>2026-01-13T11:43:22Z</time>
      </trkpt>
      <trkpt lat="48.70783" lon="1.81357">
        <ele>185.4</ele>
        <time>2026-01-13T11:43:23Z</time>
      </trkpt>
      <trkpt lat="48.70791" lon="1.81361">
        <ele>184.8</ele>
        <time>2026-01-13T11:43:24Z</time>
      </trkpt>
      <trkpt lat="48.70798" lon="1.81365">
        <ele>184.8</ele>
        <time>2026-01-13T11:43:25Z</time>
      </trkpt>
      <trkpt lat="48.70806" lon="1.8137">
        <ele>184.8</ele>
        <time>2026-01-13T11:43:26Z</time>
      </trkpt>
      <trkpt lat="48.70813" lon="1.81374">
        <ele>184.8</ele>
        <time>2026-01-13T11:43:27Z</time>
      </trkpt>
      <trkpt lat="48.7082" lon="1.81378">
        <ele>184.8</ele>
        <time>2026-01-13T11:43:28Z</time>
      </trkpt>
      <trkpt lat="48.70827" lon="1.81382">
        <ele>184.6</ele>
        <time>2026-01-13T11:43:29Z</time>
      </trkpt>
      <trkpt lat="48.70835" lon="1.81386">
        <ele>184</ele>
        <time>2026-01-13T11:43:30Z</time>
      </trkpt>
      <trkpt lat="48.70842" lon="1.81391">
        <ele>184</ele>
        <time>2026-01-13T11:43:31Z</time>
      </trkpt>
      <trkpt lat="48.70849" lon="1.81395">
        <ele>184</ele>
        <time>2026-01-13T11:43:32Z</time>
      </trkpt>
      <trkpt lat="48.70856" lon="1.81399">
        <ele>185</ele>
        <time>2026-01-13T11:43:33Z</time>
      </trkpt>
      <trkpt lat="48.70864" lon="1.81404">
        <ele>185</ele>
        <time>2026-01-13T11:43:34Z</time>
      </trkpt>
      <trkpt lat="48.70871" lon="1.81408">
        <ele>185</ele>
        <time>2026-01-13T11:43:35Z</time>
      </trkpt>
      <trkpt lat="48.70878" lon="1.81412">
        <ele>184.6</ele>
        <time>2026-01-13T11:43:36Z</time>
      </trkpt>
      <trkpt lat="48.70886" lon="1.81417">
        <ele>184.4</ele>
        <time>2026-01-13T11:43:37Z</time>
      </trkpt>
      <trkpt lat="48.70893" lon="1.81421">
        <ele>184.2</ele>
        <time>2026-01-13T11:43:38Z</time>
      </trkpt>
      <trkpt lat="48.70901" lon="1.81425">
        <ele>184.2</ele>
        <time>2026-01-13T11:43:39Z</time>
      </trkpt>
      <trkpt lat="48.70908" lon="1.8143">
        <ele>184.2</ele>
        <time>2026-01-13T11:43:40Z</time>
      </trkpt>
      <trkpt lat="48.70916" lon="1.81435">
        <ele>184.4</ele>
        <time>2026-01-13T11:43:41Z</time>
      </trkpt>
      <trkpt lat="48.70923" lon="1.8144">
        <ele>184.4</ele>
        <time>2026-01-13T11:43:42Z</time>
      </trkpt>
      <trkpt lat="48.70931" lon="1.81445">
        <ele>184.4</ele>
        <time>2026-01-13T11:43:43Z</time>
      </trkpt>
      <trkpt lat="48.70938" lon="1.8145">
        <ele>183.8</ele>
        <time>2026-01-13T11:43:44Z</time>
      </trkpt>
      <trkpt lat="48.70946" lon="1.81456">
        <ele>183.8</ele>
        <time>2026-01-13T11:43:45Z</time>
      </trkpt>
      <trkpt lat="48.70954" lon="1.81461">
        <ele>183.8</ele>
        <time>2026-01-13T11:43:46Z</time>
      </trkpt>
      <trkpt lat="48.70961" lon="1.81466">
        <ele>183.8</ele>
        <time>2026-01-13T11:43:47Z</time>
      </trkpt>
      <trkpt lat="48.70969" lon="1.81471">
        <ele>183.8</ele>
        <time>2026-01-13T11:43:48Z</time>
      </trkpt>
      <trkpt lat="48.70976" lon="1.81476">
        <ele>183.6</ele>
        <time>2026-01-13T11:43:49Z</time>
      </trkpt>
      <trkpt lat="48.70983" lon="1.81481">
        <ele>183.6</ele>
        <time>2026-01-13T11:43:50Z</time>
      </trkpt>
      <trkpt lat="48.7099" lon="1.81486">
        <ele>183.6</ele>
        <time>2026-01-13T11:43:51Z</time>
      </trkpt>
      <trkpt lat="48.70997" lon="1.81491">
        <ele>183.6</ele>
        <time>2026-01-13T11:43:52Z</time>
      </trkpt>
      <trkpt lat="48.71005" lon="1.81496">
        <ele>184.2</ele>
        <time>2026-01-13T11:43:53Z</time>
      </trkpt>
      <trkpt lat="48.71012" lon="1.81501">
        <ele>184.2</ele>
        <time>2026-01-13T11:43:54Z</time>
      </trkpt>
      <trkpt lat="48.71019" lon="1.81507">
        <ele>184.2</ele>
        <time>2026-01-13T11:43:55Z</time>
      </trkpt>
      <trkpt lat="48.71027" lon="1.81512">
        <ele>183.2</ele>
        <time>2026-01-13T11:43:56Z</time>
      </trkpt>
      <trkpt lat="48.71034" lon="1.81518">
        <ele>183.2</ele>
        <time>2026-01-13T11:43:57Z</time>
      </trkpt>
      <trkpt lat="48.71042" lon="1.81523">
        <ele>183.2</ele>
        <time>2026-01-13T11:43:58Z</time>
      </trkpt>
      <trkpt lat="48.7105" lon="1.81528">
        <ele>184.2</ele>
        <time>2026-01-13T11:43:59Z</time>
      </trkpt>
      <trkpt lat="48.71057" lon="1.81534">
        <ele>184.2</ele>
        <time>2026-01-13T11:44:00Z</time>
      </trkpt>
      <trkpt lat="48.71065" lon="1.8154">
        <ele>184.2</ele>
        <time>2026-01-13T11:44:01Z</time>
      </trkpt>
      <trkpt lat="48.71072" lon="1.81545">
        <ele>183.6</ele>
        <time>2026-01-13T11:44:02Z</time>
      </trkpt>
      <trkpt lat="48.7108" lon="1.81551">
        <ele>183.4</ele>
        <time>2026-01-13T11:44:03Z</time>
      </trkpt>
      <trkpt lat="48.71087" lon="1.81557">
        <ele>183.4</ele>
        <time>2026-01-13T11:44:04Z</time>
      </trkpt>
      <trkpt lat="48.71095" lon="1.81564">
        <ele>183.4</ele>
        <time>2026-01-13T11:44:05Z</time>
      </trkpt>
      <trkpt lat="48.71102" lon="1.8157">
        <ele>184</ele>
        <time>2026-01-13T11:44:06Z</time>
      </trkpt>
      <trkpt lat="48.7111" lon="1.81576">
        <ele>184</ele>
        <time>2026-01-13T11:44:07Z</time>
      </trkpt>
      <trkpt lat="48.71118" lon="1.81583">
        <ele>184</ele>
        <time>2026-01-13T11:44:08Z</time>
      </trkpt>
      <trkpt lat="48.71125" lon="1.81589">
        <ele>184</ele>
        <time>2026-01-13T11:44:09Z</time>
      </trkpt>
      <trkpt lat="48.71133" lon="1.81595">
        <ele>184</ele>
        <time>2026-01-13T11:44:10Z</time>
      </trkpt>
      <trkpt lat="48.71141" lon="1.81601">
        <ele>184</ele>
        <time>2026-01-13T11:44:11Z</time>
      </trkpt>
      <trkpt lat="48.71148" lon="1.81608">
        <ele>183.8</ele>
        <time>2026-01-13T11:44:12Z</time>
      </trkpt>
      <trkpt lat="48.71155" lon="1.81614">
        <ele>183.8</ele>
        <time>2026-01-13T11:44:13Z</time>
      </trkpt>
      <trkpt lat="48.71162" lon="1.81621">
        <ele>183.8</ele>
        <time>2026-01-13T11:44:14Z</time>
      </trkpt>
      <trkpt lat="48.71169" lon="1.81628">
        <ele>183.8</ele>
        <time>2026-01-13T11:44:15Z</time>
      </trkpt>
      <trkpt lat="48.71176" lon="1.81635">
        <ele>183.8</ele>
        <time>2026-01-13T11:44:16Z</time>
      </trkpt>
      <trkpt lat="48.71182" lon="1.81643">
        <ele>184.6</ele>
        <time>2026-01-13T11:44:17Z</time>
      </trkpt>
      <trkpt lat="48.71188" lon="1.8165">
        <ele>185.2</ele>
        <time>2026-01-13T11:44:18Z</time>
      </trkpt>
      <trkpt lat="48.71195" lon="1.81658">
        <ele>185.2</ele>
        <time>2026-01-13T11:44:19Z</time>
      </trkpt>
      <trkpt lat="48.71201" lon="1.81666">
        <ele>185.2</ele>
        <time>2026-01-13T11:44:20Z</time>
      </trkpt>
      <trkpt lat="48.71207" lon="1.81673">
        <ele>185.2</ele>
        <time>2026-01-13T11:44:21Z</time>
      </trkpt>
      <trkpt lat="48.71213" lon="1.81681">
        <ele>185.2</ele>
        <time>2026-01-13T11:44:22Z</time>
      </trkpt>
      <trkpt lat="48.71219" lon="1.81689">
        <ele>184.4</ele>
        <time>2026-01-13T11:44:23Z</time>
      </trkpt>
      <trkpt lat="48.71224" lon="1.81696">
        <ele>184.4</ele>
        <time>2026-01-13T11:44:24Z</time>
      </trkpt>
      <trkpt lat="48.7123" lon="1.81704">
        <ele>184.4</ele>
        <time>2026-01-13T11:44:25Z</time>
      </trkpt>
      <trkpt lat="48.71235" lon="1.81711">
        <ele>185.4</ele>
        <time>2026-01-13T11:44:26Z</time>
      </trkpt>
      <trkpt lat="48.7124" lon="1.81719">
        <ele>186</ele>
        <time>2026-01-13T11:44:27Z</time>
      </trkpt>
      <trkpt lat="48.71245" lon="1.81727">
        <ele>186</ele>
        <time>2026-01-13T11:44:28Z</time>
      </trkpt>
      <trkpt lat="48.7125" lon="1.81735">
        <ele>186</ele>
        <time>2026-01-13T11:44:29Z</time>
      </trkpt>
      <trkpt lat="48.71254" lon="1.81742">
        <ele>186</ele>
        <time>2026-01-13T11:44:30Z</time>
      </trkpt>
      <trkpt lat="48.71259" lon="1.8175">
        <ele>186</ele>
        <time>2026-01-13T11:44:31Z</time>
      </trkpt>
      <trkpt lat="48.71264" lon="1.81758">
        <ele>187</ele>
        <time>2026-01-13T11:44:32Z</time>
      </trkpt>
      <trkpt lat="48.71268" lon="1.81765">
        <ele>187</ele>
        <time>2026-01-13T11:44:33Z</time>
      </trkpt>
      <trkpt lat="48.71272" lon="1.81773">
        <ele>187</ele>
        <time>2026-01-13T11:44:34Z</time>
      </trkpt>
      <trkpt lat="48.71276" lon="1.81782">
        <ele>186.8</ele>
        <time>2026-01-13T11:44:35Z</time>
      </trkpt>
      <trkpt lat="48.7128" lon="1.8179">
        <ele>186.6</ele>
        <time>2026-01-13T11:44:36Z</time>
      </trkpt>
      <trkpt lat="48.71285" lon="1.81797">
        <ele>186.6</ele>
        <time>2026-01-13T11:44:37Z</time>
      </trkpt>
      <trkpt lat="48.71289" lon="1.81805">
        <ele>186.6</ele>
        <time>2026-01-13T11:44:38Z</time>
      </trkpt>
      <trkpt lat="48.71293" lon="1.81813">
        <ele>187.4</ele>
        <time>2026-01-13T11:44:39Z</time>
      </trkpt>
      <trkpt lat="48.71298" lon="1.8182">
        <ele>187.6</ele>
        <time>2026-01-13T11:44:40Z</time>
      </trkpt>
      <trkpt lat="48.71302" lon="1.81828">
        <ele>187.6</ele>
        <time>2026-01-13T11:44:41Z</time>
      </trkpt>
      <trkpt lat="48.71306" lon="1.81836">
        <ele>187.6</ele>
        <time>2026-01-13T11:44:42Z</time>
      </trkpt>
      <trkpt lat="48.71311" lon="1.81843">
        <ele>187.6</ele>
        <time>2026-01-13T11:44:43Z</time>
      </trkpt>
      <trkpt lat="48.71315" lon="1.81851">
        <ele>187.6</ele>
        <time>2026-01-13T11:44:44Z</time>
      </trkpt>
      <trkpt lat="48.7132" lon="1.81858">
        <ele>187.6</ele>
        <time>2026-01-13T11:44:45Z</time>
      </trkpt>
      <trkpt lat="48.71326" lon="1.81865">
        <ele>187.6</ele>
        <time>2026-01-13T11:44:46Z</time>
      </trkpt>
      <trkpt lat="48.71331" lon="1.81872">
        <ele>187.8</ele>
        <time>2026-01-13T11:44:47Z</time>
      </trkpt>
      <trkpt lat="48.71337" lon="1.81878">
        <ele>188</ele>
        <time>2026-01-13T11:44:48Z</time>
      </trkpt>
      <trkpt lat="48.71343" lon="1.81883">
        <ele>188</ele>
        <time>2026-01-13T11:44:49Z</time>
      </trkpt>
      <trkpt lat="48.7135" lon="1.81887">
        <ele>188</ele>
        <time>2026-01-13T11:44:50Z</time>
      </trkpt>
      <trkpt lat="48.71357" lon="1.81889">
        <ele>188</ele>
        <time>2026-01-13T11:44:51Z</time>
      </trkpt>
      <trkpt lat="48.71364" lon="1.81891">
        <ele>188</ele>
        <time>2026-01-13T11:44:52Z</time>
      </trkpt>
      <trkpt lat="48.71371" lon="1.81893">
        <ele>188</ele>
        <time>2026-01-13T11:44:53Z</time>
      </trkpt>
      <trkpt lat="48.71378" lon="1.81894">
        <ele>188</ele>
        <time>2026-01-13T11:44:54Z</time>
      </trkpt>
      <trkpt lat="48.71386" lon="1.81895">
        <ele>188</ele>
        <time>2026-01-13T11:44:55Z</time>
      </trkpt>
      <trkpt lat="48.71393" lon="1.81897">
        <ele>188</ele>
        <time>2026-01-13T11:44:56Z</time>
      </trkpt>
      <trkpt lat="48.71401" lon="1.81899">
        <ele>188.2</ele>
        <time>2026-01-13T11:44:57Z</time>
      </trkpt>
      <trkpt lat="48.71408" lon="1.81901">
        <ele>188.2</ele>
        <time>2026-01-13T11:44:58Z</time>
      </trkpt>
      <trkpt lat="48.71415" lon="1.81903">
        <ele>188.2</ele>
        <time>2026-01-13T11:44:59Z</time>
      </trkpt>
      <trkpt lat="48.71423" lon="1.81906">
        <ele>187.4</ele>
        <time>2026-01-13T11:45:00Z</time>
      </trkpt>
      <trkpt lat="48.7143" lon="1.8191">
        <ele>187.4</ele>
        <time>2026-01-13T11:45:01Z</time>
      </trkpt>
      <trkpt lat="48.71437" lon="1.81913">
        <ele>187.4</ele>
        <time>2026-01-13T11:45:02Z</time>
      </trkpt>
      <trkpt lat="48.71444" lon="1.81917">
        <ele>188.4</ele>
        <time>2026-01-13T11:45:03Z</time>
      </trkpt>
      <trkpt lat="48.71451" lon="1.81921">
        <ele>188.4</ele>
        <time>2026-01-13T11:45:04Z</time>
      </trkpt>
      <trkpt lat="48.71458" lon="1.81925">
        <ele>188.4</ele>
        <time>2026-01-13T11:45:05Z</time>
      </trkpt>
      <trkpt lat="48.71465" lon="1.8193">
        <ele>188.4</ele>
        <time>2026-01-13T11:45:06Z</time>
      </trkpt>
      <trkpt lat="48.71472" lon="1.81934">
        <ele>188.4</ele>
        <time>2026-01-13T11:45:07Z</time>
      </trkpt>
      <trkpt lat="48.71479" lon="1.81938">
        <ele>188.4</ele>
        <time>2026-01-13T11:45:08Z</time>
      </trkpt>
      <trkpt lat="48.71486" lon="1.81942">
        <ele>187.4</ele>
        <time>2026-01-13T11:45:09Z</time>
      </trkpt>
      <trkpt lat="48.71493" lon="1.81946">
        <ele>187.4</ele>
        <time>2026-01-13T11:45:10Z</time>
      </trkpt>
      <trkpt lat="48.715" lon="1.81951">
        <ele>187.4</ele>
        <time>2026-01-13T11:45:11Z</time>
      </trkpt>
      <trkpt lat="48.71506" lon="1.81955">
        <ele>187.4</ele>
        <time>2026-01-13T11:45:12Z</time>
      </trkpt>
      <trkpt lat="48.71513" lon="1.81959">
        <ele>187.4</ele>
        <time>2026-01-13T11:45:13Z</time>
      </trkpt>
      <trkpt lat="48.71521" lon="1.81963">
        <ele>187.4</ele>
        <time>2026-01-13T11:45:14Z</time>
      </trkpt>
      <trkpt lat="48.71527" lon="1.81968">
        <ele>186.6</ele>
        <time>2026-01-13T11:45:15Z</time>
      </trkpt>
      <trkpt lat="48.71534" lon="1.81972">
        <ele>186.4</ele>
        <time>2026-01-13T11:45:16Z</time>
      </trkpt>
      <trkpt lat="48.71541" lon="1.81976">
        <ele>186.4</ele>
        <time>2026-01-13T11:45:17Z</time>
      </trkpt>
      <trkpt lat="48.71548" lon="1.81981">
        <ele>186.4</ele>
        <time>2026-01-13T11:45:18Z</time>
      </trkpt>
      <trkpt lat="48.71555" lon="1.81985">
        <ele>186.4</ele>
        <time>2026-01-13T11:45:19Z</time>
      </trkpt>
      <trkpt lat="48.71562" lon="1.81989">
        <ele>186.4</ele>
        <time>2026-01-13T11:45:20Z</time>
      </trkpt>
      <trkpt lat="48.71569" lon="1.81993">
        <ele>186.8</ele>
        <time>2026-01-13T11:45:21Z</time>
      </trkpt>
      <trkpt lat="48.71575" lon="1.81997">
        <ele>186.8</ele>
        <time>2026-01-13T11:45:22Z</time>
      </trkpt>
      <trkpt lat="48.71583" lon="1.82001">
        <ele>187.2</ele>
        <time>2026-01-13T11:45:23Z</time>
      </trkpt>
      <trkpt lat="48.7159" lon="1.82003">
        <ele>187.2</ele>
        <time>2026-01-13T11:45:24Z</time>
      </trkpt>
      <trkpt lat="48.71597" lon="1.82005">
        <ele>187.2</ele>
        <time>2026-01-13T11:45:25Z</time>
      </trkpt>
      <trkpt lat="48.71605" lon="1.82007">
        <ele>186.4</ele>
        <time>2026-01-13T11:45:26Z</time>
      </trkpt>
      <trkpt lat="48.71613" lon="1.82008">
        <ele>186.4</ele>
        <time>2026-01-13T11:45:27Z</time>
      </trkpt>
      <trkpt lat="48.7162" lon="1.82009">
        <ele>186.4</ele>
        <time>2026-01-13T11:45:28Z</time>
      </trkpt>
      <trkpt lat="48.71628" lon="1.82011">
        <ele>186.8</ele>
        <time>2026-01-13T11:45:29Z</time>
      </trkpt>
      <trkpt lat="48.71635" lon="1.82011">
        <ele>186.8</ele>
        <time>2026-01-13T11:45:30Z</time>
      </trkpt>
      <trkpt lat="48.71643" lon="1.82012">
        <ele>186.8</ele>
        <time>2026-01-13T11:45:31Z</time>
      </trkpt>
      <trkpt lat="48.71651" lon="1.82013">
        <ele>186.8</ele>
        <time>2026-01-13T11:45:32Z</time>
      </trkpt>
      <trkpt lat="48.71659" lon="1.82014">
        <ele>186.8</ele>
        <time>2026-01-13T11:45:33Z</time>
      </trkpt>
      <trkpt lat="48.71667" lon="1.82014">
        <ele>186.8</ele>
        <time>2026-01-13T11:45:34Z</time>
      </trkpt>
      <trkpt lat="48.71674" lon="1.82015">
        <ele>187.2</ele>
        <time>2026-01-13T11:45:35Z</time>
      </trkpt>
      <trkpt lat="48.71682" lon="1.82016">
        <ele>187.2</ele>
        <time>2026-01-13T11:45:36Z</time>
      </trkpt>
      <trkpt lat="48.7169" lon="1.82016">
        <ele>187.2</ele>
        <time>2026-01-13T11:45:37Z</time>
      </trkpt>
      <trkpt lat="48.71698" lon="1.82017">
        <ele>187.2</ele>
        <time>2026-01-13T11:45:38Z</time>
      </trkpt>
      <trkpt lat="48.71707" lon="1.82019">
        <ele>187.2</ele>
        <time>2026-01-13T11:45:39Z</time>
      </trkpt>
      <trkpt lat="48.71715" lon="1.8202">
        <ele>186.4</ele>
        <time>2026-01-13T11:45:40Z</time>
      </trkpt>
      <trkpt lat="48.71723" lon="1.8202">
        <ele>186.4</ele>
        <time>2026-01-13T11:45:41Z</time>
      </trkpt>
      <trkpt lat="48.71731" lon="1.82021">
        <ele>186.4</ele>
        <time>2026-01-13T11:45:42Z</time>
      </trkpt>
      <trkpt lat="48.71739" lon="1.82022">
        <ele>186.4</ele>
        <time>2026-01-13T11:45:43Z</time>
      </trkpt>
      <trkpt lat="48.71748" lon="1.82022">
        <ele>186.4</ele>
        <time>2026-01-13T11:45:44Z</time>
      </trkpt>
      <trkpt lat="48.71756" lon="1.82023">
        <ele>186.4</ele>
        <time>2026-01-13T11:45:45Z</time>
      </trkpt>
      <trkpt lat="48.71764" lon="1.82024">
        <ele>186.6</ele>
        <time>2026-01-13T11:45:46Z</time>
      </trkpt>
      <trkpt lat="48.71773" lon="1.82025">
        <ele>186.6</ele>
        <time>2026-01-13T11:45:47Z</time>
      </trkpt>
      <trkpt lat="48.71782" lon="1.82026">
        <ele>186.6</ele>
        <time>2026-01-13T11:45:48Z</time>
      </trkpt>
      <trkpt lat="48.7179" lon="1.82026">
        <ele>185.8</ele>
        <time>2026-01-13T11:45:49Z</time>
      </trkpt>
      <trkpt lat="48.71799" lon="1.82027">
        <ele>185.4</ele>
        <time>2026-01-13T11:45:50Z</time>
      </trkpt>
      <trkpt lat="48.71807" lon="1.82028">
        <ele>185.2</ele>
        <time>2026-01-13T11:45:51Z</time>
      </trkpt>
      <trkpt lat="48.71816" lon="1.82029">
        <ele>185.2</ele>
        <time>2026-01-13T11:45:52Z</time>
      </trkpt>
      <trkpt lat="48.71825" lon="1.8203">
        <ele>185.2</ele>
        <time>2026-01-13T11:45:53Z</time>
      </trkpt>
      <trkpt lat="48.71834" lon="1.82031">
        <ele>186.2</ele>
        <time>2026-01-13T11:45:54Z</time>
      </trkpt>
      <trkpt lat="48.71843" lon="1.82031">
        <ele>186.2</ele>
        <time>2026-01-13T11:45:55Z</time>
      </trkpt>
      <trkpt lat="48.71851" lon="1.82032">
        <ele>186.2</ele>
        <time>2026-01-13T11:45:56Z</time>
      </trkpt>
      <trkpt lat="48.7186" lon="1.82032">
        <ele>185.2</ele>
        <time>2026-01-13T11:45:57Z</time>
      </trkpt>
      <trkpt lat="48.71869" lon="1.82033">
        <ele>184.2</ele>
        <time>2026-01-13T11:45:58Z</time>
      </trkpt>
      <trkpt lat="48.71878" lon="1.82034">
        <ele>184</ele>
        <time>2026-01-13T11:45:59Z</time>
      </trkpt>
      <trkpt lat="48.71887" lon="1.82035">
        <ele>183.8</ele>
        <time>2026-01-13T11:46:00Z</time>
      </trkpt>
      <trkpt lat="48.71896" lon="1.82035">
        <ele>183.8</ele>
        <time>2026-01-13T11:46:01Z</time>
      </trkpt>
      <trkpt lat="48.71906" lon="1.82036">
        <ele>183.8</ele>
        <time>2026-01-13T11:46:02Z</time>
      </trkpt>
      <trkpt lat="48.71915" lon="1.82036">
        <ele>183.8</ele>
        <time>2026-01-13T11:46:03Z</time>
      </trkpt>
      <trkpt lat="48.71925" lon="1.82035">
        <ele>183.8</ele>
        <time>2026-01-13T11:46:04Z</time>
      </trkpt>
      <trkpt lat="48.71934" lon="1.82035">
        <ele>182.8</ele>
        <time>2026-01-13T11:46:05Z</time>
      </trkpt>
      <trkpt lat="48.71944" lon="1.82034">
        <ele>182.4</ele>
        <time>2026-01-13T11:46:06Z</time>
      </trkpt>
      <trkpt lat="48.71954" lon="1.82033">
        <ele>181.8</ele>
        <time>2026-01-13T11:46:07Z</time>
      </trkpt>
      <trkpt lat="48.71964" lon="1.82032">
        <ele>181.8</ele>
        <time>2026-01-13T11:46:08Z</time>
      </trkpt>
      <trkpt lat="48.71973" lon="1.8203">
        <ele>181.8</ele>
        <time>2026-01-13T11:46:09Z</time>
      </trkpt>
      <trkpt lat="48.71981" lon="1.82029">
        <ele>181.8</ele>
        <time>2026-01-13T11:46:10Z</time>
      </trkpt>
      <trkpt lat="48.7199" lon="1.82027">
        <ele>181.8</ele>
        <time>2026-01-13T11:46:11Z</time>
      </trkpt>
      <trkpt lat="48.72" lon="1.82026">
        <ele>181.8</ele>
        <time>2026-01-13T11:46:12Z</time>
      </trkpt>
      <trkpt lat="48.7201" lon="1.82029">
        <ele>181.8</ele>
        <time>2026-01-13T11:46:13Z</time>
      </trkpt>
      <trkpt lat="48.72018" lon="1.82034">
        <ele>180.8</ele>
        <time>2026-01-13T11:46:14Z</time>
      </trkpt>
      <trkpt lat="48.72026" lon="1.82041">
        <ele>180.2</ele>
        <time>2026-01-13T11:46:15Z</time>
      </trkpt>
      <trkpt lat="48.72033" lon="1.82048">
        <ele>180.2</ele>
        <time>2026-01-13T11:46:16Z</time>
      </trkpt>
      <trkpt lat="48.72039" lon="1.82056">
        <ele>180.2</ele>
        <time>2026-01-13T11:46:17Z</time>
      </trkpt>
      <trkpt lat="48.72047" lon="1.82064">
        <ele>180.8</ele>
        <time>2026-01-13T11:46:18Z</time>
      </trkpt>
      <trkpt lat="48.72053" lon="1.82071">
        <ele>180.8</ele>
        <time>2026-01-13T11:46:19Z</time>
      </trkpt>
      <trkpt lat="48.7206" lon="1.82079">
        <ele>180.8</ele>
        <time>2026-01-13T11:46:20Z</time>
      </trkpt>
      <trkpt lat="48.72067" lon="1.82087">
        <ele>180.8</ele>
        <time>2026-01-13T11:46:21Z</time>
      </trkpt>
      <trkpt lat="48.72073" lon="1.82094">
        <ele>180.8</ele>
        <time>2026-01-13T11:46:22Z</time>
      </trkpt>
      <trkpt lat="48.7208" lon="1.82101">
        <ele>180.8</ele>
        <time>2026-01-13T11:46:23Z</time>
      </trkpt>
      <trkpt lat="48.72086" lon="1.82109">
        <ele>180.8</ele>
        <time>2026-01-13T11:46:24Z</time>
      </trkpt>
      <trkpt lat="48.72094" lon="1.82116">
        <ele>180.8</ele>
        <time>2026-01-13T11:46:25Z</time>
      </trkpt>
      <trkpt lat="48.721" lon="1.82123">
        <ele>180.8</ele>
        <time>2026-01-13T11:46:26Z</time>
      </trkpt>
      <trkpt lat="48.72107" lon="1.8213">
        <ele>180.8</ele>
        <time>2026-01-13T11:46:27Z</time>
      </trkpt>
      <trkpt lat="48.72114" lon="1.82136">
        <ele>181.8</ele>
        <time>2026-01-13T11:46:28Z</time>
      </trkpt>
      <trkpt lat="48.7212" lon="1.82143">
        <ele>181.8</ele>
        <time>2026-01-13T11:46:29Z</time>
      </trkpt>
      <trkpt lat="48.72126" lon="1.8215">
        <ele>181.8</ele>
        <time>2026-01-13T11:46:30Z</time>
      </trkpt>
      <trkpt lat="48.72132" lon="1.82156">
        <ele>181.8</ele>
        <time>2026-01-13T11:46:31Z</time>
      </trkpt>
      <trkpt lat="48.72138" lon="1.82163">
        <ele>181.8</ele>
        <time>2026-01-13T11:46:32Z</time>
      </trkpt>
      <trkpt lat="48.72144" lon="1.8217">
        <ele>181.6</ele>
        <time>2026-01-13T11:46:33Z</time>
      </trkpt>
      <trkpt lat="48.7215" lon="1.82177">
        <ele>181.4</ele>
        <time>2026-01-13T11:46:34Z</time>
      </trkpt>
      <trkpt lat="48.72156" lon="1.82183">
        <ele>181.4</ele>
        <time>2026-01-13T11:46:35Z</time>
      </trkpt>
      <trkpt lat="48.72163" lon="1.82189">
        <ele>181.4</ele>
        <time>2026-01-13T11:46:36Z</time>
      </trkpt>
      <trkpt lat="48.72169" lon="1.82196">
        <ele>181.4</ele>
        <time>2026-01-13T11:46:37Z</time>
      </trkpt>
      <trkpt lat="48.72175" lon="1.82202">
        <ele>181.4</ele>
        <time>2026-01-13T11:46:38Z</time>
      </trkpt>
      <trkpt lat="48.7218" lon="1.82209">
        <ele>182.2</ele>
        <time>2026-01-13T11:46:39Z</time>
      </trkpt>
      <trkpt lat="48.72185" lon="1.82215">
        <ele>183</ele>
        <time>2026-01-13T11:46:40Z</time>
      </trkpt>
      <trkpt lat="48.7219" lon="1.82221">
        <ele>183</ele>
        <time>2026-01-13T11:46:41Z</time>
      </trkpt>
      <trkpt lat="48.72194" lon="1.82227">
        <ele>183</ele>
        <time>2026-01-13T11:46:42Z</time>
      </trkpt>
      <trkpt lat="48.722" lon="1.82233">
        <ele>183</ele>
        <time>2026-01-13T11:46:43Z</time>
      </trkpt>
      <trkpt lat="48.72204" lon="1.82239">
        <ele>182.4</ele>
        <time>2026-01-13T11:46:44Z</time>
      </trkpt>
      <trkpt lat="48.72209" lon="1.82244">
        <ele>182.4</ele>
        <time>2026-01-13T11:46:45Z</time>
      </trkpt>
      <trkpt lat="48.72213" lon="1.8225">
        <ele>182.4</ele>
        <time>2026-01-13T11:46:46Z</time>
      </trkpt>
      <trkpt lat="48.72218" lon="1.82255">
        <ele>183.4</ele>
        <time>2026-01-13T11:46:47Z</time>
      </trkpt>
      <trkpt lat="48.72224" lon="1.82261">
        <ele>183.4</ele>
        <time>2026-01-13T11:46:48Z</time>
      </trkpt>
      <trkpt lat="48.72229" lon="1.82267">
        <ele>183.4</ele>
        <time>2026-01-13T11:46:49Z</time>
      </trkpt>
      <trkpt lat="48.72234" lon="1.82272">
        <ele>183.4</ele>
        <time>2026-01-13T11:46:50Z</time>
      </trkpt>
      <trkpt lat="48.7224" lon="1.82276">
        <ele>183.4</ele>
        <time>2026-01-13T11:46:51Z</time>
      </trkpt>
      <trkpt lat="48.72247" lon="1.82279">
        <ele>183.4</ele>
        <time>2026-01-13T11:46:52Z</time>
      </trkpt>
      <trkpt lat="48.72254" lon="1.82282">
        <ele>184</ele>
        <time>2026-01-13T11:46:53Z</time>
      </trkpt>
      <trkpt lat="48.72261" lon="1.82282">
        <ele>184</ele>
        <time>2026-01-13T11:46:54Z</time>
      </trkpt>
      <trkpt lat="48.72269" lon="1.82281">
        <ele>184</ele>
        <time>2026-01-13T11:46:55Z</time>
      </trkpt>
      <trkpt lat="48.72276" lon="1.82279">
        <ele>183.4</ele>
        <time>2026-01-13T11:46:56Z</time>
      </trkpt>
      <trkpt lat="48.72284" lon="1.82276">
        <ele>183.4</ele>
        <time>2026-01-13T11:46:57Z</time>
      </trkpt>
      <trkpt lat="48.72291" lon="1.82272">
        <ele>183.4</ele>
        <time>2026-01-13T11:46:58Z</time>
      </trkpt>
      <trkpt lat="48.72297" lon="1.82269">
        <ele>183.4</ele>
        <time>2026-01-13T11:46:59Z</time>
      </trkpt>
      <trkpt lat="48.72304" lon="1.82264">
        <ele>183.4</ele>
        <time>2026-01-13T11:47:00Z</time>
      </trkpt>
      <trkpt lat="48.72311" lon="1.82261">
        <ele>183.4</ele>
        <time>2026-01-13T11:47:01Z</time>
      </trkpt>
      <trkpt lat="48.72317" lon="1.82258">
        <ele>183.4</ele>
        <time>2026-01-13T11:47:02Z</time>
      </trkpt>
      <trkpt lat="48.72324" lon="1.82255">
        <ele>184.4</ele>
        <time>2026-01-13T11:47:03Z</time>
      </trkpt>
      <trkpt lat="48.7233" lon="1.82253">
        <ele>185.4</ele>
        <time>2026-01-13T11:47:04Z</time>
      </trkpt>
      <trkpt lat="48.72337" lon="1.82252">
        <ele>186</ele>
        <time>2026-01-13T11:47:05Z</time>
      </trkpt>
      <trkpt lat="48.72343" lon="1.82252">
        <ele>186.4</ele>
        <time>2026-01-13T11:47:06Z</time>
      </trkpt>
      <trkpt lat="48.72349" lon="1.82252">
        <ele>186.4</ele>
        <time>2026-01-13T11:47:07Z</time>
      </trkpt>
      <trkpt lat="48.72355" lon="1.82253">
        <ele>186.4</ele>
        <time>2026-01-13T11:47:08Z</time>
      </trkpt>
      <trkpt lat="48.7236" lon="1.82253">
        <ele>186.4</ele>
        <time>2026-01-13T11:47:09Z</time>
      </trkpt>
      <trkpt lat="48.72365" lon="1.82254">
        <ele>186.8</ele>
        <time>2026-01-13T11:47:10Z</time>
      </trkpt>
      <trkpt lat="48.72371" lon="1.82255">
        <ele>186.8</ele>
        <time>2026-01-13T11:47:11Z</time>
      </trkpt>
      <trkpt lat="48.72377" lon="1.82256">
        <ele>186.8</ele>
        <time>2026-01-13T11:47:12Z</time>
      </trkpt>
      <trkpt lat="48.72382" lon="1.82256">
        <ele>186.8</ele>
        <time>2026-01-13T11:47:13Z</time>
      </trkpt>
      <trkpt lat="48.72388" lon="1.82257">
        <ele>187.8</ele>
        <time>2026-01-13T11:47:14Z</time>
      </trkpt>
      <trkpt lat="48.72393" lon="1.82258">
        <ele>188</ele>
        <time>2026-01-13T11:47:15Z</time>
      </trkpt>
      <trkpt lat="48.72399" lon="1.82258">
        <ele>188.8</ele>
        <time>2026-01-13T11:47:16Z</time>
      </trkpt>
      <trkpt lat="48.72405" lon="1.82259">
        <ele>188.8</ele>
        <time>2026-01-13T11:47:17Z</time>
      </trkpt>
      <trkpt lat="48.72411" lon="1.8226">
        <ele>188.8</ele>
        <time>2026-01-13T11:47:18Z</time>
      </trkpt>
      <trkpt lat="48.72417" lon="1.8226">
        <ele>188.8</ele>
        <time>2026-01-13T11:47:19Z</time>
      </trkpt>
      <trkpt lat="48.72423" lon="1.82261">
        <ele>188.8</ele>
        <time>2026-01-13T11:47:20Z</time>
      </trkpt>
      <trkpt lat="48.72429" lon="1.82262">
        <ele>189.8</ele>
        <time>2026-01-13T11:47:21Z</time>
      </trkpt>
      <trkpt lat="48.72435" lon="1.82263">
        <ele>189.8</ele>
        <time>2026-01-13T11:47:22Z</time>
      </trkpt>
      <trkpt lat="48.72441" lon="1.82263">
        <ele>189.8</ele>
        <time>2026-01-13T11:47:23Z</time>
      </trkpt>
      <trkpt lat="48.72447" lon="1.82264">
        <ele>189.4</ele>
        <time>2026-01-13T11:47:24Z</time>
      </trkpt>
      <trkpt lat="48.72454" lon="1.82265">
        <ele>189.4</ele>
        <time>2026-01-13T11:47:25Z</time>
      </trkpt>
      <trkpt lat="48.7246" lon="1.82265">
        <ele>189.4</ele>
        <time>2026-01-13T11:47:26Z</time>
      </trkpt>
      <trkpt lat="48.72466" lon="1.82266">
        <ele>189.8</ele>
        <time>2026-01-13T11:47:27Z</time>
      </trkpt>
      <trkpt lat="48.72472" lon="1.82267">
        <ele>190</ele>
        <time>2026-01-13T11:47:28Z</time>
      </trkpt>
      <trkpt lat="48.72478" lon="1.82268">
        <ele>190</ele>
        <time>2026-01-13T11:47:29Z</time>
      </trkpt>
      <trkpt lat="48.72484" lon="1.82268">
        <ele>190</ele>
        <time>2026-01-13T11:47:30Z</time>
      </trkpt>
      <trkpt lat="48.72491" lon="1.82269">
        <ele>190</ele>
        <time>2026-01-13T11:47:31Z</time>
      </trkpt>
      <trkpt lat="48.72497" lon="1.8227">
        <ele>190</ele>
        <time>2026-01-13T11:47:32Z</time>
      </trkpt>
      <trkpt lat="48.72503" lon="1.82271">
        <ele>190</ele>
        <time>2026-01-13T11:47:33Z</time>
      </trkpt>
      <trkpt lat="48.7251" lon="1.82272">
        <ele>190</ele>
        <time>2026-01-13T11:47:34Z</time>
      </trkpt>
      <trkpt lat="48.72516" lon="1.82273">
        <ele>190</ele>
        <time>2026-01-13T11:47:35Z</time>
      </trkpt>
      <trkpt lat="48.72522" lon="1.82274">
        <ele>190</ele>
        <time>2026-01-13T11:47:36Z</time>
      </trkpt>
      <trkpt lat="48.72529" lon="1.82274">
        <ele>190</ele>
        <time>2026-01-13T11:47:37Z</time>
      </trkpt>
      <trkpt lat="48.72535" lon="1.82275">
        <ele>189.6</ele>
        <time>2026-01-13T11:47:38Z</time>
      </trkpt>
      <trkpt lat="48.72542" lon="1.82276">
        <ele>189.6</ele>
        <time>2026-01-13T11:47:39Z</time>
      </trkpt>
      <trkpt lat="48.72548" lon="1.82277">
        <ele>189.6</ele>
        <time>2026-01-13T11:47:40Z</time>
      </trkpt>
      <trkpt lat="48.72555" lon="1.82278">
        <ele>189.6</ele>
        <time>2026-01-13T11:47:41Z</time>
      </trkpt>
      <trkpt lat="48.72562" lon="1.82279">
        <ele>189.6</ele>
        <time>2026-01-13T11:47:42Z</time>
      </trkpt>
      <trkpt lat="48.72569" lon="1.8228">
        <ele>189.6</ele>
        <time>2026-01-13T11:47:43Z</time>
      </trkpt>
      <trkpt lat="48.72576" lon="1.82281">
        <ele>189.6</ele>
        <time>2026-01-13T11:47:44Z</time>
      </trkpt>
      <trkpt lat="48.72582" lon="1.82282">
        <ele>189.6</ele>
        <time>2026-01-13T11:47:45Z</time>
      </trkpt>
      <trkpt lat="48.72589" lon="1.82283">
        <ele>189.6</ele>
        <time>2026-01-13T11:47:46Z</time>
      </trkpt>
      <trkpt lat="48.72596" lon="1.82284">
        <ele>189.8</ele>
        <time>2026-01-13T11:47:47Z</time>
      </trkpt>
      <trkpt lat="48.72603" lon="1.82285">
        <ele>189.8</ele>
        <time>2026-01-13T11:47:48Z</time>
      </trkpt>
      <trkpt lat="48.7261" lon="1.82285">
        <ele>189.8</ele>
        <time>2026-01-13T11:47:49Z</time>
      </trkpt>
      <trkpt lat="48.72617" lon="1.82286">
        <ele>189.8</ele>
        <time>2026-01-13T11:47:50Z</time>
      </trkpt>
      <trkpt lat="48.72624" lon="1.82288">
        <ele>189.8</ele>
        <time>2026-01-13T11:47:51Z</time>
      </trkpt>
      <trkpt lat="48.72631" lon="1.82289">
        <ele>189.8</ele>
        <time>2026-01-13T11:47:52Z</time>
      </trkpt>
      <trkpt lat="48.72638" lon="1.82289">
        <ele>189.8</ele>
        <time>2026-01-13T11:47:53Z</time>
      </trkpt>
      <trkpt lat="48.72645" lon="1.8229">
        <ele>189.8</ele>
        <time>2026-01-13T11:47:54Z</time>
      </trkpt>
      <trkpt lat="48.72652" lon="1.82291">
        <ele>189.6</ele>
        <time>2026-01-13T11:47:55Z</time>
      </trkpt>
      <trkpt lat="48.72659" lon="1.82292">
        <ele>189.6</ele>
        <time>2026-01-13T11:47:56Z</time>
      </trkpt>
      <trkpt lat="48.72666" lon="1.82293">
        <ele>189.6</ele>
        <time>2026-01-13T11:47:57Z</time>
      </trkpt>
      <trkpt lat="48.72672" lon="1.82293">
        <ele>189.6</ele>
        <time>2026-01-13T11:47:58Z</time>
      </trkpt>
      <trkpt lat="48.72678" lon="1.82294">
        <ele>189.6</ele>
        <time>2026-01-13T11:47:59Z</time>
      </trkpt>
      <trkpt lat="48.72684" lon="1.82295">
        <ele>189.6</ele>
        <time>2026-01-13T11:48:00Z</time>
      </trkpt>
      <trkpt lat="48.72691" lon="1.82295">
        <ele>189.6</ele>
        <time>2026-01-13T11:48:01Z</time>
      </trkpt>
      <trkpt lat="48.72697" lon="1.82296">
        <ele>189.6</ele>
        <time>2026-01-13T11:48:02Z</time>
      </trkpt>
      <trkpt lat="48.72704" lon="1.82296">
        <ele>189.6</ele>
        <time>2026-01-13T11:48:03Z</time>
      </trkpt>
      <trkpt lat="48.7271" lon="1.82295">
        <ele>190.6</ele>
        <time>2026-01-13T11:48:04Z</time>
      </trkpt>
      <trkpt lat="48.72716" lon="1.82292">
        <ele>190.6</ele>
        <time>2026-01-13T11:48:05Z</time>
      </trkpt>
      <trkpt lat="48.7272" lon="1.82285">
        <ele>190.6</ele>
        <time>2026-01-13T11:48:06Z</time>
      </trkpt>
      <trkpt lat="48.72723" lon="1.82278">
        <ele>189.6</ele>
        <time>2026-01-13T11:48:07Z</time>
      </trkpt>
      <trkpt lat="48.72727" lon="1.8227">
        <ele>189.6</ele>
        <time>2026-01-13T11:48:08Z</time>
      </trkpt>
      <trkpt lat="48.7273" lon="1.82262">
        <ele>189.6</ele>
        <time>2026-01-13T11:48:09Z</time>
      </trkpt>
      <trkpt lat="48.72733" lon="1.82256">
        <ele>189.6</ele>
        <time>2026-01-13T11:48:10Z</time>
      </trkpt>
      <trkpt lat="48.72735" lon="1.82248">
        <ele>189.6</ele>
        <time>2026-01-13T11:48:11Z</time>
      </trkpt>
      <trkpt lat="48.72737" lon="1.82239">
        <ele>189.6</ele>
        <time>2026-01-13T11:48:12Z</time>
      </trkpt>
      <trkpt lat="48.72741" lon="1.82232">
        <ele>189.6</ele>
        <time>2026-01-13T11:48:13Z</time>
      </trkpt>
      <trkpt lat="48.72743" lon="1.82224">
        <ele>189.6</ele>
        <time>2026-01-13T11:48:14Z</time>
      </trkpt>
      <trkpt lat="48.72746" lon="1.82215">
        <ele>190.6</ele>
        <time>2026-01-13T11:48:15Z</time>
      </trkpt>
      <trkpt lat="48.72749" lon="1.82207">
        <ele>191.4</ele>
        <time>2026-01-13T11:48:16Z</time>
      </trkpt>
      <trkpt lat="48.72751" lon="1.82199">
        <ele>191.4</ele>
        <time>2026-01-13T11:48:17Z</time>
      </trkpt>
      <trkpt lat="48.72755" lon="1.8219">
        <ele>191.4</ele>
        <time>2026-01-13T11:48:18Z</time>
      </trkpt>
      <trkpt lat="48.72758" lon="1.82181">
        <ele>190.4</ele>
        <time>2026-01-13T11:48:19Z</time>
      </trkpt>
      <trkpt lat="48.7276" lon="1.82172">
        <ele>190.4</ele>
        <time>2026-01-13T11:48:20Z</time>
      </trkpt>
      <trkpt lat="48.72763" lon="1.82163">
        <ele>190.4</ele>
        <time>2026-01-13T11:48:21Z</time>
      </trkpt>
      <trkpt lat="48.72766" lon="1.82155">
        <ele>190.4</ele>
        <time>2026-01-13T11:48:22Z</time>
      </trkpt>
      <trkpt lat="48.72769" lon="1.82146">
        <ele>189.4</ele>
        <time>2026-01-13T11:48:23Z</time>
      </trkpt>
      <trkpt lat="48.72771" lon="1.82138">
        <ele>189.4</ele>
        <time>2026-01-13T11:48:24Z</time>
      </trkpt>
      <trkpt lat="48.72774" lon="1.82128">
        <ele>189.4</ele>
        <time>2026-01-13T11:48:25Z</time>
      </trkpt>
      <trkpt lat="48.72777" lon="1.82118">
        <ele>189.4</ele>
        <time>2026-01-13T11:48:26Z</time>
      </trkpt>
      <trkpt lat="48.72779" lon="1.82109">
        <ele>189.4</ele>
        <time>2026-01-13T11:48:27Z</time>
      </trkpt>
      <trkpt lat="48.72782" lon="1.82098">
        <ele>189.4</ele>
        <time>2026-01-13T11:48:28Z</time>
      </trkpt>
      <trkpt lat="48.72785" lon="1.82088">
        <ele>189.4</ele>
        <time>2026-01-13T11:48:29Z</time>
      </trkpt>
      <trkpt lat="48.72787" lon="1.82079">
        <ele>189.4</ele>
        <time>2026-01-13T11:48:30Z</time>
      </trkpt>
      <trkpt lat="48.7279" lon="1.82071">
        <ele>189.4</ele>
        <time>2026-01-13T11:48:31Z</time>
      </trkpt>
      <trkpt lat="48.72792" lon="1.82062">
        <ele>189.4</ele>
        <time>2026-01-13T11:48:32Z</time>
      </trkpt>
      <trkpt lat="48.72796" lon="1.82052">
        <ele>189.4</ele>
        <time>2026-01-13T11:48:33Z</time>
      </trkpt>
      <trkpt lat="48.72799" lon="1.82041">
        <ele>188.4</ele>
        <time>2026-01-13T11:48:34Z</time>
      </trkpt>
      <trkpt lat="48.72802" lon="1.82031">
        <ele>187.4</ele>
        <time>2026-01-13T11:48:35Z</time>
      </trkpt>
      <trkpt lat="48.72805" lon="1.82021">
        <ele>187.4</ele>
        <time>2026-01-13T11:48:36Z</time>
      </trkpt>
      <trkpt lat="48.72807" lon="1.82011">
        <ele>187.4</ele>
        <time>2026-01-13T11:48:37Z</time>
      </trkpt>
      <trkpt lat="48.7281" lon="1.82001">
        <ele>187.4</ele>
        <time>2026-01-13T11:48:38Z</time>
      </trkpt>
      <trkpt lat="48.72814" lon="1.81989">
        <ele>187.4</ele>
        <time>2026-01-13T11:48:39Z</time>
      </trkpt>
      <trkpt lat="48.72817" lon="1.81978">
        <ele>187.4</ele>
        <time>2026-01-13T11:48:40Z</time>
      </trkpt>
      <trkpt lat="48.7282" lon="1.81968">
        <ele>187.4</ele>
        <time>2026-01-13T11:48:41Z</time>
      </trkpt>
      <trkpt lat="48.72824" lon="1.81957">
        <ele>187.4</ele>
        <time>2026-01-13T11:48:42Z</time>
      </trkpt>
      <trkpt lat="48.72826" lon="1.81948">
        <ele>187.4</ele>
        <time>2026-01-13T11:48:43Z</time>
      </trkpt>
      <trkpt lat="48.7283" lon="1.81939">
        <ele>188</ele>
        <time>2026-01-13T11:48:44Z</time>
      </trkpt>
      <trkpt lat="48.72833" lon="1.81931">
        <ele>188</ele>
        <time>2026-01-13T11:48:45Z</time>
      </trkpt>
      <trkpt lat="48.72836" lon="1.81921">
        <ele>188</ele>
        <time>2026-01-13T11:48:46Z</time>
      </trkpt>
      <trkpt lat="48.72839" lon="1.81912">
        <ele>188</ele>
        <time>2026-01-13T11:48:47Z</time>
      </trkpt>
      <trkpt lat="48.72841" lon="1.81902">
        <ele>188</ele>
        <time>2026-01-13T11:48:48Z</time>
      </trkpt>
      <trkpt lat="48.72844" lon="1.81892">
        <ele>188</ele>
        <time>2026-01-13T11:48:49Z</time>
      </trkpt>
      <trkpt lat="48.72847" lon="1.81882">
        <ele>188</ele>
        <time>2026-01-13T11:48:50Z</time>
      </trkpt>
      <trkpt lat="48.7285" lon="1.81871">
        <ele>187.8</ele>
        <time>2026-01-13T11:48:51Z</time>
      </trkpt>
      <trkpt lat="48.72853" lon="1.81861">
        <ele>187.6</ele>
        <time>2026-01-13T11:48:52Z</time>
      </trkpt>
      <trkpt lat="48.72856" lon="1.81851">
        <ele>187.6</ele>
        <time>2026-01-13T11:48:53Z</time>
      </trkpt>
      <trkpt lat="48.72859" lon="1.81841">
        <ele>187.6</ele>
        <time>2026-01-13T11:48:54Z</time>
      </trkpt>
      <trkpt lat="48.72862" lon="1.81832">
        <ele>188.6</ele>
        <time>2026-01-13T11:48:55Z</time>
      </trkpt>
      <trkpt lat="48.72864" lon="1.81823">
        <ele>189.6</ele>
        <time>2026-01-13T11:48:56Z</time>
      </trkpt>
      <trkpt lat="48.72867" lon="1.81815">
        <ele>190.2</ele>
        <time>2026-01-13T11:48:57Z</time>
      </trkpt>
      <trkpt lat="48.72869" lon="1.81808">
        <ele>190.4</ele>
        <time>2026-01-13T11:48:58Z</time>
      </trkpt>
      <trkpt lat="48.72871" lon="1.81799">
        <ele>190.4</ele>
        <time>2026-01-13T11:48:59Z</time>
      </trkpt>
      <trkpt lat="48.72874" lon="1.8179">
        <ele>190.4</ele>
        <time>2026-01-13T11:49:00Z</time>
      </trkpt>
      <trkpt lat="48.72876" lon="1.81781">
        <ele>190.4</ele>
        <time>2026-01-13T11:49:01Z</time>
      </trkpt>
      <trkpt lat="48.72879" lon="1.81772">
        <ele>190.8</ele>
        <time>2026-01-13T11:49:02Z</time>
      </trkpt>
      <trkpt lat="48.72882" lon="1.81764">
        <ele>191.2</ele>
        <time>2026-01-13T11:49:03Z</time>
      </trkpt>
      <trkpt lat="48.72884" lon="1.81755">
        <ele>191.2</ele>
        <time>2026-01-13T11:49:04Z</time>
      </trkpt>
      <trkpt lat="48.72887" lon="1.81747">
        <ele>191.2</ele>
        <time>2026-01-13T11:49:05Z</time>
      </trkpt>
      <trkpt lat="48.7289" lon="1.81736">
        <ele>191.2</ele>
        <time>2026-01-13T11:49:06Z</time>
      </trkpt>
      <trkpt lat="48.72892" lon="1.81728">
        <ele>191.2</ele>
        <time>2026-01-13T11:49:07Z</time>
      </trkpt>
      <trkpt lat="48.72895" lon="1.81719">
        <ele>190.2</ele>
        <time>2026-01-13T11:49:08Z</time>
      </trkpt>
      <trkpt lat="48.72897" lon="1.81709">
        <ele>190</ele>
        <time>2026-01-13T11:49:09Z</time>
      </trkpt>
      <trkpt lat="48.72899" lon="1.817">
        <ele>189.4</ele>
        <time>2026-01-13T11:49:10Z</time>
      </trkpt>
      <trkpt lat="48.72903" lon="1.81691">
        <ele>189</ele>
        <time>2026-01-13T11:49:11Z</time>
      </trkpt>
      <trkpt lat="48.72905" lon="1.81683">
        <ele>188.8</ele>
        <time>2026-01-13T11:49:12Z</time>
      </trkpt>
      <trkpt lat="48.72908" lon="1.81674">
        <ele>188.6</ele>
        <time>2026-01-13T11:49:13Z</time>
      </trkpt>
      <trkpt lat="48.72912" lon="1.81663">
        <ele>188.6</ele>
        <time>2026-01-13T11:49:14Z</time>
      </trkpt>
      <trkpt lat="48.72915" lon="1.81653">
        <ele>188.6</ele>
        <time>2026-01-13T11:49:15Z</time>
      </trkpt>
      <trkpt lat="48.72917" lon="1.81642">
        <ele>188.6</ele>
        <time>2026-01-13T11:49:16Z</time>
      </trkpt>
      <trkpt lat="48.7292" lon="1.81634">
        <ele>188.6</ele>
        <time>2026-01-13T11:49:17Z</time>
      </trkpt>
      <trkpt lat="48.72923" lon="1.81625">
        <ele>188.6</ele>
        <time>2026-01-13T11:49:18Z</time>
      </trkpt>
      <trkpt lat="48.72925" lon="1.81615">
        <ele>189.4</ele>
        <time>2026-01-13T11:49:19Z</time>
      </trkpt>
      <trkpt lat="48.72928" lon="1.81605">
        <ele>189.4</ele>
        <time>2026-01-13T11:49:20Z</time>
      </trkpt>
      <trkpt lat="48.72932" lon="1.81594">
        <ele>189.4</ele>
        <time>2026-01-13T11:49:21Z</time>
      </trkpt>
      <trkpt lat="48.72934" lon="1.81584">
        <ele>189.4</ele>
        <time>2026-01-13T11:49:22Z</time>
      </trkpt>
      <trkpt lat="48.72937" lon="1.81576">
        <ele>189.4</ele>
        <time>2026-01-13T11:49:23Z</time>
      </trkpt>
      <trkpt lat="48.72939" lon="1.81567">
        <ele>189.4</ele>
        <time>2026-01-13T11:49:24Z</time>
      </trkpt>
      <trkpt lat="48.72941" lon="1.81557">
        <ele>189.4</ele>
        <time>2026-01-13T11:49:25Z</time>
      </trkpt>
      <trkpt lat="48.72944" lon="1.81548">
        <ele>189.4</ele>
        <time>2026-01-13T11:49:26Z</time>
      </trkpt>
      <trkpt lat="48.72946" lon="1.8154">
        <ele>190.4</ele>
        <time>2026-01-13T11:49:27Z</time>
      </trkpt>
      <trkpt lat="48.72949" lon="1.81533">
        <ele>190.4</ele>
        <time>2026-01-13T11:49:28Z</time>
      </trkpt>
      <trkpt lat="48.72952" lon="1.81524">
        <ele>190.4</ele>
        <time>2026-01-13T11:49:29Z</time>
      </trkpt>
      <trkpt lat="48.72955" lon="1.81515">
        <ele>190.4</ele>
        <time>2026-01-13T11:49:30Z</time>
      </trkpt>
      <trkpt lat="48.72957" lon="1.81507">
        <ele>190.4</ele>
        <time>2026-01-13T11:49:31Z</time>
      </trkpt>
      <trkpt lat="48.7296" lon="1.81499">
        <ele>190.4</ele>
        <time>2026-01-13T11:49:32Z</time>
      </trkpt>
      <trkpt lat="48.72962" lon="1.8149">
        <ele>190.8</ele>
        <time>2026-01-13T11:49:33Z</time>
      </trkpt>
      <trkpt lat="48.72965" lon="1.81481">
        <ele>190.8</ele>
        <time>2026-01-13T11:49:34Z</time>
      </trkpt>
      <trkpt lat="48.72967" lon="1.81473">
        <ele>190.8</ele>
        <time>2026-01-13T11:49:35Z</time>
      </trkpt>
      <trkpt lat="48.7297" lon="1.81464">
        <ele>190.4</ele>
        <time>2026-01-13T11:49:36Z</time>
      </trkpt>
      <trkpt lat="48.72972" lon="1.81456">
        <ele>190.4</ele>
        <time>2026-01-13T11:49:37Z</time>
      </trkpt>
      <trkpt lat="48.72975" lon="1.81448">
        <ele>190.4</ele>
        <time>2026-01-13T11:49:38Z</time>
      </trkpt>
      <trkpt lat="48.72977" lon="1.81439">
        <ele>190.4</ele>
        <time>2026-01-13T11:49:39Z</time>
      </trkpt>
      <trkpt lat="48.72979" lon="1.81432">
        <ele>190.4</ele>
        <time>2026-01-13T11:49:40Z</time>
      </trkpt>
      <trkpt lat="48.72981" lon="1.81423">
        <ele>191.4</ele>
        <time>2026-01-13T11:49:41Z</time>
      </trkpt>
      <trkpt lat="48.72983" lon="1.81414">
        <ele>191.4</ele>
        <time>2026-01-13T11:49:42Z</time>
      </trkpt>
      <trkpt lat="48.72985" lon="1.81406">
        <ele>191.4</ele>
        <time>2026-01-13T11:49:43Z</time>
      </trkpt>
      <trkpt lat="48.72987" lon="1.81395">
        <ele>191.4</ele>
        <time>2026-01-13T11:49:44Z</time>
      </trkpt>
      <trkpt lat="48.72989" lon="1.81385">
        <ele>191.4</ele>
        <time>2026-01-13T11:49:45Z</time>
      </trkpt>
      <trkpt lat="48.72992" lon="1.81376">
        <ele>191.6</ele>
        <time>2026-01-13T11:49:46Z</time>
      </trkpt>
      <trkpt lat="48.72994" lon="1.81367">
        <ele>191.6</ele>
        <time>2026-01-13T11:49:47Z</time>
      </trkpt>
      <trkpt lat="48.72996" lon="1.81359">
        <ele>191.6</ele>
        <time>2026-01-13T11:49:48Z</time>
      </trkpt>
      <trkpt lat="48.72999" lon="1.8135">
        <ele>191.6</ele>
        <time>2026-01-13T11:49:49Z</time>
      </trkpt>
      <trkpt lat="48.73001" lon="1.81341">
        <ele>191.6</ele>
        <time>2026-01-13T11:49:50Z</time>
      </trkpt>
      <trkpt lat="48.73003" lon="1.81332">
        <ele>191.6</ele>
        <time>2026-01-13T11:49:51Z</time>
      </trkpt>
      <trkpt lat="48.73006" lon="1.81323">
        <ele>191.4</ele>
        <time>2026-01-13T11:49:52Z</time>
      </trkpt>
      <trkpt lat="48.73008" lon="1.81313">
        <ele>191.2</ele>
        <time>2026-01-13T11:49:53Z</time>
      </trkpt>
      <trkpt lat="48.73011" lon="1.81305">
        <ele>190.8</ele>
        <time>2026-01-13T11:49:54Z</time>
      </trkpt>
      <trkpt lat="48.73013" lon="1.81298">
        <ele>190.8</ele>
        <time>2026-01-13T11:49:55Z</time>
      </trkpt>
      <trkpt lat="48.73015" lon="1.8129">
        <ele>190.8</ele>
        <time>2026-01-13T11:49:56Z</time>
      </trkpt>
      <trkpt lat="48.73017" lon="1.81282">
        <ele>190.8</ele>
        <time>2026-01-13T11:49:57Z</time>
      </trkpt>
      <trkpt lat="48.7302" lon="1.81273">
        <ele>190.8</ele>
        <time>2026-01-13T11:49:58Z</time>
      </trkpt>
      <trkpt lat="48.73022" lon="1.81263">
        <ele>190.8</ele>
        <time>2026-01-13T11:49:59Z</time>
      </trkpt>
      <trkpt lat="48.73024" lon="1.81255">
        <ele>191.8</ele>
        <time>2026-01-13T11:50:00Z</time>
      </trkpt>
      <trkpt lat="48.73027" lon="1.81245">
        <ele>191.8</ele>
        <time>2026-01-13T11:50:01Z</time>
      </trkpt>
      <trkpt lat="48.73029" lon="1.81236">
        <ele>191.8</ele>
        <time>2026-01-13T11:50:02Z</time>
      </trkpt>
      <trkpt lat="48.73032" lon="1.81227">
        <ele>191.8</ele>
        <time>2026-01-13T11:50:03Z</time>
      </trkpt>
      <trkpt lat="48.73034" lon="1.8122">
        <ele>191.8</ele>
        <time>2026-01-13T11:50:04Z</time>
      </trkpt>
      <trkpt lat="48.73037" lon="1.81212">
        <ele>191.8</ele>
        <time>2026-01-13T11:50:05Z</time>
      </trkpt>
      <trkpt lat="48.73038" lon="1.81202">
        <ele>191.2</ele>
        <time>2026-01-13T11:50:06Z</time>
      </trkpt>
      <trkpt lat="48.73041" lon="1.81192">
        <ele>190.8</ele>
        <time>2026-01-13T11:50:07Z</time>
      </trkpt>
      <trkpt lat="48.73044" lon="1.81184">
        <ele>190.8</ele>
        <time>2026-01-13T11:50:08Z</time>
      </trkpt>
      <trkpt lat="48.73046" lon="1.81177">
        <ele>190.8</ele>
        <time>2026-01-13T11:50:09Z</time>
      </trkpt>
      <trkpt lat="48.73049" lon="1.8117">
        <ele>191</ele>
        <time>2026-01-13T11:50:10Z</time>
      </trkpt>
      <trkpt lat="48.73051" lon="1.81161">
        <ele>191.2</ele>
        <time>2026-01-13T11:50:11Z</time>
      </trkpt>
      <trkpt lat="48.73053" lon="1.81153">
        <ele>191.4</ele>
        <time>2026-01-13T11:50:12Z</time>
      </trkpt>
      <trkpt lat="48.73056" lon="1.81144">
        <ele>191.4</ele>
        <time>2026-01-13T11:50:13Z</time>
      </trkpt>
      <trkpt lat="48.73058" lon="1.81136">
        <ele>191.4</ele>
        <time>2026-01-13T11:50:14Z</time>
      </trkpt>
      <trkpt lat="48.7306" lon="1.81127">
        <ele>191.4</ele>
        <time>2026-01-13T11:50:15Z</time>
      </trkpt>
      <trkpt lat="48.73062" lon="1.81118">
        <ele>191.4</ele>
        <time>2026-01-13T11:50:16Z</time>
      </trkpt>
      <trkpt lat="48.73064" lon="1.8111">
        <ele>191.4</ele>
        <time>2026-01-13T11:50:17Z</time>
      </trkpt>
      <trkpt lat="48.73067" lon="1.81101">
        <ele>191.4</ele>
        <time>2026-01-13T11:50:18Z</time>
      </trkpt>
      <trkpt lat="48.7307" lon="1.81091">
        <ele>191.4</ele>
        <time>2026-01-13T11:50:19Z</time>
      </trkpt>
      <trkpt lat="48.73073" lon="1.81081">
        <ele>190.6</ele>
        <time>2026-01-13T11:50:20Z</time>
      </trkpt>
      <trkpt lat="48.73076" lon="1.81071">
        <ele>190.6</ele>
        <time>2026-01-13T11:50:21Z</time>
      </trkpt>
      <trkpt lat="48.73078" lon="1.81061">
        <ele>190.6</ele>
        <time>2026-01-13T11:50:22Z</time>
      </trkpt>
      <trkpt lat="48.73081" lon="1.81051">
        <ele>190.6</ele>
        <time>2026-01-13T11:50:23Z</time>
      </trkpt>
      <trkpt lat="48.73084" lon="1.81041">
        <ele>190.6</ele>
        <time>2026-01-13T11:50:24Z</time>
      </trkpt>
      <trkpt lat="48.73087" lon="1.81031">
        <ele>190.6</ele>
        <time>2026-01-13T11:50:25Z</time>
      </trkpt>
      <trkpt lat="48.7309" lon="1.81021">
        <ele>191.4</ele>
        <time>2026-01-13T11:50:26Z</time>
      </trkpt>
      <trkpt lat="48.73092" lon="1.81012">
        <ele>191.4</ele>
        <time>2026-01-13T11:50:27Z</time>
      </trkpt>
      <trkpt lat="48.73095" lon="1.81003">
        <ele>192</ele>
        <time>2026-01-13T11:50:28Z</time>
      </trkpt>
      <trkpt lat="48.73098" lon="1.80995">
        <ele>192.2</ele>
        <time>2026-01-13T11:50:29Z</time>
      </trkpt>
      <trkpt lat="48.731" lon="1.80985">
        <ele>192.2</ele>
        <time>2026-01-13T11:50:30Z</time>
      </trkpt>
      <trkpt lat="48.73104" lon="1.80973">
        <ele>192.2</ele>
        <time>2026-01-13T11:50:31Z</time>
      </trkpt>
      <trkpt lat="48.73106" lon="1.80964">
        <ele>192.2</ele>
        <time>2026-01-13T11:50:32Z</time>
      </trkpt>
      <trkpt lat="48.73109" lon="1.80955">
        <ele>192.2</ele>
        <time>2026-01-13T11:50:33Z</time>
      </trkpt>
      <trkpt lat="48.73111" lon="1.80947">
        <ele>192.2</ele>
        <time>2026-01-13T11:50:34Z</time>
      </trkpt>
      <trkpt lat="48.73114" lon="1.80938">
        <ele>192.2</ele>
        <time>2026-01-13T11:50:35Z</time>
      </trkpt>
      <trkpt lat="48.73117" lon="1.80927">
        <ele>192.2</ele>
        <time>2026-01-13T11:50:36Z</time>
      </trkpt>
      <trkpt lat="48.7312" lon="1.80917">
        <ele>192.2</ele>
        <time>2026-01-13T11:50:37Z</time>
      </trkpt>
      <trkpt lat="48.73122" lon="1.80907">
        <ele>192.2</ele>
        <time>2026-01-13T11:50:38Z</time>
      </trkpt>
      <trkpt lat="48.73125" lon="1.80899">
        <ele>192.2</ele>
        <time>2026-01-13T11:50:39Z</time>
      </trkpt>
      <trkpt lat="48.73127" lon="1.80888">
        <ele>192.8</ele>
        <time>2026-01-13T11:50:40Z</time>
      </trkpt>
      <trkpt lat="48.7313" lon="1.80876">
        <ele>192.8</ele>
        <time>2026-01-13T11:50:41Z</time>
      </trkpt>
      <trkpt lat="48.73132" lon="1.80867">
        <ele>192.8</ele>
        <time>2026-01-13T11:50:42Z</time>
      </trkpt>
      <trkpt lat="48.73135" lon="1.80859">
        <ele>192</ele>
        <time>2026-01-13T11:50:43Z</time>
      </trkpt>
      <trkpt lat="48.73137" lon="1.80849">
        <ele>192</ele>
        <time>2026-01-13T11:50:44Z</time>
      </trkpt>
      <trkpt lat="48.7314" lon="1.80839">
        <ele>192</ele>
        <time>2026-01-13T11:50:45Z</time>
      </trkpt>
      <trkpt lat="48.73142" lon="1.80829">
        <ele>193</ele>
        <time>2026-01-13T11:50:46Z</time>
      </trkpt>
      <trkpt lat="48.73145" lon="1.8082">
        <ele>193</ele>
        <time>2026-01-13T11:50:47Z</time>
      </trkpt>
      <trkpt lat="48.73148" lon="1.80811">
        <ele>193</ele>
        <time>2026-01-13T11:50:48Z</time>
      </trkpt>
      <trkpt lat="48.7315" lon="1.80802">
        <ele>192.6</ele>
        <time>2026-01-13T11:50:49Z</time>
      </trkpt>
      <trkpt lat="48.73152" lon="1.80793">
        <ele>192.4</ele>
        <time>2026-01-13T11:50:50Z</time>
      </trkpt>
      <trkpt lat="48.73155" lon="1.80785">
        <ele>192.4</ele>
        <time>2026-01-13T11:50:51Z</time>
      </trkpt>
      <trkpt lat="48.73158" lon="1.80775">
        <ele>192.4</ele>
        <time>2026-01-13T11:50:52Z</time>
      </trkpt>
      <trkpt lat="48.7316" lon="1.80767">
        <ele>192.4</ele>
        <time>2026-01-13T11:50:53Z</time>
      </trkpt>
      <trkpt lat="48.73163" lon="1.80757">
        <ele>192.4</ele>
        <time>2026-01-13T11:50:54Z</time>
      </trkpt>
      <trkpt lat="48.73165" lon="1.80747">
        <ele>192.4</ele>
        <time>2026-01-13T11:50:55Z</time>
      </trkpt>
      <trkpt lat="48.73168" lon="1.80738">
        <ele>192.6</ele>
        <time>2026-01-13T11:50:56Z</time>
      </trkpt>
      <trkpt lat="48.73171" lon="1.80728">
        <ele>192.6</ele>
        <time>2026-01-13T11:50:57Z</time>
      </trkpt>
      <trkpt lat="48.73173" lon="1.8072">
        <ele>193</ele>
        <time>2026-01-13T11:50:58Z</time>
      </trkpt>
      <trkpt lat="48.73176" lon="1.80711">
        <ele>193</ele>
        <time>2026-01-13T11:50:59Z</time>
      </trkpt>
      <trkpt lat="48.73178" lon="1.80702">
        <ele>193</ele>
        <time>2026-01-13T11:51:00Z</time>
      </trkpt>
      <trkpt lat="48.7318" lon="1.80694">
        <ele>192</ele>
        <time>2026-01-13T11:51:01Z</time>
      </trkpt>
      <trkpt lat="48.73183" lon="1.80687">
        <ele>192</ele>
        <time>2026-01-13T11:51:02Z</time>
      </trkpt>
      <trkpt lat="48.73185" lon="1.80678">
        <ele>192</ele>
        <time>2026-01-13T11:51:03Z</time>
      </trkpt>
      <trkpt lat="48.73187" lon="1.80668">
        <ele>192</ele>
        <time>2026-01-13T11:51:04Z</time>
      </trkpt>
      <trkpt lat="48.73191" lon="1.80659">
        <ele>191.6</ele>
        <time>2026-01-13T11:51:05Z</time>
      </trkpt>
      <trkpt lat="48.73193" lon="1.8065">
        <ele>191.6</ele>
        <time>2026-01-13T11:51:06Z</time>
      </trkpt>
      <trkpt lat="48.73196" lon="1.80641">
        <ele>191.6</ele>
        <time>2026-01-13T11:51:07Z</time>
      </trkpt>
      <trkpt lat="48.73198" lon="1.80634">
        <ele>191.6</ele>
        <time>2026-01-13T11:51:08Z</time>
      </trkpt>
      <trkpt lat="48.73201" lon="1.80627">
        <ele>191.6</ele>
        <time>2026-01-13T11:51:09Z</time>
      </trkpt>
      <trkpt lat="48.73204" lon="1.80618">
        <ele>192.6</ele>
        <time>2026-01-13T11:51:10Z</time>
      </trkpt>
      <trkpt lat="48.73205" lon="1.80609">
        <ele>192.6</ele>
        <time>2026-01-13T11:51:11Z</time>
      </trkpt>
      <trkpt lat="48.73208" lon="1.80599">
        <ele>192.6</ele>
        <time>2026-01-13T11:51:12Z</time>
      </trkpt>
      <trkpt lat="48.73211" lon="1.8059">
        <ele>192.6</ele>
        <time>2026-01-13T11:51:13Z</time>
      </trkpt>
      <trkpt lat="48.73213" lon="1.80581">
        <ele>192.6</ele>
        <time>2026-01-13T11:51:14Z</time>
      </trkpt>
      <trkpt lat="48.73216" lon="1.80569">
        <ele>192.6</ele>
        <time>2026-01-13T11:51:15Z</time>
      </trkpt>
      <trkpt lat="48.73217" lon="1.80559">
        <ele>192.6</ele>
        <time>2026-01-13T11:51:16Z</time>
      </trkpt>
      <trkpt lat="48.73216" lon="1.80549">
        <ele>192.6</ele>
        <time>2026-01-13T11:51:17Z</time>
      </trkpt>
      <trkpt lat="48.73214" lon="1.80538">
        <ele>192.6</ele>
        <time>2026-01-13T11:51:18Z</time>
      </trkpt>
      <trkpt lat="48.73211" lon="1.80529">
        <ele>192.6</ele>
        <time>2026-01-13T11:51:19Z</time>
      </trkpt>
      <trkpt lat="48.73207" lon="1.80522">
        <ele>192.4</ele>
        <time>2026-01-13T11:51:20Z</time>
      </trkpt>
      <trkpt lat="48.73202" lon="1.80513">
        <ele>192</ele>
        <time>2026-01-13T11:51:21Z</time>
      </trkpt>
      <trkpt lat="48.73197" lon="1.80506">
        <ele>191.6</ele>
        <time>2026-01-13T11:51:22Z</time>
      </trkpt>
      <trkpt lat="48.73192" lon="1.80501">
        <ele>191.4</ele>
        <time>2026-01-13T11:51:23Z</time>
      </trkpt>
      <trkpt lat="48.73187" lon="1.80495">
        <ele>190.8</ele>
        <time>2026-01-13T11:51:24Z</time>
      </trkpt>
      <trkpt lat="48.73181" lon="1.80488">
        <ele>190.8</ele>
        <time>2026-01-13T11:51:25Z</time>
      </trkpt>
      <trkpt lat="48.73175" lon="1.80479">
        <ele>190.8</ele>
        <time>2026-01-13T11:51:26Z</time>
      </trkpt>
      <trkpt lat="48.7317" lon="1.80472">
        <ele>190.8</ele>
        <time>2026-01-13T11:51:27Z</time>
      </trkpt>
      <trkpt lat="48.73165" lon="1.80463">
        <ele>190.8</ele>
        <time>2026-01-13T11:51:28Z</time>
      </trkpt>
      <trkpt lat="48.73159" lon="1.80456">
        <ele>190</ele>
        <time>2026-01-13T11:51:29Z</time>
      </trkpt>
      <trkpt lat="48.73154" lon="1.80447">
        <ele>190</ele>
        <time>2026-01-13T11:51:30Z</time>
      </trkpt>
      <trkpt lat="48.73148" lon="1.8044">
        <ele>190</ele>
        <time>2026-01-13T11:51:31Z</time>
      </trkpt>
      <trkpt lat="48.73143" lon="1.80433">
        <ele>191</ele>
        <time>2026-01-13T11:51:32Z</time>
      </trkpt>
      <trkpt lat="48.73137" lon="1.80427">
        <ele>191</ele>
        <time>2026-01-13T11:51:33Z</time>
      </trkpt>
      <trkpt lat="48.7313" lon="1.8042">
        <ele>191</ele>
        <time>2026-01-13T11:51:34Z</time>
      </trkpt>
      <trkpt lat="48.73124" lon="1.80415">
        <ele>190.2</ele>
        <time>2026-01-13T11:51:35Z</time>
      </trkpt>
      <trkpt lat="48.73118" lon="1.80409">
        <ele>189.2</ele>
        <time>2026-01-13T11:51:36Z</time>
      </trkpt>
      <trkpt lat="48.73112" lon="1.80404">
        <ele>189</ele>
        <time>2026-01-13T11:51:37Z</time>
      </trkpt>
      <trkpt lat="48.73107" lon="1.80399">
        <ele>189</ele>
        <time>2026-01-13T11:51:38Z</time>
      </trkpt>
      <trkpt lat="48.73101" lon="1.80394">
        <ele>189</ele>
        <time>2026-01-13T11:51:39Z</time>
      </trkpt>
      <trkpt lat="48.73095" lon="1.80389">
        <ele>190</ele>
        <time>2026-01-13T11:51:40Z</time>
      </trkpt>
      <trkpt lat="48.73091" lon="1.80384">
        <ele>190</ele>
        <time>2026-01-13T11:51:41Z</time>
      </trkpt>
      <trkpt lat="48.73085" lon="1.80379">
        <ele>190</ele>
        <time>2026-01-13T11:51:42Z</time>
      </trkpt>
      <trkpt lat="48.73079" lon="1.80375">
        <ele>190</ele>
        <time>2026-01-13T11:51:43Z</time>
      </trkpt>
      <trkpt lat="48.73072" lon="1.80371">
        <ele>190</ele>
        <time>2026-01-13T11:51:44Z</time>
      </trkpt>
      <trkpt lat="48.73066" lon="1.80367">
        <ele>189.6</ele>
        <time>2026-01-13T11:51:45Z</time>
      </trkpt>
      <trkpt lat="48.73059" lon="1.80362">
        <ele>188.6</ele>
        <time>2026-01-13T11:51:46Z</time>
      </trkpt>
      <trkpt lat="48.73052" lon="1.80357">
        <ele>187.8</ele>
        <time>2026-01-13T11:51:47Z</time>
      </trkpt>
      <trkpt lat="48.73046" lon="1.80354">
        <ele>186.8</ele>
        <time>2026-01-13T11:51:48Z</time>
      </trkpt>
      <trkpt lat="48.73039" lon="1.8035">
        <ele>186.4</ele>
        <time>2026-01-13T11:51:49Z</time>
      </trkpt>
      <trkpt lat="48.73032" lon="1.80345">
        <ele>185.4</ele>
        <time>2026-01-13T11:51:50Z</time>
      </trkpt>
      <trkpt lat="48.73025" lon="1.8034">
        <ele>184.4</ele>
        <time>2026-01-13T11:51:51Z</time>
      </trkpt>
      <trkpt lat="48.73018" lon="1.80335">
        <ele>183.4</ele>
        <time>2026-01-13T11:51:52Z</time>
      </trkpt>
      <trkpt lat="48.73012" lon="1.80331">
        <ele>182.4</ele>
        <time>2026-01-13T11:51:53Z</time>
      </trkpt>
      <trkpt lat="48.73005" lon="1.80327">
        <ele>181.8</ele>
        <time>2026-01-13T11:51:54Z</time>
      </trkpt>
      <trkpt lat="48.72999" lon="1.80322">
        <ele>181.8</ele>
        <time>2026-01-13T11:51:55Z</time>
      </trkpt>
      <trkpt lat="48.72992" lon="1.80318">
        <ele>181.8</ele>
        <time>2026-01-13T11:51:56Z</time>
      </trkpt>
      <trkpt lat="48.72985" lon="1.80315">
        <ele>181.8</ele>
        <time>2026-01-13T11:51:57Z</time>
      </trkpt>
      <trkpt lat="48.72979" lon="1.80311">
        <ele>181.8</ele>
        <time>2026-01-13T11:51:58Z</time>
      </trkpt>
      <trkpt lat="48.72974" lon="1.80307">
        <ele>181.8</ele>
        <time>2026-01-13T11:51:59Z</time>
      </trkpt>
      <trkpt lat="48.72971" lon="1.80301">
        <ele>182.8</ele>
        <time>2026-01-13T11:52:00Z</time>
      </trkpt>
      <trkpt lat="48.7297" lon="1.80295">
        <ele>183.8</ele>
        <time>2026-01-13T11:52:01Z</time>
      </trkpt>
      <trkpt lat="48.7297" lon="1.80289">
        <ele>184.4</ele>
        <time>2026-01-13T11:52:02Z</time>
      </trkpt>
      <trkpt lat="48.72972" lon="1.80284">
        <ele>184.4</ele>
        <time>2026-01-13T11:52:03Z</time>
      </trkpt>
      <trkpt lat="48.72974" lon="1.80278">
        <ele>184.4</ele>
        <time>2026-01-13T11:52:04Z</time>
      </trkpt>
      <trkpt lat="48.72976" lon="1.80273">
        <ele>184.4</ele>
        <time>2026-01-13T11:52:05Z</time>
      </trkpt>
      <trkpt lat="48.72978" lon="1.80269">
        <ele>184.4</ele>
        <time>2026-01-13T11:52:06Z</time>
      </trkpt>
      <trkpt lat="48.7298" lon="1.80263">
        <ele>184.4</ele>
        <time>2026-01-13T11:52:07Z</time>
      </trkpt>
      <trkpt lat="48.72982" lon="1.80258">
        <ele>184.4</ele>
        <time>2026-01-13T11:52:08Z</time>
      </trkpt>
      <trkpt lat="48.72984" lon="1.80251">
        <ele>184.4</ele>
        <time>2026-01-13T11:52:09Z</time>
      </trkpt>
      <trkpt lat="48.72987" lon="1.80243">
        <ele>184.4</ele>
        <time>2026-01-13T11:52:10Z</time>
      </trkpt>
      <trkpt lat="48.72989" lon="1.80235">
        <ele>184.4</ele>
        <time>2026-01-13T11:52:11Z</time>
      </trkpt>
      <trkpt lat="48.72992" lon="1.80227">
        <ele>184.4</ele>
        <time>2026-01-13T11:52:12Z</time>
      </trkpt>
      <trkpt lat="48.72995" lon="1.8022">
        <ele>184.8</ele>
        <time>2026-01-13T11:52:13Z</time>
      </trkpt>
      <trkpt lat="48.72997" lon="1.80214">
        <ele>184.8</ele>
        <time>2026-01-13T11:52:14Z</time>
      </trkpt>
      <trkpt lat="48.73" lon="1.80206">
        <ele>184.8</ele>
        <time>2026-01-13T11:52:15Z</time>
      </trkpt>
      <trkpt lat="48.73002" lon="1.80198">
        <ele>184</ele>
        <time>2026-01-13T11:52:16Z</time>
      </trkpt>
      <trkpt lat="48.73005" lon="1.80192">
        <ele>184</ele>
        <time>2026-01-13T11:52:17Z</time>
      </trkpt>
      <trkpt lat="48.73008" lon="1.80184">
        <ele>184</ele>
        <time>2026-01-13T11:52:18Z</time>
      </trkpt>
      <trkpt lat="48.7301" lon="1.80176">
        <ele>184.8</ele>
        <time>2026-01-13T11:52:19Z</time>
      </trkpt>
      <trkpt lat="48.73013" lon="1.80167">
        <ele>185.2</ele>
        <time>2026-01-13T11:52:20Z</time>
      </trkpt>
      <trkpt lat="48.73016" lon="1.8016">
        <ele>185.2</ele>
        <time>2026-01-13T11:52:21Z</time>
      </trkpt>
      <trkpt lat="48.73019" lon="1.80152">
        <ele>185.2</ele>
        <time>2026-01-13T11:52:22Z</time>
      </trkpt>
      <trkpt lat="48.73023" lon="1.80145">
        <ele>185.2</ele>
        <time>2026-01-13T11:52:23Z</time>
      </trkpt>
      <trkpt lat="48.73025" lon="1.80138">
        <ele>185.2</ele>
        <time>2026-01-13T11:52:24Z</time>
      </trkpt>
      <trkpt lat="48.73029" lon="1.80131">
        <ele>185.2</ele>
        <time>2026-01-13T11:52:25Z</time>
      </trkpt>
      <trkpt lat="48.73032" lon="1.80123">
        <ele>185.2</ele>
        <time>2026-01-13T11:52:26Z</time>
      </trkpt>
      <trkpt lat="48.73035" lon="1.80116">
        <ele>185.2</ele>
        <time>2026-01-13T11:52:27Z</time>
      </trkpt>
      <trkpt lat="48.73037" lon="1.8011">
        <ele>185.2</ele>
        <time>2026-01-13T11:52:28Z</time>
      </trkpt>
      <trkpt lat="48.7304" lon="1.80103">
        <ele>184.6</ele>
        <time>2026-01-13T11:52:29Z</time>
      </trkpt>
      <trkpt lat="48.73042" lon="1.80096">
        <ele>184</ele>
        <time>2026-01-13T11:52:30Z</time>
      </trkpt>
      <trkpt lat="48.73044" lon="1.80086">
        <ele>184</ele>
        <time>2026-01-13T11:52:31Z</time>
      </trkpt>
      <trkpt lat="48.73047" lon="1.80078">
        <ele>184</ele>
        <time>2026-01-13T11:52:32Z</time>
      </trkpt>
      <trkpt lat="48.7305" lon="1.8007">
        <ele>184.2</ele>
        <time>2026-01-13T11:52:33Z</time>
      </trkpt>
      <trkpt lat="48.73053" lon="1.80061">
        <ele>185.2</ele>
        <time>2026-01-13T11:52:34Z</time>
      </trkpt>
      <trkpt lat="48.73055" lon="1.80054">
        <ele>185.2</ele>
        <time>2026-01-13T11:52:35Z</time>
      </trkpt>
      <trkpt lat="48.73059" lon="1.80048">
        <ele>185.2</ele>
        <time>2026-01-13T11:52:36Z</time>
      </trkpt>
      <trkpt lat="48.73063" lon="1.80038">
        <ele>184.6</ele>
        <time>2026-01-13T11:52:37Z</time>
      </trkpt>
      <trkpt lat="48.73065" lon="1.80032">
        <ele>184.6</ele>
        <time>2026-01-13T11:52:38Z</time>
      </trkpt>
      <trkpt lat="48.73069" lon="1.80022">
        <ele>184.6</ele>
        <time>2026-01-13T11:52:39Z</time>
      </trkpt>
      <trkpt lat="48.73072" lon="1.80014">
        <ele>185.4</ele>
        <time>2026-01-13T11:52:40Z</time>
      </trkpt>
      <trkpt lat="48.73075" lon="1.80005">
        <ele>185.4</ele>
        <time>2026-01-13T11:52:41Z</time>
      </trkpt>
      <trkpt lat="48.73078" lon="1.79998">
        <ele>185.4</ele>
        <time>2026-01-13T11:52:42Z</time>
      </trkpt>
      <trkpt lat="48.7308" lon="1.79989">
        <ele>185.4</ele>
        <time>2026-01-13T11:52:43Z</time>
      </trkpt>
      <trkpt lat="48.73083" lon="1.7998">
        <ele>185.4</ele>
        <time>2026-01-13T11:52:44Z</time>
      </trkpt>
      <trkpt lat="48.73087" lon="1.79969">
        <ele>185.4</ele>
        <time>2026-01-13T11:52:45Z</time>
      </trkpt>
      <trkpt lat="48.7309" lon="1.7996">
        <ele>185.4</ele>
        <time>2026-01-13T11:52:46Z</time>
      </trkpt>
      <trkpt lat="48.73092" lon="1.79952">
        <ele>185.4</ele>
        <time>2026-01-13T11:52:47Z</time>
      </trkpt>
      <trkpt lat="48.73095" lon="1.79943">
        <ele>185.4</ele>
        <time>2026-01-13T11:52:48Z</time>
      </trkpt>
      <trkpt lat="48.73098" lon="1.79933">
        <ele>185.4</ele>
        <time>2026-01-13T11:52:49Z</time>
      </trkpt>
      <trkpt lat="48.73101" lon="1.79919">
        <ele>185.4</ele>
        <time>2026-01-13T11:52:50Z</time>
      </trkpt>
      <trkpt lat="48.73104" lon="1.79906">
        <ele>184.6</ele>
        <time>2026-01-13T11:52:51Z</time>
      </trkpt>
      <trkpt lat="48.73107" lon="1.79897">
        <ele>184</ele>
        <time>2026-01-13T11:52:52Z</time>
      </trkpt>
      <trkpt lat="48.73111" lon="1.79889">
        <ele>184</ele>
        <time>2026-01-13T11:52:53Z</time>
      </trkpt>
      <trkpt lat="48.73114" lon="1.79879">
        <ele>184</ele>
        <time>2026-01-13T11:52:54Z</time>
      </trkpt>
      <trkpt lat="48.73118" lon="1.79871">
        <ele>184.6</ele>
        <time>2026-01-13T11:52:55Z</time>
      </trkpt>
      <trkpt lat="48.73122" lon="1.7986">
        <ele>184.6</ele>
        <time>2026-01-13T11:52:56Z</time>
      </trkpt>
      <trkpt lat="48.73125" lon="1.79851">
        <ele>184.6</ele>
        <time>2026-01-13T11:52:57Z</time>
      </trkpt>
      <trkpt lat="48.73128" lon="1.79843">
        <ele>183.6</ele>
        <time>2026-01-13T11:52:58Z</time>
      </trkpt>
      <trkpt lat="48.73132" lon="1.79833">
        <ele>182.8</ele>
        <time>2026-01-13T11:52:59Z</time>
      </trkpt>
      <trkpt lat="48.73136" lon="1.79824">
        <ele>182.8</ele>
        <time>2026-01-13T11:53:00Z</time>
      </trkpt>
      <trkpt lat="48.73139" lon="1.79816">
        <ele>182.8</ele>
        <time>2026-01-13T11:53:01Z</time>
      </trkpt>
      <trkpt lat="48.73142" lon="1.79809">
        <ele>183.6</ele>
        <time>2026-01-13T11:53:02Z</time>
      </trkpt>
      <trkpt lat="48.73145" lon="1.798">
        <ele>183.6</ele>
        <time>2026-01-13T11:53:03Z</time>
      </trkpt>
      <trkpt lat="48.73149" lon="1.79789">
        <ele>183.6</ele>
        <time>2026-01-13T11:53:04Z</time>
      </trkpt>
      <trkpt lat="48.73152" lon="1.79778">
        <ele>183.6</ele>
        <time>2026-01-13T11:53:05Z</time>
      </trkpt>
      <trkpt lat="48.73155" lon="1.79766">
        <ele>183.6</ele>
        <time>2026-01-13T11:53:06Z</time>
      </trkpt>
      <trkpt lat="48.73158" lon="1.79756">
        <ele>183.6</ele>
        <time>2026-01-13T11:53:07Z</time>
      </trkpt>
      <trkpt lat="48.7316" lon="1.79745">
        <ele>183.6</ele>
        <time>2026-01-13T11:53:08Z</time>
      </trkpt>
      <trkpt lat="48.73162" lon="1.79734">
        <ele>183.6</ele>
        <time>2026-01-13T11:53:09Z</time>
      </trkpt>
      <trkpt lat="48.73164" lon="1.79724">
        <ele>182.6</ele>
        <time>2026-01-13T11:53:10Z</time>
      </trkpt>
      <trkpt lat="48.73166" lon="1.79714">
        <ele>182.6</ele>
        <time>2026-01-13T11:53:11Z</time>
      </trkpt>
      <trkpt lat="48.73168" lon="1.79703">
        <ele>182.6</ele>
        <time>2026-01-13T11:53:12Z</time>
      </trkpt>
      <trkpt lat="48.7317" lon="1.79693">
        <ele>182.6</ele>
        <time>2026-01-13T11:53:13Z</time>
      </trkpt>
      <trkpt lat="48.73172" lon="1.79682">
        <ele>182.6</ele>
        <time>2026-01-13T11:53:14Z</time>
      </trkpt>
      <trkpt lat="48.73174" lon="1.79672">
        <ele>182.6</ele>
        <time>2026-01-13T11:53:15Z</time>
      </trkpt>
      <trkpt lat="48.73177" lon="1.79662">
        <ele>183.6</ele>
        <time>2026-01-13T11:53:16Z</time>
      </trkpt>
      <trkpt lat="48.7318" lon="1.79653">
        <ele>183.6</ele>
        <time>2026-01-13T11:53:17Z</time>
      </trkpt>
      <trkpt lat="48.73183" lon="1.79643">
        <ele>183.6</ele>
        <time>2026-01-13T11:53:18Z</time>
      </trkpt>
      <trkpt lat="48.73186" lon="1.79633">
        <ele>183.6</ele>
        <time>2026-01-13T11:53:19Z</time>
      </trkpt>
      <trkpt lat="48.73189" lon="1.79624">
        <ele>183.6</ele>
        <time>2026-01-13T11:53:20Z</time>
      </trkpt>
      <trkpt lat="48.73193" lon="1.79616">
        <ele>183.6</ele>
        <time>2026-01-13T11:53:21Z</time>
      </trkpt>
      <trkpt lat="48.73196" lon="1.79607">
        <ele>183.6</ele>
        <time>2026-01-13T11:53:22Z</time>
      </trkpt>
      <trkpt lat="48.73199" lon="1.79599">
        <ele>183.6</ele>
        <time>2026-01-13T11:53:23Z</time>
      </trkpt>
      <trkpt lat="48.73202" lon="1.7959">
        <ele>183.6</ele>
        <time>2026-01-13T11:53:24Z</time>
      </trkpt>
      <trkpt lat="48.73205" lon="1.79581">
        <ele>183.6</ele>
        <time>2026-01-13T11:53:25Z</time>
      </trkpt>
      <trkpt lat="48.73208" lon="1.79572">
        <ele>183.6</ele>
        <time>2026-01-13T11:53:26Z</time>
      </trkpt>
      <trkpt lat="48.7321" lon="1.79563">
        <ele>183.6</ele>
        <time>2026-01-13T11:53:27Z</time>
      </trkpt>
      <trkpt lat="48.73213" lon="1.79554">
        <ele>182.6</ele>
        <time>2026-01-13T11:53:28Z</time>
      </trkpt>
      <trkpt lat="48.73214" lon="1.79544">
        <ele>181.6</ele>
        <time>2026-01-13T11:53:29Z</time>
      </trkpt>
      <trkpt lat="48.73217" lon="1.79535">
        <ele>181.6</ele>
        <time>2026-01-13T11:53:30Z</time>
      </trkpt>
      <trkpt lat="48.73219" lon="1.79527">
        <ele>181.6</ele>
        <time>2026-01-13T11:53:31Z</time>
      </trkpt>
      <trkpt lat="48.73221" lon="1.79518">
        <ele>182.6</ele>
        <time>2026-01-13T11:53:32Z</time>
      </trkpt>
      <trkpt lat="48.73223" lon="1.7951">
        <ele>183.6</ele>
        <time>2026-01-13T11:53:33Z</time>
      </trkpt>
      <trkpt lat="48.73225" lon="1.79502">
        <ele>183.6</ele>
        <time>2026-01-13T11:53:34Z</time>
      </trkpt>
      <trkpt lat="48.73226" lon="1.79494">
        <ele>183.6</ele>
        <time>2026-01-13T11:53:35Z</time>
      </trkpt>
      <trkpt lat="48.73228" lon="1.79487">
        <ele>183.6</ele>
        <time>2026-01-13T11:53:36Z</time>
      </trkpt>
      <trkpt lat="48.7323" lon="1.7948">
        <ele>184.6</ele>
        <time>2026-01-13T11:53:37Z</time>
      </trkpt>
      <trkpt lat="48.73231" lon="1.79475">
        <ele>185.6</ele>
        <time>2026-01-13T11:53:38Z</time>
      </trkpt>
      <trkpt lat="48.73233" lon="1.79469">
        <ele>185.8</ele>
        <time>2026-01-13T11:53:39Z</time>
      </trkpt>
      <trkpt lat="48.73234" lon="1.79463">
        <ele>185.8</ele>
        <time>2026-01-13T11:53:40Z</time>
      </trkpt>
      <trkpt lat="48.73235" lon="1.79455">
        <ele>186.2</ele>
        <time>2026-01-13T11:53:41Z</time>
      </trkpt>
      <trkpt lat="48.73235" lon="1.79448">
        <ele>186.2</ele>
        <time>2026-01-13T11:53:42Z</time>
      </trkpt>
      <trkpt lat="48.73233" lon="1.79441">
        <ele>186.2</ele>
        <time>2026-01-13T11:53:43Z</time>
      </trkpt>
      <trkpt lat="48.73229" lon="1.79437">
        <ele>186.2</ele>
        <time>2026-01-13T11:53:44Z</time>
      </trkpt>
      <trkpt lat="48.73225" lon="1.79435">
        <ele>186</ele>
        <time>2026-01-13T11:53:45Z</time>
      </trkpt>
      <trkpt lat="48.7322" lon="1.79433">
        <ele>186</ele>
        <time>2026-01-13T11:53:46Z</time>
      </trkpt>
      <trkpt lat="48.73215" lon="1.7943">
        <ele>186</ele>
        <time>2026-01-13T11:53:47Z</time>
      </trkpt>
      <trkpt lat="48.73209" lon="1.79427">
        <ele>186</ele>
        <time>2026-01-13T11:53:48Z</time>
      </trkpt>
      <trkpt lat="48.73204" lon="1.79423">
        <ele>186</ele>
        <time>2026-01-13T11:53:49Z</time>
      </trkpt>
      <trkpt lat="48.73199" lon="1.7942">
        <ele>186</ele>
        <time>2026-01-13T11:53:50Z</time>
      </trkpt>
      <trkpt lat="48.73194" lon="1.79416">
        <ele>185</ele>
        <time>2026-01-13T11:53:51Z</time>
      </trkpt>
      <trkpt lat="48.73189" lon="1.79413">
        <ele>185</ele>
        <time>2026-01-13T11:53:52Z</time>
      </trkpt>
      <trkpt lat="48.73184" lon="1.7941">
        <ele>185</ele>
        <time>2026-01-13T11:53:53Z</time>
      </trkpt>
      <trkpt lat="48.73178" lon="1.79407">
        <ele>185</ele>
        <time>2026-01-13T11:53:54Z</time>
      </trkpt>
      <trkpt lat="48.73173" lon="1.79405">
        <ele>185</ele>
        <time>2026-01-13T11:53:55Z</time>
      </trkpt>
      <trkpt lat="48.73167" lon="1.79403">
        <ele>185</ele>
        <time>2026-01-13T11:53:56Z</time>
      </trkpt>
      <trkpt lat="48.73162" lon="1.79401">
        <ele>185</ele>
        <time>2026-01-13T11:53:57Z</time>
      </trkpt>
      <trkpt lat="48.73157" lon="1.79398">
        <ele>185</ele>
        <time>2026-01-13T11:53:58Z</time>
      </trkpt>
      <trkpt lat="48.73151" lon="1.79396">
        <ele>184</ele>
        <time>2026-01-13T11:53:59Z</time>
      </trkpt>
      <trkpt lat="48.73146" lon="1.79393">
        <ele>184</ele>
        <time>2026-01-13T11:54:00Z</time>
      </trkpt>
      <trkpt lat="48.73141" lon="1.79392">
        <ele>184</ele>
        <time>2026-01-13T11:54:01Z</time>
      </trkpt>
      <trkpt lat="48.73135" lon="1.7939">
        <ele>184</ele>
        <time>2026-01-13T11:54:02Z</time>
      </trkpt>
      <trkpt lat="48.7313" lon="1.79389">
        <ele>184</ele>
        <time>2026-01-13T11:54:03Z</time>
      </trkpt>
      <trkpt lat="48.73125" lon="1.79387">
        <ele>184</ele>
        <time>2026-01-13T11:54:04Z</time>
      </trkpt>
      <trkpt lat="48.7312" lon="1.79386">
        <ele>185</ele>
        <time>2026-01-13T11:54:05Z</time>
      </trkpt>
      <trkpt lat="48.73115" lon="1.79385">
        <ele>185.2</ele>
        <time>2026-01-13T11:54:06Z</time>
      </trkpt>
      <trkpt lat="48.7311" lon="1.79383">
        <ele>185.2</ele>
        <time>2026-01-13T11:54:07Z</time>
      </trkpt>
      <trkpt lat="48.73105" lon="1.79381">
        <ele>185.2</ele>
        <time>2026-01-13T11:54:08Z</time>
      </trkpt>
      <trkpt lat="48.73101" lon="1.79379">
        <ele>185.2</ele>
        <time>2026-01-13T11:54:09Z</time>
      </trkpt>
      <trkpt lat="48.73096" lon="1.79377">
        <ele>184.4</ele>
        <time>2026-01-13T11:54:10Z</time>
      </trkpt>
      <trkpt lat="48.73092" lon="1.79377">
        <ele>184.4</ele>
        <time>2026-01-13T11:54:11Z</time>
      </trkpt>
      <trkpt lat="48.73089" lon="1.79377">
        <ele>184.4</ele>
        <time>2026-01-13T11:54:12Z</time>
      </trkpt>
      <trkpt lat="48.73087" lon="1.79378">
        <ele>185.4</ele>
        <time>2026-01-13T11:54:13Z</time>
      </trkpt>
      <trkpt lat="48.73087" lon="1.79378">
        <ele>186.2</ele>
        <time>2026-01-13T11:54:14Z</time>
      </trkpt>
      <trkpt lat="48.73087" lon="1.79378">
        <ele>186.2</ele>
        <time>2026-01-13T11:54:15Z</time>
      </trkpt>
      <trkpt lat="48.73087" lon="1.79378">
        <ele>186.2</ele>
        <time>2026-01-13T11:54:16Z</time>
      </trkpt>
      <trkpt lat="48.73083" lon="1.79376">
        <ele>187.4</ele>
        <time>2026-01-13T11:57:31Z</time>
      </trkpt>
      <trkpt lat="48.73082" lon="1.79375">
        <ele>187.4</ele>
        <time>2026-01-13T11:57:32Z</time>
      </trkpt>
      <trkpt lat="48.73081" lon="1.79374">
        <ele>187.4</ele>
        <time>2026-01-13T11:57:33Z</time>
      </trkpt>
      <trkpt lat="48.7308" lon="1.79373">
        <ele>187.4</ele>
        <time>2026-01-13T11:57:34Z</time>
      </trkpt>
      <trkpt lat="48.73078" lon="1.79373">
        <ele>187.4</ele>
        <time>2026-01-13T11:57:35Z</time>
      </trkpt>
      <trkpt lat="48.73077" lon="1.79372">
        <ele>186.4</ele>
        <time>2026-01-13T11:57:36Z</time>
      </trkpt>
      <trkpt lat="48.73075" lon="1.79372">
        <ele>186.4</ele>
        <time>2026-01-13T11:57:37Z</time>
      </trkpt>
      <trkpt lat="48.73073" lon="1.79372">
        <ele>186.4</ele>
        <time>2026-01-13T11:57:38Z</time>
      </trkpt>
      <trkpt lat="48.73071" lon="1.7937">
        <ele>186.4</ele>
        <time>2026-01-13T11:57:39Z</time>
      </trkpt>
      <trkpt lat="48.73068" lon="1.79369">
        <ele>186.4</ele>
        <time>2026-01-13T11:57:40Z</time>
      </trkpt>
      <trkpt lat="48.73065" lon="1.79367">
        <ele>186.4</ele>
        <time>2026-01-13T11:57:41Z</time>
      </trkpt>
      <trkpt lat="48.73063" lon="1.79366">
        <ele>186.4</ele>
        <time>2026-01-13T11:57:42Z</time>
      </trkpt>
      <trkpt lat="48.7306" lon="1.79366">
        <ele>186.8</ele>
        <time>2026-01-13T11:57:43Z</time>
      </trkpt>
      <trkpt lat="48.73056" lon="1.79365">
        <ele>187.2</ele>
        <time>2026-01-13T11:57:44Z</time>
      </trkpt>
      <trkpt lat="48.73053" lon="1.79364">
        <ele>187.2</ele>
        <time>2026-01-13T11:57:45Z</time>
      </trkpt>
      <trkpt lat="48.73049" lon="1.79362">
        <ele>187.2</ele>
        <time>2026-01-13T11:57:46Z</time>
      </trkpt>
      <trkpt lat="48.73045" lon="1.7936">
        <ele>187</ele>
        <time>2026-01-13T11:57:47Z</time>
      </trkpt>
      <trkpt lat="48.7304" lon="1.79358">
        <ele>186.8</ele>
        <time>2026-01-13T11:57:48Z</time>
      </trkpt>
      <trkpt lat="48.73036" lon="1.79356">
        <ele>186.8</ele>
        <time>2026-01-13T11:57:49Z</time>
      </trkpt>
      <trkpt lat="48.73032" lon="1.79354">
        <ele>186.8</ele>
        <time>2026-01-13T11:57:50Z</time>
      </trkpt>
      <trkpt lat="48.73028" lon="1.79352">
        <ele>186.8</ele>
        <time>2026-01-13T11:57:51Z</time>
      </trkpt>
      <trkpt lat="48.73024" lon="1.7935">
        <ele>186.6</ele>
        <time>2026-01-13T11:57:52Z</time>
      </trkpt>
      <trkpt lat="48.7302" lon="1.79348">
        <ele>186.2</ele>
        <time>2026-01-13T11:57:53Z</time>
      </trkpt>
      <trkpt lat="48.73016" lon="1.79346">
        <ele>186.2</ele>
        <time>2026-01-13T11:57:54Z</time>
      </trkpt>
      <trkpt lat="48.73011" lon="1.79345">
        <ele>186.2</ele>
        <time>2026-01-13T11:57:55Z</time>
      </trkpt>
      <trkpt lat="48.73007" lon="1.79343">
        <ele>186.8</ele>
        <time>2026-01-13T11:57:56Z</time>
      </trkpt>
      <trkpt lat="48.73003" lon="1.79341">
        <ele>187.2</ele>
        <time>2026-01-13T11:57:57Z</time>
      </trkpt>
      <trkpt lat="48.72999" lon="1.79339">
        <ele>187.2</ele>
        <time>2026-01-13T11:57:58Z</time>
      </trkpt>
      <trkpt lat="48.72995" lon="1.79336">
        <ele>187.2</ele>
        <time>2026-01-13T11:57:59Z</time>
      </trkpt>
      <trkpt lat="48.72992" lon="1.79333">
        <ele>186.8</ele>
        <time>2026-01-13T11:58:00Z</time>
      </trkpt>
      <trkpt lat="48.72989" lon="1.79328">
        <ele>186</ele>
        <time>2026-01-13T11:58:01Z</time>
      </trkpt>
      <trkpt lat="48.72989" lon="1.79322">
        <ele>185.2</ele>
        <time>2026-01-13T11:58:02Z</time>
      </trkpt>
      <trkpt lat="48.72991" lon="1.79317">
        <ele>184.6</ele>
        <time>2026-01-13T11:58:03Z</time>
      </trkpt>
      <trkpt lat="48.72993" lon="1.79311">
        <ele>184.6</ele>
        <time>2026-01-13T11:58:04Z</time>
      </trkpt>
      <trkpt lat="48.72996" lon="1.79305">
        <ele>184.6</ele>
        <time>2026-01-13T11:58:05Z</time>
      </trkpt>
      <trkpt lat="48.72998" lon="1.793">
        <ele>185</ele>
        <time>2026-01-13T11:58:06Z</time>
      </trkpt>
      <trkpt lat="48.73001" lon="1.79295">
        <ele>185.6</ele>
        <time>2026-01-13T11:58:07Z</time>
      </trkpt>
      <trkpt lat="48.73004" lon="1.79289">
        <ele>185.6</ele>
        <time>2026-01-13T11:58:08Z</time>
      </trkpt>
      <trkpt lat="48.73006" lon="1.79283">
        <ele>185.6</ele>
        <time>2026-01-13T11:58:09Z</time>
      </trkpt>
      <trkpt lat="48.73009" lon="1.79278">
        <ele>184.6</ele>
        <time>2026-01-13T11:58:10Z</time>
      </trkpt>
      <trkpt lat="48.73012" lon="1.79272">
        <ele>184.6</ele>
        <time>2026-01-13T11:58:11Z</time>
      </trkpt>
      <trkpt lat="48.73015" lon="1.79266">
        <ele>184.6</ele>
        <time>2026-01-13T11:58:12Z</time>
      </trkpt>
      <trkpt lat="48.73018" lon="1.79261">
        <ele>185.2</ele>
        <time>2026-01-13T11:58:13Z</time>
      </trkpt>
      <trkpt lat="48.73021" lon="1.79254">
        <ele>186.2</ele>
        <time>2026-01-13T11:58:14Z</time>
      </trkpt>
      <trkpt lat="48.73024" lon="1.79248">
        <ele>186.2</ele>
        <time>2026-01-13T11:58:15Z</time>
      </trkpt>
      <trkpt lat="48.73027" lon="1.7924">
        <ele>186.2</ele>
        <time>2026-01-13T11:58:16Z</time>
      </trkpt>
      <trkpt lat="48.73031" lon="1.79232">
        <ele>186.2</ele>
        <time>2026-01-13T11:58:17Z</time>
      </trkpt>
      <trkpt lat="48.73034" lon="1.79225">
        <ele>185.8</ele>
        <time>2026-01-13T11:58:18Z</time>
      </trkpt>
      <trkpt lat="48.73037" lon="1.79217">
        <ele>184.8</ele>
        <time>2026-01-13T11:58:19Z</time>
      </trkpt>
      <trkpt lat="48.73041" lon="1.7921">
        <ele>184.8</ele>
        <time>2026-01-13T11:58:20Z</time>
      </trkpt>
      <trkpt lat="48.73044" lon="1.79203">
        <ele>184.8</ele>
        <time>2026-01-13T11:58:21Z</time>
      </trkpt>
      <trkpt lat="48.73047" lon="1.79195">
        <ele>184.8</ele>
        <time>2026-01-13T11:58:22Z</time>
      </trkpt>
      <trkpt lat="48.73051" lon="1.79188">
        <ele>184.8</ele>
        <time>2026-01-13T11:58:23Z</time>
      </trkpt>
      <trkpt lat="48.73053" lon="1.79181">
        <ele>184.8</ele>
        <time>2026-01-13T11:58:24Z</time>
      </trkpt>
      <trkpt lat="48.73057" lon="1.79174">
        <ele>184.8</ele>
        <time>2026-01-13T11:58:25Z</time>
      </trkpt>
      <trkpt lat="48.7306" lon="1.79167">
        <ele>184.8</ele>
        <time>2026-01-13T11:58:26Z</time>
      </trkpt>
      <trkpt lat="48.73064" lon="1.79159">
        <ele>184.8</ele>
        <time>2026-01-13T11:58:27Z</time>
      </trkpt>
      <trkpt lat="48.73067" lon="1.79151">
        <ele>184.8</ele>
        <time>2026-01-13T11:58:28Z</time>
      </trkpt>
      <trkpt lat="48.7307" lon="1.79144">
        <ele>185.8</ele>
        <time>2026-01-13T11:58:29Z</time>
      </trkpt>
      <trkpt lat="48.73074" lon="1.79137">
        <ele>185.8</ele>
        <time>2026-01-13T11:58:30Z</time>
      </trkpt>
      <trkpt lat="48.73077" lon="1.79129">
        <ele>185.8</ele>
        <time>2026-01-13T11:58:31Z</time>
      </trkpt>
      <trkpt lat="48.73081" lon="1.79122">
        <ele>184.8</ele>
        <time>2026-01-13T11:58:32Z</time>
      </trkpt>
      <trkpt lat="48.73084" lon="1.79114">
        <ele>184.2</ele>
        <time>2026-01-13T11:58:33Z</time>
      </trkpt>
      <trkpt lat="48.73089" lon="1.79107">
        <ele>184.2</ele>
        <time>2026-01-13T11:58:34Z</time>
      </trkpt>
      <trkpt lat="48.73092" lon="1.79099">
        <ele>184.2</ele>
        <time>2026-01-13T11:58:35Z</time>
      </trkpt>
      <trkpt lat="48.73094" lon="1.79093">
        <ele>184.2</ele>
        <time>2026-01-13T11:58:36Z</time>
      </trkpt>
      <trkpt lat="48.73098" lon="1.79086">
        <ele>184.2</ele>
        <time>2026-01-13T11:58:37Z</time>
      </trkpt>
      <trkpt lat="48.73101" lon="1.79079">
        <ele>184.2</ele>
        <time>2026-01-13T11:58:38Z</time>
      </trkpt>
      <trkpt lat="48.73104" lon="1.79072">
        <ele>183.8</ele>
        <time>2026-01-13T11:58:39Z</time>
      </trkpt>
      <trkpt lat="48.73108" lon="1.79065">
        <ele>183.8</ele>
        <time>2026-01-13T11:58:40Z</time>
      </trkpt>
      <trkpt lat="48.73111" lon="1.79057">
        <ele>183.8</ele>
        <time>2026-01-13T11:58:41Z</time>
      </trkpt>
      <trkpt lat="48.73114" lon="1.79049">
        <ele>184.8</ele>
        <time>2026-01-13T11:58:42Z</time>
      </trkpt>
      <trkpt lat="48.73117" lon="1.79043">
        <ele>184.8</ele>
        <time>2026-01-13T11:58:43Z</time>
      </trkpt>
      <trkpt lat="48.7312" lon="1.79035">
        <ele>184.8</ele>
        <time>2026-01-13T11:58:44Z</time>
      </trkpt>
      <trkpt lat="48.73123" lon="1.79028">
        <ele>183.8</ele>
        <time>2026-01-13T11:58:45Z</time>
      </trkpt>
      <trkpt lat="48.73126" lon="1.7902">
        <ele>183.8</ele>
        <time>2026-01-13T11:58:46Z</time>
      </trkpt>
      <trkpt lat="48.73128" lon="1.79014">
        <ele>183.8</ele>
        <time>2026-01-13T11:58:47Z</time>
      </trkpt>
      <trkpt lat="48.73132" lon="1.79006">
        <ele>183.8</ele>
        <time>2026-01-13T11:58:48Z</time>
      </trkpt>
      <trkpt lat="48.73134" lon="1.78999">
        <ele>183.8</ele>
        <time>2026-01-13T11:58:49Z</time>
      </trkpt>
      <trkpt lat="48.73137" lon="1.78991">
        <ele>183.8</ele>
        <time>2026-01-13T11:58:50Z</time>
      </trkpt>
      <trkpt lat="48.7314" lon="1.78984">
        <ele>183.8</ele>
        <time>2026-01-13T11:58:51Z</time>
      </trkpt>
      <trkpt lat="48.73142" lon="1.78978">
        <ele>184.8</ele>
        <time>2026-01-13T11:58:52Z</time>
      </trkpt>
      <trkpt lat="48.73145" lon="1.7897">
        <ele>184.8</ele>
        <time>2026-01-13T11:58:53Z</time>
      </trkpt>
      <trkpt lat="48.73148" lon="1.78963">
        <ele>184.8</ele>
        <time>2026-01-13T11:58:54Z</time>
      </trkpt>
      <trkpt lat="48.73152" lon="1.78956">
        <ele>184.2</ele>
        <time>2026-01-13T11:58:55Z</time>
      </trkpt>
      <trkpt lat="48.73156" lon="1.78944">
        <ele>184.2</ele>
        <time>2026-01-13T11:58:56Z</time>
      </trkpt>
      <trkpt lat="48.73159" lon="1.78937">
        <ele>184.2</ele>
        <time>2026-01-13T11:58:57Z</time>
      </trkpt>
      <trkpt lat="48.73163" lon="1.7893">
        <ele>184.6</ele>
        <time>2026-01-13T11:58:58Z</time>
      </trkpt>
      <trkpt lat="48.73166" lon="1.78925">
        <ele>184.6</ele>
        <time>2026-01-13T11:58:59Z</time>
      </trkpt>
      <trkpt lat="48.7317" lon="1.7892">
        <ele>184.6</ele>
        <time>2026-01-13T11:59:00Z</time>
      </trkpt>
      <trkpt lat="48.73174" lon="1.78913">
        <ele>184.6</ele>
        <time>2026-01-13T11:59:01Z</time>
      </trkpt>
      <trkpt lat="48.73176" lon="1.78907">
        <ele>184.6</ele>
        <time>2026-01-13T11:59:02Z</time>
      </trkpt>
      <trkpt lat="48.7318" lon="1.789">
        <ele>184.6</ele>
        <time>2026-01-13T11:59:03Z</time>
      </trkpt>
      <trkpt lat="48.73183" lon="1.78896">
        <ele>184</ele>
        <time>2026-01-13T11:59:04Z</time>
      </trkpt>
      <trkpt lat="48.73188" lon="1.78887">
        <ele>183.8</ele>
        <time>2026-01-13T11:59:05Z</time>
      </trkpt>
      <trkpt lat="48.73192" lon="1.78879">
        <ele>183.4</ele>
        <time>2026-01-13T11:59:06Z</time>
      </trkpt>
      <trkpt lat="48.73195" lon="1.78872">
        <ele>183.4</ele>
        <time>2026-01-13T11:59:07Z</time>
      </trkpt>
      <trkpt lat="48.73199" lon="1.78865">
        <ele>183.4</ele>
        <time>2026-01-13T11:59:08Z</time>
      </trkpt>
      <trkpt lat="48.73203" lon="1.78855">
        <ele>184</ele>
        <time>2026-01-13T11:59:09Z</time>
      </trkpt>
      <trkpt lat="48.73208" lon="1.78847">
        <ele>184.6</ele>
        <time>2026-01-13T11:59:10Z</time>
      </trkpt>
      <trkpt lat="48.73213" lon="1.78836">
        <ele>184.6</ele>
        <time>2026-01-13T11:59:11Z</time>
      </trkpt>
      <trkpt lat="48.73216" lon="1.7883">
        <ele>184.6</ele>
        <time>2026-01-13T11:59:12Z</time>
      </trkpt>
      <trkpt lat="48.7322" lon="1.78822">
        <ele>184.4</ele>
        <time>2026-01-13T11:59:13Z</time>
      </trkpt>
      <trkpt lat="48.73224" lon="1.78814">
        <ele>183.4</ele>
        <time>2026-01-13T11:59:14Z</time>
      </trkpt>
      <trkpt lat="48.73228" lon="1.78806">
        <ele>183.4</ele>
        <time>2026-01-13T11:59:15Z</time>
      </trkpt>
      <trkpt lat="48.73231" lon="1.78797">
        <ele>183.4</ele>
        <time>2026-01-13T11:59:16Z</time>
      </trkpt>
      <trkpt lat="48.73235" lon="1.78788">
        <ele>183.6</ele>
        <time>2026-01-13T11:59:17Z</time>
      </trkpt>
      <trkpt lat="48.73238" lon="1.78779">
        <ele>184</ele>
        <time>2026-01-13T11:59:18Z</time>
      </trkpt>
      <trkpt lat="48.73242" lon="1.78773">
        <ele>184</ele>
        <time>2026-01-13T11:59:19Z</time>
      </trkpt>
      <trkpt lat="48.73246" lon="1.7876">
        <ele>184.2</ele>
        <time>2026-01-13T11:59:20Z</time>
      </trkpt>
      <trkpt lat="48.73249" lon="1.78753">
        <ele>184.2</ele>
        <time>2026-01-13T11:59:21Z</time>
      </trkpt>
      <trkpt lat="48.73254" lon="1.78742">
        <ele>184.2</ele>
        <time>2026-01-13T11:59:22Z</time>
      </trkpt>
      <trkpt lat="48.73258" lon="1.78734">
        <ele>183.4</ele>
        <time>2026-01-13T11:59:23Z</time>
      </trkpt>
      <trkpt lat="48.73262" lon="1.78726">
        <ele>183.4</ele>
        <time>2026-01-13T11:59:24Z</time>
      </trkpt>
      <trkpt lat="48.73266" lon="1.78717">
        <ele>183.4</ele>
        <time>2026-01-13T11:59:25Z</time>
      </trkpt>
      <trkpt lat="48.7327" lon="1.78708">
        <ele>183.4</ele>
        <time>2026-01-13T11:59:26Z</time>
      </trkpt>
      <trkpt lat="48.73274" lon="1.78698">
        <ele>183</ele>
        <time>2026-01-13T11:59:27Z</time>
      </trkpt>
      <trkpt lat="48.73278" lon="1.78688">
        <ele>182.6</ele>
        <time>2026-01-13T11:59:28Z</time>
      </trkpt>
      <trkpt lat="48.73281" lon="1.7868">
        <ele>182.6</ele>
        <time>2026-01-13T11:59:29Z</time>
      </trkpt>
      <trkpt lat="48.73284" lon="1.78671">
        <ele>182.6</ele>
        <time>2026-01-13T11:59:30Z</time>
      </trkpt>
      <trkpt lat="48.73287" lon="1.78664">
        <ele>182.6</ele>
        <time>2026-01-13T11:59:31Z</time>
      </trkpt>
      <trkpt lat="48.7329" lon="1.78656">
        <ele>182.6</ele>
        <time>2026-01-13T11:59:32Z</time>
      </trkpt>
      <trkpt lat="48.73294" lon="1.78645">
        <ele>182.6</ele>
        <time>2026-01-13T11:59:33Z</time>
      </trkpt>
      <trkpt lat="48.73298" lon="1.78638">
        <ele>182.6</ele>
        <time>2026-01-13T11:59:34Z</time>
      </trkpt>
      <trkpt lat="48.73301" lon="1.78629">
        <ele>182.8</ele>
        <time>2026-01-13T11:59:35Z</time>
      </trkpt>
      <trkpt lat="48.73305" lon="1.7862">
        <ele>183.4</ele>
        <time>2026-01-13T11:59:36Z</time>
      </trkpt>
      <trkpt lat="48.73309" lon="1.78612">
        <ele>183.4</ele>
        <time>2026-01-13T11:59:37Z</time>
      </trkpt>
      <trkpt lat="48.73312" lon="1.78604">
        <ele>183.4</ele>
        <time>2026-01-13T11:59:38Z</time>
      </trkpt>
      <trkpt lat="48.73316" lon="1.78596">
        <ele>183.4</ele>
        <time>2026-01-13T11:59:39Z</time>
      </trkpt>
      <trkpt lat="48.7332" lon="1.78584">
        <ele>183.4</ele>
        <time>2026-01-13T11:59:40Z</time>
      </trkpt>
      <trkpt lat="48.73324" lon="1.78577">
        <ele>183</ele>
        <time>2026-01-13T11:59:41Z</time>
      </trkpt>
      <trkpt lat="48.73327" lon="1.78568">
        <ele>182.6</ele>
        <time>2026-01-13T11:59:42Z</time>
      </trkpt>
      <trkpt lat="48.7333" lon="1.78558">
        <ele>182.4</ele>
        <time>2026-01-13T11:59:43Z</time>
      </trkpt>
      <trkpt lat="48.73334" lon="1.78549">
        <ele>182.4</ele>
        <time>2026-01-13T11:59:44Z</time>
      </trkpt>
      <trkpt lat="48.73338" lon="1.78541">
        <ele>182.4</ele>
        <time>2026-01-13T11:59:45Z</time>
      </trkpt>
      <trkpt lat="48.73342" lon="1.78529">
        <ele>182.4</ele>
        <time>2026-01-13T11:59:46Z</time>
      </trkpt>
      <trkpt lat="48.73346" lon="1.78521">
        <ele>182.4</ele>
        <time>2026-01-13T11:59:47Z</time>
      </trkpt>
      <trkpt lat="48.73349" lon="1.78513">
        <ele>182.4</ele>
        <time>2026-01-13T11:59:48Z</time>
      </trkpt>
      <trkpt lat="48.73353" lon="1.78505">
        <ele>182.4</ele>
        <time>2026-01-13T11:59:49Z</time>
      </trkpt>
      <trkpt lat="48.73357" lon="1.7849">
        <ele>182.4</ele>
        <time>2026-01-13T11:59:50Z</time>
      </trkpt>
      <trkpt lat="48.73362" lon="1.78478">
        <ele>182.4</ele>
        <time>2026-01-13T11:59:51Z</time>
      </trkpt>
      <trkpt lat="48.73365" lon="1.78469">
        <ele>182.4</ele>
        <time>2026-01-13T11:59:52Z</time>
      </trkpt>
      <trkpt lat="48.73369" lon="1.78459">
        <ele>181.8</ele>
        <time>2026-01-13T11:59:53Z</time>
      </trkpt>
      <trkpt lat="48.73373" lon="1.78449">
        <ele>181.4</ele>
        <time>2026-01-13T11:59:54Z</time>
      </trkpt>
      <trkpt lat="48.73377" lon="1.7844">
        <ele>180.8</ele>
        <time>2026-01-13T11:59:55Z</time>
      </trkpt>
      <trkpt lat="48.7338" lon="1.78431">
        <ele>180.8</ele>
        <time>2026-01-13T11:59:56Z</time>
      </trkpt>
      <trkpt lat="48.73384" lon="1.78423">
        <ele>180.8</ele>
        <time>2026-01-13T11:59:57Z</time>
      </trkpt>
      <trkpt lat="48.73388" lon="1.78414">
        <ele>181.4</ele>
        <time>2026-01-13T11:59:58Z</time>
      </trkpt>
      <trkpt lat="48.73392" lon="1.78406">
        <ele>181.4</ele>
        <time>2026-01-13T11:59:59Z</time>
      </trkpt>
      <trkpt lat="48.73395" lon="1.78398">
        <ele>181.4</ele>
        <time>2026-01-13T12:00:00Z</time>
      </trkpt>
      <trkpt lat="48.73399" lon="1.78389">
        <ele>180.4</ele>
        <time>2026-01-13T12:00:01Z</time>
      </trkpt>
      <trkpt lat="48.73403" lon="1.7838">
        <ele>179.8</ele>
        <time>2026-01-13T12:00:02Z</time>
      </trkpt>
      <trkpt lat="48.73407" lon="1.78371">
        <ele>179.8</ele>
        <time>2026-01-13T12:00:03Z</time>
      </trkpt>
      <trkpt lat="48.73411" lon="1.78362">
        <ele>179.8</ele>
        <time>2026-01-13T12:00:04Z</time>
      </trkpt>
      <trkpt lat="48.73415" lon="1.78354">
        <ele>179.8</ele>
        <time>2026-01-13T12:00:05Z</time>
      </trkpt>
      <trkpt lat="48.73419" lon="1.78347">
        <ele>179.8</ele>
        <time>2026-01-13T12:00:06Z</time>
      </trkpt>
      <trkpt lat="48.73424" lon="1.78335">
        <ele>179.6</ele>
        <time>2026-01-13T12:00:07Z</time>
      </trkpt>
      <trkpt lat="48.73428" lon="1.78327">
        <ele>179.4</ele>
        <time>2026-01-13T12:00:08Z</time>
      </trkpt>
      <trkpt lat="48.73432" lon="1.78318">
        <ele>179.4</ele>
        <time>2026-01-13T12:00:09Z</time>
      </trkpt>
      <trkpt lat="48.73435" lon="1.7831">
        <ele>179.4</ele>
        <time>2026-01-13T12:00:10Z</time>
      </trkpt>
      <trkpt lat="48.73439" lon="1.78301">
        <ele>179.4</ele>
        <time>2026-01-13T12:00:11Z</time>
      </trkpt>
      <trkpt lat="48.73443" lon="1.78293">
        <ele>179.4</ele>
        <time>2026-01-13T12:00:12Z</time>
      </trkpt>
      <trkpt lat="48.73447" lon="1.78285">
        <ele>179.4</ele>
        <time>2026-01-13T12:00:13Z</time>
      </trkpt>
      <trkpt lat="48.7345" lon="1.78277">
        <ele>180.2</ele>
        <time>2026-01-13T12:00:14Z</time>
      </trkpt>
      <trkpt lat="48.73454" lon="1.78267">
        <ele>180.2</ele>
        <time>2026-01-13T12:00:15Z</time>
      </trkpt>
      <trkpt lat="48.73458" lon="1.78255">
        <ele>180.2</ele>
        <time>2026-01-13T12:00:16Z</time>
      </trkpt>
      <trkpt lat="48.73462" lon="1.78245">
        <ele>180.2</ele>
        <time>2026-01-13T12:00:17Z</time>
      </trkpt>
      <trkpt lat="48.73465" lon="1.78235">
        <ele>180.6</ele>
        <time>2026-01-13T12:00:18Z</time>
      </trkpt>
      <trkpt lat="48.73468" lon="1.78227">
        <ele>180.6</ele>
        <time>2026-01-13T12:00:19Z</time>
      </trkpt>
      <trkpt lat="48.73471" lon="1.78219">
        <ele>180.6</ele>
        <time>2026-01-13T12:00:20Z</time>
      </trkpt>
      <trkpt lat="48.73475" lon="1.7821">
        <ele>180.6</ele>
        <time>2026-01-13T12:00:21Z</time>
      </trkpt>
      <trkpt lat="48.73478" lon="1.78202">
        <ele>180.8</ele>
        <time>2026-01-13T12:00:22Z</time>
      </trkpt>
      <trkpt lat="48.73482" lon="1.78193">
        <ele>180.8</ele>
        <time>2026-01-13T12:00:23Z</time>
      </trkpt>
      <trkpt lat="48.73486" lon="1.78185">
        <ele>180.8</ele>
        <time>2026-01-13T12:00:24Z</time>
      </trkpt>
      <trkpt lat="48.7349" lon="1.78177">
        <ele>179.8</ele>
        <time>2026-01-13T12:00:25Z</time>
      </trkpt>
      <trkpt lat="48.73494" lon="1.78165">
        <ele>179.4</ele>
        <time>2026-01-13T12:00:26Z</time>
      </trkpt>
      <trkpt lat="48.73498" lon="1.78156">
        <ele>179.4</ele>
        <time>2026-01-13T12:00:27Z</time>
      </trkpt>
      <trkpt lat="48.73502" lon="1.78146">
        <ele>179.4</ele>
        <time>2026-01-13T12:00:28Z</time>
      </trkpt>
      <trkpt lat="48.73506" lon="1.78137">
        <ele>179.4</ele>
        <time>2026-01-13T12:00:29Z</time>
      </trkpt>
      <trkpt lat="48.7351" lon="1.78127">
        <ele>179.4</ele>
        <time>2026-01-13T12:00:30Z</time>
      </trkpt>
      <trkpt lat="48.73515" lon="1.78117">
        <ele>178.4</ele>
        <time>2026-01-13T12:00:31Z</time>
      </trkpt>
      <trkpt lat="48.7352" lon="1.78106">
        <ele>177.4</ele>
        <time>2026-01-13T12:00:32Z</time>
      </trkpt>
      <trkpt lat="48.73524" lon="1.78095">
        <ele>177.2</ele>
        <time>2026-01-13T12:00:33Z</time>
      </trkpt>
      <trkpt lat="48.73529" lon="1.78086">
        <ele>176.8</ele>
        <time>2026-01-13T12:00:34Z</time>
      </trkpt>
      <trkpt lat="48.73533" lon="1.78073">
        <ele>176.4</ele>
        <time>2026-01-13T12:00:35Z</time>
      </trkpt>
      <trkpt lat="48.73539" lon="1.78061">
        <ele>176.4</ele>
        <time>2026-01-13T12:00:36Z</time>
      </trkpt>
      <trkpt lat="48.73544" lon="1.7805">
        <ele>176.4</ele>
        <time>2026-01-13T12:00:37Z</time>
      </trkpt>
      <trkpt lat="48.73548" lon="1.78041">
        <ele>176.4</ele>
        <time>2026-01-13T12:00:38Z</time>
      </trkpt>
      <trkpt lat="48.73552" lon="1.78032">
        <ele>176.4</ele>
        <time>2026-01-13T12:00:39Z</time>
      </trkpt>
      <trkpt lat="48.73557" lon="1.78022">
        <ele>175.8</ele>
        <time>2026-01-13T12:00:40Z</time>
      </trkpt>
      <trkpt lat="48.73561" lon="1.78013">
        <ele>175.6</ele>
        <time>2026-01-13T12:00:41Z</time>
      </trkpt>
      <trkpt lat="48.73565" lon="1.78003">
        <ele>175.6</ele>
        <time>2026-01-13T12:00:42Z</time>
      </trkpt>
      <trkpt lat="48.7357" lon="1.77994">
        <ele>175.6</ele>
        <time>2026-01-13T12:00:43Z</time>
      </trkpt>
      <trkpt lat="48.73574" lon="1.77984">
        <ele>176.4</ele>
        <time>2026-01-13T12:00:44Z</time>
      </trkpt>
      <trkpt lat="48.73578" lon="1.77975">
        <ele>176.4</ele>
        <time>2026-01-13T12:00:45Z</time>
      </trkpt>
      <trkpt lat="48.73582" lon="1.77965">
        <ele>176.4</ele>
        <time>2026-01-13T12:00:46Z</time>
      </trkpt>
      <trkpt lat="48.73586" lon="1.77956">
        <ele>176.4</ele>
        <time>2026-01-13T12:00:47Z</time>
      </trkpt>
      <trkpt lat="48.73591" lon="1.7794">
        <ele>176.4</ele>
        <time>2026-01-13T12:00:48Z</time>
      </trkpt>
      <trkpt lat="48.73597" lon="1.77925">
        <ele>176.4</ele>
        <time>2026-01-13T12:00:49Z</time>
      </trkpt>
      <trkpt lat="48.736" lon="1.77916">
        <ele>176.4</ele>
        <time>2026-01-13T12:00:50Z</time>
      </trkpt>
      <trkpt lat="48.73604" lon="1.77906">
        <ele>176</ele>
        <time>2026-01-13T12:00:51Z</time>
      </trkpt>
      <trkpt lat="48.73608" lon="1.77897">
        <ele>175.8</ele>
        <time>2026-01-13T12:00:52Z</time>
      </trkpt>
      <trkpt lat="48.73612" lon="1.77886">
        <ele>175.8</ele>
        <time>2026-01-13T12:00:53Z</time>
      </trkpt>
      <trkpt lat="48.73616" lon="1.77878">
        <ele>175.8</ele>
        <time>2026-01-13T12:00:54Z</time>
      </trkpt>
      <trkpt lat="48.7362" lon="1.77869">
        <ele>175.8</ele>
        <time>2026-01-13T12:00:55Z</time>
      </trkpt>
      <trkpt lat="48.73624" lon="1.77856">
        <ele>175.2</ele>
        <time>2026-01-13T12:00:56Z</time>
      </trkpt>
      <trkpt lat="48.73629" lon="1.77846">
        <ele>174.8</ele>
        <time>2026-01-13T12:00:57Z</time>
      </trkpt>
      <trkpt lat="48.73633" lon="1.77834">
        <ele>174.8</ele>
        <time>2026-01-13T12:00:58Z</time>
      </trkpt>
      <trkpt lat="48.73637" lon="1.77824">
        <ele>174.8</ele>
        <time>2026-01-13T12:00:59Z</time>
      </trkpt>
      <trkpt lat="48.73641" lon="1.77814">
        <ele>174.8</ele>
        <time>2026-01-13T12:01:00Z</time>
      </trkpt>
      <trkpt lat="48.73646" lon="1.77802">
        <ele>174.8</ele>
        <time>2026-01-13T12:01:01Z</time>
      </trkpt>
      <trkpt lat="48.7365" lon="1.77792">
        <ele>174.8</ele>
        <time>2026-01-13T12:01:02Z</time>
      </trkpt>
      <trkpt lat="48.73654" lon="1.77782">
        <ele>174.8</ele>
        <time>2026-01-13T12:01:03Z</time>
      </trkpt>
      <trkpt lat="48.73658" lon="1.77775">
        <ele>174.8</ele>
        <time>2026-01-13T12:01:04Z</time>
      </trkpt>
      <trkpt lat="48.73661" lon="1.77769">
        <ele>174.8</ele>
        <time>2026-01-13T12:01:05Z</time>
      </trkpt>
      <trkpt lat="48.73664" lon="1.77762">
        <ele>174.8</ele>
        <time>2026-01-13T12:01:06Z</time>
      </trkpt>
      <trkpt lat="48.73665" lon="1.77755">
        <ele>174.8</ele>
        <time>2026-01-13T12:01:07Z</time>
      </trkpt>
      <trkpt lat="48.73665" lon="1.77749">
        <ele>174.8</ele>
        <time>2026-01-13T12:01:08Z</time>
      </trkpt>
      <trkpt lat="48.73665" lon="1.77742">
        <ele>174.2</ele>
        <time>2026-01-13T12:01:09Z</time>
      </trkpt>
      <trkpt lat="48.73664" lon="1.77737">
        <ele>174.2</ele>
        <time>2026-01-13T12:01:10Z</time>
      </trkpt>
      <trkpt lat="48.73663" lon="1.77731">
        <ele>174.2</ele>
        <time>2026-01-13T12:01:11Z</time>
      </trkpt>
      <trkpt lat="48.73661" lon="1.77726">
        <ele>175.2</ele>
        <time>2026-01-13T12:01:12Z</time>
      </trkpt>
      <trkpt lat="48.73659" lon="1.7772">
        <ele>176.2</ele>
        <time>2026-01-13T12:01:13Z</time>
      </trkpt>
      <trkpt lat="48.73658" lon="1.77715">
        <ele>177</ele>
        <time>2026-01-13T12:01:14Z</time>
      </trkpt>
      <trkpt lat="48.73656" lon="1.77711">
        <ele>178</ele>
        <time>2026-01-13T12:01:15Z</time>
      </trkpt>
      <trkpt lat="48.73654" lon="1.77706">
        <ele>178</ele>
        <time>2026-01-13T12:01:16Z</time>
      </trkpt>
      <trkpt lat="48.73652" lon="1.77701">
        <ele>178</ele>
        <time>2026-01-13T12:01:17Z</time>
      </trkpt>
      <trkpt lat="48.73651" lon="1.77696">
        <ele>178</ele>
        <time>2026-01-13T12:01:18Z</time>
      </trkpt>
      <trkpt lat="48.73649" lon="1.77691">
        <ele>178</ele>
        <time>2026-01-13T12:01:19Z</time>
      </trkpt>
      <trkpt lat="48.73647" lon="1.77686">
        <ele>178</ele>
        <time>2026-01-13T12:01:20Z</time>
      </trkpt>
      <trkpt lat="48.73645" lon="1.77682">
        <ele>178</ele>
        <time>2026-01-13T12:01:21Z</time>
      </trkpt>
      <trkpt lat="48.73644" lon="1.77678">
        <ele>178.8</ele>
        <time>2026-01-13T12:01:22Z</time>
      </trkpt>
      <trkpt lat="48.73642" lon="1.77673">
        <ele>179</ele>
        <time>2026-01-13T12:01:23Z</time>
      </trkpt>
      <trkpt lat="48.7364" lon="1.77669">
        <ele>179</ele>
        <time>2026-01-13T12:01:24Z</time>
      </trkpt>
      <trkpt lat="48.73638" lon="1.77665">
        <ele>179</ele>
        <time>2026-01-13T12:01:25Z</time>
      </trkpt>
      <trkpt lat="48.73636" lon="1.7766">
        <ele>179</ele>
        <time>2026-01-13T12:01:26Z</time>
      </trkpt>
      <trkpt lat="48.73635" lon="1.77656">
        <ele>179</ele>
        <time>2026-01-13T12:01:27Z</time>
      </trkpt>
      <trkpt lat="48.73633" lon="1.77652">
        <ele>179</ele>
        <time>2026-01-13T12:01:28Z</time>
      </trkpt>
      <trkpt lat="48.73631" lon="1.77648">
        <ele>179.6</ele>
        <time>2026-01-13T12:01:29Z</time>
      </trkpt>
      <trkpt lat="48.73629" lon="1.77644">
        <ele>180</ele>
        <time>2026-01-13T12:01:30Z</time>
      </trkpt>
      <trkpt lat="48.73627" lon="1.7764">
        <ele>180.4</ele>
        <time>2026-01-13T12:01:31Z</time>
      </trkpt>
      <trkpt lat="48.73625" lon="1.77635">
        <ele>180.4</ele>
        <time>2026-01-13T12:01:32Z</time>
      </trkpt>
      <trkpt lat="48.73624" lon="1.7763">
        <ele>180.4</ele>
        <time>2026-01-13T12:01:33Z</time>
      </trkpt>
      <trkpt lat="48.73622" lon="1.77625">
        <ele>180.4</ele>
        <time>2026-01-13T12:01:34Z</time>
      </trkpt>
      <trkpt lat="48.7362" lon="1.77621">
        <ele>180.4</ele>
        <time>2026-01-13T12:01:35Z</time>
      </trkpt>
      <trkpt lat="48.73618" lon="1.77617">
        <ele>180.8</ele>
        <time>2026-01-13T12:01:36Z</time>
      </trkpt>
      <trkpt lat="48.73616" lon="1.77612">
        <ele>180.8</ele>
        <time>2026-01-13T12:01:37Z</time>
      </trkpt>
      <trkpt lat="48.73614" lon="1.77608">
        <ele>180.8</ele>
        <time>2026-01-13T12:01:38Z</time>
      </trkpt>
      <trkpt lat="48.73612" lon="1.77604">
        <ele>180.8</ele>
        <time>2026-01-13T12:01:39Z</time>
      </trkpt>
      <trkpt lat="48.73611" lon="1.776">
        <ele>181</ele>
        <time>2026-01-13T12:01:40Z</time>
      </trkpt>
      <trkpt lat="48.73609" lon="1.77596">
        <ele>181.8</ele>
        <time>2026-01-13T12:01:41Z</time>
      </trkpt>
      <trkpt lat="48.73607" lon="1.77592">
        <ele>182</ele>
        <time>2026-01-13T12:01:42Z</time>
      </trkpt>
      <trkpt lat="48.73606" lon="1.77588">
        <ele>182.6</ele>
        <time>2026-01-13T12:01:43Z</time>
      </trkpt>
      <trkpt lat="48.73604" lon="1.77584">
        <ele>182.8</ele>
        <time>2026-01-13T12:01:44Z</time>
      </trkpt>
      <trkpt lat="48.73602" lon="1.77579">
        <ele>183.2</ele>
        <time>2026-01-13T12:01:45Z</time>
      </trkpt>
      <trkpt lat="48.736" lon="1.77575">
        <ele>183.2</ele>
        <time>2026-01-13T12:01:46Z</time>
      </trkpt>
      <trkpt lat="48.73599" lon="1.77571">
        <ele>183.2</ele>
        <time>2026-01-13T12:01:47Z</time>
      </trkpt>
      <trkpt lat="48.73597" lon="1.77567">
        <ele>183.2</ele>
        <time>2026-01-13T12:01:48Z</time>
      </trkpt>
      <trkpt lat="48.73595" lon="1.77563">
        <ele>183.2</ele>
        <time>2026-01-13T12:01:49Z</time>
      </trkpt>
      <trkpt lat="48.73593" lon="1.77558">
        <ele>183.6</ele>
        <time>2026-01-13T12:01:50Z</time>
      </trkpt>
      <trkpt lat="48.73591" lon="1.77554">
        <ele>184.6</ele>
        <time>2026-01-13T12:01:51Z</time>
      </trkpt>
      <trkpt lat="48.73589" lon="1.77549">
        <ele>184.6</ele>
        <time>2026-01-13T12:01:52Z</time>
      </trkpt>
      <trkpt lat="48.73587" lon="1.77545">
        <ele>184.6</ele>
        <time>2026-01-13T12:01:53Z</time>
      </trkpt>
      <trkpt lat="48.73585" lon="1.77541">
        <ele>184.6</ele>
        <time>2026-01-13T12:01:54Z</time>
      </trkpt>
      <trkpt lat="48.73583" lon="1.77536">
        <ele>184.6</ele>
        <time>2026-01-13T12:01:55Z</time>
      </trkpt>
      <trkpt lat="48.73582" lon="1.77532">
        <ele>185.4</ele>
        <time>2026-01-13T12:01:56Z</time>
      </trkpt>
      <trkpt lat="48.7358" lon="1.77528">
        <ele>185.4</ele>
        <time>2026-01-13T12:01:57Z</time>
      </trkpt>
      <trkpt lat="48.73578" lon="1.77523">
        <ele>185.4</ele>
        <time>2026-01-13T12:01:58Z</time>
      </trkpt>
      <trkpt lat="48.73576" lon="1.77519">
        <ele>185.4</ele>
        <time>2026-01-13T12:01:59Z</time>
      </trkpt>
      <trkpt lat="48.73574" lon="1.77514">
        <ele>186</ele>
        <time>2026-01-13T12:02:00Z</time>
      </trkpt>
      <trkpt lat="48.73572" lon="1.7751">
        <ele>186.2</ele>
        <time>2026-01-13T12:02:01Z</time>
      </trkpt>
      <trkpt lat="48.7357" lon="1.77506">
        <ele>186.4</ele>
        <time>2026-01-13T12:02:02Z</time>
      </trkpt>
      <trkpt lat="48.73568" lon="1.77501">
        <ele>186.4</ele>
        <time>2026-01-13T12:02:03Z</time>
      </trkpt>
      <trkpt lat="48.73566" lon="1.77497">
        <ele>186.4</ele>
        <time>2026-01-13T12:02:04Z</time>
      </trkpt>
      <trkpt lat="48.73564" lon="1.77493">
        <ele>186.4</ele>
        <time>2026-01-13T12:02:05Z</time>
      </trkpt>
      <trkpt lat="48.73562" lon="1.77488">
        <ele>186.4</ele>
        <time>2026-01-13T12:02:06Z</time>
      </trkpt>
      <trkpt lat="48.7356" lon="1.77483">
        <ele>186.4</ele>
        <time>2026-01-13T12:02:07Z</time>
      </trkpt>
      <trkpt lat="48.73558" lon="1.77479">
        <ele>186.4</ele>
        <time>2026-01-13T12:02:08Z</time>
      </trkpt>
      <trkpt lat="48.73556" lon="1.77475">
        <ele>186.4</ele>
        <time>2026-01-13T12:02:09Z</time>
      </trkpt>
      <trkpt lat="48.73554" lon="1.7747">
        <ele>186.4</ele>
        <time>2026-01-13T12:02:10Z</time>
      </trkpt>
      <trkpt lat="48.73552" lon="1.77466">
        <ele>187</ele>
        <time>2026-01-13T12:02:11Z</time>
      </trkpt>
      <trkpt lat="48.73551" lon="1.77462">
        <ele>187</ele>
        <time>2026-01-13T12:02:12Z</time>
      </trkpt>
      <trkpt lat="48.73549" lon="1.77457">
        <ele>187</ele>
        <time>2026-01-13T12:02:13Z</time>
      </trkpt>
      <trkpt lat="48.73547" lon="1.77453">
        <ele>187</ele>
        <time>2026-01-13T12:02:14Z</time>
      </trkpt>
      <trkpt lat="48.73545" lon="1.77449">
        <ele>187</ele>
        <time>2026-01-13T12:02:15Z</time>
      </trkpt>
      <trkpt lat="48.73544" lon="1.77445">
        <ele>187.8</ele>
        <time>2026-01-13T12:02:16Z</time>
      </trkpt>
      <trkpt lat="48.73542" lon="1.77441">
        <ele>188.2</ele>
        <time>2026-01-13T12:02:17Z</time>
      </trkpt>
      <trkpt lat="48.7354" lon="1.77437">
        <ele>188.2</ele>
        <time>2026-01-13T12:02:18Z</time>
      </trkpt>
      <trkpt lat="48.73539" lon="1.77433">
        <ele>188.2</ele>
        <time>2026-01-13T12:02:19Z</time>
      </trkpt>
      <trkpt lat="48.73537" lon="1.77429">
        <ele>188.2</ele>
        <time>2026-01-13T12:02:20Z</time>
      </trkpt>
      <trkpt lat="48.73535" lon="1.77425">
        <ele>189.2</ele>
        <time>2026-01-13T12:02:21Z</time>
      </trkpt>
      <trkpt lat="48.73533" lon="1.77421">
        <ele>189.4</ele>
        <time>2026-01-13T12:02:22Z</time>
      </trkpt>
      <trkpt lat="48.73531" lon="1.77416">
        <ele>189.4</ele>
        <time>2026-01-13T12:02:23Z</time>
      </trkpt>
      <trkpt lat="48.73529" lon="1.77411">
        <ele>189.4</ele>
        <time>2026-01-13T12:02:24Z</time>
      </trkpt>
      <trkpt lat="48.73527" lon="1.77406">
        <ele>189.4</ele>
        <time>2026-01-13T12:02:25Z</time>
      </trkpt>
      <trkpt lat="48.73525" lon="1.77401">
        <ele>189.4</ele>
        <time>2026-01-13T12:02:26Z</time>
      </trkpt>
      <trkpt lat="48.73523" lon="1.77396">
        <ele>189.4</ele>
        <time>2026-01-13T12:02:27Z</time>
      </trkpt>
      <trkpt lat="48.73521" lon="1.77391">
        <ele>189.8</ele>
        <time>2026-01-13T12:02:28Z</time>
      </trkpt>
      <trkpt lat="48.73518" lon="1.77386">
        <ele>190</ele>
        <time>2026-01-13T12:02:29Z</time>
      </trkpt>
      <trkpt lat="48.73516" lon="1.77381">
        <ele>190</ele>
        <time>2026-01-13T12:02:30Z</time>
      </trkpt>
      <trkpt lat="48.73514" lon="1.77376">
        <ele>190</ele>
        <time>2026-01-13T12:02:31Z</time>
      </trkpt>
      <trkpt lat="48.73512" lon="1.77371">
        <ele>190</ele>
        <time>2026-01-13T12:02:32Z</time>
      </trkpt>
      <trkpt lat="48.7351" lon="1.77366">
        <ele>190</ele>
        <time>2026-01-13T12:02:33Z</time>
      </trkpt>
      <trkpt lat="48.73508" lon="1.77361">
        <ele>190</ele>
        <time>2026-01-13T12:02:34Z</time>
      </trkpt>
      <trkpt lat="48.73506" lon="1.77356">
        <ele>190</ele>
        <time>2026-01-13T12:02:35Z</time>
      </trkpt>
      <trkpt lat="48.73504" lon="1.77351">
        <ele>190</ele>
        <time>2026-01-13T12:02:36Z</time>
      </trkpt>
      <trkpt lat="48.73501" lon="1.77346">
        <ele>190.6</ele>
        <time>2026-01-13T12:02:37Z</time>
      </trkpt>
      <trkpt lat="48.73499" lon="1.77341">
        <ele>190.6</ele>
        <time>2026-01-13T12:02:38Z</time>
      </trkpt>
      <trkpt lat="48.73497" lon="1.77336">
        <ele>190.6</ele>
        <time>2026-01-13T12:02:39Z</time>
      </trkpt>
      <trkpt lat="48.73495" lon="1.7733">
        <ele>190.6</ele>
        <time>2026-01-13T12:02:40Z</time>
      </trkpt>
      <trkpt lat="48.73492" lon="1.77325">
        <ele>190.6</ele>
        <time>2026-01-13T12:02:41Z</time>
      </trkpt>
      <trkpt lat="48.7349" lon="1.77319">
        <ele>190.6</ele>
        <time>2026-01-13T12:02:42Z</time>
      </trkpt>
      <trkpt lat="48.73488" lon="1.77314">
        <ele>191.6</ele>
        <time>2026-01-13T12:02:43Z</time>
      </trkpt>
      <trkpt lat="48.73485" lon="1.77309">
        <ele>192.2</ele>
        <time>2026-01-13T12:02:44Z</time>
      </trkpt>
      <trkpt lat="48.73483" lon="1.77304">
        <ele>192.4</ele>
        <time>2026-01-13T12:02:45Z</time>
      </trkpt>
      <trkpt lat="48.7348" lon="1.77299">
        <ele>192.6</ele>
        <time>2026-01-13T12:02:46Z</time>
      </trkpt>
      <trkpt lat="48.73478" lon="1.77294">
        <ele>192.6</ele>
        <time>2026-01-13T12:02:47Z</time>
      </trkpt>
      <trkpt lat="48.73476" lon="1.77288">
        <ele>192.6</ele>
        <time>2026-01-13T12:02:48Z</time>
      </trkpt>
      <trkpt lat="48.73473" lon="1.77283">
        <ele>192</ele>
        <time>2026-01-13T12:02:49Z</time>
      </trkpt>
      <trkpt lat="48.73471" lon="1.77278">
        <ele>192</ele>
        <time>2026-01-13T12:02:50Z</time>
      </trkpt>
      <trkpt lat="48.73469" lon="1.77272">
        <ele>192</ele>
        <time>2026-01-13T12:02:51Z</time>
      </trkpt>
      <trkpt lat="48.73466" lon="1.77267">
        <ele>192</ele>
        <time>2026-01-13T12:02:52Z</time>
      </trkpt>
      <trkpt lat="48.73464" lon="1.77261">
        <ele>192.2</ele>
        <time>2026-01-13T12:02:53Z</time>
      </trkpt>
      <trkpt lat="48.73462" lon="1.77256">
        <ele>192.2</ele>
        <time>2026-01-13T12:02:54Z</time>
      </trkpt>
      <trkpt lat="48.7346" lon="1.7725">
        <ele>192.2</ele>
        <time>2026-01-13T12:02:55Z</time>
      </trkpt>
      <trkpt lat="48.73457" lon="1.77245">
        <ele>191.8</ele>
        <time>2026-01-13T12:02:56Z</time>
      </trkpt>
      <trkpt lat="48.73455" lon="1.7724">
        <ele>191.8</ele>
        <time>2026-01-13T12:02:57Z</time>
      </trkpt>
      <trkpt lat="48.73453" lon="1.77234">
        <ele>191.8</ele>
        <time>2026-01-13T12:02:58Z</time>
      </trkpt>
      <trkpt lat="48.7345" lon="1.77229">
        <ele>191.8</ele>
        <time>2026-01-13T12:02:59Z</time>
      </trkpt>
      <trkpt lat="48.73448" lon="1.77223">
        <ele>192.4</ele>
        <time>2026-01-13T12:03:00Z</time>
      </trkpt>
      <trkpt lat="48.73445" lon="1.77218">
        <ele>192.4</ele>
        <time>2026-01-13T12:03:01Z</time>
      </trkpt>
      <trkpt lat="48.73443" lon="1.77213">
        <ele>192.4</ele>
        <time>2026-01-13T12:03:02Z</time>
      </trkpt>
      <trkpt lat="48.73441" lon="1.77208">
        <ele>191.8</ele>
        <time>2026-01-13T12:03:03Z</time>
      </trkpt>
      <trkpt lat="48.73438" lon="1.77202">
        <ele>191.8</ele>
        <time>2026-01-13T12:03:04Z</time>
      </trkpt>
      <trkpt lat="48.73436" lon="1.77197">
        <ele>191.8</ele>
        <time>2026-01-13T12:03:05Z</time>
      </trkpt>
      <trkpt lat="48.73434" lon="1.77191">
        <ele>191.8</ele>
        <time>2026-01-13T12:03:06Z</time>
      </trkpt>
      <trkpt lat="48.73431" lon="1.77185">
        <ele>191.8</ele>
        <time>2026-01-13T12:03:07Z</time>
      </trkpt>
      <trkpt lat="48.73429" lon="1.77179">
        <ele>191.8</ele>
        <time>2026-01-13T12:03:08Z</time>
      </trkpt>
      <trkpt lat="48.73426" lon="1.77174">
        <ele>191.8</ele>
        <time>2026-01-13T12:03:09Z</time>
      </trkpt>
      <trkpt lat="48.73423" lon="1.77168">
        <ele>192.2</ele>
        <time>2026-01-13T12:03:10Z</time>
      </trkpt>
      <trkpt lat="48.73421" lon="1.77162">
        <ele>192.6</ele>
        <time>2026-01-13T12:03:11Z</time>
      </trkpt>
      <trkpt lat="48.73418" lon="1.77156">
        <ele>192.6</ele>
        <time>2026-01-13T12:03:12Z</time>
      </trkpt>
      <trkpt lat="48.73415" lon="1.7715">
        <ele>193.6</ele>
        <time>2026-01-13T12:03:13Z</time>
      </trkpt>
      <trkpt lat="48.73413" lon="1.77144">
        <ele>194</ele>
        <time>2026-01-13T12:03:14Z</time>
      </trkpt>
      <trkpt lat="48.7341" lon="1.77138">
        <ele>194</ele>
        <time>2026-01-13T12:03:15Z</time>
      </trkpt>
      <trkpt lat="48.73407" lon="1.77132">
        <ele>194</ele>
        <time>2026-01-13T12:03:16Z</time>
      </trkpt>
      <trkpt lat="48.73404" lon="1.77126">
        <ele>193</ele>
        <time>2026-01-13T12:03:17Z</time>
      </trkpt>
      <trkpt lat="48.73402" lon="1.7712">
        <ele>192.8</ele>
        <time>2026-01-13T12:03:18Z</time>
      </trkpt>
      <trkpt lat="48.734" lon="1.77115">
        <ele>192.8</ele>
        <time>2026-01-13T12:03:19Z</time>
      </trkpt>
      <trkpt lat="48.73397" lon="1.77108">
        <ele>192.8</ele>
        <time>2026-01-13T12:03:20Z</time>
      </trkpt>
      <trkpt lat="48.73394" lon="1.77102">
        <ele>193.2</ele>
        <time>2026-01-13T12:03:21Z</time>
      </trkpt>
      <trkpt lat="48.73393" lon="1.77096">
        <ele>193.4</ele>
        <time>2026-01-13T12:03:22Z</time>
      </trkpt>
      <trkpt lat="48.73391" lon="1.77091">
        <ele>193.6</ele>
        <time>2026-01-13T12:03:23Z</time>
      </trkpt>
      <trkpt lat="48.73387" lon="1.77083">
        <ele>194</ele>
        <time>2026-01-13T12:03:24Z</time>
      </trkpt>
      <trkpt lat="48.73385" lon="1.77079">
        <ele>194.2</ele>
        <time>2026-01-13T12:03:25Z</time>
      </trkpt>
      <trkpt lat="48.73382" lon="1.77075">
        <ele>194.8</ele>
        <time>2026-01-13T12:03:26Z</time>
      </trkpt>
      <trkpt lat="48.7338" lon="1.77071">
        <ele>194.8</ele>
        <time>2026-01-13T12:03:27Z</time>
      </trkpt>
      <trkpt lat="48.73377" lon="1.77067">
        <ele>194.8</ele>
        <time>2026-01-13T12:03:28Z</time>
      </trkpt>
      <trkpt lat="48.73375" lon="1.77063">
        <ele>193.6</ele>
        <time>2026-01-13T12:04:24Z</time>
      </trkpt>
      <trkpt lat="48.73373" lon="1.77059">
        <ele>193.4</ele>
        <time>2026-01-13T12:04:25Z</time>
      </trkpt>
      <trkpt lat="48.7337" lon="1.77055">
        <ele>193</ele>
        <time>2026-01-13T12:04:26Z</time>
      </trkpt>
      <trkpt lat="48.73367" lon="1.77049">
        <ele>193</ele>
        <time>2026-01-13T12:04:27Z</time>
      </trkpt>
      <trkpt lat="48.73364" lon="1.77042">
        <ele>193</ele>
        <time>2026-01-13T12:04:28Z</time>
      </trkpt>
      <trkpt lat="48.73361" lon="1.77035">
        <ele>193</ele>
        <time>2026-01-13T12:04:29Z</time>
      </trkpt>
      <trkpt lat="48.73358" lon="1.77028">
        <ele>193</ele>
        <time>2026-01-13T12:04:30Z</time>
      </trkpt>
      <trkpt lat="48.73354" lon="1.77021">
        <ele>193</ele>
        <time>2026-01-13T12:04:31Z</time>
      </trkpt>
      <trkpt lat="48.7335" lon="1.77014">
        <ele>192.6</ele>
        <time>2026-01-13T12:04:32Z</time>
      </trkpt>
      <trkpt lat="48.73346" lon="1.77008">
        <ele>192.6</ele>
        <time>2026-01-13T12:04:33Z</time>
      </trkpt>
      <trkpt lat="48.73342" lon="1.77001">
        <ele>192.6</ele>
        <time>2026-01-13T12:04:34Z</time>
      </trkpt>
      <trkpt lat="48.73337" lon="1.76995">
        <ele>192.6</ele>
        <time>2026-01-13T12:04:35Z</time>
      </trkpt>
      <trkpt lat="48.73333" lon="1.76988">
        <ele>192.6</ele>
        <time>2026-01-13T12:04:36Z</time>
      </trkpt>
      <trkpt lat="48.73328" lon="1.76982">
        <ele>192.6</ele>
        <time>2026-01-13T12:04:37Z</time>
      </trkpt>
      <trkpt lat="48.73324" lon="1.76975">
        <ele>193</ele>
        <time>2026-01-13T12:04:38Z</time>
      </trkpt>
      <trkpt lat="48.73319" lon="1.76969">
        <ele>193</ele>
        <time>2026-01-13T12:04:39Z</time>
      </trkpt>
      <trkpt lat="48.73314" lon="1.76963">
        <ele>193</ele>
        <time>2026-01-13T12:04:40Z</time>
      </trkpt>
      <trkpt lat="48.73309" lon="1.76957">
        <ele>192</ele>
        <time>2026-01-13T12:04:41Z</time>
      </trkpt>
      <trkpt lat="48.73304" lon="1.76951">
        <ele>191.8</ele>
        <time>2026-01-13T12:04:42Z</time>
      </trkpt>
      <trkpt lat="48.73298" lon="1.76946">
        <ele>191.8</ele>
        <time>2026-01-13T12:04:43Z</time>
      </trkpt>
      <trkpt lat="48.73293" lon="1.76941">
        <ele>191.8</ele>
        <time>2026-01-13T12:04:44Z</time>
      </trkpt>
      <trkpt lat="48.73287" lon="1.76936">
        <ele>191.8</ele>
        <time>2026-01-13T12:04:45Z</time>
      </trkpt>
      <trkpt lat="48.73281" lon="1.76931">
        <ele>191.6</ele>
        <time>2026-01-13T12:04:46Z</time>
      </trkpt>
      <trkpt lat="48.73276" lon="1.76927">
        <ele>191.6</ele>
        <time>2026-01-13T12:04:47Z</time>
      </trkpt>
      <trkpt lat="48.7327" lon="1.76922">
        <ele>191.6</ele>
        <time>2026-01-13T12:04:48Z</time>
      </trkpt>
      <trkpt lat="48.73264" lon="1.76918">
        <ele>191.6</ele>
        <time>2026-01-13T12:04:49Z</time>
      </trkpt>
      <trkpt lat="48.73259" lon="1.76914">
        <ele>191.6</ele>
        <time>2026-01-13T12:04:50Z</time>
      </trkpt>
      <trkpt lat="48.73253" lon="1.7691">
        <ele>190.6</ele>
        <time>2026-01-13T12:04:51Z</time>
      </trkpt>
      <trkpt lat="48.73247" lon="1.76906">
        <ele>190.6</ele>
        <time>2026-01-13T12:04:52Z</time>
      </trkpt>
      <trkpt lat="48.73242" lon="1.76902">
        <ele>190.6</ele>
        <time>2026-01-13T12:04:53Z</time>
      </trkpt>
      <trkpt lat="48.73235" lon="1.76899">
        <ele>191</ele>
        <time>2026-01-13T12:04:54Z</time>
      </trkpt>
      <trkpt lat="48.7323" lon="1.76895">
        <ele>191.4</ele>
        <time>2026-01-13T12:04:55Z</time>
      </trkpt>
      <trkpt lat="48.73224" lon="1.76892">
        <ele>191.4</ele>
        <time>2026-01-13T12:04:56Z</time>
      </trkpt>
      <trkpt lat="48.73218" lon="1.76888">
        <ele>191.4</ele>
        <time>2026-01-13T12:04:57Z</time>
      </trkpt>
      <trkpt lat="48.73212" lon="1.76885">
        <ele>190.4</ele>
        <time>2026-01-13T12:04:58Z</time>
      </trkpt>
      <trkpt lat="48.73206" lon="1.76882">
        <ele>190.4</ele>
        <time>2026-01-13T12:04:59Z</time>
      </trkpt>
      <trkpt lat="48.73201" lon="1.76879">
        <ele>190.4</ele>
        <time>2026-01-13T12:05:00Z</time>
      </trkpt>
      <trkpt lat="48.73195" lon="1.76875">
        <ele>190.8</ele>
        <time>2026-01-13T12:05:01Z</time>
      </trkpt>
      <trkpt lat="48.73189" lon="1.76872">
        <ele>190.8</ele>
        <time>2026-01-13T12:05:02Z</time>
      </trkpt>
      <trkpt lat="48.73183" lon="1.76868">
        <ele>190.8</ele>
        <time>2026-01-13T12:05:03Z</time>
      </trkpt>
      <trkpt lat="48.73177" lon="1.76865">
        <ele>190.4</ele>
        <time>2026-01-13T12:05:04Z</time>
      </trkpt>
      <trkpt lat="48.73171" lon="1.76862">
        <ele>190.4</ele>
        <time>2026-01-13T12:05:05Z</time>
      </trkpt>
      <trkpt lat="48.73164" lon="1.76859">
        <ele>190.4</ele>
        <time>2026-01-13T12:05:06Z</time>
      </trkpt>
      <trkpt lat="48.73158" lon="1.76856">
        <ele>190.6</ele>
        <time>2026-01-13T12:05:07Z</time>
      </trkpt>
      <trkpt lat="48.73152" lon="1.76851">
        <ele>190.6</ele>
        <time>2026-01-13T12:05:08Z</time>
      </trkpt>
      <trkpt lat="48.73146" lon="1.76848">
        <ele>190.6</ele>
        <time>2026-01-13T12:05:09Z</time>
      </trkpt>
      <trkpt lat="48.7314" lon="1.76845">
        <ele>189.6</ele>
        <time>2026-01-13T12:05:10Z</time>
      </trkpt>
      <trkpt lat="48.73134" lon="1.76842">
        <ele>189.2</ele>
        <time>2026-01-13T12:05:11Z</time>
      </trkpt>
      <trkpt lat="48.73128" lon="1.76838">
        <ele>189.2</ele>
        <time>2026-01-13T12:05:12Z</time>
      </trkpt>
      <trkpt lat="48.73121" lon="1.76834">
        <ele>189.2</ele>
        <time>2026-01-13T12:05:13Z</time>
      </trkpt>
      <trkpt lat="48.73115" lon="1.76831">
        <ele>189.2</ele>
        <time>2026-01-13T12:05:14Z</time>
      </trkpt>
      <trkpt lat="48.73109" lon="1.76827">
        <ele>188.8</ele>
        <time>2026-01-13T12:05:15Z</time>
      </trkpt>
      <trkpt lat="48.73103" lon="1.76824">
        <ele>188.8</ele>
        <time>2026-01-13T12:05:16Z</time>
      </trkpt>
      <trkpt lat="48.73096" lon="1.76821">
        <ele>188.8</ele>
        <time>2026-01-13T12:05:17Z</time>
      </trkpt>
      <trkpt lat="48.7309" lon="1.76817">
        <ele>188.8</ele>
        <time>2026-01-13T12:05:18Z</time>
      </trkpt>
      <trkpt lat="48.73083" lon="1.76814">
        <ele>187.8</ele>
        <time>2026-01-13T12:05:19Z</time>
      </trkpt>
      <trkpt lat="48.73077" lon="1.7681">
        <ele>187.2</ele>
        <time>2026-01-13T12:05:20Z</time>
      </trkpt>
      <trkpt lat="48.73071" lon="1.76807">
        <ele>187.2</ele>
        <time>2026-01-13T12:05:21Z</time>
      </trkpt>
      <trkpt lat="48.73065" lon="1.76803">
        <ele>187.2</ele>
        <time>2026-01-13T12:05:22Z</time>
      </trkpt>
      <trkpt lat="48.73058" lon="1.768">
        <ele>187.2</ele>
        <time>2026-01-13T12:05:23Z</time>
      </trkpt>
      <trkpt lat="48.73051" lon="1.76797">
        <ele>188.2</ele>
        <time>2026-01-13T12:05:24Z</time>
      </trkpt>
      <trkpt lat="48.73044" lon="1.76794">
        <ele>189</ele>
        <time>2026-01-13T12:05:25Z</time>
      </trkpt>
      <trkpt lat="48.73038" lon="1.7679">
        <ele>189</ele>
        <time>2026-01-13T12:05:26Z</time>
      </trkpt>
      <trkpt lat="48.73031" lon="1.76786">
        <ele>189</ele>
        <time>2026-01-13T12:05:27Z</time>
      </trkpt>
      <trkpt lat="48.73024" lon="1.76782">
        <ele>189</ele>
        <time>2026-01-13T12:05:28Z</time>
      </trkpt>
      <trkpt lat="48.73017" lon="1.76778">
        <ele>189</ele>
        <time>2026-01-13T12:05:29Z</time>
      </trkpt>
      <trkpt lat="48.7301" lon="1.76774">
        <ele>188</ele>
        <time>2026-01-13T12:05:30Z</time>
      </trkpt>
      <trkpt lat="48.73003" lon="1.76771">
        <ele>187.4</ele>
        <time>2026-01-13T12:05:31Z</time>
      </trkpt>
      <trkpt lat="48.72996" lon="1.76768">
        <ele>187.4</ele>
        <time>2026-01-13T12:05:32Z</time>
      </trkpt>
      <trkpt lat="48.72988" lon="1.76766">
        <ele>187.4</ele>
        <time>2026-01-13T12:05:33Z</time>
      </trkpt>
      <trkpt lat="48.72981" lon="1.76762">
        <ele>187.4</ele>
        <time>2026-01-13T12:05:34Z</time>
      </trkpt>
      <trkpt lat="48.72974" lon="1.76759">
        <ele>187.4</ele>
        <time>2026-01-13T12:05:35Z</time>
      </trkpt>
      <trkpt lat="48.72966" lon="1.76756">
        <ele>186.8</ele>
        <time>2026-01-13T12:05:36Z</time>
      </trkpt>
      <trkpt lat="48.72959" lon="1.76752">
        <ele>185.8</ele>
        <time>2026-01-13T12:05:37Z</time>
      </trkpt>
      <trkpt lat="48.72952" lon="1.76748">
        <ele>185.4</ele>
        <time>2026-01-13T12:05:38Z</time>
      </trkpt>
      <trkpt lat="48.72945" lon="1.76745">
        <ele>184.6</ele>
        <time>2026-01-13T12:05:39Z</time>
      </trkpt>
      <trkpt lat="48.72938" lon="1.76742">
        <ele>184.6</ele>
        <time>2026-01-13T12:05:40Z</time>
      </trkpt>
      <trkpt lat="48.7293" lon="1.76739">
        <ele>184.6</ele>
        <time>2026-01-13T12:05:41Z</time>
      </trkpt>
      <trkpt lat="48.72923" lon="1.76736">
        <ele>185.6</ele>
        <time>2026-01-13T12:05:42Z</time>
      </trkpt>
      <trkpt lat="48.72916" lon="1.76733">
        <ele>185.6</ele>
        <time>2026-01-13T12:05:43Z</time>
      </trkpt>
      <trkpt lat="48.7291" lon="1.7673">
        <ele>185.6</ele>
        <time>2026-01-13T12:05:44Z</time>
      </trkpt>
      <trkpt lat="48.72903" lon="1.76726">
        <ele>185.6</ele>
        <time>2026-01-13T12:05:45Z</time>
      </trkpt>
      <trkpt lat="48.72896" lon="1.76722">
        <ele>185.4</ele>
        <time>2026-01-13T12:05:46Z</time>
      </trkpt>
      <trkpt lat="48.72889" lon="1.76719">
        <ele>184.4</ele>
        <time>2026-01-13T12:05:47Z</time>
      </trkpt>
      <trkpt lat="48.72883" lon="1.76715">
        <ele>184.4</ele>
        <time>2026-01-13T12:05:48Z</time>
      </trkpt>
      <trkpt lat="48.72876" lon="1.76713">
        <ele>184.4</ele>
        <time>2026-01-13T12:05:49Z</time>
      </trkpt>
      <trkpt lat="48.72869" lon="1.76709">
        <ele>185</ele>
        <time>2026-01-13T12:05:50Z</time>
      </trkpt>
      <trkpt lat="48.72863" lon="1.76704">
        <ele>185.2</ele>
        <time>2026-01-13T12:05:51Z</time>
      </trkpt>
      <trkpt lat="48.72856" lon="1.76701">
        <ele>185.2</ele>
        <time>2026-01-13T12:05:52Z</time>
      </trkpt>
      <trkpt lat="48.72849" lon="1.76698">
        <ele>185.2</ele>
        <time>2026-01-13T12:05:53Z</time>
      </trkpt>
      <trkpt lat="48.72842" lon="1.76696">
        <ele>185.2</ele>
        <time>2026-01-13T12:05:54Z</time>
      </trkpt>
      <trkpt lat="48.72835" lon="1.76692">
        <ele>184.6</ele>
        <time>2026-01-13T12:05:55Z</time>
      </trkpt>
      <trkpt lat="48.72827" lon="1.76689">
        <ele>184.6</ele>
        <time>2026-01-13T12:05:56Z</time>
      </trkpt>
      <trkpt lat="48.7282" lon="1.76685">
        <ele>184.6</ele>
        <time>2026-01-13T12:05:57Z</time>
      </trkpt>
      <trkpt lat="48.72813" lon="1.7668">
        <ele>184.6</ele>
        <time>2026-01-13T12:05:58Z</time>
      </trkpt>
      <trkpt lat="48.72806" lon="1.76675">
        <ele>184.6</ele>
        <time>2026-01-13T12:05:59Z</time>
      </trkpt>
      <trkpt lat="48.72799" lon="1.76669">
        <ele>183.6</ele>
        <time>2026-01-13T12:06:00Z</time>
      </trkpt>
      <trkpt lat="48.72792" lon="1.76663">
        <ele>183.6</ele>
        <time>2026-01-13T12:06:01Z</time>
      </trkpt>
      <trkpt lat="48.72786" lon="1.76657">
        <ele>183.6</ele>
        <time>2026-01-13T12:06:02Z</time>
      </trkpt>
      <trkpt lat="48.72779" lon="1.76651">
        <ele>183.6</ele>
        <time>2026-01-13T12:06:03Z</time>
      </trkpt>
      <trkpt lat="48.72773" lon="1.76645">
        <ele>183.6</ele>
        <time>2026-01-13T12:06:04Z</time>
      </trkpt>
      <trkpt lat="48.72766" lon="1.76637">
        <ele>183.6</ele>
        <time>2026-01-13T12:06:05Z</time>
      </trkpt>
      <trkpt lat="48.7276" lon="1.76631">
        <ele>183.6</ele>
        <time>2026-01-13T12:06:06Z</time>
      </trkpt>
      <trkpt lat="48.72753" lon="1.76625">
        <ele>184</ele>
        <time>2026-01-13T12:06:07Z</time>
      </trkpt>
      <trkpt lat="48.72747" lon="1.76619">
        <ele>184</ele>
        <time>2026-01-13T12:06:08Z</time>
      </trkpt>
      <trkpt lat="48.7274" lon="1.76613">
        <ele>184</ele>
        <time>2026-01-13T12:06:09Z</time>
      </trkpt>
      <trkpt lat="48.72734" lon="1.76605">
        <ele>183.2</ele>
        <time>2026-01-13T12:06:10Z</time>
      </trkpt>
      <trkpt lat="48.72727" lon="1.76599">
        <ele>182.4</ele>
        <time>2026-01-13T12:06:11Z</time>
      </trkpt>
      <trkpt lat="48.72722" lon="1.76592">
        <ele>182</ele>
        <time>2026-01-13T12:06:12Z</time>
      </trkpt>
      <trkpt lat="48.72716" lon="1.76585">
        <ele>181.8</ele>
        <time>2026-01-13T12:06:13Z</time>
      </trkpt>
      <trkpt lat="48.72711" lon="1.76578">
        <ele>181</ele>
        <time>2026-01-13T12:06:14Z</time>
      </trkpt>
      <trkpt lat="48.72706" lon="1.76572">
        <ele>180.4</ele>
        <time>2026-01-13T12:06:15Z</time>
      </trkpt>
      <trkpt lat="48.72703" lon="1.76564">
        <ele>179.8</ele>
        <time>2026-01-13T12:06:16Z</time>
      </trkpt>
      <trkpt lat="48.72698" lon="1.76555">
        <ele>179.8</ele>
        <time>2026-01-13T12:06:17Z</time>
      </trkpt>
      <trkpt lat="48.72693" lon="1.76544">
        <ele>179.8</ele>
        <time>2026-01-13T12:06:18Z</time>
      </trkpt>
      <trkpt lat="48.7269" lon="1.76533">
        <ele>179.8</ele>
        <time>2026-01-13T12:06:19Z</time>
      </trkpt>
      <trkpt lat="48.72685" lon="1.76521">
        <ele>178.8</ele>
        <time>2026-01-13T12:06:20Z</time>
      </trkpt>
      <trkpt lat="48.72681" lon="1.7651">
        <ele>177.8</ele>
        <time>2026-01-13T12:06:21Z</time>
      </trkpt>
      <trkpt lat="48.72676" lon="1.76499">
        <ele>176.8</ele>
        <time>2026-01-13T12:06:22Z</time>
      </trkpt>
      <trkpt lat="48.72671" lon="1.76488">
        <ele>175.8</ele>
        <time>2026-01-13T12:06:23Z</time>
      </trkpt>
      <trkpt lat="48.72666" lon="1.76477">
        <ele>174.8</ele>
        <time>2026-01-13T12:06:24Z</time>
      </trkpt>
      <trkpt lat="48.7266" lon="1.76467">
        <ele>173.8</ele>
        <time>2026-01-13T12:06:25Z</time>
      </trkpt>
      <trkpt lat="48.72653" lon="1.76456">
        <ele>172.8</ele>
        <time>2026-01-13T12:06:26Z</time>
      </trkpt>
      <trkpt lat="48.72646" lon="1.76447">
        <ele>171.8</ele>
        <time>2026-01-13T12:06:27Z</time>
      </trkpt>
      <trkpt lat="48.72638" lon="1.7644">
        <ele>170.8</ele>
        <time>2026-01-13T12:06:28Z</time>
      </trkpt>
      <trkpt lat="48.72629" lon="1.76434">
        <ele>169.8</ele>
        <time>2026-01-13T12:06:29Z</time>
      </trkpt>
      <trkpt lat="48.72619" lon="1.7643">
        <ele>168.8</ele>
        <time>2026-01-13T12:06:30Z</time>
      </trkpt>
      <trkpt lat="48.7261" lon="1.76428">
        <ele>168.4</ele>
        <time>2026-01-13T12:06:31Z</time>
      </trkpt>
      <trkpt lat="48.726" lon="1.76428">
        <ele>167.4</ele>
        <time>2026-01-13T12:06:32Z</time>
      </trkpt>
      <trkpt lat="48.7259" lon="1.76429">
        <ele>167.4</ele>
        <time>2026-01-13T12:06:33Z</time>
      </trkpt>
      <trkpt lat="48.7258" lon="1.76432">
        <ele>167</ele>
        <time>2026-01-13T12:06:34Z</time>
      </trkpt>
      <trkpt lat="48.7257" lon="1.76438">
        <ele>166</ele>
        <time>2026-01-13T12:06:35Z</time>
      </trkpt>
      <trkpt lat="48.72562" lon="1.76445">
        <ele>165.4</ele>
        <time>2026-01-13T12:06:36Z</time>
      </trkpt>
      <trkpt lat="48.72554" lon="1.76453">
        <ele>165.2</ele>
        <time>2026-01-13T12:06:37Z</time>
      </trkpt>
      <trkpt lat="48.72547" lon="1.76462">
        <ele>165.2</ele>
        <time>2026-01-13T12:06:38Z</time>
      </trkpt>
      <trkpt lat="48.72542" lon="1.76473">
        <ele>164.8</ele>
        <time>2026-01-13T12:06:39Z</time>
      </trkpt>
      <trkpt lat="48.72538" lon="1.76485">
        <ele>164</ele>
        <time>2026-01-13T12:06:40Z</time>
      </trkpt>
      <trkpt lat="48.72532" lon="1.76499">
        <ele>163.4</ele>
        <time>2026-01-13T12:06:41Z</time>
      </trkpt>
      <trkpt lat="48.72528" lon="1.76512">
        <ele>163.2</ele>
        <time>2026-01-13T12:06:42Z</time>
      </trkpt>
      <trkpt lat="48.72522" lon="1.76525">
        <ele>162.2</ele>
        <time>2026-01-13T12:06:43Z</time>
      </trkpt>
      <trkpt lat="48.72515" lon="1.76539">
        <ele>161.2</ele>
        <time>2026-01-13T12:06:44Z</time>
      </trkpt>
      <trkpt lat="48.72509" lon="1.76553">
        <ele>160.2</ele>
        <time>2026-01-13T12:06:45Z</time>
      </trkpt>
      <trkpt lat="48.72503" lon="1.76568">
        <ele>159.2</ele>
        <time>2026-01-13T12:06:46Z</time>
      </trkpt>
      <trkpt lat="48.72497" lon="1.76582">
        <ele>158.2</ele>
        <time>2026-01-13T12:06:47Z</time>
      </trkpt>
      <trkpt lat="48.72491" lon="1.76595">
        <ele>157.2</ele>
        <time>2026-01-13T12:06:48Z</time>
      </trkpt>
      <trkpt lat="48.72486" lon="1.76608">
        <ele>157.2</ele>
        <time>2026-01-13T12:06:49Z</time>
      </trkpt>
      <trkpt lat="48.72482" lon="1.7662">
        <ele>157.2</ele>
        <time>2026-01-13T12:06:50Z</time>
      </trkpt>
      <trkpt lat="48.72476" lon="1.7663">
        <ele>157.8</ele>
        <time>2026-01-13T12:06:51Z</time>
      </trkpt>
      <trkpt lat="48.7247" lon="1.76638">
        <ele>157.8</ele>
        <time>2026-01-13T12:06:52Z</time>
      </trkpt>
      <trkpt lat="48.72462" lon="1.76644">
        <ele>157.8</ele>
        <time>2026-01-13T12:06:53Z</time>
      </trkpt>
      <trkpt lat="48.72454" lon="1.76649">
        <ele>156.8</ele>
        <time>2026-01-13T12:06:54Z</time>
      </trkpt>
      <trkpt lat="48.72446" lon="1.76653">
        <ele>155.8</ele>
        <time>2026-01-13T12:06:55Z</time>
      </trkpt>
      <trkpt lat="48.72438" lon="1.76657">
        <ele>154.8</ele>
        <time>2026-01-13T12:06:56Z</time>
      </trkpt>
      <trkpt lat="48.72429" lon="1.76662">
        <ele>153.8</ele>
        <time>2026-01-13T12:06:57Z</time>
      </trkpt>
      <trkpt lat="48.7242" lon="1.76667">
        <ele>153</ele>
        <time>2026-01-13T12:06:58Z</time>
      </trkpt>
      <trkpt lat="48.72412" lon="1.76673">
        <ele>152.6</ele>
        <time>2026-01-13T12:06:59Z</time>
      </trkpt>
      <trkpt lat="48.72403" lon="1.76678">
        <ele>151.6</ele>
        <time>2026-01-13T12:07:00Z</time>
      </trkpt>
      <trkpt lat="48.72394" lon="1.76684">
        <ele>150.6</ele>
        <time>2026-01-13T12:07:01Z</time>
      </trkpt>
      <trkpt lat="48.72385" lon="1.76689">
        <ele>150.6</ele>
        <time>2026-01-13T12:07:02Z</time>
      </trkpt>
      <trkpt lat="48.72376" lon="1.76694">
        <ele>150.6</ele>
        <time>2026-01-13T12:07:03Z</time>
      </trkpt>
      <trkpt lat="48.72366" lon="1.76698">
        <ele>150.6</ele>
        <time>2026-01-13T12:07:04Z</time>
      </trkpt>
      <trkpt lat="48.72357" lon="1.76702">
        <ele>149.6</ele>
        <time>2026-01-13T12:07:05Z</time>
      </trkpt>
      <trkpt lat="48.72347" lon="1.76703">
        <ele>148.6</ele>
        <time>2026-01-13T12:07:06Z</time>
      </trkpt>
      <trkpt lat="48.72338" lon="1.76704">
        <ele>148.2</ele>
        <time>2026-01-13T12:07:07Z</time>
      </trkpt>
      <trkpt lat="48.72327" lon="1.76705">
        <ele>147.2</ele>
        <time>2026-01-13T12:07:08Z</time>
      </trkpt>
      <trkpt lat="48.72317" lon="1.76705">
        <ele>146.8</ele>
        <time>2026-01-13T12:07:09Z</time>
      </trkpt>
      <trkpt lat="48.72308" lon="1.76706">
        <ele>146.8</ele>
        <time>2026-01-13T12:07:10Z</time>
      </trkpt>
      <trkpt lat="48.72299" lon="1.76705">
        <ele>146.8</ele>
        <time>2026-01-13T12:07:11Z</time>
      </trkpt>
      <trkpt lat="48.72292" lon="1.767">
        <ele>147.8</ele>
        <time>2026-01-13T12:07:12Z</time>
      </trkpt>
      <trkpt lat="48.72286" lon="1.76693">
        <ele>147.8</ele>
        <time>2026-01-13T12:07:13Z</time>
      </trkpt>
      <trkpt lat="48.72281" lon="1.76684">
        <ele>147.8</ele>
        <time>2026-01-13T12:07:14Z</time>
      </trkpt>
      <trkpt lat="48.72277" lon="1.76674">
        <ele>147.8</ele>
        <time>2026-01-13T12:07:15Z</time>
      </trkpt>
      <trkpt lat="48.72273" lon="1.76665">
        <ele>148.8</ele>
        <time>2026-01-13T12:07:16Z</time>
      </trkpt>
      <trkpt lat="48.72269" lon="1.76655">
        <ele>149.8</ele>
        <time>2026-01-13T12:07:17Z</time>
      </trkpt>
      <trkpt lat="48.72264" lon="1.76646">
        <ele>149.8</ele>
        <time>2026-01-13T12:07:18Z</time>
      </trkpt>
      <trkpt lat="48.7226" lon="1.76636">
        <ele>149.8</ele>
        <time>2026-01-13T12:07:19Z</time>
      </trkpt>
      <trkpt lat="48.72256" lon="1.76627">
        <ele>149</ele>
        <time>2026-01-13T12:07:20Z</time>
      </trkpt>
      <trkpt lat="48.72251" lon="1.76617">
        <ele>149</ele>
        <time>2026-01-13T12:07:21Z</time>
      </trkpt>
      <trkpt lat="48.72247" lon="1.76607">
        <ele>149</ele>
        <time>2026-01-13T12:07:22Z</time>
      </trkpt>
      <trkpt lat="48.72243" lon="1.76597">
        <ele>149.6</ele>
        <time>2026-01-13T12:07:23Z</time>
      </trkpt>
      <trkpt lat="48.72238" lon="1.76588">
        <ele>149.6</ele>
        <time>2026-01-13T12:07:24Z</time>
      </trkpt>
      <trkpt lat="48.72234" lon="1.76578">
        <ele>149.6</ele>
        <time>2026-01-13T12:07:25Z</time>
      </trkpt>
      <trkpt lat="48.7223" lon="1.76569">
        <ele>149</ele>
        <time>2026-01-13T12:07:26Z</time>
      </trkpt>
      <trkpt lat="48.72226" lon="1.76561">
        <ele>149</ele>
        <time>2026-01-13T12:07:27Z</time>
      </trkpt>
      <trkpt lat="48.72223" lon="1.76552">
        <ele>149</ele>
        <time>2026-01-13T12:07:28Z</time>
      </trkpt>
      <trkpt lat="48.72219" lon="1.76544">
        <ele>149</ele>
        <time>2026-01-13T12:07:29Z</time>
      </trkpt>
      <trkpt lat="48.72216" lon="1.76536">
        <ele>149</ele>
        <time>2026-01-13T12:07:30Z</time>
      </trkpt>
      <trkpt lat="48.72213" lon="1.76528">
        <ele>150</ele>
        <time>2026-01-13T12:07:31Z</time>
      </trkpt>
      <trkpt lat="48.72211" lon="1.76521">
        <ele>151</ele>
        <time>2026-01-13T12:07:32Z</time>
      </trkpt>
      <trkpt lat="48.72207" lon="1.76514">
        <ele>151.6</ele>
        <time>2026-01-13T12:07:33Z</time>
      </trkpt>
      <trkpt lat="48.72204" lon="1.76508">
        <ele>152</ele>
        <time>2026-01-13T12:07:34Z</time>
      </trkpt>
      <trkpt lat="48.72201" lon="1.76502">
        <ele>152</ele>
        <time>2026-01-13T12:07:35Z</time>
      </trkpt>
      <trkpt lat="48.72198" lon="1.76497">
        <ele>152</ele>
        <time>2026-01-13T12:07:36Z</time>
      </trkpt>
      <trkpt lat="48.72194" lon="1.76492">
        <ele>152</ele>
        <time>2026-01-13T12:07:37Z</time>
      </trkpt>
      <trkpt lat="48.72191" lon="1.76489">
        <ele>152</ele>
        <time>2026-01-13T12:07:38Z</time>
      </trkpt>
      <trkpt lat="48.72187" lon="1.76487">
        <ele>153</ele>
        <time>2026-01-13T12:07:39Z</time>
      </trkpt>
      <trkpt lat="48.72183" lon="1.76488">
        <ele>154</ele>
        <time>2026-01-13T12:07:40Z</time>
      </trkpt>
      <trkpt lat="48.7218" lon="1.76491">
        <ele>154</ele>
        <time>2026-01-13T12:07:41Z</time>
      </trkpt>
      <trkpt lat="48.72177" lon="1.76495">
        <ele>154</ele>
        <time>2026-01-13T12:07:42Z</time>
      </trkpt>
      <trkpt lat="48.72175" lon="1.765">
        <ele>153.8</ele>
        <time>2026-01-13T12:07:43Z</time>
      </trkpt>
      <trkpt lat="48.72172" lon="1.76505">
        <ele>153.4</ele>
        <time>2026-01-13T12:07:44Z</time>
      </trkpt>
      <trkpt lat="48.7217" lon="1.7651">
        <ele>153.4</ele>
        <time>2026-01-13T12:07:45Z</time>
      </trkpt>
      <trkpt lat="48.72167" lon="1.76515">
        <ele>153.4</ele>
        <time>2026-01-13T12:07:46Z</time>
      </trkpt>
      <trkpt lat="48.72165" lon="1.76519">
        <ele>153.4</ele>
        <time>2026-01-13T12:07:47Z</time>
      </trkpt>
      <trkpt lat="48.72162" lon="1.76524">
        <ele>154.2</ele>
        <time>2026-01-13T12:07:48Z</time>
      </trkpt>
      <trkpt lat="48.72159" lon="1.76528">
        <ele>154.6</ele>
        <time>2026-01-13T12:07:49Z</time>
      </trkpt>
      <trkpt lat="48.72155" lon="1.76533">
        <ele>154.6</ele>
        <time>2026-01-13T12:07:50Z</time>
      </trkpt>
      <trkpt lat="48.72152" lon="1.76538">
        <ele>154.6</ele>
        <time>2026-01-13T12:07:51Z</time>
      </trkpt>
      <trkpt lat="48.72149" lon="1.76543">
        <ele>153.6</ele>
        <time>2026-01-13T12:07:52Z</time>
      </trkpt>
      <trkpt lat="48.72146" lon="1.76549">
        <ele>153.6</ele>
        <time>2026-01-13T12:07:53Z</time>
      </trkpt>
      <trkpt lat="48.72143" lon="1.76554">
        <ele>153.6</ele>
        <time>2026-01-13T12:07:54Z</time>
      </trkpt>
      <trkpt lat="48.72139" lon="1.76559">
        <ele>153.8</ele>
        <time>2026-01-13T12:07:55Z</time>
      </trkpt>
      <trkpt lat="48.72136" lon="1.76564">
        <ele>154</ele>
        <time>2026-01-13T12:07:56Z</time>
      </trkpt>
      <trkpt lat="48.72133" lon="1.76569">
        <ele>155</ele>
        <time>2026-01-13T12:07:57Z</time>
      </trkpt>
      <trkpt lat="48.7213" lon="1.76574">
        <ele>155</ele>
        <time>2026-01-13T12:07:58Z</time>
      </trkpt>
      <trkpt lat="48.72126" lon="1.7658">
        <ele>155</ele>
        <time>2026-01-13T12:07:59Z</time>
      </trkpt>
      <trkpt lat="48.72122" lon="1.76585">
        <ele>154</ele>
        <time>2026-01-13T12:08:00Z</time>
      </trkpt>
      <trkpt lat="48.7212" lon="1.76591">
        <ele>153</ele>
        <time>2026-01-13T12:08:01Z</time>
      </trkpt>
      <trkpt lat="48.72116" lon="1.76596">
        <ele>153</ele>
        <time>2026-01-13T12:08:02Z</time>
      </trkpt>
      <trkpt lat="48.72113" lon="1.76602">
        <ele>153</ele>
        <time>2026-01-13T12:08:03Z</time>
      </trkpt>
      <trkpt lat="48.7211" lon="1.76607">
        <ele>154</ele>
        <time>2026-01-13T12:08:04Z</time>
      </trkpt>
      <trkpt lat="48.72106" lon="1.76612">
        <ele>154.6</ele>
        <time>2026-01-13T12:08:05Z</time>
      </trkpt>
      <trkpt lat="48.72103" lon="1.76617">
        <ele>154.6</ele>
        <time>2026-01-13T12:08:06Z</time>
      </trkpt>
      <trkpt lat="48.72099" lon="1.76623">
        <ele>154.6</ele>
        <time>2026-01-13T12:08:07Z</time>
      </trkpt>
      <trkpt lat="48.72096" lon="1.76629">
        <ele>154.4</ele>
        <time>2026-01-13T12:08:08Z</time>
      </trkpt>
      <trkpt lat="48.72092" lon="1.76634">
        <ele>154.4</ele>
        <time>2026-01-13T12:08:09Z</time>
      </trkpt>
      <trkpt lat="48.72089" lon="1.7664">
        <ele>154.4</ele>
        <time>2026-01-13T12:08:10Z</time>
      </trkpt>
      <trkpt lat="48.72086" lon="1.76646">
        <ele>154.4</ele>
        <time>2026-01-13T12:08:11Z</time>
      </trkpt>
      <trkpt lat="48.72083" lon="1.7665">
        <ele>153.4</ele>
        <time>2026-01-13T12:08:12Z</time>
      </trkpt>
      <trkpt lat="48.72079" lon="1.76655">
        <ele>153.2</ele>
        <time>2026-01-13T12:08:13Z</time>
      </trkpt>
      <trkpt lat="48.72077" lon="1.7666">
        <ele>153.2</ele>
        <time>2026-01-13T12:08:14Z</time>
      </trkpt>
      <trkpt lat="48.72074" lon="1.76665">
        <ele>153.2</ele>
        <time>2026-01-13T12:08:15Z</time>
      </trkpt>
      <trkpt lat="48.7207" lon="1.76672">
        <ele>153.2</ele>
        <time>2026-01-13T12:08:16Z</time>
      </trkpt>
      <trkpt lat="48.72067" lon="1.76678">
        <ele>153.2</ele>
        <time>2026-01-13T12:08:17Z</time>
      </trkpt>
      <trkpt lat="48.72064" lon="1.76684">
        <ele>153.2</ele>
        <time>2026-01-13T12:08:18Z</time>
      </trkpt>
      <trkpt lat="48.72061" lon="1.76689">
        <ele>153.2</ele>
        <time>2026-01-13T12:08:19Z</time>
      </trkpt>
      <trkpt lat="48.72058" lon="1.76695">
        <ele>152.2</ele>
        <time>2026-01-13T12:08:20Z</time>
      </trkpt>
      <trkpt lat="48.72055" lon="1.767">
        <ele>151.8</ele>
        <time>2026-01-13T12:08:21Z</time>
      </trkpt>
      <trkpt lat="48.72052" lon="1.76705">
        <ele>151.8</ele>
        <time>2026-01-13T12:08:22Z</time>
      </trkpt>
      <trkpt lat="48.72049" lon="1.7671">
        <ele>151.8</ele>
        <time>2026-01-13T12:08:23Z</time>
      </trkpt>
      <trkpt lat="48.72046" lon="1.76716">
        <ele>152.8</ele>
        <time>2026-01-13T12:08:24Z</time>
      </trkpt>
      <trkpt lat="48.72043" lon="1.76722">
        <ele>153.8</ele>
        <time>2026-01-13T12:08:25Z</time>
      </trkpt>
      <trkpt lat="48.7204" lon="1.76728">
        <ele>154.8</ele>
        <time>2026-01-13T12:08:26Z</time>
      </trkpt>
      <trkpt lat="48.72037" lon="1.76734">
        <ele>154.8</ele>
        <time>2026-01-13T12:08:27Z</time>
      </trkpt>
      <trkpt lat="48.72034" lon="1.7674">
        <ele>154.8</ele>
        <time>2026-01-13T12:08:28Z</time>
      </trkpt>
      <trkpt lat="48.72031" lon="1.76745">
        <ele>154.8</ele>
        <time>2026-01-13T12:08:29Z</time>
      </trkpt>
      <trkpt lat="48.72028" lon="1.76751">
        <ele>154.8</ele>
        <time>2026-01-13T12:08:30Z</time>
      </trkpt>
      <trkpt lat="48.72026" lon="1.76757">
        <ele>154.8</ele>
        <time>2026-01-13T12:08:31Z</time>
      </trkpt>
      <trkpt lat="48.72023" lon="1.76762">
        <ele>154.4</ele>
        <time>2026-01-13T12:08:32Z</time>
      </trkpt>
      <trkpt lat="48.7202" lon="1.76768">
        <ele>154.4</ele>
        <time>2026-01-13T12:08:33Z</time>
      </trkpt>
      <trkpt lat="48.72017" lon="1.76773">
        <ele>154.4</ele>
        <time>2026-01-13T12:08:34Z</time>
      </trkpt>
      <trkpt lat="48.72014" lon="1.76779">
        <ele>155</ele>
        <time>2026-01-13T12:08:35Z</time>
      </trkpt>
      <trkpt lat="48.72011" lon="1.76785">
        <ele>155.4</ele>
        <time>2026-01-13T12:08:36Z</time>
      </trkpt>
      <trkpt lat="48.72008" lon="1.76791">
        <ele>155.8</ele>
        <time>2026-01-13T12:08:37Z</time>
      </trkpt>
      <trkpt lat="48.72005" lon="1.76796">
        <ele>155.8</ele>
        <time>2026-01-13T12:08:38Z</time>
      </trkpt>
      <trkpt lat="48.72001" lon="1.76802">
        <ele>155.8</ele>
        <time>2026-01-13T12:08:39Z</time>
      </trkpt>
      <trkpt lat="48.71998" lon="1.76807">
        <ele>155.8</ele>
        <time>2026-01-13T12:08:40Z</time>
      </trkpt>
      <trkpt lat="48.71994" lon="1.76812">
        <ele>156.4</ele>
        <time>2026-01-13T12:08:41Z</time>
      </trkpt>
      <trkpt lat="48.71991" lon="1.76818">
        <ele>156.6</ele>
        <time>2026-01-13T12:08:42Z</time>
      </trkpt>
      <trkpt lat="48.71987" lon="1.76822">
        <ele>156.8</ele>
        <time>2026-01-13T12:08:43Z</time>
      </trkpt>
      <trkpt lat="48.71983" lon="1.76826">
        <ele>156.8</ele>
        <time>2026-01-13T12:08:44Z</time>
      </trkpt>
      <trkpt lat="48.71979" lon="1.76831">
        <ele>156.8</ele>
        <time>2026-01-13T12:08:45Z</time>
      </trkpt>
      <trkpt lat="48.71976" lon="1.76836">
        <ele>156.8</ele>
        <time>2026-01-13T12:08:46Z</time>
      </trkpt>
      <trkpt lat="48.71974" lon="1.76842">
        <ele>157.2</ele>
        <time>2026-01-13T12:08:47Z</time>
      </trkpt>
      <trkpt lat="48.71972" lon="1.76849">
        <ele>157.4</ele>
        <time>2026-01-13T12:08:48Z</time>
      </trkpt>
      <trkpt lat="48.71971" lon="1.76856">
        <ele>157.8</ele>
        <time>2026-01-13T12:08:49Z</time>
      </trkpt>
      <trkpt lat="48.71971" lon="1.76863">
        <ele>157.8</ele>
        <time>2026-01-13T12:08:50Z</time>
      </trkpt>
      <trkpt lat="48.71969" lon="1.76871">
        <ele>157.8</ele>
        <time>2026-01-13T12:08:51Z</time>
      </trkpt>
      <trkpt lat="48.71968" lon="1.76878">
        <ele>157.2</ele>
        <time>2026-01-13T12:08:52Z</time>
      </trkpt>
      <trkpt lat="48.71965" lon="1.76883">
        <ele>157.2</ele>
        <time>2026-01-13T12:08:53Z</time>
      </trkpt>
      <trkpt lat="48.71963" lon="1.76889">
        <ele>157.2</ele>
        <time>2026-01-13T12:08:54Z</time>
      </trkpt>
      <trkpt lat="48.71961" lon="1.76895">
        <ele>157.6</ele>
        <time>2026-01-13T12:08:55Z</time>
      </trkpt>
      <trkpt lat="48.71958" lon="1.76902">
        <ele>158</ele>
        <time>2026-01-13T12:08:56Z</time>
      </trkpt>
      <trkpt lat="48.71955" lon="1.76907">
        <ele>158</ele>
        <time>2026-01-13T12:08:57Z</time>
      </trkpt>
      <trkpt lat="48.71952" lon="1.76914">
        <ele>158</ele>
        <time>2026-01-13T12:08:58Z</time>
      </trkpt>
      <trkpt lat="48.71949" lon="1.7692">
        <ele>157.8</ele>
        <time>2026-01-13T12:08:59Z</time>
      </trkpt>
      <trkpt lat="48.71946" lon="1.76926">
        <ele>157.6</ele>
        <time>2026-01-13T12:09:00Z</time>
      </trkpt>
      <trkpt lat="48.71943" lon="1.76932">
        <ele>157.6</ele>
        <time>2026-01-13T12:09:01Z</time>
      </trkpt>
      <trkpt lat="48.71941" lon="1.76938">
        <ele>157.6</ele>
        <time>2026-01-13T12:09:02Z</time>
      </trkpt>
      <trkpt lat="48.71939" lon="1.76944">
        <ele>158.4</ele>
        <time>2026-01-13T12:09:03Z</time>
      </trkpt>
      <trkpt lat="48.71936" lon="1.76949">
        <ele>158.4</ele>
        <time>2026-01-13T12:09:04Z</time>
      </trkpt>
      <trkpt lat="48.71934" lon="1.76954">
        <ele>158.4</ele>
        <time>2026-01-13T12:09:05Z</time>
      </trkpt>
      <trkpt lat="48.71931" lon="1.76959">
        <ele>158.4</ele>
        <time>2026-01-13T12:09:06Z</time>
      </trkpt>
      <trkpt lat="48.71928" lon="1.76964">
        <ele>159.2</ele>
        <time>2026-01-13T12:09:07Z</time>
      </trkpt>
      <trkpt lat="48.71925" lon="1.76968">
        <ele>159.2</ele>
        <time>2026-01-13T12:09:08Z</time>
      </trkpt>
      <trkpt lat="48.71923" lon="1.76973">
        <ele>159.2</ele>
        <time>2026-01-13T12:09:09Z</time>
      </trkpt>
      <trkpt lat="48.71921" lon="1.76977">
        <ele>159.2</ele>
        <time>2026-01-13T12:09:10Z</time>
      </trkpt>
      <trkpt lat="48.71919" lon="1.76983">
        <ele>159.4</ele>
        <time>2026-01-13T12:09:11Z</time>
      </trkpt>
      <trkpt lat="48.71917" lon="1.76987">
        <ele>159.8</ele>
        <time>2026-01-13T12:09:12Z</time>
      </trkpt>
      <trkpt lat="48.71915" lon="1.76991">
        <ele>159.8</ele>
        <time>2026-01-13T12:09:13Z</time>
      </trkpt>
      <trkpt lat="48.71913" lon="1.76996">
        <ele>159.8</ele>
        <time>2026-01-13T12:09:14Z</time>
      </trkpt>
      <trkpt lat="48.7191" lon="1.77001">
        <ele>159.8</ele>
        <time>2026-01-13T12:09:15Z</time>
      </trkpt>
      <trkpt lat="48.71908" lon="1.77004">
        <ele>160</ele>
        <time>2026-01-13T12:09:16Z</time>
      </trkpt>
      <trkpt lat="48.71905" lon="1.77008">
        <ele>160.2</ele>
        <time>2026-01-13T12:09:17Z</time>
      </trkpt>
      <trkpt lat="48.71903" lon="1.77013">
        <ele>160.4</ele>
        <time>2026-01-13T12:09:18Z</time>
      </trkpt>
      <trkpt lat="48.71899" lon="1.77019">
        <ele>160.4</ele>
        <time>2026-01-13T12:09:19Z</time>
      </trkpt>
      <trkpt lat="48.71896" lon="1.77025">
        <ele>160.4</ele>
        <time>2026-01-13T12:09:20Z</time>
      </trkpt>
      <trkpt lat="48.71893" lon="1.7703">
        <ele>160.4</ele>
        <time>2026-01-13T12:09:21Z</time>
      </trkpt>
      <trkpt lat="48.71891" lon="1.77035">
        <ele>161.4</ele>
        <time>2026-01-13T12:09:22Z</time>
      </trkpt>
      <trkpt lat="48.71888" lon="1.7704">
        <ele>161.4</ele>
        <time>2026-01-13T12:09:23Z</time>
      </trkpt>
      <trkpt lat="48.71885" lon="1.77046">
        <ele>161.4</ele>
        <time>2026-01-13T12:09:24Z</time>
      </trkpt>
      <trkpt lat="48.71882" lon="1.77051">
        <ele>161.4</ele>
        <time>2026-01-13T12:09:25Z</time>
      </trkpt>
      <trkpt lat="48.7188" lon="1.77056">
        <ele>161.4</ele>
        <time>2026-01-13T12:09:26Z</time>
      </trkpt>
      <trkpt lat="48.71876" lon="1.77061">
        <ele>162.2</ele>
        <time>2026-01-13T12:09:27Z</time>
      </trkpt>
      <trkpt lat="48.71874" lon="1.77067">
        <ele>162.2</ele>
        <time>2026-01-13T12:09:28Z</time>
      </trkpt>
      <trkpt lat="48.71871" lon="1.77073">
        <ele>162.2</ele>
        <time>2026-01-13T12:09:29Z</time>
      </trkpt>
      <trkpt lat="48.71868" lon="1.77079">
        <ele>162.2</ele>
        <time>2026-01-13T12:09:30Z</time>
      </trkpt>
      <trkpt lat="48.71865" lon="1.77085">
        <ele>162.2</ele>
        <time>2026-01-13T12:09:31Z</time>
      </trkpt>
      <trkpt lat="48.71862" lon="1.77091">
        <ele>162.2</ele>
        <time>2026-01-13T12:09:32Z</time>
      </trkpt>
      <trkpt lat="48.71859" lon="1.77097">
        <ele>162.2</ele>
        <time>2026-01-13T12:09:33Z</time>
      </trkpt>
      <trkpt lat="48.71856" lon="1.77103">
        <ele>162.2</ele>
        <time>2026-01-13T12:09:34Z</time>
      </trkpt>
      <trkpt lat="48.71853" lon="1.7711">
        <ele>162.2</ele>
        <time>2026-01-13T12:09:35Z</time>
      </trkpt>
      <trkpt lat="48.7185" lon="1.77116">
        <ele>162.2</ele>
        <time>2026-01-13T12:09:36Z</time>
      </trkpt>
      <trkpt lat="48.71847" lon="1.77123">
        <ele>162.2</ele>
        <time>2026-01-13T12:09:37Z</time>
      </trkpt>
      <trkpt lat="48.71844" lon="1.77129">
        <ele>162.2</ele>
        <time>2026-01-13T12:09:38Z</time>
      </trkpt>
      <trkpt lat="48.71841" lon="1.77135">
        <ele>162.8</ele>
        <time>2026-01-13T12:09:39Z</time>
      </trkpt>
      <trkpt lat="48.71838" lon="1.77142">
        <ele>163.2</ele>
        <time>2026-01-13T12:09:40Z</time>
      </trkpt>
      <trkpt lat="48.71835" lon="1.77149">
        <ele>163.2</ele>
        <time>2026-01-13T12:09:41Z</time>
      </trkpt>
      <trkpt lat="48.71833" lon="1.77155">
        <ele>163.2</ele>
        <time>2026-01-13T12:09:42Z</time>
      </trkpt>
      <trkpt lat="48.71831" lon="1.77161">
        <ele>163.2</ele>
        <time>2026-01-13T12:09:43Z</time>
      </trkpt>
      <trkpt lat="48.71828" lon="1.77167">
        <ele>163.6</ele>
        <time>2026-01-13T12:09:44Z</time>
      </trkpt>
      <trkpt lat="48.71825" lon="1.77173">
        <ele>163.6</ele>
        <time>2026-01-13T12:09:45Z</time>
      </trkpt>
      <trkpt lat="48.71822" lon="1.7718">
        <ele>163.6</ele>
        <time>2026-01-13T12:09:46Z</time>
      </trkpt>
      <trkpt lat="48.71819" lon="1.77186">
        <ele>163.6</ele>
        <time>2026-01-13T12:09:47Z</time>
      </trkpt>
      <trkpt lat="48.71816" lon="1.77193">
        <ele>164.2</ele>
        <time>2026-01-13T12:09:48Z</time>
      </trkpt>
      <trkpt lat="48.71813" lon="1.77199">
        <ele>164.2</ele>
        <time>2026-01-13T12:09:49Z</time>
      </trkpt>
      <trkpt lat="48.7181" lon="1.77204">
        <ele>164.2</ele>
        <time>2026-01-13T12:09:50Z</time>
      </trkpt>
      <trkpt lat="48.71807" lon="1.77209">
        <ele>164.2</ele>
        <time>2026-01-13T12:09:51Z</time>
      </trkpt>
      <trkpt lat="48.71804" lon="1.77216">
        <ele>164.2</ele>
        <time>2026-01-13T12:09:52Z</time>
      </trkpt>
      <trkpt lat="48.71801" lon="1.77221">
        <ele>165.2</ele>
        <time>2026-01-13T12:09:53Z</time>
      </trkpt>
      <trkpt lat="48.71799" lon="1.77226">
        <ele>165.2</ele>
        <time>2026-01-13T12:09:54Z</time>
      </trkpt>
      <trkpt lat="48.71796" lon="1.7723">
        <ele>165.8</ele>
        <time>2026-01-13T12:09:55Z</time>
      </trkpt>
      <trkpt lat="48.71793" lon="1.77234">
        <ele>165.8</ele>
        <time>2026-01-13T12:09:56Z</time>
      </trkpt>
      <trkpt lat="48.71789" lon="1.77239">
        <ele>165.8</ele>
        <time>2026-01-13T12:09:57Z</time>
      </trkpt>
      <trkpt lat="48.71785" lon="1.77244">
        <ele>165.8</ele>
        <time>2026-01-13T12:09:58Z</time>
      </trkpt>
      <trkpt lat="48.71781" lon="1.7725">
        <ele>165.8</ele>
        <time>2026-01-13T12:09:59Z</time>
      </trkpt>
      <trkpt lat="48.71777" lon="1.77255">
        <ele>165.8</ele>
        <time>2026-01-13T12:10:00Z</time>
      </trkpt>
      <trkpt lat="48.71773" lon="1.7726">
        <ele>166</ele>
        <time>2026-01-13T12:10:01Z</time>
      </trkpt>
      <trkpt lat="48.71769" lon="1.77264">
        <ele>166.4</ele>
        <time>2026-01-13T12:10:02Z</time>
      </trkpt>
      <trkpt lat="48.71765" lon="1.77268">
        <ele>166.4</ele>
        <time>2026-01-13T12:10:03Z</time>
      </trkpt>
      <trkpt lat="48.71761" lon="1.77271">
        <ele>166.4</ele>
        <time>2026-01-13T12:10:04Z</time>
      </trkpt>
      <trkpt lat="48.71757" lon="1.77275">
        <ele>166.4</ele>
        <time>2026-01-13T12:10:05Z</time>
      </trkpt>
      <trkpt lat="48.71753" lon="1.77278">
        <ele>166.4</ele>
        <time>2026-01-13T12:10:06Z</time>
      </trkpt>
      <trkpt lat="48.71748" lon="1.77283">
        <ele>166.4</ele>
        <time>2026-01-13T12:10:07Z</time>
      </trkpt>
      <trkpt lat="48.71744" lon="1.77287">
        <ele>166.4</ele>
        <time>2026-01-13T12:10:08Z</time>
      </trkpt>
      <trkpt lat="48.71741" lon="1.7729">
        <ele>166.4</ele>
        <time>2026-01-13T12:10:09Z</time>
      </trkpt>
      <trkpt lat="48.71736" lon="1.77295">
        <ele>167</ele>
        <time>2026-01-13T12:10:10Z</time>
      </trkpt>
      <trkpt lat="48.71732" lon="1.77298">
        <ele>167.6</ele>
        <time>2026-01-13T12:10:11Z</time>
      </trkpt>
      <trkpt lat="48.71728" lon="1.77301">
        <ele>167.8</ele>
        <time>2026-01-13T12:10:12Z</time>
      </trkpt>
      <trkpt lat="48.71724" lon="1.77305">
        <ele>167.8</ele>
        <time>2026-01-13T12:10:13Z</time>
      </trkpt>
      <trkpt lat="48.7172" lon="1.77309">
        <ele>167.8</ele>
        <time>2026-01-13T12:10:14Z</time>
      </trkpt>
      <trkpt lat="48.71715" lon="1.77312">
        <ele>167.8</ele>
        <time>2026-01-13T12:10:15Z</time>
      </trkpt>
      <trkpt lat="48.7171" lon="1.77316">
        <ele>167.8</ele>
        <time>2026-01-13T12:10:16Z</time>
      </trkpt>
      <trkpt lat="48.71706" lon="1.77319">
        <ele>167.8</ele>
        <time>2026-01-13T12:10:17Z</time>
      </trkpt>
      <trkpt lat="48.71701" lon="1.77322">
        <ele>167.2</ele>
        <time>2026-01-13T12:10:18Z</time>
      </trkpt>
      <trkpt lat="48.71696" lon="1.77325">
        <ele>167.2</ele>
        <time>2026-01-13T12:10:19Z</time>
      </trkpt>
      <trkpt lat="48.71692" lon="1.77328">
        <ele>167.2</ele>
        <time>2026-01-13T12:10:20Z</time>
      </trkpt>
      <trkpt lat="48.71688" lon="1.77331">
        <ele>167.6</ele>
        <time>2026-01-13T12:10:21Z</time>
      </trkpt>
      <trkpt lat="48.71682" lon="1.77334">
        <ele>167.6</ele>
        <time>2026-01-13T12:10:22Z</time>
      </trkpt>
      <trkpt lat="48.71677" lon="1.77336">
        <ele>167.6</ele>
        <time>2026-01-13T12:10:23Z</time>
      </trkpt>
      <trkpt lat="48.71672" lon="1.77338">
        <ele>167.6</ele>
        <time>2026-01-13T12:10:24Z</time>
      </trkpt>
      <trkpt lat="48.71667" lon="1.77339">
        <ele>167.8</ele>
        <time>2026-01-13T12:10:25Z</time>
      </trkpt>
      <trkpt lat="48.71662" lon="1.7734">
        <ele>167.8</ele>
        <time>2026-01-13T12:10:26Z</time>
      </trkpt>
      <trkpt lat="48.71657" lon="1.77341">
        <ele>167.8</ele>
        <time>2026-01-13T12:10:27Z</time>
      </trkpt>
      <trkpt lat="48.71652" lon="1.77343">
        <ele>166.8</ele>
        <time>2026-01-13T12:10:28Z</time>
      </trkpt>
      <trkpt lat="48.71647" lon="1.77345">
        <ele>166.6</ele>
        <time>2026-01-13T12:10:29Z</time>
      </trkpt>
      <trkpt lat="48.71642" lon="1.77346">
        <ele>166.4</ele>
        <time>2026-01-13T12:10:30Z</time>
      </trkpt>
      <trkpt lat="48.71636" lon="1.7735">
        <ele>166.4</ele>
        <time>2026-01-13T12:10:31Z</time>
      </trkpt>
      <trkpt lat="48.71631" lon="1.77351">
        <ele>166.4</ele>
        <time>2026-01-13T12:10:32Z</time>
      </trkpt>
      <trkpt lat="48.71626" lon="1.77351">
        <ele>167.4</ele>
        <time>2026-01-13T12:10:33Z</time>
      </trkpt>
      <trkpt lat="48.71621" lon="1.77353">
        <ele>168</ele>
        <time>2026-01-13T12:10:34Z</time>
      </trkpt>
      <trkpt lat="48.71615" lon="1.77355">
        <ele>168</ele>
        <time>2026-01-13T12:10:35Z</time>
      </trkpt>
      <trkpt lat="48.71609" lon="1.77357">
        <ele>168</ele>
        <time>2026-01-13T12:10:36Z</time>
      </trkpt>
      <trkpt lat="48.71603" lon="1.77359">
        <ele>167</ele>
        <time>2026-01-13T12:10:37Z</time>
      </trkpt>
      <trkpt lat="48.71597" lon="1.77361">
        <ele>166.2</ele>
        <time>2026-01-13T12:10:38Z</time>
      </trkpt>
      <trkpt lat="48.71591" lon="1.77365">
        <ele>166.2</ele>
        <time>2026-01-13T12:10:39Z</time>
      </trkpt>
      <trkpt lat="48.71585" lon="1.77366">
        <ele>166.2</ele>
        <time>2026-01-13T12:10:40Z</time>
      </trkpt>
      <trkpt lat="48.71579" lon="1.77369">
        <ele>166.2</ele>
        <time>2026-01-13T12:10:41Z</time>
      </trkpt>
      <trkpt lat="48.71573" lon="1.77371">
        <ele>166.2</ele>
        <time>2026-01-13T12:10:42Z</time>
      </trkpt>
      <trkpt lat="48.71568" lon="1.77372">
        <ele>166.2</ele>
        <time>2026-01-13T12:10:43Z</time>
      </trkpt>
      <trkpt lat="48.71561" lon="1.77375">
        <ele>166.6</ele>
        <time>2026-01-13T12:10:44Z</time>
      </trkpt>
      <trkpt lat="48.71556" lon="1.77376">
        <ele>166.6</ele>
        <time>2026-01-13T12:10:45Z</time>
      </trkpt>
      <trkpt lat="48.7155" lon="1.77377">
        <ele>166.6</ele>
        <time>2026-01-13T12:10:46Z</time>
      </trkpt>
      <trkpt lat="48.71545" lon="1.77378">
        <ele>165.6</ele>
        <time>2026-01-13T12:10:47Z</time>
      </trkpt>
      <trkpt lat="48.71539" lon="1.7738">
        <ele>165.6</ele>
        <time>2026-01-13T12:10:48Z</time>
      </trkpt>
      <trkpt lat="48.71534" lon="1.77382">
        <ele>165.6</ele>
        <time>2026-01-13T12:10:49Z</time>
      </trkpt>
      <trkpt lat="48.71528" lon="1.77384">
        <ele>165.8</ele>
        <time>2026-01-13T12:10:50Z</time>
      </trkpt>
      <trkpt lat="48.71524" lon="1.77387">
        <ele>166.6</ele>
        <time>2026-01-13T12:10:51Z</time>
      </trkpt>
      <trkpt lat="48.71518" lon="1.77391">
        <ele>166.6</ele>
        <time>2026-01-13T12:10:52Z</time>
      </trkpt>
      <trkpt lat="48.71513" lon="1.77394">
        <ele>166.6</ele>
        <time>2026-01-13T12:10:53Z</time>
      </trkpt>
      <trkpt lat="48.71508" lon="1.77397">
        <ele>166.6</ele>
        <time>2026-01-13T12:10:54Z</time>
      </trkpt>
      <trkpt lat="48.71503" lon="1.77401">
        <ele>166.6</ele>
        <time>2026-01-13T12:10:55Z</time>
      </trkpt>
      <trkpt lat="48.71498" lon="1.77405">
        <ele>167</ele>
        <time>2026-01-13T12:10:56Z</time>
      </trkpt>
      <trkpt lat="48.71494" lon="1.77411">
        <ele>167</ele>
        <time>2026-01-13T12:10:57Z</time>
      </trkpt>
      <trkpt lat="48.71489" lon="1.77416">
        <ele>167</ele>
        <time>2026-01-13T12:10:58Z</time>
      </trkpt>
      <trkpt lat="48.71485" lon="1.77422">
        <ele>166.8</ele>
        <time>2026-01-13T12:10:59Z</time>
      </trkpt>
      <trkpt lat="48.71481" lon="1.77429">
        <ele>166.4</ele>
        <time>2026-01-13T12:11:00Z</time>
      </trkpt>
      <trkpt lat="48.71477" lon="1.77436">
        <ele>166.2</ele>
        <time>2026-01-13T12:11:01Z</time>
      </trkpt>
      <trkpt lat="48.71474" lon="1.77442">
        <ele>166.2</ele>
        <time>2026-01-13T12:11:02Z</time>
      </trkpt>
      <trkpt lat="48.7147" lon="1.77448">
        <ele>166.2</ele>
        <time>2026-01-13T12:11:03Z</time>
      </trkpt>
      <trkpt lat="48.71468" lon="1.77455">
        <ele>167.2</ele>
        <time>2026-01-13T12:11:04Z</time>
      </trkpt>
      <trkpt lat="48.71465" lon="1.77463">
        <ele>167.6</ele>
        <time>2026-01-13T12:11:05Z</time>
      </trkpt>
      <trkpt lat="48.71462" lon="1.77472">
        <ele>168</ele>
        <time>2026-01-13T12:11:06Z</time>
      </trkpt>
      <trkpt lat="48.7146" lon="1.77479">
        <ele>169</ele>
        <time>2026-01-13T12:11:07Z</time>
      </trkpt>
      <trkpt lat="48.71458" lon="1.77486">
        <ele>169</ele>
        <time>2026-01-13T12:11:08Z</time>
      </trkpt>
      <trkpt lat="48.71457" lon="1.77494">
        <ele>169</ele>
        <time>2026-01-13T12:11:09Z</time>
      </trkpt>
      <trkpt lat="48.71455" lon="1.77501">
        <ele>169</ele>
        <time>2026-01-13T12:11:10Z</time>
      </trkpt>
      <trkpt lat="48.71454" lon="1.77508">
        <ele>169.6</ele>
        <time>2026-01-13T12:11:11Z</time>
      </trkpt>
      <trkpt lat="48.71451" lon="1.77516">
        <ele>170</ele>
        <time>2026-01-13T12:11:12Z</time>
      </trkpt>
      <trkpt lat="48.7145" lon="1.77523">
        <ele>170</ele>
        <time>2026-01-13T12:11:13Z</time>
      </trkpt>
      <trkpt lat="48.7145" lon="1.77529">
        <ele>170</ele>
        <time>2026-01-13T12:11:14Z</time>
      </trkpt>
      <trkpt lat="48.71449" lon="1.77534">
        <ele>170</ele>
        <time>2026-01-13T12:11:15Z</time>
      </trkpt>
      <trkpt lat="48.71449" lon="1.7754">
        <ele>170.6</ele>
        <time>2026-01-13T12:11:16Z</time>
      </trkpt>
      <trkpt lat="48.71448" lon="1.77546">
        <ele>170.6</ele>
        <time>2026-01-13T12:11:17Z</time>
      </trkpt>
      <trkpt lat="48.71447" lon="1.77551">
        <ele>170.6</ele>
        <time>2026-01-13T12:11:18Z</time>
      </trkpt>
      <trkpt lat="48.71447" lon="1.77556">
        <ele>170.6</ele>
        <time>2026-01-13T12:11:19Z</time>
      </trkpt>
      <trkpt lat="48.71447" lon="1.77563">
        <ele>171.2</ele>
        <time>2026-01-13T12:11:20Z</time>
      </trkpt>
      <trkpt lat="48.71446" lon="1.77569">
        <ele>171.4</ele>
        <time>2026-01-13T12:11:21Z</time>
      </trkpt>
      <trkpt lat="48.71446" lon="1.77574">
        <ele>171.6</ele>
        <time>2026-01-13T12:11:22Z</time>
      </trkpt>
      <trkpt lat="48.71445" lon="1.77579">
        <ele>172</ele>
        <time>2026-01-13T12:11:23Z</time>
      </trkpt>
      <trkpt lat="48.71445" lon="1.77584">
        <ele>172.6</ele>
        <time>2026-01-13T12:11:24Z</time>
      </trkpt>
      <trkpt lat="48.71445" lon="1.77589">
        <ele>172.8</ele>
        <time>2026-01-13T12:11:25Z</time>
      </trkpt>
      <trkpt lat="48.71445" lon="1.77595">
        <ele>172.8</ele>
        <time>2026-01-13T12:11:26Z</time>
      </trkpt>
      <trkpt lat="48.71445" lon="1.776">
        <ele>172.8</ele>
        <time>2026-01-13T12:11:27Z</time>
      </trkpt>
      <trkpt lat="48.71445" lon="1.77605">
        <ele>172.8</ele>
        <time>2026-01-13T12:11:28Z</time>
      </trkpt>
      <trkpt lat="48.71445" lon="1.7761">
        <ele>173.6</ele>
        <time>2026-01-13T12:11:29Z</time>
      </trkpt>
      <trkpt lat="48.71444" lon="1.77616">
        <ele>174</ele>
        <time>2026-01-13T12:11:30Z</time>
      </trkpt>
      <trkpt lat="48.71443" lon="1.77623">
        <ele>174</ele>
        <time>2026-01-13T12:11:31Z</time>
      </trkpt>
      <trkpt lat="48.71443" lon="1.77629">
        <ele>174</ele>
        <time>2026-01-13T12:11:32Z</time>
      </trkpt>
      <trkpt lat="48.71443" lon="1.77634">
        <ele>174</ele>
        <time>2026-01-13T12:11:33Z</time>
      </trkpt>
      <trkpt lat="48.71443" lon="1.77639">
        <ele>174.6</ele>
        <time>2026-01-13T12:11:34Z</time>
      </trkpt>
      <trkpt lat="48.71443" lon="1.77644">
        <ele>174.8</ele>
        <time>2026-01-13T12:11:35Z</time>
      </trkpt>
      <trkpt lat="48.71443" lon="1.7765">
        <ele>175</ele>
        <time>2026-01-13T12:11:36Z</time>
      </trkpt>
      <trkpt lat="48.71443" lon="1.77655">
        <ele>175</ele>
        <time>2026-01-13T12:11:37Z</time>
      </trkpt>
      <trkpt lat="48.71443" lon="1.77661">
        <ele>175.2</ele>
        <time>2026-01-13T12:11:38Z</time>
      </trkpt>
      <trkpt lat="48.71442" lon="1.77666">
        <ele>175.4</ele>
        <time>2026-01-13T12:11:39Z</time>
      </trkpt>
      <trkpt lat="48.71442" lon="1.77672">
        <ele>175.8</ele>
        <time>2026-01-13T12:11:40Z</time>
      </trkpt>
      <trkpt lat="48.71441" lon="1.77677">
        <ele>175.8</ele>
        <time>2026-01-13T12:11:41Z</time>
      </trkpt>
      <trkpt lat="48.7144" lon="1.77684">
        <ele>175.8</ele>
        <time>2026-01-13T12:11:42Z</time>
      </trkpt>
      <trkpt lat="48.71439" lon="1.7769">
        <ele>175.8</ele>
        <time>2026-01-13T12:11:43Z</time>
      </trkpt>
      <trkpt lat="48.71439" lon="1.77695">
        <ele>175.8</ele>
        <time>2026-01-13T12:11:44Z</time>
      </trkpt>
      <trkpt lat="48.71438" lon="1.777">
        <ele>176.8</ele>
        <time>2026-01-13T12:11:45Z</time>
      </trkpt>
      <trkpt lat="48.71437" lon="1.77706">
        <ele>176.8</ele>
        <time>2026-01-13T12:11:46Z</time>
      </trkpt>
      <trkpt lat="48.71437" lon="1.7771">
        <ele>176.8</ele>
        <time>2026-01-13T12:11:47Z</time>
      </trkpt>
      <trkpt lat="48.71436" lon="1.77715">
        <ele>176.8</ele>
        <time>2026-01-13T12:11:48Z</time>
      </trkpt>
      <trkpt lat="48.71435" lon="1.7772">
        <ele>177.4</ele>
        <time>2026-01-13T12:11:49Z</time>
      </trkpt>
      <trkpt lat="48.71434" lon="1.77725">
        <ele>177.8</ele>
        <time>2026-01-13T12:11:50Z</time>
      </trkpt>
      <trkpt lat="48.71433" lon="1.7773">
        <ele>177.8</ele>
        <time>2026-01-13T12:11:51Z</time>
      </trkpt>
      <trkpt lat="48.71433" lon="1.77735">
        <ele>177.8</ele>
        <time>2026-01-13T12:11:52Z</time>
      </trkpt>
      <trkpt lat="48.71432" lon="1.77741">
        <ele>177.8</ele>
        <time>2026-01-13T12:11:53Z</time>
      </trkpt>
      <trkpt lat="48.71431" lon="1.77746">
        <ele>178.2</ele>
        <time>2026-01-13T12:11:54Z</time>
      </trkpt>
      <trkpt lat="48.7143" lon="1.77752">
        <ele>178.2</ele>
        <time>2026-01-13T12:11:55Z</time>
      </trkpt>
      <trkpt lat="48.71429" lon="1.77757">
        <ele>178.2</ele>
        <time>2026-01-13T12:11:56Z</time>
      </trkpt>
      <trkpt lat="48.71428" lon="1.77763">
        <ele>178.2</ele>
        <time>2026-01-13T12:11:57Z</time>
      </trkpt>
      <trkpt lat="48.71427" lon="1.77769">
        <ele>178.4</ele>
        <time>2026-01-13T12:11:58Z</time>
      </trkpt>
      <trkpt lat="48.71427" lon="1.77774">
        <ele>178.6</ele>
        <time>2026-01-13T12:11:59Z</time>
      </trkpt>
      <trkpt lat="48.71425" lon="1.77781">
        <ele>178.8</ele>
        <time>2026-01-13T12:12:00Z</time>
      </trkpt>
      <trkpt lat="48.71424" lon="1.77787">
        <ele>179</ele>
        <time>2026-01-13T12:12:01Z</time>
      </trkpt>
      <trkpt lat="48.71424" lon="1.77792">
        <ele>179.6</ele>
        <time>2026-01-13T12:12:02Z</time>
      </trkpt>
      <trkpt lat="48.71423" lon="1.77798">
        <ele>179.6</ele>
        <time>2026-01-13T12:12:03Z</time>
      </trkpt>
      <trkpt lat="48.71423" lon="1.77804">
        <ele>179.6</ele>
        <time>2026-01-13T12:12:04Z</time>
      </trkpt>
      <trkpt lat="48.71422" lon="1.7781">
        <ele>179.6</ele>
        <time>2026-01-13T12:12:05Z</time>
      </trkpt>
      <trkpt lat="48.71422" lon="1.77816">
        <ele>180.2</ele>
        <time>2026-01-13T12:12:06Z</time>
      </trkpt>
      <trkpt lat="48.71422" lon="1.77822">
        <ele>180.2</ele>
        <time>2026-01-13T12:12:07Z</time>
      </trkpt>
      <trkpt lat="48.71421" lon="1.77828">
        <ele>180.2</ele>
        <time>2026-01-13T12:12:08Z</time>
      </trkpt>
      <trkpt lat="48.71421" lon="1.77834">
        <ele>180.2</ele>
        <time>2026-01-13T12:12:09Z</time>
      </trkpt>
      <trkpt lat="48.7142" lon="1.77839">
        <ele>180.2</ele>
        <time>2026-01-13T12:12:10Z</time>
      </trkpt>
      <trkpt lat="48.71419" lon="1.77845">
        <ele>180.8</ele>
        <time>2026-01-13T12:12:11Z</time>
      </trkpt>
      <trkpt lat="48.71418" lon="1.7785">
        <ele>181</ele>
        <time>2026-01-13T12:12:12Z</time>
      </trkpt>
      <trkpt lat="48.71417" lon="1.77856">
        <ele>181</ele>
        <time>2026-01-13T12:12:13Z</time>
      </trkpt>
      <trkpt lat="48.71417" lon="1.77863">
        <ele>181</ele>
        <time>2026-01-13T12:12:14Z</time>
      </trkpt>
      <trkpt lat="48.71417" lon="1.77869">
        <ele>181</ele>
        <time>2026-01-13T12:12:15Z</time>
      </trkpt>
      <trkpt lat="48.71416" lon="1.77874">
        <ele>181</ele>
        <time>2026-01-13T12:12:16Z</time>
      </trkpt>
      <trkpt lat="48.71416" lon="1.7788">
        <ele>181.8</ele>
        <time>2026-01-13T12:12:17Z</time>
      </trkpt>
      <trkpt lat="48.71415" lon="1.77887">
        <ele>181.8</ele>
        <time>2026-01-13T12:12:18Z</time>
      </trkpt>
      <trkpt lat="48.71415" lon="1.77892">
        <ele>182.4</ele>
        <time>2026-01-13T12:12:19Z</time>
      </trkpt>
      <trkpt lat="48.71414" lon="1.77898">
        <ele>182.4</ele>
        <time>2026-01-13T12:12:20Z</time>
      </trkpt>
      <trkpt lat="48.71413" lon="1.77903">
        <ele>182.4</ele>
        <time>2026-01-13T12:12:21Z</time>
      </trkpt>
      <trkpt lat="48.71413" lon="1.77909">
        <ele>182</ele>
        <time>2026-01-13T12:12:22Z</time>
      </trkpt>
      <trkpt lat="48.71413" lon="1.77916">
        <ele>182</ele>
        <time>2026-01-13T12:12:23Z</time>
      </trkpt>
      <trkpt lat="48.71412" lon="1.77921">
        <ele>182</ele>
        <time>2026-01-13T12:12:24Z</time>
      </trkpt>
      <trkpt lat="48.71412" lon="1.77927">
        <ele>182.2</ele>
        <time>2026-01-13T12:12:25Z</time>
      </trkpt>
      <trkpt lat="48.71411" lon="1.77933">
        <ele>182.2</ele>
        <time>2026-01-13T12:12:26Z</time>
      </trkpt>
      <trkpt lat="48.71411" lon="1.7794">
        <ele>182.2</ele>
        <time>2026-01-13T12:12:27Z</time>
      </trkpt>
      <trkpt lat="48.7141" lon="1.77947">
        <ele>182.2</ele>
        <time>2026-01-13T12:12:28Z</time>
      </trkpt>
      <trkpt lat="48.71409" lon="1.77953">
        <ele>182.4</ele>
        <time>2026-01-13T12:12:29Z</time>
      </trkpt>
      <trkpt lat="48.7141" lon="1.77959">
        <ele>182.6</ele>
        <time>2026-01-13T12:12:30Z</time>
      </trkpt>
      <trkpt lat="48.71409" lon="1.77966">
        <ele>182.6</ele>
        <time>2026-01-13T12:12:31Z</time>
      </trkpt>
      <trkpt lat="48.71408" lon="1.77974">
        <ele>182.6</ele>
        <time>2026-01-13T12:12:32Z</time>
      </trkpt>
      <trkpt lat="48.71408" lon="1.77981">
        <ele>182.6</ele>
        <time>2026-01-13T12:12:33Z</time>
      </trkpt>
      <trkpt lat="48.71408" lon="1.77987">
        <ele>182.6</ele>
        <time>2026-01-13T12:12:34Z</time>
      </trkpt>
      <trkpt lat="48.71407" lon="1.77994">
        <ele>182.6</ele>
        <time>2026-01-13T12:12:35Z</time>
      </trkpt>
      <trkpt lat="48.71406" lon="1.78">
        <ele>182.6</ele>
        <time>2026-01-13T12:12:36Z</time>
      </trkpt>
      <trkpt lat="48.71405" lon="1.78006">
        <ele>183.4</ele>
        <time>2026-01-13T12:12:37Z</time>
      </trkpt>
      <trkpt lat="48.71405" lon="1.78012">
        <ele>183.6</ele>
        <time>2026-01-13T12:12:38Z</time>
      </trkpt>
      <trkpt lat="48.71405" lon="1.78018">
        <ele>183.6</ele>
        <time>2026-01-13T12:12:39Z</time>
      </trkpt>
      <trkpt lat="48.71405" lon="1.78025">
        <ele>183.6</ele>
        <time>2026-01-13T12:12:40Z</time>
      </trkpt>
      <trkpt lat="48.71404" lon="1.7803">
        <ele>183.6</ele>
        <time>2026-01-13T12:12:41Z</time>
      </trkpt>
      <trkpt lat="48.71404" lon="1.78037">
        <ele>183.6</ele>
        <time>2026-01-13T12:12:42Z</time>
      </trkpt>
      <trkpt lat="48.71403" lon="1.78044">
        <ele>183.4</ele>
        <time>2026-01-13T12:12:43Z</time>
      </trkpt>
      <trkpt lat="48.71404" lon="1.78051">
        <ele>183.4</ele>
        <time>2026-01-13T12:12:44Z</time>
      </trkpt>
      <trkpt lat="48.71403" lon="1.78057">
        <ele>183.4</ele>
        <time>2026-01-13T12:12:45Z</time>
      </trkpt>
      <trkpt lat="48.71402" lon="1.78064">
        <ele>184.2</ele>
        <time>2026-01-13T12:12:46Z</time>
      </trkpt>
      <trkpt lat="48.71402" lon="1.78071">
        <ele>184.6</ele>
        <time>2026-01-13T12:12:47Z</time>
      </trkpt>
      <trkpt lat="48.71401" lon="1.78077">
        <ele>184.6</ele>
        <time>2026-01-13T12:12:48Z</time>
      </trkpt>
      <trkpt lat="48.71401" lon="1.78083">
        <ele>184.6</ele>
        <time>2026-01-13T12:12:49Z</time>
      </trkpt>
      <trkpt lat="48.71401" lon="1.7809">
        <ele>184.6</ele>
        <time>2026-01-13T12:12:50Z</time>
      </trkpt>
      <trkpt lat="48.714" lon="1.78097">
        <ele>184.6</ele>
        <time>2026-01-13T12:12:51Z</time>
      </trkpt>
      <trkpt lat="48.714" lon="1.78103">
        <ele>184.6</ele>
        <time>2026-01-13T12:12:52Z</time>
      </trkpt>
      <trkpt lat="48.71399" lon="1.7811">
        <ele>184.6</ele>
        <time>2026-01-13T12:12:53Z</time>
      </trkpt>
      <trkpt lat="48.71399" lon="1.78117">
        <ele>185</ele>
        <time>2026-01-13T12:12:54Z</time>
      </trkpt>
      <trkpt lat="48.71399" lon="1.78123">
        <ele>185</ele>
        <time>2026-01-13T12:12:55Z</time>
      </trkpt>
      <trkpt lat="48.71398" lon="1.78132">
        <ele>185</ele>
        <time>2026-01-13T12:12:56Z</time>
      </trkpt>
      <trkpt lat="48.71397" lon="1.78139">
        <ele>185</ele>
        <time>2026-01-13T12:12:57Z</time>
      </trkpt>
      <trkpt lat="48.71397" lon="1.78146">
        <ele>185</ele>
        <time>2026-01-13T12:12:58Z</time>
      </trkpt>
      <trkpt lat="48.71396" lon="1.78154">
        <ele>185.8</ele>
        <time>2026-01-13T12:12:59Z</time>
      </trkpt>
      <trkpt lat="48.71396" lon="1.7816">
        <ele>185.8</ele>
        <time>2026-01-13T12:13:00Z</time>
      </trkpt>
      <trkpt lat="48.71396" lon="1.78167">
        <ele>185.8</ele>
        <time>2026-01-13T12:13:01Z</time>
      </trkpt>
      <trkpt lat="48.71398" lon="1.78173">
        <ele>185.8</ele>
        <time>2026-01-13T12:13:02Z</time>
      </trkpt>
      <trkpt lat="48.71398" lon="1.7818">
        <ele>185.8</ele>
        <time>2026-01-13T12:13:03Z</time>
      </trkpt>
      <trkpt lat="48.71398" lon="1.78187">
        <ele>185.8</ele>
        <time>2026-01-13T12:13:04Z</time>
      </trkpt>
      <trkpt lat="48.71398" lon="1.78194">
        <ele>185.8</ele>
        <time>2026-01-13T12:13:05Z</time>
      </trkpt>
      <trkpt lat="48.71399" lon="1.782">
        <ele>185.8</ele>
        <time>2026-01-13T12:13:06Z</time>
      </trkpt>
      <trkpt lat="48.714" lon="1.78206">
        <ele>185.8</ele>
        <time>2026-01-13T12:13:07Z</time>
      </trkpt>
      <trkpt lat="48.71401" lon="1.78212">
        <ele>186.8</ele>
        <time>2026-01-13T12:13:08Z</time>
      </trkpt>
      <trkpt lat="48.71403" lon="1.78218">
        <ele>186.8</ele>
        <time>2026-01-13T12:13:09Z</time>
      </trkpt>
      <trkpt lat="48.71405" lon="1.78225">
        <ele>186.8</ele>
        <time>2026-01-13T12:13:10Z</time>
      </trkpt>
      <trkpt lat="48.71407" lon="1.78231">
        <ele>186.8</ele>
        <time>2026-01-13T12:13:11Z</time>
      </trkpt>
      <trkpt lat="48.71409" lon="1.78237">
        <ele>186.8</ele>
        <time>2026-01-13T12:13:12Z</time>
      </trkpt>
      <trkpt lat="48.7141" lon="1.78243">
        <ele>186.8</ele>
        <time>2026-01-13T12:13:13Z</time>
      </trkpt>
      <trkpt lat="48.71412" lon="1.78249">
        <ele>186.8</ele>
        <time>2026-01-13T12:13:14Z</time>
      </trkpt>
      <trkpt lat="48.71412" lon="1.78255">
        <ele>186.8</ele>
        <time>2026-01-13T12:13:15Z</time>
      </trkpt>
      <trkpt lat="48.71414" lon="1.78262">
        <ele>187.8</ele>
        <time>2026-01-13T12:13:16Z</time>
      </trkpt>
      <trkpt lat="48.71414" lon="1.78268">
        <ele>188</ele>
        <time>2026-01-13T12:13:17Z</time>
      </trkpt>
      <trkpt lat="48.71414" lon="1.78275">
        <ele>188</ele>
        <time>2026-01-13T12:13:18Z</time>
      </trkpt>
      <trkpt lat="48.71414" lon="1.78282">
        <ele>188</ele>
        <time>2026-01-13T12:13:19Z</time>
      </trkpt>
      <trkpt lat="48.71414" lon="1.78289">
        <ele>188</ele>
        <time>2026-01-13T12:13:20Z</time>
      </trkpt>
      <trkpt lat="48.71413" lon="1.78295">
        <ele>188</ele>
        <time>2026-01-13T12:13:21Z</time>
      </trkpt>
      <trkpt lat="48.71413" lon="1.78302">
        <ele>187.8</ele>
        <time>2026-01-13T12:13:22Z</time>
      </trkpt>
      <trkpt lat="48.71414" lon="1.78309">
        <ele>187.8</ele>
        <time>2026-01-13T12:13:23Z</time>
      </trkpt>
      <trkpt lat="48.71414" lon="1.78316">
        <ele>187.8</ele>
        <time>2026-01-13T12:13:24Z</time>
      </trkpt>
      <trkpt lat="48.71414" lon="1.78323">
        <ele>187.8</ele>
        <time>2026-01-13T12:13:25Z</time>
      </trkpt>
      <trkpt lat="48.71414" lon="1.7833">
        <ele>187.8</ele>
        <time>2026-01-13T12:13:26Z</time>
      </trkpt>
      <trkpt lat="48.71414" lon="1.78337">
        <ele>187.8</ele>
        <time>2026-01-13T12:13:27Z</time>
      </trkpt>
      <trkpt lat="48.71414" lon="1.78343">
        <ele>188</ele>
        <time>2026-01-13T12:13:28Z</time>
      </trkpt>
      <trkpt lat="48.71415" lon="1.7835">
        <ele>188.2</ele>
        <time>2026-01-13T12:13:29Z</time>
      </trkpt>
      <trkpt lat="48.71415" lon="1.78356">
        <ele>188.6</ele>
        <time>2026-01-13T12:13:30Z</time>
      </trkpt>
      <trkpt lat="48.71415" lon="1.78363">
        <ele>188.6</ele>
        <time>2026-01-13T12:13:31Z</time>
      </trkpt>
      <trkpt lat="48.71416" lon="1.7837">
        <ele>188.6</ele>
        <time>2026-01-13T12:13:32Z</time>
      </trkpt>
      <trkpt lat="48.71416" lon="1.78377">
        <ele>188.2</ele>
        <time>2026-01-13T12:13:33Z</time>
      </trkpt>
      <trkpt lat="48.71417" lon="1.78383">
        <ele>188.2</ele>
        <time>2026-01-13T12:13:34Z</time>
      </trkpt>
      <trkpt lat="48.71416" lon="1.78391">
        <ele>188.2</ele>
        <time>2026-01-13T12:13:35Z</time>
      </trkpt>
      <trkpt lat="48.71416" lon="1.78398">
        <ele>189</ele>
        <time>2026-01-13T12:13:36Z</time>
      </trkpt>
      <trkpt lat="48.71416" lon="1.78405">
        <ele>189</ele>
        <time>2026-01-13T12:13:37Z</time>
      </trkpt>
      <trkpt lat="48.71415" lon="1.78413">
        <ele>189</ele>
        <time>2026-01-13T12:13:38Z</time>
      </trkpt>
      <trkpt lat="48.71414" lon="1.7842">
        <ele>188.8</ele>
        <time>2026-01-13T12:13:39Z</time>
      </trkpt>
      <trkpt lat="48.71413" lon="1.78428">
        <ele>188.8</ele>
        <time>2026-01-13T12:13:40Z</time>
      </trkpt>
      <trkpt lat="48.71413" lon="1.78435">
        <ele>188.8</ele>
        <time>2026-01-13T12:13:41Z</time>
      </trkpt>
      <trkpt lat="48.71412" lon="1.78443">
        <ele>189.4</ele>
        <time>2026-01-13T12:13:42Z</time>
      </trkpt>
      <trkpt lat="48.71411" lon="1.78449">
        <ele>189.8</ele>
        <time>2026-01-13T12:13:43Z</time>
      </trkpt>
      <trkpt lat="48.7141" lon="1.78457">
        <ele>189.8</ele>
        <time>2026-01-13T12:13:44Z</time>
      </trkpt>
      <trkpt lat="48.71408" lon="1.78465">
        <ele>189.8</ele>
        <time>2026-01-13T12:13:45Z</time>
      </trkpt>
      <trkpt lat="48.71407" lon="1.78472">
        <ele>189.8</ele>
        <time>2026-01-13T12:13:46Z</time>
      </trkpt>
      <trkpt lat="48.71406" lon="1.78479">
        <ele>189.6</ele>
        <time>2026-01-13T12:13:47Z</time>
      </trkpt>
      <trkpt lat="48.71405" lon="1.78486">
        <ele>189.4</ele>
        <time>2026-01-13T12:13:48Z</time>
      </trkpt>
      <trkpt lat="48.71403" lon="1.78497">
        <ele>189.2</ele>
        <time>2026-01-13T12:13:49Z</time>
      </trkpt>
      <trkpt lat="48.71402" lon="1.78507">
        <ele>189.2</ele>
        <time>2026-01-13T12:13:50Z</time>
      </trkpt>
      <trkpt lat="48.71402" lon="1.78515">
        <ele>189.2</ele>
        <time>2026-01-13T12:13:51Z</time>
      </trkpt>
      <trkpt lat="48.71401" lon="1.78524">
        <ele>190.2</ele>
        <time>2026-01-13T12:13:52Z</time>
      </trkpt>
      <trkpt lat="48.71401" lon="1.78532">
        <ele>190.2</ele>
        <time>2026-01-13T12:13:53Z</time>
      </trkpt>
      <trkpt lat="48.714" lon="1.78539">
        <ele>190.2</ele>
        <time>2026-01-13T12:13:54Z</time>
      </trkpt>
      <trkpt lat="48.71398" lon="1.78546">
        <ele>190.2</ele>
        <time>2026-01-13T12:13:55Z</time>
      </trkpt>
      <trkpt lat="48.71398" lon="1.78553">
        <ele>190.2</ele>
        <time>2026-01-13T12:13:56Z</time>
      </trkpt>
      <trkpt lat="48.71398" lon="1.78559">
        <ele>189.4</ele>
        <time>2026-01-13T12:13:57Z</time>
      </trkpt>
      <trkpt lat="48.71398" lon="1.78566">
        <ele>189.4</ele>
        <time>2026-01-13T12:13:58Z</time>
      </trkpt>
      <trkpt lat="48.71397" lon="1.78573">
        <ele>189.4</ele>
        <time>2026-01-13T12:13:59Z</time>
      </trkpt>
      <trkpt lat="48.71396" lon="1.7858">
        <ele>190</ele>
        <time>2026-01-13T12:14:00Z</time>
      </trkpt>
      <trkpt lat="48.71396" lon="1.78587">
        <ele>190.2</ele>
        <time>2026-01-13T12:14:01Z</time>
      </trkpt>
      <trkpt lat="48.71396" lon="1.78593">
        <ele>190.2</ele>
        <time>2026-01-13T12:14:02Z</time>
      </trkpt>
      <trkpt lat="48.71394" lon="1.78601">
        <ele>190.2</ele>
        <time>2026-01-13T12:14:03Z</time>
      </trkpt>
      <trkpt lat="48.71392" lon="1.78607">
        <ele>190.2</ele>
        <time>2026-01-13T12:14:04Z</time>
      </trkpt>
      <trkpt lat="48.71391" lon="1.78615">
        <ele>190.2</ele>
        <time>2026-01-13T12:14:05Z</time>
      </trkpt>
      <trkpt lat="48.7139" lon="1.78623">
        <ele>189.6</ele>
        <time>2026-01-13T12:14:06Z</time>
      </trkpt>
      <trkpt lat="48.71389" lon="1.78631">
        <ele>189.2</ele>
        <time>2026-01-13T12:14:07Z</time>
      </trkpt>
      <trkpt lat="48.71387" lon="1.7864">
        <ele>189.2</ele>
        <time>2026-01-13T12:14:08Z</time>
      </trkpt>
      <trkpt lat="48.71386" lon="1.78649">
        <ele>189.2</ele>
        <time>2026-01-13T12:14:09Z</time>
      </trkpt>
      <trkpt lat="48.71384" lon="1.78657">
        <ele>190.2</ele>
        <time>2026-01-13T12:14:10Z</time>
      </trkpt>
      <trkpt lat="48.71383" lon="1.78665">
        <ele>190.2</ele>
        <time>2026-01-13T12:14:11Z</time>
      </trkpt>
      <trkpt lat="48.71381" lon="1.78674">
        <ele>190.2</ele>
        <time>2026-01-13T12:14:12Z</time>
      </trkpt>
      <trkpt lat="48.71379" lon="1.78682">
        <ele>190.2</ele>
        <time>2026-01-13T12:14:13Z</time>
      </trkpt>
      <trkpt lat="48.71376" lon="1.7869">
        <ele>190.2</ele>
        <time>2026-01-13T12:14:14Z</time>
      </trkpt>
      <trkpt lat="48.71373" lon="1.78698">
        <ele>190.2</ele>
        <time>2026-01-13T12:14:15Z</time>
      </trkpt>
      <trkpt lat="48.7137" lon="1.78708">
        <ele>190.2</ele>
        <time>2026-01-13T12:14:16Z</time>
      </trkpt>
      <trkpt lat="48.71367" lon="1.78716">
        <ele>189.4</ele>
        <time>2026-01-13T12:14:17Z</time>
      </trkpt>
      <trkpt lat="48.71365" lon="1.78725">
        <ele>189.4</ele>
        <time>2026-01-13T12:14:18Z</time>
      </trkpt>
      <trkpt lat="48.71362" lon="1.78734">
        <ele>189.4</ele>
        <time>2026-01-13T12:14:19Z</time>
      </trkpt>
      <trkpt lat="48.71359" lon="1.78743">
        <ele>189.6</ele>
        <time>2026-01-13T12:14:20Z</time>
      </trkpt>
      <trkpt lat="48.71356" lon="1.78751">
        <ele>189.6</ele>
        <time>2026-01-13T12:14:21Z</time>
      </trkpt>
      <trkpt lat="48.71353" lon="1.78761">
        <ele>189.6</ele>
        <time>2026-01-13T12:14:22Z</time>
      </trkpt>
      <trkpt lat="48.71351" lon="1.78768">
        <ele>189</ele>
        <time>2026-01-13T12:14:23Z</time>
      </trkpt>
      <trkpt lat="48.71349" lon="1.78776">
        <ele>189</ele>
        <time>2026-01-13T12:14:24Z</time>
      </trkpt>
      <trkpt lat="48.71347" lon="1.78787">
        <ele>189</ele>
        <time>2026-01-13T12:14:25Z</time>
      </trkpt>
      <trkpt lat="48.71346" lon="1.78796">
        <ele>189</ele>
        <time>2026-01-13T12:14:26Z</time>
      </trkpt>
      <trkpt lat="48.71344" lon="1.78808">
        <ele>189</ele>
        <time>2026-01-13T12:14:27Z</time>
      </trkpt>
      <trkpt lat="48.71341" lon="1.78817">
        <ele>189.4</ele>
        <time>2026-01-13T12:14:28Z</time>
      </trkpt>
      <trkpt lat="48.71338" lon="1.78826">
        <ele>189.4</ele>
        <time>2026-01-13T12:14:29Z</time>
      </trkpt>
      <trkpt lat="48.71335" lon="1.78834">
        <ele>189.4</ele>
        <time>2026-01-13T12:14:30Z</time>
      </trkpt>
      <trkpt lat="48.71331" lon="1.78841">
        <ele>189.4</ele>
        <time>2026-01-13T12:14:31Z</time>
      </trkpt>
      <trkpt lat="48.71328" lon="1.78848">
        <ele>189.4</ele>
        <time>2026-01-13T12:14:32Z</time>
      </trkpt>
      <trkpt lat="48.71324" lon="1.78854">
        <ele>189.4</ele>
        <time>2026-01-13T12:14:33Z</time>
      </trkpt>
      <trkpt lat="48.7132" lon="1.78859">
        <ele>188.6</ele>
        <time>2026-01-13T12:14:34Z</time>
      </trkpt>
      <trkpt lat="48.71316" lon="1.78865">
        <ele>188.6</ele>
        <time>2026-01-13T12:14:35Z</time>
      </trkpt>
      <trkpt lat="48.71312" lon="1.78871">
        <ele>188.6</ele>
        <time>2026-01-13T12:14:36Z</time>
      </trkpt>
      <trkpt lat="48.71308" lon="1.78877">
        <ele>188.8</ele>
        <time>2026-01-13T12:14:37Z</time>
      </trkpt>
      <trkpt lat="48.71303" lon="1.78883">
        <ele>188.8</ele>
        <time>2026-01-13T12:14:38Z</time>
      </trkpt>
      <trkpt lat="48.71299" lon="1.78888">
        <ele>188.8</ele>
        <time>2026-01-13T12:14:39Z</time>
      </trkpt>
      <trkpt lat="48.71295" lon="1.78894">
        <ele>188.8</ele>
        <time>2026-01-13T12:14:40Z</time>
      </trkpt>
      <trkpt lat="48.71291" lon="1.78898">
        <ele>188.8</ele>
        <time>2026-01-13T12:14:41Z</time>
      </trkpt>
      <trkpt lat="48.71287" lon="1.78904">
        <ele>188.8</ele>
        <time>2026-01-13T12:14:42Z</time>
      </trkpt>
      <trkpt lat="48.71284" lon="1.7891">
        <ele>188</ele>
        <time>2026-01-13T12:14:43Z</time>
      </trkpt>
      <trkpt lat="48.71279" lon="1.78915">
        <ele>188</ele>
        <time>2026-01-13T12:14:44Z</time>
      </trkpt>
      <trkpt lat="48.71275" lon="1.78921">
        <ele>188</ele>
        <time>2026-01-13T12:14:45Z</time>
      </trkpt>
      <trkpt lat="48.71272" lon="1.78927">
        <ele>188.2</ele>
        <time>2026-01-13T12:14:46Z</time>
      </trkpt>
      <trkpt lat="48.71267" lon="1.78932">
        <ele>188.8</ele>
        <time>2026-01-13T12:14:47Z</time>
      </trkpt>
      <trkpt lat="48.71263" lon="1.78937">
        <ele>189</ele>
        <time>2026-01-13T12:14:48Z</time>
      </trkpt>
      <trkpt lat="48.71259" lon="1.78943">
        <ele>189.2</ele>
        <time>2026-01-13T12:14:49Z</time>
      </trkpt>
      <trkpt lat="48.71254" lon="1.78948">
        <ele>189.2</ele>
        <time>2026-01-13T12:14:50Z</time>
      </trkpt>
      <trkpt lat="48.71251" lon="1.78954">
        <ele>189.2</ele>
        <time>2026-01-13T12:14:51Z</time>
      </trkpt>
      <trkpt lat="48.71247" lon="1.78958">
        <ele>189.2</ele>
        <time>2026-01-13T12:14:52Z</time>
      </trkpt>
      <trkpt lat="48.71243" lon="1.78965">
        <ele>188.6</ele>
        <time>2026-01-13T12:14:53Z</time>
      </trkpt>
      <trkpt lat="48.71239" lon="1.78969">
        <ele>188.6</ele>
        <time>2026-01-13T12:14:54Z</time>
      </trkpt>
      <trkpt lat="48.71235" lon="1.78976">
        <ele>188.6</ele>
        <time>2026-01-13T12:14:55Z</time>
      </trkpt>
      <trkpt lat="48.71231" lon="1.78982">
        <ele>189.2</ele>
        <time>2026-01-13T12:14:56Z</time>
      </trkpt>
      <trkpt lat="48.71226" lon="1.78987">
        <ele>189.2</ele>
        <time>2026-01-13T12:14:57Z</time>
      </trkpt>
      <trkpt lat="48.71223" lon="1.78995">
        <ele>189.2</ele>
        <time>2026-01-13T12:14:58Z</time>
      </trkpt>
      <trkpt lat="48.7122" lon="1.79">
        <ele>189.2</ele>
        <time>2026-01-13T12:14:59Z</time>
      </trkpt>
      <trkpt lat="48.71216" lon="1.79006">
        <ele>189.2</ele>
        <time>2026-01-13T12:15:00Z</time>
      </trkpt>
      <trkpt lat="48.71212" lon="1.79011">
        <ele>189.2</ele>
        <time>2026-01-13T12:15:01Z</time>
      </trkpt>
      <trkpt lat="48.71209" lon="1.79018">
        <ele>189.6</ele>
        <time>2026-01-13T12:15:02Z</time>
      </trkpt>
      <trkpt lat="48.71205" lon="1.79024">
        <ele>190</ele>
        <time>2026-01-13T12:15:03Z</time>
      </trkpt>
      <trkpt lat="48.71202" lon="1.79029">
        <ele>190.2</ele>
        <time>2026-01-13T12:15:04Z</time>
      </trkpt>
      <trkpt lat="48.71198" lon="1.79036">
        <ele>190.8</ele>
        <time>2026-01-13T12:15:05Z</time>
      </trkpt>
      <trkpt lat="48.71195" lon="1.79042">
        <ele>190.8</ele>
        <time>2026-01-13T12:15:06Z</time>
      </trkpt>
      <trkpt lat="48.71191" lon="1.7905">
        <ele>190.8</ele>
        <time>2026-01-13T12:15:07Z</time>
      </trkpt>
      <trkpt lat="48.71187" lon="1.79058">
        <ele>190.4</ele>
        <time>2026-01-13T12:15:08Z</time>
      </trkpt>
      <trkpt lat="48.71184" lon="1.79066">
        <ele>190.4</ele>
        <time>2026-01-13T12:15:09Z</time>
      </trkpt>
      <trkpt lat="48.71182" lon="1.79075">
        <ele>190.4</ele>
        <time>2026-01-13T12:15:10Z</time>
      </trkpt>
      <trkpt lat="48.71179" lon="1.79084">
        <ele>190.4</ele>
        <time>2026-01-13T12:15:11Z</time>
      </trkpt>
      <trkpt lat="48.71176" lon="1.79093">
        <ele>190</ele>
        <time>2026-01-13T12:15:12Z</time>
      </trkpt>
      <trkpt lat="48.71174" lon="1.79102">
        <ele>189.8</ele>
        <time>2026-01-13T12:15:13Z</time>
      </trkpt>
      <trkpt lat="48.71171" lon="1.79111">
        <ele>189.8</ele>
        <time>2026-01-13T12:15:14Z</time>
      </trkpt>
      <trkpt lat="48.71168" lon="1.79119">
        <ele>189.8</ele>
        <time>2026-01-13T12:15:15Z</time>
      </trkpt>
      <trkpt lat="48.71165" lon="1.79128">
        <ele>190.8</ele>
        <time>2026-01-13T12:15:16Z</time>
      </trkpt>
      <trkpt lat="48.71162" lon="1.79138">
        <ele>191.2</ele>
        <time>2026-01-13T12:15:17Z</time>
      </trkpt>
      <trkpt lat="48.71158" lon="1.79144">
        <ele>191.6</ele>
        <time>2026-01-13T12:15:18Z</time>
      </trkpt>
      <trkpt lat="48.71154" lon="1.79151">
        <ele>191.6</ele>
        <time>2026-01-13T12:15:19Z</time>
      </trkpt>
      <trkpt lat="48.71151" lon="1.7916">
        <ele>191.6</ele>
        <time>2026-01-13T12:15:20Z</time>
      </trkpt>
      <trkpt lat="48.71147" lon="1.79168">
        <ele>191.4</ele>
        <time>2026-01-13T12:15:21Z</time>
      </trkpt>
      <trkpt lat="48.71144" lon="1.79176">
        <ele>191.4</ele>
        <time>2026-01-13T12:15:22Z</time>
      </trkpt>
      <trkpt lat="48.71142" lon="1.79185">
        <ele>191.4</ele>
        <time>2026-01-13T12:15:23Z</time>
      </trkpt>
      <trkpt lat="48.71139" lon="1.79193">
        <ele>191.4</ele>
        <time>2026-01-13T12:15:24Z</time>
      </trkpt>
      <trkpt lat="48.71136" lon="1.79201">
        <ele>191.4</ele>
        <time>2026-01-13T12:15:25Z</time>
      </trkpt>
      <trkpt lat="48.71133" lon="1.7921">
        <ele>191.4</ele>
        <time>2026-01-13T12:15:26Z</time>
      </trkpt>
      <trkpt lat="48.7113" lon="1.79218">
        <ele>191.4</ele>
        <time>2026-01-13T12:15:27Z</time>
      </trkpt>
      <trkpt lat="48.71127" lon="1.79226">
        <ele>191.4</ele>
        <time>2026-01-13T12:15:28Z</time>
      </trkpt>
      <trkpt lat="48.71124" lon="1.79234">
        <ele>191.4</ele>
        <time>2026-01-13T12:15:29Z</time>
      </trkpt>
      <trkpt lat="48.71121" lon="1.79243">
        <ele>191.4</ele>
        <time>2026-01-13T12:15:30Z</time>
      </trkpt>
      <trkpt lat="48.71117" lon="1.79252">
        <ele>191.4</ele>
        <time>2026-01-13T12:15:31Z</time>
      </trkpt>
      <trkpt lat="48.71113" lon="1.79261">
        <ele>191.4</ele>
        <time>2026-01-13T12:15:32Z</time>
      </trkpt>
      <trkpt lat="48.71109" lon="1.79269">
        <ele>191.4</ele>
        <time>2026-01-13T12:15:33Z</time>
      </trkpt>
      <trkpt lat="48.71105" lon="1.79278">
        <ele>191.2</ele>
        <time>2026-01-13T12:15:34Z</time>
      </trkpt>
      <trkpt lat="48.71101" lon="1.79288">
        <ele>190.8</ele>
        <time>2026-01-13T12:15:35Z</time>
      </trkpt>
      <trkpt lat="48.71097" lon="1.79296">
        <ele>190.8</ele>
        <time>2026-01-13T12:15:36Z</time>
      </trkpt>
      <trkpt lat="48.71093" lon="1.79305">
        <ele>190.8</ele>
        <time>2026-01-13T12:15:37Z</time>
      </trkpt>
      <trkpt lat="48.71088" lon="1.79315">
        <ele>191.6</ele>
        <time>2026-01-13T12:15:38Z</time>
      </trkpt>
      <trkpt lat="48.71084" lon="1.79324">
        <ele>191.6</ele>
        <time>2026-01-13T12:15:39Z</time>
      </trkpt>
      <trkpt lat="48.7108" lon="1.79334">
        <ele>191.6</ele>
        <time>2026-01-13T12:15:40Z</time>
      </trkpt>
      <trkpt lat="48.71076" lon="1.79344">
        <ele>191.6</ele>
        <time>2026-01-13T12:15:41Z</time>
      </trkpt>
      <trkpt lat="48.71071" lon="1.79355">
        <ele>190.6</ele>
        <time>2026-01-13T12:15:42Z</time>
      </trkpt>
      <trkpt lat="48.71066" lon="1.79365">
        <ele>190.2</ele>
        <time>2026-01-13T12:15:43Z</time>
      </trkpt>
      <trkpt lat="48.71062" lon="1.79375">
        <ele>190.2</ele>
        <time>2026-01-13T12:15:44Z</time>
      </trkpt>
      <trkpt lat="48.71058" lon="1.79383">
        <ele>190.2</ele>
        <time>2026-01-13T12:15:45Z</time>
      </trkpt>
      <trkpt lat="48.71053" lon="1.7939">
        <ele>190.2</ele>
        <time>2026-01-13T12:15:46Z</time>
      </trkpt>
      <trkpt lat="48.71049" lon="1.79397">
        <ele>190.2</ele>
        <time>2026-01-13T12:15:47Z</time>
      </trkpt>
      <trkpt lat="48.71044" lon="1.79405">
        <ele>190.2</ele>
        <time>2026-01-13T12:15:48Z</time>
      </trkpt>
      <trkpt lat="48.7104" lon="1.79411">
        <ele>189.6</ele>
        <time>2026-01-13T12:15:49Z</time>
      </trkpt>
      <trkpt lat="48.71036" lon="1.79418">
        <ele>189.6</ele>
        <time>2026-01-13T12:15:50Z</time>
      </trkpt>
      <trkpt lat="48.71031" lon="1.79425">
        <ele>189.6</ele>
        <time>2026-01-13T12:15:51Z</time>
      </trkpt>
      <trkpt lat="48.71027" lon="1.79431">
        <ele>189.8</ele>
        <time>2026-01-13T12:15:52Z</time>
      </trkpt>
      <trkpt lat="48.71023" lon="1.79438">
        <ele>189.8</ele>
        <time>2026-01-13T12:15:53Z</time>
      </trkpt>
      <trkpt lat="48.71019" lon="1.79445">
        <ele>189.8</ele>
        <time>2026-01-13T12:15:54Z</time>
      </trkpt>
      <trkpt lat="48.71014" lon="1.79452">
        <ele>189.8</ele>
        <time>2026-01-13T12:15:55Z</time>
      </trkpt>
      <trkpt lat="48.7101" lon="1.7946">
        <ele>189.8</ele>
        <time>2026-01-13T12:15:56Z</time>
      </trkpt>
      <trkpt lat="48.71005" lon="1.79467">
        <ele>189.8</ele>
        <time>2026-01-13T12:15:57Z</time>
      </trkpt>
      <trkpt lat="48.71001" lon="1.79474">
        <ele>189.8</ele>
        <time>2026-01-13T12:15:58Z</time>
      </trkpt>
      <trkpt lat="48.70996" lon="1.79482">
        <ele>189.8</ele>
        <time>2026-01-13T12:15:59Z</time>
      </trkpt>
      <trkpt lat="48.70991" lon="1.79489">
        <ele>189</ele>
        <time>2026-01-13T12:16:00Z</time>
      </trkpt>
      <trkpt lat="48.70986" lon="1.79496">
        <ele>189</ele>
        <time>2026-01-13T12:16:01Z</time>
      </trkpt>
      <trkpt lat="48.70981" lon="1.79504">
        <ele>189</ele>
        <time>2026-01-13T12:16:02Z</time>
      </trkpt>
      <trkpt lat="48.70976" lon="1.79511">
        <ele>189</ele>
        <time>2026-01-13T12:16:03Z</time>
      </trkpt>
      <trkpt lat="48.70971" lon="1.79517">
        <ele>189</ele>
        <time>2026-01-13T12:16:04Z</time>
      </trkpt>
      <trkpt lat="48.70966" lon="1.79524">
        <ele>188.6</ele>
        <time>2026-01-13T12:16:05Z</time>
      </trkpt>
      <trkpt lat="48.70961" lon="1.79531">
        <ele>188.6</ele>
        <time>2026-01-13T12:16:06Z</time>
      </trkpt>
      <trkpt lat="48.70956" lon="1.79536">
        <ele>188.6</ele>
        <time>2026-01-13T12:16:07Z</time>
      </trkpt>
      <trkpt lat="48.70952" lon="1.79543">
        <ele>188.6</ele>
        <time>2026-01-13T12:16:08Z</time>
      </trkpt>
      <trkpt lat="48.70948" lon="1.79549">
        <ele>188.6</ele>
        <time>2026-01-13T12:16:09Z</time>
      </trkpt>
      <trkpt lat="48.70943" lon="1.79554">
        <ele>189.6</ele>
        <time>2026-01-13T12:16:10Z</time>
      </trkpt>
      <trkpt lat="48.70939" lon="1.7956">
        <ele>189.6</ele>
        <time>2026-01-13T12:16:11Z</time>
      </trkpt>
      <trkpt lat="48.70935" lon="1.79566">
        <ele>189.6</ele>
        <time>2026-01-13T12:16:12Z</time>
      </trkpt>
      <trkpt lat="48.70931" lon="1.79573">
        <ele>189.2</ele>
        <time>2026-01-13T12:16:13Z</time>
      </trkpt>
      <trkpt lat="48.70926" lon="1.7958">
        <ele>188.2</ele>
        <time>2026-01-13T12:16:14Z</time>
      </trkpt>
      <trkpt lat="48.70922" lon="1.79587">
        <ele>188.2</ele>
        <time>2026-01-13T12:16:15Z</time>
      </trkpt>
      <trkpt lat="48.70917" lon="1.79592">
        <ele>188.2</ele>
        <time>2026-01-13T12:16:16Z</time>
      </trkpt>
      <trkpt lat="48.70912" lon="1.79597">
        <ele>188.4</ele>
        <time>2026-01-13T12:16:17Z</time>
      </trkpt>
      <trkpt lat="48.70907" lon="1.79602">
        <ele>189.4</ele>
        <time>2026-01-13T12:16:18Z</time>
      </trkpt>
      <trkpt lat="48.70903" lon="1.79606">
        <ele>189.4</ele>
        <time>2026-01-13T12:16:19Z</time>
      </trkpt>
      <trkpt lat="48.70899" lon="1.79609">
        <ele>189.4</ele>
        <time>2026-01-13T12:16:20Z</time>
      </trkpt>
      <trkpt lat="48.70895" lon="1.79613">
        <ele>189.2</ele>
        <time>2026-01-13T12:16:21Z</time>
      </trkpt>
      <trkpt lat="48.70891" lon="1.79618">
        <ele>189.2</ele>
        <time>2026-01-13T12:16:22Z</time>
      </trkpt>
      <trkpt lat="48.70887" lon="1.79624">
        <ele>189.2</ele>
        <time>2026-01-13T12:16:23Z</time>
      </trkpt>
      <trkpt lat="48.70882" lon="1.79629">
        <ele>190.2</ele>
        <time>2026-01-13T12:16:24Z</time>
      </trkpt>
      <trkpt lat="48.70878" lon="1.79635">
        <ele>190.2</ele>
        <time>2026-01-13T12:16:25Z</time>
      </trkpt>
      <trkpt lat="48.70874" lon="1.7964">
        <ele>190.2</ele>
        <time>2026-01-13T12:16:26Z</time>
      </trkpt>
      <trkpt lat="48.70869" lon="1.79645">
        <ele>190.2</ele>
        <time>2026-01-13T12:16:27Z</time>
      </trkpt>
      <trkpt lat="48.70865" lon="1.79651">
        <ele>190.2</ele>
        <time>2026-01-13T12:16:28Z</time>
      </trkpt>
      <trkpt lat="48.70861" lon="1.79656">
        <ele>190.2</ele>
        <time>2026-01-13T12:16:29Z</time>
      </trkpt>
      <trkpt lat="48.70856" lon="1.79661">
        <ele>190.2</ele>
        <time>2026-01-13T12:16:30Z</time>
      </trkpt>
      <trkpt lat="48.70852" lon="1.79667">
        <ele>190.2</ele>
        <time>2026-01-13T12:16:31Z</time>
      </trkpt>
      <trkpt lat="48.70848" lon="1.79673">
        <ele>189.2</ele>
        <time>2026-01-13T12:16:32Z</time>
      </trkpt>
      <trkpt lat="48.70844" lon="1.79678">
        <ele>188.8</ele>
        <time>2026-01-13T12:16:33Z</time>
      </trkpt>
      <trkpt lat="48.7084" lon="1.79684">
        <ele>188.8</ele>
        <time>2026-01-13T12:16:34Z</time>
      </trkpt>
      <trkpt lat="48.70836" lon="1.79691">
        <ele>188.8</ele>
        <time>2026-01-13T12:16:35Z</time>
      </trkpt>
      <trkpt lat="48.70832" lon="1.79697">
        <ele>188.8</ele>
        <time>2026-01-13T12:16:36Z</time>
      </trkpt>
      <trkpt lat="48.70829" lon="1.79703">
        <ele>188.8</ele>
        <time>2026-01-13T12:16:37Z</time>
      </trkpt>
      <trkpt lat="48.70825" lon="1.79709">
        <ele>189.4</ele>
        <time>2026-01-13T12:16:38Z</time>
      </trkpt>
      <trkpt lat="48.70821" lon="1.79716">
        <ele>189.4</ele>
        <time>2026-01-13T12:16:39Z</time>
      </trkpt>
      <trkpt lat="48.70817" lon="1.79723">
        <ele>189.4</ele>
        <time>2026-01-13T12:16:40Z</time>
      </trkpt>
      <trkpt lat="48.70814" lon="1.7973">
        <ele>189.4</ele>
        <time>2026-01-13T12:16:41Z</time>
      </trkpt>
      <trkpt lat="48.7081" lon="1.79738">
        <ele>189.4</ele>
        <time>2026-01-13T12:16:42Z</time>
      </trkpt>
      <trkpt lat="48.70807" lon="1.79744">
        <ele>190.4</ele>
        <time>2026-01-13T12:16:43Z</time>
      </trkpt>
      <trkpt lat="48.70804" lon="1.79751">
        <ele>191.2</ele>
        <time>2026-01-13T12:16:44Z</time>
      </trkpt>
      <trkpt lat="48.708" lon="1.79758">
        <ele>191.6</ele>
        <time>2026-01-13T12:16:45Z</time>
      </trkpt>
      <trkpt lat="48.70797" lon="1.79765">
        <ele>191.6</ele>
        <time>2026-01-13T12:16:46Z</time>
      </trkpt>
      <trkpt lat="48.70793" lon="1.79772">
        <ele>191.6</ele>
        <time>2026-01-13T12:16:47Z</time>
      </trkpt>
      <trkpt lat="48.7079" lon="1.7978">
        <ele>191.6</ele>
        <time>2026-01-13T12:16:48Z</time>
      </trkpt>
      <trkpt lat="48.70786" lon="1.79788">
        <ele>191.6</ele>
        <time>2026-01-13T12:16:49Z</time>
      </trkpt>
      <trkpt lat="48.70782" lon="1.79795">
        <ele>191.2</ele>
        <time>2026-01-13T12:16:50Z</time>
      </trkpt>
      <trkpt lat="48.70779" lon="1.79804">
        <ele>190.8</ele>
        <time>2026-01-13T12:16:51Z</time>
      </trkpt>
      <trkpt lat="48.70776" lon="1.79812">
        <ele>190.8</ele>
        <time>2026-01-13T12:16:52Z</time>
      </trkpt>
      <trkpt lat="48.70772" lon="1.79821">
        <ele>190.8</ele>
        <time>2026-01-13T12:16:53Z</time>
      </trkpt>
      <trkpt lat="48.7077" lon="1.79828">
        <ele>190.8</ele>
        <time>2026-01-13T12:16:54Z</time>
      </trkpt>
      <trkpt lat="48.70767" lon="1.79836">
        <ele>190.8</ele>
        <time>2026-01-13T12:16:55Z</time>
      </trkpt>
      <trkpt lat="48.70766" lon="1.79845">
        <ele>190.8</ele>
        <time>2026-01-13T12:16:56Z</time>
      </trkpt>
      <trkpt lat="48.70764" lon="1.79853">
        <ele>190.8</ele>
        <time>2026-01-13T12:16:57Z</time>
      </trkpt>
      <trkpt lat="48.70761" lon="1.79859">
        <ele>190.6</ele>
        <time>2026-01-13T12:16:58Z</time>
      </trkpt>
      <trkpt lat="48.70758" lon="1.79867">
        <ele>189.8</ele>
        <time>2026-01-13T12:16:59Z</time>
      </trkpt>
      <trkpt lat="48.70755" lon="1.79875">
        <ele>188.8</ele>
        <time>2026-01-13T12:17:00Z</time>
      </trkpt>
      <trkpt lat="48.70752" lon="1.79883">
        <ele>188.4</ele>
        <time>2026-01-13T12:17:01Z</time>
      </trkpt>
      <trkpt lat="48.70749" lon="1.79891">
        <ele>188.2</ele>
        <time>2026-01-13T12:17:02Z</time>
      </trkpt>
      <trkpt lat="48.70746" lon="1.79898">
        <ele>188</ele>
        <time>2026-01-13T12:17:03Z</time>
      </trkpt>
      <trkpt lat="48.70742" lon="1.79905">
        <ele>187.8</ele>
        <time>2026-01-13T12:17:04Z</time>
      </trkpt>
      <trkpt lat="48.70738" lon="1.79913">
        <ele>187.8</ele>
        <time>2026-01-13T12:17:05Z</time>
      </trkpt>
      <trkpt lat="48.70732" lon="1.79919">
        <ele>187.8</ele>
        <time>2026-01-13T12:17:06Z</time>
      </trkpt>
      <trkpt lat="48.70727" lon="1.79925">
        <ele>187.8</ele>
        <time>2026-01-13T12:17:07Z</time>
      </trkpt>
      <trkpt lat="48.70721" lon="1.79931">
        <ele>187.8</ele>
        <time>2026-01-13T12:17:08Z</time>
      </trkpt>
      <trkpt lat="48.70715" lon="1.79937">
        <ele>187.8</ele>
        <time>2026-01-13T12:17:09Z</time>
      </trkpt>
      <trkpt lat="48.70709" lon="1.79942">
        <ele>187.8</ele>
        <time>2026-01-13T12:17:10Z</time>
      </trkpt>
      <trkpt lat="48.70703" lon="1.79947">
        <ele>188</ele>
        <time>2026-01-13T12:17:11Z</time>
      </trkpt>
      <trkpt lat="48.70697" lon="1.79952">
        <ele>188.4</ele>
        <time>2026-01-13T12:17:12Z</time>
      </trkpt>
      <trkpt lat="48.70691" lon="1.79958">
        <ele>188.6</ele>
        <time>2026-01-13T12:17:13Z</time>
      </trkpt>
      <trkpt lat="48.70686" lon="1.79963">
        <ele>188.6</ele>
        <time>2026-01-13T12:17:14Z</time>
      </trkpt>
      <trkpt lat="48.7068" lon="1.79968">
        <ele>188.6</ele>
        <time>2026-01-13T12:17:15Z</time>
      </trkpt>
      <trkpt lat="48.70675" lon="1.79973">
        <ele>188.6</ele>
        <time>2026-01-13T12:17:16Z</time>
      </trkpt>
      <trkpt lat="48.7067" lon="1.79978">
        <ele>187.8</ele>
        <time>2026-01-13T12:17:17Z</time>
      </trkpt>
      <trkpt lat="48.70664" lon="1.79983">
        <ele>187.8</ele>
        <time>2026-01-13T12:17:18Z</time>
      </trkpt>
      <trkpt lat="48.70659" lon="1.79987">
        <ele>187.8</ele>
        <time>2026-01-13T12:17:19Z</time>
      </trkpt>
      <trkpt lat="48.70654" lon="1.79992">
        <ele>187.8</ele>
        <time>2026-01-13T12:17:20Z</time>
      </trkpt>
      <trkpt lat="48.70648" lon="1.79998">
        <ele>187.6</ele>
        <time>2026-01-13T12:17:21Z</time>
      </trkpt>
      <trkpt lat="48.70643" lon="1.80003">
        <ele>187</ele>
        <time>2026-01-13T12:17:22Z</time>
      </trkpt>
      <trkpt lat="48.70638" lon="1.80008">
        <ele>187</ele>
        <time>2026-01-13T12:17:23Z</time>
      </trkpt>
      <trkpt lat="48.70633" lon="1.80013">
        <ele>187</ele>
        <time>2026-01-13T12:17:24Z</time>
      </trkpt>
      <trkpt lat="48.70627" lon="1.80017">
        <ele>187.8</ele>
        <time>2026-01-13T12:17:25Z</time>
      </trkpt>
      <trkpt lat="48.70622" lon="1.80022">
        <ele>188</ele>
        <time>2026-01-13T12:17:26Z</time>
      </trkpt>
      <trkpt lat="48.70617" lon="1.80028">
        <ele>188</ele>
        <time>2026-01-13T12:17:27Z</time>
      </trkpt>
      <trkpt lat="48.70612" lon="1.80032">
        <ele>188</ele>
        <time>2026-01-13T12:17:28Z</time>
      </trkpt>
      <trkpt lat="48.70606" lon="1.80037">
        <ele>187.6</ele>
        <time>2026-01-13T12:17:29Z</time>
      </trkpt>
      <trkpt lat="48.70601" lon="1.80042">
        <ele>187.6</ele>
        <time>2026-01-13T12:17:30Z</time>
      </trkpt>
      <trkpt lat="48.70596" lon="1.80047">
        <ele>187.4</ele>
        <time>2026-01-13T12:17:31Z</time>
      </trkpt>
      <trkpt lat="48.7059" lon="1.80052">
        <ele>187</ele>
        <time>2026-01-13T12:17:32Z</time>
      </trkpt>
      <trkpt lat="48.70585" lon="1.80057">
        <ele>187</ele>
        <time>2026-01-13T12:17:33Z</time>
      </trkpt>
      <trkpt lat="48.70579" lon="1.80062">
        <ele>187</ele>
        <time>2026-01-13T12:17:34Z</time>
      </trkpt>
      <trkpt lat="48.70574" lon="1.80067">
        <ele>187.6</ele>
        <time>2026-01-13T12:17:35Z</time>
      </trkpt>
      <trkpt lat="48.70569" lon="1.80072">
        <ele>188</ele>
        <time>2026-01-13T12:17:36Z</time>
      </trkpt>
      <trkpt lat="48.70564" lon="1.80077">
        <ele>188</ele>
        <time>2026-01-13T12:17:37Z</time>
      </trkpt>
      <trkpt lat="48.70559" lon="1.80082">
        <ele>188</ele>
        <time>2026-01-13T12:17:38Z</time>
      </trkpt>
      <trkpt lat="48.70554" lon="1.80088">
        <ele>188</ele>
        <time>2026-01-13T12:17:39Z</time>
      </trkpt>
      <trkpt lat="48.70549" lon="1.80093">
        <ele>188</ele>
        <time>2026-01-13T12:17:40Z</time>
      </trkpt>
      <trkpt lat="48.70544" lon="1.80098">
        <ele>188</ele>
        <time>2026-01-13T12:17:41Z</time>
      </trkpt>
      <trkpt lat="48.70539" lon="1.80104">
        <ele>188.4</ele>
        <time>2026-01-13T12:17:42Z</time>
      </trkpt>
      <trkpt lat="48.70535" lon="1.80109">
        <ele>189</ele>
        <time>2026-01-13T12:17:43Z</time>
      </trkpt>
      <trkpt lat="48.7053" lon="1.80115">
        <ele>189</ele>
        <time>2026-01-13T12:17:44Z</time>
      </trkpt>
      <trkpt lat="48.70525" lon="1.8012">
        <ele>189</ele>
        <time>2026-01-13T12:17:45Z</time>
      </trkpt>
      <trkpt lat="48.70521" lon="1.80126">
        <ele>188.6</ele>
        <time>2026-01-13T12:17:46Z</time>
      </trkpt>
      <trkpt lat="48.70516" lon="1.80132">
        <ele>188.6</ele>
        <time>2026-01-13T12:17:47Z</time>
      </trkpt>
      <trkpt lat="48.70512" lon="1.80138">
        <ele>188.6</ele>
        <time>2026-01-13T12:17:48Z</time>
      </trkpt>
      <trkpt lat="48.70508" lon="1.80143">
        <ele>188.8</ele>
        <time>2026-01-13T12:17:49Z</time>
      </trkpt>
      <trkpt lat="48.70504" lon="1.80149">
        <ele>188.8</ele>
        <time>2026-01-13T12:17:50Z</time>
      </trkpt>
      <trkpt lat="48.70499" lon="1.80155">
        <ele>188.8</ele>
        <time>2026-01-13T12:17:51Z</time>
      </trkpt>
      <trkpt lat="48.70495" lon="1.80161">
        <ele>188.6</ele>
        <time>2026-01-13T12:17:52Z</time>
      </trkpt>
      <trkpt lat="48.70491" lon="1.80167">
        <ele>188.6</ele>
        <time>2026-01-13T12:17:53Z</time>
      </trkpt>
      <trkpt lat="48.70487" lon="1.80173">
        <ele>188.6</ele>
        <time>2026-01-13T12:17:54Z</time>
      </trkpt>
      <trkpt lat="48.70483" lon="1.80179">
        <ele>189</ele>
        <time>2026-01-13T12:17:55Z</time>
      </trkpt>
      <trkpt lat="48.70479" lon="1.80185">
        <ele>189.2</ele>
        <time>2026-01-13T12:17:56Z</time>
      </trkpt>
      <trkpt lat="48.70475" lon="1.80192">
        <ele>189.2</ele>
        <time>2026-01-13T12:17:57Z</time>
      </trkpt>
      <trkpt lat="48.70472" lon="1.80198">
        <ele>189.2</ele>
        <time>2026-01-13T12:17:58Z</time>
      </trkpt>
      <trkpt lat="48.70468" lon="1.80205">
        <ele>188.6</ele>
        <time>2026-01-13T12:17:59Z</time>
      </trkpt>
      <trkpt lat="48.70464" lon="1.80212">
        <ele>188.6</ele>
        <time>2026-01-13T12:18:00Z</time>
      </trkpt>
      <trkpt lat="48.70461" lon="1.80219">
        <ele>188.6</ele>
        <time>2026-01-13T12:18:01Z</time>
      </trkpt>
      <trkpt lat="48.70457" lon="1.80226">
        <ele>189</ele>
        <time>2026-01-13T12:18:02Z</time>
      </trkpt>
      <trkpt lat="48.70453" lon="1.80232">
        <ele>189</ele>
        <time>2026-01-13T12:18:03Z</time>
      </trkpt>
      <trkpt lat="48.70449" lon="1.80239">
        <ele>189</ele>
        <time>2026-01-13T12:18:04Z</time>
      </trkpt>
      <trkpt lat="48.70446" lon="1.80246">
        <ele>189</ele>
        <time>2026-01-13T12:18:05Z</time>
      </trkpt>
      <trkpt lat="48.70442" lon="1.80254">
        <ele>189</ele>
        <time>2026-01-13T12:18:06Z</time>
      </trkpt>
      <trkpt lat="48.70439" lon="1.80261">
        <ele>189</ele>
        <time>2026-01-13T12:18:07Z</time>
      </trkpt>
      <trkpt lat="48.70437" lon="1.80271">
        <ele>189</ele>
        <time>2026-01-13T12:18:08Z</time>
      </trkpt>
      <trkpt lat="48.70434" lon="1.8028">
        <ele>188</ele>
        <time>2026-01-13T12:18:09Z</time>
      </trkpt>
      <trkpt lat="48.70432" lon="1.80291">
        <ele>187.6</ele>
        <time>2026-01-13T12:18:10Z</time>
      </trkpt>
      <trkpt lat="48.7043" lon="1.80301">
        <ele>187.2</ele>
        <time>2026-01-13T12:18:11Z</time>
      </trkpt>
      <trkpt lat="48.70428" lon="1.80312">
        <ele>187.2</ele>
        <time>2026-01-13T12:18:12Z</time>
      </trkpt>
      <trkpt lat="48.70427" lon="1.80322">
        <ele>187.2</ele>
        <time>2026-01-13T12:18:13Z</time>
      </trkpt>
      <trkpt lat="48.70425" lon="1.80332">
        <ele>188.2</ele>
        <time>2026-01-13T12:18:14Z</time>
      </trkpt>
      <trkpt lat="48.70423" lon="1.80342">
        <ele>188.4</ele>
        <time>2026-01-13T12:18:15Z</time>
      </trkpt>
      <trkpt lat="48.70421" lon="1.80352">
        <ele>188.4</ele>
        <time>2026-01-13T12:18:16Z</time>
      </trkpt>
      <trkpt lat="48.70419" lon="1.80363">
        <ele>188.4</ele>
        <time>2026-01-13T12:18:17Z</time>
      </trkpt>
      <trkpt lat="48.70417" lon="1.80372">
        <ele>187.8</ele>
        <time>2026-01-13T12:18:18Z</time>
      </trkpt>
      <trkpt lat="48.70415" lon="1.80382">
        <ele>187.8</ele>
        <time>2026-01-13T12:18:19Z</time>
      </trkpt>
      <trkpt lat="48.70413" lon="1.80391">
        <ele>187.8</ele>
        <time>2026-01-13T12:18:20Z</time>
      </trkpt>
      <trkpt lat="48.70411" lon="1.80401">
        <ele>188.4</ele>
        <time>2026-01-13T12:18:21Z</time>
      </trkpt>
      <trkpt lat="48.70408" lon="1.80411">
        <ele>188.4</ele>
        <time>2026-01-13T12:18:22Z</time>
      </trkpt>
      <trkpt lat="48.70406" lon="1.8042">
        <ele>188.4</ele>
        <time>2026-01-13T12:18:23Z</time>
      </trkpt>
      <trkpt lat="48.70404" lon="1.8043">
        <ele>188.4</ele>
        <time>2026-01-13T12:18:24Z</time>
      </trkpt>
      <trkpt lat="48.70402" lon="1.80439">
        <ele>188.4</ele>
        <time>2026-01-13T12:18:25Z</time>
      </trkpt>
      <trkpt lat="48.704" lon="1.80448">
        <ele>188.4</ele>
        <time>2026-01-13T12:18:26Z</time>
      </trkpt>
      <trkpt lat="48.70398" lon="1.80458">
        <ele>188.4</ele>
        <time>2026-01-13T12:18:27Z</time>
      </trkpt>
      <trkpt lat="48.70396" lon="1.80467">
        <ele>188.4</ele>
        <time>2026-01-13T12:18:28Z</time>
      </trkpt>
      <trkpt lat="48.70394" lon="1.80476">
        <ele>188.4</ele>
        <time>2026-01-13T12:18:29Z</time>
      </trkpt>
      <trkpt lat="48.70392" lon="1.80486">
        <ele>188.4</ele>
        <time>2026-01-13T12:18:30Z</time>
      </trkpt>
      <trkpt lat="48.7039" lon="1.80495">
        <ele>188.4</ele>
        <time>2026-01-13T12:18:31Z</time>
      </trkpt>
      <trkpt lat="48.70388" lon="1.80505">
        <ele>188.4</ele>
        <time>2026-01-13T12:18:32Z</time>
      </trkpt>
      <trkpt lat="48.70386" lon="1.80514">
        <ele>188.4</ele>
        <time>2026-01-13T12:18:33Z</time>
      </trkpt>
      <trkpt lat="48.70384" lon="1.80524">
        <ele>188.4</ele>
        <time>2026-01-13T12:18:34Z</time>
      </trkpt>
      <trkpt lat="48.70382" lon="1.80533">
        <ele>188</ele>
        <time>2026-01-13T12:18:35Z</time>
      </trkpt>
      <trkpt lat="48.7038" lon="1.80543">
        <ele>187.6</ele>
        <time>2026-01-13T12:18:36Z</time>
      </trkpt>
      <trkpt lat="48.70378" lon="1.80552">
        <ele>187.6</ele>
        <time>2026-01-13T12:18:37Z</time>
      </trkpt>
      <trkpt lat="48.70377" lon="1.80562">
        <ele>187.6</ele>
        <time>2026-01-13T12:18:38Z</time>
      </trkpt>
      <trkpt lat="48.70375" lon="1.80571">
        <ele>187.6</ele>
        <time>2026-01-13T12:18:39Z</time>
      </trkpt>
      <trkpt lat="48.70373" lon="1.80581">
        <ele>188.2</ele>
        <time>2026-01-13T12:18:40Z</time>
      </trkpt>
      <trkpt lat="48.7037" lon="1.8059">
        <ele>188.2</ele>
        <time>2026-01-13T12:18:41Z</time>
      </trkpt>
      <trkpt lat="48.70368" lon="1.80599">
        <ele>188.2</ele>
        <time>2026-01-13T12:18:42Z</time>
      </trkpt>
      <trkpt lat="48.70365" lon="1.80607">
        <ele>187.6</ele>
        <time>2026-01-13T12:18:43Z</time>
      </trkpt>
      <trkpt lat="48.70362" lon="1.80616">
        <ele>187.6</ele>
        <time>2026-01-13T12:18:44Z</time>
      </trkpt>
      <trkpt lat="48.70359" lon="1.80624">
        <ele>187.6</ele>
        <time>2026-01-13T12:18:45Z</time>
      </trkpt>
      <trkpt lat="48.70356" lon="1.80632">
        <ele>188.2</ele>
        <time>2026-01-13T12:18:46Z</time>
      </trkpt>
      <trkpt lat="48.70353" lon="1.8064">
        <ele>188.4</ele>
        <time>2026-01-13T12:18:47Z</time>
      </trkpt>
      <trkpt lat="48.70349" lon="1.80648">
        <ele>188.4</ele>
        <time>2026-01-13T12:18:48Z</time>
      </trkpt>
      <trkpt lat="48.70346" lon="1.80656">
        <ele>188.4</ele>
        <time>2026-01-13T12:18:49Z</time>
      </trkpt>
      <trkpt lat="48.70342" lon="1.80664">
        <ele>188.4</ele>
        <time>2026-01-13T12:18:50Z</time>
      </trkpt>
      <trkpt lat="48.70338" lon="1.80671">
        <ele>188.4</ele>
        <time>2026-01-13T12:18:51Z</time>
      </trkpt>
      <trkpt lat="48.70334" lon="1.80679">
        <ele>188.4</ele>
        <time>2026-01-13T12:18:52Z</time>
      </trkpt>
      <trkpt lat="48.7033" lon="1.80686">
        <ele>187.4</ele>
        <time>2026-01-13T12:18:53Z</time>
      </trkpt>
      <trkpt lat="48.70326" lon="1.80694">
        <ele>187.4</ele>
        <time>2026-01-13T12:18:54Z</time>
      </trkpt>
      <trkpt lat="48.70322" lon="1.80701">
        <ele>187.4</ele>
        <time>2026-01-13T12:18:55Z</time>
      </trkpt>
      <trkpt lat="48.70318" lon="1.80708">
        <ele>187.4</ele>
        <time>2026-01-13T12:18:56Z</time>
      </trkpt>
      <trkpt lat="48.70313" lon="1.80714">
        <ele>187.4</ele>
        <time>2026-01-13T12:18:57Z</time>
      </trkpt>
      <trkpt lat="48.70309" lon="1.80721">
        <ele>187.4</ele>
        <time>2026-01-13T12:18:58Z</time>
      </trkpt>
      <trkpt lat="48.70304" lon="1.80728">
        <ele>187.2</ele>
        <time>2026-01-13T12:18:59Z</time>
      </trkpt>
      <trkpt lat="48.70299" lon="1.80735">
        <ele>187.2</ele>
        <time>2026-01-13T12:19:00Z</time>
      </trkpt>
      <trkpt lat="48.70294" lon="1.80742">
        <ele>187.2</ele>
        <time>2026-01-13T12:19:01Z</time>
      </trkpt>
      <trkpt lat="48.70289" lon="1.80748">
        <ele>188.2</ele>
        <time>2026-01-13T12:19:02Z</time>
      </trkpt>
      <trkpt lat="48.70283" lon="1.80755">
        <ele>188.6</ele>
        <time>2026-01-13T12:19:03Z</time>
      </trkpt>
      <trkpt lat="48.70278" lon="1.80761">
        <ele>188.6</ele>
        <time>2026-01-13T12:19:04Z</time>
      </trkpt>
      <trkpt lat="48.70272" lon="1.80766">
        <ele>188.6</ele>
        <time>2026-01-13T12:19:05Z</time>
      </trkpt>
      <trkpt lat="48.70266" lon="1.80771">
        <ele>187.6</ele>
        <time>2026-01-13T12:19:06Z</time>
      </trkpt>
      <trkpt lat="48.70261" lon="1.80776">
        <ele>187.4</ele>
        <time>2026-01-13T12:19:07Z</time>
      </trkpt>
      <trkpt lat="48.70255" lon="1.80782">
        <ele>187.4</ele>
        <time>2026-01-13T12:19:08Z</time>
      </trkpt>
      <trkpt lat="48.7025" lon="1.80787">
        <ele>187.4</ele>
        <time>2026-01-13T12:19:09Z</time>
      </trkpt>
      <trkpt lat="48.70245" lon="1.80792">
        <ele>188.4</ele>
        <time>2026-01-13T12:19:10Z</time>
      </trkpt>
      <trkpt lat="48.70239" lon="1.80797">
        <ele>189</ele>
        <time>2026-01-13T12:19:11Z</time>
      </trkpt>
      <trkpt lat="48.70234" lon="1.80802">
        <ele>190</ele>
        <time>2026-01-13T12:19:12Z</time>
      </trkpt>
      <trkpt lat="48.70228" lon="1.80806">
        <ele>190</ele>
        <time>2026-01-13T12:19:13Z</time>
      </trkpt>
      <trkpt lat="48.70223" lon="1.8081">
        <ele>190</ele>
        <time>2026-01-13T12:19:14Z</time>
      </trkpt>
      <trkpt lat="48.70218" lon="1.80814">
        <ele>189</ele>
        <time>2026-01-13T12:19:15Z</time>
      </trkpt>
      <trkpt lat="48.70212" lon="1.80818">
        <ele>188.6</ele>
        <time>2026-01-13T12:19:16Z</time>
      </trkpt>
      <trkpt lat="48.70207" lon="1.80823">
        <ele>188</ele>
        <time>2026-01-13T12:19:17Z</time>
      </trkpt>
      <trkpt lat="48.70201" lon="1.80828">
        <ele>187.6</ele>
        <time>2026-01-13T12:19:18Z</time>
      </trkpt>
      <trkpt lat="48.70195" lon="1.80833">
        <ele>187.2</ele>
        <time>2026-01-13T12:19:19Z</time>
      </trkpt>
      <trkpt lat="48.7019" lon="1.80837">
        <ele>187.2</ele>
        <time>2026-01-13T12:19:20Z</time>
      </trkpt>
      <trkpt lat="48.70184" lon="1.80842">
        <ele>187.2</ele>
        <time>2026-01-13T12:19:21Z</time>
      </trkpt>
      <trkpt lat="48.70178" lon="1.80846">
        <ele>188</ele>
        <time>2026-01-13T12:19:22Z</time>
      </trkpt>
      <trkpt lat="48.70173" lon="1.8085">
        <ele>188</ele>
        <time>2026-01-13T12:19:23Z</time>
      </trkpt>
      <trkpt lat="48.70167" lon="1.80855">
        <ele>188</ele>
        <time>2026-01-13T12:19:24Z</time>
      </trkpt>
      <trkpt lat="48.70161" lon="1.80859">
        <ele>188</ele>
        <time>2026-01-13T12:19:25Z</time>
      </trkpt>
      <trkpt lat="48.70156" lon="1.80864">
        <ele>188</ele>
        <time>2026-01-13T12:19:26Z</time>
      </trkpt>
      <trkpt lat="48.70149" lon="1.80867">
        <ele>188</ele>
        <time>2026-01-13T12:19:27Z</time>
      </trkpt>
      <trkpt lat="48.70143" lon="1.80871">
        <ele>188.2</ele>
        <time>2026-01-13T12:19:28Z</time>
      </trkpt>
      <trkpt lat="48.70137" lon="1.80874">
        <ele>188.2</ele>
        <time>2026-01-13T12:19:29Z</time>
      </trkpt>
      <trkpt lat="48.70131" lon="1.80877">
        <ele>188.2</ele>
        <time>2026-01-13T12:19:30Z</time>
      </trkpt>
      <trkpt lat="48.70125" lon="1.80881">
        <ele>188.2</ele>
        <time>2026-01-13T12:19:31Z</time>
      </trkpt>
      <trkpt lat="48.70118" lon="1.80885">
        <ele>187.6</ele>
        <time>2026-01-13T12:19:32Z</time>
      </trkpt>
      <trkpt lat="48.70112" lon="1.80888">
        <ele>186.8</ele>
        <time>2026-01-13T12:19:33Z</time>
      </trkpt>
      <trkpt lat="48.70107" lon="1.80891">
        <ele>186.8</ele>
        <time>2026-01-13T12:19:34Z</time>
      </trkpt>
      <trkpt lat="48.70101" lon="1.80894">
        <ele>186.8</ele>
        <time>2026-01-13T12:19:35Z</time>
      </trkpt>
      <trkpt lat="48.70096" lon="1.80897">
        <ele>187.8</ele>
        <time>2026-01-13T12:19:36Z</time>
      </trkpt>
      <trkpt lat="48.7009" lon="1.80899">
        <ele>188.6</ele>
        <time>2026-01-13T12:19:37Z</time>
      </trkpt>
      <trkpt lat="48.70085" lon="1.80903">
        <ele>188.8</ele>
        <time>2026-01-13T12:19:38Z</time>
      </trkpt>
      <trkpt lat="48.7008" lon="1.80907">
        <ele>189.2</ele>
        <time>2026-01-13T12:19:39Z</time>
      </trkpt>
      <trkpt lat="48.70075" lon="1.80911">
        <ele>189.2</ele>
        <time>2026-01-13T12:19:40Z</time>
      </trkpt>
      <trkpt lat="48.70071" lon="1.80914">
        <ele>189.2</ele>
        <time>2026-01-13T12:19:41Z</time>
      </trkpt>
      <trkpt lat="48.70066" lon="1.80917">
        <ele>189.2</ele>
        <time>2026-01-13T12:19:42Z</time>
      </trkpt>
      <trkpt lat="48.70062" lon="1.80922">
        <ele>189.2</ele>
        <time>2026-01-13T12:19:43Z</time>
      </trkpt>
      <trkpt lat="48.70058" lon="1.80928">
        <ele>189.2</ele>
        <time>2026-01-13T12:19:44Z</time>
      </trkpt>
      <trkpt lat="48.70054" lon="1.80934">
        <ele>188.2</ele>
        <time>2026-01-13T12:19:45Z</time>
      </trkpt>
      <trkpt lat="48.7005" lon="1.80939">
        <ele>188</ele>
        <time>2026-01-13T12:19:46Z</time>
      </trkpt>
      <trkpt lat="48.70046" lon="1.80944">
        <ele>187.8</ele>
        <time>2026-01-13T12:19:47Z</time>
      </trkpt>
      <trkpt lat="48.70041" lon="1.8095">
        <ele>187.8</ele>
        <time>2026-01-13T12:19:48Z</time>
      </trkpt>
      <trkpt lat="48.70037" lon="1.80955">
        <ele>187.8</ele>
        <time>2026-01-13T12:19:49Z</time>
      </trkpt>
      <trkpt lat="48.70032" lon="1.80961">
        <ele>188.4</ele>
        <time>2026-01-13T12:19:50Z</time>
      </trkpt>
      <trkpt lat="48.70028" lon="1.80966">
        <ele>188.4</ele>
        <time>2026-01-13T12:19:51Z</time>
      </trkpt>
      <trkpt lat="48.70023" lon="1.80972">
        <ele>188.4</ele>
        <time>2026-01-13T12:19:52Z</time>
      </trkpt>
      <trkpt lat="48.70019" lon="1.80978">
        <ele>188.2</ele>
        <time>2026-01-13T12:19:53Z</time>
      </trkpt>
      <trkpt lat="48.70014" lon="1.80984">
        <ele>187.6</ele>
        <time>2026-01-13T12:19:54Z</time>
      </trkpt>
      <trkpt lat="48.7001" lon="1.8099">
        <ele>186.8</ele>
        <time>2026-01-13T12:19:55Z</time>
      </trkpt>
      <trkpt lat="48.70007" lon="1.80996">
        <ele>186.8</ele>
        <time>2026-01-13T12:19:56Z</time>
      </trkpt>
      <trkpt lat="48.70003" lon="1.81003">
        <ele>186.8</ele>
        <time>2026-01-13T12:19:57Z</time>
      </trkpt>
      <trkpt lat="48.69999" lon="1.81011">
        <ele>187.8</ele>
        <time>2026-01-13T12:19:58Z</time>
      </trkpt>
      <trkpt lat="48.69996" lon="1.81018">
        <ele>188.6</ele>
        <time>2026-01-13T12:19:59Z</time>
      </trkpt>
      <trkpt lat="48.69993" lon="1.81026">
        <ele>188.6</ele>
        <time>2026-01-13T12:20:00Z</time>
      </trkpt>
      <trkpt lat="48.69991" lon="1.81035">
        <ele>188.6</ele>
        <time>2026-01-13T12:20:01Z</time>
      </trkpt>
      <trkpt lat="48.69988" lon="1.81042">
        <ele>188.6</ele>
        <time>2026-01-13T12:20:02Z</time>
      </trkpt>
      <trkpt lat="48.69986" lon="1.8105">
        <ele>188.6</ele>
        <time>2026-01-13T12:20:03Z</time>
      </trkpt>
      <trkpt lat="48.69983" lon="1.81058">
        <ele>188.6</ele>
        <time>2026-01-13T12:20:04Z</time>
      </trkpt>
      <trkpt lat="48.6998" lon="1.81066">
        <ele>187.8</ele>
        <time>2026-01-13T12:20:05Z</time>
      </trkpt>
      <trkpt lat="48.69977" lon="1.81075">
        <ele>187.8</ele>
        <time>2026-01-13T12:20:06Z</time>
      </trkpt>
      <trkpt lat="48.69975" lon="1.81083">
        <ele>187.8</ele>
        <time>2026-01-13T12:20:07Z</time>
      </trkpt>
      <trkpt lat="48.69972" lon="1.81091">
        <ele>188.8</ele>
        <time>2026-01-13T12:20:08Z</time>
      </trkpt>
      <trkpt lat="48.6997" lon="1.811">
        <ele>189.2</ele>
        <time>2026-01-13T12:20:09Z</time>
      </trkpt>
      <trkpt lat="48.69967" lon="1.81108">
        <ele>189.2</ele>
        <time>2026-01-13T12:20:10Z</time>
      </trkpt>
      <trkpt lat="48.69965" lon="1.81116">
        <ele>189.2</ele>
        <time>2026-01-13T12:20:11Z</time>
      </trkpt>
      <trkpt lat="48.69962" lon="1.81124">
        <ele>189.2</ele>
        <time>2026-01-13T12:20:12Z</time>
      </trkpt>
      <trkpt lat="48.69959" lon="1.81131">
        <ele>189.2</ele>
        <time>2026-01-13T12:20:13Z</time>
      </trkpt>
      <trkpt lat="48.69956" lon="1.81138">
        <ele>189.2</ele>
        <time>2026-01-13T12:20:14Z</time>
      </trkpt>
      <trkpt lat="48.69952" lon="1.81144">
        <ele>189.2</ele>
        <time>2026-01-13T12:20:15Z</time>
      </trkpt>
      <trkpt lat="48.69948" lon="1.8115">
        <ele>189.6</ele>
        <time>2026-01-13T12:20:16Z</time>
      </trkpt>
      <trkpt lat="48.69943" lon="1.81156">
        <ele>189.6</ele>
        <time>2026-01-13T12:20:17Z</time>
      </trkpt>
      <trkpt lat="48.69939" lon="1.81162">
        <ele>189.6</ele>
        <time>2026-01-13T12:20:18Z</time>
      </trkpt>
      <trkpt lat="48.69934" lon="1.81168">
        <ele>189.2</ele>
        <time>2026-01-13T12:20:19Z</time>
      </trkpt>
      <trkpt lat="48.6993" lon="1.81175">
        <ele>189.2</ele>
        <time>2026-01-13T12:20:20Z</time>
      </trkpt>
      <trkpt lat="48.69925" lon="1.81181">
        <ele>189.2</ele>
        <time>2026-01-13T12:20:21Z</time>
      </trkpt>
      <trkpt lat="48.69921" lon="1.81188">
        <ele>189.2</ele>
        <time>2026-01-13T12:20:22Z</time>
      </trkpt>
      <trkpt lat="48.69916" lon="1.81194">
        <ele>189.2</ele>
        <time>2026-01-13T12:20:23Z</time>
      </trkpt>
      <trkpt lat="48.69912" lon="1.812">
        <ele>188.6</ele>
        <time>2026-01-13T12:20:24Z</time>
      </trkpt>
      <trkpt lat="48.69907" lon="1.81206">
        <ele>188.6</ele>
        <time>2026-01-13T12:20:25Z</time>
      </trkpt>
      <trkpt lat="48.69902" lon="1.81212">
        <ele>188.6</ele>
        <time>2026-01-13T12:20:26Z</time>
      </trkpt>
      <trkpt lat="48.69898" lon="1.81218">
        <ele>189.6</ele>
        <time>2026-01-13T12:20:27Z</time>
      </trkpt>
      <trkpt lat="48.69893" lon="1.81224">
        <ele>190.6</ele>
        <time>2026-01-13T12:20:28Z</time>
      </trkpt>
      <trkpt lat="48.69889" lon="1.8123">
        <ele>190.6</ele>
        <time>2026-01-13T12:20:29Z</time>
      </trkpt>
      <trkpt lat="48.69884" lon="1.81235">
        <ele>190.6</ele>
        <time>2026-01-13T12:20:30Z</time>
      </trkpt>
      <trkpt lat="48.69879" lon="1.8124">
        <ele>189.6</ele>
        <time>2026-01-13T12:20:31Z</time>
      </trkpt>
      <trkpt lat="48.69875" lon="1.81245">
        <ele>189.6</ele>
        <time>2026-01-13T12:20:32Z</time>
      </trkpt>
      <trkpt lat="48.69872" lon="1.81252">
        <ele>189.6</ele>
        <time>2026-01-13T12:20:33Z</time>
      </trkpt>
      <trkpt lat="48.69868" lon="1.81259">
        <ele>189.8</ele>
        <time>2026-01-13T12:20:34Z</time>
      </trkpt>
      <trkpt lat="48.69864" lon="1.81266">
        <ele>190.2</ele>
        <time>2026-01-13T12:20:35Z</time>
      </trkpt>
      <trkpt lat="48.69861" lon="1.81274">
        <ele>190.2</ele>
        <time>2026-01-13T12:20:36Z</time>
      </trkpt>
      <trkpt lat="48.69857" lon="1.81281">
        <ele>190.2</ele>
        <time>2026-01-13T12:20:37Z</time>
      </trkpt>
      <trkpt lat="48.69854" lon="1.81289">
        <ele>190.2</ele>
        <time>2026-01-13T12:20:38Z</time>
      </trkpt>
      <trkpt lat="48.69851" lon="1.81296">
        <ele>190.2</ele>
        <time>2026-01-13T12:20:39Z</time>
      </trkpt>
      <trkpt lat="48.69847" lon="1.81304">
        <ele>190.2</ele>
        <time>2026-01-13T12:20:40Z</time>
      </trkpt>
      <trkpt lat="48.69844" lon="1.81312">
        <ele>189.8</ele>
        <time>2026-01-13T12:20:41Z</time>
      </trkpt>
      <trkpt lat="48.69841" lon="1.8132">
        <ele>189.6</ele>
        <time>2026-01-13T12:20:42Z</time>
      </trkpt>
      <trkpt lat="48.69837" lon="1.81328">
        <ele>189.6</ele>
        <time>2026-01-13T12:20:43Z</time>
      </trkpt>
      <trkpt lat="48.69834" lon="1.81335">
        <ele>189.6</ele>
        <time>2026-01-13T12:20:44Z</time>
      </trkpt>
      <trkpt lat="48.69831" lon="1.81343">
        <ele>189.6</ele>
        <time>2026-01-13T12:20:45Z</time>
      </trkpt>
      <trkpt lat="48.69828" lon="1.81351">
        <ele>189.8</ele>
        <time>2026-01-13T12:20:46Z</time>
      </trkpt>
      <trkpt lat="48.69825" lon="1.81358">
        <ele>190</ele>
        <time>2026-01-13T12:20:47Z</time>
      </trkpt>
      <trkpt lat="48.69822" lon="1.81366">
        <ele>190</ele>
        <time>2026-01-13T12:20:48Z</time>
      </trkpt>
      <trkpt lat="48.69819" lon="1.81374">
        <ele>190</ele>
        <time>2026-01-13T12:20:49Z</time>
      </trkpt>
      <trkpt lat="48.69816" lon="1.81384">
        <ele>189.8</ele>
        <time>2026-01-13T12:20:50Z</time>
      </trkpt>
      <trkpt lat="48.69813" lon="1.81392">
        <ele>189.8</ele>
        <time>2026-01-13T12:20:51Z</time>
      </trkpt>
      <trkpt lat="48.6981" lon="1.81401">
        <ele>189.8</ele>
        <time>2026-01-13T12:20:52Z</time>
      </trkpt>
      <trkpt lat="48.69808" lon="1.81411">
        <ele>189.8</ele>
        <time>2026-01-13T12:20:53Z</time>
      </trkpt>
      <trkpt lat="48.69805" lon="1.81421">
        <ele>190.4</ele>
        <time>2026-01-13T12:20:54Z</time>
      </trkpt>
      <trkpt lat="48.69802" lon="1.81431">
        <ele>190.4</ele>
        <time>2026-01-13T12:20:55Z</time>
      </trkpt>
      <trkpt lat="48.698" lon="1.8144">
        <ele>190.4</ele>
        <time>2026-01-13T12:20:56Z</time>
      </trkpt>
      <trkpt lat="48.69797" lon="1.81449">
        <ele>190.2</ele>
        <time>2026-01-13T12:20:57Z</time>
      </trkpt>
      <trkpt lat="48.69794" lon="1.81457">
        <ele>190.2</ele>
        <time>2026-01-13T12:20:58Z</time>
      </trkpt>
      <trkpt lat="48.69791" lon="1.81466">
        <ele>190</ele>
        <time>2026-01-13T12:20:59Z</time>
      </trkpt>
      <trkpt lat="48.69788" lon="1.81474">
        <ele>190</ele>
        <time>2026-01-13T12:21:00Z</time>
      </trkpt>
      <trkpt lat="48.69786" lon="1.81483">
        <ele>190</ele>
        <time>2026-01-13T12:21:01Z</time>
      </trkpt>
      <trkpt lat="48.69783" lon="1.81493">
        <ele>190.2</ele>
        <time>2026-01-13T12:21:02Z</time>
      </trkpt>
      <trkpt lat="48.6978" lon="1.81502">
        <ele>190.2</ele>
        <time>2026-01-13T12:21:03Z</time>
      </trkpt>
      <trkpt lat="48.69778" lon="1.8151">
        <ele>190.2</ele>
        <time>2026-01-13T12:21:04Z</time>
      </trkpt>
      <trkpt lat="48.69776" lon="1.81519">
        <ele>190.2</ele>
        <time>2026-01-13T12:21:05Z</time>
      </trkpt>
      <trkpt lat="48.69773" lon="1.81526">
        <ele>190.2</ele>
        <time>2026-01-13T12:21:06Z</time>
      </trkpt>
      <trkpt lat="48.6977" lon="1.81534">
        <ele>190.2</ele>
        <time>2026-01-13T12:21:07Z</time>
      </trkpt>
      <trkpt lat="48.69768" lon="1.81543">
        <ele>190.2</ele>
        <time>2026-01-13T12:21:08Z</time>
      </trkpt>
      <trkpt lat="48.69766" lon="1.8155">
        <ele>190.2</ele>
        <time>2026-01-13T12:21:09Z</time>
      </trkpt>
      <trkpt lat="48.69763" lon="1.81557">
        <ele>190</ele>
        <time>2026-01-13T12:21:10Z</time>
      </trkpt>
      <trkpt lat="48.6976" lon="1.81566">
        <ele>190</ele>
        <time>2026-01-13T12:21:11Z</time>
      </trkpt>
      <trkpt lat="48.69757" lon="1.81574">
        <ele>190</ele>
        <time>2026-01-13T12:21:12Z</time>
      </trkpt>
      <trkpt lat="48.69754" lon="1.81583">
        <ele>190</ele>
        <time>2026-01-13T12:21:13Z</time>
      </trkpt>
      <trkpt lat="48.69752" lon="1.81592">
        <ele>190.4</ele>
        <time>2026-01-13T12:21:14Z</time>
      </trkpt>
      <trkpt lat="48.69749" lon="1.81601">
        <ele>190.6</ele>
        <time>2026-01-13T12:21:15Z</time>
      </trkpt>
      <trkpt lat="48.69746" lon="1.81608">
        <ele>190.8</ele>
        <time>2026-01-13T12:21:16Z</time>
      </trkpt>
      <trkpt lat="48.69743" lon="1.81616">
        <ele>190.8</ele>
        <time>2026-01-13T12:21:17Z</time>
      </trkpt>
      <trkpt lat="48.69741" lon="1.81624">
        <ele>190.8</ele>
        <time>2026-01-13T12:21:18Z</time>
      </trkpt>
      <trkpt lat="48.69739" lon="1.81632">
        <ele>190.8</ele>
        <time>2026-01-13T12:21:19Z</time>
      </trkpt>
      <trkpt lat="48.69737" lon="1.81641">
        <ele>190.8</ele>
        <time>2026-01-13T12:21:20Z</time>
      </trkpt>
      <trkpt lat="48.69735" lon="1.8165">
        <ele>190.8</ele>
        <time>2026-01-13T12:21:21Z</time>
      </trkpt>
      <trkpt lat="48.69733" lon="1.81659">
        <ele>190.8</ele>
        <time>2026-01-13T12:21:22Z</time>
      </trkpt>
      <trkpt lat="48.6973" lon="1.81669">
        <ele>191.4</ele>
        <time>2026-01-13T12:21:23Z</time>
      </trkpt>
      <trkpt lat="48.69728" lon="1.81677">
        <ele>192</ele>
        <time>2026-01-13T12:21:24Z</time>
      </trkpt>
      <trkpt lat="48.69726" lon="1.81687">
        <ele>192</ele>
        <time>2026-01-13T12:21:25Z</time>
      </trkpt>
      <trkpt lat="48.69724" lon="1.81695">
        <ele>192</ele>
        <time>2026-01-13T12:21:26Z</time>
      </trkpt>
      <trkpt lat="48.69721" lon="1.81704">
        <ele>192</ele>
        <time>2026-01-13T12:21:27Z</time>
      </trkpt>
      <trkpt lat="48.69719" lon="1.81713">
        <ele>192</ele>
        <time>2026-01-13T12:21:28Z</time>
      </trkpt>
      <trkpt lat="48.69717" lon="1.81721">
        <ele>192</ele>
        <time>2026-01-13T12:21:29Z</time>
      </trkpt>
      <trkpt lat="48.69714" lon="1.8173">
        <ele>191.8</ele>
        <time>2026-01-13T12:21:30Z</time>
      </trkpt>
      <trkpt lat="48.69712" lon="1.81738">
        <ele>191.8</ele>
        <time>2026-01-13T12:21:31Z</time>
      </trkpt>
      <trkpt lat="48.6971" lon="1.81746">
        <ele>191.8</ele>
        <time>2026-01-13T12:21:32Z</time>
      </trkpt>
      <trkpt lat="48.69707" lon="1.81753">
        <ele>192.6</ele>
        <time>2026-01-13T12:21:33Z</time>
      </trkpt>
      <trkpt lat="48.69705" lon="1.81761">
        <ele>192.6</ele>
        <time>2026-01-13T12:21:34Z</time>
      </trkpt>
      <trkpt lat="48.69703" lon="1.81769">
        <ele>192.6</ele>
        <time>2026-01-13T12:21:35Z</time>
      </trkpt>
      <trkpt lat="48.697" lon="1.81776">
        <ele>192</ele>
        <time>2026-01-13T12:21:36Z</time>
      </trkpt>
      <trkpt lat="48.69698" lon="1.81784">
        <ele>191.8</ele>
        <time>2026-01-13T12:21:37Z</time>
      </trkpt>
      <trkpt lat="48.69696" lon="1.81792">
        <ele>191.8</ele>
        <time>2026-01-13T12:21:38Z</time>
      </trkpt>
      <trkpt lat="48.69694" lon="1.818">
        <ele>191.8</ele>
        <time>2026-01-13T12:21:39Z</time>
      </trkpt>
      <trkpt lat="48.69691" lon="1.81808">
        <ele>192.4</ele>
        <time>2026-01-13T12:21:40Z</time>
      </trkpt>
      <trkpt lat="48.6969" lon="1.81816">
        <ele>192.4</ele>
        <time>2026-01-13T12:21:41Z</time>
      </trkpt>
      <trkpt lat="48.69688" lon="1.81824">
        <ele>192.6</ele>
        <time>2026-01-13T12:21:42Z</time>
      </trkpt>
      <trkpt lat="48.69686" lon="1.81833">
        <ele>192.6</ele>
        <time>2026-01-13T12:21:43Z</time>
      </trkpt>
      <trkpt lat="48.69684" lon="1.81842">
        <ele>193</ele>
        <time>2026-01-13T12:21:44Z</time>
      </trkpt>
      <trkpt lat="48.69683" lon="1.81852">
        <ele>193</ele>
        <time>2026-01-13T12:21:45Z</time>
      </trkpt>
      <trkpt lat="48.69681" lon="1.81861">
        <ele>193</ele>
        <time>2026-01-13T12:21:46Z</time>
      </trkpt>
      <trkpt lat="48.69679" lon="1.8187">
        <ele>192.2</ele>
        <time>2026-01-13T12:21:47Z</time>
      </trkpt>
      <trkpt lat="48.69677" lon="1.8188">
        <ele>192.2</ele>
        <time>2026-01-13T12:21:48Z</time>
      </trkpt>
      <trkpt lat="48.69676" lon="1.81888">
        <ele>192.2</ele>
        <time>2026-01-13T12:21:49Z</time>
      </trkpt>
      <trkpt lat="48.69674" lon="1.81897">
        <ele>192.2</ele>
        <time>2026-01-13T12:21:50Z</time>
      </trkpt>
      <trkpt lat="48.69672" lon="1.81906">
        <ele>192.2</ele>
        <time>2026-01-13T12:21:51Z</time>
      </trkpt>
      <trkpt lat="48.69671" lon="1.81914">
        <ele>192.2</ele>
        <time>2026-01-13T12:21:52Z</time>
      </trkpt>
      <trkpt lat="48.69669" lon="1.81923">
        <ele>193.2</ele>
        <time>2026-01-13T12:21:53Z</time>
      </trkpt>
      <trkpt lat="48.69668" lon="1.81931">
        <ele>193.6</ele>
        <time>2026-01-13T12:21:54Z</time>
      </trkpt>
      <trkpt lat="48.69666" lon="1.8194">
        <ele>193.6</ele>
        <time>2026-01-13T12:21:55Z</time>
      </trkpt>
      <trkpt lat="48.69664" lon="1.81949">
        <ele>193.6</ele>
        <time>2026-01-13T12:21:56Z</time>
      </trkpt>
      <trkpt lat="48.69663" lon="1.81958">
        <ele>193.6</ele>
        <time>2026-01-13T12:21:57Z</time>
      </trkpt>
      <trkpt lat="48.69661" lon="1.81967">
        <ele>194</ele>
        <time>2026-01-13T12:21:58Z</time>
      </trkpt>
      <trkpt lat="48.69659" lon="1.81976">
        <ele>194.4</ele>
        <time>2026-01-13T12:21:59Z</time>
      </trkpt>
      <trkpt lat="48.69657" lon="1.81985">
        <ele>194.6</ele>
        <time>2026-01-13T12:22:00Z</time>
      </trkpt>
      <trkpt lat="48.69656" lon="1.81994">
        <ele>194.6</ele>
        <time>2026-01-13T12:22:01Z</time>
      </trkpt>
      <trkpt lat="48.69654" lon="1.82003">
        <ele>194.6</ele>
        <time>2026-01-13T12:22:02Z</time>
      </trkpt>
      <trkpt lat="48.69653" lon="1.82012">
        <ele>193.6</ele>
        <time>2026-01-13T12:22:03Z</time>
      </trkpt>
      <trkpt lat="48.69652" lon="1.82021">
        <ele>193</ele>
        <time>2026-01-13T12:22:04Z</time>
      </trkpt>
      <trkpt lat="48.6965" lon="1.8203">
        <ele>193</ele>
        <time>2026-01-13T12:22:05Z</time>
      </trkpt>
      <trkpt lat="48.69649" lon="1.8204">
        <ele>193</ele>
        <time>2026-01-13T12:22:06Z</time>
      </trkpt>
      <trkpt lat="48.69647" lon="1.82049">
        <ele>193</ele>
        <time>2026-01-13T12:22:07Z</time>
      </trkpt>
      <trkpt lat="48.69645" lon="1.82058">
        <ele>193</ele>
        <time>2026-01-13T12:22:08Z</time>
      </trkpt>
      <trkpt lat="48.69643" lon="1.82068">
        <ele>193</ele>
        <time>2026-01-13T12:22:09Z</time>
      </trkpt>
      <trkpt lat="48.69641" lon="1.82077">
        <ele>193</ele>
        <time>2026-01-13T12:22:10Z</time>
      </trkpt>
      <trkpt lat="48.6964" lon="1.82087">
        <ele>193</ele>
        <time>2026-01-13T12:22:11Z</time>
      </trkpt>
      <trkpt lat="48.69638" lon="1.82097">
        <ele>193.4</ele>
        <time>2026-01-13T12:22:12Z</time>
      </trkpt>
      <trkpt lat="48.69637" lon="1.82107">
        <ele>193.4</ele>
        <time>2026-01-13T12:22:13Z</time>
      </trkpt>
      <trkpt lat="48.69635" lon="1.82117">
        <ele>193.4</ele>
        <time>2026-01-13T12:22:14Z</time>
      </trkpt>
      <trkpt lat="48.69634" lon="1.82127">
        <ele>193.2</ele>
        <time>2026-01-13T12:22:15Z</time>
      </trkpt>
      <trkpt lat="48.69632" lon="1.82137">
        <ele>193.2</ele>
        <time>2026-01-13T12:22:16Z</time>
      </trkpt>
      <trkpt lat="48.6963" lon="1.82148">
        <ele>193.2</ele>
        <time>2026-01-13T12:22:17Z</time>
      </trkpt>
      <trkpt lat="48.69629" lon="1.82158">
        <ele>193.2</ele>
        <time>2026-01-13T12:22:18Z</time>
      </trkpt>
      <trkpt lat="48.69628" lon="1.82169">
        <ele>192.2</ele>
        <time>2026-01-13T12:22:19Z</time>
      </trkpt>
      <trkpt lat="48.69626" lon="1.82179">
        <ele>191.4</ele>
        <time>2026-01-13T12:22:20Z</time>
      </trkpt>
      <trkpt lat="48.69624" lon="1.8219">
        <ele>191.4</ele>
        <time>2026-01-13T12:22:21Z</time>
      </trkpt>
      <trkpt lat="48.69622" lon="1.822">
        <ele>191.4</ele>
        <time>2026-01-13T12:22:22Z</time>
      </trkpt>
      <trkpt lat="48.69619" lon="1.8221">
        <ele>192.2</ele>
        <time>2026-01-13T12:22:23Z</time>
      </trkpt>
      <trkpt lat="48.69617" lon="1.8222">
        <ele>192.2</ele>
        <time>2026-01-13T12:22:24Z</time>
      </trkpt>
      <trkpt lat="48.69614" lon="1.8223">
        <ele>192.2</ele>
        <time>2026-01-13T12:22:25Z</time>
      </trkpt>
      <trkpt lat="48.69612" lon="1.82239">
        <ele>191.8</ele>
        <time>2026-01-13T12:22:26Z</time>
      </trkpt>
      <trkpt lat="48.6961" lon="1.82248">
        <ele>191.8</ele>
        <time>2026-01-13T12:22:27Z</time>
      </trkpt>
      <trkpt lat="48.69608" lon="1.82258">
        <ele>191.8</ele>
        <time>2026-01-13T12:22:28Z</time>
      </trkpt>
      <trkpt lat="48.69606" lon="1.82268">
        <ele>191.8</ele>
        <time>2026-01-13T12:22:29Z</time>
      </trkpt>
      <trkpt lat="48.69604" lon="1.82278">
        <ele>191.8</ele>
        <time>2026-01-13T12:22:30Z</time>
      </trkpt>
      <trkpt lat="48.69602" lon="1.82287">
        <ele>191.8</ele>
        <time>2026-01-13T12:22:31Z</time>
      </trkpt>
      <trkpt lat="48.696" lon="1.82296">
        <ele>191.8</ele>
        <time>2026-01-13T12:22:32Z</time>
      </trkpt>
      <trkpt lat="48.69598" lon="1.82305">
        <ele>191.8</ele>
        <time>2026-01-13T12:22:33Z</time>
      </trkpt>
      <trkpt lat="48.69596" lon="1.82314">
        <ele>192.8</ele>
        <time>2026-01-13T12:22:34Z</time>
      </trkpt>
      <trkpt lat="48.69595" lon="1.82323">
        <ele>193.8</ele>
        <time>2026-01-13T12:22:35Z</time>
      </trkpt>
      <trkpt lat="48.69593" lon="1.82332">
        <ele>193.8</ele>
        <time>2026-01-13T12:22:36Z</time>
      </trkpt>
      <trkpt lat="48.69592" lon="1.82341">
        <ele>193.8</ele>
        <time>2026-01-13T12:22:37Z</time>
      </trkpt>
      <trkpt lat="48.6959" lon="1.82349">
        <ele>193.8</ele>
        <time>2026-01-13T12:22:38Z</time>
      </trkpt>
      <trkpt lat="48.69588" lon="1.82358">
        <ele>193.8</ele>
        <time>2026-01-13T12:22:39Z</time>
      </trkpt>
      <trkpt lat="48.69586" lon="1.82367">
        <ele>193.8</ele>
        <time>2026-01-13T12:22:40Z</time>
      </trkpt>
      <trkpt lat="48.69584" lon="1.82376">
        <ele>193.8</ele>
        <time>2026-01-13T12:22:41Z</time>
      </trkpt>
      <trkpt lat="48.69582" lon="1.82385">
        <ele>193.8</ele>
        <time>2026-01-13T12:22:42Z</time>
      </trkpt>
      <trkpt lat="48.6958" lon="1.82393">
        <ele>193.8</ele>
        <time>2026-01-13T12:22:43Z</time>
      </trkpt>
      <trkpt lat="48.69578" lon="1.82402">
        <ele>194.2</ele>
        <time>2026-01-13T12:22:44Z</time>
      </trkpt>
      <trkpt lat="48.69576" lon="1.82411">
        <ele>194.2</ele>
        <time>2026-01-13T12:22:45Z</time>
      </trkpt>
      <trkpt lat="48.69575" lon="1.8242">
        <ele>194.2</ele>
        <time>2026-01-13T12:22:46Z</time>
      </trkpt>
      <trkpt lat="48.69573" lon="1.82429">
        <ele>194.2</ele>
        <time>2026-01-13T12:22:47Z</time>
      </trkpt>
      <trkpt lat="48.69572" lon="1.82438">
        <ele>194.2</ele>
        <time>2026-01-13T12:22:48Z</time>
      </trkpt>
      <trkpt lat="48.69571" lon="1.82446">
        <ele>194.2</ele>
        <time>2026-01-13T12:22:49Z</time>
      </trkpt>
      <trkpt lat="48.69569" lon="1.82455">
        <ele>194.2</ele>
        <time>2026-01-13T12:22:50Z</time>
      </trkpt>
      <trkpt lat="48.69568" lon="1.82465">
        <ele>194.2</ele>
        <time>2026-01-13T12:22:51Z</time>
      </trkpt>
      <trkpt lat="48.69567" lon="1.82474">
        <ele>194.2</ele>
        <time>2026-01-13T12:22:52Z</time>
      </trkpt>
      <trkpt lat="48.69566" lon="1.82484">
        <ele>193.6</ele>
        <time>2026-01-13T12:22:53Z</time>
      </trkpt>
      <trkpt lat="48.69565" lon="1.82493">
        <ele>193.6</ele>
        <time>2026-01-13T12:22:54Z</time>
      </trkpt>
      <trkpt lat="48.69564" lon="1.82502">
        <ele>193.6</ele>
        <time>2026-01-13T12:22:55Z</time>
      </trkpt>
      <trkpt lat="48.69563" lon="1.82512">
        <ele>193.6</ele>
        <time>2026-01-13T12:22:56Z</time>
      </trkpt>
      <trkpt lat="48.69563" lon="1.82521">
        <ele>192.6</ele>
        <time>2026-01-13T12:22:57Z</time>
      </trkpt>
      <trkpt lat="48.69562" lon="1.8253">
        <ele>192.6</ele>
        <time>2026-01-13T12:22:58Z</time>
      </trkpt>
      <trkpt lat="48.6956" lon="1.82539">
        <ele>192.6</ele>
        <time>2026-01-13T12:22:59Z</time>
      </trkpt>
      <trkpt lat="48.6956" lon="1.82549">
        <ele>193.6</ele>
        <time>2026-01-13T12:23:00Z</time>
      </trkpt>
      <trkpt lat="48.69559" lon="1.82558">
        <ele>194.6</ele>
        <time>2026-01-13T12:23:01Z</time>
      </trkpt>
      <trkpt lat="48.69558" lon="1.82567">
        <ele>194.6</ele>
        <time>2026-01-13T12:23:02Z</time>
      </trkpt>
      <trkpt lat="48.69557" lon="1.82576">
        <ele>194.6</ele>
        <time>2026-01-13T12:23:03Z</time>
      </trkpt>
      <trkpt lat="48.69556" lon="1.82585">
        <ele>193.8</ele>
        <time>2026-01-13T12:23:04Z</time>
      </trkpt>
      <trkpt lat="48.69555" lon="1.82594">
        <ele>193.6</ele>
        <time>2026-01-13T12:23:05Z</time>
      </trkpt>
      <trkpt lat="48.69554" lon="1.82603">
        <ele>193.6</ele>
        <time>2026-01-13T12:23:06Z</time>
      </trkpt>
      <trkpt lat="48.69554" lon="1.82612">
        <ele>193.6</ele>
        <time>2026-01-13T12:23:07Z</time>
      </trkpt>
      <trkpt lat="48.69553" lon="1.82621">
        <ele>194.6</ele>
        <time>2026-01-13T12:23:08Z</time>
      </trkpt>
      <trkpt lat="48.69551" lon="1.8263">
        <ele>194.6</ele>
        <time>2026-01-13T12:23:09Z</time>
      </trkpt>
      <trkpt lat="48.6955" lon="1.82639">
        <ele>194.6</ele>
        <time>2026-01-13T12:23:10Z</time>
      </trkpt>
      <trkpt lat="48.69548" lon="1.82648">
        <ele>194</ele>
        <time>2026-01-13T12:23:11Z</time>
      </trkpt>
      <trkpt lat="48.69547" lon="1.82657">
        <ele>194</ele>
        <time>2026-01-13T12:23:12Z</time>
      </trkpt>
      <trkpt lat="48.69545" lon="1.82666">
        <ele>194</ele>
        <time>2026-01-13T12:23:13Z</time>
      </trkpt>
      <trkpt lat="48.69543" lon="1.82675">
        <ele>194.2</ele>
        <time>2026-01-13T12:23:14Z</time>
      </trkpt>
      <trkpt lat="48.69541" lon="1.82684">
        <ele>194.2</ele>
        <time>2026-01-13T12:23:15Z</time>
      </trkpt>
      <trkpt lat="48.69539" lon="1.82693">
        <ele>194.2</ele>
        <time>2026-01-13T12:23:16Z</time>
      </trkpt>
      <trkpt lat="48.69538" lon="1.82702">
        <ele>193.6</ele>
        <time>2026-01-13T12:23:17Z</time>
      </trkpt>
      <trkpt lat="48.69536" lon="1.82711">
        <ele>193.6</ele>
        <time>2026-01-13T12:23:18Z</time>
      </trkpt>
      <trkpt lat="48.69534" lon="1.8272">
        <ele>193.6</ele>
        <time>2026-01-13T12:23:19Z</time>
      </trkpt>
      <trkpt lat="48.69533" lon="1.82729">
        <ele>193.6</ele>
        <time>2026-01-13T12:23:20Z</time>
      </trkpt>
      <trkpt lat="48.69531" lon="1.82738">
        <ele>193.6</ele>
        <time>2026-01-13T12:23:21Z</time>
      </trkpt>
      <trkpt lat="48.69529" lon="1.82747">
        <ele>193.6</ele>
        <time>2026-01-13T12:23:22Z</time>
      </trkpt>
      <trkpt lat="48.69527" lon="1.82757">
        <ele>193</ele>
        <time>2026-01-13T12:23:23Z</time>
      </trkpt>
      <trkpt lat="48.69526" lon="1.82766">
        <ele>193</ele>
        <time>2026-01-13T12:23:24Z</time>
      </trkpt>
      <trkpt lat="48.69524" lon="1.82775">
        <ele>193</ele>
        <time>2026-01-13T12:23:25Z</time>
      </trkpt>
      <trkpt lat="48.69522" lon="1.82784">
        <ele>193</ele>
        <time>2026-01-13T12:23:26Z</time>
      </trkpt>
      <trkpt lat="48.69521" lon="1.82793">
        <ele>193</ele>
        <time>2026-01-13T12:23:27Z</time>
      </trkpt>
      <trkpt lat="48.6952" lon="1.82803">
        <ele>193.4</ele>
        <time>2026-01-13T12:23:28Z</time>
      </trkpt>
      <trkpt lat="48.69518" lon="1.82813">
        <ele>193.4</ele>
        <time>2026-01-13T12:23:29Z</time>
      </trkpt>
      <trkpt lat="48.69517" lon="1.82822">
        <ele>193.4</ele>
        <time>2026-01-13T12:23:30Z</time>
      </trkpt>
      <trkpt lat="48.69516" lon="1.82832">
        <ele>193.4</ele>
        <time>2026-01-13T12:23:31Z</time>
      </trkpt>
      <trkpt lat="48.69515" lon="1.82842">
        <ele>193.4</ele>
        <time>2026-01-13T12:23:32Z</time>
      </trkpt>
      <trkpt lat="48.69514" lon="1.82852">
        <ele>193.6</ele>
        <time>2026-01-13T12:23:33Z</time>
      </trkpt>
      <trkpt lat="48.69514" lon="1.82862">
        <ele>193.6</ele>
        <time>2026-01-13T12:23:34Z</time>
      </trkpt>
      <trkpt lat="48.69513" lon="1.82872">
        <ele>193.6</ele>
        <time>2026-01-13T12:23:35Z</time>
      </trkpt>
      <trkpt lat="48.69512" lon="1.82881">
        <ele>193.6</ele>
        <time>2026-01-13T12:23:36Z</time>
      </trkpt>
      <trkpt lat="48.69511" lon="1.82891">
        <ele>193.6</ele>
        <time>2026-01-13T12:23:37Z</time>
      </trkpt>
      <trkpt lat="48.6951" lon="1.829">
        <ele>193.6</ele>
        <time>2026-01-13T12:23:38Z</time>
      </trkpt>
      <trkpt lat="48.69509" lon="1.82909">
        <ele>193.6</ele>
        <time>2026-01-13T12:23:39Z</time>
      </trkpt>
      <trkpt lat="48.69507" lon="1.82919">
        <ele>193.6</ele>
        <time>2026-01-13T12:23:40Z</time>
      </trkpt>
      <trkpt lat="48.69506" lon="1.82928">
        <ele>193.6</ele>
        <time>2026-01-13T12:23:41Z</time>
      </trkpt>
      <trkpt lat="48.69505" lon="1.82938">
        <ele>193.6</ele>
        <time>2026-01-13T12:23:42Z</time>
      </trkpt>
      <trkpt lat="48.69503" lon="1.82947">
        <ele>193.6</ele>
        <time>2026-01-13T12:23:43Z</time>
      </trkpt>
      <trkpt lat="48.69501" lon="1.82955">
        <ele>193.6</ele>
        <time>2026-01-13T12:23:44Z</time>
      </trkpt>
      <trkpt lat="48.695" lon="1.82963">
        <ele>193.6</ele>
        <time>2026-01-13T12:23:45Z</time>
      </trkpt>
      <trkpt lat="48.69498" lon="1.82972">
        <ele>193</ele>
        <time>2026-01-13T12:23:46Z</time>
      </trkpt>
      <trkpt lat="48.69497" lon="1.82982">
        <ele>192.6</ele>
        <time>2026-01-13T12:23:47Z</time>
      </trkpt>
      <trkpt lat="48.69496" lon="1.82991">
        <ele>192.6</ele>
        <time>2026-01-13T12:23:48Z</time>
      </trkpt>
      <trkpt lat="48.69494" lon="1.83001">
        <ele>192.6</ele>
        <time>2026-01-13T12:23:49Z</time>
      </trkpt>
      <trkpt lat="48.69493" lon="1.8301">
        <ele>192.6</ele>
        <time>2026-01-13T12:23:50Z</time>
      </trkpt>
      <trkpt lat="48.69491" lon="1.8302">
        <ele>192.6</ele>
        <time>2026-01-13T12:23:51Z</time>
      </trkpt>
      <trkpt lat="48.6949" lon="1.83029">
        <ele>192.6</ele>
        <time>2026-01-13T12:23:52Z</time>
      </trkpt>
      <trkpt lat="48.69488" lon="1.83039">
        <ele>192.8</ele>
        <time>2026-01-13T12:23:53Z</time>
      </trkpt>
      <trkpt lat="48.69486" lon="1.83048">
        <ele>193</ele>
        <time>2026-01-13T12:23:54Z</time>
      </trkpt>
      <trkpt lat="48.69484" lon="1.83058">
        <ele>193</ele>
        <time>2026-01-13T12:23:55Z</time>
      </trkpt>
      <trkpt lat="48.69482" lon="1.83066">
        <ele>193</ele>
        <time>2026-01-13T12:23:56Z</time>
      </trkpt>
      <trkpt lat="48.6948" lon="1.83075">
        <ele>193</ele>
        <time>2026-01-13T12:23:57Z</time>
      </trkpt>
      <trkpt lat="48.69478" lon="1.83084">
        <ele>192.8</ele>
        <time>2026-01-13T12:23:58Z</time>
      </trkpt>
      <trkpt lat="48.69476" lon="1.83093">
        <ele>192.8</ele>
        <time>2026-01-13T12:23:59Z</time>
      </trkpt>
      <trkpt lat="48.69473" lon="1.83102">
        <ele>192.8</ele>
        <time>2026-01-13T12:24:00Z</time>
      </trkpt>
      <trkpt lat="48.69471" lon="1.83111">
        <ele>192.8</ele>
        <time>2026-01-13T12:24:01Z</time>
      </trkpt>
      <trkpt lat="48.69468" lon="1.8312">
        <ele>192.8</ele>
        <time>2026-01-13T12:24:02Z</time>
      </trkpt>
      <trkpt lat="48.69467" lon="1.83129">
        <ele>192.8</ele>
        <time>2026-01-13T12:24:03Z</time>
      </trkpt>
      <trkpt lat="48.69465" lon="1.83137">
        <ele>193.2</ele>
        <time>2026-01-13T12:24:04Z</time>
      </trkpt>
      <trkpt lat="48.69463" lon="1.83145">
        <ele>193.2</ele>
        <time>2026-01-13T12:24:05Z</time>
      </trkpt>
      <trkpt lat="48.69461" lon="1.83153">
        <ele>193.2</ele>
        <time>2026-01-13T12:24:06Z</time>
      </trkpt>
      <trkpt lat="48.6946" lon="1.83161">
        <ele>193.2</ele>
        <time>2026-01-13T12:24:07Z</time>
      </trkpt>
      <trkpt lat="48.6946" lon="1.8317">
        <ele>193.2</ele>
        <time>2026-01-13T12:24:08Z</time>
      </trkpt>
      <trkpt lat="48.6946" lon="1.83179">
        <ele>193.2</ele>
        <time>2026-01-13T12:24:09Z</time>
      </trkpt>
      <trkpt lat="48.69461" lon="1.83188">
        <ele>193.2</ele>
        <time>2026-01-13T12:24:10Z</time>
      </trkpt>
      <trkpt lat="48.69461" lon="1.83196">
        <ele>193.6</ele>
        <time>2026-01-13T12:24:11Z</time>
      </trkpt>
      <trkpt lat="48.69459" lon="1.83203">
        <ele>193.6</ele>
        <time>2026-01-13T12:24:12Z</time>
      </trkpt>
      <trkpt lat="48.69454" lon="1.83206">
        <ele>193.6</ele>
        <time>2026-01-13T12:24:13Z</time>
      </trkpt>
      <trkpt lat="48.69449" lon="1.83207">
        <ele>192.6</ele>
        <time>2026-01-13T12:24:14Z</time>
      </trkpt>
      <trkpt lat="48.69444" lon="1.83207">
        <ele>192</ele>
        <time>2026-01-13T12:24:15Z</time>
      </trkpt>
      <trkpt lat="48.69439" lon="1.83206">
        <ele>191.8</ele>
        <time>2026-01-13T12:24:16Z</time>
      </trkpt>
      <trkpt lat="48.69435" lon="1.83206">
        <ele>191.6</ele>
        <time>2026-01-13T12:24:17Z</time>
      </trkpt>
      <trkpt lat="48.6943" lon="1.83207">
        <ele>191.4</ele>
        <time>2026-01-13T12:24:18Z</time>
      </trkpt>
      <trkpt lat="48.69425" lon="1.83207">
        <ele>191.4</ele>
        <time>2026-01-13T12:24:19Z</time>
      </trkpt>
      <trkpt lat="48.69419" lon="1.83207">
        <ele>191.4</ele>
        <time>2026-01-13T12:24:20Z</time>
      </trkpt>
      <trkpt lat="48.69414" lon="1.83208">
        <ele>191.4</ele>
        <time>2026-01-13T12:24:21Z</time>
      </trkpt>
      <trkpt lat="48.69409" lon="1.83208">
        <ele>191.2</ele>
        <time>2026-01-13T12:24:22Z</time>
      </trkpt>
      <trkpt lat="48.69404" lon="1.83208">
        <ele>191.2</ele>
        <time>2026-01-13T12:24:23Z</time>
      </trkpt>
      <trkpt lat="48.69399" lon="1.83209">
        <ele>191.2</ele>
        <time>2026-01-13T12:24:24Z</time>
      </trkpt>
      <trkpt lat="48.69394" lon="1.83209">
        <ele>191.8</ele>
        <time>2026-01-13T12:24:25Z</time>
      </trkpt>
      <trkpt lat="48.69389" lon="1.83209">
        <ele>191.8</ele>
        <time>2026-01-13T12:24:26Z</time>
      </trkpt>
      <trkpt lat="48.69384" lon="1.83209">
        <ele>191.8</ele>
        <time>2026-01-13T12:24:27Z</time>
      </trkpt>
      <trkpt lat="48.69379" lon="1.83209">
        <ele>190.8</ele>
        <time>2026-01-13T12:24:28Z</time>
      </trkpt>
      <trkpt lat="48.69373" lon="1.83209">
        <ele>190.8</ele>
        <time>2026-01-13T12:24:29Z</time>
      </trkpt>
      <trkpt lat="48.69368" lon="1.83209">
        <ele>190.8</ele>
        <time>2026-01-13T12:24:30Z</time>
      </trkpt>
      <trkpt lat="48.69363" lon="1.83209">
        <ele>191.8</ele>
        <time>2026-01-13T12:24:31Z</time>
      </trkpt>
      <trkpt lat="48.69358" lon="1.8321">
        <ele>192</ele>
        <time>2026-01-13T12:24:32Z</time>
      </trkpt>
      <trkpt lat="48.69353" lon="1.8321">
        <ele>192</ele>
        <time>2026-01-13T12:24:33Z</time>
      </trkpt>
      <trkpt lat="48.69348" lon="1.83211">
        <ele>192</ele>
        <time>2026-01-13T12:24:34Z</time>
      </trkpt>
      <trkpt lat="48.69342" lon="1.83211">
        <ele>191</ele>
        <time>2026-01-13T12:24:35Z</time>
      </trkpt>
      <trkpt lat="48.69337" lon="1.83211">
        <ele>191</ele>
        <time>2026-01-13T12:24:36Z</time>
      </trkpt>
      <trkpt lat="48.69332" lon="1.83211">
        <ele>191</ele>
        <time>2026-01-13T12:24:37Z</time>
      </trkpt>
      <trkpt lat="48.69327" lon="1.83211">
        <ele>191.4</ele>
        <time>2026-01-13T12:24:38Z</time>
      </trkpt>
      <trkpt lat="48.69321" lon="1.83211">
        <ele>192</ele>
        <time>2026-01-13T12:24:39Z</time>
      </trkpt>
      <trkpt lat="48.69316" lon="1.83211">
        <ele>192</ele>
        <time>2026-01-13T12:24:40Z</time>
      </trkpt>
      <trkpt lat="48.69311" lon="1.83212">
        <ele>192</ele>
        <time>2026-01-13T12:24:41Z</time>
      </trkpt>
      <trkpt lat="48.69305" lon="1.83212">
        <ele>191.8</ele>
        <time>2026-01-13T12:24:42Z</time>
      </trkpt>
      <trkpt lat="48.693" lon="1.83212">
        <ele>191.8</ele>
        <time>2026-01-13T12:24:43Z</time>
      </trkpt>
      <trkpt lat="48.69294" lon="1.83212">
        <ele>191.8</ele>
        <time>2026-01-13T12:24:44Z</time>
      </trkpt>
      <trkpt lat="48.69289" lon="1.83213">
        <ele>191.8</ele>
        <time>2026-01-13T12:24:45Z</time>
      </trkpt>
      <trkpt lat="48.69284" lon="1.83215">
        <ele>191.8</ele>
        <time>2026-01-13T12:24:46Z</time>
      </trkpt>
      <trkpt lat="48.69279" lon="1.83218">
        <ele>191.8</ele>
        <time>2026-01-13T12:24:47Z</time>
      </trkpt>
      <trkpt lat="48.69274" lon="1.83223">
        <ele>192.4</ele>
        <time>2026-01-13T12:24:48Z</time>
      </trkpt>
      <trkpt lat="48.6927" lon="1.83228">
        <ele>192.4</ele>
        <time>2026-01-13T12:24:49Z</time>
      </trkpt>
      <trkpt lat="48.69267" lon="1.83235">
        <ele>192.4</ele>
        <time>2026-01-13T12:24:50Z</time>
      </trkpt>
      <trkpt lat="48.69264" lon="1.83242">
        <ele>192</ele>
        <time>2026-01-13T12:24:51Z</time>
      </trkpt>
      <trkpt lat="48.69261" lon="1.8325">
        <ele>191.8</ele>
        <time>2026-01-13T12:24:52Z</time>
      </trkpt>
      <trkpt lat="48.69259" lon="1.83258">
        <ele>191.8</ele>
        <time>2026-01-13T12:24:53Z</time>
      </trkpt>
      <trkpt lat="48.69256" lon="1.83266">
        <ele>191.4</ele>
        <time>2026-01-13T12:24:54Z</time>
      </trkpt>
      <trkpt lat="48.69253" lon="1.83274">
        <ele>191.4</ele>
        <time>2026-01-13T12:24:55Z</time>
      </trkpt>
      <trkpt lat="48.69251" lon="1.83281">
        <ele>191.4</ele>
        <time>2026-01-13T12:24:56Z</time>
      </trkpt>
      <trkpt lat="48.69248" lon="1.83289">
        <ele>192</ele>
        <time>2026-01-13T12:24:57Z</time>
      </trkpt>
      <trkpt lat="48.69246" lon="1.83297">
        <ele>192.6</ele>
        <time>2026-01-13T12:24:58Z</time>
      </trkpt>
      <trkpt lat="48.69243" lon="1.83305">
        <ele>192.6</ele>
        <time>2026-01-13T12:24:59Z</time>
      </trkpt>
      <trkpt lat="48.69241" lon="1.83313">
        <ele>192.6</ele>
        <time>2026-01-13T12:25:00Z</time>
      </trkpt>
      <trkpt lat="48.69239" lon="1.83321">
        <ele>192.4</ele>
        <time>2026-01-13T12:25:01Z</time>
      </trkpt>
      <trkpt lat="48.69236" lon="1.83329">
        <ele>192.4</ele>
        <time>2026-01-13T12:25:02Z</time>
      </trkpt>
      <trkpt lat="48.69234" lon="1.83337">
        <ele>192.4</ele>
        <time>2026-01-13T12:25:03Z</time>
      </trkpt>
      <trkpt lat="48.69232" lon="1.83346">
        <ele>192.4</ele>
        <time>2026-01-13T12:25:04Z</time>
      </trkpt>
      <trkpt lat="48.69229" lon="1.83354">
        <ele>192.4</ele>
        <time>2026-01-13T12:25:05Z</time>
      </trkpt>
      <trkpt lat="48.69226" lon="1.83362">
        <ele>192.4</ele>
        <time>2026-01-13T12:25:06Z</time>
      </trkpt>
      <trkpt lat="48.69224" lon="1.8337">
        <ele>192.4</ele>
        <time>2026-01-13T12:25:07Z</time>
      </trkpt>
      <trkpt lat="48.69222" lon="1.83378">
        <ele>192.4</ele>
        <time>2026-01-13T12:25:08Z</time>
      </trkpt>
      <trkpt lat="48.69219" lon="1.83387">
        <ele>192.4</ele>
        <time>2026-01-13T12:25:09Z</time>
      </trkpt>
      <trkpt lat="48.69217" lon="1.83395">
        <ele>192.4</ele>
        <time>2026-01-13T12:25:10Z</time>
      </trkpt>
      <trkpt lat="48.69215" lon="1.83403">
        <ele>192.4</ele>
        <time>2026-01-13T12:25:11Z</time>
      </trkpt>
      <trkpt lat="48.69212" lon="1.83412">
        <ele>192.4</ele>
        <time>2026-01-13T12:25:12Z</time>
      </trkpt>
      <trkpt lat="48.69211" lon="1.8342">
        <ele>192.2</ele>
        <time>2026-01-13T12:25:13Z</time>
      </trkpt>
      <trkpt lat="48.69208" lon="1.83429">
        <ele>192.2</ele>
        <time>2026-01-13T12:25:14Z</time>
      </trkpt>
      <trkpt lat="48.69206" lon="1.83437">
        <ele>192.2</ele>
        <time>2026-01-13T12:25:15Z</time>
      </trkpt>
      <trkpt lat="48.69204" lon="1.83445">
        <ele>192.2</ele>
        <time>2026-01-13T12:25:16Z</time>
      </trkpt>
      <trkpt lat="48.69201" lon="1.83454">
        <ele>192.2</ele>
        <time>2026-01-13T12:25:17Z</time>
      </trkpt>
      <trkpt lat="48.69199" lon="1.83462">
        <ele>192</ele>
        <time>2026-01-13T12:25:18Z</time>
      </trkpt>
      <trkpt lat="48.69196" lon="1.83471">
        <ele>192</ele>
        <time>2026-01-13T12:25:19Z</time>
      </trkpt>
      <trkpt lat="48.69194" lon="1.83479">
        <ele>191.8</ele>
        <time>2026-01-13T12:25:20Z</time>
      </trkpt>
      <trkpt lat="48.69191" lon="1.83487">
        <ele>191.2</ele>
        <time>2026-01-13T12:25:21Z</time>
      </trkpt>
      <trkpt lat="48.69189" lon="1.83495">
        <ele>190.6</ele>
        <time>2026-01-13T12:25:22Z</time>
      </trkpt>
      <trkpt lat="48.69186" lon="1.83503">
        <ele>190.6</ele>
        <time>2026-01-13T12:25:23Z</time>
      </trkpt>
      <trkpt lat="48.69184" lon="1.83511">
        <ele>190.6</ele>
        <time>2026-01-13T12:25:24Z</time>
      </trkpt>
      <trkpt lat="48.69181" lon="1.83519">
        <ele>191.2</ele>
        <time>2026-01-13T12:25:25Z</time>
      </trkpt>
      <trkpt lat="48.69178" lon="1.83526">
        <ele>191.6</ele>
        <time>2026-01-13T12:25:26Z</time>
      </trkpt>
      <trkpt lat="48.69175" lon="1.83534">
        <ele>191.6</ele>
        <time>2026-01-13T12:25:27Z</time>
      </trkpt>
      <trkpt lat="48.69171" lon="1.83541">
        <ele>191.6</ele>
        <time>2026-01-13T12:25:28Z</time>
      </trkpt>
      <trkpt lat="48.69168" lon="1.83548">
        <ele>191.2</ele>
        <time>2026-01-13T12:25:29Z</time>
      </trkpt>
      <trkpt lat="48.69165" lon="1.83555">
        <ele>191.2</ele>
        <time>2026-01-13T12:25:30Z</time>
      </trkpt>
      <trkpt lat="48.69161" lon="1.83561">
        <ele>191.2</ele>
        <time>2026-01-13T12:25:31Z</time>
      </trkpt>
      <trkpt lat="48.69157" lon="1.83568">
        <ele>192</ele>
        <time>2026-01-13T12:25:32Z</time>
      </trkpt>
      <trkpt lat="48.69153" lon="1.83574">
        <ele>192</ele>
        <time>2026-01-13T12:25:33Z</time>
      </trkpt>
      <trkpt lat="48.69149" lon="1.8358">
        <ele>192</ele>
        <time>2026-01-13T12:25:34Z</time>
      </trkpt>
      <trkpt lat="48.69145" lon="1.83586">
        <ele>191</ele>
        <time>2026-01-13T12:25:35Z</time>
      </trkpt>
      <trkpt lat="48.6914" lon="1.83592">
        <ele>191</ele>
        <time>2026-01-13T12:25:36Z</time>
      </trkpt>
      <trkpt lat="48.69136" lon="1.83598">
        <ele>191</ele>
        <time>2026-01-13T12:25:37Z</time>
      </trkpt>
      <trkpt lat="48.69131" lon="1.83604">
        <ele>191.2</ele>
        <time>2026-01-13T12:25:38Z</time>
      </trkpt>
      <trkpt lat="48.69127" lon="1.83609">
        <ele>191.2</ele>
        <time>2026-01-13T12:25:39Z</time>
      </trkpt>
      <trkpt lat="48.69122" lon="1.83615">
        <ele>191.2</ele>
        <time>2026-01-13T12:25:40Z</time>
      </trkpt>
      <trkpt lat="48.69118" lon="1.83621">
        <ele>191.2</ele>
        <time>2026-01-13T12:25:41Z</time>
      </trkpt>
      <trkpt lat="48.69113" lon="1.83626">
        <ele>191.2</ele>
        <time>2026-01-13T12:25:42Z</time>
      </trkpt>
      <trkpt lat="48.69109" lon="1.83631">
        <ele>190.2</ele>
        <time>2026-01-13T12:25:43Z</time>
      </trkpt>
      <trkpt lat="48.69104" lon="1.83637">
        <ele>189.2</ele>
        <time>2026-01-13T12:25:44Z</time>
      </trkpt>
      <trkpt lat="48.691" lon="1.83643">
        <ele>189.2</ele>
        <time>2026-01-13T12:25:45Z</time>
      </trkpt>
      <trkpt lat="48.69096" lon="1.83649">
        <ele>189.2</ele>
        <time>2026-01-13T12:25:46Z</time>
      </trkpt>
      <trkpt lat="48.69091" lon="1.83654">
        <ele>190.2</ele>
        <time>2026-01-13T12:25:47Z</time>
      </trkpt>
      <trkpt lat="48.69087" lon="1.8366">
        <ele>191.2</ele>
        <time>2026-01-13T12:25:48Z</time>
      </trkpt>
      <trkpt lat="48.69082" lon="1.83666">
        <ele>192</ele>
        <time>2026-01-13T12:25:49Z</time>
      </trkpt>
      <trkpt lat="48.69078" lon="1.83671">
        <ele>192.8</ele>
        <time>2026-01-13T12:25:50Z</time>
      </trkpt>
      <trkpt lat="48.69073" lon="1.83677">
        <ele>193</ele>
        <time>2026-01-13T12:25:51Z</time>
      </trkpt>
      <trkpt lat="48.69069" lon="1.83683">
        <ele>193</ele>
        <time>2026-01-13T12:25:52Z</time>
      </trkpt>
      <trkpt lat="48.69064" lon="1.8369">
        <ele>193</ele>
        <time>2026-01-13T12:25:53Z</time>
      </trkpt>
      <trkpt lat="48.6906" lon="1.83696">
        <ele>192</ele>
        <time>2026-01-13T12:25:54Z</time>
      </trkpt>
      <trkpt lat="48.69056" lon="1.83702">
        <ele>191.4</ele>
        <time>2026-01-13T12:25:55Z</time>
      </trkpt>
      <trkpt lat="48.69052" lon="1.83708">
        <ele>190.4</ele>
        <time>2026-01-13T12:25:56Z</time>
      </trkpt>
      <trkpt lat="48.69048" lon="1.83714">
        <ele>190.4</ele>
        <time>2026-01-13T12:25:57Z</time>
      </trkpt>
      <trkpt lat="48.69044" lon="1.8372">
        <ele>190.4</ele>
        <time>2026-01-13T12:25:58Z</time>
      </trkpt>
      <trkpt lat="48.6904" lon="1.83725">
        <ele>191.4</ele>
        <time>2026-01-13T12:25:59Z</time>
      </trkpt>
      <trkpt lat="48.69036" lon="1.83731">
        <ele>191.4</ele>
        <time>2026-01-13T12:26:00Z</time>
      </trkpt>
      <trkpt lat="48.69032" lon="1.83737">
        <ele>191.4</ele>
        <time>2026-01-13T12:26:01Z</time>
      </trkpt>
      <trkpt lat="48.69028" lon="1.83743">
        <ele>191.4</ele>
        <time>2026-01-13T12:26:02Z</time>
      </trkpt>
      <trkpt lat="48.69024" lon="1.83749">
        <ele>191.4</ele>
        <time>2026-01-13T12:26:03Z</time>
      </trkpt>
      <trkpt lat="48.6902" lon="1.83755">
        <ele>190.4</ele>
        <time>2026-01-13T12:26:04Z</time>
      </trkpt>
      <trkpt lat="48.69016" lon="1.83761">
        <ele>190.4</ele>
        <time>2026-01-13T12:26:05Z</time>
      </trkpt>
      <trkpt lat="48.69012" lon="1.83767">
        <ele>190.4</ele>
        <time>2026-01-13T12:26:06Z</time>
      </trkpt>
      <trkpt lat="48.69008" lon="1.83773">
        <ele>191.2</ele>
        <time>2026-01-13T12:26:07Z</time>
      </trkpt>
      <trkpt lat="48.69005" lon="1.83779">
        <ele>191.6</ele>
        <time>2026-01-13T12:26:08Z</time>
      </trkpt>
      <trkpt lat="48.69001" lon="1.83785">
        <ele>191.6</ele>
        <time>2026-01-13T12:26:09Z</time>
      </trkpt>
      <trkpt lat="48.68997" lon="1.83791">
        <ele>191.6</ele>
        <time>2026-01-13T12:26:10Z</time>
      </trkpt>
      <trkpt lat="48.68993" lon="1.83797">
        <ele>191.6</ele>
        <time>2026-01-13T12:26:11Z</time>
      </trkpt>
      <trkpt lat="48.6899" lon="1.83804">
        <ele>191.6</ele>
        <time>2026-01-13T12:26:12Z</time>
      </trkpt>
      <trkpt lat="48.68987" lon="1.8381">
        <ele>191.6</ele>
        <time>2026-01-13T12:26:13Z</time>
      </trkpt>
      <trkpt lat="48.68984" lon="1.83816">
        <ele>191.6</ele>
        <time>2026-01-13T12:26:14Z</time>
      </trkpt>
      <trkpt lat="48.68981" lon="1.83822">
        <ele>191.4</ele>
        <time>2026-01-13T12:26:15Z</time>
      </trkpt>
      <trkpt lat="48.68977" lon="1.83828">
        <ele>191.4</ele>
        <time>2026-01-13T12:26:16Z</time>
      </trkpt>
      <trkpt lat="48.68974" lon="1.83835">
        <ele>191.4</ele>
        <time>2026-01-13T12:26:17Z</time>
      </trkpt>
      <trkpt lat="48.68972" lon="1.83841">
        <ele>191.4</ele>
        <time>2026-01-13T12:26:18Z</time>
      </trkpt>
      <trkpt lat="48.68969" lon="1.83847">
        <ele>191.4</ele>
        <time>2026-01-13T12:26:19Z</time>
      </trkpt>
      <trkpt lat="48.68966" lon="1.83852">
        <ele>192.4</ele>
        <time>2026-01-13T12:26:20Z</time>
      </trkpt>
      <trkpt lat="48.68963" lon="1.83858">
        <ele>193.2</ele>
        <time>2026-01-13T12:26:21Z</time>
      </trkpt>
      <trkpt lat="48.6896" lon="1.83865">
        <ele>193.2</ele>
        <time>2026-01-13T12:26:22Z</time>
      </trkpt>
      <trkpt lat="48.68957" lon="1.83871">
        <ele>193.2</ele>
        <time>2026-01-13T12:26:23Z</time>
      </trkpt>
      <trkpt lat="48.68953" lon="1.83876">
        <ele>193.2</ele>
        <time>2026-01-13T12:26:24Z</time>
      </trkpt>
      <trkpt lat="48.6895" lon="1.83882">
        <ele>193.2</ele>
        <time>2026-01-13T12:26:25Z</time>
      </trkpt>
      <trkpt lat="48.68947" lon="1.83888">
        <ele>192.2</ele>
        <time>2026-01-13T12:26:26Z</time>
      </trkpt>
      <trkpt lat="48.68943" lon="1.83894">
        <ele>192.2</ele>
        <time>2026-01-13T12:26:27Z</time>
      </trkpt>
      <trkpt lat="48.6894" lon="1.839">
        <ele>192.2</ele>
        <time>2026-01-13T12:26:28Z</time>
      </trkpt>
      <trkpt lat="48.68936" lon="1.83906">
        <ele>192.8</ele>
        <time>2026-01-13T12:26:29Z</time>
      </trkpt>
      <trkpt lat="48.68933" lon="1.83912">
        <ele>192.8</ele>
        <time>2026-01-13T12:26:30Z</time>
      </trkpt>
      <trkpt lat="48.68929" lon="1.83917">
        <ele>192.8</ele>
        <time>2026-01-13T12:26:31Z</time>
      </trkpt>
      <trkpt lat="48.68926" lon="1.83923">
        <ele>191.8</ele>
        <time>2026-01-13T12:26:32Z</time>
      </trkpt>
      <trkpt lat="48.68922" lon="1.83929">
        <ele>191.8</ele>
        <time>2026-01-13T12:26:33Z</time>
      </trkpt>
      <trkpt lat="48.68919" lon="1.83934">
        <ele>191.8</ele>
        <time>2026-01-13T12:26:34Z</time>
      </trkpt>
      <trkpt lat="48.68915" lon="1.8394">
        <ele>192.4</ele>
        <time>2026-01-13T12:26:35Z</time>
      </trkpt>
      <trkpt lat="48.68911" lon="1.83945">
        <ele>192.4</ele>
        <time>2026-01-13T12:26:36Z</time>
      </trkpt>
      <trkpt lat="48.68908" lon="1.83951">
        <ele>192.4</ele>
        <time>2026-01-13T12:26:37Z</time>
      </trkpt>
      <trkpt lat="48.68904" lon="1.83956">
        <ele>192.4</ele>
        <time>2026-01-13T12:26:38Z</time>
      </trkpt>
      <trkpt lat="48.689" lon="1.83962">
        <ele>192.4</ele>
        <time>2026-01-13T12:26:39Z</time>
      </trkpt>
      <trkpt lat="48.68897" lon="1.83966">
        <ele>192.4</ele>
        <time>2026-01-13T12:26:40Z</time>
      </trkpt>
      <trkpt lat="48.68893" lon="1.83971">
        <ele>191.8</ele>
        <time>2026-01-13T12:26:41Z</time>
      </trkpt>
      <trkpt lat="48.6889" lon="1.83976">
        <ele>191.8</ele>
        <time>2026-01-13T12:26:42Z</time>
      </trkpt>
      <trkpt lat="48.68887" lon="1.8398">
        <ele>191.8</ele>
        <time>2026-01-13T12:26:43Z</time>
      </trkpt>
      <trkpt lat="48.68884" lon="1.83985">
        <ele>192.2</ele>
        <time>2026-01-13T12:26:44Z</time>
      </trkpt>
      <trkpt lat="48.68881" lon="1.83989">
        <ele>192.2</ele>
        <time>2026-01-13T12:26:45Z</time>
      </trkpt>
      <trkpt lat="48.68878" lon="1.83992">
        <ele>192.2</ele>
        <time>2026-01-13T12:26:46Z</time>
      </trkpt>
      <trkpt lat="48.68876" lon="1.83996">
        <ele>192.2</ele>
        <time>2026-01-13T12:26:47Z</time>
      </trkpt>
      <trkpt lat="48.68874" lon="1.83999">
        <ele>192.2</ele>
        <time>2026-01-13T12:26:48Z</time>
      </trkpt>
      <trkpt lat="48.68872" lon="1.84003">
        <ele>193</ele>
        <time>2026-01-13T12:26:49Z</time>
      </trkpt>
      <trkpt lat="48.68869" lon="1.84007">
        <ele>193.4</ele>
        <time>2026-01-13T12:26:50Z</time>
      </trkpt>
      <trkpt lat="48.68866" lon="1.84011">
        <ele>193.4</ele>
        <time>2026-01-13T12:26:51Z</time>
      </trkpt>
      <trkpt lat="48.68863" lon="1.84016">
        <ele>193.4</ele>
        <time>2026-01-13T12:26:52Z</time>
      </trkpt>
      <trkpt lat="48.68859" lon="1.84022">
        <ele>193.4</ele>
        <time>2026-01-13T12:26:53Z</time>
      </trkpt>
      <trkpt lat="48.68856" lon="1.84028">
        <ele>193.6</ele>
        <time>2026-01-13T12:26:54Z</time>
      </trkpt>
      <trkpt lat="48.68853" lon="1.84034">
        <ele>193.6</ele>
        <time>2026-01-13T12:26:55Z</time>
      </trkpt>
      <trkpt lat="48.68851" lon="1.8404">
        <ele>193.6</ele>
        <time>2026-01-13T12:26:56Z</time>
      </trkpt>
      <trkpt lat="48.68848" lon="1.84045">
        <ele>193.6</ele>
        <time>2026-01-13T12:26:57Z</time>
      </trkpt>
      <trkpt lat="48.68845" lon="1.84051">
        <ele>192.6</ele>
        <time>2026-01-13T12:26:58Z</time>
      </trkpt>
      <trkpt lat="48.68842" lon="1.84057">
        <ele>192.4</ele>
        <time>2026-01-13T12:26:59Z</time>
      </trkpt>
      <trkpt lat="48.68839" lon="1.84063">
        <ele>192.2</ele>
        <time>2026-01-13T12:27:00Z</time>
      </trkpt>
      <trkpt lat="48.68836" lon="1.84069">
        <ele>192.2</ele>
        <time>2026-01-13T12:27:01Z</time>
      </trkpt>
      <trkpt lat="48.68833" lon="1.84075">
        <ele>192</ele>
        <time>2026-01-13T12:27:02Z</time>
      </trkpt>
      <trkpt lat="48.6883" lon="1.84081">
        <ele>192</ele>
        <time>2026-01-13T12:27:03Z</time>
      </trkpt>
      <trkpt lat="48.68827" lon="1.84087">
        <ele>192</ele>
        <time>2026-01-13T12:27:04Z</time>
      </trkpt>
      <trkpt lat="48.68823" lon="1.84093">
        <ele>193</ele>
        <time>2026-01-13T12:27:05Z</time>
      </trkpt>
      <trkpt lat="48.6882" lon="1.841">
        <ele>193.6</ele>
        <time>2026-01-13T12:27:06Z</time>
      </trkpt>
      <trkpt lat="48.68816" lon="1.84107">
        <ele>193.6</ele>
        <time>2026-01-13T12:27:07Z</time>
      </trkpt>
      <trkpt lat="48.68813" lon="1.84113">
        <ele>193.6</ele>
        <time>2026-01-13T12:27:08Z</time>
      </trkpt>
      <trkpt lat="48.68811" lon="1.8412">
        <ele>192.8</ele>
        <time>2026-01-13T12:27:09Z</time>
      </trkpt>
      <trkpt lat="48.68807" lon="1.84126">
        <ele>192.4</ele>
        <time>2026-01-13T12:27:10Z</time>
      </trkpt>
      <trkpt lat="48.68804" lon="1.84133">
        <ele>192.4</ele>
        <time>2026-01-13T12:27:11Z</time>
      </trkpt>
      <trkpt lat="48.68801" lon="1.8414">
        <ele>192.4</ele>
        <time>2026-01-13T12:27:12Z</time>
      </trkpt>
      <trkpt lat="48.68797" lon="1.84146">
        <ele>192.4</ele>
        <time>2026-01-13T12:27:13Z</time>
      </trkpt>
      <trkpt lat="48.68794" lon="1.84153">
        <ele>193</ele>
        <time>2026-01-13T12:27:14Z</time>
      </trkpt>
      <trkpt lat="48.6879" lon="1.8416">
        <ele>193.2</ele>
        <time>2026-01-13T12:27:15Z</time>
      </trkpt>
      <trkpt lat="48.68787" lon="1.84167">
        <ele>193.6</ele>
        <time>2026-01-13T12:27:16Z</time>
      </trkpt>
      <trkpt lat="48.68783" lon="1.84174">
        <ele>193.6</ele>
        <time>2026-01-13T12:27:17Z</time>
      </trkpt>
      <trkpt lat="48.6878" lon="1.84181">
        <ele>193.6</ele>
        <time>2026-01-13T12:27:18Z</time>
      </trkpt>
      <trkpt lat="48.68776" lon="1.84188">
        <ele>193</ele>
        <time>2026-01-13T12:27:19Z</time>
      </trkpt>
      <trkpt lat="48.68772" lon="1.84195">
        <ele>192</ele>
        <time>2026-01-13T12:27:20Z</time>
      </trkpt>
      <trkpt lat="48.68769" lon="1.84202">
        <ele>192</ele>
        <time>2026-01-13T12:27:21Z</time>
      </trkpt>
      <trkpt lat="48.68765" lon="1.84208">
        <ele>192</ele>
        <time>2026-01-13T12:27:22Z</time>
      </trkpt>
      <trkpt lat="48.68761" lon="1.84214">
        <ele>192</ele>
        <time>2026-01-13T12:27:23Z</time>
      </trkpt>
      <trkpt lat="48.68757" lon="1.8422">
        <ele>192</ele>
        <time>2026-01-13T12:27:24Z</time>
      </trkpt>
      <trkpt lat="48.68754" lon="1.84226">
        <ele>192</ele>
        <time>2026-01-13T12:27:25Z</time>
      </trkpt>
      <trkpt lat="48.6875" lon="1.84232">
        <ele>192</ele>
        <time>2026-01-13T12:27:26Z</time>
      </trkpt>
      <trkpt lat="48.68747" lon="1.84235">
        <ele>192.4</ele>
        <time>2026-01-13T12:27:27Z</time>
      </trkpt>
      <trkpt lat="48.68743" lon="1.84239">
        <ele>192.8</ele>
        <time>2026-01-13T12:27:28Z</time>
      </trkpt>
      <trkpt lat="48.68735" lon="1.84242">
        <ele>192.8</ele>
        <time>2026-01-13T12:27:29Z</time>
      </trkpt>
      <trkpt lat="48.68731" lon="1.84243">
        <ele>192.8</ele>
        <time>2026-01-13T12:27:30Z</time>
      </trkpt>
      <trkpt lat="48.6873" lon="1.84247">
        <ele>191.8</ele>
        <time>2026-01-13T12:27:31Z</time>
      </trkpt>
      <trkpt lat="48.68727" lon="1.8425">
        <ele>191.6</ele>
        <time>2026-01-13T12:27:32Z</time>
      </trkpt>
      <trkpt lat="48.68723" lon="1.84257">
        <ele>191.4</ele>
        <time>2026-01-13T12:27:33Z</time>
      </trkpt>
      <trkpt lat="48.68719" lon="1.84264">
        <ele>191</ele>
        <time>2026-01-13T12:27:34Z</time>
      </trkpt>
      <trkpt lat="48.68716" lon="1.84275">
        <ele>191</ele>
        <time>2026-01-13T12:27:35Z</time>
      </trkpt>
      <trkpt lat="48.68713" lon="1.84284">
        <ele>191</ele>
        <time>2026-01-13T12:27:36Z</time>
      </trkpt>
      <trkpt lat="48.6871" lon="1.84292">
        <ele>192</ele>
        <time>2026-01-13T12:27:37Z</time>
      </trkpt>
      <trkpt lat="48.68707" lon="1.84301">
        <ele>192</ele>
        <time>2026-01-13T12:27:38Z</time>
      </trkpt>
      <trkpt lat="48.68703" lon="1.8431">
        <ele>192</ele>
        <time>2026-01-13T12:27:39Z</time>
      </trkpt>
      <trkpt lat="48.687" lon="1.84318">
        <ele>192</ele>
        <time>2026-01-13T12:27:40Z</time>
      </trkpt>
      <trkpt lat="48.68696" lon="1.84328">
        <ele>191</ele>
        <time>2026-01-13T12:27:41Z</time>
      </trkpt>
      <trkpt lat="48.68693" lon="1.84336">
        <ele>191</ele>
        <time>2026-01-13T12:27:42Z</time>
      </trkpt>
      <trkpt lat="48.68689" lon="1.84344">
        <ele>191</ele>
        <time>2026-01-13T12:27:43Z</time>
      </trkpt>
      <trkpt lat="48.68686" lon="1.84353">
        <ele>192</ele>
        <time>2026-01-13T12:27:44Z</time>
      </trkpt>
      <trkpt lat="48.68682" lon="1.84361">
        <ele>192</ele>
        <time>2026-01-13T12:27:45Z</time>
      </trkpt>
      <trkpt lat="48.68679" lon="1.84368">
        <ele>192</ele>
        <time>2026-01-13T12:27:46Z</time>
      </trkpt>
      <trkpt lat="48.68675" lon="1.84376">
        <ele>191</ele>
        <time>2026-01-13T12:27:47Z</time>
      </trkpt>
      <trkpt lat="48.68672" lon="1.84384">
        <ele>190.2</ele>
        <time>2026-01-13T12:27:48Z</time>
      </trkpt>
      <trkpt lat="48.68668" lon="1.84392">
        <ele>190.2</ele>
        <time>2026-01-13T12:27:49Z</time>
      </trkpt>
      <trkpt lat="48.68664" lon="1.84401">
        <ele>190.2</ele>
        <time>2026-01-13T12:27:50Z</time>
      </trkpt>
      <trkpt lat="48.6866" lon="1.84409">
        <ele>190.2</ele>
        <time>2026-01-13T12:27:51Z</time>
      </trkpt>
      <trkpt lat="48.68657" lon="1.84417">
        <ele>190.2</ele>
        <time>2026-01-13T12:27:52Z</time>
      </trkpt>
      <trkpt lat="48.68653" lon="1.84424">
        <ele>190.2</ele>
        <time>2026-01-13T12:27:53Z</time>
      </trkpt>
      <trkpt lat="48.68649" lon="1.84432">
        <ele>191.2</ele>
        <time>2026-01-13T12:27:54Z</time>
      </trkpt>
      <trkpt lat="48.68646" lon="1.8444">
        <ele>192</ele>
        <time>2026-01-13T12:27:55Z</time>
      </trkpt>
      <trkpt lat="48.68643" lon="1.84447">
        <ele>192</ele>
        <time>2026-01-13T12:27:56Z</time>
      </trkpt>
      <trkpt lat="48.68639" lon="1.84455">
        <ele>192</ele>
        <time>2026-01-13T12:27:57Z</time>
      </trkpt>
      <trkpt lat="48.68636" lon="1.84462">
        <ele>191</ele>
        <time>2026-01-13T12:27:58Z</time>
      </trkpt>
      <trkpt lat="48.68632" lon="1.8447">
        <ele>190.4</ele>
        <time>2026-01-13T12:27:59Z</time>
      </trkpt>
      <trkpt lat="48.68629" lon="1.84476">
        <ele>190</ele>
        <time>2026-01-13T12:28:00Z</time>
      </trkpt>
      <trkpt lat="48.68625" lon="1.84484">
        <ele>190</ele>
        <time>2026-01-13T12:28:01Z</time>
      </trkpt>
      <trkpt lat="48.68622" lon="1.8449">
        <ele>190</ele>
        <time>2026-01-13T12:28:02Z</time>
      </trkpt>
      <trkpt lat="48.68619" lon="1.84498">
        <ele>190</ele>
        <time>2026-01-13T12:28:03Z</time>
      </trkpt>
      <trkpt lat="48.68616" lon="1.84505">
        <ele>189</ele>
        <time>2026-01-13T12:28:04Z</time>
      </trkpt>
      <trkpt lat="48.68612" lon="1.84511">
        <ele>189</ele>
        <time>2026-01-13T12:28:05Z</time>
      </trkpt>
      <trkpt lat="48.68609" lon="1.84518">
        <ele>189</ele>
        <time>2026-01-13T12:28:06Z</time>
      </trkpt>
      <trkpt lat="48.68605" lon="1.84524">
        <ele>190</ele>
        <time>2026-01-13T12:28:07Z</time>
      </trkpt>
      <trkpt lat="48.68602" lon="1.84532">
        <ele>190.4</ele>
        <time>2026-01-13T12:28:08Z</time>
      </trkpt>
      <trkpt lat="48.68599" lon="1.8454">
        <ele>191</ele>
        <time>2026-01-13T12:28:09Z</time>
      </trkpt>
      <trkpt lat="48.68595" lon="1.84546">
        <ele>191</ele>
        <time>2026-01-13T12:28:10Z</time>
      </trkpt>
      <trkpt lat="48.68591" lon="1.84553">
        <ele>191</ele>
        <time>2026-01-13T12:28:11Z</time>
      </trkpt>
      <trkpt lat="48.68587" lon="1.84559">
        <ele>191</ele>
        <time>2026-01-13T12:28:12Z</time>
      </trkpt>
      <trkpt lat="48.68584" lon="1.84566">
        <ele>190</ele>
        <time>2026-01-13T12:28:13Z</time>
      </trkpt>
      <trkpt lat="48.68581" lon="1.84573">
        <ele>190</ele>
        <time>2026-01-13T12:28:14Z</time>
      </trkpt>
      <trkpt lat="48.68577" lon="1.84579">
        <ele>190</ele>
        <time>2026-01-13T12:28:15Z</time>
      </trkpt>
      <trkpt lat="48.68574" lon="1.84585">
        <ele>190</ele>
        <time>2026-01-13T12:28:16Z</time>
      </trkpt>
      <trkpt lat="48.68571" lon="1.84591">
        <ele>190</ele>
        <time>2026-01-13T12:28:17Z</time>
      </trkpt>
      <trkpt lat="48.68568" lon="1.84598">
        <ele>190</ele>
        <time>2026-01-13T12:28:18Z</time>
      </trkpt>
      <trkpt lat="48.68565" lon="1.84604">
        <ele>190</ele>
        <time>2026-01-13T12:28:19Z</time>
      </trkpt>
      <trkpt lat="48.68562" lon="1.84611">
        <ele>190</ele>
        <time>2026-01-13T12:28:20Z</time>
      </trkpt>
      <trkpt lat="48.68559" lon="1.84617">
        <ele>190</ele>
        <time>2026-01-13T12:28:21Z</time>
      </trkpt>
      <trkpt lat="48.68556" lon="1.84623">
        <ele>190</ele>
        <time>2026-01-13T12:28:22Z</time>
      </trkpt>
      <trkpt lat="48.68553" lon="1.84629">
        <ele>189.6</ele>
        <time>2026-01-13T12:28:23Z</time>
      </trkpt>
      <trkpt lat="48.6855" lon="1.84635">
        <ele>189.6</ele>
        <time>2026-01-13T12:28:24Z</time>
      </trkpt>
      <trkpt lat="48.68548" lon="1.84639">
        <ele>189.6</ele>
        <time>2026-01-13T12:28:25Z</time>
      </trkpt>
      <trkpt lat="48.68546" lon="1.84642">
        <ele>189.6</ele>
        <time>2026-01-13T12:28:26Z</time>
      </trkpt>
      <trkpt lat="48.68544" lon="1.84645">
        <ele>190.6</ele>
        <time>2026-01-13T12:28:27Z</time>
      </trkpt>
      <trkpt lat="48.68544" lon="1.84646">
        <ele>191.6</ele>
        <time>2026-01-13T12:28:28Z</time>
      </trkpt>
      <trkpt lat="48.68544" lon="1.84646">
        <ele>192</ele>
        <time>2026-01-13T12:28:29Z</time>
      </trkpt>
      <trkpt lat="48.68544" lon="1.84646">
        <ele>192</ele>
        <time>2026-01-13T12:28:30Z</time>
      </trkpt>
      <trkpt lat="48.68544" lon="1.84646">
        <ele>192</ele>
        <time>2026-01-13T12:28:31Z</time>
      </trkpt>
      <trkpt lat="48.6854" lon="1.84644">
        <ele>191</ele>
        <time>2026-01-13T12:29:08Z</time>
      </trkpt>
      <trkpt lat="48.6854" lon="1.84641">
        <ele>191</ele>
        <time>2026-01-13T12:29:09Z</time>
      </trkpt>
      <trkpt lat="48.68539" lon="1.84638">
        <ele>191</ele>
        <time>2026-01-13T12:29:10Z</time>
      </trkpt>
      <trkpt lat="48.68538" lon="1.84635">
        <ele>191</ele>
        <time>2026-01-13T12:29:11Z</time>
      </trkpt>
      <trkpt lat="48.68536" lon="1.84632">
        <ele>190.2</ele>
        <time>2026-01-13T12:29:12Z</time>
      </trkpt>
      <trkpt lat="48.68534" lon="1.84629">
        <ele>189.8</ele>
        <time>2026-01-13T12:29:13Z</time>
      </trkpt>
      <trkpt lat="48.68533" lon="1.84625">
        <ele>189.8</ele>
        <time>2026-01-13T12:29:14Z</time>
      </trkpt>
      <trkpt lat="48.68531" lon="1.84622">
        <ele>189.8</ele>
        <time>2026-01-13T12:29:15Z</time>
      </trkpt>
      <trkpt lat="48.68529" lon="1.84618">
        <ele>190.8</ele>
        <time>2026-01-13T12:29:16Z</time>
      </trkpt>
      <trkpt lat="48.68527" lon="1.84614">
        <ele>191.8</ele>
        <time>2026-01-13T12:29:17Z</time>
      </trkpt>
      <trkpt lat="48.68525" lon="1.84609">
        <ele>191.8</ele>
        <time>2026-01-13T12:29:18Z</time>
      </trkpt>
      <trkpt lat="48.68522" lon="1.84605">
        <ele>191.8</ele>
        <time>2026-01-13T12:29:19Z</time>
      </trkpt>
      <trkpt lat="48.6852" lon="1.846">
        <ele>191.2</ele>
        <time>2026-01-13T12:29:20Z</time>
      </trkpt>
      <trkpt lat="48.68517" lon="1.84595">
        <ele>190.2</ele>
        <time>2026-01-13T12:29:21Z</time>
      </trkpt>
      <trkpt lat="48.68515" lon="1.8459">
        <ele>190.2</ele>
        <time>2026-01-13T12:29:22Z</time>
      </trkpt>
      <trkpt lat="48.68512" lon="1.84586">
        <ele>190.2</ele>
        <time>2026-01-13T12:29:23Z</time>
      </trkpt>
      <trkpt lat="48.68509" lon="1.8458">
        <ele>190.2</ele>
        <time>2026-01-13T12:29:24Z</time>
      </trkpt>
      <trkpt lat="48.68506" lon="1.84575">
        <ele>190.2</ele>
        <time>2026-01-13T12:29:25Z</time>
      </trkpt>
      <trkpt lat="48.68503" lon="1.8457">
        <ele>190.2</ele>
        <time>2026-01-13T12:29:26Z</time>
      </trkpt>
      <trkpt lat="48.68501" lon="1.84565">
        <ele>190.2</ele>
        <time>2026-01-13T12:29:27Z</time>
      </trkpt>
      <trkpt lat="48.68498" lon="1.8456">
        <ele>190.2</ele>
        <time>2026-01-13T12:29:28Z</time>
      </trkpt>
      <trkpt lat="48.68495" lon="1.84554">
        <ele>190.8</ele>
        <time>2026-01-13T12:29:29Z</time>
      </trkpt>
      <trkpt lat="48.68492" lon="1.84549">
        <ele>190.8</ele>
        <time>2026-01-13T12:29:30Z</time>
      </trkpt>
      <trkpt lat="48.68489" lon="1.84543">
        <ele>190.8</ele>
        <time>2026-01-13T12:29:31Z</time>
      </trkpt>
      <trkpt lat="48.68485" lon="1.84538">
        <ele>190.8</ele>
        <time>2026-01-13T12:29:32Z</time>
      </trkpt>
      <trkpt lat="48.68482" lon="1.84533">
        <ele>190.8</ele>
        <time>2026-01-13T12:29:33Z</time>
      </trkpt>
      <trkpt lat="48.68478" lon="1.84527">
        <ele>190.8</ele>
        <time>2026-01-13T12:29:34Z</time>
      </trkpt>
      <trkpt lat="48.68475" lon="1.84522">
        <ele>190.8</ele>
        <time>2026-01-13T12:29:35Z</time>
      </trkpt>
      <trkpt lat="48.68471" lon="1.84517">
        <ele>189.8</ele>
        <time>2026-01-13T12:29:36Z</time>
      </trkpt>
      <trkpt lat="48.68467" lon="1.84511">
        <ele>189.8</ele>
        <time>2026-01-13T12:29:37Z</time>
      </trkpt>
      <trkpt lat="48.68463" lon="1.84506">
        <ele>189.8</ele>
        <time>2026-01-13T12:29:38Z</time>
      </trkpt>
      <trkpt lat="48.6846" lon="1.84501">
        <ele>190.6</ele>
        <time>2026-01-13T12:29:39Z</time>
      </trkpt>
      <trkpt lat="48.68456" lon="1.84496">
        <ele>190.8</ele>
        <time>2026-01-13T12:29:40Z</time>
      </trkpt>
      <trkpt lat="48.68452" lon="1.84491">
        <ele>191.4</ele>
        <time>2026-01-13T12:29:41Z</time>
      </trkpt>
      <trkpt lat="48.68448" lon="1.84487">
        <ele>191.4</ele>
        <time>2026-01-13T12:29:42Z</time>
      </trkpt>
      <trkpt lat="48.68443" lon="1.84483">
        <ele>191.4</ele>
        <time>2026-01-13T12:29:43Z</time>
      </trkpt>
      <trkpt lat="48.68439" lon="1.84479">
        <ele>191.4</ele>
        <time>2026-01-13T12:29:44Z</time>
      </trkpt>
      <trkpt lat="48.68435" lon="1.84475">
        <ele>191.4</ele>
        <time>2026-01-13T12:29:45Z</time>
      </trkpt>
      <trkpt lat="48.68431" lon="1.8447">
        <ele>191.4</ele>
        <time>2026-01-13T12:29:46Z</time>
      </trkpt>
      <trkpt lat="48.68427" lon="1.84466">
        <ele>191.4</ele>
        <time>2026-01-13T12:29:47Z</time>
      </trkpt>
      <trkpt lat="48.68423" lon="1.84462">
        <ele>191.4</ele>
        <time>2026-01-13T12:29:48Z</time>
      </trkpt>
      <trkpt lat="48.68419" lon="1.84457">
        <ele>192.4</ele>
        <time>2026-01-13T12:29:49Z</time>
      </trkpt>
      <trkpt lat="48.68415" lon="1.84452">
        <ele>192.4</ele>
        <time>2026-01-13T12:29:50Z</time>
      </trkpt>
      <trkpt lat="48.68411" lon="1.84447">
        <ele>192.4</ele>
        <time>2026-01-13T12:29:51Z</time>
      </trkpt>
      <trkpt lat="48.68407" lon="1.84444">
        <ele>191.4</ele>
        <time>2026-01-13T12:29:52Z</time>
      </trkpt>
      <trkpt lat="48.68403" lon="1.8444">
        <ele>191.4</ele>
        <time>2026-01-13T12:29:53Z</time>
      </trkpt>
      <trkpt lat="48.68399" lon="1.84435">
        <ele>191.4</ele>
        <time>2026-01-13T12:29:54Z</time>
      </trkpt>
      <trkpt lat="48.68395" lon="1.8443">
        <ele>191.6</ele>
        <time>2026-01-13T12:29:55Z</time>
      </trkpt>
      <trkpt lat="48.6839" lon="1.84425">
        <ele>191.6</ele>
        <time>2026-01-13T12:29:56Z</time>
      </trkpt>
      <trkpt lat="48.68386" lon="1.8442">
        <ele>191.6</ele>
        <time>2026-01-13T12:29:57Z</time>
      </trkpt>
      <trkpt lat="48.68383" lon="1.84415">
        <ele>190.6</ele>
        <time>2026-01-13T12:29:58Z</time>
      </trkpt>
      <trkpt lat="48.68379" lon="1.84409">
        <ele>190.2</ele>
        <time>2026-01-13T12:29:59Z</time>
      </trkpt>
      <trkpt lat="48.68376" lon="1.84403">
        <ele>190.2</ele>
        <time>2026-01-13T12:30:00Z</time>
      </trkpt>
      <trkpt lat="48.68372" lon="1.84398">
        <ele>190.2</ele>
        <time>2026-01-13T12:30:01Z</time>
      </trkpt>
      <trkpt lat="48.68368" lon="1.84394">
        <ele>190.4</ele>
        <time>2026-01-13T12:30:02Z</time>
      </trkpt>
      <trkpt lat="48.68363" lon="1.84389">
        <ele>190.4</ele>
        <time>2026-01-13T12:30:03Z</time>
      </trkpt>
      <trkpt lat="48.68359" lon="1.84385">
        <ele>190.4</ele>
        <time>2026-01-13T12:30:04Z</time>
      </trkpt>
      <trkpt lat="48.68355" lon="1.8438">
        <ele>190.4</ele>
        <time>2026-01-13T12:30:05Z</time>
      </trkpt>
      <trkpt lat="48.68351" lon="1.84376">
        <ele>190.4</ele>
        <time>2026-01-13T12:30:06Z</time>
      </trkpt>
      <trkpt lat="48.68347" lon="1.84371">
        <ele>190.4</ele>
        <time>2026-01-13T12:30:07Z</time>
      </trkpt>
      <trkpt lat="48.68342" lon="1.84367">
        <ele>190.4</ele>
        <time>2026-01-13T12:30:08Z</time>
      </trkpt>
      <trkpt lat="48.68338" lon="1.84363">
        <ele>189.6</ele>
        <time>2026-01-13T12:30:09Z</time>
      </trkpt>
      <trkpt lat="48.68334" lon="1.84359">
        <ele>189.6</ele>
        <time>2026-01-13T12:30:10Z</time>
      </trkpt>
      <trkpt lat="48.6833" lon="1.84354">
        <ele>189.6</ele>
        <time>2026-01-13T12:30:11Z</time>
      </trkpt>
      <trkpt lat="48.68326" lon="1.8435">
        <ele>189.6</ele>
        <time>2026-01-13T12:30:12Z</time>
      </trkpt>
      <trkpt lat="48.68322" lon="1.84346">
        <ele>189.6</ele>
        <time>2026-01-13T12:30:13Z</time>
      </trkpt>
      <trkpt lat="48.68318" lon="1.84341">
        <ele>189.6</ele>
        <time>2026-01-13T12:30:14Z</time>
      </trkpt>
      <trkpt lat="48.68314" lon="1.84337">
        <ele>189.6</ele>
        <time>2026-01-13T12:30:15Z</time>
      </trkpt>
      <trkpt lat="48.6831" lon="1.84333">
        <ele>189.6</ele>
        <time>2026-01-13T12:30:16Z</time>
      </trkpt>
      <trkpt lat="48.68306" lon="1.84329">
        <ele>188.6</ele>
        <time>2026-01-13T12:30:17Z</time>
      </trkpt>
      <trkpt lat="48.68302" lon="1.84325">
        <ele>188.6</ele>
        <time>2026-01-13T12:30:18Z</time>
      </trkpt>
      <trkpt lat="48.68298" lon="1.84322">
        <ele>188.6</ele>
        <time>2026-01-13T12:30:19Z</time>
      </trkpt>
      <trkpt lat="48.68294" lon="1.84318">
        <ele>189.6</ele>
        <time>2026-01-13T12:30:20Z</time>
      </trkpt>
      <trkpt lat="48.6829" lon="1.84314">
        <ele>190.4</ele>
        <time>2026-01-13T12:30:21Z</time>
      </trkpt>
      <trkpt lat="48.68287" lon="1.8431">
        <ele>190.4</ele>
        <time>2026-01-13T12:30:22Z</time>
      </trkpt>
      <trkpt lat="48.68283" lon="1.84306">
        <ele>190.4</ele>
        <time>2026-01-13T12:30:23Z</time>
      </trkpt>
      <trkpt lat="48.68279" lon="1.84302">
        <ele>189.4</ele>
        <time>2026-01-13T12:30:24Z</time>
      </trkpt>
      <trkpt lat="48.68275" lon="1.84298">
        <ele>189.4</ele>
        <time>2026-01-13T12:30:25Z</time>
      </trkpt>
      <trkpt lat="48.68272" lon="1.84294">
        <ele>189.4</ele>
        <time>2026-01-13T12:30:26Z</time>
      </trkpt>
      <trkpt lat="48.68268" lon="1.8429">
        <ele>190.4</ele>
        <time>2026-01-13T12:30:27Z</time>
      </trkpt>
      <trkpt lat="48.68264" lon="1.84286">
        <ele>190.4</ele>
        <time>2026-01-13T12:30:28Z</time>
      </trkpt>
      <trkpt lat="48.6826" lon="1.84282">
        <ele>190.4</ele>
        <time>2026-01-13T12:30:29Z</time>
      </trkpt>
      <trkpt lat="48.68256" lon="1.84278">
        <ele>189.6</ele>
        <time>2026-01-13T12:30:30Z</time>
      </trkpt>
      <trkpt lat="48.68253" lon="1.84274">
        <ele>189.6</ele>
        <time>2026-01-13T12:30:31Z</time>
      </trkpt>
      <trkpt lat="48.68249" lon="1.8427">
        <ele>189.6</ele>
        <time>2026-01-13T12:30:32Z</time>
      </trkpt>
      <trkpt lat="48.68246" lon="1.84266">
        <ele>190.6</ele>
        <time>2026-01-13T12:30:33Z</time>
      </trkpt>
      <trkpt lat="48.68242" lon="1.84262">
        <ele>190.6</ele>
        <time>2026-01-13T12:30:34Z</time>
      </trkpt>
      <trkpt lat="48.68238" lon="1.84258">
        <ele>190.6</ele>
        <time>2026-01-13T12:30:35Z</time>
      </trkpt>
      <trkpt lat="48.68235" lon="1.84254">
        <ele>190.6</ele>
        <time>2026-01-13T12:30:36Z</time>
      </trkpt>
      <trkpt lat="48.68231" lon="1.8425">
        <ele>191.6</ele>
        <time>2026-01-13T12:30:37Z</time>
      </trkpt>
      <trkpt lat="48.68227" lon="1.84246">
        <ele>192.2</ele>
        <time>2026-01-13T12:30:38Z</time>
      </trkpt>
      <trkpt lat="48.68223" lon="1.84243">
        <ele>192.2</ele>
        <time>2026-01-13T12:30:39Z</time>
      </trkpt>
      <trkpt lat="48.68219" lon="1.8424">
        <ele>192.2</ele>
        <time>2026-01-13T12:30:40Z</time>
      </trkpt>
      <trkpt lat="48.68216" lon="1.84238">
        <ele>192.2</ele>
        <time>2026-01-13T12:30:41Z</time>
      </trkpt>
      <trkpt lat="48.68212" lon="1.84235">
        <ele>192.2</ele>
        <time>2026-01-13T12:30:42Z</time>
      </trkpt>
      <trkpt lat="48.68209" lon="1.84233">
        <ele>192.2</ele>
        <time>2026-01-13T12:30:43Z</time>
      </trkpt>
      <trkpt lat="48.68206" lon="1.84234">
        <ele>192.2</ele>
        <time>2026-01-13T12:30:44Z</time>
      </trkpt>
      <trkpt lat="48.68203" lon="1.84236">
        <ele>192.2</ele>
        <time>2026-01-13T12:30:45Z</time>
      </trkpt>
      <trkpt lat="48.68199" lon="1.8424">
        <ele>192.2</ele>
        <time>2026-01-13T12:30:46Z</time>
      </trkpt>
      <trkpt lat="48.68196" lon="1.84244">
        <ele>192.2</ele>
        <time>2026-01-13T12:30:47Z</time>
      </trkpt>
      <trkpt lat="48.68193" lon="1.84249">
        <ele>191.2</ele>
        <time>2026-01-13T12:30:48Z</time>
      </trkpt>
      <trkpt lat="48.6819" lon="1.84254">
        <ele>191.2</ele>
        <time>2026-01-13T12:30:49Z</time>
      </trkpt>
      <trkpt lat="48.68187" lon="1.8426">
        <ele>191.2</ele>
        <time>2026-01-13T12:30:50Z</time>
      </trkpt>
      <trkpt lat="48.68184" lon="1.84266">
        <ele>191.2</ele>
        <time>2026-01-13T12:30:51Z</time>
      </trkpt>
      <trkpt lat="48.68181" lon="1.84271">
        <ele>191.2</ele>
        <time>2026-01-13T12:30:52Z</time>
      </trkpt>
      <trkpt lat="48.68178" lon="1.84276">
        <ele>191.2</ele>
        <time>2026-01-13T12:30:53Z</time>
      </trkpt>
      <trkpt lat="48.68174" lon="1.84281">
        <ele>190.2</ele>
        <time>2026-01-13T12:30:54Z</time>
      </trkpt>
      <trkpt lat="48.6817" lon="1.84285">
        <ele>190</ele>
        <time>2026-01-13T12:30:55Z</time>
      </trkpt>
      <trkpt lat="48.68166" lon="1.84289">
        <ele>189.6</ele>
        <time>2026-01-13T12:30:56Z</time>
      </trkpt>
      <trkpt lat="48.68162" lon="1.84295">
        <ele>189.6</ele>
        <time>2026-01-13T12:30:57Z</time>
      </trkpt>
      <trkpt lat="48.68158" lon="1.843">
        <ele>189.6</ele>
        <time>2026-01-13T12:30:58Z</time>
      </trkpt>
      <trkpt lat="48.68153" lon="1.84304">
        <ele>189.6</ele>
        <time>2026-01-13T12:30:59Z</time>
      </trkpt>
      <trkpt lat="48.68149" lon="1.84309">
        <ele>189.6</ele>
        <time>2026-01-13T12:31:00Z</time>
      </trkpt>
      <trkpt lat="48.68146" lon="1.84314">
        <ele>189.6</ele>
        <time>2026-01-13T12:31:01Z</time>
      </trkpt>
      <trkpt lat="48.68142" lon="1.8432">
        <ele>190.2</ele>
        <time>2026-01-13T12:31:02Z</time>
      </trkpt>
      <trkpt lat="48.68137" lon="1.84326">
        <ele>190.2</ele>
        <time>2026-01-13T12:31:03Z</time>
      </trkpt>
      <trkpt lat="48.68132" lon="1.8433">
        <ele>190.2</ele>
        <time>2026-01-13T12:31:04Z</time>
      </trkpt>
      <trkpt lat="48.68127" lon="1.84333">
        <ele>189.2</ele>
        <time>2026-01-13T12:31:05Z</time>
      </trkpt>
      <trkpt lat="48.68121" lon="1.84333">
        <ele>189.2</ele>
        <time>2026-01-13T12:31:06Z</time>
      </trkpt>
      <trkpt lat="48.68116" lon="1.84337">
        <ele>189.2</ele>
        <time>2026-01-13T12:31:07Z</time>
      </trkpt>
      <trkpt lat="48.68111" lon="1.8434">
        <ele>189.2</ele>
        <time>2026-01-13T12:31:08Z</time>
      </trkpt>
      <trkpt lat="48.68107" lon="1.84345">
        <ele>189.2</ele>
        <time>2026-01-13T12:31:09Z</time>
      </trkpt>
      <trkpt lat="48.68102" lon="1.84349">
        <ele>189.2</ele>
        <time>2026-01-13T12:31:10Z</time>
      </trkpt>
      <trkpt lat="48.68098" lon="1.84353">
        <ele>189.2</ele>
        <time>2026-01-13T12:31:11Z</time>
      </trkpt>
      <trkpt lat="48.68094" lon="1.84358">
        <ele>190.2</ele>
        <time>2026-01-13T12:31:12Z</time>
      </trkpt>
      <trkpt lat="48.68089" lon="1.84363">
        <ele>190.4</ele>
        <time>2026-01-13T12:31:13Z</time>
      </trkpt>
      <trkpt lat="48.68086" lon="1.84368">
        <ele>190.4</ele>
        <time>2026-01-13T12:31:14Z</time>
      </trkpt>
      <trkpt lat="48.68081" lon="1.84372">
        <ele>190.4</ele>
        <time>2026-01-13T12:31:15Z</time>
      </trkpt>
      <trkpt lat="48.68076" lon="1.84378">
        <ele>190.4</ele>
        <time>2026-01-13T12:31:16Z</time>
      </trkpt>
      <trkpt lat="48.6807" lon="1.84384">
        <ele>190.4</ele>
        <time>2026-01-13T12:31:17Z</time>
      </trkpt>
      <trkpt lat="48.68065" lon="1.84389">
        <ele>190.4</ele>
        <time>2026-01-13T12:31:18Z</time>
      </trkpt>
      <trkpt lat="48.68061" lon="1.84396">
        <ele>189.4</ele>
        <time>2026-01-13T12:31:19Z</time>
      </trkpt>
      <trkpt lat="48.68056" lon="1.84401">
        <ele>189.4</ele>
        <time>2026-01-13T12:31:20Z</time>
      </trkpt>
      <trkpt lat="48.68051" lon="1.84407">
        <ele>189.4</ele>
        <time>2026-01-13T12:31:21Z</time>
      </trkpt>
      <trkpt lat="48.68046" lon="1.84413">
        <ele>189.4</ele>
        <time>2026-01-13T12:31:22Z</time>
      </trkpt>
      <trkpt lat="48.68041" lon="1.84418">
        <ele>189.4</ele>
        <time>2026-01-13T12:31:23Z</time>
      </trkpt>
      <trkpt lat="48.68037" lon="1.84425">
        <ele>189.6</ele>
        <time>2026-01-13T12:31:24Z</time>
      </trkpt>
      <trkpt lat="48.68034" lon="1.84433">
        <ele>189.6</ele>
        <time>2026-01-13T12:31:25Z</time>
      </trkpt>
      <trkpt lat="48.68031" lon="1.8444">
        <ele>189.6</ele>
        <time>2026-01-13T12:31:26Z</time>
      </trkpt>
      <trkpt lat="48.68029" lon="1.84449">
        <ele>189.6</ele>
        <time>2026-01-13T12:31:27Z</time>
      </trkpt>
      <trkpt lat="48.68026" lon="1.84457">
        <ele>189.6</ele>
        <time>2026-01-13T12:31:28Z</time>
      </trkpt>
      <trkpt lat="48.68022" lon="1.84465">
        <ele>189.8</ele>
        <time>2026-01-13T12:31:29Z</time>
      </trkpt>
      <trkpt lat="48.68018" lon="1.84472">
        <ele>189.8</ele>
        <time>2026-01-13T12:31:30Z</time>
      </trkpt>
      <trkpt lat="48.68013" lon="1.84478">
        <ele>189.8</ele>
        <time>2026-01-13T12:31:31Z</time>
      </trkpt>
      <trkpt lat="48.68008" lon="1.84484">
        <ele>189.2</ele>
        <time>2026-01-13T12:31:32Z</time>
      </trkpt>
      <trkpt lat="48.68004" lon="1.84491">
        <ele>188.6</ele>
        <time>2026-01-13T12:31:33Z</time>
      </trkpt>
      <trkpt lat="48.68" lon="1.84497">
        <ele>188.6</ele>
        <time>2026-01-13T12:31:34Z</time>
      </trkpt>
      <trkpt lat="48.67997" lon="1.84504">
        <ele>188.6</ele>
        <time>2026-01-13T12:31:35Z</time>
      </trkpt>
      <trkpt lat="48.67992" lon="1.84512">
        <ele>188.8</ele>
        <time>2026-01-13T12:31:36Z</time>
      </trkpt>
      <trkpt lat="48.67987" lon="1.84517">
        <ele>188.8</ele>
        <time>2026-01-13T12:31:37Z</time>
      </trkpt>
      <trkpt lat="48.67982" lon="1.8452">
        <ele>188.8</ele>
        <time>2026-01-13T12:31:38Z</time>
      </trkpt>
      <trkpt lat="48.67976" lon="1.84524">
        <ele>188.8</ele>
        <time>2026-01-13T12:31:39Z</time>
      </trkpt>
      <trkpt lat="48.6797" lon="1.84528">
        <ele>188.2</ele>
        <time>2026-01-13T12:31:40Z</time>
      </trkpt>
      <trkpt lat="48.67965" lon="1.84532">
        <ele>188.2</ele>
        <time>2026-01-13T12:31:41Z</time>
      </trkpt>
      <trkpt lat="48.67959" lon="1.84535">
        <ele>188.2</ele>
        <time>2026-01-13T12:31:42Z</time>
      </trkpt>
      <trkpt lat="48.67954" lon="1.84541">
        <ele>188.2</ele>
        <time>2026-01-13T12:31:43Z</time>
      </trkpt>
      <trkpt lat="48.67949" lon="1.84547">
        <ele>188.6</ele>
        <time>2026-01-13T12:31:44Z</time>
      </trkpt>
      <trkpt lat="48.67945" lon="1.84554">
        <ele>189</ele>
        <time>2026-01-13T12:31:45Z</time>
      </trkpt>
      <trkpt lat="48.67942" lon="1.8456">
        <ele>189</ele>
        <time>2026-01-13T12:31:46Z</time>
      </trkpt>
      <trkpt lat="48.67938" lon="1.84567">
        <ele>189</ele>
        <time>2026-01-13T12:31:47Z</time>
      </trkpt>
      <trkpt lat="48.67932" lon="1.84575">
        <ele>188.4</ele>
        <time>2026-01-13T12:31:48Z</time>
      </trkpt>
      <trkpt lat="48.67926" lon="1.84579">
        <ele>188.2</ele>
        <time>2026-01-13T12:31:49Z</time>
      </trkpt>
      <trkpt lat="48.6792" lon="1.84584">
        <ele>187.6</ele>
        <time>2026-01-13T12:31:50Z</time>
      </trkpt>
      <trkpt lat="48.67915" lon="1.84588">
        <ele>187.6</ele>
        <time>2026-01-13T12:31:51Z</time>
      </trkpt>
      <trkpt lat="48.67909" lon="1.8459">
        <ele>187.6</ele>
        <time>2026-01-13T12:31:52Z</time>
      </trkpt>
      <trkpt lat="48.67903" lon="1.84593">
        <ele>187.6</ele>
        <time>2026-01-13T12:31:53Z</time>
      </trkpt>
      <trkpt lat="48.67897" lon="1.84596">
        <ele>188</ele>
        <time>2026-01-13T12:31:54Z</time>
      </trkpt>
      <trkpt lat="48.67891" lon="1.846">
        <ele>188</ele>
        <time>2026-01-13T12:31:55Z</time>
      </trkpt>
      <trkpt lat="48.67884" lon="1.84601">
        <ele>188</ele>
        <time>2026-01-13T12:31:56Z</time>
      </trkpt>
      <trkpt lat="48.67878" lon="1.84603">
        <ele>188</ele>
        <time>2026-01-13T12:31:57Z</time>
      </trkpt>
      <trkpt lat="48.67873" lon="1.84603">
        <ele>189</ele>
        <time>2026-01-13T12:31:58Z</time>
      </trkpt>
      <trkpt lat="48.67869" lon="1.84606">
        <ele>189</ele>
        <time>2026-01-13T12:31:59Z</time>
      </trkpt>
      <trkpt lat="48.67866" lon="1.8461">
        <ele>189.6</ele>
        <time>2026-01-13T12:32:00Z</time>
      </trkpt>
      <trkpt lat="48.67864" lon="1.84616">
        <ele>190</ele>
        <time>2026-01-13T12:32:01Z</time>
      </trkpt>
      <trkpt lat="48.67861" lon="1.84621">
        <ele>190</ele>
        <time>2026-01-13T12:32:02Z</time>
      </trkpt>
      <trkpt lat="48.67857" lon="1.84623">
        <ele>190</ele>
        <time>2026-01-13T12:32:03Z</time>
      </trkpt>
      <trkpt lat="48.67853" lon="1.84627">
        <ele>189</ele>
        <time>2026-01-13T12:32:04Z</time>
      </trkpt>
      <trkpt lat="48.67849" lon="1.84627">
        <ele>188.2</ele>
        <time>2026-01-13T12:32:05Z</time>
      </trkpt>
      <trkpt lat="48.67844" lon="1.84628">
        <ele>188.2</ele>
        <time>2026-01-13T12:32:06Z</time>
      </trkpt>
      <trkpt lat="48.67839" lon="1.84628">
        <ele>188.2</ele>
        <time>2026-01-13T12:32:07Z</time>
      </trkpt>
      <trkpt lat="48.67834" lon="1.84628">
        <ele>188.2</ele>
        <time>2026-01-13T12:32:08Z</time>
      </trkpt>
      <trkpt lat="48.67829" lon="1.84626">
        <ele>188.2</ele>
        <time>2026-01-13T12:32:09Z</time>
      </trkpt>
      <trkpt lat="48.67824" lon="1.84623">
        <ele>188.2</ele>
        <time>2026-01-13T12:32:10Z</time>
      </trkpt>
      <trkpt lat="48.6782" lon="1.8462">
        <ele>188.2</ele>
        <time>2026-01-13T12:32:11Z</time>
      </trkpt>
      <trkpt lat="48.67815" lon="1.84617">
        <ele>188.6</ele>
        <time>2026-01-13T12:32:12Z</time>
      </trkpt>
      <trkpt lat="48.6781" lon="1.84615">
        <ele>188.6</ele>
        <time>2026-01-13T12:32:13Z</time>
      </trkpt>
      <trkpt lat="48.67805" lon="1.84612">
        <ele>188.6</ele>
        <time>2026-01-13T12:32:14Z</time>
      </trkpt>
      <trkpt lat="48.678" lon="1.8461">
        <ele>188.6</ele>
        <time>2026-01-13T12:32:15Z</time>
      </trkpt>
      <trkpt lat="48.67795" lon="1.84606">
        <ele>188.6</ele>
        <time>2026-01-13T12:32:16Z</time>
      </trkpt>
      <trkpt lat="48.67792" lon="1.84601">
        <ele>188.6</ele>
        <time>2026-01-13T12:32:17Z</time>
      </trkpt>
      <trkpt lat="48.67789" lon="1.84596">
        <ele>188.6</ele>
        <time>2026-01-13T12:32:18Z</time>
      </trkpt>
      <trkpt lat="48.67787" lon="1.84589">
        <ele>188.6</ele>
        <time>2026-01-13T12:32:19Z</time>
      </trkpt>
      <trkpt lat="48.67786" lon="1.84585">
        <ele>188.6</ele>
        <time>2026-01-13T12:32:20Z</time>
      </trkpt>
      <trkpt lat="48.67784" lon="1.84579">
        <ele>188.6</ele>
        <time>2026-01-13T12:32:21Z</time>
      </trkpt>
      <trkpt lat="48.6778" lon="1.84575">
        <ele>187.6</ele>
        <time>2026-01-13T12:32:22Z</time>
      </trkpt>
      <trkpt lat="48.67776" lon="1.84569">
        <ele>187.6</ele>
        <time>2026-01-13T12:32:23Z</time>
      </trkpt>
      <trkpt lat="48.67772" lon="1.84564">
        <ele>187.6</ele>
        <time>2026-01-13T12:32:24Z</time>
      </trkpt>
      <trkpt lat="48.67768" lon="1.84557">
        <ele>187.6</ele>
        <time>2026-01-13T12:32:25Z</time>
      </trkpt>
      <trkpt lat="48.67764" lon="1.84551">
        <ele>187.6</ele>
        <time>2026-01-13T12:32:26Z</time>
      </trkpt>
      <trkpt lat="48.67761" lon="1.84544">
        <ele>187.6</ele>
        <time>2026-01-13T12:32:27Z</time>
      </trkpt>
      <trkpt lat="48.67758" lon="1.84537">
        <ele>187.6</ele>
        <time>2026-01-13T12:32:28Z</time>
      </trkpt>
      <trkpt lat="48.67754" lon="1.84531">
        <ele>187.6</ele>
        <time>2026-01-13T12:32:29Z</time>
      </trkpt>
      <trkpt lat="48.6775" lon="1.84525">
        <ele>187.6</ele>
        <time>2026-01-13T12:32:30Z</time>
      </trkpt>
      <trkpt lat="48.67746" lon="1.84519">
        <ele>187.8</ele>
        <time>2026-01-13T12:32:31Z</time>
      </trkpt>
      <trkpt lat="48.67741" lon="1.84513">
        <ele>187.8</ele>
        <time>2026-01-13T12:32:32Z</time>
      </trkpt>
      <trkpt lat="48.67737" lon="1.84508">
        <ele>187.8</ele>
        <time>2026-01-13T12:32:33Z</time>
      </trkpt>
      <trkpt lat="48.67731" lon="1.84505">
        <ele>187.8</ele>
        <time>2026-01-13T12:32:34Z</time>
      </trkpt>
      <trkpt lat="48.67726" lon="1.84502">
        <ele>187.8</ele>
        <time>2026-01-13T12:32:35Z</time>
      </trkpt>
      <trkpt lat="48.6772" lon="1.84499">
        <ele>187.8</ele>
        <time>2026-01-13T12:32:36Z</time>
      </trkpt>
      <trkpt lat="48.67714" lon="1.84497">
        <ele>187.8</ele>
        <time>2026-01-13T12:32:37Z</time>
      </trkpt>
      <trkpt lat="48.67709" lon="1.84496">
        <ele>187.8</ele>
        <time>2026-01-13T12:32:38Z</time>
      </trkpt>
      <trkpt lat="48.67702" lon="1.84494">
        <ele>187.8</ele>
        <time>2026-01-13T12:32:39Z</time>
      </trkpt>
      <trkpt lat="48.67696" lon="1.84492">
        <ele>187.6</ele>
        <time>2026-01-13T12:32:40Z</time>
      </trkpt>
      <trkpt lat="48.6769" lon="1.84489">
        <ele>187.4</ele>
        <time>2026-01-13T12:32:41Z</time>
      </trkpt>
      <trkpt lat="48.67684" lon="1.84487">
        <ele>187.4</ele>
        <time>2026-01-13T12:32:42Z</time>
      </trkpt>
      <trkpt lat="48.67679" lon="1.84484">
        <ele>187.4</ele>
        <time>2026-01-13T12:32:43Z</time>
      </trkpt>
      <trkpt lat="48.67673" lon="1.84482">
        <ele>187.4</ele>
        <time>2026-01-13T12:32:44Z</time>
      </trkpt>
      <trkpt lat="48.67667" lon="1.8448">
        <ele>187.4</ele>
        <time>2026-01-13T12:32:45Z</time>
      </trkpt>
      <trkpt lat="48.67661" lon="1.84479">
        <ele>187.4</ele>
        <time>2026-01-13T12:32:46Z</time>
      </trkpt>
      <trkpt lat="48.67656" lon="1.8448">
        <ele>187.4</ele>
        <time>2026-01-13T12:32:47Z</time>
      </trkpt>
      <trkpt lat="48.6765" lon="1.84481">
        <ele>186.4</ele>
        <time>2026-01-13T12:32:48Z</time>
      </trkpt>
      <trkpt lat="48.67644" lon="1.84484">
        <ele>186.4</ele>
        <time>2026-01-13T12:32:49Z</time>
      </trkpt>
      <trkpt lat="48.6764" lon="1.84487">
        <ele>186.4</ele>
        <time>2026-01-13T12:32:50Z</time>
      </trkpt>
      <trkpt lat="48.67635" lon="1.8449">
        <ele>186.8</ele>
        <time>2026-01-13T12:32:51Z</time>
      </trkpt>
      <trkpt lat="48.6763" lon="1.84494">
        <ele>186.8</ele>
        <time>2026-01-13T12:32:52Z</time>
      </trkpt>
      <trkpt lat="48.67625" lon="1.84498">
        <ele>186.8</ele>
        <time>2026-01-13T12:32:53Z</time>
      </trkpt>
      <trkpt lat="48.67619" lon="1.84502">
        <ele>186.8</ele>
        <time>2026-01-13T12:32:54Z</time>
      </trkpt>
      <trkpt lat="48.67613" lon="1.84507">
        <ele>186.8</ele>
        <time>2026-01-13T12:32:55Z</time>
      </trkpt>
      <trkpt lat="48.67607" lon="1.8451">
        <ele>186.8</ele>
        <time>2026-01-13T12:32:56Z</time>
      </trkpt>
      <trkpt lat="48.67601" lon="1.84513">
        <ele>186.8</ele>
        <time>2026-01-13T12:32:57Z</time>
      </trkpt>
      <trkpt lat="48.67595" lon="1.84514">
        <ele>185.8</ele>
        <time>2026-01-13T12:32:58Z</time>
      </trkpt>
      <trkpt lat="48.67588" lon="1.84516">
        <ele>185.8</ele>
        <time>2026-01-13T12:32:59Z</time>
      </trkpt>
      <trkpt lat="48.67582" lon="1.84517">
        <ele>185.8</ele>
        <time>2026-01-13T12:33:00Z</time>
      </trkpt>
      <trkpt lat="48.67575" lon="1.84519">
        <ele>185.8</ele>
        <time>2026-01-13T12:33:01Z</time>
      </trkpt>
      <trkpt lat="48.67569" lon="1.84521">
        <ele>185.8</ele>
        <time>2026-01-13T12:33:02Z</time>
      </trkpt>
      <trkpt lat="48.67563" lon="1.84524">
        <ele>186</ele>
        <time>2026-01-13T12:33:03Z</time>
      </trkpt>
      <trkpt lat="48.67558" lon="1.84526">
        <ele>186</ele>
        <time>2026-01-13T12:33:04Z</time>
      </trkpt>
      <trkpt lat="48.67551" lon="1.8453">
        <ele>186</ele>
        <time>2026-01-13T12:33:05Z</time>
      </trkpt>
      <trkpt lat="48.67546" lon="1.84534">
        <ele>186</ele>
        <time>2026-01-13T12:33:06Z</time>
      </trkpt>
      <trkpt lat="48.6754" lon="1.84537">
        <ele>186</ele>
        <time>2026-01-13T12:33:07Z</time>
      </trkpt>
      <trkpt lat="48.67534" lon="1.8454">
        <ele>186</ele>
        <time>2026-01-13T12:33:08Z</time>
      </trkpt>
      <trkpt lat="48.6753" lon="1.84542">
        <ele>186</ele>
        <time>2026-01-13T12:33:09Z</time>
      </trkpt>
      <trkpt lat="48.67523" lon="1.84546">
        <ele>185.8</ele>
        <time>2026-01-13T12:33:10Z</time>
      </trkpt>
      <trkpt lat="48.67517" lon="1.84549">
        <ele>185.8</ele>
        <time>2026-01-13T12:33:11Z</time>
      </trkpt>
      <trkpt lat="48.67511" lon="1.8455">
        <ele>185.8</ele>
        <time>2026-01-13T12:33:12Z</time>
      </trkpt>
      <trkpt lat="48.67505" lon="1.84551">
        <ele>186.6</ele>
        <time>2026-01-13T12:33:13Z</time>
      </trkpt>
      <trkpt lat="48.67499" lon="1.84552">
        <ele>186.6</ele>
        <time>2026-01-13T12:33:14Z</time>
      </trkpt>
      <trkpt lat="48.67492" lon="1.84554">
        <ele>186.6</ele>
        <time>2026-01-13T12:33:15Z</time>
      </trkpt>
      <trkpt lat="48.67486" lon="1.84557">
        <ele>186</ele>
        <time>2026-01-13T12:33:16Z</time>
      </trkpt>
      <trkpt lat="48.67481" lon="1.84563">
        <ele>185.6</ele>
        <time>2026-01-13T12:33:17Z</time>
      </trkpt>
      <trkpt lat="48.67477" lon="1.84569">
        <ele>185</ele>
        <time>2026-01-13T12:33:18Z</time>
      </trkpt>
      <trkpt lat="48.67472" lon="1.84574">
        <ele>184.6</ele>
        <time>2026-01-13T12:33:19Z</time>
      </trkpt>
      <trkpt lat="48.67467" lon="1.8458">
        <ele>184.6</ele>
        <time>2026-01-13T12:33:20Z</time>
      </trkpt>
      <trkpt lat="48.67462" lon="1.84586">
        <ele>184.6</ele>
        <time>2026-01-13T12:33:21Z</time>
      </trkpt>
      <trkpt lat="48.67456" lon="1.8459">
        <ele>184.6</ele>
        <time>2026-01-13T12:33:22Z</time>
      </trkpt>
      <trkpt lat="48.6745" lon="1.84593">
        <ele>185.6</ele>
        <time>2026-01-13T12:33:23Z</time>
      </trkpt>
      <trkpt lat="48.67444" lon="1.84594">
        <ele>185.8</ele>
        <time>2026-01-13T12:33:24Z</time>
      </trkpt>
      <trkpt lat="48.67437" lon="1.84594">
        <ele>185.8</ele>
        <time>2026-01-13T12:33:25Z</time>
      </trkpt>
      <trkpt lat="48.67431" lon="1.84592">
        <ele>185.8</ele>
        <time>2026-01-13T12:33:26Z</time>
      </trkpt>
      <trkpt lat="48.67426" lon="1.84589">
        <ele>185.8</ele>
        <time>2026-01-13T12:33:27Z</time>
      </trkpt>
      <trkpt lat="48.67421" lon="1.84586">
        <ele>185.8</ele>
        <time>2026-01-13T12:33:28Z</time>
      </trkpt>
      <trkpt lat="48.67417" lon="1.84584">
        <ele>185.8</ele>
        <time>2026-01-13T12:33:29Z</time>
      </trkpt>
      <trkpt lat="48.67411" lon="1.84582">
        <ele>185.8</ele>
        <time>2026-01-13T12:33:30Z</time>
      </trkpt>
      <trkpt lat="48.67404" lon="1.8458">
        <ele>185.2</ele>
        <time>2026-01-13T12:33:31Z</time>
      </trkpt>
      <trkpt lat="48.67398" lon="1.84578">
        <ele>185.2</ele>
        <time>2026-01-13T12:33:32Z</time>
      </trkpt>
      <trkpt lat="48.67392" lon="1.84576">
        <ele>185.2</ele>
        <time>2026-01-13T12:33:33Z</time>
      </trkpt>
      <trkpt lat="48.67386" lon="1.84573">
        <ele>185.6</ele>
        <time>2026-01-13T12:33:34Z</time>
      </trkpt>
      <trkpt lat="48.6738" lon="1.8457">
        <ele>185.6</ele>
        <time>2026-01-13T12:33:35Z</time>
      </trkpt>
      <trkpt lat="48.67375" lon="1.84568">
        <ele>185.6</ele>
        <time>2026-01-13T12:33:36Z</time>
      </trkpt>
      <trkpt lat="48.6737" lon="1.84566">
        <ele>185.6</ele>
        <time>2026-01-13T12:33:37Z</time>
      </trkpt>
      <trkpt lat="48.67365" lon="1.84564">
        <ele>185.6</ele>
        <time>2026-01-13T12:33:38Z</time>
      </trkpt>
      <trkpt lat="48.67359" lon="1.84562">
        <ele>185.6</ele>
        <time>2026-01-13T12:33:39Z</time>
      </trkpt>
      <trkpt lat="48.67354" lon="1.8456">
        <ele>185.6</ele>
        <time>2026-01-13T12:33:40Z</time>
      </trkpt>
      <trkpt lat="48.67349" lon="1.84557">
        <ele>185.6</ele>
        <time>2026-01-13T12:33:41Z</time>
      </trkpt>
      <trkpt lat="48.67345" lon="1.84555">
        <ele>185.6</ele>
        <time>2026-01-13T12:33:42Z</time>
      </trkpt>
      <trkpt lat="48.6734" lon="1.84552">
        <ele>185.6</ele>
        <time>2026-01-13T12:33:43Z</time>
      </trkpt>
      <trkpt lat="48.67336" lon="1.84549">
        <ele>185.6</ele>
        <time>2026-01-13T12:33:44Z</time>
      </trkpt>
      <trkpt lat="48.67331" lon="1.84546">
        <ele>185.6</ele>
        <time>2026-01-13T12:33:45Z</time>
      </trkpt>
      <trkpt lat="48.67325" lon="1.84544">
        <ele>185.6</ele>
        <time>2026-01-13T12:33:46Z</time>
      </trkpt>
      <trkpt lat="48.6732" lon="1.84542">
        <ele>185.6</ele>
        <time>2026-01-13T12:33:47Z</time>
      </trkpt>
      <trkpt lat="48.67315" lon="1.84539">
        <ele>185.6</ele>
        <time>2026-01-13T12:33:48Z</time>
      </trkpt>
      <trkpt lat="48.67309" lon="1.84538">
        <ele>185.6</ele>
        <time>2026-01-13T12:33:49Z</time>
      </trkpt>
      <trkpt lat="48.67304" lon="1.84535">
        <ele>185.6</ele>
        <time>2026-01-13T12:33:50Z</time>
      </trkpt>
      <trkpt lat="48.67299" lon="1.84533">
        <ele>185.6</ele>
        <time>2026-01-13T12:33:51Z</time>
      </trkpt>
      <trkpt lat="48.67294" lon="1.84531">
        <ele>185.6</ele>
        <time>2026-01-13T12:33:52Z</time>
      </trkpt>
      <trkpt lat="48.67289" lon="1.84529">
        <ele>185.6</ele>
        <time>2026-01-13T12:33:53Z</time>
      </trkpt>
      <trkpt lat="48.67284" lon="1.84527">
        <ele>185.6</ele>
        <time>2026-01-13T12:33:54Z</time>
      </trkpt>
      <trkpt lat="48.67279" lon="1.84524">
        <ele>185.6</ele>
        <time>2026-01-13T12:33:55Z</time>
      </trkpt>
      <trkpt lat="48.67274" lon="1.84521">
        <ele>185.6</ele>
        <time>2026-01-13T12:33:56Z</time>
      </trkpt>
      <trkpt lat="48.67269" lon="1.84519">
        <ele>185.6</ele>
        <time>2026-01-13T12:33:57Z</time>
      </trkpt>
      <trkpt lat="48.67264" lon="1.84517">
        <ele>185.6</ele>
        <time>2026-01-13T12:33:58Z</time>
      </trkpt>
      <trkpt lat="48.6726" lon="1.84514">
        <ele>185.4</ele>
        <time>2026-01-13T12:33:59Z</time>
      </trkpt>
      <trkpt lat="48.67256" lon="1.84512">
        <ele>184.8</ele>
        <time>2026-01-13T12:34:00Z</time>
      </trkpt>
      <trkpt lat="48.67252" lon="1.8451">
        <ele>184.8</ele>
        <time>2026-01-13T12:34:01Z</time>
      </trkpt>
      <trkpt lat="48.67248" lon="1.84508">
        <ele>184.8</ele>
        <time>2026-01-13T12:34:02Z</time>
      </trkpt>
      <trkpt lat="48.67244" lon="1.84506">
        <ele>185.8</ele>
        <time>2026-01-13T12:34:03Z</time>
      </trkpt>
      <trkpt lat="48.67238" lon="1.84506">
        <ele>186.2</ele>
        <time>2026-01-13T12:34:04Z</time>
      </trkpt>
      <trkpt lat="48.67234" lon="1.84503">
        <ele>186.2</ele>
        <time>2026-01-13T12:34:05Z</time>
      </trkpt>
      <trkpt lat="48.67229" lon="1.84501">
        <ele>186.2</ele>
        <time>2026-01-13T12:34:06Z</time>
      </trkpt>
      <trkpt lat="48.67224" lon="1.84498">
        <ele>186.2</ele>
        <time>2026-01-13T12:34:07Z</time>
      </trkpt>
      <trkpt lat="48.67219" lon="1.84495">
        <ele>186.2</ele>
        <time>2026-01-13T12:34:08Z</time>
      </trkpt>
      <trkpt lat="48.67214" lon="1.84492">
        <ele>185.2</ele>
        <time>2026-01-13T12:34:09Z</time>
      </trkpt>
      <trkpt lat="48.67209" lon="1.84488">
        <ele>185.2</ele>
        <time>2026-01-13T12:34:10Z</time>
      </trkpt>
      <trkpt lat="48.67203" lon="1.84484">
        <ele>185.2</ele>
        <time>2026-01-13T12:34:11Z</time>
      </trkpt>
      <trkpt lat="48.67198" lon="1.84481">
        <ele>185.2</ele>
        <time>2026-01-13T12:34:12Z</time>
      </trkpt>
      <trkpt lat="48.67193" lon="1.8448">
        <ele>185.2</ele>
        <time>2026-01-13T12:34:13Z</time>
      </trkpt>
      <trkpt lat="48.67189" lon="1.84478">
        <ele>185.2</ele>
        <time>2026-01-13T12:34:14Z</time>
      </trkpt>
      <trkpt lat="48.67183" lon="1.84477">
        <ele>185.2</ele>
        <time>2026-01-13T12:34:15Z</time>
      </trkpt>
      <trkpt lat="48.67177" lon="1.84478">
        <ele>185.2</ele>
        <time>2026-01-13T12:34:16Z</time>
      </trkpt>
      <trkpt lat="48.67172" lon="1.84479">
        <ele>185.2</ele>
        <time>2026-01-13T12:34:17Z</time>
      </trkpt>
      <trkpt lat="48.67166" lon="1.84482">
        <ele>185.2</ele>
        <time>2026-01-13T12:34:18Z</time>
      </trkpt>
      <trkpt lat="48.67161" lon="1.84484">
        <ele>185.2</ele>
        <time>2026-01-13T12:34:19Z</time>
      </trkpt>
      <trkpt lat="48.67156" lon="1.84486">
        <ele>185.2</ele>
        <time>2026-01-13T12:34:20Z</time>
      </trkpt>
      <trkpt lat="48.6715" lon="1.84486">
        <ele>185.2</ele>
        <time>2026-01-13T12:34:21Z</time>
      </trkpt>
      <trkpt lat="48.67145" lon="1.84486">
        <ele>185</ele>
        <time>2026-01-13T12:34:22Z</time>
      </trkpt>
      <trkpt lat="48.67139" lon="1.84486">
        <ele>185</ele>
        <time>2026-01-13T12:34:23Z</time>
      </trkpt>
      <trkpt lat="48.67133" lon="1.84485">
        <ele>185</ele>
        <time>2026-01-13T12:34:24Z</time>
      </trkpt>
      <trkpt lat="48.67128" lon="1.84482">
        <ele>185</ele>
        <time>2026-01-13T12:34:25Z</time>
      </trkpt>
      <trkpt lat="48.67123" lon="1.84481">
        <ele>185</ele>
        <time>2026-01-13T12:34:26Z</time>
      </trkpt>
      <trkpt lat="48.67117" lon="1.84478">
        <ele>185</ele>
        <time>2026-01-13T12:34:27Z</time>
      </trkpt>
      <trkpt lat="48.67112" lon="1.84477">
        <ele>185</ele>
        <time>2026-01-13T12:34:28Z</time>
      </trkpt>
      <trkpt lat="48.67107" lon="1.84473">
        <ele>185</ele>
        <time>2026-01-13T12:34:29Z</time>
      </trkpt>
      <trkpt lat="48.67101" lon="1.84471">
        <ele>185</ele>
        <time>2026-01-13T12:34:30Z</time>
      </trkpt>
      <trkpt lat="48.67096" lon="1.84467">
        <ele>185</ele>
        <time>2026-01-13T12:34:31Z</time>
      </trkpt>
      <trkpt lat="48.67091" lon="1.84464">
        <ele>185.4</ele>
        <time>2026-01-13T12:34:32Z</time>
      </trkpt>
      <trkpt lat="48.67086" lon="1.84461">
        <ele>185.8</ele>
        <time>2026-01-13T12:34:33Z</time>
      </trkpt>
      <trkpt lat="48.6708" lon="1.84458">
        <ele>185.8</ele>
        <time>2026-01-13T12:34:34Z</time>
      </trkpt>
      <trkpt lat="48.67075" lon="1.84455">
        <ele>185.8</ele>
        <time>2026-01-13T12:34:35Z</time>
      </trkpt>
      <trkpt lat="48.6707" lon="1.84453">
        <ele>185.6</ele>
        <time>2026-01-13T12:34:36Z</time>
      </trkpt>
      <trkpt lat="48.67065" lon="1.84451">
        <ele>185.6</ele>
        <time>2026-01-13T12:34:37Z</time>
      </trkpt>
      <trkpt lat="48.6706" lon="1.84449">
        <ele>185.6</ele>
        <time>2026-01-13T12:34:38Z</time>
      </trkpt>
      <trkpt lat="48.67054" lon="1.84448">
        <ele>185.6</ele>
        <time>2026-01-13T12:34:39Z</time>
      </trkpt>
      <trkpt lat="48.67048" lon="1.84446">
        <ele>185.2</ele>
        <time>2026-01-13T12:34:40Z</time>
      </trkpt>
      <trkpt lat="48.67042" lon="1.84444">
        <ele>185</ele>
        <time>2026-01-13T12:34:41Z</time>
      </trkpt>
      <trkpt lat="48.67036" lon="1.84441">
        <ele>184.2</ele>
        <time>2026-01-13T12:34:42Z</time>
      </trkpt>
      <trkpt lat="48.6703" lon="1.84438">
        <ele>184</ele>
        <time>2026-01-13T12:34:43Z</time>
      </trkpt>
      <trkpt lat="48.67024" lon="1.84435">
        <ele>183.8</ele>
        <time>2026-01-13T12:34:44Z</time>
      </trkpt>
      <trkpt lat="48.67018" lon="1.84432">
        <ele>183.8</ele>
        <time>2026-01-13T12:34:45Z</time>
      </trkpt>
      <trkpt lat="48.67012" lon="1.8443">
        <ele>183.8</ele>
        <time>2026-01-13T12:34:46Z</time>
      </trkpt>
      <trkpt lat="48.67005" lon="1.84429">
        <ele>184.4</ele>
        <time>2026-01-13T12:34:47Z</time>
      </trkpt>
      <trkpt lat="48.66999" lon="1.84429">
        <ele>184.4</ele>
        <time>2026-01-13T12:34:48Z</time>
      </trkpt>
      <trkpt lat="48.66992" lon="1.84429">
        <ele>184.4</ele>
        <time>2026-01-13T12:34:49Z</time>
      </trkpt>
      <trkpt lat="48.66986" lon="1.84429">
        <ele>184</ele>
        <time>2026-01-13T12:34:50Z</time>
      </trkpt>
      <trkpt lat="48.6698" lon="1.84429">
        <ele>184</ele>
        <time>2026-01-13T12:34:51Z</time>
      </trkpt>
      <trkpt lat="48.66974" lon="1.84429">
        <ele>184</ele>
        <time>2026-01-13T12:34:52Z</time>
      </trkpt>
      <trkpt lat="48.66968" lon="1.84429">
        <ele>184</ele>
        <time>2026-01-13T12:34:53Z</time>
      </trkpt>
      <trkpt lat="48.66961" lon="1.84429">
        <ele>183.6</ele>
        <time>2026-01-13T12:34:54Z</time>
      </trkpt>
      <trkpt lat="48.66954" lon="1.84429">
        <ele>183.2</ele>
        <time>2026-01-13T12:34:55Z</time>
      </trkpt>
      <trkpt lat="48.66948" lon="1.84429">
        <ele>183</ele>
        <time>2026-01-13T12:34:56Z</time>
      </trkpt>
      <trkpt lat="48.66941" lon="1.84428">
        <ele>182.8</ele>
        <time>2026-01-13T12:34:57Z</time>
      </trkpt>
      <trkpt lat="48.66934" lon="1.84429">
        <ele>182.8</ele>
        <time>2026-01-13T12:34:58Z</time>
      </trkpt>
      <trkpt lat="48.66928" lon="1.84428">
        <ele>182.8</ele>
        <time>2026-01-13T12:34:59Z</time>
      </trkpt>
      <trkpt lat="48.66921" lon="1.84426">
        <ele>182.8</ele>
        <time>2026-01-13T12:35:00Z</time>
      </trkpt>
      <trkpt lat="48.66915" lon="1.84424">
        <ele>182.8</ele>
        <time>2026-01-13T12:35:01Z</time>
      </trkpt>
      <trkpt lat="48.66908" lon="1.84421">
        <ele>182.8</ele>
        <time>2026-01-13T12:35:02Z</time>
      </trkpt>
      <trkpt lat="48.66902" lon="1.84417">
        <ele>182.8</ele>
        <time>2026-01-13T12:35:03Z</time>
      </trkpt>
      <trkpt lat="48.66897" lon="1.84414">
        <ele>182.8</ele>
        <time>2026-01-13T12:35:04Z</time>
      </trkpt>
      <trkpt lat="48.66893" lon="1.84412">
        <ele>182.8</ele>
        <time>2026-01-13T12:35:05Z</time>
      </trkpt>
      <trkpt lat="48.6689" lon="1.84411">
        <ele>183.8</ele>
        <time>2026-01-13T12:35:06Z</time>
      </trkpt>
      <trkpt lat="48.66889" lon="1.8441">
        <ele>184.8</ele>
        <time>2026-01-13T12:35:07Z</time>
      </trkpt>
      <trkpt lat="48.66888" lon="1.84411">
        <ele>185.8</ele>
        <time>2026-01-13T12:35:08Z</time>
      </trkpt>
      <trkpt lat="48.66888" lon="1.84411">
        <ele>185.8</ele>
        <time>2026-01-13T12:35:09Z</time>
      </trkpt>
      <trkpt lat="48.66888" lon="1.84411">
        <ele>185.8</ele>
        <time>2026-01-13T12:35:10Z</time>
      </trkpt>
      <trkpt lat="48.66866" lon="1.84417">
        <ele>185.2</ele>
        <time>2026-01-13T12:36:56Z</time>
      </trkpt>
      <trkpt lat="48.66864" lon="1.84417">
        <ele>185.2</ele>
        <time>2026-01-13T12:36:57Z</time>
      </trkpt>
      <trkpt lat="48.66861" lon="1.84417">
        <ele>185.2</ele>
        <time>2026-01-13T12:36:58Z</time>
      </trkpt>
      <trkpt lat="48.66858" lon="1.84416">
        <ele>185.2</ele>
        <time>2026-01-13T12:36:59Z</time>
      </trkpt>
      <trkpt lat="48.66855" lon="1.84415">
        <ele>185.2</ele>
        <time>2026-01-13T12:37:00Z</time>
      </trkpt>
      <trkpt lat="48.66853" lon="1.84414">
        <ele>185.2</ele>
        <time>2026-01-13T12:37:01Z</time>
      </trkpt>
      <trkpt lat="48.6685" lon="1.84413">
        <ele>185.4</ele>
        <time>2026-01-13T12:37:02Z</time>
      </trkpt>
      <trkpt lat="48.66846" lon="1.84412">
        <ele>185.4</ele>
        <time>2026-01-13T12:37:03Z</time>
      </trkpt>
      <trkpt lat="48.66842" lon="1.84412">
        <ele>185.6</ele>
        <time>2026-01-13T12:37:04Z</time>
      </trkpt>
      <trkpt lat="48.66838" lon="1.84412">
        <ele>185.6</ele>
        <time>2026-01-13T12:37:05Z</time>
      </trkpt>
      <trkpt lat="48.66833" lon="1.84413">
        <ele>185.6</ele>
        <time>2026-01-13T12:37:06Z</time>
      </trkpt>
      <trkpt lat="48.66829" lon="1.84414">
        <ele>185.2</ele>
        <time>2026-01-13T12:37:07Z</time>
      </trkpt>
      <trkpt lat="48.66824" lon="1.84416">
        <ele>185.2</ele>
        <time>2026-01-13T12:37:08Z</time>
      </trkpt>
      <trkpt lat="48.6682" lon="1.84418">
        <ele>185.2</ele>
        <time>2026-01-13T12:37:09Z</time>
      </trkpt>
      <trkpt lat="48.66817" lon="1.84422">
        <ele>185.2</ele>
        <time>2026-01-13T12:37:10Z</time>
      </trkpt>
      <trkpt lat="48.66813" lon="1.84426">
        <ele>185.2</ele>
        <time>2026-01-13T12:37:11Z</time>
      </trkpt>
      <trkpt lat="48.6681" lon="1.84431">
        <ele>184.6</ele>
        <time>2026-01-13T12:37:12Z</time>
      </trkpt>
      <trkpt lat="48.66808" lon="1.84437">
        <ele>184.6</ele>
        <time>2026-01-13T12:37:13Z</time>
      </trkpt>
      <trkpt lat="48.66808" lon="1.84442">
        <ele>184.6</ele>
        <time>2026-01-13T12:37:14Z</time>
      </trkpt>
      <trkpt lat="48.66807" lon="1.84447">
        <ele>184.6</ele>
        <time>2026-01-13T12:37:15Z</time>
      </trkpt>
      <trkpt lat="48.66805" lon="1.84453">
        <ele>184.6</ele>
        <time>2026-01-13T12:37:16Z</time>
      </trkpt>
      <trkpt lat="48.66803" lon="1.84458">
        <ele>183.6</ele>
        <time>2026-01-13T12:37:17Z</time>
      </trkpt>
      <trkpt lat="48.668" lon="1.84463">
        <ele>183.6</ele>
        <time>2026-01-13T12:37:18Z</time>
      </trkpt>
      <trkpt lat="48.66796" lon="1.84467">
        <ele>183.6</ele>
        <time>2026-01-13T12:37:19Z</time>
      </trkpt>
      <trkpt lat="48.66793" lon="1.84469">
        <ele>184</ele>
        <time>2026-01-13T12:37:20Z</time>
      </trkpt>
      <trkpt lat="48.66789" lon="1.84472">
        <ele>184</ele>
        <time>2026-01-13T12:37:21Z</time>
      </trkpt>
      <trkpt lat="48.66786" lon="1.84475">
        <ele>184</ele>
        <time>2026-01-13T12:37:22Z</time>
      </trkpt>
      <trkpt lat="48.66783" lon="1.8448">
        <ele>184.6</ele>
        <time>2026-01-13T12:37:23Z</time>
      </trkpt>
      <trkpt lat="48.66781" lon="1.84486">
        <ele>184.6</ele>
        <time>2026-01-13T12:37:24Z</time>
      </trkpt>
      <trkpt lat="48.6678" lon="1.84493">
        <ele>184.6</ele>
        <time>2026-01-13T12:37:25Z</time>
      </trkpt>
      <trkpt lat="48.6678" lon="1.84499">
        <ele>184</ele>
        <time>2026-01-13T12:37:26Z</time>
      </trkpt>
      <trkpt lat="48.66779" lon="1.84505">
        <ele>184</ele>
        <time>2026-01-13T12:37:27Z</time>
      </trkpt>
      <trkpt lat="48.66779" lon="1.84512">
        <ele>184</ele>
        <time>2026-01-13T12:37:28Z</time>
      </trkpt>
      <trkpt lat="48.66778" lon="1.84518">
        <ele>184</ele>
        <time>2026-01-13T12:37:29Z</time>
      </trkpt>
      <trkpt lat="48.66777" lon="1.84527">
        <ele>183.4</ele>
        <time>2026-01-13T12:37:30Z</time>
      </trkpt>
      <trkpt lat="48.66777" lon="1.84535">
        <ele>183</ele>
        <time>2026-01-13T12:37:31Z</time>
      </trkpt>
      <trkpt lat="48.66776" lon="1.84542">
        <ele>182.6</ele>
        <time>2026-01-13T12:37:32Z</time>
      </trkpt>
      <trkpt lat="48.66773" lon="1.84553">
        <ele>182.2</ele>
        <time>2026-01-13T12:37:33Z</time>
      </trkpt>
      <trkpt lat="48.66773" lon="1.84563">
        <ele>182</ele>
        <time>2026-01-13T12:37:34Z</time>
      </trkpt>
      <trkpt lat="48.66772" lon="1.84573">
        <ele>181.2</ele>
        <time>2026-01-13T12:37:35Z</time>
      </trkpt>
      <trkpt lat="48.66772" lon="1.8458">
        <ele>180.2</ele>
        <time>2026-01-13T12:37:36Z</time>
      </trkpt>
      <trkpt lat="48.66771" lon="1.8459">
        <ele>180.2</ele>
        <time>2026-01-13T12:37:37Z</time>
      </trkpt>
      <trkpt lat="48.6677" lon="1.84601">
        <ele>179.8</ele>
        <time>2026-01-13T12:37:38Z</time>
      </trkpt>
      <trkpt lat="48.66769" lon="1.84613">
        <ele>178.8</ele>
        <time>2026-01-13T12:37:39Z</time>
      </trkpt>
      <trkpt lat="48.66768" lon="1.84625">
        <ele>178.8</ele>
        <time>2026-01-13T12:37:40Z</time>
      </trkpt>
      <trkpt lat="48.66768" lon="1.84637">
        <ele>178.8</ele>
        <time>2026-01-13T12:37:41Z</time>
      </trkpt>
      <trkpt lat="48.66766" lon="1.84649">
        <ele>178.8</ele>
        <time>2026-01-13T12:37:42Z</time>
      </trkpt>
      <trkpt lat="48.66766" lon="1.84661">
        <ele>178.8</ele>
        <time>2026-01-13T12:37:43Z</time>
      </trkpt>
      <trkpt lat="48.66765" lon="1.84673">
        <ele>178.4</ele>
        <time>2026-01-13T12:37:44Z</time>
      </trkpt>
      <trkpt lat="48.66765" lon="1.84684">
        <ele>178.4</ele>
        <time>2026-01-13T12:37:45Z</time>
      </trkpt>
      <trkpt lat="48.66764" lon="1.84695">
        <ele>178.4</ele>
        <time>2026-01-13T12:37:46Z</time>
      </trkpt>
      <trkpt lat="48.66763" lon="1.84706">
        <ele>178.4</ele>
        <time>2026-01-13T12:37:47Z</time>
      </trkpt>
      <trkpt lat="48.66763" lon="1.84718">
        <ele>177.4</ele>
        <time>2026-01-13T12:37:48Z</time>
      </trkpt>
      <trkpt lat="48.66761" lon="1.84728">
        <ele>177.4</ele>
        <time>2026-01-13T12:37:49Z</time>
      </trkpt>
      <trkpt lat="48.66759" lon="1.8474">
        <ele>177.4</ele>
        <time>2026-01-13T12:37:50Z</time>
      </trkpt>
      <trkpt lat="48.66757" lon="1.84752">
        <ele>177.6</ele>
        <time>2026-01-13T12:37:51Z</time>
      </trkpt>
      <trkpt lat="48.66756" lon="1.84762">
        <ele>178.6</ele>
        <time>2026-01-13T12:37:52Z</time>
      </trkpt>
      <trkpt lat="48.66755" lon="1.84766">
        <ele>178.6</ele>
        <time>2026-01-13T12:37:53Z</time>
      </trkpt>
      <trkpt lat="48.66755" lon="1.84772">
        <ele>179.6</ele>
        <time>2026-01-13T12:37:54Z</time>
      </trkpt>
      <trkpt lat="48.66754" lon="1.84779">
        <ele>180</ele>
        <time>2026-01-13T12:37:55Z</time>
      </trkpt>
      <trkpt lat="48.66754" lon="1.84792">
        <ele>180.8</ele>
        <time>2026-01-13T12:37:56Z</time>
      </trkpt>
      <trkpt lat="48.66753" lon="1.84795">
        <ele>181</ele>
        <time>2026-01-13T12:37:57Z</time>
      </trkpt>
      <trkpt lat="48.66752" lon="1.84803">
        <ele>181.2</ele>
        <time>2026-01-13T12:37:58Z</time>
      </trkpt>
      <trkpt lat="48.66752" lon="1.84811">
        <ele>181.4</ele>
        <time>2026-01-13T12:37:59Z</time>
      </trkpt>
      <trkpt lat="48.66751" lon="1.84824">
        <ele>181.4</ele>
        <time>2026-01-13T12:38:00Z</time>
      </trkpt>
      <trkpt lat="48.66751" lon="1.84829">
        <ele>181.4</ele>
        <time>2026-01-13T12:38:01Z</time>
      </trkpt>
      <trkpt lat="48.66749" lon="1.84838">
        <ele>181.4</ele>
        <time>2026-01-13T12:38:02Z</time>
      </trkpt>
      <trkpt lat="48.66747" lon="1.84847">
        <ele>182.4</ele>
        <time>2026-01-13T12:38:03Z</time>
      </trkpt>
      <trkpt lat="48.66742" lon="1.84852">
        <ele>183.4</ele>
        <time>2026-01-13T12:38:04Z</time>
      </trkpt>
      <trkpt lat="48.66741" lon="1.84853">
        <ele>184</ele>
        <time>2026-01-13T12:38:05Z</time>
      </trkpt>
      <trkpt lat="48.66739" lon="1.84858">
        <ele>184.8</ele>
        <time>2026-01-13T12:38:06Z</time>
      </trkpt>
      <trkpt lat="48.66737" lon="1.84863">
        <ele>185.2</ele>
        <time>2026-01-13T12:38:07Z</time>
      </trkpt>
      <trkpt lat="48.66733" lon="1.84871">
        <ele>185.2</ele>
        <time>2026-01-13T12:38:08Z</time>
      </trkpt>
      <trkpt lat="48.66732" lon="1.84874">
        <ele>185.2</ele>
        <time>2026-01-13T12:38:09Z</time>
      </trkpt>
      <trkpt lat="48.66729" lon="1.84879">
        <ele>185</ele>
        <time>2026-01-13T12:38:10Z</time>
      </trkpt>
      <trkpt lat="48.66727" lon="1.84885">
        <ele>184.4</ele>
        <time>2026-01-13T12:38:11Z</time>
      </trkpt>
      <trkpt lat="48.66724" lon="1.84895">
        <ele>184.4</ele>
        <time>2026-01-13T12:38:12Z</time>
      </trkpt>
      <trkpt lat="48.66723" lon="1.84898">
        <ele>184.4</ele>
        <time>2026-01-13T12:38:13Z</time>
      </trkpt>
      <trkpt lat="48.66721" lon="1.84905">
        <ele>185.2</ele>
        <time>2026-01-13T12:38:14Z</time>
      </trkpt>
      <trkpt lat="48.66718" lon="1.84915">
        <ele>185.2</ele>
        <time>2026-01-13T12:38:15Z</time>
      </trkpt>
      <trkpt lat="48.66718" lon="1.84918">
        <ele>185.2</ele>
        <time>2026-01-13T12:38:16Z</time>
      </trkpt>
      <trkpt lat="48.66716" lon="1.84925">
        <ele>185.2</ele>
        <time>2026-01-13T12:38:17Z</time>
      </trkpt>
      <trkpt lat="48.66715" lon="1.84932">
        <ele>185.2</ele>
        <time>2026-01-13T12:38:18Z</time>
      </trkpt>
      <trkpt lat="48.66714" lon="1.84939">
        <ele>185.6</ele>
        <time>2026-01-13T12:38:19Z</time>
      </trkpt>
      <trkpt lat="48.66713" lon="1.84946">
        <ele>185.6</ele>
        <time>2026-01-13T12:38:20Z</time>
      </trkpt>
      <trkpt lat="48.66713" lon="1.84954">
        <ele>185.6</ele>
        <time>2026-01-13T12:38:21Z</time>
      </trkpt>
      <trkpt lat="48.66713" lon="1.84963">
        <ele>184.8</ele>
        <time>2026-01-13T12:38:22Z</time>
      </trkpt>
      <trkpt lat="48.66713" lon="1.84971">
        <ele>184.8</ele>
        <time>2026-01-13T12:38:23Z</time>
      </trkpt>
      <trkpt lat="48.66713" lon="1.84979">
        <ele>184.8</ele>
        <time>2026-01-13T12:38:24Z</time>
      </trkpt>
      <trkpt lat="48.66714" lon="1.84986">
        <ele>185.2</ele>
        <time>2026-01-13T12:38:25Z</time>
      </trkpt>
      <trkpt lat="48.66714" lon="1.84994">
        <ele>185.6</ele>
        <time>2026-01-13T12:38:26Z</time>
      </trkpt>
      <trkpt lat="48.66714" lon="1.85003">
        <ele>185.6</ele>
        <time>2026-01-13T12:38:27Z</time>
      </trkpt>
      <trkpt lat="48.66713" lon="1.8501">
        <ele>185.6</ele>
        <time>2026-01-13T12:38:28Z</time>
      </trkpt>
      <trkpt lat="48.66712" lon="1.85018">
        <ele>185.4</ele>
        <time>2026-01-13T12:38:29Z</time>
      </trkpt>
      <trkpt lat="48.6671" lon="1.85024">
        <ele>185.2</ele>
        <time>2026-01-13T12:38:30Z</time>
      </trkpt>
      <trkpt lat="48.66708" lon="1.85029">
        <ele>185.2</ele>
        <time>2026-01-13T12:38:31Z</time>
      </trkpt>
      <trkpt lat="48.66706" lon="1.85036">
        <ele>185.2</ele>
        <time>2026-01-13T12:38:32Z</time>
      </trkpt>
      <trkpt lat="48.66704" lon="1.85043">
        <ele>185.2</ele>
        <time>2026-01-13T12:38:33Z</time>
      </trkpt>
      <trkpt lat="48.66702" lon="1.85051">
        <ele>185.8</ele>
        <time>2026-01-13T12:38:34Z</time>
      </trkpt>
      <trkpt lat="48.66701" lon="1.85057">
        <ele>186.2</ele>
        <time>2026-01-13T12:38:35Z</time>
      </trkpt>
      <trkpt lat="48.667" lon="1.85065">
        <ele>186.2</ele>
        <time>2026-01-13T12:38:36Z</time>
      </trkpt>
      <trkpt lat="48.66699" lon="1.85072">
        <ele>186.2</ele>
        <time>2026-01-13T12:38:37Z</time>
      </trkpt>
      <trkpt lat="48.66699" lon="1.8508">
        <ele>186.2</ele>
        <time>2026-01-13T12:38:38Z</time>
      </trkpt>
      <trkpt lat="48.66699" lon="1.85089">
        <ele>186.6</ele>
        <time>2026-01-13T12:38:39Z</time>
      </trkpt>
      <trkpt lat="48.66698" lon="1.85097">
        <ele>186.6</ele>
        <time>2026-01-13T12:38:40Z</time>
      </trkpt>
      <trkpt lat="48.66697" lon="1.85104">
        <ele>186.6</ele>
        <time>2026-01-13T12:38:41Z</time>
      </trkpt>
      <trkpt lat="48.66694" lon="1.85111">
        <ele>186.6</ele>
        <time>2026-01-13T12:38:42Z</time>
      </trkpt>
      <trkpt lat="48.66691" lon="1.85116">
        <ele>186.6</ele>
        <time>2026-01-13T12:38:43Z</time>
      </trkpt>
      <trkpt lat="48.66687" lon="1.8512">
        <ele>186.6</ele>
        <time>2026-01-13T12:38:44Z</time>
      </trkpt>
      <trkpt lat="48.66683" lon="1.85124">
        <ele>186.6</ele>
        <time>2026-01-13T12:38:45Z</time>
      </trkpt>
      <trkpt lat="48.66679" lon="1.85125">
        <ele>187</ele>
        <time>2026-01-13T12:38:46Z</time>
      </trkpt>
      <trkpt lat="48.66675" lon="1.85126">
        <ele>187</ele>
        <time>2026-01-13T12:38:47Z</time>
      </trkpt>
      <trkpt lat="48.6667" lon="1.85127">
        <ele>187</ele>
        <time>2026-01-13T12:38:48Z</time>
      </trkpt>
      <trkpt lat="48.66665" lon="1.85126">
        <ele>186</ele>
        <time>2026-01-13T12:38:49Z</time>
      </trkpt>
      <trkpt lat="48.6666" lon="1.85125">
        <ele>185.6</ele>
        <time>2026-01-13T12:38:50Z</time>
      </trkpt>
      <trkpt lat="48.66654" lon="1.85125">
        <ele>185.6</ele>
        <time>2026-01-13T12:38:51Z</time>
      </trkpt>
      <trkpt lat="48.66649" lon="1.85126">
        <ele>185.6</ele>
        <time>2026-01-13T12:38:52Z</time>
      </trkpt>
      <trkpt lat="48.66644" lon="1.85128">
        <ele>186.4</ele>
        <time>2026-01-13T12:38:53Z</time>
      </trkpt>
      <trkpt lat="48.6664" lon="1.85131">
        <ele>186.6</ele>
        <time>2026-01-13T12:38:54Z</time>
      </trkpt>
      <trkpt lat="48.66635" lon="1.85136">
        <ele>186.6</ele>
        <time>2026-01-13T12:38:55Z</time>
      </trkpt>
      <trkpt lat="48.66631" lon="1.85141">
        <ele>186.6</ele>
        <time>2026-01-13T12:38:56Z</time>
      </trkpt>
      <trkpt lat="48.66627" lon="1.85145">
        <ele>186.6</ele>
        <time>2026-01-13T12:38:57Z</time>
      </trkpt>
      <trkpt lat="48.66622" lon="1.8515">
        <ele>186.6</ele>
        <time>2026-01-13T12:38:58Z</time>
      </trkpt>
      <trkpt lat="48.66618" lon="1.85154">
        <ele>186.2</ele>
        <time>2026-01-13T12:38:59Z</time>
      </trkpt>
      <trkpt lat="48.66613" lon="1.85159">
        <ele>185.6</ele>
        <time>2026-01-13T12:39:00Z</time>
      </trkpt>
      <trkpt lat="48.66608" lon="1.85164">
        <ele>185.6</ele>
        <time>2026-01-13T12:39:01Z</time>
      </trkpt>
      <trkpt lat="48.66603" lon="1.85169">
        <ele>185.6</ele>
        <time>2026-01-13T12:39:02Z</time>
      </trkpt>
      <trkpt lat="48.666" lon="1.85175">
        <ele>186.2</ele>
        <time>2026-01-13T12:39:03Z</time>
      </trkpt>
      <trkpt lat="48.66596" lon="1.85181">
        <ele>186.2</ele>
        <time>2026-01-13T12:39:04Z</time>
      </trkpt>
      <trkpt lat="48.66593" lon="1.85187">
        <ele>187.2</ele>
        <time>2026-01-13T12:39:05Z</time>
      </trkpt>
      <trkpt lat="48.66589" lon="1.85192">
        <ele>187.2</ele>
        <time>2026-01-13T12:39:06Z</time>
      </trkpt>
      <trkpt lat="48.66585" lon="1.85197">
        <ele>187.2</ele>
        <time>2026-01-13T12:39:07Z</time>
      </trkpt>
      <trkpt lat="48.6658" lon="1.852">
        <ele>187.2</ele>
        <time>2026-01-13T12:39:08Z</time>
      </trkpt>
      <trkpt lat="48.66575" lon="1.85199">
        <ele>187.2</ele>
        <time>2026-01-13T12:39:09Z</time>
      </trkpt>
      <trkpt lat="48.66569" lon="1.85197">
        <ele>187.2</ele>
        <time>2026-01-13T12:39:10Z</time>
      </trkpt>
      <trkpt lat="48.66564" lon="1.85194">
        <ele>186.6</ele>
        <time>2026-01-13T12:39:11Z</time>
      </trkpt>
      <trkpt lat="48.6656" lon="1.85191">
        <ele>186.4</ele>
        <time>2026-01-13T12:39:12Z</time>
      </trkpt>
      <trkpt lat="48.66554" lon="1.85189">
        <ele>186.2</ele>
        <time>2026-01-13T12:39:13Z</time>
      </trkpt>
      <trkpt lat="48.66549" lon="1.85188">
        <ele>186.2</ele>
        <time>2026-01-13T12:39:14Z</time>
      </trkpt>
      <trkpt lat="48.66544" lon="1.85189">
        <ele>186.2</ele>
        <time>2026-01-13T12:39:15Z</time>
      </trkpt>
      <trkpt lat="48.66539" lon="1.85193">
        <ele>186.2</ele>
        <time>2026-01-13T12:39:16Z</time>
      </trkpt>
      <trkpt lat="48.66535" lon="1.85199">
        <ele>186.2</ele>
        <time>2026-01-13T12:39:17Z</time>
      </trkpt>
      <trkpt lat="48.66533" lon="1.85204">
        <ele>187.2</ele>
        <time>2026-01-13T12:39:18Z</time>
      </trkpt>
      <trkpt lat="48.6653" lon="1.8521">
        <ele>187.2</ele>
        <time>2026-01-13T12:39:19Z</time>
      </trkpt>
      <trkpt lat="48.66526" lon="1.85214">
        <ele>187.2</ele>
        <time>2026-01-13T12:39:20Z</time>
      </trkpt>
      <trkpt lat="48.66522" lon="1.85217">
        <ele>187</ele>
        <time>2026-01-13T12:39:21Z</time>
      </trkpt>
      <trkpt lat="48.66518" lon="1.8522">
        <ele>187</ele>
        <time>2026-01-13T12:39:22Z</time>
      </trkpt>
      <trkpt lat="48.66514" lon="1.85223">
        <ele>187</ele>
        <time>2026-01-13T12:39:23Z</time>
      </trkpt>
      <trkpt lat="48.66509" lon="1.85228">
        <ele>187</ele>
        <time>2026-01-13T12:39:24Z</time>
      </trkpt>
      <trkpt lat="48.66505" lon="1.85234">
        <ele>187</ele>
        <time>2026-01-13T12:39:25Z</time>
      </trkpt>
      <trkpt lat="48.66502" lon="1.8524">
        <ele>187</ele>
        <time>2026-01-13T12:39:26Z</time>
      </trkpt>
      <trkpt lat="48.66498" lon="1.85245">
        <ele>187</ele>
        <time>2026-01-13T12:39:27Z</time>
      </trkpt>
      <trkpt lat="48.66495" lon="1.85251">
        <ele>187</ele>
        <time>2026-01-13T12:39:28Z</time>
      </trkpt>
      <trkpt lat="48.66491" lon="1.85257">
        <ele>188</ele>
        <time>2026-01-13T12:39:29Z</time>
      </trkpt>
      <trkpt lat="48.66487" lon="1.85261">
        <ele>188.4</ele>
        <time>2026-01-13T12:39:30Z</time>
      </trkpt>
      <trkpt lat="48.66482" lon="1.85265">
        <ele>188.4</ele>
        <time>2026-01-13T12:39:31Z</time>
      </trkpt>
      <trkpt lat="48.66477" lon="1.85268">
        <ele>188.4</ele>
        <time>2026-01-13T12:39:32Z</time>
      </trkpt>
      <trkpt lat="48.66472" lon="1.85269">
        <ele>188.4</ele>
        <time>2026-01-13T12:39:33Z</time>
      </trkpt>
      <trkpt lat="48.66466" lon="1.85271">
        <ele>188.4</ele>
        <time>2026-01-13T12:39:34Z</time>
      </trkpt>
      <trkpt lat="48.66461" lon="1.85274">
        <ele>188.4</ele>
        <time>2026-01-13T12:39:35Z</time>
      </trkpt>
      <trkpt lat="48.66456" lon="1.85277">
        <ele>188.8</ele>
        <time>2026-01-13T12:39:36Z</time>
      </trkpt>
      <trkpt lat="48.66451" lon="1.85281">
        <ele>188.8</ele>
        <time>2026-01-13T12:39:37Z</time>
      </trkpt>
      <trkpt lat="48.66447" lon="1.85287">
        <ele>188.8</ele>
        <time>2026-01-13T12:39:38Z</time>
      </trkpt>
      <trkpt lat="48.66443" lon="1.85294">
        <ele>187.8</ele>
        <time>2026-01-13T12:39:39Z</time>
      </trkpt>
      <trkpt lat="48.6644" lon="1.85301">
        <ele>187.8</ele>
        <time>2026-01-13T12:39:40Z</time>
      </trkpt>
      <trkpt lat="48.66438" lon="1.85308">
        <ele>187.8</ele>
        <time>2026-01-13T12:39:41Z</time>
      </trkpt>
      <trkpt lat="48.66437" lon="1.85313">
        <ele>188.4</ele>
        <time>2026-01-13T12:39:42Z</time>
      </trkpt>
      <trkpt lat="48.66434" lon="1.85318">
        <ele>188.6</ele>
        <time>2026-01-13T12:39:43Z</time>
      </trkpt>
      <trkpt lat="48.66431" lon="1.85323">
        <ele>189</ele>
        <time>2026-01-13T12:39:44Z</time>
      </trkpt>
      <trkpt lat="48.66428" lon="1.85327">
        <ele>189.6</ele>
        <time>2026-01-13T12:39:45Z</time>
      </trkpt>
      <trkpt lat="48.66425" lon="1.85333">
        <ele>189.6</ele>
        <time>2026-01-13T12:39:46Z</time>
      </trkpt>
      <trkpt lat="48.66424" lon="1.85339">
        <ele>189.6</ele>
        <time>2026-01-13T12:39:47Z</time>
      </trkpt>
      <trkpt lat="48.66424" lon="1.85347">
        <ele>188.8</ele>
        <time>2026-01-13T12:39:48Z</time>
      </trkpt>
      <trkpt lat="48.66426" lon="1.85353">
        <ele>188.8</ele>
        <time>2026-01-13T12:39:49Z</time>
      </trkpt>
      <trkpt lat="48.66427" lon="1.8536">
        <ele>188.8</ele>
        <time>2026-01-13T12:39:50Z</time>
      </trkpt>
      <trkpt lat="48.66429" lon="1.85367">
        <ele>189</ele>
        <time>2026-01-13T12:39:51Z</time>
      </trkpt>
      <trkpt lat="48.66429" lon="1.85373">
        <ele>189.8</ele>
        <time>2026-01-13T12:39:52Z</time>
      </trkpt>
      <trkpt lat="48.66428" lon="1.85381">
        <ele>189.8</ele>
        <time>2026-01-13T12:39:53Z</time>
      </trkpt>
      <trkpt lat="48.66427" lon="1.85389">
        <ele>189.8</ele>
        <time>2026-01-13T12:39:54Z</time>
      </trkpt>
      <trkpt lat="48.66426" lon="1.85397">
        <ele>188.8</ele>
        <time>2026-01-13T12:39:55Z</time>
      </trkpt>
      <trkpt lat="48.66425" lon="1.85405">
        <ele>188.8</ele>
        <time>2026-01-13T12:39:56Z</time>
      </trkpt>
      <trkpt lat="48.66425" lon="1.85413">
        <ele>188.8</ele>
        <time>2026-01-13T12:39:57Z</time>
      </trkpt>
      <trkpt lat="48.66423" lon="1.85421">
        <ele>188.8</ele>
        <time>2026-01-13T12:39:58Z</time>
      </trkpt>
      <trkpt lat="48.66423" lon="1.85428">
        <ele>188.8</ele>
        <time>2026-01-13T12:39:59Z</time>
      </trkpt>
      <trkpt lat="48.66423" lon="1.85435">
        <ele>188.8</ele>
        <time>2026-01-13T12:40:00Z</time>
      </trkpt>
      <trkpt lat="48.66422" lon="1.85443">
        <ele>189.6</ele>
        <time>2026-01-13T12:40:01Z</time>
      </trkpt>
      <trkpt lat="48.66421" lon="1.85451">
        <ele>189.8</ele>
        <time>2026-01-13T12:40:02Z</time>
      </trkpt>
      <trkpt lat="48.66419" lon="1.85457">
        <ele>189.8</ele>
        <time>2026-01-13T12:40:03Z</time>
      </trkpt>
      <trkpt lat="48.66417" lon="1.85465">
        <ele>189.8</ele>
        <time>2026-01-13T12:40:04Z</time>
      </trkpt>
      <trkpt lat="48.66414" lon="1.8547">
        <ele>188.8</ele>
        <time>2026-01-13T12:40:05Z</time>
      </trkpt>
      <trkpt lat="48.6641" lon="1.85476">
        <ele>188.6</ele>
        <time>2026-01-13T12:40:06Z</time>
      </trkpt>
      <trkpt lat="48.66405" lon="1.85479">
        <ele>188.4</ele>
        <time>2026-01-13T12:40:07Z</time>
      </trkpt>
      <trkpt lat="48.66402" lon="1.85483">
        <ele>188.4</ele>
        <time>2026-01-13T12:40:08Z</time>
      </trkpt>
      <trkpt lat="48.66397" lon="1.85487">
        <ele>188.4</ele>
        <time>2026-01-13T12:40:09Z</time>
      </trkpt>
      <trkpt lat="48.66391" lon="1.85491">
        <ele>189.4</ele>
        <time>2026-01-13T12:40:10Z</time>
      </trkpt>
      <trkpt lat="48.66387" lon="1.85494">
        <ele>189.4</ele>
        <time>2026-01-13T12:40:11Z</time>
      </trkpt>
      <trkpt lat="48.66382" lon="1.85498">
        <ele>189.6</ele>
        <time>2026-01-13T12:40:12Z</time>
      </trkpt>
      <trkpt lat="48.66377" lon="1.85503">
        <ele>190</ele>
        <time>2026-01-13T12:40:13Z</time>
      </trkpt>
      <trkpt lat="48.66371" lon="1.85508">
        <ele>190</ele>
        <time>2026-01-13T12:40:14Z</time>
      </trkpt>
      <trkpt lat="48.66366" lon="1.85513">
        <ele>190</ele>
        <time>2026-01-13T12:40:15Z</time>
      </trkpt>
      <trkpt lat="48.66361" lon="1.85517">
        <ele>189.4</ele>
        <time>2026-01-13T12:40:16Z</time>
      </trkpt>
      <trkpt lat="48.66355" lon="1.85522">
        <ele>189.4</ele>
        <time>2026-01-13T12:40:17Z</time>
      </trkpt>
      <trkpt lat="48.6635" lon="1.85525">
        <ele>189.4</ele>
        <time>2026-01-13T12:40:18Z</time>
      </trkpt>
      <trkpt lat="48.66345" lon="1.85529">
        <ele>189.4</ele>
        <time>2026-01-13T12:40:19Z</time>
      </trkpt>
      <trkpt lat="48.6634" lon="1.85533">
        <ele>189.2</ele>
        <time>2026-01-13T12:40:20Z</time>
      </trkpt>
      <trkpt lat="48.66335" lon="1.85538">
        <ele>188.8</ele>
        <time>2026-01-13T12:40:21Z</time>
      </trkpt>
      <trkpt lat="48.6633" lon="1.85543">
        <ele>188.6</ele>
        <time>2026-01-13T12:40:22Z</time>
      </trkpt>
      <trkpt lat="48.66325" lon="1.85548">
        <ele>188.6</ele>
        <time>2026-01-13T12:40:23Z</time>
      </trkpt>
      <trkpt lat="48.66321" lon="1.85552">
        <ele>188.6</ele>
        <time>2026-01-13T12:40:24Z</time>
      </trkpt>
      <trkpt lat="48.66317" lon="1.85556">
        <ele>189.2</ele>
        <time>2026-01-13T12:40:25Z</time>
      </trkpt>
      <trkpt lat="48.66313" lon="1.8556">
        <ele>190</ele>
        <time>2026-01-13T12:40:26Z</time>
      </trkpt>
      <trkpt lat="48.6631" lon="1.85564">
        <ele>190</ele>
        <time>2026-01-13T12:40:27Z</time>
      </trkpt>
      <trkpt lat="48.66307" lon="1.85571">
        <ele>190</ele>
        <time>2026-01-13T12:40:28Z</time>
      </trkpt>
      <trkpt lat="48.66304" lon="1.85577">
        <ele>190</ele>
        <time>2026-01-13T12:40:29Z</time>
      </trkpt>
      <trkpt lat="48.66301" lon="1.85581">
        <ele>190</ele>
        <time>2026-01-13T12:40:30Z</time>
      </trkpt>
      <trkpt lat="48.66298" lon="1.85587">
        <ele>190</ele>
        <time>2026-01-13T12:40:31Z</time>
      </trkpt>
      <trkpt lat="48.66294" lon="1.85594">
        <ele>189.8</ele>
        <time>2026-01-13T12:40:32Z</time>
      </trkpt>
      <trkpt lat="48.66291" lon="1.85599">
        <ele>189.8</ele>
        <time>2026-01-13T12:40:33Z</time>
      </trkpt>
      <trkpt lat="48.66287" lon="1.85605">
        <ele>189.8</ele>
        <time>2026-01-13T12:40:34Z</time>
      </trkpt>
      <trkpt lat="48.66283" lon="1.85612">
        <ele>189.8</ele>
        <time>2026-01-13T12:40:35Z</time>
      </trkpt>
      <trkpt lat="48.66279" lon="1.85618">
        <ele>189.8</ele>
        <time>2026-01-13T12:40:36Z</time>
      </trkpt>
      <trkpt lat="48.66276" lon="1.85625">
        <ele>189.8</ele>
        <time>2026-01-13T12:40:37Z</time>
      </trkpt>
      <trkpt lat="48.66273" lon="1.85632">
        <ele>190</ele>
        <time>2026-01-13T12:40:38Z</time>
      </trkpt>
      <trkpt lat="48.6627" lon="1.85639">
        <ele>190</ele>
        <time>2026-01-13T12:40:39Z</time>
      </trkpt>
      <trkpt lat="48.66267" lon="1.85646">
        <ele>190</ele>
        <time>2026-01-13T12:40:40Z</time>
      </trkpt>
      <trkpt lat="48.66263" lon="1.85655">
        <ele>189.6</ele>
        <time>2026-01-13T12:40:41Z</time>
      </trkpt>
      <trkpt lat="48.66259" lon="1.85664">
        <ele>189.6</ele>
        <time>2026-01-13T12:40:42Z</time>
      </trkpt>
      <trkpt lat="48.66256" lon="1.85671">
        <ele>189.6</ele>
        <time>2026-01-13T12:40:43Z</time>
      </trkpt>
      <trkpt lat="48.66253" lon="1.85679">
        <ele>189.6</ele>
        <time>2026-01-13T12:40:44Z</time>
      </trkpt>
      <trkpt lat="48.6625" lon="1.85686">
        <ele>190</ele>
        <time>2026-01-13T12:40:45Z</time>
      </trkpt>
      <trkpt lat="48.66247" lon="1.85693">
        <ele>190</ele>
        <time>2026-01-13T12:40:46Z</time>
      </trkpt>
      <trkpt lat="48.66243" lon="1.85701">
        <ele>190</ele>
        <time>2026-01-13T12:40:47Z</time>
      </trkpt>
      <trkpt lat="48.66241" lon="1.85708">
        <ele>190</ele>
        <time>2026-01-13T12:40:48Z</time>
      </trkpt>
      <trkpt lat="48.66238" lon="1.85714">
        <ele>190.6</ele>
        <time>2026-01-13T12:40:49Z</time>
      </trkpt>
      <trkpt lat="48.66234" lon="1.85721">
        <ele>190.6</ele>
        <time>2026-01-13T12:40:50Z</time>
      </trkpt>
      <trkpt lat="48.6623" lon="1.85727">
        <ele>190.6</ele>
        <time>2026-01-13T12:40:51Z</time>
      </trkpt>
      <trkpt lat="48.66226" lon="1.85735">
        <ele>190.6</ele>
        <time>2026-01-13T12:40:52Z</time>
      </trkpt>
      <trkpt lat="48.66222" lon="1.85741">
        <ele>190.6</ele>
        <time>2026-01-13T12:40:53Z</time>
      </trkpt>
      <trkpt lat="48.66218" lon="1.85747">
        <ele>190.6</ele>
        <time>2026-01-13T12:40:54Z</time>
      </trkpt>
      <trkpt lat="48.66214" lon="1.85753">
        <ele>190.6</ele>
        <time>2026-01-13T12:40:55Z</time>
      </trkpt>
      <trkpt lat="48.6621" lon="1.85759">
        <ele>190.6</ele>
        <time>2026-01-13T12:40:56Z</time>
      </trkpt>
      <trkpt lat="48.66207" lon="1.85765">
        <ele>190.6</ele>
        <time>2026-01-13T12:40:57Z</time>
      </trkpt>
      <trkpt lat="48.66203" lon="1.85772">
        <ele>190.2</ele>
        <time>2026-01-13T12:40:58Z</time>
      </trkpt>
      <trkpt lat="48.66199" lon="1.85779">
        <ele>190.2</ele>
        <time>2026-01-13T12:40:59Z</time>
      </trkpt>
      <trkpt lat="48.66195" lon="1.85785">
        <ele>190.2</ele>
        <time>2026-01-13T12:41:00Z</time>
      </trkpt>
      <trkpt lat="48.66192" lon="1.8579">
        <ele>190.2</ele>
        <time>2026-01-13T12:41:01Z</time>
      </trkpt>
      <trkpt lat="48.66187" lon="1.85796">
        <ele>190.2</ele>
        <time>2026-01-13T12:41:02Z</time>
      </trkpt>
      <trkpt lat="48.66182" lon="1.85801">
        <ele>190.2</ele>
        <time>2026-01-13T12:41:03Z</time>
      </trkpt>
      <trkpt lat="48.66177" lon="1.85805">
        <ele>191</ele>
        <time>2026-01-13T12:41:04Z</time>
      </trkpt>
      <trkpt lat="48.66173" lon="1.85809">
        <ele>192</ele>
        <time>2026-01-13T12:41:05Z</time>
      </trkpt>
      <trkpt lat="48.66168" lon="1.85814">
        <ele>192</ele>
        <time>2026-01-13T12:41:06Z</time>
      </trkpt>
      <trkpt lat="48.66162" lon="1.85821">
        <ele>192</ele>
        <time>2026-01-13T12:41:07Z</time>
      </trkpt>
      <trkpt lat="48.66156" lon="1.85828">
        <ele>191</ele>
        <time>2026-01-13T12:41:08Z</time>
      </trkpt>
      <trkpt lat="48.6615" lon="1.85833">
        <ele>190.4</ele>
        <time>2026-01-13T12:41:09Z</time>
      </trkpt>
      <trkpt lat="48.66145" lon="1.85837">
        <ele>189.8</ele>
        <time>2026-01-13T12:41:10Z</time>
      </trkpt>
      <trkpt lat="48.66139" lon="1.85841">
        <ele>189.8</ele>
        <time>2026-01-13T12:41:11Z</time>
      </trkpt>
      <trkpt lat="48.66133" lon="1.85844">
        <ele>189.8</ele>
        <time>2026-01-13T12:41:12Z</time>
      </trkpt>
      <trkpt lat="48.66128" lon="1.85848">
        <ele>189.8</ele>
        <time>2026-01-13T12:41:13Z</time>
      </trkpt>
      <trkpt lat="48.66122" lon="1.85851">
        <ele>189.8</ele>
        <time>2026-01-13T12:41:14Z</time>
      </trkpt>
      <trkpt lat="48.66116" lon="1.85856">
        <ele>190</ele>
        <time>2026-01-13T12:41:15Z</time>
      </trkpt>
      <trkpt lat="48.6611" lon="1.8586">
        <ele>190</ele>
        <time>2026-01-13T12:41:16Z</time>
      </trkpt>
      <trkpt lat="48.66105" lon="1.85864">
        <ele>190</ele>
        <time>2026-01-13T12:41:17Z</time>
      </trkpt>
      <trkpt lat="48.66099" lon="1.85868">
        <ele>190</ele>
        <time>2026-01-13T12:41:18Z</time>
      </trkpt>
      <trkpt lat="48.66093" lon="1.85871">
        <ele>190.6</ele>
        <time>2026-01-13T12:41:19Z</time>
      </trkpt>
      <trkpt lat="48.66088" lon="1.85875">
        <ele>190.6</ele>
        <time>2026-01-13T12:41:20Z</time>
      </trkpt>
      <trkpt lat="48.66082" lon="1.85879">
        <ele>190.6</ele>
        <time>2026-01-13T12:41:21Z</time>
      </trkpt>
      <trkpt lat="48.66077" lon="1.85882">
        <ele>190.6</ele>
        <time>2026-01-13T12:41:22Z</time>
      </trkpt>
      <trkpt lat="48.66072" lon="1.85886">
        <ele>190.6</ele>
        <time>2026-01-13T12:41:23Z</time>
      </trkpt>
      <trkpt lat="48.66069" lon="1.85891">
        <ele>190.6</ele>
        <time>2026-01-13T12:41:24Z</time>
      </trkpt>
      <trkpt lat="48.66068" lon="1.85897">
        <ele>190.6</ele>
        <time>2026-01-13T12:41:25Z</time>
      </trkpt>
      <trkpt lat="48.66069" lon="1.85904">
        <ele>191.6</ele>
        <time>2026-01-13T12:41:26Z</time>
      </trkpt>
      <trkpt lat="48.66069" lon="1.85912">
        <ele>191.8</ele>
        <time>2026-01-13T12:41:27Z</time>
      </trkpt>
      <trkpt lat="48.6607" lon="1.85919">
        <ele>191.8</ele>
        <time>2026-01-13T12:41:28Z</time>
      </trkpt>
      <trkpt lat="48.66071" lon="1.85928">
        <ele>191.8</ele>
        <time>2026-01-13T12:41:29Z</time>
      </trkpt>
      <trkpt lat="48.66073" lon="1.85936">
        <ele>191.8</ele>
        <time>2026-01-13T12:41:30Z</time>
      </trkpt>
      <trkpt lat="48.66075" lon="1.85945">
        <ele>192</ele>
        <time>2026-01-13T12:41:31Z</time>
      </trkpt>
      <trkpt lat="48.66077" lon="1.85953">
        <ele>192.4</ele>
        <time>2026-01-13T12:41:32Z</time>
      </trkpt>
      <trkpt lat="48.66079" lon="1.85961">
        <ele>192.4</ele>
        <time>2026-01-13T12:41:33Z</time>
      </trkpt>
      <trkpt lat="48.66081" lon="1.8597">
        <ele>192.4</ele>
        <time>2026-01-13T12:41:34Z</time>
      </trkpt>
      <trkpt lat="48.66083" lon="1.85979">
        <ele>191.4</ele>
        <time>2026-01-13T12:41:35Z</time>
      </trkpt>
      <trkpt lat="48.66085" lon="1.85989">
        <ele>190.8</ele>
        <time>2026-01-13T12:41:36Z</time>
      </trkpt>
      <trkpt lat="48.66087" lon="1.85998">
        <ele>190.8</ele>
        <time>2026-01-13T12:41:37Z</time>
      </trkpt>
      <trkpt lat="48.6609" lon="1.86007">
        <ele>190.8</ele>
        <time>2026-01-13T12:41:38Z</time>
      </trkpt>
      <trkpt lat="48.66093" lon="1.86016">
        <ele>191.2</ele>
        <time>2026-01-13T12:41:39Z</time>
      </trkpt>
      <trkpt lat="48.66095" lon="1.86026">
        <ele>191.2</ele>
        <time>2026-01-13T12:41:40Z</time>
      </trkpt>
      <trkpt lat="48.66097" lon="1.86035">
        <ele>191.2</ele>
        <time>2026-01-13T12:41:41Z</time>
      </trkpt>
      <trkpt lat="48.66098" lon="1.86044">
        <ele>190.8</ele>
        <time>2026-01-13T12:41:42Z</time>
      </trkpt>
      <trkpt lat="48.661" lon="1.86054">
        <ele>190.8</ele>
        <time>2026-01-13T12:41:43Z</time>
      </trkpt>
      <trkpt lat="48.66102" lon="1.86063">
        <ele>190.8</ele>
        <time>2026-01-13T12:41:44Z</time>
      </trkpt>
      <trkpt lat="48.66104" lon="1.86072">
        <ele>191.2</ele>
        <time>2026-01-13T12:41:45Z</time>
      </trkpt>
      <trkpt lat="48.66106" lon="1.86081">
        <ele>191.2</ele>
        <time>2026-01-13T12:41:46Z</time>
      </trkpt>
      <trkpt lat="48.66108" lon="1.8609">
        <ele>191.2</ele>
        <time>2026-01-13T12:41:47Z</time>
      </trkpt>
      <trkpt lat="48.6611" lon="1.86098">
        <ele>190.2</ele>
        <time>2026-01-13T12:41:48Z</time>
      </trkpt>
      <trkpt lat="48.66112" lon="1.86107">
        <ele>190.2</ele>
        <time>2026-01-13T12:41:49Z</time>
      </trkpt>
      <trkpt lat="48.66114" lon="1.86116">
        <ele>190.2</ele>
        <time>2026-01-13T12:41:50Z</time>
      </trkpt>
      <trkpt lat="48.66116" lon="1.86126">
        <ele>190.4</ele>
        <time>2026-01-13T12:41:51Z</time>
      </trkpt>
      <trkpt lat="48.66118" lon="1.86135">
        <ele>191.4</ele>
        <time>2026-01-13T12:41:52Z</time>
      </trkpt>
      <trkpt lat="48.66119" lon="1.86144">
        <ele>191.4</ele>
        <time>2026-01-13T12:41:53Z</time>
      </trkpt>
      <trkpt lat="48.66121" lon="1.86154">
        <ele>191.4</ele>
        <time>2026-01-13T12:41:54Z</time>
      </trkpt>
      <trkpt lat="48.66123" lon="1.86163">
        <ele>190.4</ele>
        <time>2026-01-13T12:41:55Z</time>
      </trkpt>
      <trkpt lat="48.66125" lon="1.86173">
        <ele>190</ele>
        <time>2026-01-13T12:41:56Z</time>
      </trkpt>
      <trkpt lat="48.66127" lon="1.86182">
        <ele>190</ele>
        <time>2026-01-13T12:41:57Z</time>
      </trkpt>
      <trkpt lat="48.66129" lon="1.86191">
        <ele>190</ele>
        <time>2026-01-13T12:41:58Z</time>
      </trkpt>
      <trkpt lat="48.66131" lon="1.862">
        <ele>190.2</ele>
        <time>2026-01-13T12:41:59Z</time>
      </trkpt>
      <trkpt lat="48.66133" lon="1.86209">
        <ele>190.2</ele>
        <time>2026-01-13T12:42:00Z</time>
      </trkpt>
      <trkpt lat="48.66135" lon="1.86218">
        <ele>190.2</ele>
        <time>2026-01-13T12:42:01Z</time>
      </trkpt>
      <trkpt lat="48.66137" lon="1.86227">
        <ele>190.2</ele>
        <time>2026-01-13T12:42:02Z</time>
      </trkpt>
      <trkpt lat="48.66139" lon="1.86236">
        <ele>190.2</ele>
        <time>2026-01-13T12:42:03Z</time>
      </trkpt>
      <trkpt lat="48.66141" lon="1.86246">
        <ele>190.2</ele>
        <time>2026-01-13T12:42:04Z</time>
      </trkpt>
      <trkpt lat="48.66143" lon="1.86256">
        <ele>190</ele>
        <time>2026-01-13T12:42:05Z</time>
      </trkpt>
      <trkpt lat="48.66145" lon="1.86265">
        <ele>189.8</ele>
        <time>2026-01-13T12:42:06Z</time>
      </trkpt>
      <trkpt lat="48.66147" lon="1.86275">
        <ele>189.8</ele>
        <time>2026-01-13T12:42:07Z</time>
      </trkpt>
      <trkpt lat="48.66149" lon="1.86285">
        <ele>189.8</ele>
        <time>2026-01-13T12:42:08Z</time>
      </trkpt>
      <trkpt lat="48.66151" lon="1.86294">
        <ele>189.8</ele>
        <time>2026-01-13T12:42:09Z</time>
      </trkpt>
      <trkpt lat="48.66153" lon="1.86304">
        <ele>190.8</ele>
        <time>2026-01-13T12:42:10Z</time>
      </trkpt>
      <trkpt lat="48.66155" lon="1.86313">
        <ele>190.8</ele>
        <time>2026-01-13T12:42:11Z</time>
      </trkpt>
      <trkpt lat="48.66157" lon="1.86323">
        <ele>190.8</ele>
        <time>2026-01-13T12:42:12Z</time>
      </trkpt>
      <trkpt lat="48.66159" lon="1.86333">
        <ele>190.4</ele>
        <time>2026-01-13T12:42:13Z</time>
      </trkpt>
      <trkpt lat="48.66161" lon="1.86342">
        <ele>189.8</ele>
        <time>2026-01-13T12:42:14Z</time>
      </trkpt>
      <trkpt lat="48.66163" lon="1.86352">
        <ele>189.8</ele>
        <time>2026-01-13T12:42:15Z</time>
      </trkpt>
      <trkpt lat="48.66165" lon="1.86362">
        <ele>189.8</ele>
        <time>2026-01-13T12:42:16Z</time>
      </trkpt>
      <trkpt lat="48.66167" lon="1.86372">
        <ele>189.8</ele>
        <time>2026-01-13T12:42:17Z</time>
      </trkpt>
      <trkpt lat="48.66169" lon="1.86382">
        <ele>190.2</ele>
        <time>2026-01-13T12:42:18Z</time>
      </trkpt>
      <trkpt lat="48.66171" lon="1.86392">
        <ele>190.2</ele>
        <time>2026-01-13T12:42:19Z</time>
      </trkpt>
      <trkpt lat="48.66173" lon="1.86402">
        <ele>190.2</ele>
        <time>2026-01-13T12:42:20Z</time>
      </trkpt>
      <trkpt lat="48.66175" lon="1.86412">
        <ele>190.2</ele>
        <time>2026-01-13T12:42:21Z</time>
      </trkpt>
      <trkpt lat="48.66177" lon="1.86422">
        <ele>190.2</ele>
        <time>2026-01-13T12:42:22Z</time>
      </trkpt>
      <trkpt lat="48.66179" lon="1.86433">
        <ele>190.2</ele>
        <time>2026-01-13T12:42:23Z</time>
      </trkpt>
      <trkpt lat="48.66182" lon="1.86443">
        <ele>190.2</ele>
        <time>2026-01-13T12:42:24Z</time>
      </trkpt>
      <trkpt lat="48.66184" lon="1.86453">
        <ele>189.6</ele>
        <time>2026-01-13T12:42:25Z</time>
      </trkpt>
      <trkpt lat="48.66186" lon="1.86464">
        <ele>189</ele>
        <time>2026-01-13T12:42:26Z</time>
      </trkpt>
      <trkpt lat="48.66188" lon="1.86474">
        <ele>189</ele>
        <time>2026-01-13T12:42:27Z</time>
      </trkpt>
      <trkpt lat="48.6619" lon="1.86484">
        <ele>189</ele>
        <time>2026-01-13T12:42:28Z</time>
      </trkpt>
      <trkpt lat="48.66193" lon="1.86495">
        <ele>189</ele>
        <time>2026-01-13T12:42:29Z</time>
      </trkpt>
      <trkpt lat="48.66195" lon="1.86505">
        <ele>189</ele>
        <time>2026-01-13T12:42:30Z</time>
      </trkpt>
      <trkpt lat="48.66197" lon="1.86515">
        <ele>189</ele>
        <time>2026-01-13T12:42:31Z</time>
      </trkpt>
      <trkpt lat="48.66199" lon="1.86525">
        <ele>188.8</ele>
        <time>2026-01-13T12:42:32Z</time>
      </trkpt>
      <trkpt lat="48.66201" lon="1.86535">
        <ele>188.8</ele>
        <time>2026-01-13T12:42:33Z</time>
      </trkpt>
      <trkpt lat="48.66203" lon="1.86545">
        <ele>188.8</ele>
        <time>2026-01-13T12:42:34Z</time>
      </trkpt>
      <trkpt lat="48.66206" lon="1.86556">
        <ele>188.8</ele>
        <time>2026-01-13T12:42:35Z</time>
      </trkpt>
      <trkpt lat="48.66208" lon="1.86566">
        <ele>188.8</ele>
        <time>2026-01-13T12:42:36Z</time>
      </trkpt>
      <trkpt lat="48.6621" lon="1.86576">
        <ele>188.8</ele>
        <time>2026-01-13T12:42:37Z</time>
      </trkpt>
      <trkpt lat="48.66213" lon="1.86586">
        <ele>188</ele>
        <time>2026-01-13T12:42:38Z</time>
      </trkpt>
      <trkpt lat="48.66215" lon="1.86597">
        <ele>188</ele>
        <time>2026-01-13T12:42:39Z</time>
      </trkpt>
      <trkpt lat="48.66217" lon="1.86608">
        <ele>188</ele>
        <time>2026-01-13T12:42:40Z</time>
      </trkpt>
      <trkpt lat="48.66219" lon="1.86619">
        <ele>188.6</ele>
        <time>2026-01-13T12:42:41Z</time>
      </trkpt>
      <trkpt lat="48.66222" lon="1.8663">
        <ele>188.6</ele>
        <time>2026-01-13T12:42:42Z</time>
      </trkpt>
      <trkpt lat="48.66224" lon="1.86641">
        <ele>188.6</ele>
        <time>2026-01-13T12:42:43Z</time>
      </trkpt>
      <trkpt lat="48.66226" lon="1.86652">
        <ele>188.6</ele>
        <time>2026-01-13T12:42:44Z</time>
      </trkpt>
      <trkpt lat="48.66229" lon="1.86662">
        <ele>188.6</ele>
        <time>2026-01-13T12:42:45Z</time>
      </trkpt>
      <trkpt lat="48.66231" lon="1.86674">
        <ele>188.6</ele>
        <time>2026-01-13T12:42:46Z</time>
      </trkpt>
      <trkpt lat="48.66233" lon="1.86685">
        <ele>188.6</ele>
        <time>2026-01-13T12:42:47Z</time>
      </trkpt>
      <trkpt lat="48.66236" lon="1.86696">
        <ele>188.6</ele>
        <time>2026-01-13T12:42:48Z</time>
      </trkpt>
      <trkpt lat="48.66238" lon="1.86706">
        <ele>188.6</ele>
        <time>2026-01-13T12:42:49Z</time>
      </trkpt>
      <trkpt lat="48.66239" lon="1.86718">
        <ele>187.6</ele>
        <time>2026-01-13T12:42:50Z</time>
      </trkpt>
      <trkpt lat="48.6624" lon="1.8673">
        <ele>187.6</ele>
        <time>2026-01-13T12:42:51Z</time>
      </trkpt>
      <trkpt lat="48.66242" lon="1.86742">
        <ele>187.6</ele>
        <time>2026-01-13T12:42:52Z</time>
      </trkpt>
      <trkpt lat="48.66244" lon="1.86754">
        <ele>187.6</ele>
        <time>2026-01-13T12:42:53Z</time>
      </trkpt>
      <trkpt lat="48.66246" lon="1.86766">
        <ele>187</ele>
        <time>2026-01-13T12:42:54Z</time>
      </trkpt>
      <trkpt lat="48.66248" lon="1.86778">
        <ele>186.4</ele>
        <time>2026-01-13T12:42:55Z</time>
      </trkpt>
      <trkpt lat="48.6625" lon="1.8679">
        <ele>186.4</ele>
        <time>2026-01-13T12:42:56Z</time>
      </trkpt>
      <trkpt lat="48.66252" lon="1.86802">
        <ele>186.4</ele>
        <time>2026-01-13T12:42:57Z</time>
      </trkpt>
      <trkpt lat="48.66255" lon="1.86814">
        <ele>186.4</ele>
        <time>2026-01-13T12:42:58Z</time>
      </trkpt>
      <trkpt lat="48.66258" lon="1.86827">
        <ele>186.4</ele>
        <time>2026-01-13T12:42:59Z</time>
      </trkpt>
      <trkpt lat="48.6626" lon="1.86839">
        <ele>186.4</ele>
        <time>2026-01-13T12:43:00Z</time>
      </trkpt>
      <trkpt lat="48.66262" lon="1.86852">
        <ele>186.4</ele>
        <time>2026-01-13T12:43:01Z</time>
      </trkpt>
      <trkpt lat="48.66265" lon="1.86864">
        <ele>186</ele>
        <time>2026-01-13T12:43:02Z</time>
      </trkpt>
      <trkpt lat="48.66267" lon="1.86876">
        <ele>186</ele>
        <time>2026-01-13T12:43:03Z</time>
      </trkpt>
      <trkpt lat="48.6627" lon="1.86888">
        <ele>186</ele>
        <time>2026-01-13T12:43:04Z</time>
      </trkpt>
      <trkpt lat="48.66273" lon="1.869">
        <ele>186</ele>
        <time>2026-01-13T12:43:05Z</time>
      </trkpt>
      <trkpt lat="48.66275" lon="1.86913">
        <ele>186</ele>
        <time>2026-01-13T12:43:06Z</time>
      </trkpt>
      <trkpt lat="48.66278" lon="1.86925">
        <ele>185.2</ele>
        <time>2026-01-13T12:43:07Z</time>
      </trkpt>
      <trkpt lat="48.6628" lon="1.86937">
        <ele>184.2</ele>
        <time>2026-01-13T12:43:08Z</time>
      </trkpt>
      <trkpt lat="48.66283" lon="1.86949">
        <ele>184.2</ele>
        <time>2026-01-13T12:43:09Z</time>
      </trkpt>
      <trkpt lat="48.66285" lon="1.86961">
        <ele>184.2</ele>
        <time>2026-01-13T12:43:10Z</time>
      </trkpt>
      <trkpt lat="48.66288" lon="1.86972">
        <ele>184.4</ele>
        <time>2026-01-13T12:43:11Z</time>
      </trkpt>
      <trkpt lat="48.6629" lon="1.86984">
        <ele>184.4</ele>
        <time>2026-01-13T12:43:12Z</time>
      </trkpt>
      <trkpt lat="48.66292" lon="1.86996">
        <ele>184.4</ele>
        <time>2026-01-13T12:43:13Z</time>
      </trkpt>
      <trkpt lat="48.66295" lon="1.87008">
        <ele>184.4</ele>
        <time>2026-01-13T12:43:14Z</time>
      </trkpt>
      <trkpt lat="48.66297" lon="1.8702">
        <ele>184.4</ele>
        <time>2026-01-13T12:43:15Z</time>
      </trkpt>
      <trkpt lat="48.663" lon="1.87031">
        <ele>184.4</ele>
        <time>2026-01-13T12:43:16Z</time>
      </trkpt>
      <trkpt lat="48.66303" lon="1.87043">
        <ele>184.4</ele>
        <time>2026-01-13T12:43:17Z</time>
      </trkpt>
      <trkpt lat="48.66306" lon="1.87055">
        <ele>184.4</ele>
        <time>2026-01-13T12:43:18Z</time>
      </trkpt>
      <trkpt lat="48.66309" lon="1.87067">
        <ele>184.4</ele>
        <time>2026-01-13T12:43:19Z</time>
      </trkpt>
      <trkpt lat="48.66313" lon="1.87078">
        <ele>184</ele>
        <time>2026-01-13T12:43:20Z</time>
      </trkpt>
      <trkpt lat="48.66317" lon="1.8709">
        <ele>183.8</ele>
        <time>2026-01-13T12:43:21Z</time>
      </trkpt>
      <trkpt lat="48.6632" lon="1.87101">
        <ele>183.4</ele>
        <time>2026-01-13T12:43:22Z</time>
      </trkpt>
      <trkpt lat="48.66324" lon="1.87112">
        <ele>183.4</ele>
        <time>2026-01-13T12:43:23Z</time>
      </trkpt>
      <trkpt lat="48.66328" lon="1.87123">
        <ele>183.4</ele>
        <time>2026-01-13T12:43:24Z</time>
      </trkpt>
      <trkpt lat="48.66332" lon="1.87133">
        <ele>184.2</ele>
        <time>2026-01-13T12:43:25Z</time>
      </trkpt>
      <trkpt lat="48.66336" lon="1.87144">
        <ele>184.2</ele>
        <time>2026-01-13T12:43:26Z</time>
      </trkpt>
      <trkpt lat="48.6634" lon="1.87155">
        <ele>184.2</ele>
        <time>2026-01-13T12:43:27Z</time>
      </trkpt>
      <trkpt lat="48.66343" lon="1.87166">
        <ele>183.8</ele>
        <time>2026-01-13T12:43:28Z</time>
      </trkpt>
      <trkpt lat="48.66347" lon="1.87177">
        <ele>183.8</ele>
        <time>2026-01-13T12:43:29Z</time>
      </trkpt>
      <trkpt lat="48.66351" lon="1.87187">
        <ele>183.8</ele>
        <time>2026-01-13T12:43:30Z</time>
      </trkpt>
      <trkpt lat="48.66355" lon="1.87198">
        <ele>183.8</ele>
        <time>2026-01-13T12:43:31Z</time>
      </trkpt>
      <trkpt lat="48.66359" lon="1.87208">
        <ele>183.6</ele>
        <time>2026-01-13T12:43:32Z</time>
      </trkpt>
      <trkpt lat="48.66363" lon="1.87219">
        <ele>183.4</ele>
        <time>2026-01-13T12:43:33Z</time>
      </trkpt>
      <trkpt lat="48.66366" lon="1.87229">
        <ele>183.4</ele>
        <time>2026-01-13T12:43:34Z</time>
      </trkpt>
      <trkpt lat="48.6637" lon="1.87239">
        <ele>183.4</ele>
        <time>2026-01-13T12:43:35Z</time>
      </trkpt>
      <trkpt lat="48.66374" lon="1.8725">
        <ele>184.2</ele>
        <time>2026-01-13T12:43:36Z</time>
      </trkpt>
      <trkpt lat="48.66377" lon="1.8726">
        <ele>184.2</ele>
        <time>2026-01-13T12:43:37Z</time>
      </trkpt>
      <trkpt lat="48.66381" lon="1.87271">
        <ele>184.2</ele>
        <time>2026-01-13T12:43:38Z</time>
      </trkpt>
      <trkpt lat="48.66384" lon="1.87281">
        <ele>183.6</ele>
        <time>2026-01-13T12:43:39Z</time>
      </trkpt>
      <trkpt lat="48.66388" lon="1.87291">
        <ele>182.6</ele>
        <time>2026-01-13T12:43:40Z</time>
      </trkpt>
      <trkpt lat="48.66391" lon="1.87301">
        <ele>182.6</ele>
        <time>2026-01-13T12:43:41Z</time>
      </trkpt>
      <trkpt lat="48.66395" lon="1.87311">
        <ele>182.6</ele>
        <time>2026-01-13T12:43:42Z</time>
      </trkpt>
      <trkpt lat="48.66399" lon="1.87321">
        <ele>182.6</ele>
        <time>2026-01-13T12:43:43Z</time>
      </trkpt>
      <trkpt lat="48.66402" lon="1.87331">
        <ele>182.6</ele>
        <time>2026-01-13T12:43:44Z</time>
      </trkpt>
      <trkpt lat="48.66406" lon="1.87341">
        <ele>182.6</ele>
        <time>2026-01-13T12:43:45Z</time>
      </trkpt>
      <trkpt lat="48.6641" lon="1.87351">
        <ele>182.8</ele>
        <time>2026-01-13T12:43:46Z</time>
      </trkpt>
      <trkpt lat="48.66413" lon="1.8736">
        <ele>183.6</ele>
        <time>2026-01-13T12:43:47Z</time>
      </trkpt>
      <trkpt lat="48.66417" lon="1.8737">
        <ele>184</ele>
        <time>2026-01-13T12:43:48Z</time>
      </trkpt>
      <trkpt lat="48.6642" lon="1.8738">
        <ele>184</ele>
        <time>2026-01-13T12:43:49Z</time>
      </trkpt>
      <trkpt lat="48.66424" lon="1.87389">
        <ele>184</ele>
        <time>2026-01-13T12:43:50Z</time>
      </trkpt>
      <trkpt lat="48.66427" lon="1.87399">
        <ele>184</ele>
        <time>2026-01-13T12:43:51Z</time>
      </trkpt>
      <trkpt lat="48.66431" lon="1.87409">
        <ele>184</ele>
        <time>2026-01-13T12:43:52Z</time>
      </trkpt>
      <trkpt lat="48.66435" lon="1.87418">
        <ele>184</ele>
        <time>2026-01-13T12:43:53Z</time>
      </trkpt>
      <trkpt lat="48.66438" lon="1.87428">
        <ele>184</ele>
        <time>2026-01-13T12:43:54Z</time>
      </trkpt>
      <trkpt lat="48.66442" lon="1.87437">
        <ele>184</ele>
        <time>2026-01-13T12:43:55Z</time>
      </trkpt>
      <trkpt lat="48.66446" lon="1.87446">
        <ele>184</ele>
        <time>2026-01-13T12:43:56Z</time>
      </trkpt>
      <trkpt lat="48.6645" lon="1.87454">
        <ele>184</ele>
        <time>2026-01-13T12:43:57Z</time>
      </trkpt>
      <trkpt lat="48.66455" lon="1.87462">
        <ele>184</ele>
        <time>2026-01-13T12:43:58Z</time>
      </trkpt>
      <trkpt lat="48.66459" lon="1.87471">
        <ele>184.4</ele>
        <time>2026-01-13T12:43:59Z</time>
      </trkpt>
      <trkpt lat="48.66463" lon="1.87478">
        <ele>184.4</ele>
        <time>2026-01-13T12:44:00Z</time>
      </trkpt>
      <trkpt lat="48.66468" lon="1.87485">
        <ele>184.6</ele>
        <time>2026-01-13T12:44:01Z</time>
      </trkpt>
      <trkpt lat="48.66473" lon="1.87492">
        <ele>184.6</ele>
        <time>2026-01-13T12:44:02Z</time>
      </trkpt>
      <trkpt lat="48.66478" lon="1.87498">
        <ele>184.6</ele>
        <time>2026-01-13T12:44:03Z</time>
      </trkpt>
      <trkpt lat="48.66484" lon="1.87504">
        <ele>184.6</ele>
        <time>2026-01-13T12:44:04Z</time>
      </trkpt>
      <trkpt lat="48.66489" lon="1.8751">
        <ele>184.6</ele>
        <time>2026-01-13T12:44:05Z</time>
      </trkpt>
      <trkpt lat="48.66495" lon="1.87516">
        <ele>184.6</ele>
        <time>2026-01-13T12:44:06Z</time>
      </trkpt>
      <trkpt lat="48.665" lon="1.87522">
        <ele>184.6</ele>
        <time>2026-01-13T12:44:07Z</time>
      </trkpt>
      <trkpt lat="48.66506" lon="1.87527">
        <ele>184.6</ele>
        <time>2026-01-13T12:44:08Z</time>
      </trkpt>
      <trkpt lat="48.66512" lon="1.87533">
        <ele>185.2</ele>
        <time>2026-01-13T12:44:09Z</time>
      </trkpt>
      <trkpt lat="48.66517" lon="1.87539">
        <ele>185.2</ele>
        <time>2026-01-13T12:44:10Z</time>
      </trkpt>
      <trkpt lat="48.66522" lon="1.87547">
        <ele>185.2</ele>
        <time>2026-01-13T12:44:11Z</time>
      </trkpt>
      <trkpt lat="48.66526" lon="1.87555">
        <ele>185.2</ele>
        <time>2026-01-13T12:44:12Z</time>
      </trkpt>
      <trkpt lat="48.66529" lon="1.87564">
        <ele>185.2</ele>
        <time>2026-01-13T12:44:13Z</time>
      </trkpt>
      <trkpt lat="48.66532" lon="1.87573">
        <ele>185.2</ele>
        <time>2026-01-13T12:44:14Z</time>
      </trkpt>
      <trkpt lat="48.66535" lon="1.87582">
        <ele>185.2</ele>
        <time>2026-01-13T12:44:15Z</time>
      </trkpt>
      <trkpt lat="48.66537" lon="1.87592">
        <ele>185.2</ele>
        <time>2026-01-13T12:44:16Z</time>
      </trkpt>
      <trkpt lat="48.66539" lon="1.87602">
        <ele>185.2</ele>
        <time>2026-01-13T12:44:17Z</time>
      </trkpt>
      <trkpt lat="48.66541" lon="1.87612">
        <ele>184.8</ele>
        <time>2026-01-13T12:44:18Z</time>
      </trkpt>
      <trkpt lat="48.66543" lon="1.87622">
        <ele>184</ele>
        <time>2026-01-13T12:44:19Z</time>
      </trkpt>
      <trkpt lat="48.66546" lon="1.87631">
        <ele>184</ele>
        <time>2026-01-13T12:44:20Z</time>
      </trkpt>
      <trkpt lat="48.66548" lon="1.8764">
        <ele>184</ele>
        <time>2026-01-13T12:44:21Z</time>
      </trkpt>
      <trkpt lat="48.6655" lon="1.87649">
        <ele>184.6</ele>
        <time>2026-01-13T12:44:22Z</time>
      </trkpt>
      <trkpt lat="48.66551" lon="1.87658">
        <ele>185.4</ele>
        <time>2026-01-13T12:44:23Z</time>
      </trkpt>
      <trkpt lat="48.66553" lon="1.87667">
        <ele>185.4</ele>
        <time>2026-01-13T12:44:24Z</time>
      </trkpt>
      <trkpt lat="48.66555" lon="1.87676">
        <ele>185.4</ele>
        <time>2026-01-13T12:44:25Z</time>
      </trkpt>
      <trkpt lat="48.66557" lon="1.87684">
        <ele>185.4</ele>
        <time>2026-01-13T12:44:26Z</time>
      </trkpt>
      <trkpt lat="48.66559" lon="1.87692">
        <ele>185.4</ele>
        <time>2026-01-13T12:44:27Z</time>
      </trkpt>
      <trkpt lat="48.66561" lon="1.87698">
        <ele>185.8</ele>
        <time>2026-01-13T12:44:28Z</time>
      </trkpt>
      <trkpt lat="48.66563" lon="1.87702">
        <ele>186.2</ele>
        <time>2026-01-13T12:44:29Z</time>
      </trkpt>
      <trkpt lat="48.66564" lon="1.87704">
        <ele>186.4</ele>
        <time>2026-01-13T12:44:30Z</time>
      </trkpt>
      <trkpt lat="48.66564" lon="1.87705">
        <ele>186.6</ele>
        <time>2026-01-13T12:44:31Z</time>
      </trkpt>
      <trkpt lat="48.66564" lon="1.87705">
        <ele>186.6</ele>
        <time>2026-01-13T12:44:32Z</time>
      </trkpt>
      <trkpt lat="48.66564" lon="1.87705">
        <ele>186.6</ele>
        <time>2026-01-13T12:44:33Z</time>
      </trkpt>
      <trkpt lat="48.66564" lon="1.87705">
        <ele>186.2</ele>
        <time>2026-01-13T12:44:34Z</time>
      </trkpt>
      <trkpt lat="48.66569" lon="1.87709">
        <ele>186.2</ele>
        <time>2026-01-13T12:44:41Z</time>
      </trkpt>
      <trkpt lat="48.66573" lon="1.87708">
        <ele>185.8</ele>
        <time>2026-01-13T12:44:42Z</time>
      </trkpt>
      <trkpt lat="48.66576" lon="1.87706">
        <ele>185.8</ele>
        <time>2026-01-13T12:44:43Z</time>
      </trkpt>
      <trkpt lat="48.66581" lon="1.87704">
        <ele>185.6</ele>
        <time>2026-01-13T12:44:44Z</time>
      </trkpt>
      <trkpt lat="48.66585" lon="1.87702">
        <ele>185.6</ele>
        <time>2026-01-13T12:44:45Z</time>
      </trkpt>
      <trkpt lat="48.6659" lon="1.877">
        <ele>185.6</ele>
        <time>2026-01-13T12:44:46Z</time>
      </trkpt>
      <trkpt lat="48.66595" lon="1.87698">
        <ele>185.6</ele>
        <time>2026-01-13T12:44:47Z</time>
      </trkpt>
      <trkpt lat="48.66601" lon="1.87696">
        <ele>184.8</ele>
        <time>2026-01-13T12:44:48Z</time>
      </trkpt>
      <trkpt lat="48.66606" lon="1.87693">
        <ele>184.8</ele>
        <time>2026-01-13T12:44:49Z</time>
      </trkpt>
      <trkpt lat="48.66612" lon="1.8769">
        <ele>184.8</ele>
        <time>2026-01-13T12:44:50Z</time>
      </trkpt>
      <trkpt lat="48.66618" lon="1.87689">
        <ele>185.8</ele>
        <time>2026-01-13T12:44:51Z</time>
      </trkpt>
      <trkpt lat="48.66624" lon="1.87692">
        <ele>185.8</ele>
        <time>2026-01-13T12:44:52Z</time>
      </trkpt>
      <trkpt lat="48.66628" lon="1.87698">
        <ele>185.8</ele>
        <time>2026-01-13T12:44:53Z</time>
      </trkpt>
      <trkpt lat="48.6663" lon="1.87706">
        <ele>184.8</ele>
        <time>2026-01-13T12:44:54Z</time>
      </trkpt>
      <trkpt lat="48.66632" lon="1.87714">
        <ele>184.8</ele>
        <time>2026-01-13T12:44:55Z</time>
      </trkpt>
      <trkpt lat="48.66633" lon="1.87723">
        <ele>184.4</ele>
        <time>2026-01-13T12:44:56Z</time>
      </trkpt>
      <trkpt lat="48.66635" lon="1.87731">
        <ele>184.4</ele>
        <time>2026-01-13T12:44:57Z</time>
      </trkpt>
      <trkpt lat="48.66637" lon="1.8774">
        <ele>184.4</ele>
        <time>2026-01-13T12:44:58Z</time>
      </trkpt>
      <trkpt lat="48.66639" lon="1.87749">
        <ele>185.4</ele>
        <time>2026-01-13T12:44:59Z</time>
      </trkpt>
      <trkpt lat="48.6664" lon="1.87758">
        <ele>185.6</ele>
        <time>2026-01-13T12:45:00Z</time>
      </trkpt>
      <trkpt lat="48.66642" lon="1.87768">
        <ele>185.6</ele>
        <time>2026-01-13T12:45:01Z</time>
      </trkpt>
      <trkpt lat="48.66644" lon="1.87777">
        <ele>185.6</ele>
        <time>2026-01-13T12:45:02Z</time>
      </trkpt>
      <trkpt lat="48.66645" lon="1.87787">
        <ele>184.6</ele>
        <time>2026-01-13T12:45:03Z</time>
      </trkpt>
      <trkpt lat="48.66647" lon="1.87796">
        <ele>184.6</ele>
        <time>2026-01-13T12:45:04Z</time>
      </trkpt>
      <trkpt lat="48.66649" lon="1.87806">
        <ele>184.4</ele>
        <time>2026-01-13T12:45:05Z</time>
      </trkpt>
      <trkpt lat="48.66651" lon="1.87815">
        <ele>183.4</ele>
        <time>2026-01-13T12:45:06Z</time>
      </trkpt>
      <trkpt lat="48.66653" lon="1.87825">
        <ele>183.4</ele>
        <time>2026-01-13T12:45:07Z</time>
      </trkpt>
      <trkpt lat="48.66655" lon="1.87834">
        <ele>183.4</ele>
        <time>2026-01-13T12:45:08Z</time>
      </trkpt>
      <trkpt lat="48.66657" lon="1.87844">
        <ele>184.4</ele>
        <time>2026-01-13T12:45:09Z</time>
      </trkpt>
      <trkpt lat="48.66658" lon="1.87853">
        <ele>184.6</ele>
        <time>2026-01-13T12:45:10Z</time>
      </trkpt>
      <trkpt lat="48.6666" lon="1.87863">
        <ele>184.6</ele>
        <time>2026-01-13T12:45:11Z</time>
      </trkpt>
      <trkpt lat="48.66662" lon="1.87873">
        <ele>184.6</ele>
        <time>2026-01-13T12:45:12Z</time>
      </trkpt>
      <trkpt lat="48.66664" lon="1.87883">
        <ele>184.6</ele>
        <time>2026-01-13T12:45:13Z</time>
      </trkpt>
      <trkpt lat="48.66665" lon="1.87893">
        <ele>184.6</ele>
        <time>2026-01-13T12:45:14Z</time>
      </trkpt>
      <trkpt lat="48.66667" lon="1.87902">
        <ele>184.6</ele>
        <time>2026-01-13T12:45:15Z</time>
      </trkpt>
      <trkpt lat="48.66669" lon="1.87912">
        <ele>184.6</ele>
        <time>2026-01-13T12:45:16Z</time>
      </trkpt>
      <trkpt lat="48.66671" lon="1.87922">
        <ele>184.6</ele>
        <time>2026-01-13T12:45:17Z</time>
      </trkpt>
      <trkpt lat="48.66673" lon="1.87932">
        <ele>184.6</ele>
        <time>2026-01-13T12:45:18Z</time>
      </trkpt>
      <trkpt lat="48.66675" lon="1.87942">
        <ele>184.6</ele>
        <time>2026-01-13T12:45:19Z</time>
      </trkpt>
      <trkpt lat="48.66677" lon="1.87951">
        <ele>184.6</ele>
        <time>2026-01-13T12:45:20Z</time>
      </trkpt>
      <trkpt lat="48.66679" lon="1.87961">
        <ele>184.6</ele>
        <time>2026-01-13T12:45:21Z</time>
      </trkpt>
      <trkpt lat="48.66681" lon="1.87971">
        <ele>184.4</ele>
        <time>2026-01-13T12:45:22Z</time>
      </trkpt>
      <trkpt lat="48.66683" lon="1.87981">
        <ele>183.4</ele>
        <time>2026-01-13T12:45:23Z</time>
      </trkpt>
      <trkpt lat="48.66685" lon="1.87991">
        <ele>183.4</ele>
        <time>2026-01-13T12:45:24Z</time>
      </trkpt>
      <trkpt lat="48.66686" lon="1.88">
        <ele>183.4</ele>
        <time>2026-01-13T12:45:25Z</time>
      </trkpt>
      <trkpt lat="48.66688" lon="1.8801">
        <ele>184</ele>
        <time>2026-01-13T12:45:26Z</time>
      </trkpt>
      <trkpt lat="48.6669" lon="1.8802">
        <ele>184</ele>
        <time>2026-01-13T12:45:27Z</time>
      </trkpt>
      <trkpt lat="48.66692" lon="1.88029">
        <ele>184</ele>
        <time>2026-01-13T12:45:28Z</time>
      </trkpt>
      <trkpt lat="48.66694" lon="1.88038">
        <ele>184</ele>
        <time>2026-01-13T12:45:29Z</time>
      </trkpt>
      <trkpt lat="48.66696" lon="1.88048">
        <ele>184</ele>
        <time>2026-01-13T12:45:30Z</time>
      </trkpt>
      <trkpt lat="48.66697" lon="1.88057">
        <ele>184</ele>
        <time>2026-01-13T12:45:31Z</time>
      </trkpt>
      <trkpt lat="48.66699" lon="1.88066">
        <ele>184.8</ele>
        <time>2026-01-13T12:45:32Z</time>
      </trkpt>
      <trkpt lat="48.66701" lon="1.88075">
        <ele>184.8</ele>
        <time>2026-01-13T12:45:33Z</time>
      </trkpt>
      <trkpt lat="48.66702" lon="1.88084">
        <ele>184.8</ele>
        <time>2026-01-13T12:45:34Z</time>
      </trkpt>
      <trkpt lat="48.66704" lon="1.88093">
        <ele>184.2</ele>
        <time>2026-01-13T12:45:35Z</time>
      </trkpt>
      <trkpt lat="48.66706" lon="1.88101">
        <ele>184.2</ele>
        <time>2026-01-13T12:45:36Z</time>
      </trkpt>
      <trkpt lat="48.66708" lon="1.8811">
        <ele>184.2</ele>
        <time>2026-01-13T12:45:37Z</time>
      </trkpt>
      <trkpt lat="48.6671" lon="1.88118">
        <ele>184.4</ele>
        <time>2026-01-13T12:45:38Z</time>
      </trkpt>
      <trkpt lat="48.66712" lon="1.88128">
        <ele>184.4</ele>
        <time>2026-01-13T12:45:39Z</time>
      </trkpt>
      <trkpt lat="48.66714" lon="1.88137">
        <ele>184.4</ele>
        <time>2026-01-13T12:45:40Z</time>
      </trkpt>
      <trkpt lat="48.66716" lon="1.88146">
        <ele>184.4</ele>
        <time>2026-01-13T12:45:41Z</time>
      </trkpt>
      <trkpt lat="48.66718" lon="1.88155">
        <ele>184.8</ele>
        <time>2026-01-13T12:45:42Z</time>
      </trkpt>
      <trkpt lat="48.66721" lon="1.88163">
        <ele>185.8</ele>
        <time>2026-01-13T12:45:43Z</time>
      </trkpt>
      <trkpt lat="48.66725" lon="1.88171">
        <ele>185.8</ele>
        <time>2026-01-13T12:45:44Z</time>
      </trkpt>
      <trkpt lat="48.66729" lon="1.88177">
        <ele>185.8</ele>
        <time>2026-01-13T12:45:45Z</time>
      </trkpt>
      <trkpt lat="48.66734" lon="1.88183">
        <ele>185.6</ele>
        <time>2026-01-13T12:45:46Z</time>
      </trkpt>
      <trkpt lat="48.6674" lon="1.88187">
        <ele>185.6</ele>
        <time>2026-01-13T12:45:47Z</time>
      </trkpt>
      <trkpt lat="48.66747" lon="1.88191">
        <ele>185.6</ele>
        <time>2026-01-13T12:45:48Z</time>
      </trkpt>
      <trkpt lat="48.66754" lon="1.88193">
        <ele>185.6</ele>
        <time>2026-01-13T12:45:49Z</time>
      </trkpt>
      <trkpt lat="48.66761" lon="1.88195">
        <ele>185.2</ele>
        <time>2026-01-13T12:45:50Z</time>
      </trkpt>
      <trkpt lat="48.66767" lon="1.88198">
        <ele>185.2</ele>
        <time>2026-01-13T12:45:51Z</time>
      </trkpt>
      <trkpt lat="48.66774" lon="1.88199">
        <ele>185.2</ele>
        <time>2026-01-13T12:45:52Z</time>
      </trkpt>
      <trkpt lat="48.66781" lon="1.88201">
        <ele>186.2</ele>
        <time>2026-01-13T12:45:53Z</time>
      </trkpt>
      <trkpt lat="48.66788" lon="1.88203">
        <ele>186.2</ele>
        <time>2026-01-13T12:45:54Z</time>
      </trkpt>
      <trkpt lat="48.66795" lon="1.88204">
        <ele>186.2</ele>
        <time>2026-01-13T12:45:55Z</time>
      </trkpt>
      <trkpt lat="48.66802" lon="1.88206">
        <ele>186.2</ele>
        <time>2026-01-13T12:45:56Z</time>
      </trkpt>
      <trkpt lat="48.66809" lon="1.88209">
        <ele>186.2</ele>
        <time>2026-01-13T12:45:57Z</time>
      </trkpt>
      <trkpt lat="48.66816" lon="1.88211">
        <ele>186.2</ele>
        <time>2026-01-13T12:45:58Z</time>
      </trkpt>
      <trkpt lat="48.66823" lon="1.88213">
        <ele>185.8</ele>
        <time>2026-01-13T12:45:59Z</time>
      </trkpt>
      <trkpt lat="48.6683" lon="1.88215">
        <ele>185.8</ele>
        <time>2026-01-13T12:46:00Z</time>
      </trkpt>
      <trkpt lat="48.66837" lon="1.88217">
        <ele>185.8</ele>
        <time>2026-01-13T12:46:01Z</time>
      </trkpt>
      <trkpt lat="48.66844" lon="1.88219">
        <ele>185.8</ele>
        <time>2026-01-13T12:46:02Z</time>
      </trkpt>
      <trkpt lat="48.66851" lon="1.88221">
        <ele>185.8</ele>
        <time>2026-01-13T12:46:03Z</time>
      </trkpt>
      <trkpt lat="48.66858" lon="1.88223">
        <ele>185.8</ele>
        <time>2026-01-13T12:46:04Z</time>
      </trkpt>
      <trkpt lat="48.66864" lon="1.88226">
        <ele>185.8</ele>
        <time>2026-01-13T12:46:05Z</time>
      </trkpt>
      <trkpt lat="48.66871" lon="1.88228">
        <ele>185.8</ele>
        <time>2026-01-13T12:46:06Z</time>
      </trkpt>
      <trkpt lat="48.66878" lon="1.8823">
        <ele>185.8</ele>
        <time>2026-01-13T12:46:07Z</time>
      </trkpt>
      <trkpt lat="48.66885" lon="1.88232">
        <ele>185.8</ele>
        <time>2026-01-13T12:46:08Z</time>
      </trkpt>
      <trkpt lat="48.66892" lon="1.88234">
        <ele>186.8</ele>
        <time>2026-01-13T12:46:09Z</time>
      </trkpt>
      <trkpt lat="48.66899" lon="1.88237">
        <ele>186.8</ele>
        <time>2026-01-13T12:46:10Z</time>
      </trkpt>
      <trkpt lat="48.66906" lon="1.88239">
        <ele>186.8</ele>
        <time>2026-01-13T12:46:11Z</time>
      </trkpt>
      <trkpt lat="48.66913" lon="1.88242">
        <ele>186.8</ele>
        <time>2026-01-13T12:46:12Z</time>
      </trkpt>
      <trkpt lat="48.6692" lon="1.88244">
        <ele>186.8</ele>
        <time>2026-01-13T12:46:13Z</time>
      </trkpt>
      <trkpt lat="48.66927" lon="1.88247">
        <ele>186.8</ele>
        <time>2026-01-13T12:46:14Z</time>
      </trkpt>
      <trkpt lat="48.66935" lon="1.8825">
        <ele>186</ele>
        <time>2026-01-13T12:46:15Z</time>
      </trkpt>
      <trkpt lat="48.66942" lon="1.88252">
        <ele>186</ele>
        <time>2026-01-13T12:46:16Z</time>
      </trkpt>
      <trkpt lat="48.66949" lon="1.88255">
        <ele>186</ele>
        <time>2026-01-13T12:46:17Z</time>
      </trkpt>
      <trkpt lat="48.66956" lon="1.88258">
        <ele>186</ele>
        <time>2026-01-13T12:46:18Z</time>
      </trkpt>
      <trkpt lat="48.66964" lon="1.88261">
        <ele>185.8</ele>
        <time>2026-01-13T12:46:19Z</time>
      </trkpt>
      <trkpt lat="48.66971" lon="1.88264">
        <ele>185.8</ele>
        <time>2026-01-13T12:46:20Z</time>
      </trkpt>
      <trkpt lat="48.66978" lon="1.88267">
        <ele>185.8</ele>
        <time>2026-01-13T12:46:21Z</time>
      </trkpt>
      <trkpt lat="48.66985" lon="1.88269">
        <ele>186.2</ele>
        <time>2026-01-13T12:46:22Z</time>
      </trkpt>
      <trkpt lat="48.66993" lon="1.88272">
        <ele>186.4</ele>
        <time>2026-01-13T12:46:23Z</time>
      </trkpt>
      <trkpt lat="48.67" lon="1.88275">
        <ele>186.6</ele>
        <time>2026-01-13T12:46:24Z</time>
      </trkpt>
      <trkpt lat="48.67007" lon="1.88278">
        <ele>186.6</ele>
        <time>2026-01-13T12:46:25Z</time>
      </trkpt>
      <trkpt lat="48.67014" lon="1.88281">
        <ele>186.6</ele>
        <time>2026-01-13T12:46:26Z</time>
      </trkpt>
      <trkpt lat="48.67022" lon="1.88284">
        <ele>186.4</ele>
        <time>2026-01-13T12:46:27Z</time>
      </trkpt>
      <trkpt lat="48.67029" lon="1.88286">
        <ele>186.4</ele>
        <time>2026-01-13T12:46:28Z</time>
      </trkpt>
      <trkpt lat="48.67036" lon="1.88289">
        <ele>186.4</ele>
        <time>2026-01-13T12:46:29Z</time>
      </trkpt>
      <trkpt lat="48.67044" lon="1.88292">
        <ele>186.8</ele>
        <time>2026-01-13T12:46:30Z</time>
      </trkpt>
      <trkpt lat="48.67051" lon="1.88295">
        <ele>186.8</ele>
        <time>2026-01-13T12:46:31Z</time>
      </trkpt>
      <trkpt lat="48.67059" lon="1.88298">
        <ele>186.8</ele>
        <time>2026-01-13T12:46:32Z</time>
      </trkpt>
      <trkpt lat="48.67066" lon="1.88301">
        <ele>186.8</ele>
        <time>2026-01-13T12:46:33Z</time>
      </trkpt>
      <trkpt lat="48.67074" lon="1.88304">
        <ele>186.4</ele>
        <time>2026-01-13T12:46:34Z</time>
      </trkpt>
      <trkpt lat="48.67082" lon="1.88307">
        <ele>186.2</ele>
        <time>2026-01-13T12:46:35Z</time>
      </trkpt>
      <trkpt lat="48.67089" lon="1.8831">
        <ele>186.2</ele>
        <time>2026-01-13T12:46:36Z</time>
      </trkpt>
      <trkpt lat="48.67097" lon="1.88313">
        <ele>186.2</ele>
        <time>2026-01-13T12:46:37Z</time>
      </trkpt>
      <trkpt lat="48.67105" lon="1.88316">
        <ele>186.2</ele>
        <time>2026-01-13T12:46:38Z</time>
      </trkpt>
      <trkpt lat="48.67113" lon="1.88319">
        <ele>186.2</ele>
        <time>2026-01-13T12:46:39Z</time>
      </trkpt>
      <trkpt lat="48.67121" lon="1.88322">
        <ele>186.6</ele>
        <time>2026-01-13T12:46:40Z</time>
      </trkpt>
      <trkpt lat="48.67129" lon="1.88325">
        <ele>186.8</ele>
        <time>2026-01-13T12:46:41Z</time>
      </trkpt>
      <trkpt lat="48.67137" lon="1.88328">
        <ele>186.8</ele>
        <time>2026-01-13T12:46:42Z</time>
      </trkpt>
      <trkpt lat="48.67146" lon="1.88331">
        <ele>186.8</ele>
        <time>2026-01-13T12:46:43Z</time>
      </trkpt>
      <trkpt lat="48.67154" lon="1.88334">
        <ele>186.8</ele>
        <time>2026-01-13T12:46:44Z</time>
      </trkpt>
      <trkpt lat="48.67162" lon="1.88337">
        <ele>186.8</ele>
        <time>2026-01-13T12:46:45Z</time>
      </trkpt>
      <trkpt lat="48.6717" lon="1.8834">
        <ele>186.8</ele>
        <time>2026-01-13T12:46:46Z</time>
      </trkpt>
      <trkpt lat="48.67177" lon="1.88343">
        <ele>186.8</ele>
        <time>2026-01-13T12:46:47Z</time>
      </trkpt>
      <trkpt lat="48.67184" lon="1.88347">
        <ele>186.8</ele>
        <time>2026-01-13T12:46:48Z</time>
      </trkpt>
      <trkpt lat="48.67189" lon="1.88354">
        <ele>186.8</ele>
        <time>2026-01-13T12:46:49Z</time>
      </trkpt>
      <trkpt lat="48.67191" lon="1.88363">
        <ele>186.8</ele>
        <time>2026-01-13T12:46:50Z</time>
      </trkpt>
      <trkpt lat="48.67192" lon="1.88372">
        <ele>186.8</ele>
        <time>2026-01-13T12:46:51Z</time>
      </trkpt>
      <trkpt lat="48.67191" lon="1.88382">
        <ele>186.8</ele>
        <time>2026-01-13T12:46:52Z</time>
      </trkpt>
      <trkpt lat="48.67188" lon="1.88391">
        <ele>186.8</ele>
        <time>2026-01-13T12:46:53Z</time>
      </trkpt>
      <trkpt lat="48.67186" lon="1.884">
        <ele>185.8</ele>
        <time>2026-01-13T12:46:54Z</time>
      </trkpt>
      <trkpt lat="48.67184" lon="1.8841">
        <ele>185.4</ele>
        <time>2026-01-13T12:46:55Z</time>
      </trkpt>
      <trkpt lat="48.67183" lon="1.88419">
        <ele>185.4</ele>
        <time>2026-01-13T12:46:56Z</time>
      </trkpt>
      <trkpt lat="48.67181" lon="1.88429">
        <ele>185.4</ele>
        <time>2026-01-13T12:46:57Z</time>
      </trkpt>
      <trkpt lat="48.6718" lon="1.88439">
        <ele>186</ele>
        <time>2026-01-13T12:46:58Z</time>
      </trkpt>
      <trkpt lat="48.67178" lon="1.8845">
        <ele>186</ele>
        <time>2026-01-13T12:46:59Z</time>
      </trkpt>
      <trkpt lat="48.67177" lon="1.8846">
        <ele>186</ele>
        <time>2026-01-13T12:47:00Z</time>
      </trkpt>
      <trkpt lat="48.67176" lon="1.8847">
        <ele>186</ele>
        <time>2026-01-13T12:47:01Z</time>
      </trkpt>
      <trkpt lat="48.67174" lon="1.8848">
        <ele>186</ele>
        <time>2026-01-13T12:47:02Z</time>
      </trkpt>
      <trkpt lat="48.67173" lon="1.8849">
        <ele>186</ele>
        <time>2026-01-13T12:47:03Z</time>
      </trkpt>
      <trkpt lat="48.67171" lon="1.885">
        <ele>186</ele>
        <time>2026-01-13T12:47:04Z</time>
      </trkpt>
      <trkpt lat="48.6717" lon="1.8851">
        <ele>186</ele>
        <time>2026-01-13T12:47:05Z</time>
      </trkpt>
      <trkpt lat="48.67169" lon="1.8852">
        <ele>186</ele>
        <time>2026-01-13T12:47:06Z</time>
      </trkpt>
      <trkpt lat="48.67167" lon="1.8853">
        <ele>186.4</ele>
        <time>2026-01-13T12:47:07Z</time>
      </trkpt>
      <trkpt lat="48.67166" lon="1.88541">
        <ele>186.4</ele>
        <time>2026-01-13T12:47:08Z</time>
      </trkpt>
      <trkpt lat="48.67164" lon="1.88551">
        <ele>186.4</ele>
        <time>2026-01-13T12:47:09Z</time>
      </trkpt>
      <trkpt lat="48.67163" lon="1.88561">
        <ele>186.4</ele>
        <time>2026-01-13T12:47:10Z</time>
      </trkpt>
      <trkpt lat="48.67161" lon="1.88571">
        <ele>185.8</ele>
        <time>2026-01-13T12:47:11Z</time>
      </trkpt>
      <trkpt lat="48.6716" lon="1.88581">
        <ele>184.8</ele>
        <time>2026-01-13T12:47:12Z</time>
      </trkpt>
      <trkpt lat="48.67158" lon="1.88591">
        <ele>184.8</ele>
        <time>2026-01-13T12:47:13Z</time>
      </trkpt>
      <trkpt lat="48.67157" lon="1.88601">
        <ele>184.8</ele>
        <time>2026-01-13T12:47:14Z</time>
      </trkpt>
      <trkpt lat="48.67156" lon="1.88611">
        <ele>185.8</ele>
        <time>2026-01-13T12:47:15Z</time>
      </trkpt>
      <trkpt lat="48.67155" lon="1.88621">
        <ele>186.8</ele>
        <time>2026-01-13T12:47:16Z</time>
      </trkpt>
      <trkpt lat="48.67155" lon="1.88631">
        <ele>186.8</ele>
        <time>2026-01-13T12:47:17Z</time>
      </trkpt>
      <trkpt lat="48.67155" lon="1.88642">
        <ele>186.8</ele>
        <time>2026-01-13T12:47:18Z</time>
      </trkpt>
      <trkpt lat="48.67155" lon="1.88652">
        <ele>185.8</ele>
        <time>2026-01-13T12:47:19Z</time>
      </trkpt>
      <trkpt lat="48.67156" lon="1.88661">
        <ele>185.4</ele>
        <time>2026-01-13T12:47:20Z</time>
      </trkpt>
      <trkpt lat="48.67157" lon="1.88671">
        <ele>185.4</ele>
        <time>2026-01-13T12:47:21Z</time>
      </trkpt>
      <trkpt lat="48.67158" lon="1.88681">
        <ele>185.4</ele>
        <time>2026-01-13T12:47:22Z</time>
      </trkpt>
      <trkpt lat="48.67159" lon="1.8869">
        <ele>185.4</ele>
        <time>2026-01-13T12:47:23Z</time>
      </trkpt>
      <trkpt lat="48.67161" lon="1.887">
        <ele>186.4</ele>
        <time>2026-01-13T12:47:24Z</time>
      </trkpt>
      <trkpt lat="48.67162" lon="1.88709">
        <ele>186.4</ele>
        <time>2026-01-13T12:47:25Z</time>
      </trkpt>
      <trkpt lat="48.67164" lon="1.88719">
        <ele>186.4</ele>
        <time>2026-01-13T12:47:26Z</time>
      </trkpt>
      <trkpt lat="48.67165" lon="1.88728">
        <ele>186.2</ele>
        <time>2026-01-13T12:47:27Z</time>
      </trkpt>
      <trkpt lat="48.67167" lon="1.88738">
        <ele>185.8</ele>
        <time>2026-01-13T12:47:28Z</time>
      </trkpt>
      <trkpt lat="48.67168" lon="1.88748">
        <ele>185.8</ele>
        <time>2026-01-13T12:47:29Z</time>
      </trkpt>
      <trkpt lat="48.6717" lon="1.88757">
        <ele>185.8</ele>
        <time>2026-01-13T12:47:30Z</time>
      </trkpt>
      <trkpt lat="48.67171" lon="1.88767">
        <ele>185.8</ele>
        <time>2026-01-13T12:47:31Z</time>
      </trkpt>
      <trkpt lat="48.67173" lon="1.88777">
        <ele>185.8</ele>
        <time>2026-01-13T12:47:32Z</time>
      </trkpt>
      <trkpt lat="48.67174" lon="1.88786">
        <ele>186.6</ele>
        <time>2026-01-13T12:47:33Z</time>
      </trkpt>
      <trkpt lat="48.67176" lon="1.88796">
        <ele>186.6</ele>
        <time>2026-01-13T12:47:34Z</time>
      </trkpt>
      <trkpt lat="48.67177" lon="1.88806">
        <ele>186.6</ele>
        <time>2026-01-13T12:47:35Z</time>
      </trkpt>
      <trkpt lat="48.67179" lon="1.88816">
        <ele>186.6</ele>
        <time>2026-01-13T12:47:36Z</time>
      </trkpt>
      <trkpt lat="48.67181" lon="1.88826">
        <ele>186.6</ele>
        <time>2026-01-13T12:47:37Z</time>
      </trkpt>
      <trkpt lat="48.67183" lon="1.88836">
        <ele>186.6</ele>
        <time>2026-01-13T12:47:38Z</time>
      </trkpt>
      <trkpt lat="48.67184" lon="1.88846">
        <ele>186.6</ele>
        <time>2026-01-13T12:47:39Z</time>
      </trkpt>
      <trkpt lat="48.67186" lon="1.88856">
        <ele>186.6</ele>
        <time>2026-01-13T12:47:40Z</time>
      </trkpt>
      <trkpt lat="48.67188" lon="1.88866">
        <ele>186.6</ele>
        <time>2026-01-13T12:47:41Z</time>
      </trkpt>
      <trkpt lat="48.6719" lon="1.88876">
        <ele>186.6</ele>
        <time>2026-01-13T12:47:42Z</time>
      </trkpt>
      <trkpt lat="48.67192" lon="1.88887">
        <ele>186.6</ele>
        <time>2026-01-13T12:47:43Z</time>
      </trkpt>
      <trkpt lat="48.67194" lon="1.88897">
        <ele>186.2</ele>
        <time>2026-01-13T12:47:44Z</time>
      </trkpt>
      <trkpt lat="48.67197" lon="1.88909">
        <ele>185.6</ele>
        <time>2026-01-13T12:47:45Z</time>
      </trkpt>
      <trkpt lat="48.672" lon="1.8892">
        <ele>185.6</ele>
        <time>2026-01-13T12:47:46Z</time>
      </trkpt>
      <trkpt lat="48.67202" lon="1.88931">
        <ele>185.6</ele>
        <time>2026-01-13T12:47:47Z</time>
      </trkpt>
      <trkpt lat="48.67205" lon="1.88942">
        <ele>185.6</ele>
        <time>2026-01-13T12:47:48Z</time>
      </trkpt>
      <trkpt lat="48.67207" lon="1.88953">
        <ele>185.6</ele>
        <time>2026-01-13T12:47:49Z</time>
      </trkpt>
      <trkpt lat="48.6721" lon="1.88964">
        <ele>185.8</ele>
        <time>2026-01-13T12:47:50Z</time>
      </trkpt>
      <trkpt lat="48.67211" lon="1.88976">
        <ele>186</ele>
        <time>2026-01-13T12:47:51Z</time>
      </trkpt>
      <trkpt lat="48.67213" lon="1.88986">
        <ele>186.2</ele>
        <time>2026-01-13T12:47:52Z</time>
      </trkpt>
      <trkpt lat="48.67215" lon="1.88997">
        <ele>186.2</ele>
        <time>2026-01-13T12:47:53Z</time>
      </trkpt>
      <trkpt lat="48.67216" lon="1.89009">
        <ele>186.2</ele>
        <time>2026-01-13T12:47:54Z</time>
      </trkpt>
      <trkpt lat="48.67218" lon="1.8902">
        <ele>186.2</ele>
        <time>2026-01-13T12:47:55Z</time>
      </trkpt>
      <trkpt lat="48.67219" lon="1.89031">
        <ele>186</ele>
        <time>2026-01-13T12:47:56Z</time>
      </trkpt>
      <trkpt lat="48.67221" lon="1.89042">
        <ele>186</ele>
        <time>2026-01-13T12:47:57Z</time>
      </trkpt>
      <trkpt lat="48.67222" lon="1.89053">
        <ele>186</ele>
        <time>2026-01-13T12:47:58Z</time>
      </trkpt>
      <trkpt lat="48.67224" lon="1.89063">
        <ele>186</ele>
        <time>2026-01-13T12:47:59Z</time>
      </trkpt>
      <trkpt lat="48.67225" lon="1.89074">
        <ele>186</ele>
        <time>2026-01-13T12:48:00Z</time>
      </trkpt>
      <trkpt lat="48.67227" lon="1.89084">
        <ele>186.6</ele>
        <time>2026-01-13T12:48:01Z</time>
      </trkpt>
      <trkpt lat="48.67228" lon="1.89095">
        <ele>186.8</ele>
        <time>2026-01-13T12:48:02Z</time>
      </trkpt>
      <trkpt lat="48.67229" lon="1.89105">
        <ele>186.8</ele>
        <time>2026-01-13T12:48:03Z</time>
      </trkpt>
      <trkpt lat="48.67231" lon="1.89115">
        <ele>186.8</ele>
        <time>2026-01-13T12:48:04Z</time>
      </trkpt>
      <trkpt lat="48.67232" lon="1.89126">
        <ele>186.8</ele>
        <time>2026-01-13T12:48:05Z</time>
      </trkpt>
      <trkpt lat="48.67234" lon="1.89136">
        <ele>186.8</ele>
        <time>2026-01-13T12:48:06Z</time>
      </trkpt>
      <trkpt lat="48.67235" lon="1.89146">
        <ele>187.4</ele>
        <time>2026-01-13T12:48:07Z</time>
      </trkpt>
      <trkpt lat="48.67237" lon="1.89156">
        <ele>187.4</ele>
        <time>2026-01-13T12:48:08Z</time>
      </trkpt>
      <trkpt lat="48.67239" lon="1.89166">
        <ele>187.4</ele>
        <time>2026-01-13T12:48:09Z</time>
      </trkpt>
      <trkpt lat="48.67241" lon="1.89177">
        <ele>186.8</ele>
        <time>2026-01-13T12:48:10Z</time>
      </trkpt>
      <trkpt lat="48.67243" lon="1.89188">
        <ele>186.2</ele>
        <time>2026-01-13T12:48:11Z</time>
      </trkpt>
      <trkpt lat="48.67246" lon="1.892">
        <ele>186</ele>
        <time>2026-01-13T12:48:12Z</time>
      </trkpt>
      <trkpt lat="48.67249" lon="1.89211">
        <ele>186</ele>
        <time>2026-01-13T12:48:13Z</time>
      </trkpt>
      <trkpt lat="48.67252" lon="1.89222">
        <ele>186</ele>
        <time>2026-01-13T12:48:14Z</time>
      </trkpt>
      <trkpt lat="48.67255" lon="1.89233">
        <ele>186</ele>
        <time>2026-01-13T12:48:15Z</time>
      </trkpt>
      <trkpt lat="48.67258" lon="1.89245">
        <ele>185.6</ele>
        <time>2026-01-13T12:48:16Z</time>
      </trkpt>
      <trkpt lat="48.67261" lon="1.89256">
        <ele>185.4</ele>
        <time>2026-01-13T12:48:17Z</time>
      </trkpt>
      <trkpt lat="48.67264" lon="1.89266">
        <ele>185.4</ele>
        <time>2026-01-13T12:48:18Z</time>
      </trkpt>
      <trkpt lat="48.67267" lon="1.89277">
        <ele>185.4</ele>
        <time>2026-01-13T12:48:19Z</time>
      </trkpt>
      <trkpt lat="48.6727" lon="1.89288">
        <ele>185.4</ele>
        <time>2026-01-13T12:48:20Z</time>
      </trkpt>
      <trkpt lat="48.67273" lon="1.89299">
        <ele>185.8</ele>
        <time>2026-01-13T12:48:21Z</time>
      </trkpt>
      <trkpt lat="48.67276" lon="1.89309">
        <ele>186.2</ele>
        <time>2026-01-13T12:48:22Z</time>
      </trkpt>
      <trkpt lat="48.67279" lon="1.8932">
        <ele>186.8</ele>
        <time>2026-01-13T12:48:23Z</time>
      </trkpt>
      <trkpt lat="48.67282" lon="1.8933">
        <ele>186.8</ele>
        <time>2026-01-13T12:48:24Z</time>
      </trkpt>
      <trkpt lat="48.67285" lon="1.8934">
        <ele>186.8</ele>
        <time>2026-01-13T12:48:25Z</time>
      </trkpt>
      <trkpt lat="48.67288" lon="1.89351">
        <ele>186.8</ele>
        <time>2026-01-13T12:48:26Z</time>
      </trkpt>
      <trkpt lat="48.67291" lon="1.89362">
        <ele>186.6</ele>
        <time>2026-01-13T12:48:27Z</time>
      </trkpt>
      <trkpt lat="48.67293" lon="1.89372">
        <ele>186.6</ele>
        <time>2026-01-13T12:48:28Z</time>
      </trkpt>
      <trkpt lat="48.67296" lon="1.89382">
        <ele>186.6</ele>
        <time>2026-01-13T12:48:29Z</time>
      </trkpt>
      <trkpt lat="48.67298" lon="1.89392">
        <ele>186.6</ele>
        <time>2026-01-13T12:48:30Z</time>
      </trkpt>
      <trkpt lat="48.67301" lon="1.89402">
        <ele>186.8</ele>
        <time>2026-01-13T12:48:31Z</time>
      </trkpt>
      <trkpt lat="48.67304" lon="1.89411">
        <ele>186.8</ele>
        <time>2026-01-13T12:48:32Z</time>
      </trkpt>
      <trkpt lat="48.67307" lon="1.8942">
        <ele>186.8</ele>
        <time>2026-01-13T12:48:33Z</time>
      </trkpt>
      <trkpt lat="48.67309" lon="1.89428">
        <ele>186.8</ele>
        <time>2026-01-13T12:48:34Z</time>
      </trkpt>
      <trkpt lat="48.67312" lon="1.89436">
        <ele>186.8</ele>
        <time>2026-01-13T12:48:35Z</time>
      </trkpt>
      <trkpt lat="48.67314" lon="1.89444">
        <ele>186.8</ele>
        <time>2026-01-13T12:48:36Z</time>
      </trkpt>
      <trkpt lat="48.67317" lon="1.89452">
        <ele>187.4</ele>
        <time>2026-01-13T12:48:37Z</time>
      </trkpt>
      <trkpt lat="48.6732" lon="1.89461">
        <ele>187.4</ele>
        <time>2026-01-13T12:48:38Z</time>
      </trkpt>
      <trkpt lat="48.67322" lon="1.8947">
        <ele>187.4</ele>
        <time>2026-01-13T12:48:39Z</time>
      </trkpt>
      <trkpt lat="48.67325" lon="1.89479">
        <ele>187.4</ele>
        <time>2026-01-13T12:48:40Z</time>
      </trkpt>
      <trkpt lat="48.67327" lon="1.89489">
        <ele>187.4</ele>
        <time>2026-01-13T12:48:41Z</time>
      </trkpt>
      <trkpt lat="48.67329" lon="1.89498">
        <ele>187.4</ele>
        <time>2026-01-13T12:48:42Z</time>
      </trkpt>
      <trkpt lat="48.67332" lon="1.89507">
        <ele>187.4</ele>
        <time>2026-01-13T12:48:43Z</time>
      </trkpt>
      <trkpt lat="48.67334" lon="1.89516">
        <ele>186.4</ele>
        <time>2026-01-13T12:48:44Z</time>
      </trkpt>
      <trkpt lat="48.67337" lon="1.89525">
        <ele>186.2</ele>
        <time>2026-01-13T12:48:45Z</time>
      </trkpt>
      <trkpt lat="48.6734" lon="1.89534">
        <ele>185.8</ele>
        <time>2026-01-13T12:48:46Z</time>
      </trkpt>
      <trkpt lat="48.67343" lon="1.89542">
        <ele>185.8</ele>
        <time>2026-01-13T12:48:47Z</time>
      </trkpt>
      <trkpt lat="48.67346" lon="1.89551">
        <ele>185.8</ele>
        <time>2026-01-13T12:48:48Z</time>
      </trkpt>
      <trkpt lat="48.67348" lon="1.89559">
        <ele>186.8</ele>
        <time>2026-01-13T12:48:49Z</time>
      </trkpt>
      <trkpt lat="48.6735" lon="1.89567">
        <ele>186.8</ele>
        <time>2026-01-13T12:48:50Z</time>
      </trkpt>
      <trkpt lat="48.67352" lon="1.89576">
        <ele>186.8</ele>
        <time>2026-01-13T12:48:51Z</time>
      </trkpt>
      <trkpt lat="48.67355" lon="1.89583">
        <ele>186.8</ele>
        <time>2026-01-13T12:48:52Z</time>
      </trkpt>
      <trkpt lat="48.67357" lon="1.89592">
        <ele>186.8</ele>
        <time>2026-01-13T12:48:53Z</time>
      </trkpt>
      <trkpt lat="48.67359" lon="1.89602">
        <ele>187</ele>
        <time>2026-01-13T12:48:54Z</time>
      </trkpt>
      <trkpt lat="48.67361" lon="1.89611">
        <ele>187</ele>
        <time>2026-01-13T12:48:55Z</time>
      </trkpt>
      <trkpt lat="48.67364" lon="1.89622">
        <ele>187</ele>
        <time>2026-01-13T12:48:56Z</time>
      </trkpt>
      <trkpt lat="48.67366" lon="1.89632">
        <ele>187</ele>
        <time>2026-01-13T12:48:57Z</time>
      </trkpt>
      <trkpt lat="48.67368" lon="1.89642">
        <ele>187</ele>
        <time>2026-01-13T12:48:58Z</time>
      </trkpt>
      <trkpt lat="48.67371" lon="1.89653">
        <ele>187</ele>
        <time>2026-01-13T12:48:59Z</time>
      </trkpt>
      <trkpt lat="48.67373" lon="1.89663">
        <ele>187.6</ele>
        <time>2026-01-13T12:49:00Z</time>
      </trkpt>
      <trkpt lat="48.67375" lon="1.89674">
        <ele>187.6</ele>
        <time>2026-01-13T12:49:01Z</time>
      </trkpt>
      <trkpt lat="48.67377" lon="1.89684">
        <ele>187.6</ele>
        <time>2026-01-13T12:49:02Z</time>
      </trkpt>
      <trkpt lat="48.6738" lon="1.89695">
        <ele>187.2</ele>
        <time>2026-01-13T12:49:03Z</time>
      </trkpt>
      <trkpt lat="48.67382" lon="1.89705">
        <ele>187.2</ele>
        <time>2026-01-13T12:49:04Z</time>
      </trkpt>
      <trkpt lat="48.67384" lon="1.89715">
        <ele>187.2</ele>
        <time>2026-01-13T12:49:05Z</time>
      </trkpt>
      <trkpt lat="48.67387" lon="1.89725">
        <ele>187.8</ele>
        <time>2026-01-13T12:49:06Z</time>
      </trkpt>
      <trkpt lat="48.67389" lon="1.89736">
        <ele>188</ele>
        <time>2026-01-13T12:49:07Z</time>
      </trkpt>
      <trkpt lat="48.67391" lon="1.89746">
        <ele>188</ele>
        <time>2026-01-13T12:49:08Z</time>
      </trkpt>
      <trkpt lat="48.67394" lon="1.89756">
        <ele>188</ele>
        <time>2026-01-13T12:49:09Z</time>
      </trkpt>
      <trkpt lat="48.67396" lon="1.89767">
        <ele>187.4</ele>
        <time>2026-01-13T12:49:10Z</time>
      </trkpt>
      <trkpt lat="48.67398" lon="1.89777">
        <ele>187</ele>
        <time>2026-01-13T12:49:11Z</time>
      </trkpt>
      <trkpt lat="48.674" lon="1.89788">
        <ele>187</ele>
        <time>2026-01-13T12:49:12Z</time>
      </trkpt>
      <trkpt lat="48.67402" lon="1.89798">
        <ele>187</ele>
        <time>2026-01-13T12:49:13Z</time>
      </trkpt>
      <trkpt lat="48.67404" lon="1.89809">
        <ele>187.2</ele>
        <time>2026-01-13T12:49:14Z</time>
      </trkpt>
      <trkpt lat="48.67405" lon="1.8982">
        <ele>187.2</ele>
        <time>2026-01-13T12:49:15Z</time>
      </trkpt>
      <trkpt lat="48.67406" lon="1.89831">
        <ele>187.2</ele>
        <time>2026-01-13T12:49:16Z</time>
      </trkpt>
      <trkpt lat="48.67407" lon="1.89842">
        <ele>186.4</ele>
        <time>2026-01-13T12:49:17Z</time>
      </trkpt>
      <trkpt lat="48.67407" lon="1.89853">
        <ele>186.4</ele>
        <time>2026-01-13T12:49:18Z</time>
      </trkpt>
      <trkpt lat="48.67408" lon="1.89864">
        <ele>186.4</ele>
        <time>2026-01-13T12:49:19Z</time>
      </trkpt>
      <trkpt lat="48.67408" lon="1.89875">
        <ele>186.4</ele>
        <time>2026-01-13T12:49:20Z</time>
      </trkpt>
      <trkpt lat="48.67409" lon="1.89886">
        <ele>186.4</ele>
        <time>2026-01-13T12:49:21Z</time>
      </trkpt>
      <trkpt lat="48.67409" lon="1.89897">
        <ele>186.4</ele>
        <time>2026-01-13T12:49:22Z</time>
      </trkpt>
      <trkpt lat="48.67409" lon="1.89907">
        <ele>186.4</ele>
        <time>2026-01-13T12:49:23Z</time>
      </trkpt>
      <trkpt lat="48.67409" lon="1.89918">
        <ele>186.4</ele>
        <time>2026-01-13T12:49:24Z</time>
      </trkpt>
      <trkpt lat="48.6741" lon="1.89929">
        <ele>186.4</ele>
        <time>2026-01-13T12:49:25Z</time>
      </trkpt>
      <trkpt lat="48.6741" lon="1.8994">
        <ele>186.6</ele>
        <time>2026-01-13T12:49:26Z</time>
      </trkpt>
      <trkpt lat="48.6741" lon="1.89952">
        <ele>186.6</ele>
        <time>2026-01-13T12:49:27Z</time>
      </trkpt>
      <trkpt lat="48.6741" lon="1.89963">
        <ele>187</ele>
        <time>2026-01-13T12:49:28Z</time>
      </trkpt>
      <trkpt lat="48.6741" lon="1.89975">
        <ele>187</ele>
        <time>2026-01-13T12:49:29Z</time>
      </trkpt>
      <trkpt lat="48.6741" lon="1.89987">
        <ele>187</ele>
        <time>2026-01-13T12:49:30Z</time>
      </trkpt>
      <trkpt lat="48.6741" lon="1.89999">
        <ele>186.8</ele>
        <time>2026-01-13T12:49:31Z</time>
      </trkpt>
      <trkpt lat="48.6741" lon="1.90011">
        <ele>186.6</ele>
        <time>2026-01-13T12:49:32Z</time>
      </trkpt>
      <trkpt lat="48.6741" lon="1.90023">
        <ele>186.6</ele>
        <time>2026-01-13T12:49:33Z</time>
      </trkpt>
      <trkpt lat="48.67411" lon="1.90035">
        <ele>186.6</ele>
        <time>2026-01-13T12:49:34Z</time>
      </trkpt>
      <trkpt lat="48.67411" lon="1.90046">
        <ele>186.6</ele>
        <time>2026-01-13T12:49:35Z</time>
      </trkpt>
      <trkpt lat="48.67411" lon="1.90058">
        <ele>186.6</ele>
        <time>2026-01-13T12:49:36Z</time>
      </trkpt>
      <trkpt lat="48.67411" lon="1.9007">
        <ele>187</ele>
        <time>2026-01-13T12:49:37Z</time>
      </trkpt>
      <trkpt lat="48.67412" lon="1.90081">
        <ele>187</ele>
        <time>2026-01-13T12:49:38Z</time>
      </trkpt>
      <trkpt lat="48.67412" lon="1.90093">
        <ele>187</ele>
        <time>2026-01-13T12:49:39Z</time>
      </trkpt>
      <trkpt lat="48.67412" lon="1.90104">
        <ele>187</ele>
        <time>2026-01-13T12:49:40Z</time>
      </trkpt>
      <trkpt lat="48.67412" lon="1.90116">
        <ele>187</ele>
        <time>2026-01-13T12:49:41Z</time>
      </trkpt>
      <trkpt lat="48.67412" lon="1.90127">
        <ele>187</ele>
        <time>2026-01-13T12:49:42Z</time>
      </trkpt>
      <trkpt lat="48.67413" lon="1.90139">
        <ele>187</ele>
        <time>2026-01-13T12:49:43Z</time>
      </trkpt>
      <trkpt lat="48.67413" lon="1.90151">
        <ele>186.6</ele>
        <time>2026-01-13T12:49:44Z</time>
      </trkpt>
      <trkpt lat="48.67413" lon="1.90163">
        <ele>186.6</ele>
        <time>2026-01-13T12:49:45Z</time>
      </trkpt>
      <trkpt lat="48.67413" lon="1.90174">
        <ele>186.6</ele>
        <time>2026-01-13T12:49:46Z</time>
      </trkpt>
      <trkpt lat="48.67413" lon="1.90186">
        <ele>186.8</ele>
        <time>2026-01-13T12:49:47Z</time>
      </trkpt>
      <trkpt lat="48.67413" lon="1.90197">
        <ele>186.8</ele>
        <time>2026-01-13T12:49:48Z</time>
      </trkpt>
      <trkpt lat="48.67414" lon="1.90209">
        <ele>186.8</ele>
        <time>2026-01-13T12:49:49Z</time>
      </trkpt>
      <trkpt lat="48.67414" lon="1.90221">
        <ele>186.6</ele>
        <time>2026-01-13T12:49:50Z</time>
      </trkpt>
      <trkpt lat="48.67414" lon="1.90232">
        <ele>186.6</ele>
        <time>2026-01-13T12:49:51Z</time>
      </trkpt>
      <trkpt lat="48.67415" lon="1.90244">
        <ele>186.6</ele>
        <time>2026-01-13T12:49:52Z</time>
      </trkpt>
      <trkpt lat="48.67415" lon="1.90255">
        <ele>187</ele>
        <time>2026-01-13T12:49:53Z</time>
      </trkpt>
      <trkpt lat="48.67415" lon="1.90266">
        <ele>187</ele>
        <time>2026-01-13T12:49:54Z</time>
      </trkpt>
      <trkpt lat="48.67415" lon="1.90278">
        <ele>187</ele>
        <time>2026-01-13T12:49:55Z</time>
      </trkpt>
      <trkpt lat="48.67416" lon="1.90289">
        <ele>187</ele>
        <time>2026-01-13T12:49:56Z</time>
      </trkpt>
      <trkpt lat="48.67416" lon="1.903">
        <ele>187</ele>
        <time>2026-01-13T12:49:57Z</time>
      </trkpt>
      <trkpt lat="48.67418" lon="1.90312">
        <ele>187</ele>
        <time>2026-01-13T12:49:58Z</time>
      </trkpt>
      <trkpt lat="48.67419" lon="1.90323">
        <ele>187</ele>
        <time>2026-01-13T12:49:59Z</time>
      </trkpt>
      <trkpt lat="48.67421" lon="1.90334">
        <ele>187</ele>
        <time>2026-01-13T12:50:00Z</time>
      </trkpt>
      <trkpt lat="48.67424" lon="1.90344">
        <ele>187</ele>
        <time>2026-01-13T12:50:01Z</time>
      </trkpt>
      <trkpt lat="48.67427" lon="1.90355">
        <ele>186.8</ele>
        <time>2026-01-13T12:50:02Z</time>
      </trkpt>
      <trkpt lat="48.6743" lon="1.90365">
        <ele>186.8</ele>
        <time>2026-01-13T12:50:03Z</time>
      </trkpt>
      <trkpt lat="48.67433" lon="1.90375">
        <ele>186.8</ele>
        <time>2026-01-13T12:50:04Z</time>
      </trkpt>
      <trkpt lat="48.67437" lon="1.90384">
        <ele>186.8</ele>
        <time>2026-01-13T12:50:05Z</time>
      </trkpt>
      <trkpt lat="48.67441" lon="1.90394">
        <ele>187.2</ele>
        <time>2026-01-13T12:50:06Z</time>
      </trkpt>
      <trkpt lat="48.67444" lon="1.90403">
        <ele>187.6</ele>
        <time>2026-01-13T12:50:07Z</time>
      </trkpt>
      <trkpt lat="48.67448" lon="1.90412">
        <ele>187.8</ele>
        <time>2026-01-13T12:50:08Z</time>
      </trkpt>
      <trkpt lat="48.67452" lon="1.90422">
        <ele>188</ele>
        <time>2026-01-13T12:50:09Z</time>
      </trkpt>
      <trkpt lat="48.67455" lon="1.9043">
        <ele>188.2</ele>
        <time>2026-01-13T12:50:10Z</time>
      </trkpt>
      <trkpt lat="48.67459" lon="1.90439">
        <ele>188.4</ele>
        <time>2026-01-13T12:50:11Z</time>
      </trkpt>
      <trkpt lat="48.67462" lon="1.90448">
        <ele>188.6</ele>
        <time>2026-01-13T12:50:12Z</time>
      </trkpt>
      <trkpt lat="48.67466" lon="1.90457">
        <ele>188.6</ele>
        <time>2026-01-13T12:50:13Z</time>
      </trkpt>
      <trkpt lat="48.67469" lon="1.90465">
        <ele>188.6</ele>
        <time>2026-01-13T12:50:14Z</time>
      </trkpt>
      <trkpt lat="48.67472" lon="1.90474">
        <ele>188.6</ele>
        <time>2026-01-13T12:50:15Z</time>
      </trkpt>
      <trkpt lat="48.67476" lon="1.90483">
        <ele>188.6</ele>
        <time>2026-01-13T12:50:16Z</time>
      </trkpt>
      <trkpt lat="48.67479" lon="1.90491">
        <ele>188.6</ele>
        <time>2026-01-13T12:50:17Z</time>
      </trkpt>
      <trkpt lat="48.67483" lon="1.905">
        <ele>189</ele>
        <time>2026-01-13T12:50:18Z</time>
      </trkpt>
      <trkpt lat="48.67486" lon="1.90508">
        <ele>189</ele>
        <time>2026-01-13T12:50:19Z</time>
      </trkpt>
      <trkpt lat="48.67489" lon="1.90517">
        <ele>189</ele>
        <time>2026-01-13T12:50:20Z</time>
      </trkpt>
      <trkpt lat="48.67493" lon="1.90526">
        <ele>188.8</ele>
        <time>2026-01-13T12:50:21Z</time>
      </trkpt>
      <trkpt lat="48.67496" lon="1.90534">
        <ele>188.8</ele>
        <time>2026-01-13T12:50:22Z</time>
      </trkpt>
      <trkpt lat="48.67499" lon="1.90543">
        <ele>188.8</ele>
        <time>2026-01-13T12:50:23Z</time>
      </trkpt>
      <trkpt lat="48.67502" lon="1.90552">
        <ele>188.8</ele>
        <time>2026-01-13T12:50:24Z</time>
      </trkpt>
      <trkpt lat="48.67504" lon="1.90561">
        <ele>188.8</ele>
        <time>2026-01-13T12:50:25Z</time>
      </trkpt>
      <trkpt lat="48.67507" lon="1.90571">
        <ele>189.4</ele>
        <time>2026-01-13T12:50:26Z</time>
      </trkpt>
      <trkpt lat="48.67508" lon="1.90581">
        <ele>189.4</ele>
        <time>2026-01-13T12:50:27Z</time>
      </trkpt>
      <trkpt lat="48.6751" lon="1.90591">
        <ele>189.4</ele>
        <time>2026-01-13T12:50:28Z</time>
      </trkpt>
      <trkpt lat="48.67511" lon="1.90601">
        <ele>189.4</ele>
        <time>2026-01-13T12:50:29Z</time>
      </trkpt>
      <trkpt lat="48.67512" lon="1.90611">
        <ele>189.4</ele>
        <time>2026-01-13T12:50:30Z</time>
      </trkpt>
      <trkpt lat="48.67512" lon="1.90622">
        <ele>189.4</ele>
        <time>2026-01-13T12:50:31Z</time>
      </trkpt>
      <trkpt lat="48.67513" lon="1.90632">
        <ele>188.8</ele>
        <time>2026-01-13T12:50:32Z</time>
      </trkpt>
      <trkpt lat="48.67513" lon="1.90642">
        <ele>188.8</ele>
        <time>2026-01-13T12:50:33Z</time>
      </trkpt>
      <trkpt lat="48.67513" lon="1.90653">
        <ele>188.8</ele>
        <time>2026-01-13T12:50:34Z</time>
      </trkpt>
      <trkpt lat="48.67512" lon="1.90663">
        <ele>188.8</ele>
        <time>2026-01-13T12:50:35Z</time>
      </trkpt>
      <trkpt lat="48.67512" lon="1.90674">
        <ele>188.8</ele>
        <time>2026-01-13T12:50:36Z</time>
      </trkpt>
      <trkpt lat="48.67512" lon="1.90684">
        <ele>188.8</ele>
        <time>2026-01-13T12:50:37Z</time>
      </trkpt>
      <trkpt lat="48.67512" lon="1.90694">
        <ele>188.8</ele>
        <time>2026-01-13T12:50:38Z</time>
      </trkpt>
      <trkpt lat="48.67511" lon="1.90705">
        <ele>188.8</ele>
        <time>2026-01-13T12:50:39Z</time>
      </trkpt>
      <trkpt lat="48.67511" lon="1.90715">
        <ele>189.4</ele>
        <time>2026-01-13T12:50:40Z</time>
      </trkpt>
      <trkpt lat="48.67511" lon="1.90725">
        <ele>189.4</ele>
        <time>2026-01-13T12:50:41Z</time>
      </trkpt>
      <trkpt lat="48.67511" lon="1.90735">
        <ele>189.4</ele>
        <time>2026-01-13T12:50:42Z</time>
      </trkpt>
      <trkpt lat="48.6751" lon="1.90746">
        <ele>189.4</ele>
        <time>2026-01-13T12:50:43Z</time>
      </trkpt>
      <trkpt lat="48.6751" lon="1.90756">
        <ele>189.4</ele>
        <time>2026-01-13T12:50:44Z</time>
      </trkpt>
      <trkpt lat="48.6751" lon="1.90766">
        <ele>188.6</ele>
        <time>2026-01-13T12:50:45Z</time>
      </trkpt>
      <trkpt lat="48.67509" lon="1.90776">
        <ele>188.6</ele>
        <time>2026-01-13T12:50:46Z</time>
      </trkpt>
      <trkpt lat="48.67509" lon="1.90785">
        <ele>188.6</ele>
        <time>2026-01-13T12:50:47Z</time>
      </trkpt>
      <trkpt lat="48.67509" lon="1.90795">
        <ele>188.6</ele>
        <time>2026-01-13T12:50:48Z</time>
      </trkpt>
      <trkpt lat="48.67508" lon="1.90804">
        <ele>189.6</ele>
        <time>2026-01-13T12:50:49Z</time>
      </trkpt>
      <trkpt lat="48.67508" lon="1.90814">
        <ele>189.8</ele>
        <time>2026-01-13T12:50:50Z</time>
      </trkpt>
      <trkpt lat="48.67508" lon="1.90824">
        <ele>189.8</ele>
        <time>2026-01-13T12:50:51Z</time>
      </trkpt>
      <trkpt lat="48.67508" lon="1.90833">
        <ele>189.8</ele>
        <time>2026-01-13T12:50:52Z</time>
      </trkpt>
      <trkpt lat="48.67507" lon="1.90842">
        <ele>189.2</ele>
        <time>2026-01-13T12:50:53Z</time>
      </trkpt>
      <trkpt lat="48.67507" lon="1.90852">
        <ele>189</ele>
        <time>2026-01-13T12:50:54Z</time>
      </trkpt>
      <trkpt lat="48.67507" lon="1.90861">
        <ele>189</ele>
        <time>2026-01-13T12:50:55Z</time>
      </trkpt>
      <trkpt lat="48.67507" lon="1.90871">
        <ele>189</ele>
        <time>2026-01-13T12:50:56Z</time>
      </trkpt>
      <trkpt lat="48.67506" lon="1.9088">
        <ele>190</ele>
        <time>2026-01-13T12:50:57Z</time>
      </trkpt>
      <trkpt lat="48.67506" lon="1.9089">
        <ele>190</ele>
        <time>2026-01-13T12:50:58Z</time>
      </trkpt>
      <trkpt lat="48.67506" lon="1.909">
        <ele>190</ele>
        <time>2026-01-13T12:50:59Z</time>
      </trkpt>
      <trkpt lat="48.67506" lon="1.9091">
        <ele>190</ele>
        <time>2026-01-13T12:51:00Z</time>
      </trkpt>
      <trkpt lat="48.67505" lon="1.90919">
        <ele>190</ele>
        <time>2026-01-13T12:51:01Z</time>
      </trkpt>
      <trkpt lat="48.67505" lon="1.90929">
        <ele>190</ele>
        <time>2026-01-13T12:51:02Z</time>
      </trkpt>
      <trkpt lat="48.67505" lon="1.90939">
        <ele>190</ele>
        <time>2026-01-13T12:51:03Z</time>
      </trkpt>
      <trkpt lat="48.67504" lon="1.90949">
        <ele>190</ele>
        <time>2026-01-13T12:51:04Z</time>
      </trkpt>
      <trkpt lat="48.67504" lon="1.90959">
        <ele>190</ele>
        <time>2026-01-13T12:51:05Z</time>
      </trkpt>
      <trkpt lat="48.67504" lon="1.90968">
        <ele>190</ele>
        <time>2026-01-13T12:51:06Z</time>
      </trkpt>
      <trkpt lat="48.67503" lon="1.90978">
        <ele>189.6</ele>
        <time>2026-01-13T12:51:07Z</time>
      </trkpt>
      <trkpt lat="48.67503" lon="1.90988">
        <ele>189.2</ele>
        <time>2026-01-13T12:51:08Z</time>
      </trkpt>
      <trkpt lat="48.67503" lon="1.90998">
        <ele>189.2</ele>
        <time>2026-01-13T12:51:09Z</time>
      </trkpt>
      <trkpt lat="48.67503" lon="1.91008">
        <ele>189.2</ele>
        <time>2026-01-13T12:51:10Z</time>
      </trkpt>
      <trkpt lat="48.67503" lon="1.91017">
        <ele>190.2</ele>
        <time>2026-01-13T12:51:11Z</time>
      </trkpt>
      <trkpt lat="48.67503" lon="1.91027">
        <ele>191.2</ele>
        <time>2026-01-13T12:51:12Z</time>
      </trkpt>
      <trkpt lat="48.67503" lon="1.91037">
        <ele>191.2</ele>
        <time>2026-01-13T12:51:13Z</time>
      </trkpt>
      <trkpt lat="48.67504" lon="1.91047">
        <ele>191.2</ele>
        <time>2026-01-13T12:51:14Z</time>
      </trkpt>
      <trkpt lat="48.67504" lon="1.91057">
        <ele>190.2</ele>
        <time>2026-01-13T12:51:15Z</time>
      </trkpt>
      <trkpt lat="48.67506" lon="1.91067">
        <ele>190.2</ele>
        <time>2026-01-13T12:51:16Z</time>
      </trkpt>
      <trkpt lat="48.67507" lon="1.91077">
        <ele>190.2</ele>
        <time>2026-01-13T12:51:17Z</time>
      </trkpt>
      <trkpt lat="48.67509" lon="1.91087">
        <ele>190.2</ele>
        <time>2026-01-13T12:51:18Z</time>
      </trkpt>
      <trkpt lat="48.6751" lon="1.91097">
        <ele>190.2</ele>
        <time>2026-01-13T12:51:19Z</time>
      </trkpt>
      <trkpt lat="48.67512" lon="1.91107">
        <ele>190.2</ele>
        <time>2026-01-13T12:51:20Z</time>
      </trkpt>
      <trkpt lat="48.67514" lon="1.91117">
        <ele>190.2</ele>
        <time>2026-01-13T12:51:21Z</time>
      </trkpt>
      <trkpt lat="48.67515" lon="1.91127">
        <ele>190.2</ele>
        <time>2026-01-13T12:51:22Z</time>
      </trkpt>
      <trkpt lat="48.67516" lon="1.91137">
        <ele>190.2</ele>
        <time>2026-01-13T12:51:23Z</time>
      </trkpt>
      <trkpt lat="48.67517" lon="1.91147">
        <ele>190.2</ele>
        <time>2026-01-13T12:51:24Z</time>
      </trkpt>
      <trkpt lat="48.67518" lon="1.91157">
        <ele>189.6</ele>
        <time>2026-01-13T12:51:25Z</time>
      </trkpt>
      <trkpt lat="48.67518" lon="1.91167">
        <ele>189.6</ele>
        <time>2026-01-13T12:51:26Z</time>
      </trkpt>
      <trkpt lat="48.67517" lon="1.91177">
        <ele>189.6</ele>
        <time>2026-01-13T12:51:27Z</time>
      </trkpt>
      <trkpt lat="48.67517" lon="1.91188">
        <ele>189.6</ele>
        <time>2026-01-13T12:51:28Z</time>
      </trkpt>
      <trkpt lat="48.67516" lon="1.91198">
        <ele>188.8</ele>
        <time>2026-01-13T12:51:29Z</time>
      </trkpt>
      <trkpt lat="48.67515" lon="1.91208">
        <ele>188.8</ele>
        <time>2026-01-13T12:51:30Z</time>
      </trkpt>
      <trkpt lat="48.67514" lon="1.91218">
        <ele>188.8</ele>
        <time>2026-01-13T12:51:31Z</time>
      </trkpt>
      <trkpt lat="48.67513" lon="1.91229">
        <ele>188.8</ele>
        <time>2026-01-13T12:51:32Z</time>
      </trkpt>
      <trkpt lat="48.67512" lon="1.91239">
        <ele>188.8</ele>
        <time>2026-01-13T12:51:33Z</time>
      </trkpt>
      <trkpt lat="48.67511" lon="1.91249">
        <ele>188.8</ele>
        <time>2026-01-13T12:51:34Z</time>
      </trkpt>
      <trkpt lat="48.6751" lon="1.91259">
        <ele>189.8</ele>
        <time>2026-01-13T12:51:35Z</time>
      </trkpt>
      <trkpt lat="48.67509" lon="1.91269">
        <ele>190.8</ele>
        <time>2026-01-13T12:51:36Z</time>
      </trkpt>
      <trkpt lat="48.67509" lon="1.91279">
        <ele>190.8</ele>
        <time>2026-01-13T12:51:37Z</time>
      </trkpt>
      <trkpt lat="48.67508" lon="1.91289">
        <ele>190.8</ele>
        <time>2026-01-13T12:51:38Z</time>
      </trkpt>
      <trkpt lat="48.67507" lon="1.91299">
        <ele>190.8</ele>
        <time>2026-01-13T12:51:39Z</time>
      </trkpt>
      <trkpt lat="48.67506" lon="1.91308">
        <ele>190.4</ele>
        <time>2026-01-13T12:51:40Z</time>
      </trkpt>
      <trkpt lat="48.67504" lon="1.91316">
        <ele>190.2</ele>
        <time>2026-01-13T12:51:41Z</time>
      </trkpt>
      <trkpt lat="48.67499" lon="1.91319">
        <ele>189.8</ele>
        <time>2026-01-13T12:51:42Z</time>
      </trkpt>
      <trkpt lat="48.67494" lon="1.91319">
        <ele>189.2</ele>
        <time>2026-01-13T12:51:43Z</time>
      </trkpt>
      <trkpt lat="48.67489" lon="1.91318">
        <ele>189.2</ele>
        <time>2026-01-13T12:51:44Z</time>
      </trkpt>
      <trkpt lat="48.67483" lon="1.91318">
        <ele>189.2</ele>
        <time>2026-01-13T12:51:45Z</time>
      </trkpt>
      <trkpt lat="48.67478" lon="1.91318">
        <ele>189.2</ele>
        <time>2026-01-13T12:51:46Z</time>
      </trkpt>
      <trkpt lat="48.67472" lon="1.91316">
        <ele>189</ele>
        <time>2026-01-13T12:51:47Z</time>
      </trkpt>
      <trkpt lat="48.67466" lon="1.91316">
        <ele>189</ele>
        <time>2026-01-13T12:51:48Z</time>
      </trkpt>
      <trkpt lat="48.67461" lon="1.91318">
        <ele>189</ele>
        <time>2026-01-13T12:51:49Z</time>
      </trkpt>
      <trkpt lat="48.67457" lon="1.91323">
        <ele>189.8</ele>
        <time>2026-01-13T12:51:50Z</time>
      </trkpt>
      <trkpt lat="48.67455" lon="1.9133">
        <ele>190.6</ele>
        <time>2026-01-13T12:51:51Z</time>
      </trkpt>
      <trkpt lat="48.67454" lon="1.91339">
        <ele>190.6</ele>
        <time>2026-01-13T12:51:52Z</time>
      </trkpt>
      <trkpt lat="48.67453" lon="1.91348">
        <ele>190.6</ele>
        <time>2026-01-13T12:51:53Z</time>
      </trkpt>
      <trkpt lat="48.67452" lon="1.91357">
        <ele>190.4</ele>
        <time>2026-01-13T12:51:54Z</time>
      </trkpt>
      <trkpt lat="48.67451" lon="1.91366">
        <ele>189.6</ele>
        <time>2026-01-13T12:51:55Z</time>
      </trkpt>
      <trkpt lat="48.6745" lon="1.91375">
        <ele>189.6</ele>
        <time>2026-01-13T12:51:56Z</time>
      </trkpt>
      <trkpt lat="48.67448" lon="1.91385">
        <ele>189.6</ele>
        <time>2026-01-13T12:51:57Z</time>
      </trkpt>
      <trkpt lat="48.67447" lon="1.91393">
        <ele>190</ele>
        <time>2026-01-13T12:51:58Z</time>
      </trkpt>
      <trkpt lat="48.67445" lon="1.91403">
        <ele>190.2</ele>
        <time>2026-01-13T12:51:59Z</time>
      </trkpt>
      <trkpt lat="48.67444" lon="1.91412">
        <ele>190.4</ele>
        <time>2026-01-13T12:52:00Z</time>
      </trkpt>
      <trkpt lat="48.67443" lon="1.91421">
        <ele>190.4</ele>
        <time>2026-01-13T12:52:01Z</time>
      </trkpt>
      <trkpt lat="48.67442" lon="1.9143">
        <ele>190.4</ele>
        <time>2026-01-13T12:52:02Z</time>
      </trkpt>
      <trkpt lat="48.67441" lon="1.9144">
        <ele>189.8</ele>
        <time>2026-01-13T12:52:03Z</time>
      </trkpt>
      <trkpt lat="48.6744" lon="1.9145">
        <ele>189.8</ele>
        <time>2026-01-13T12:52:04Z</time>
      </trkpt>
      <trkpt lat="48.67439" lon="1.91461">
        <ele>189.8</ele>
        <time>2026-01-13T12:52:05Z</time>
      </trkpt>
      <trkpt lat="48.67437" lon="1.91471">
        <ele>190</ele>
        <time>2026-01-13T12:52:06Z</time>
      </trkpt>
      <trkpt lat="48.67434" lon="1.9148">
        <ele>190</ele>
        <time>2026-01-13T12:52:07Z</time>
      </trkpt>
      <trkpt lat="48.6743" lon="1.91489">
        <ele>190</ele>
        <time>2026-01-13T12:52:08Z</time>
      </trkpt>
      <trkpt lat="48.67425" lon="1.91495">
        <ele>189.2</ele>
        <time>2026-01-13T12:52:09Z</time>
      </trkpt>
      <trkpt lat="48.67419" lon="1.915">
        <ele>188.6</ele>
        <time>2026-01-13T12:52:10Z</time>
      </trkpt>
      <trkpt lat="48.67413" lon="1.91503">
        <ele>188.4</ele>
        <time>2026-01-13T12:52:11Z</time>
      </trkpt>
      <trkpt lat="48.67407" lon="1.91506">
        <ele>188.2</ele>
        <time>2026-01-13T12:52:12Z</time>
      </trkpt>
      <trkpt lat="48.674" lon="1.9151">
        <ele>187.8</ele>
        <time>2026-01-13T12:52:13Z</time>
      </trkpt>
      <trkpt lat="48.67394" lon="1.91514">
        <ele>187.8</ele>
        <time>2026-01-13T12:52:14Z</time>
      </trkpt>
      <trkpt lat="48.67388" lon="1.91519">
        <ele>187.8</ele>
        <time>2026-01-13T12:52:15Z</time>
      </trkpt>
      <trkpt lat="48.67382" lon="1.91524">
        <ele>188.8</ele>
        <time>2026-01-13T12:52:16Z</time>
      </trkpt>
      <trkpt lat="48.67377" lon="1.9153">
        <ele>188.8</ele>
        <time>2026-01-13T12:52:17Z</time>
      </trkpt>
      <trkpt lat="48.67371" lon="1.91535">
        <ele>188.8</ele>
        <time>2026-01-13T12:52:18Z</time>
      </trkpt>
      <trkpt lat="48.67365" lon="1.91541">
        <ele>188.2</ele>
        <time>2026-01-13T12:52:19Z</time>
      </trkpt>
      <trkpt lat="48.6736" lon="1.91547">
        <ele>188.2</ele>
        <time>2026-01-13T12:52:20Z</time>
      </trkpt>
      <trkpt lat="48.67354" lon="1.91553">
        <ele>188.2</ele>
        <time>2026-01-13T12:52:21Z</time>
      </trkpt>
      <trkpt lat="48.67349" lon="1.91559">
        <ele>189.2</ele>
        <time>2026-01-13T12:52:22Z</time>
      </trkpt>
      <trkpt lat="48.67344" lon="1.91565">
        <ele>189.6</ele>
        <time>2026-01-13T12:52:23Z</time>
      </trkpt>
      <trkpt lat="48.67338" lon="1.91571">
        <ele>189.6</ele>
        <time>2026-01-13T12:52:24Z</time>
      </trkpt>
      <trkpt lat="48.67333" lon="1.91578">
        <ele>189.6</ele>
        <time>2026-01-13T12:52:25Z</time>
      </trkpt>
      <trkpt lat="48.67327" lon="1.91584">
        <ele>189</ele>
        <time>2026-01-13T12:52:26Z</time>
      </trkpt>
      <trkpt lat="48.67322" lon="1.9159">
        <ele>188.8</ele>
        <time>2026-01-13T12:52:27Z</time>
      </trkpt>
      <trkpt lat="48.67317" lon="1.91597">
        <ele>188.8</ele>
        <time>2026-01-13T12:52:28Z</time>
      </trkpt>
      <trkpt lat="48.67312" lon="1.91603">
        <ele>188.8</ele>
        <time>2026-01-13T12:52:29Z</time>
      </trkpt>
      <trkpt lat="48.67307" lon="1.9161">
        <ele>188.8</ele>
        <time>2026-01-13T12:52:30Z</time>
      </trkpt>
      <trkpt lat="48.67302" lon="1.91617">
        <ele>188.8</ele>
        <time>2026-01-13T12:52:31Z</time>
      </trkpt>
      <trkpt lat="48.67297" lon="1.91624">
        <ele>188.8</ele>
        <time>2026-01-13T12:52:32Z</time>
      </trkpt>
      <trkpt lat="48.67293" lon="1.9163">
        <ele>188.8</ele>
        <time>2026-01-13T12:52:33Z</time>
      </trkpt>
      <trkpt lat="48.67288" lon="1.91637">
        <ele>189</ele>
        <time>2026-01-13T12:52:34Z</time>
      </trkpt>
      <trkpt lat="48.67283" lon="1.91643">
        <ele>189.2</ele>
        <time>2026-01-13T12:52:35Z</time>
      </trkpt>
      <trkpt lat="48.67279" lon="1.91649">
        <ele>189.4</ele>
        <time>2026-01-13T12:52:36Z</time>
      </trkpt>
      <trkpt lat="48.67274" lon="1.91655">
        <ele>189.4</ele>
        <time>2026-01-13T12:52:37Z</time>
      </trkpt>
      <trkpt lat="48.67269" lon="1.91662">
        <ele>189.4</ele>
        <time>2026-01-13T12:52:38Z</time>
      </trkpt>
      <trkpt lat="48.67264" lon="1.91668">
        <ele>189.4</ele>
        <time>2026-01-13T12:52:39Z</time>
      </trkpt>
      <trkpt lat="48.67258" lon="1.91675">
        <ele>189.4</ele>
        <time>2026-01-13T12:52:40Z</time>
      </trkpt>
      <trkpt lat="48.67253" lon="1.91681">
        <ele>189.4</ele>
        <time>2026-01-13T12:52:41Z</time>
      </trkpt>
      <trkpt lat="48.67248" lon="1.91687">
        <ele>189.2</ele>
        <time>2026-01-13T12:52:42Z</time>
      </trkpt>
      <trkpt lat="48.67243" lon="1.91694">
        <ele>189</ele>
        <time>2026-01-13T12:52:43Z</time>
      </trkpt>
      <trkpt lat="48.67238" lon="1.917">
        <ele>189</ele>
        <time>2026-01-13T12:52:44Z</time>
      </trkpt>
      <trkpt lat="48.67232" lon="1.91707">
        <ele>189</ele>
        <time>2026-01-13T12:52:45Z</time>
      </trkpt>
      <trkpt lat="48.67227" lon="1.91713">
        <ele>189</ele>
        <time>2026-01-13T12:52:46Z</time>
      </trkpt>
      <trkpt lat="48.67222" lon="1.91719">
        <ele>189.4</ele>
        <time>2026-01-13T12:52:47Z</time>
      </trkpt>
      <trkpt lat="48.67216" lon="1.91726">
        <ele>189.4</ele>
        <time>2026-01-13T12:52:48Z</time>
      </trkpt>
      <trkpt lat="48.67211" lon="1.91733">
        <ele>189.4</ele>
        <time>2026-01-13T12:52:49Z</time>
      </trkpt>
      <trkpt lat="48.67206" lon="1.91739">
        <ele>189</ele>
        <time>2026-01-13T12:52:50Z</time>
      </trkpt>
      <trkpt lat="48.672" lon="1.91746">
        <ele>189</ele>
        <time>2026-01-13T12:52:51Z</time>
      </trkpt>
      <trkpt lat="48.67195" lon="1.91753">
        <ele>189</ele>
        <time>2026-01-13T12:52:52Z</time>
      </trkpt>
      <trkpt lat="48.6719" lon="1.91759">
        <ele>189</ele>
        <time>2026-01-13T12:52:53Z</time>
      </trkpt>
      <trkpt lat="48.67185" lon="1.91767">
        <ele>188</ele>
        <time>2026-01-13T12:52:54Z</time>
      </trkpt>
      <trkpt lat="48.67179" lon="1.91774">
        <ele>188</ele>
        <time>2026-01-13T12:52:55Z</time>
      </trkpt>
      <trkpt lat="48.67173" lon="1.91782">
        <ele>188</ele>
        <time>2026-01-13T12:52:56Z</time>
      </trkpt>
      <trkpt lat="48.67167" lon="1.9179">
        <ele>188</ele>
        <time>2026-01-13T12:52:57Z</time>
      </trkpt>
      <trkpt lat="48.67162" lon="1.91798">
        <ele>187.8</ele>
        <time>2026-01-13T12:52:58Z</time>
      </trkpt>
      <trkpt lat="48.67157" lon="1.91806">
        <ele>187.8</ele>
        <time>2026-01-13T12:52:59Z</time>
      </trkpt>
      <trkpt lat="48.67152" lon="1.91815">
        <ele>187.8</ele>
        <time>2026-01-13T12:53:00Z</time>
      </trkpt>
      <trkpt lat="48.67147" lon="1.91823">
        <ele>188.8</ele>
        <time>2026-01-13T12:53:01Z</time>
      </trkpt>
      <trkpt lat="48.67142" lon="1.91832">
        <ele>188.8</ele>
        <time>2026-01-13T12:53:02Z</time>
      </trkpt>
      <trkpt lat="48.67137" lon="1.91841">
        <ele>188.8</ele>
        <time>2026-01-13T12:53:03Z</time>
      </trkpt>
      <trkpt lat="48.67133" lon="1.91849">
        <ele>188.8</ele>
        <time>2026-01-13T12:53:04Z</time>
      </trkpt>
      <trkpt lat="48.67128" lon="1.91858">
        <ele>188.8</ele>
        <time>2026-01-13T12:53:05Z</time>
      </trkpt>
      <trkpt lat="48.67124" lon="1.91867">
        <ele>189.2</ele>
        <time>2026-01-13T12:53:06Z</time>
      </trkpt>
      <trkpt lat="48.6712" lon="1.91876">
        <ele>189.2</ele>
        <time>2026-01-13T12:53:07Z</time>
      </trkpt>
      <trkpt lat="48.67115" lon="1.91885">
        <ele>189.2</ele>
        <time>2026-01-13T12:53:08Z</time>
      </trkpt>
      <trkpt lat="48.67111" lon="1.91894">
        <ele>188.8</ele>
        <time>2026-01-13T12:53:09Z</time>
      </trkpt>
      <trkpt lat="48.67107" lon="1.91903">
        <ele>188.8</ele>
        <time>2026-01-13T12:53:10Z</time>
      </trkpt>
      <trkpt lat="48.67102" lon="1.91911">
        <ele>188.8</ele>
        <time>2026-01-13T12:53:11Z</time>
      </trkpt>
      <trkpt lat="48.67098" lon="1.9192">
        <ele>188.8</ele>
        <time>2026-01-13T12:53:12Z</time>
      </trkpt>
      <trkpt lat="48.67094" lon="1.91929">
        <ele>188.8</ele>
        <time>2026-01-13T12:53:13Z</time>
      </trkpt>
      <trkpt lat="48.6709" lon="1.91938">
        <ele>189.4</ele>
        <time>2026-01-13T12:53:14Z</time>
      </trkpt>
      <trkpt lat="48.67085" lon="1.91946">
        <ele>189.4</ele>
        <time>2026-01-13T12:53:15Z</time>
      </trkpt>
      <trkpt lat="48.67081" lon="1.91955">
        <ele>189.4</ele>
        <time>2026-01-13T12:53:16Z</time>
      </trkpt>
      <trkpt lat="48.67077" lon="1.91964">
        <ele>189.2</ele>
        <time>2026-01-13T12:53:17Z</time>
      </trkpt>
      <trkpt lat="48.67073" lon="1.91972">
        <ele>189</ele>
        <time>2026-01-13T12:53:18Z</time>
      </trkpt>
      <trkpt lat="48.67069" lon="1.9198">
        <ele>188.8</ele>
        <time>2026-01-13T12:53:19Z</time>
      </trkpt>
      <trkpt lat="48.67064" lon="1.91989">
        <ele>188.6</ele>
        <time>2026-01-13T12:53:20Z</time>
      </trkpt>
      <trkpt lat="48.6706" lon="1.91998">
        <ele>188.4</ele>
        <time>2026-01-13T12:53:21Z</time>
      </trkpt>
      <trkpt lat="48.67056" lon="1.92006">
        <ele>188.4</ele>
        <time>2026-01-13T12:53:22Z</time>
      </trkpt>
      <trkpt lat="48.67052" lon="1.92015">
        <ele>188.4</ele>
        <time>2026-01-13T12:53:23Z</time>
      </trkpt>
      <trkpt lat="48.67048" lon="1.92024">
        <ele>188.4</ele>
        <time>2026-01-13T12:53:24Z</time>
      </trkpt>
      <trkpt lat="48.67044" lon="1.92033">
        <ele>188.4</ele>
        <time>2026-01-13T12:53:25Z</time>
      </trkpt>
      <trkpt lat="48.6704" lon="1.92042">
        <ele>189.2</ele>
        <time>2026-01-13T12:53:26Z</time>
      </trkpt>
      <trkpt lat="48.67036" lon="1.9205">
        <ele>189.2</ele>
        <time>2026-01-13T12:53:27Z</time>
      </trkpt>
      <trkpt lat="48.67032" lon="1.9206">
        <ele>189.2</ele>
        <time>2026-01-13T12:53:28Z</time>
      </trkpt>
      <trkpt lat="48.67028" lon="1.92069">
        <ele>188.6</ele>
        <time>2026-01-13T12:53:29Z</time>
      </trkpt>
      <trkpt lat="48.67024" lon="1.92078">
        <ele>188.2</ele>
        <time>2026-01-13T12:53:30Z</time>
      </trkpt>
      <trkpt lat="48.6702" lon="1.92087">
        <ele>188.2</ele>
        <time>2026-01-13T12:53:31Z</time>
      </trkpt>
      <trkpt lat="48.67016" lon="1.92096">
        <ele>188.2</ele>
        <time>2026-01-13T12:53:32Z</time>
      </trkpt>
      <trkpt lat="48.67012" lon="1.92105">
        <ele>188.2</ele>
        <time>2026-01-13T12:53:33Z</time>
      </trkpt>
      <trkpt lat="48.67009" lon="1.92114">
        <ele>188.2</ele>
        <time>2026-01-13T12:53:34Z</time>
      </trkpt>
      <trkpt lat="48.67005" lon="1.92124">
        <ele>188.2</ele>
        <time>2026-01-13T12:53:35Z</time>
      </trkpt>
      <trkpt lat="48.67002" lon="1.92133">
        <ele>188.2</ele>
        <time>2026-01-13T12:53:36Z</time>
      </trkpt>
      <trkpt lat="48.66998" lon="1.92143">
        <ele>188.8</ele>
        <time>2026-01-13T12:53:37Z</time>
      </trkpt>
      <trkpt lat="48.66995" lon="1.92152">
        <ele>188.8</ele>
        <time>2026-01-13T12:53:38Z</time>
      </trkpt>
      <trkpt lat="48.66991" lon="1.92162">
        <ele>188.8</ele>
        <time>2026-01-13T12:53:39Z</time>
      </trkpt>
      <trkpt lat="48.66988" lon="1.92172">
        <ele>188.8</ele>
        <time>2026-01-13T12:53:40Z</time>
      </trkpt>
      <trkpt lat="48.66985" lon="1.92182">
        <ele>188.8</ele>
        <time>2026-01-13T12:53:41Z</time>
      </trkpt>
      <trkpt lat="48.66982" lon="1.92191">
        <ele>188.6</ele>
        <time>2026-01-13T12:53:42Z</time>
      </trkpt>
      <trkpt lat="48.66979" lon="1.92201">
        <ele>188.4</ele>
        <time>2026-01-13T12:53:43Z</time>
      </trkpt>
      <trkpt lat="48.66976" lon="1.92211">
        <ele>188.4</ele>
        <time>2026-01-13T12:53:44Z</time>
      </trkpt>
      <trkpt lat="48.66973" lon="1.92221">
        <ele>188.4</ele>
        <time>2026-01-13T12:53:45Z</time>
      </trkpt>
      <trkpt lat="48.66971" lon="1.9223">
        <ele>188.4</ele>
        <time>2026-01-13T12:53:46Z</time>
      </trkpt>
      <trkpt lat="48.66968" lon="1.9224">
        <ele>188.4</ele>
        <time>2026-01-13T12:53:47Z</time>
      </trkpt>
      <trkpt lat="48.66965" lon="1.92249">
        <ele>188.4</ele>
        <time>2026-01-13T12:53:48Z</time>
      </trkpt>
      <trkpt lat="48.66963" lon="1.92258">
        <ele>189</ele>
        <time>2026-01-13T12:53:49Z</time>
      </trkpt>
      <trkpt lat="48.6696" lon="1.92268">
        <ele>189</ele>
        <time>2026-01-13T12:53:50Z</time>
      </trkpt>
      <trkpt lat="48.66957" lon="1.92278">
        <ele>189</ele>
        <time>2026-01-13T12:53:51Z</time>
      </trkpt>
      <trkpt lat="48.66955" lon="1.92288">
        <ele>189</ele>
        <time>2026-01-13T12:53:52Z</time>
      </trkpt>
      <trkpt lat="48.66952" lon="1.92298">
        <ele>188</ele>
        <time>2026-01-13T12:53:53Z</time>
      </trkpt>
      <trkpt lat="48.66949" lon="1.92308">
        <ele>188</ele>
        <time>2026-01-13T12:53:54Z</time>
      </trkpt>
      <trkpt lat="48.66945" lon="1.92318">
        <ele>188</ele>
        <time>2026-01-13T12:53:55Z</time>
      </trkpt>
      <trkpt lat="48.66942" lon="1.92327">
        <ele>188.6</ele>
        <time>2026-01-13T12:53:56Z</time>
      </trkpt>
      <trkpt lat="48.66939" lon="1.92337">
        <ele>188.6</ele>
        <time>2026-01-13T12:53:57Z</time>
      </trkpt>
      <trkpt lat="48.66935" lon="1.92346">
        <ele>188.6</ele>
        <time>2026-01-13T12:53:58Z</time>
      </trkpt>
      <trkpt lat="48.66931" lon="1.92355">
        <ele>188.6</ele>
        <time>2026-01-13T12:53:59Z</time>
      </trkpt>
      <trkpt lat="48.66927" lon="1.92364">
        <ele>188.2</ele>
        <time>2026-01-13T12:54:00Z</time>
      </trkpt>
      <trkpt lat="48.66924" lon="1.92373">
        <ele>188</ele>
        <time>2026-01-13T12:54:01Z</time>
      </trkpt>
      <trkpt lat="48.6692" lon="1.92383">
        <ele>188</ele>
        <time>2026-01-13T12:54:02Z</time>
      </trkpt>
      <trkpt lat="48.66916" lon="1.92392">
        <ele>188</ele>
        <time>2026-01-13T12:54:03Z</time>
      </trkpt>
      <trkpt lat="48.66912" lon="1.92401">
        <ele>188.8</ele>
        <time>2026-01-13T12:54:04Z</time>
      </trkpt>
      <trkpt lat="48.66908" lon="1.9241">
        <ele>188.8</ele>
        <time>2026-01-13T12:54:05Z</time>
      </trkpt>
      <trkpt lat="48.66905" lon="1.9242">
        <ele>188.8</ele>
        <time>2026-01-13T12:54:06Z</time>
      </trkpt>
      <trkpt lat="48.66901" lon="1.92429">
        <ele>187.8</ele>
        <time>2026-01-13T12:54:07Z</time>
      </trkpt>
      <trkpt lat="48.66897" lon="1.92439">
        <ele>187.8</ele>
        <time>2026-01-13T12:54:08Z</time>
      </trkpt>
      <trkpt lat="48.66893" lon="1.92448">
        <ele>187.8</ele>
        <time>2026-01-13T12:54:09Z</time>
      </trkpt>
      <trkpt lat="48.66889" lon="1.92458">
        <ele>187.8</ele>
        <time>2026-01-13T12:54:10Z</time>
      </trkpt>
      <trkpt lat="48.66885" lon="1.92467">
        <ele>187.6</ele>
        <time>2026-01-13T12:54:11Z</time>
      </trkpt>
      <trkpt lat="48.66881" lon="1.92476">
        <ele>187.6</ele>
        <time>2026-01-13T12:54:12Z</time>
      </trkpt>
      <trkpt lat="48.66877" lon="1.92485">
        <ele>187.6</ele>
        <time>2026-01-13T12:54:13Z</time>
      </trkpt>
      <trkpt lat="48.66873" lon="1.92493">
        <ele>187.6</ele>
        <time>2026-01-13T12:54:14Z</time>
      </trkpt>
      <trkpt lat="48.66869" lon="1.92501">
        <ele>188.2</ele>
        <time>2026-01-13T12:54:15Z</time>
      </trkpt>
      <trkpt lat="48.66864" lon="1.92508">
        <ele>188.2</ele>
        <time>2026-01-13T12:54:16Z</time>
      </trkpt>
      <trkpt lat="48.66859" lon="1.92516">
        <ele>188.2</ele>
        <time>2026-01-13T12:54:17Z</time>
      </trkpt>
      <trkpt lat="48.66855" lon="1.92524">
        <ele>187.6</ele>
        <time>2026-01-13T12:54:18Z</time>
      </trkpt>
      <trkpt lat="48.6685" lon="1.92532">
        <ele>187.4</ele>
        <time>2026-01-13T12:54:19Z</time>
      </trkpt>
      <trkpt lat="48.66844" lon="1.9254">
        <ele>187.4</ele>
        <time>2026-01-13T12:54:20Z</time>
      </trkpt>
      <trkpt lat="48.66839" lon="1.92547">
        <ele>187.4</ele>
        <time>2026-01-13T12:54:21Z</time>
      </trkpt>
      <trkpt lat="48.66834" lon="1.92556">
        <ele>187.4</ele>
        <time>2026-01-13T12:54:22Z</time>
      </trkpt>
      <trkpt lat="48.66829" lon="1.92563">
        <ele>187.4</ele>
        <time>2026-01-13T12:54:23Z</time>
      </trkpt>
      <trkpt lat="48.66824" lon="1.92571">
        <ele>187.4</ele>
        <time>2026-01-13T12:54:24Z</time>
      </trkpt>
      <trkpt lat="48.66819" lon="1.92579">
        <ele>188</ele>
        <time>2026-01-13T12:54:25Z</time>
      </trkpt>
      <trkpt lat="48.66813" lon="1.92587">
        <ele>188.4</ele>
        <time>2026-01-13T12:54:26Z</time>
      </trkpt>
      <trkpt lat="48.66808" lon="1.92595">
        <ele>188.4</ele>
        <time>2026-01-13T12:54:27Z</time>
      </trkpt>
      <trkpt lat="48.66802" lon="1.92603">
        <ele>188.4</ele>
        <time>2026-01-13T12:54:28Z</time>
      </trkpt>
      <trkpt lat="48.66797" lon="1.92611">
        <ele>187.4</ele>
        <time>2026-01-13T12:54:29Z</time>
      </trkpt>
      <trkpt lat="48.66791" lon="1.92618">
        <ele>187.4</ele>
        <time>2026-01-13T12:54:30Z</time>
      </trkpt>
      <trkpt lat="48.66786" lon="1.92625">
        <ele>187.4</ele>
        <time>2026-01-13T12:54:31Z</time>
      </trkpt>
      <trkpt lat="48.6678" lon="1.92632">
        <ele>187.4</ele>
        <time>2026-01-13T12:54:32Z</time>
      </trkpt>
      <trkpt lat="48.66775" lon="1.92639">
        <ele>187.4</ele>
        <time>2026-01-13T12:54:33Z</time>
      </trkpt>
      <trkpt lat="48.66769" lon="1.92646">
        <ele>187.4</ele>
        <time>2026-01-13T12:54:34Z</time>
      </trkpt>
      <trkpt lat="48.66763" lon="1.92653">
        <ele>186.8</ele>
        <time>2026-01-13T12:54:35Z</time>
      </trkpt>
      <trkpt lat="48.66758" lon="1.9266">
        <ele>186.8</ele>
        <time>2026-01-13T12:54:36Z</time>
      </trkpt>
      <trkpt lat="48.66752" lon="1.92667">
        <ele>186.8</ele>
        <time>2026-01-13T12:54:37Z</time>
      </trkpt>
      <trkpt lat="48.66746" lon="1.92674">
        <ele>186.8</ele>
        <time>2026-01-13T12:54:38Z</time>
      </trkpt>
      <trkpt lat="48.6674" lon="1.92682">
        <ele>186.8</ele>
        <time>2026-01-13T12:54:39Z</time>
      </trkpt>
      <trkpt lat="48.66734" lon="1.9269">
        <ele>186.8</ele>
        <time>2026-01-13T12:54:40Z</time>
      </trkpt>
      <trkpt lat="48.66728" lon="1.92697">
        <ele>186.8</ele>
        <time>2026-01-13T12:54:41Z</time>
      </trkpt>
      <trkpt lat="48.66722" lon="1.92705">
        <ele>185.8</ele>
        <time>2026-01-13T12:54:42Z</time>
      </trkpt>
      <trkpt lat="48.66716" lon="1.92712">
        <ele>185.8</ele>
        <time>2026-01-13T12:54:43Z</time>
      </trkpt>
      <trkpt lat="48.66709" lon="1.9272">
        <ele>185.8</ele>
        <time>2026-01-13T12:54:44Z</time>
      </trkpt>
      <trkpt lat="48.66703" lon="1.92728">
        <ele>185.8</ele>
        <time>2026-01-13T12:54:45Z</time>
      </trkpt>
      <trkpt lat="48.66697" lon="1.92735">
        <ele>185.8</ele>
        <time>2026-01-13T12:54:46Z</time>
      </trkpt>
      <trkpt lat="48.6669" lon="1.92742">
        <ele>184.8</ele>
        <time>2026-01-13T12:54:47Z</time>
      </trkpt>
      <trkpt lat="48.66684" lon="1.92749">
        <ele>184.4</ele>
        <time>2026-01-13T12:54:48Z</time>
      </trkpt>
      <trkpt lat="48.66677" lon="1.92756">
        <ele>184.4</ele>
        <time>2026-01-13T12:54:49Z</time>
      </trkpt>
      <trkpt lat="48.66671" lon="1.92762">
        <ele>184.4</ele>
        <time>2026-01-13T12:54:50Z</time>
      </trkpt>
      <trkpt lat="48.66665" lon="1.92769">
        <ele>185</ele>
        <time>2026-01-13T12:54:51Z</time>
      </trkpt>
      <trkpt lat="48.66658" lon="1.92777">
        <ele>185</ele>
        <time>2026-01-13T12:54:52Z</time>
      </trkpt>
      <trkpt lat="48.66652" lon="1.92784">
        <ele>185</ele>
        <time>2026-01-13T12:54:53Z</time>
      </trkpt>
      <trkpt lat="48.66645" lon="1.92791">
        <ele>184</ele>
        <time>2026-01-13T12:54:54Z</time>
      </trkpt>
      <trkpt lat="48.66639" lon="1.92798">
        <ele>184</ele>
        <time>2026-01-13T12:54:55Z</time>
      </trkpt>
      <trkpt lat="48.66632" lon="1.92805">
        <ele>184</ele>
        <time>2026-01-13T12:54:56Z</time>
      </trkpt>
      <trkpt lat="48.66626" lon="1.92812">
        <ele>184.4</ele>
        <time>2026-01-13T12:54:57Z</time>
      </trkpt>
      <trkpt lat="48.6662" lon="1.92819">
        <ele>184.4</ele>
        <time>2026-01-13T12:54:58Z</time>
      </trkpt>
      <trkpt lat="48.66613" lon="1.92826">
        <ele>184.4</ele>
        <time>2026-01-13T12:54:59Z</time>
      </trkpt>
      <trkpt lat="48.66607" lon="1.92832">
        <ele>183.6</ele>
        <time>2026-01-13T12:55:00Z</time>
      </trkpt>
      <trkpt lat="48.666" lon="1.92839">
        <ele>183.6</ele>
        <time>2026-01-13T12:55:01Z</time>
      </trkpt>
      <trkpt lat="48.66594" lon="1.92845">
        <ele>183.6</ele>
        <time>2026-01-13T12:55:02Z</time>
      </trkpt>
      <trkpt lat="48.66587" lon="1.9285">
        <ele>183.6</ele>
        <time>2026-01-13T12:55:03Z</time>
      </trkpt>
      <trkpt lat="48.66581" lon="1.92855">
        <ele>183.6</ele>
        <time>2026-01-13T12:55:04Z</time>
      </trkpt>
      <trkpt lat="48.66573" lon="1.92859">
        <ele>183.6</ele>
        <time>2026-01-13T12:55:05Z</time>
      </trkpt>
      <trkpt lat="48.66566" lon="1.9286">
        <ele>182.6</ele>
        <time>2026-01-13T12:55:06Z</time>
      </trkpt>
      <trkpt lat="48.66558" lon="1.92862">
        <ele>182.2</ele>
        <time>2026-01-13T12:55:07Z</time>
      </trkpt>
      <trkpt lat="48.6655" lon="1.92862">
        <ele>182</ele>
        <time>2026-01-13T12:55:08Z</time>
      </trkpt>
      <trkpt lat="48.66542" lon="1.92862">
        <ele>181</ele>
        <time>2026-01-13T12:55:09Z</time>
      </trkpt>
      <trkpt lat="48.66535" lon="1.92862">
        <ele>181</ele>
        <time>2026-01-13T12:55:10Z</time>
      </trkpt>
      <trkpt lat="48.66527" lon="1.92861">
        <ele>181</ele>
        <time>2026-01-13T12:55:11Z</time>
      </trkpt>
      <trkpt lat="48.6652" lon="1.92862">
        <ele>182</ele>
        <time>2026-01-13T12:55:12Z</time>
      </trkpt>
      <trkpt lat="48.66512" lon="1.92862">
        <ele>182</ele>
        <time>2026-01-13T12:55:13Z</time>
      </trkpt>
      <trkpt lat="48.66505" lon="1.92861">
        <ele>182</ele>
        <time>2026-01-13T12:55:14Z</time>
      </trkpt>
      <trkpt lat="48.66498" lon="1.92862">
        <ele>181.2</ele>
        <time>2026-01-13T12:55:15Z</time>
      </trkpt>
      <trkpt lat="48.6649" lon="1.92864">
        <ele>180.8</ele>
        <time>2026-01-13T12:55:16Z</time>
      </trkpt>
      <trkpt lat="48.66482" lon="1.92867">
        <ele>180.8</ele>
        <time>2026-01-13T12:55:17Z</time>
      </trkpt>
      <trkpt lat="48.66475" lon="1.92871">
        <ele>180.8</ele>
        <time>2026-01-13T12:55:18Z</time>
      </trkpt>
      <trkpt lat="48.66468" lon="1.92874">
        <ele>181.8</ele>
        <time>2026-01-13T12:55:19Z</time>
      </trkpt>
      <trkpt lat="48.66462" lon="1.92878">
        <ele>182</ele>
        <time>2026-01-13T12:55:20Z</time>
      </trkpt>
      <trkpt lat="48.66455" lon="1.92882">
        <ele>182</ele>
        <time>2026-01-13T12:55:21Z</time>
      </trkpt>
      <trkpt lat="48.66448" lon="1.92887">
        <ele>182</ele>
        <time>2026-01-13T12:55:22Z</time>
      </trkpt>
      <trkpt lat="48.66442" lon="1.92891">
        <ele>181.4</ele>
        <time>2026-01-13T12:55:23Z</time>
      </trkpt>
      <trkpt lat="48.66436" lon="1.92895">
        <ele>181.2</ele>
        <time>2026-01-13T12:55:24Z</time>
      </trkpt>
      <trkpt lat="48.6643" lon="1.929">
        <ele>181.2</ele>
        <time>2026-01-13T12:55:25Z</time>
      </trkpt>
      <trkpt lat="48.66424" lon="1.92906">
        <ele>181.2</ele>
        <time>2026-01-13T12:55:26Z</time>
      </trkpt>
      <trkpt lat="48.66418" lon="1.92911">
        <ele>181.2</ele>
        <time>2026-01-13T12:55:27Z</time>
      </trkpt>
      <trkpt lat="48.66412" lon="1.92918">
        <ele>181.2</ele>
        <time>2026-01-13T12:55:28Z</time>
      </trkpt>
      <trkpt lat="48.66406" lon="1.92923">
        <ele>181.2</ele>
        <time>2026-01-13T12:55:29Z</time>
      </trkpt>
      <trkpt lat="48.664" lon="1.92929">
        <ele>181.8</ele>
        <time>2026-01-13T12:55:30Z</time>
      </trkpt>
      <trkpt lat="48.66395" lon="1.92934">
        <ele>181.8</ele>
        <time>2026-01-13T12:55:31Z</time>
      </trkpt>
      <trkpt lat="48.6639" lon="1.92938">
        <ele>181.8</ele>
        <time>2026-01-13T12:55:32Z</time>
      </trkpt>
      <trkpt lat="48.66386" lon="1.9294">
        <ele>181.8</ele>
        <time>2026-01-13T12:55:33Z</time>
      </trkpt>
      <trkpt lat="48.66383" lon="1.92943">
        <ele>181.8</ele>
        <time>2026-01-13T12:55:34Z</time>
      </trkpt>
      <trkpt lat="48.66381" lon="1.92947">
        <ele>181.8</ele>
        <time>2026-01-13T12:55:35Z</time>
      </trkpt>
      <trkpt lat="48.66379" lon="1.92951">
        <ele>182.4</ele>
        <time>2026-01-13T12:55:36Z</time>
      </trkpt>
      <trkpt lat="48.66377" lon="1.92957">
        <ele>182.4</ele>
        <time>2026-01-13T12:55:37Z</time>
      </trkpt>
      <trkpt lat="48.66376" lon="1.92965">
        <ele>182.4</ele>
        <time>2026-01-13T12:55:38Z</time>
      </trkpt>
      <trkpt lat="48.66376" lon="1.92973">
        <ele>182.4</ele>
        <time>2026-01-13T12:55:39Z</time>
      </trkpt>
      <trkpt lat="48.66377" lon="1.9298">
        <ele>182.4</ele>
        <time>2026-01-13T12:55:40Z</time>
      </trkpt>
      <trkpt lat="48.66378" lon="1.92989">
        <ele>181.4</ele>
        <time>2026-01-13T12:55:41Z</time>
      </trkpt>
      <trkpt lat="48.66378" lon="1.92998">
        <ele>181.4</ele>
        <time>2026-01-13T12:55:42Z</time>
      </trkpt>
      <trkpt lat="48.66379" lon="1.93007">
        <ele>180.8</ele>
        <time>2026-01-13T12:55:43Z</time>
      </trkpt>
      <trkpt lat="48.6638" lon="1.93017">
        <ele>180.8</ele>
        <time>2026-01-13T12:55:44Z</time>
      </trkpt>
      <trkpt lat="48.6638" lon="1.93026">
        <ele>180.8</ele>
        <time>2026-01-13T12:55:45Z</time>
      </trkpt>
      <trkpt lat="48.66381" lon="1.93035">
        <ele>180.8</ele>
        <time>2026-01-13T12:55:46Z</time>
      </trkpt>
      <trkpt lat="48.66382" lon="1.93044">
        <ele>180.8</ele>
        <time>2026-01-13T12:55:47Z</time>
      </trkpt>
      <trkpt lat="48.66382" lon="1.93053">
        <ele>180.8</ele>
        <time>2026-01-13T12:55:48Z</time>
      </trkpt>
      <trkpt lat="48.66383" lon="1.93063">
        <ele>180.8</ele>
        <time>2026-01-13T12:55:49Z</time>
      </trkpt>
      <trkpt lat="48.66383" lon="1.93072">
        <ele>181.4</ele>
        <time>2026-01-13T12:55:50Z</time>
      </trkpt>
      <trkpt lat="48.66383" lon="1.93081">
        <ele>181.4</ele>
        <time>2026-01-13T12:55:51Z</time>
      </trkpt>
      <trkpt lat="48.66384" lon="1.9309">
        <ele>181.4</ele>
        <time>2026-01-13T12:55:52Z</time>
      </trkpt>
      <trkpt lat="48.66383" lon="1.93098">
        <ele>181.4</ele>
        <time>2026-01-13T12:55:53Z</time>
      </trkpt>
      <trkpt lat="48.66384" lon="1.93106">
        <ele>181.8</ele>
        <time>2026-01-13T12:55:54Z</time>
      </trkpt>
      <trkpt lat="48.66383" lon="1.93115">
        <ele>182.8</ele>
        <time>2026-01-13T12:55:55Z</time>
      </trkpt>
      <trkpt lat="48.66383" lon="1.93122">
        <ele>183.2</ele>
        <time>2026-01-13T12:55:56Z</time>
      </trkpt>
      <trkpt lat="48.66383" lon="1.9313">
        <ele>183.2</ele>
        <time>2026-01-13T12:55:57Z</time>
      </trkpt>
      <trkpt lat="48.66383" lon="1.93137">
        <ele>183.2</ele>
        <time>2026-01-13T12:55:58Z</time>
      </trkpt>
      <trkpt lat="48.66382" lon="1.93144">
        <ele>183.2</ele>
        <time>2026-01-13T12:55:59Z</time>
      </trkpt>
      <trkpt lat="48.66381" lon="1.9315">
        <ele>183.6</ele>
        <time>2026-01-13T12:56:00Z</time>
      </trkpt>
      <trkpt lat="48.66378" lon="1.93156">
        <ele>183.6</ele>
        <time>2026-01-13T12:56:01Z</time>
      </trkpt>
      <trkpt lat="48.66374" lon="1.9316">
        <ele>183.6</ele>
        <time>2026-01-13T12:56:02Z</time>
      </trkpt>
      <trkpt lat="48.66369" lon="1.93163">
        <ele>183.6</ele>
        <time>2026-01-13T12:56:03Z</time>
      </trkpt>
      <trkpt lat="48.66365" lon="1.93166">
        <ele>183.6</ele>
        <time>2026-01-13T12:56:04Z</time>
      </trkpt>
      <trkpt lat="48.6636" lon="1.93169">
        <ele>183.6</ele>
        <time>2026-01-13T12:56:05Z</time>
      </trkpt>
      <trkpt lat="48.66355" lon="1.93173">
        <ele>183.6</ele>
        <time>2026-01-13T12:56:06Z</time>
      </trkpt>
      <trkpt lat="48.6635" lon="1.93177">
        <ele>183.6</ele>
        <time>2026-01-13T12:56:07Z</time>
      </trkpt>
      <trkpt lat="48.66346" lon="1.93181">
        <ele>183.6</ele>
        <time>2026-01-13T12:56:08Z</time>
      </trkpt>
      <trkpt lat="48.66341" lon="1.93186">
        <ele>183.6</ele>
        <time>2026-01-13T12:56:09Z</time>
      </trkpt>
      <trkpt lat="48.66336" lon="1.9319">
        <ele>184.2</ele>
        <time>2026-01-13T12:56:10Z</time>
      </trkpt>
      <trkpt lat="48.66331" lon="1.93195">
        <ele>184.6</ele>
        <time>2026-01-13T12:56:11Z</time>
      </trkpt>
      <trkpt lat="48.66326" lon="1.93199">
        <ele>184.8</ele>
        <time>2026-01-13T12:56:12Z</time>
      </trkpt>
      <trkpt lat="48.66321" lon="1.93203">
        <ele>184.8</ele>
        <time>2026-01-13T12:56:13Z</time>
      </trkpt>
      <trkpt lat="48.66316" lon="1.93207">
        <ele>184.8</ele>
        <time>2026-01-13T12:56:14Z</time>
      </trkpt>
      <trkpt lat="48.6631" lon="1.93211">
        <ele>184.8</ele>
        <time>2026-01-13T12:56:15Z</time>
      </trkpt>
      <trkpt lat="48.66305" lon="1.93215">
        <ele>184.8</ele>
        <time>2026-01-13T12:56:16Z</time>
      </trkpt>
      <trkpt lat="48.66299" lon="1.93218">
        <ele>184.8</ele>
        <time>2026-01-13T12:56:17Z</time>
      </trkpt>
      <trkpt lat="48.66294" lon="1.9322">
        <ele>184.8</ele>
        <time>2026-01-13T12:56:18Z</time>
      </trkpt>
      <trkpt lat="48.66288" lon="1.93222">
        <ele>184.8</ele>
        <time>2026-01-13T12:56:19Z</time>
      </trkpt>
      <trkpt lat="48.66283" lon="1.93224">
        <ele>184.8</ele>
        <time>2026-01-13T12:56:20Z</time>
      </trkpt>
      <trkpt lat="48.66278" lon="1.93225">
        <ele>184.8</ele>
        <time>2026-01-13T12:56:21Z</time>
      </trkpt>
      <trkpt lat="48.66273" lon="1.93225">
        <ele>184.8</ele>
        <time>2026-01-13T12:56:22Z</time>
      </trkpt>
      <trkpt lat="48.66267" lon="1.93226">
        <ele>184</ele>
        <time>2026-01-13T12:56:23Z</time>
      </trkpt>
      <trkpt lat="48.66262" lon="1.93226">
        <ele>184</ele>
        <time>2026-01-13T12:56:24Z</time>
      </trkpt>
      <trkpt lat="48.66256" lon="1.93225">
        <ele>184</ele>
        <time>2026-01-13T12:56:25Z</time>
      </trkpt>
      <trkpt lat="48.6625" lon="1.93226">
        <ele>184</ele>
        <time>2026-01-13T12:56:26Z</time>
      </trkpt>
      <trkpt lat="48.66244" lon="1.93227">
        <ele>185</ele>
        <time>2026-01-13T12:56:27Z</time>
      </trkpt>
      <trkpt lat="48.66237" lon="1.93227">
        <ele>185</ele>
        <time>2026-01-13T12:56:28Z</time>
      </trkpt>
      <trkpt lat="48.66231" lon="1.93227">
        <ele>185</ele>
        <time>2026-01-13T12:56:29Z</time>
      </trkpt>
      <trkpt lat="48.66225" lon="1.93227">
        <ele>185</ele>
        <time>2026-01-13T12:56:30Z</time>
      </trkpt>
      <trkpt lat="48.66219" lon="1.93227">
        <ele>185.4</ele>
        <time>2026-01-13T12:56:31Z</time>
      </trkpt>
      <trkpt lat="48.66213" lon="1.93227">
        <ele>185.4</ele>
        <time>2026-01-13T12:56:32Z</time>
      </trkpt>
      <trkpt lat="48.66206" lon="1.93229">
        <ele>185.4</ele>
        <time>2026-01-13T12:56:33Z</time>
      </trkpt>
      <trkpt lat="48.662" lon="1.9323">
        <ele>185.4</ele>
        <time>2026-01-13T12:56:34Z</time>
      </trkpt>
      <trkpt lat="48.66194" lon="1.93231">
        <ele>185.4</ele>
        <time>2026-01-13T12:56:35Z</time>
      </trkpt>
      <trkpt lat="48.66187" lon="1.93233">
        <ele>184.4</ele>
        <time>2026-01-13T12:56:36Z</time>
      </trkpt>
      <trkpt lat="48.66181" lon="1.93235">
        <ele>184.4</ele>
        <time>2026-01-13T12:56:37Z</time>
      </trkpt>
      <trkpt lat="48.66175" lon="1.93238">
        <ele>184.4</ele>
        <time>2026-01-13T12:56:38Z</time>
      </trkpt>
      <trkpt lat="48.6617" lon="1.93242">
        <ele>184.4</ele>
        <time>2026-01-13T12:56:39Z</time>
      </trkpt>
      <trkpt lat="48.66165" lon="1.93245">
        <ele>184.4</ele>
        <time>2026-01-13T12:56:40Z</time>
      </trkpt>
      <trkpt lat="48.6616" lon="1.9325">
        <ele>184.6</ele>
        <time>2026-01-13T12:56:41Z</time>
      </trkpt>
      <trkpt lat="48.66155" lon="1.93255">
        <ele>184.6</ele>
        <time>2026-01-13T12:56:42Z</time>
      </trkpt>
      <trkpt lat="48.6615" lon="1.93259">
        <ele>184.6</ele>
        <time>2026-01-13T12:56:43Z</time>
      </trkpt>
      <trkpt lat="48.66147" lon="1.93265">
        <ele>184.6</ele>
        <time>2026-01-13T12:56:44Z</time>
      </trkpt>
      <trkpt lat="48.66141" lon="1.9327">
        <ele>184.6</ele>
        <time>2026-01-13T12:56:45Z</time>
      </trkpt>
      <trkpt lat="48.66136" lon="1.93275">
        <ele>184.6</ele>
        <time>2026-01-13T12:56:46Z</time>
      </trkpt>
      <trkpt lat="48.66131" lon="1.9328">
        <ele>184.6</ele>
        <time>2026-01-13T12:56:47Z</time>
      </trkpt>
      <trkpt lat="48.66126" lon="1.93284">
        <ele>184.6</ele>
        <time>2026-01-13T12:56:48Z</time>
      </trkpt>
      <trkpt lat="48.6612" lon="1.93287">
        <ele>184.6</ele>
        <time>2026-01-13T12:56:49Z</time>
      </trkpt>
      <trkpt lat="48.66115" lon="1.9329">
        <ele>184.6</ele>
        <time>2026-01-13T12:56:50Z</time>
      </trkpt>
      <trkpt lat="48.66109" lon="1.93293">
        <ele>184.6</ele>
        <time>2026-01-13T12:56:51Z</time>
      </trkpt>
      <trkpt lat="48.66102" lon="1.93296">
        <ele>184.6</ele>
        <time>2026-01-13T12:56:52Z</time>
      </trkpt>
      <trkpt lat="48.66096" lon="1.93299">
        <ele>184.6</ele>
        <time>2026-01-13T12:56:53Z</time>
      </trkpt>
      <trkpt lat="48.66089" lon="1.93303">
        <ele>184.6</ele>
        <time>2026-01-13T12:56:54Z</time>
      </trkpt>
      <trkpt lat="48.66083" lon="1.93305">
        <ele>184.6</ele>
        <time>2026-01-13T12:56:55Z</time>
      </trkpt>
      <trkpt lat="48.66076" lon="1.93308">
        <ele>184.6</ele>
        <time>2026-01-13T12:56:56Z</time>
      </trkpt>
      <trkpt lat="48.66069" lon="1.93312">
        <ele>184.6</ele>
        <time>2026-01-13T12:56:57Z</time>
      </trkpt>
      <trkpt lat="48.66062" lon="1.93316">
        <ele>185</ele>
        <time>2026-01-13T12:56:58Z</time>
      </trkpt>
      <trkpt lat="48.66055" lon="1.93319">
        <ele>185</ele>
        <time>2026-01-13T12:56:59Z</time>
      </trkpt>
      <trkpt lat="48.66048" lon="1.93322">
        <ele>185</ele>
        <time>2026-01-13T12:57:00Z</time>
      </trkpt>
      <trkpt lat="48.66041" lon="1.93325">
        <ele>184.6</ele>
        <time>2026-01-13T12:57:01Z</time>
      </trkpt>
      <trkpt lat="48.66034" lon="1.93328">
        <ele>184.6</ele>
        <time>2026-01-13T12:57:02Z</time>
      </trkpt>
      <trkpt lat="48.66027" lon="1.93331">
        <ele>184.6</ele>
        <time>2026-01-13T12:57:03Z</time>
      </trkpt>
      <trkpt lat="48.66021" lon="1.93334">
        <ele>184.6</ele>
        <time>2026-01-13T12:57:04Z</time>
      </trkpt>
      <trkpt lat="48.66014" lon="1.93339">
        <ele>184.6</ele>
        <time>2026-01-13T12:57:05Z</time>
      </trkpt>
      <trkpt lat="48.66008" lon="1.93343">
        <ele>184.6</ele>
        <time>2026-01-13T12:57:06Z</time>
      </trkpt>
      <trkpt lat="48.66001" lon="1.93349">
        <ele>184.6</ele>
        <time>2026-01-13T12:57:07Z</time>
      </trkpt>
      <trkpt lat="48.65994" lon="1.93355">
        <ele>184.6</ele>
        <time>2026-01-13T12:57:08Z</time>
      </trkpt>
      <trkpt lat="48.65988" lon="1.93361">
        <ele>184.6</ele>
        <time>2026-01-13T12:57:09Z</time>
      </trkpt>
      <trkpt lat="48.65982" lon="1.93367">
        <ele>184</ele>
        <time>2026-01-13T12:57:10Z</time>
      </trkpt>
      <trkpt lat="48.65976" lon="1.93373">
        <ele>184</ele>
        <time>2026-01-13T12:57:11Z</time>
      </trkpt>
      <trkpt lat="48.6597" lon="1.93379">
        <ele>184</ele>
        <time>2026-01-13T12:57:12Z</time>
      </trkpt>
      <trkpt lat="48.65964" lon="1.93386">
        <ele>184</ele>
        <time>2026-01-13T12:57:13Z</time>
      </trkpt>
      <trkpt lat="48.65957" lon="1.93395">
        <ele>184</ele>
        <time>2026-01-13T12:57:14Z</time>
      </trkpt>
      <trkpt lat="48.65951" lon="1.93403">
        <ele>184</ele>
        <time>2026-01-13T12:57:15Z</time>
      </trkpt>
      <trkpt lat="48.65945" lon="1.9341">
        <ele>184</ele>
        <time>2026-01-13T12:57:16Z</time>
      </trkpt>
      <trkpt lat="48.65938" lon="1.93419">
        <ele>184</ele>
        <time>2026-01-13T12:57:17Z</time>
      </trkpt>
      <trkpt lat="48.65932" lon="1.93426">
        <ele>184</ele>
        <time>2026-01-13T12:57:18Z</time>
      </trkpt>
      <trkpt lat="48.65928" lon="1.93432">
        <ele>184</ele>
        <time>2026-01-13T12:57:19Z</time>
      </trkpt>
      <trkpt lat="48.65922" lon="1.9344">
        <ele>184</ele>
        <time>2026-01-13T12:57:20Z</time>
      </trkpt>
      <trkpt lat="48.65917" lon="1.93447">
        <ele>183.8</ele>
        <time>2026-01-13T12:57:21Z</time>
      </trkpt>
      <trkpt lat="48.65911" lon="1.93454">
        <ele>183</ele>
        <time>2026-01-13T12:57:22Z</time>
      </trkpt>
      <trkpt lat="48.65906" lon="1.93461">
        <ele>183</ele>
        <time>2026-01-13T12:57:23Z</time>
      </trkpt>
      <trkpt lat="48.65899" lon="1.93469">
        <ele>183</ele>
        <time>2026-01-13T12:57:24Z</time>
      </trkpt>
      <trkpt lat="48.65893" lon="1.93475">
        <ele>183</ele>
        <time>2026-01-13T12:57:25Z</time>
      </trkpt>
      <trkpt lat="48.65887" lon="1.93482">
        <ele>183</ele>
        <time>2026-01-13T12:57:26Z</time>
      </trkpt>
      <trkpt lat="48.65881" lon="1.93488">
        <ele>182</ele>
        <time>2026-01-13T12:57:27Z</time>
      </trkpt>
      <trkpt lat="48.65874" lon="1.93494">
        <ele>181.4</ele>
        <time>2026-01-13T12:57:28Z</time>
      </trkpt>
      <trkpt lat="48.65867" lon="1.93499">
        <ele>181.4</ele>
        <time>2026-01-13T12:57:29Z</time>
      </trkpt>
      <trkpt lat="48.6586" lon="1.93505">
        <ele>181.4</ele>
        <time>2026-01-13T12:57:30Z</time>
      </trkpt>
      <trkpt lat="48.65852" lon="1.93511">
        <ele>181.4</ele>
        <time>2026-01-13T12:57:31Z</time>
      </trkpt>
      <trkpt lat="48.65844" lon="1.93517">
        <ele>180.4</ele>
        <time>2026-01-13T12:57:32Z</time>
      </trkpt>
      <trkpt lat="48.65838" lon="1.93521">
        <ele>179.4</ele>
        <time>2026-01-13T12:57:33Z</time>
      </trkpt>
      <trkpt lat="48.65832" lon="1.93526">
        <ele>178.8</ele>
        <time>2026-01-13T12:57:34Z</time>
      </trkpt>
      <trkpt lat="48.65825" lon="1.9353">
        <ele>178</ele>
        <time>2026-01-13T12:57:35Z</time>
      </trkpt>
      <trkpt lat="48.65818" lon="1.93535">
        <ele>178</ele>
        <time>2026-01-13T12:57:36Z</time>
      </trkpt>
      <trkpt lat="48.6581" lon="1.93541">
        <ele>178</ele>
        <time>2026-01-13T12:57:37Z</time>
      </trkpt>
      <trkpt lat="48.65802" lon="1.93547">
        <ele>178</ele>
        <time>2026-01-13T12:57:38Z</time>
      </trkpt>
      <trkpt lat="48.65795" lon="1.93552">
        <ele>177</ele>
        <time>2026-01-13T12:57:39Z</time>
      </trkpt>
      <trkpt lat="48.65787" lon="1.93557">
        <ele>176.2</ele>
        <time>2026-01-13T12:57:40Z</time>
      </trkpt>
      <trkpt lat="48.6578" lon="1.93563">
        <ele>175.2</ele>
        <time>2026-01-13T12:57:41Z</time>
      </trkpt>
      <trkpt lat="48.65772" lon="1.9357">
        <ele>175.2</ele>
        <time>2026-01-13T12:57:42Z</time>
      </trkpt>
      <trkpt lat="48.65765" lon="1.93578">
        <ele>175.2</ele>
        <time>2026-01-13T12:57:43Z</time>
      </trkpt>
      <trkpt lat="48.65758" lon="1.93587">
        <ele>175.2</ele>
        <time>2026-01-13T12:57:44Z</time>
      </trkpt>
      <trkpt lat="48.65751" lon="1.93597">
        <ele>175.2</ele>
        <time>2026-01-13T12:57:45Z</time>
      </trkpt>
      <trkpt lat="48.65745" lon="1.93609">
        <ele>174.2</ele>
        <time>2026-01-13T12:57:46Z</time>
      </trkpt>
      <trkpt lat="48.65739" lon="1.93621">
        <ele>173.2</ele>
        <time>2026-01-13T12:57:47Z</time>
      </trkpt>
      <trkpt lat="48.65733" lon="1.93633">
        <ele>172.2</ele>
        <time>2026-01-13T12:57:48Z</time>
      </trkpt>
      <trkpt lat="48.65726" lon="1.93647">
        <ele>171.2</ele>
        <time>2026-01-13T12:57:49Z</time>
      </trkpt>
      <trkpt lat="48.65721" lon="1.93661">
        <ele>170.2</ele>
        <time>2026-01-13T12:57:50Z</time>
      </trkpt>
      <trkpt lat="48.65714" lon="1.93675">
        <ele>169.2</ele>
        <time>2026-01-13T12:57:51Z</time>
      </trkpt>
      <trkpt lat="48.65708" lon="1.93688">
        <ele>168.2</ele>
        <time>2026-01-13T12:57:52Z</time>
      </trkpt>
      <trkpt lat="48.65702" lon="1.93702">
        <ele>167.2</ele>
        <time>2026-01-13T12:57:53Z</time>
      </trkpt>
      <trkpt lat="48.65696" lon="1.93715">
        <ele>166.2</ele>
        <time>2026-01-13T12:57:54Z</time>
      </trkpt>
      <trkpt lat="48.6569" lon="1.93729">
        <ele>165.4</ele>
        <time>2026-01-13T12:57:55Z</time>
      </trkpt>
      <trkpt lat="48.65683" lon="1.93742">
        <ele>165</ele>
        <time>2026-01-13T12:57:56Z</time>
      </trkpt>
      <trkpt lat="48.65676" lon="1.93757">
        <ele>164.2</ele>
        <time>2026-01-13T12:57:57Z</time>
      </trkpt>
      <trkpt lat="48.65671" lon="1.93771">
        <ele>164.2</ele>
        <time>2026-01-13T12:57:58Z</time>
      </trkpt>
      <trkpt lat="48.65665" lon="1.93785">
        <ele>164.2</ele>
        <time>2026-01-13T12:57:59Z</time>
      </trkpt>
      <trkpt lat="48.65659" lon="1.93801">
        <ele>164.2</ele>
        <time>2026-01-13T12:58:00Z</time>
      </trkpt>
      <trkpt lat="48.65654" lon="1.93815">
        <ele>164.2</ele>
        <time>2026-01-13T12:58:01Z</time>
      </trkpt>
      <trkpt lat="48.65649" lon="1.93829">
        <ele>163.2</ele>
        <time>2026-01-13T12:58:02Z</time>
      </trkpt>
      <trkpt lat="48.65643" lon="1.93844">
        <ele>162.2</ele>
        <time>2026-01-13T12:58:03Z</time>
      </trkpt>
      <trkpt lat="48.65637" lon="1.93859">
        <ele>161.6</ele>
        <time>2026-01-13T12:58:04Z</time>
      </trkpt>
      <trkpt lat="48.65631" lon="1.93874">
        <ele>161.2</ele>
        <time>2026-01-13T12:58:05Z</time>
      </trkpt>
      <trkpt lat="48.65625" lon="1.93889">
        <ele>160.2</ele>
        <time>2026-01-13T12:58:06Z</time>
      </trkpt>
      <trkpt lat="48.65619" lon="1.93902">
        <ele>159.2</ele>
        <time>2026-01-13T12:58:07Z</time>
      </trkpt>
      <trkpt lat="48.65612" lon="1.93915">
        <ele>158.8</ele>
        <time>2026-01-13T12:58:08Z</time>
      </trkpt>
      <trkpt lat="48.65603" lon="1.93925">
        <ele>158.4</ele>
        <time>2026-01-13T12:58:09Z</time>
      </trkpt>
      <trkpt lat="48.65597" lon="1.9393">
        <ele>157.4</ele>
        <time>2026-01-13T12:58:10Z</time>
      </trkpt>
      <trkpt lat="48.65588" lon="1.93938">
        <ele>157.2</ele>
        <time>2026-01-13T12:58:11Z</time>
      </trkpt>
      <trkpt lat="48.65579" lon="1.93941">
        <ele>156.6</ele>
        <time>2026-01-13T12:58:12Z</time>
      </trkpt>
      <trkpt lat="48.65569" lon="1.93946">
        <ele>156.6</ele>
        <time>2026-01-13T12:58:13Z</time>
      </trkpt>
      <trkpt lat="48.65559" lon="1.93949">
        <ele>156.6</ele>
        <time>2026-01-13T12:58:14Z</time>
      </trkpt>
      <trkpt lat="48.65549" lon="1.93951">
        <ele>156.6</ele>
        <time>2026-01-13T12:58:15Z</time>
      </trkpt>
      <trkpt lat="48.65539" lon="1.93955">
        <ele>156.6</ele>
        <time>2026-01-13T12:58:16Z</time>
      </trkpt>
      <trkpt lat="48.65529" lon="1.93959">
        <ele>157.6</ele>
        <time>2026-01-13T12:58:17Z</time>
      </trkpt>
      <trkpt lat="48.6552" lon="1.93965">
        <ele>158.6</ele>
        <time>2026-01-13T12:58:18Z</time>
      </trkpt>
      <trkpt lat="48.65511" lon="1.9397">
        <ele>158.8</ele>
        <time>2026-01-13T12:58:19Z</time>
      </trkpt>
      <trkpt lat="48.65503" lon="1.93976">
        <ele>159.4</ele>
        <time>2026-01-13T12:58:20Z</time>
      </trkpt>
      <trkpt lat="48.65496" lon="1.93981">
        <ele>159.6</ele>
        <time>2026-01-13T12:58:21Z</time>
      </trkpt>
      <trkpt lat="48.6549" lon="1.93986">
        <ele>160.2</ele>
        <time>2026-01-13T12:58:22Z</time>
      </trkpt>
      <trkpt lat="48.65483" lon="1.93992">
        <ele>160.6</ele>
        <time>2026-01-13T12:58:23Z</time>
      </trkpt>
      <trkpt lat="48.65476" lon="1.93999">
        <ele>161.2</ele>
        <time>2026-01-13T12:58:24Z</time>
      </trkpt>
      <trkpt lat="48.6547" lon="1.94006">
        <ele>161.2</ele>
        <time>2026-01-13T12:58:25Z</time>
      </trkpt>
      <trkpt lat="48.65464" lon="1.94013">
        <ele>161.2</ele>
        <time>2026-01-13T12:58:26Z</time>
      </trkpt>
      <trkpt lat="48.65458" lon="1.94019">
        <ele>161.2</ele>
        <time>2026-01-13T12:58:27Z</time>
      </trkpt>
      <trkpt lat="48.65452" lon="1.94025">
        <ele>161.2</ele>
        <time>2026-01-13T12:58:28Z</time>
      </trkpt>
      <trkpt lat="48.65445" lon="1.94033">
        <ele>161.2</ele>
        <time>2026-01-13T12:58:29Z</time>
      </trkpt>
      <trkpt lat="48.6544" lon="1.94039">
        <ele>161.2</ele>
        <time>2026-01-13T12:58:30Z</time>
      </trkpt>
      <trkpt lat="48.65433" lon="1.94046">
        <ele>161.2</ele>
        <time>2026-01-13T12:58:31Z</time>
      </trkpt>
      <trkpt lat="48.65427" lon="1.94053">
        <ele>160.4</ele>
        <time>2026-01-13T12:58:32Z</time>
      </trkpt>
      <trkpt lat="48.6542" lon="1.9406">
        <ele>159.8</ele>
        <time>2026-01-13T12:58:33Z</time>
      </trkpt>
      <trkpt lat="48.65414" lon="1.94068">
        <ele>159.8</ele>
        <time>2026-01-13T12:58:34Z</time>
      </trkpt>
      <trkpt lat="48.65407" lon="1.94076">
        <ele>159.8</ele>
        <time>2026-01-13T12:58:35Z</time>
      </trkpt>
      <trkpt lat="48.65401" lon="1.94084">
        <ele>159.8</ele>
        <time>2026-01-13T12:58:36Z</time>
      </trkpt>
      <trkpt lat="48.65396" lon="1.94092">
        <ele>159.8</ele>
        <time>2026-01-13T12:58:37Z</time>
      </trkpt>
      <trkpt lat="48.65391" lon="1.94102">
        <ele>159.8</ele>
        <time>2026-01-13T12:58:38Z</time>
      </trkpt>
      <trkpt lat="48.65386" lon="1.94111">
        <ele>159.8</ele>
        <time>2026-01-13T12:58:39Z</time>
      </trkpt>
      <trkpt lat="48.65382" lon="1.9412">
        <ele>158.8</ele>
        <time>2026-01-13T12:58:40Z</time>
      </trkpt>
      <trkpt lat="48.65378" lon="1.9413">
        <ele>157.8</ele>
        <time>2026-01-13T12:58:41Z</time>
      </trkpt>
      <trkpt lat="48.65373" lon="1.9414">
        <ele>156.8</ele>
        <time>2026-01-13T12:58:42Z</time>
      </trkpt>
      <trkpt lat="48.65369" lon="1.9415">
        <ele>156.8</ele>
        <time>2026-01-13T12:58:43Z</time>
      </trkpt>
      <trkpt lat="48.65365" lon="1.9416">
        <ele>156.8</ele>
        <time>2026-01-13T12:58:44Z</time>
      </trkpt>
      <trkpt lat="48.65361" lon="1.9417">
        <ele>156.8</ele>
        <time>2026-01-13T12:58:45Z</time>
      </trkpt>
      <trkpt lat="48.65357" lon="1.94179">
        <ele>155.8</ele>
        <time>2026-01-13T12:58:46Z</time>
      </trkpt>
      <trkpt lat="48.65353" lon="1.94189">
        <ele>155.8</ele>
        <time>2026-01-13T12:58:47Z</time>
      </trkpt>
      <trkpt lat="48.65348" lon="1.942">
        <ele>155.8</ele>
        <time>2026-01-13T12:58:48Z</time>
      </trkpt>
      <trkpt lat="48.65344" lon="1.94211">
        <ele>155.8</ele>
        <time>2026-01-13T12:58:49Z</time>
      </trkpt>
      <trkpt lat="48.6534" lon="1.94222">
        <ele>155.6</ele>
        <time>2026-01-13T12:58:50Z</time>
      </trkpt>
      <trkpt lat="48.65335" lon="1.94233">
        <ele>155.6</ele>
        <time>2026-01-13T12:58:51Z</time>
      </trkpt>
      <trkpt lat="48.65331" lon="1.94243">
        <ele>155.6</ele>
        <time>2026-01-13T12:58:52Z</time>
      </trkpt>
      <trkpt lat="48.65326" lon="1.94253">
        <ele>155.6</ele>
        <time>2026-01-13T12:58:53Z</time>
      </trkpt>
      <trkpt lat="48.65321" lon="1.94262">
        <ele>156.4</ele>
        <time>2026-01-13T12:58:54Z</time>
      </trkpt>
      <trkpt lat="48.65316" lon="1.94272">
        <ele>156.4</ele>
        <time>2026-01-13T12:58:55Z</time>
      </trkpt>
      <trkpt lat="48.65312" lon="1.94282">
        <ele>156.4</ele>
        <time>2026-01-13T12:58:56Z</time>
      </trkpt>
      <trkpt lat="48.65307" lon="1.94292">
        <ele>156.4</ele>
        <time>2026-01-13T12:58:57Z</time>
      </trkpt>
      <trkpt lat="48.65303" lon="1.94302">
        <ele>156.4</ele>
        <time>2026-01-13T12:58:58Z</time>
      </trkpt>
      <trkpt lat="48.65299" lon="1.94312">
        <ele>156.4</ele>
        <time>2026-01-13T12:58:59Z</time>
      </trkpt>
      <trkpt lat="48.65295" lon="1.94322">
        <ele>156.4</ele>
        <time>2026-01-13T12:59:00Z</time>
      </trkpt>
      <trkpt lat="48.65291" lon="1.94332">
        <ele>156.4</ele>
        <time>2026-01-13T12:59:01Z</time>
      </trkpt>
      <trkpt lat="48.65287" lon="1.94342">
        <ele>156.4</ele>
        <time>2026-01-13T12:59:02Z</time>
      </trkpt>
      <trkpt lat="48.6528" lon="1.94356">
        <ele>155.6</ele>
        <time>2026-01-13T12:59:03Z</time>
      </trkpt>
      <trkpt lat="48.65278" lon="1.9436">
        <ele>155.2</ele>
        <time>2026-01-13T12:59:04Z</time>
      </trkpt>
      <trkpt lat="48.65272" lon="1.94374">
        <ele>155.2</ele>
        <time>2026-01-13T12:59:05Z</time>
      </trkpt>
      <trkpt lat="48.6527" lon="1.94379">
        <ele>155.2</ele>
        <time>2026-01-13T12:59:06Z</time>
      </trkpt>
      <trkpt lat="48.65266" lon="1.94387">
        <ele>155.4</ele>
        <time>2026-01-13T12:59:07Z</time>
      </trkpt>
      <trkpt lat="48.65262" lon="1.94396">
        <ele>155.4</ele>
        <time>2026-01-13T12:59:08Z</time>
      </trkpt>
      <trkpt lat="48.65259" lon="1.94405">
        <ele>155.4</ele>
        <time>2026-01-13T12:59:09Z</time>
      </trkpt>
      <trkpt lat="48.65255" lon="1.94414">
        <ele>155.4</ele>
        <time>2026-01-13T12:59:10Z</time>
      </trkpt>
      <trkpt lat="48.65251" lon="1.94423">
        <ele>156.4</ele>
        <time>2026-01-13T12:59:11Z</time>
      </trkpt>
      <trkpt lat="48.65247" lon="1.94432">
        <ele>156.4</ele>
        <time>2026-01-13T12:59:12Z</time>
      </trkpt>
      <trkpt lat="48.65243" lon="1.9444">
        <ele>156.4</ele>
        <time>2026-01-13T12:59:13Z</time>
      </trkpt>
      <trkpt lat="48.6524" lon="1.94449">
        <ele>155.6</ele>
        <time>2026-01-13T12:59:14Z</time>
      </trkpt>
      <trkpt lat="48.65236" lon="1.94459">
        <ele>155.4</ele>
        <time>2026-01-13T12:59:15Z</time>
      </trkpt>
      <trkpt lat="48.65232" lon="1.94468">
        <ele>155.4</ele>
        <time>2026-01-13T12:59:16Z</time>
      </trkpt>
      <trkpt lat="48.65228" lon="1.94476">
        <ele>155.4</ele>
        <time>2026-01-13T12:59:17Z</time>
      </trkpt>
      <trkpt lat="48.65224" lon="1.94486">
        <ele>155.4</ele>
        <time>2026-01-13T12:59:18Z</time>
      </trkpt>
      <trkpt lat="48.6522" lon="1.94495">
        <ele>155.4</ele>
        <time>2026-01-13T12:59:19Z</time>
      </trkpt>
      <trkpt lat="48.65217" lon="1.94504">
        <ele>155.4</ele>
        <time>2026-01-13T12:59:20Z</time>
      </trkpt>
      <trkpt lat="48.65213" lon="1.94513">
        <ele>156</ele>
        <time>2026-01-13T12:59:21Z</time>
      </trkpt>
      <trkpt lat="48.65209" lon="1.94521">
        <ele>156</ele>
        <time>2026-01-13T12:59:22Z</time>
      </trkpt>
      <trkpt lat="48.65206" lon="1.9453">
        <ele>156.6</ele>
        <time>2026-01-13T12:59:23Z</time>
      </trkpt>
      <trkpt lat="48.65202" lon="1.94538">
        <ele>156.6</ele>
        <time>2026-01-13T12:59:24Z</time>
      </trkpt>
      <trkpt lat="48.65198" lon="1.94546">
        <ele>156.6</ele>
        <time>2026-01-13T12:59:25Z</time>
      </trkpt>
      <trkpt lat="48.65194" lon="1.94555">
        <ele>156</ele>
        <time>2026-01-13T12:59:26Z</time>
      </trkpt>
      <trkpt lat="48.6519" lon="1.94562">
        <ele>156</ele>
        <time>2026-01-13T12:59:27Z</time>
      </trkpt>
      <trkpt lat="48.65186" lon="1.94569">
        <ele>155.8</ele>
        <time>2026-01-13T12:59:28Z</time>
      </trkpt>
      <trkpt lat="48.65182" lon="1.94576">
        <ele>155.8</ele>
        <time>2026-01-13T12:59:29Z</time>
      </trkpt>
      <trkpt lat="48.65177" lon="1.94584">
        <ele>155.8</ele>
        <time>2026-01-13T12:59:30Z</time>
      </trkpt>
      <trkpt lat="48.65173" lon="1.94592">
        <ele>155.8</ele>
        <time>2026-01-13T12:59:31Z</time>
      </trkpt>
      <trkpt lat="48.65169" lon="1.94598">
        <ele>155.8</ele>
        <time>2026-01-13T12:59:32Z</time>
      </trkpt>
      <trkpt lat="48.65164" lon="1.94605">
        <ele>155.8</ele>
        <time>2026-01-13T12:59:33Z</time>
      </trkpt>
      <trkpt lat="48.65159" lon="1.94611">
        <ele>155.8</ele>
        <time>2026-01-13T12:59:34Z</time>
      </trkpt>
      <trkpt lat="48.65155" lon="1.94617">
        <ele>155.8</ele>
        <time>2026-01-13T12:59:35Z</time>
      </trkpt>
      <trkpt lat="48.6515" lon="1.94623">
        <ele>156.8</ele>
        <time>2026-01-13T12:59:36Z</time>
      </trkpt>
      <trkpt lat="48.65145" lon="1.94629">
        <ele>156.8</ele>
        <time>2026-01-13T12:59:37Z</time>
      </trkpt>
      <trkpt lat="48.65141" lon="1.94636">
        <ele>156.8</ele>
        <time>2026-01-13T12:59:38Z</time>
      </trkpt>
      <trkpt lat="48.65136" lon="1.94642">
        <ele>156.8</ele>
        <time>2026-01-13T12:59:39Z</time>
      </trkpt>
      <trkpt lat="48.65131" lon="1.94648">
        <ele>157.4</ele>
        <time>2026-01-13T12:59:40Z</time>
      </trkpt>
      <trkpt lat="48.65127" lon="1.94654">
        <ele>157.8</ele>
        <time>2026-01-13T12:59:41Z</time>
      </trkpt>
      <trkpt lat="48.65123" lon="1.94659">
        <ele>158.4</ele>
        <time>2026-01-13T12:59:42Z</time>
      </trkpt>
      <trkpt lat="48.65118" lon="1.94664">
        <ele>158.6</ele>
        <time>2026-01-13T12:59:43Z</time>
      </trkpt>
      <trkpt lat="48.65114" lon="1.9467">
        <ele>159</ele>
        <time>2026-01-13T12:59:44Z</time>
      </trkpt>
      <trkpt lat="48.6511" lon="1.94675">
        <ele>159.4</ele>
        <time>2026-01-13T12:59:45Z</time>
      </trkpt>
      <trkpt lat="48.65106" lon="1.9468">
        <ele>159.4</ele>
        <time>2026-01-13T12:59:46Z</time>
      </trkpt>
      <trkpt lat="48.65101" lon="1.94685">
        <ele>159.4</ele>
        <time>2026-01-13T12:59:47Z</time>
      </trkpt>
      <trkpt lat="48.65097" lon="1.9469">
        <ele>159.4</ele>
        <time>2026-01-13T12:59:48Z</time>
      </trkpt>
      <trkpt lat="48.65093" lon="1.94695">
        <ele>160.4</ele>
        <time>2026-01-13T12:59:49Z</time>
      </trkpt>
      <trkpt lat="48.65089" lon="1.947">
        <ele>160.4</ele>
        <time>2026-01-13T12:59:50Z</time>
      </trkpt>
      <trkpt lat="48.65085" lon="1.94705">
        <ele>160.6</ele>
        <time>2026-01-13T12:59:51Z</time>
      </trkpt>
      <trkpt lat="48.6508" lon="1.9471">
        <ele>160.6</ele>
        <time>2026-01-13T12:59:52Z</time>
      </trkpt>
      <trkpt lat="48.65076" lon="1.94715">
        <ele>160.6</ele>
        <time>2026-01-13T12:59:53Z</time>
      </trkpt>
      <trkpt lat="48.65071" lon="1.9472">
        <ele>160.6</ele>
        <time>2026-01-13T12:59:54Z</time>
      </trkpt>
      <trkpt lat="48.65067" lon="1.94724">
        <ele>161.4</ele>
        <time>2026-01-13T12:59:55Z</time>
      </trkpt>
      <trkpt lat="48.65062" lon="1.9473">
        <ele>161.4</ele>
        <time>2026-01-13T12:59:56Z</time>
      </trkpt>
      <trkpt lat="48.65058" lon="1.94735">
        <ele>161.4</ele>
        <time>2026-01-13T12:59:57Z</time>
      </trkpt>
      <trkpt lat="48.65054" lon="1.9474">
        <ele>161.4</ele>
        <time>2026-01-13T12:59:58Z</time>
      </trkpt>
      <trkpt lat="48.65049" lon="1.94745">
        <ele>161.4</ele>
        <time>2026-01-13T12:59:59Z</time>
      </trkpt>
      <trkpt lat="48.65044" lon="1.9475">
        <ele>162.4</ele>
        <time>2026-01-13T13:00:00Z</time>
      </trkpt>
      <trkpt lat="48.65039" lon="1.94755">
        <ele>162.4</ele>
        <time>2026-01-13T13:00:01Z</time>
      </trkpt>
      <trkpt lat="48.65034" lon="1.94761">
        <ele>162.4</ele>
        <time>2026-01-13T13:00:02Z</time>
      </trkpt>
      <trkpt lat="48.6503" lon="1.94766">
        <ele>162.4</ele>
        <time>2026-01-13T13:00:03Z</time>
      </trkpt>
      <trkpt lat="48.65025" lon="1.9477">
        <ele>163.4</ele>
        <time>2026-01-13T13:00:04Z</time>
      </trkpt>
      <trkpt lat="48.65021" lon="1.94774">
        <ele>163.8</ele>
        <time>2026-01-13T13:00:05Z</time>
      </trkpt>
      <trkpt lat="48.65017" lon="1.94779">
        <ele>164.2</ele>
        <time>2026-01-13T13:00:06Z</time>
      </trkpt>
      <trkpt lat="48.65013" lon="1.94783">
        <ele>164.2</ele>
        <time>2026-01-13T13:00:07Z</time>
      </trkpt>
      <trkpt lat="48.6501" lon="1.94787">
        <ele>164.8</ele>
        <time>2026-01-13T13:00:08Z</time>
      </trkpt>
      <trkpt lat="48.65006" lon="1.94791">
        <ele>165</ele>
        <time>2026-01-13T13:00:09Z</time>
      </trkpt>
      <trkpt lat="48.65003" lon="1.94795">
        <ele>165</ele>
        <time>2026-01-13T13:00:10Z</time>
      </trkpt>
      <trkpt lat="48.64999" lon="1.94798">
        <ele>165</ele>
        <time>2026-01-13T13:00:11Z</time>
      </trkpt>
      <trkpt lat="48.64996" lon="1.94802">
        <ele>165</ele>
        <time>2026-01-13T13:00:12Z</time>
      </trkpt>
      <trkpt lat="48.64992" lon="1.94806">
        <ele>165.2</ele>
        <time>2026-01-13T13:00:13Z</time>
      </trkpt>
      <trkpt lat="48.64988" lon="1.9481">
        <ele>165.6</ele>
        <time>2026-01-13T13:00:14Z</time>
      </trkpt>
      <trkpt lat="48.64985" lon="1.94814">
        <ele>165.6</ele>
        <time>2026-01-13T13:00:15Z</time>
      </trkpt>
      <trkpt lat="48.64981" lon="1.94818">
        <ele>165.6</ele>
        <time>2026-01-13T13:00:16Z</time>
      </trkpt>
      <trkpt lat="48.64977" lon="1.94822">
        <ele>165.6</ele>
        <time>2026-01-13T13:00:17Z</time>
      </trkpt>
      <trkpt lat="48.64973" lon="1.94826">
        <ele>165.6</ele>
        <time>2026-01-13T13:00:18Z</time>
      </trkpt>
      <trkpt lat="48.64969" lon="1.9483">
        <ele>165.6</ele>
        <time>2026-01-13T13:00:19Z</time>
      </trkpt>
      <trkpt lat="48.64965" lon="1.94834">
        <ele>165.4</ele>
        <time>2026-01-13T13:00:20Z</time>
      </trkpt>
      <trkpt lat="48.64961" lon="1.94839">
        <ele>165.2</ele>
        <time>2026-01-13T13:00:21Z</time>
      </trkpt>
      <trkpt lat="48.64957" lon="1.94843">
        <ele>165.2</ele>
        <time>2026-01-13T13:00:22Z</time>
      </trkpt>
      <trkpt lat="48.64953" lon="1.94847">
        <ele>165.2</ele>
        <time>2026-01-13T13:00:23Z</time>
      </trkpt>
      <trkpt lat="48.64949" lon="1.94851">
        <ele>166</ele>
        <time>2026-01-13T13:00:24Z</time>
      </trkpt>
      <trkpt lat="48.64944" lon="1.94855">
        <ele>166.2</ele>
        <time>2026-01-13T13:00:25Z</time>
      </trkpt>
      <trkpt lat="48.6494" lon="1.94858">
        <ele>166.2</ele>
        <time>2026-01-13T13:00:26Z</time>
      </trkpt>
      <trkpt lat="48.64935" lon="1.94862">
        <ele>166.2</ele>
        <time>2026-01-13T13:00:27Z</time>
      </trkpt>
      <trkpt lat="48.64931" lon="1.94865">
        <ele>165.4</ele>
        <time>2026-01-13T13:00:28Z</time>
      </trkpt>
      <trkpt lat="48.64926" lon="1.94868">
        <ele>165.4</ele>
        <time>2026-01-13T13:00:29Z</time>
      </trkpt>
      <trkpt lat="48.64921" lon="1.94871">
        <ele>165.4</ele>
        <time>2026-01-13T13:00:30Z</time>
      </trkpt>
      <trkpt lat="48.64916" lon="1.94874">
        <ele>165.4</ele>
        <time>2026-01-13T13:00:31Z</time>
      </trkpt>
      <trkpt lat="48.64911" lon="1.94877">
        <ele>165.4</ele>
        <time>2026-01-13T13:00:32Z</time>
      </trkpt>
      <trkpt lat="48.64906" lon="1.94879">
        <ele>165.4</ele>
        <time>2026-01-13T13:00:33Z</time>
      </trkpt>
      <trkpt lat="48.64901" lon="1.94881">
        <ele>165.4</ele>
        <time>2026-01-13T13:00:34Z</time>
      </trkpt>
      <trkpt lat="48.64897" lon="1.94883">
        <ele>165.4</ele>
        <time>2026-01-13T13:00:35Z</time>
      </trkpt>
      <trkpt lat="48.64891" lon="1.94886">
        <ele>165.4</ele>
        <time>2026-01-13T13:00:36Z</time>
      </trkpt>
      <trkpt lat="48.64886" lon="1.94888">
        <ele>165.4</ele>
        <time>2026-01-13T13:00:37Z</time>
      </trkpt>
      <trkpt lat="48.6488" lon="1.94891">
        <ele>164.8</ele>
        <time>2026-01-13T13:00:38Z</time>
      </trkpt>
      <trkpt lat="48.64874" lon="1.94894">
        <ele>164.2</ele>
        <time>2026-01-13T13:00:39Z</time>
      </trkpt>
      <trkpt lat="48.64868" lon="1.94897">
        <ele>164.2</ele>
        <time>2026-01-13T13:00:40Z</time>
      </trkpt>
      <trkpt lat="48.64862" lon="1.949">
        <ele>164.2</ele>
        <time>2026-01-13T13:00:41Z</time>
      </trkpt>
      <trkpt lat="48.64856" lon="1.94904">
        <ele>164.4</ele>
        <time>2026-01-13T13:00:42Z</time>
      </trkpt>
      <trkpt lat="48.64849" lon="1.94907">
        <ele>164.4</ele>
        <time>2026-01-13T13:00:43Z</time>
      </trkpt>
      <trkpt lat="48.64843" lon="1.9491">
        <ele>164.4</ele>
        <time>2026-01-13T13:00:44Z</time>
      </trkpt>
      <trkpt lat="48.64836" lon="1.94914">
        <ele>163.4</ele>
        <time>2026-01-13T13:00:45Z</time>
      </trkpt>
      <trkpt lat="48.64829" lon="1.94918">
        <ele>162.6</ele>
        <time>2026-01-13T13:00:46Z</time>
      </trkpt>
      <trkpt lat="48.64823" lon="1.94922">
        <ele>162.6</ele>
        <time>2026-01-13T13:00:47Z</time>
      </trkpt>
      <trkpt lat="48.64816" lon="1.94926">
        <ele>162.6</ele>
        <time>2026-01-13T13:00:48Z</time>
      </trkpt>
      <trkpt lat="48.64809" lon="1.9493">
        <ele>162.6</ele>
        <time>2026-01-13T13:00:49Z</time>
      </trkpt>
      <trkpt lat="48.64802" lon="1.94935">
        <ele>161.6</ele>
        <time>2026-01-13T13:00:50Z</time>
      </trkpt>
      <trkpt lat="48.64795" lon="1.94939">
        <ele>160.8</ele>
        <time>2026-01-13T13:00:51Z</time>
      </trkpt>
      <trkpt lat="48.64789" lon="1.94944">
        <ele>160.8</ele>
        <time>2026-01-13T13:00:52Z</time>
      </trkpt>
      <trkpt lat="48.64782" lon="1.94949">
        <ele>160.8</ele>
        <time>2026-01-13T13:00:53Z</time>
      </trkpt>
      <trkpt lat="48.64775" lon="1.94953">
        <ele>160.8</ele>
        <time>2026-01-13T13:00:54Z</time>
      </trkpt>
      <trkpt lat="48.64768" lon="1.94958">
        <ele>159.8</ele>
        <time>2026-01-13T13:00:55Z</time>
      </trkpt>
      <trkpt lat="48.64762" lon="1.94962">
        <ele>159.8</ele>
        <time>2026-01-13T13:00:56Z</time>
      </trkpt>
      <trkpt lat="48.64755" lon="1.94967">
        <ele>159.8</ele>
        <time>2026-01-13T13:00:57Z</time>
      </trkpt>
      <trkpt lat="48.64748" lon="1.94972">
        <ele>159.8</ele>
        <time>2026-01-13T13:00:58Z</time>
      </trkpt>
      <trkpt lat="48.64741" lon="1.94977">
        <ele>158.8</ele>
        <time>2026-01-13T13:00:59Z</time>
      </trkpt>
      <trkpt lat="48.64735" lon="1.94981">
        <ele>158.8</ele>
        <time>2026-01-13T13:01:00Z</time>
      </trkpt>
      <trkpt lat="48.64728" lon="1.94987">
        <ele>158.8</ele>
        <time>2026-01-13T13:01:01Z</time>
      </trkpt>
      <trkpt lat="48.64721" lon="1.94991">
        <ele>158.8</ele>
        <time>2026-01-13T13:01:02Z</time>
      </trkpt>
      <trkpt lat="48.64715" lon="1.94996">
        <ele>158.4</ele>
        <time>2026-01-13T13:01:03Z</time>
      </trkpt>
      <trkpt lat="48.64708" lon="1.95001">
        <ele>157.4</ele>
        <time>2026-01-13T13:01:04Z</time>
      </trkpt>
      <trkpt lat="48.64702" lon="1.95006">
        <ele>157.2</ele>
        <time>2026-01-13T13:01:05Z</time>
      </trkpt>
      <trkpt lat="48.64695" lon="1.95011">
        <ele>157.2</ele>
        <time>2026-01-13T13:01:06Z</time>
      </trkpt>
      <trkpt lat="48.64689" lon="1.95016">
        <ele>157.2</ele>
        <time>2026-01-13T13:01:07Z</time>
      </trkpt>
      <trkpt lat="48.64682" lon="1.95022">
        <ele>158.2</ele>
        <time>2026-01-13T13:01:08Z</time>
      </trkpt>
      <trkpt lat="48.64676" lon="1.95027">
        <ele>159.2</ele>
        <time>2026-01-13T13:01:09Z</time>
      </trkpt>
      <trkpt lat="48.6467" lon="1.95033">
        <ele>159.2</ele>
        <time>2026-01-13T13:01:10Z</time>
      </trkpt>
      <trkpt lat="48.64663" lon="1.95038">
        <ele>159.2</ele>
        <time>2026-01-13T13:01:11Z</time>
      </trkpt>
      <trkpt lat="48.64657" lon="1.95043">
        <ele>159.2</ele>
        <time>2026-01-13T13:01:12Z</time>
      </trkpt>
      <trkpt lat="48.64647" lon="1.95051">
        <ele>158.2</ele>
        <time>2026-01-13T13:01:13Z</time>
      </trkpt>
      <trkpt lat="48.64644" lon="1.95054">
        <ele>157.2</ele>
        <time>2026-01-13T13:01:14Z</time>
      </trkpt>
      <trkpt lat="48.64636" lon="1.9506">
        <ele>156.2</ele>
        <time>2026-01-13T13:01:15Z</time>
      </trkpt>
      <trkpt lat="48.64628" lon="1.95066">
        <ele>155.6</ele>
        <time>2026-01-13T13:01:16Z</time>
      </trkpt>
      <trkpt lat="48.6462" lon="1.95071">
        <ele>154.6</ele>
        <time>2026-01-13T13:01:17Z</time>
      </trkpt>
      <trkpt lat="48.64611" lon="1.95075">
        <ele>153.6</ele>
        <time>2026-01-13T13:01:18Z</time>
      </trkpt>
      <trkpt lat="48.64602" lon="1.95078">
        <ele>152.6</ele>
        <time>2026-01-13T13:01:19Z</time>
      </trkpt>
      <trkpt lat="48.64593" lon="1.9508">
        <ele>151.8</ele>
        <time>2026-01-13T13:01:20Z</time>
      </trkpt>
      <trkpt lat="48.64584" lon="1.95081">
        <ele>151.2</ele>
        <time>2026-01-13T13:01:21Z</time>
      </trkpt>
      <trkpt lat="48.64574" lon="1.95082">
        <ele>150.2</ele>
        <time>2026-01-13T13:01:22Z</time>
      </trkpt>
      <trkpt lat="48.64565" lon="1.95082">
        <ele>149.2</ele>
        <time>2026-01-13T13:01:23Z</time>
      </trkpt>
      <trkpt lat="48.64556" lon="1.95081">
        <ele>148.2</ele>
        <time>2026-01-13T13:01:24Z</time>
      </trkpt>
      <trkpt lat="48.64547" lon="1.95079">
        <ele>148.2</ele>
        <time>2026-01-13T13:01:25Z</time>
      </trkpt>
      <trkpt lat="48.64537" lon="1.95077">
        <ele>148.2</ele>
        <time>2026-01-13T13:01:26Z</time>
      </trkpt>
      <trkpt lat="48.64528" lon="1.95074">
        <ele>148.2</ele>
        <time>2026-01-13T13:01:27Z</time>
      </trkpt>
      <trkpt lat="48.64519" lon="1.95072">
        <ele>147.2</ele>
        <time>2026-01-13T13:01:28Z</time>
      </trkpt>
      <trkpt lat="48.6451" lon="1.95068">
        <ele>146.2</ele>
        <time>2026-01-13T13:01:29Z</time>
      </trkpt>
      <trkpt lat="48.645" lon="1.95065">
        <ele>145.4</ele>
        <time>2026-01-13T13:01:30Z</time>
      </trkpt>
      <trkpt lat="48.64491" lon="1.95062">
        <ele>144.4</ele>
        <time>2026-01-13T13:01:31Z</time>
      </trkpt>
      <trkpt lat="48.64482" lon="1.9506">
        <ele>144.4</ele>
        <time>2026-01-13T13:01:32Z</time>
      </trkpt>
      <trkpt lat="48.64472" lon="1.95059">
        <ele>144.4</ele>
        <time>2026-01-13T13:01:33Z</time>
      </trkpt>
      <trkpt lat="48.64462" lon="1.95059">
        <ele>144.6</ele>
        <time>2026-01-13T13:01:34Z</time>
      </trkpt>
      <trkpt lat="48.64453" lon="1.9506">
        <ele>144.6</ele>
        <time>2026-01-13T13:01:35Z</time>
      </trkpt>
      <trkpt lat="48.64443" lon="1.95062">
        <ele>144.6</ele>
        <time>2026-01-13T13:01:36Z</time>
      </trkpt>
      <trkpt lat="48.64433" lon="1.95065">
        <ele>143.6</ele>
        <time>2026-01-13T13:01:37Z</time>
      </trkpt>
      <trkpt lat="48.64423" lon="1.95068">
        <ele>142.6</ele>
        <time>2026-01-13T13:01:38Z</time>
      </trkpt>
      <trkpt lat="48.64413" lon="1.95071">
        <ele>141.6</ele>
        <time>2026-01-13T13:01:39Z</time>
      </trkpt>
      <trkpt lat="48.64404" lon="1.95075">
        <ele>140.6</ele>
        <time>2026-01-13T13:01:40Z</time>
      </trkpt>
      <trkpt lat="48.64394" lon="1.95079">
        <ele>139.6</ele>
        <time>2026-01-13T13:01:41Z</time>
      </trkpt>
      <trkpt lat="48.64385" lon="1.95083">
        <ele>139.6</ele>
        <time>2026-01-13T13:01:42Z</time>
      </trkpt>
      <trkpt lat="48.64375" lon="1.95088">
        <ele>139.6</ele>
        <time>2026-01-13T13:01:43Z</time>
      </trkpt>
      <trkpt lat="48.64366" lon="1.95093">
        <ele>139.6</ele>
        <time>2026-01-13T13:01:44Z</time>
      </trkpt>
      <trkpt lat="48.64357" lon="1.95098">
        <ele>139.6</ele>
        <time>2026-01-13T13:01:45Z</time>
      </trkpt>
      <trkpt lat="48.64348" lon="1.95104">
        <ele>139.6</ele>
        <time>2026-01-13T13:01:46Z</time>
      </trkpt>
      <trkpt lat="48.64339" lon="1.95109">
        <ele>139.8</ele>
        <time>2026-01-13T13:01:47Z</time>
      </trkpt>
      <trkpt lat="48.6433" lon="1.95113">
        <ele>139.8</ele>
        <time>2026-01-13T13:01:48Z</time>
      </trkpt>
      <trkpt lat="48.64321" lon="1.95116">
        <ele>139.8</ele>
        <time>2026-01-13T13:01:49Z</time>
      </trkpt>
      <trkpt lat="48.64311" lon="1.95117">
        <ele>138.8</ele>
        <time>2026-01-13T13:01:50Z</time>
      </trkpt>
      <trkpt lat="48.64302" lon="1.95117">
        <ele>138.4</ele>
        <time>2026-01-13T13:01:51Z</time>
      </trkpt>
      <trkpt lat="48.64293" lon="1.95115">
        <ele>138</ele>
        <time>2026-01-13T13:01:52Z</time>
      </trkpt>
      <trkpt lat="48.64284" lon="1.95113">
        <ele>138</ele>
        <time>2026-01-13T13:01:53Z</time>
      </trkpt>
      <trkpt lat="48.64275" lon="1.95111">
        <ele>138</ele>
        <time>2026-01-13T13:01:54Z</time>
      </trkpt>
      <trkpt lat="48.64266" lon="1.95108">
        <ele>138</ele>
        <time>2026-01-13T13:01:55Z</time>
      </trkpt>
      <trkpt lat="48.64258" lon="1.95105">
        <ele>138</ele>
        <time>2026-01-13T13:01:56Z</time>
      </trkpt>
      <trkpt lat="48.64249" lon="1.95103">
        <ele>138.8</ele>
        <time>2026-01-13T13:01:57Z</time>
      </trkpt>
      <trkpt lat="48.64241" lon="1.951">
        <ele>139.2</ele>
        <time>2026-01-13T13:01:58Z</time>
      </trkpt>
      <trkpt lat="48.64233" lon="1.95098">
        <ele>139.2</ele>
        <time>2026-01-13T13:01:59Z</time>
      </trkpt>
      <trkpt lat="48.64225" lon="1.95095">
        <ele>139.2</ele>
        <time>2026-01-13T13:02:00Z</time>
      </trkpt>
      <trkpt lat="48.64218" lon="1.95093">
        <ele>138.6</ele>
        <time>2026-01-13T13:02:01Z</time>
      </trkpt>
      <trkpt lat="48.6421" lon="1.9509">
        <ele>138.6</ele>
        <time>2026-01-13T13:02:02Z</time>
      </trkpt>
      <trkpt lat="48.64203" lon="1.95087">
        <ele>138.6</ele>
        <time>2026-01-13T13:02:03Z</time>
      </trkpt>
      <trkpt lat="48.64196" lon="1.95084">
        <ele>138.6</ele>
        <time>2026-01-13T13:02:04Z</time>
      </trkpt>
      <trkpt lat="48.64188" lon="1.95081">
        <ele>138.6</ele>
        <time>2026-01-13T13:02:05Z</time>
      </trkpt>
      <trkpt lat="48.64181" lon="1.95079">
        <ele>139.6</ele>
        <time>2026-01-13T13:02:06Z</time>
      </trkpt>
      <trkpt lat="48.64174" lon="1.95076">
        <ele>140.4</ele>
        <time>2026-01-13T13:02:07Z</time>
      </trkpt>
      <trkpt lat="48.64167" lon="1.95074">
        <ele>140.4</ele>
        <time>2026-01-13T13:02:08Z</time>
      </trkpt>
      <trkpt lat="48.6416" lon="1.95071">
        <ele>140.4</ele>
        <time>2026-01-13T13:02:09Z</time>
      </trkpt>
      <trkpt lat="48.64153" lon="1.95068">
        <ele>140.4</ele>
        <time>2026-01-13T13:02:10Z</time>
      </trkpt>
      <trkpt lat="48.64146" lon="1.95065">
        <ele>139.8</ele>
        <time>2026-01-13T13:02:11Z</time>
      </trkpt>
      <trkpt lat="48.64139" lon="1.95062">
        <ele>139.8</ele>
        <time>2026-01-13T13:02:12Z</time>
      </trkpt>
      <trkpt lat="48.64128" lon="1.95056">
        <ele>139.8</ele>
        <time>2026-01-13T13:02:13Z</time>
      </trkpt>
      <trkpt lat="48.64124" lon="1.95055">
        <ele>139.8</ele>
        <time>2026-01-13T13:02:14Z</time>
      </trkpt>
      <trkpt lat="48.64117" lon="1.9505">
        <ele>139.4</ele>
        <time>2026-01-13T13:02:15Z</time>
      </trkpt>
      <trkpt lat="48.6411" lon="1.95046">
        <ele>138.4</ele>
        <time>2026-01-13T13:02:16Z</time>
      </trkpt>
      <trkpt lat="48.64103" lon="1.95041">
        <ele>138.4</ele>
        <time>2026-01-13T13:02:17Z</time>
      </trkpt>
      <trkpt lat="48.64096" lon="1.95037">
        <ele>138.4</ele>
        <time>2026-01-13T13:02:18Z</time>
      </trkpt>
      <trkpt lat="48.64089" lon="1.95032">
        <ele>138.4</ele>
        <time>2026-01-13T13:02:19Z</time>
      </trkpt>
      <trkpt lat="48.64082" lon="1.95028">
        <ele>138.4</ele>
        <time>2026-01-13T13:02:20Z</time>
      </trkpt>
      <trkpt lat="48.64076" lon="1.95025">
        <ele>137.8</ele>
        <time>2026-01-13T13:02:21Z</time>
      </trkpt>
      <trkpt lat="48.64071" lon="1.95021">
        <ele>137.8</ele>
        <time>2026-01-13T13:02:22Z</time>
      </trkpt>
      <trkpt lat="48.64064" lon="1.95017">
        <ele>137.8</ele>
        <time>2026-01-13T13:02:23Z</time>
      </trkpt>
      <trkpt lat="48.64057" lon="1.95014">
        <ele>137.8</ele>
        <time>2026-01-13T13:02:24Z</time>
      </trkpt>
      <trkpt lat="48.64051" lon="1.95011">
        <ele>137.8</ele>
        <time>2026-01-13T13:02:25Z</time>
      </trkpt>
      <trkpt lat="48.64043" lon="1.9501">
        <ele>137.8</ele>
        <time>2026-01-13T13:02:26Z</time>
      </trkpt>
      <trkpt lat="48.64037" lon="1.95008">
        <ele>138.4</ele>
        <time>2026-01-13T13:02:27Z</time>
      </trkpt>
      <trkpt lat="48.6403" lon="1.95007">
        <ele>138.4</ele>
        <time>2026-01-13T13:02:28Z</time>
      </trkpt>
      <trkpt lat="48.64023" lon="1.95006">
        <ele>138.4</ele>
        <time>2026-01-13T13:02:29Z</time>
      </trkpt>
      <trkpt lat="48.64017" lon="1.95005">
        <ele>138.2</ele>
        <time>2026-01-13T13:02:30Z</time>
      </trkpt>
      <trkpt lat="48.64011" lon="1.95006">
        <ele>138.2</ele>
        <time>2026-01-13T13:02:31Z</time>
      </trkpt>
      <trkpt lat="48.64006" lon="1.95007">
        <ele>138.2</ele>
        <time>2026-01-13T13:02:32Z</time>
      </trkpt>
      <trkpt lat="48.63999" lon="1.95009">
        <ele>139</ele>
        <time>2026-01-13T13:02:33Z</time>
      </trkpt>
      <trkpt lat="48.63993" lon="1.95012">
        <ele>139</ele>
        <time>2026-01-13T13:02:34Z</time>
      </trkpt>
      <trkpt lat="48.63986" lon="1.95015">
        <ele>139</ele>
        <time>2026-01-13T13:02:35Z</time>
      </trkpt>
      <trkpt lat="48.6398" lon="1.95018">
        <ele>138</ele>
        <time>2026-01-13T13:02:36Z</time>
      </trkpt>
      <trkpt lat="48.63973" lon="1.95022">
        <ele>137.2</ele>
        <time>2026-01-13T13:02:37Z</time>
      </trkpt>
      <trkpt lat="48.63967" lon="1.95025">
        <ele>137.2</ele>
        <time>2026-01-13T13:02:38Z</time>
      </trkpt>
      <trkpt lat="48.63958" lon="1.95031">
        <ele>137.2</ele>
        <time>2026-01-13T13:02:39Z</time>
      </trkpt>
      <trkpt lat="48.63954" lon="1.95033">
        <ele>138.2</ele>
        <time>2026-01-13T13:02:40Z</time>
      </trkpt>
      <trkpt lat="48.63948" lon="1.95036">
        <ele>138.8</ele>
        <time>2026-01-13T13:02:41Z</time>
      </trkpt>
      <trkpt lat="48.63942" lon="1.95039">
        <ele>138.8</ele>
        <time>2026-01-13T13:02:42Z</time>
      </trkpt>
      <trkpt lat="48.63937" lon="1.95043">
        <ele>138.8</ele>
        <time>2026-01-13T13:02:43Z</time>
      </trkpt>
      <trkpt lat="48.63932" lon="1.95045">
        <ele>138.2</ele>
        <time>2026-01-13T13:02:44Z</time>
      </trkpt>
      <trkpt lat="48.63926" lon="1.95047">
        <ele>138.2</ele>
        <time>2026-01-13T13:02:45Z</time>
      </trkpt>
      <trkpt lat="48.63918" lon="1.95052">
        <ele>138.2</ele>
        <time>2026-01-13T13:02:46Z</time>
      </trkpt>
      <trkpt lat="48.63915" lon="1.95053">
        <ele>138.2</ele>
        <time>2026-01-13T13:02:47Z</time>
      </trkpt>
      <trkpt lat="48.63909" lon="1.95057">
        <ele>138.2</ele>
        <time>2026-01-13T13:02:48Z</time>
      </trkpt>
      <trkpt lat="48.63904" lon="1.9506">
        <ele>138.2</ele>
        <time>2026-01-13T13:02:49Z</time>
      </trkpt>
      <trkpt lat="48.63898" lon="1.95064">
        <ele>138.2</ele>
        <time>2026-01-13T13:02:50Z</time>
      </trkpt>
      <trkpt lat="48.63893" lon="1.95067">
        <ele>138.2</ele>
        <time>2026-01-13T13:02:51Z</time>
      </trkpt>
      <trkpt lat="48.63887" lon="1.9507">
        <ele>139.2</ele>
        <time>2026-01-13T13:02:52Z</time>
      </trkpt>
      <trkpt lat="48.63879" lon="1.95076">
        <ele>139.2</ele>
        <time>2026-01-13T13:02:53Z</time>
      </trkpt>
      <trkpt lat="48.63876" lon="1.95078">
        <ele>139.2</ele>
        <time>2026-01-13T13:02:54Z</time>
      </trkpt>
      <trkpt lat="48.63871" lon="1.95083">
        <ele>139.2</ele>
        <time>2026-01-13T13:02:55Z</time>
      </trkpt>
      <trkpt lat="48.63862" lon="1.95091">
        <ele>139.2</ele>
        <time>2026-01-13T13:02:56Z</time>
      </trkpt>
      <trkpt lat="48.6386" lon="1.95094">
        <ele>139.2</ele>
        <time>2026-01-13T13:02:57Z</time>
      </trkpt>
      <trkpt lat="48.63855" lon="1.95101">
        <ele>138.8</ele>
        <time>2026-01-13T13:02:58Z</time>
      </trkpt>
      <trkpt lat="48.63849" lon="1.95107">
        <ele>138.2</ele>
        <time>2026-01-13T13:02:59Z</time>
      </trkpt>
      <trkpt lat="48.63842" lon="1.95117">
        <ele>138.2</ele>
        <time>2026-01-13T13:03:00Z</time>
      </trkpt>
      <trkpt lat="48.6384" lon="1.9512">
        <ele>138.2</ele>
        <time>2026-01-13T13:03:01Z</time>
      </trkpt>
      <trkpt lat="48.63833" lon="1.9513">
        <ele>139.2</ele>
        <time>2026-01-13T13:03:02Z</time>
      </trkpt>
      <trkpt lat="48.63831" lon="1.95133">
        <ele>139.2</ele>
        <time>2026-01-13T13:03:03Z</time>
      </trkpt>
      <trkpt lat="48.63827" lon="1.9514">
        <ele>139.2</ele>
        <time>2026-01-13T13:03:04Z</time>
      </trkpt>
      <trkpt lat="48.63822" lon="1.9515">
        <ele>139.2</ele>
        <time>2026-01-13T13:03:05Z</time>
      </trkpt>
      <trkpt lat="48.63821" lon="1.95153">
        <ele>139</ele>
        <time>2026-01-13T13:03:06Z</time>
      </trkpt>
      <trkpt lat="48.63817" lon="1.95164">
        <ele>139</ele>
        <time>2026-01-13T13:03:07Z</time>
      </trkpt>
      <trkpt lat="48.63816" lon="1.95167">
        <ele>139</ele>
        <time>2026-01-13T13:03:08Z</time>
      </trkpt>
      <trkpt lat="48.63814" lon="1.95177">
        <ele>140</ele>
        <time>2026-01-13T13:03:09Z</time>
      </trkpt>
      <trkpt lat="48.63813" lon="1.9518">
        <ele>140.6</ele>
        <time>2026-01-13T13:03:10Z</time>
      </trkpt>
      <trkpt lat="48.63811" lon="1.95186">
        <ele>140.6</ele>
        <time>2026-01-13T13:03:11Z</time>
      </trkpt>
      <trkpt lat="48.6381" lon="1.95192">
        <ele>140.6</ele>
        <time>2026-01-13T13:03:12Z</time>
      </trkpt>
      <trkpt lat="48.63807" lon="1.95202">
        <ele>140.6</ele>
        <time>2026-01-13T13:03:13Z</time>
      </trkpt>
      <trkpt lat="48.63806" lon="1.95205">
        <ele>139.8</ele>
        <time>2026-01-13T13:03:14Z</time>
      </trkpt>
      <trkpt lat="48.63804" lon="1.95213">
        <ele>139.8</ele>
        <time>2026-01-13T13:03:15Z</time>
      </trkpt>
      <trkpt lat="48.63801" lon="1.95221">
        <ele>139.4</ele>
        <time>2026-01-13T13:03:16Z</time>
      </trkpt>
      <trkpt lat="48.63799" lon="1.9523">
        <ele>139.2</ele>
        <time>2026-01-13T13:03:17Z</time>
      </trkpt>
      <trkpt lat="48.63796" lon="1.95243">
        <ele>139.2</ele>
        <time>2026-01-13T13:03:18Z</time>
      </trkpt>
      <trkpt lat="48.63794" lon="1.95248">
        <ele>139.2</ele>
        <time>2026-01-13T13:03:19Z</time>
      </trkpt>
      <trkpt lat="48.63791" lon="1.95257">
        <ele>139.2</ele>
        <time>2026-01-13T13:03:20Z</time>
      </trkpt>
      <trkpt lat="48.63788" lon="1.95266">
        <ele>139.8</ele>
        <time>2026-01-13T13:03:21Z</time>
      </trkpt>
      <trkpt lat="48.63785" lon="1.95275">
        <ele>140.4</ele>
        <time>2026-01-13T13:03:22Z</time>
      </trkpt>
      <trkpt lat="48.6378" lon="1.95288">
        <ele>140.4</ele>
        <time>2026-01-13T13:03:23Z</time>
      </trkpt>
      <trkpt lat="48.63778" lon="1.95292">
        <ele>140.4</ele>
        <time>2026-01-13T13:03:24Z</time>
      </trkpt>
      <trkpt lat="48.63775" lon="1.95301">
        <ele>139.8</ele>
        <time>2026-01-13T13:03:25Z</time>
      </trkpt>
      <trkpt lat="48.63772" lon="1.9531">
        <ele>139.8</ele>
        <time>2026-01-13T13:03:26Z</time>
      </trkpt>
      <trkpt lat="48.63768" lon="1.95318">
        <ele>139.8</ele>
        <time>2026-01-13T13:03:27Z</time>
      </trkpt>
      <trkpt lat="48.63764" lon="1.9533">
        <ele>139.8</ele>
        <time>2026-01-13T13:03:28Z</time>
      </trkpt>
      <trkpt lat="48.63762" lon="1.95334">
        <ele>140.2</ele>
        <time>2026-01-13T13:03:29Z</time>
      </trkpt>
      <trkpt lat="48.63759" lon="1.95342">
        <ele>140.2</ele>
        <time>2026-01-13T13:03:30Z</time>
      </trkpt>
      <trkpt lat="48.63756" lon="1.95349">
        <ele>140.2</ele>
        <time>2026-01-13T13:03:31Z</time>
      </trkpt>
      <trkpt lat="48.63754" lon="1.95358">
        <ele>139.2</ele>
        <time>2026-01-13T13:03:32Z</time>
      </trkpt>
      <trkpt lat="48.63751" lon="1.95365">
        <ele>138.2</ele>
        <time>2026-01-13T13:03:33Z</time>
      </trkpt>
      <trkpt lat="48.63748" lon="1.95373">
        <ele>137.6</ele>
        <time>2026-01-13T13:03:34Z</time>
      </trkpt>
      <trkpt lat="48.63745" lon="1.9538">
        <ele>137.4</ele>
        <time>2026-01-13T13:03:35Z</time>
      </trkpt>
      <trkpt lat="48.63742" lon="1.95386">
        <ele>136.8</ele>
        <time>2026-01-13T13:03:36Z</time>
      </trkpt>
      <trkpt lat="48.63737" lon="1.95397">
        <ele>136.8</ele>
        <time>2026-01-13T13:03:37Z</time>
      </trkpt>
      <trkpt lat="48.63734" lon="1.95401">
        <ele>136.8</ele>
        <time>2026-01-13T13:03:38Z</time>
      </trkpt>
      <trkpt lat="48.63726" lon="1.9541">
        <ele>136.8</ele>
        <time>2026-01-13T13:03:39Z</time>
      </trkpt>
      <trkpt lat="48.63723" lon="1.95413">
        <ele>136</ele>
        <time>2026-01-13T13:03:40Z</time>
      </trkpt>
      <trkpt lat="48.63716" lon="1.95417">
        <ele>135.2</ele>
        <time>2026-01-13T13:03:41Z</time>
      </trkpt>
      <trkpt lat="48.63708" lon="1.95419">
        <ele>134.4</ele>
        <time>2026-01-13T13:03:42Z</time>
      </trkpt>
      <trkpt lat="48.637" lon="1.9542">
        <ele>134.2</ele>
        <time>2026-01-13T13:03:43Z</time>
      </trkpt>
      <trkpt lat="48.63692" lon="1.95419">
        <ele>133.4</ele>
        <time>2026-01-13T13:03:44Z</time>
      </trkpt>
      <trkpt lat="48.63684" lon="1.95417">
        <ele>133.4</ele>
        <time>2026-01-13T13:03:45Z</time>
      </trkpt>
      <trkpt lat="48.63676" lon="1.95414">
        <ele>133.4</ele>
        <time>2026-01-13T13:03:46Z</time>
      </trkpt>
      <trkpt lat="48.63664" lon="1.9541">
        <ele>133.4</ele>
        <time>2026-01-13T13:03:47Z</time>
      </trkpt>
      <trkpt lat="48.6366" lon="1.95409">
        <ele>133.4</ele>
        <time>2026-01-13T13:03:48Z</time>
      </trkpt>
      <trkpt lat="48.63652" lon="1.95407">
        <ele>133.4</ele>
        <time>2026-01-13T13:03:49Z</time>
      </trkpt>
      <trkpt lat="48.63645" lon="1.95405">
        <ele>134.4</ele>
        <time>2026-01-13T13:03:50Z</time>
      </trkpt>
      <trkpt lat="48.63637" lon="1.95403">
        <ele>134.4</ele>
        <time>2026-01-13T13:03:51Z</time>
      </trkpt>
      <trkpt lat="48.6363" lon="1.95401">
        <ele>134.4</ele>
        <time>2026-01-13T13:03:52Z</time>
      </trkpt>
      <trkpt lat="48.63623" lon="1.95399">
        <ele>133.8</ele>
        <time>2026-01-13T13:03:53Z</time>
      </trkpt>
      <trkpt lat="48.63617" lon="1.95396">
        <ele>132.8</ele>
        <time>2026-01-13T13:03:54Z</time>
      </trkpt>
      <trkpt lat="48.63607" lon="1.95393">
        <ele>132.8</ele>
        <time>2026-01-13T13:03:55Z</time>
      </trkpt>
      <trkpt lat="48.63604" lon="1.95392">
        <ele>132.8</ele>
        <time>2026-01-13T13:03:56Z</time>
      </trkpt>
      <trkpt lat="48.63597" lon="1.9539">
        <ele>132.8</ele>
        <time>2026-01-13T13:03:57Z</time>
      </trkpt>
      <trkpt lat="48.63592" lon="1.95388">
        <ele>132.8</ele>
        <time>2026-01-13T13:03:58Z</time>
      </trkpt>
      <trkpt lat="48.63586" lon="1.95386">
        <ele>132.8</ele>
        <time>2026-01-13T13:03:59Z</time>
      </trkpt>
      <trkpt lat="48.6358" lon="1.95385">
        <ele>133.8</ele>
        <time>2026-01-13T13:04:00Z</time>
      </trkpt>
      <trkpt lat="48.63574" lon="1.95383">
        <ele>134.8</ele>
        <time>2026-01-13T13:04:01Z</time>
      </trkpt>
      <trkpt lat="48.63569" lon="1.95383">
        <ele>135.2</ele>
        <time>2026-01-13T13:04:02Z</time>
      </trkpt>
      <trkpt lat="48.63563" lon="1.95382">
        <ele>136</ele>
        <time>2026-01-13T13:04:03Z</time>
      </trkpt>
      <trkpt lat="48.63558" lon="1.95382">
        <ele>136.6</ele>
        <time>2026-01-13T13:04:04Z</time>
      </trkpt>
      <trkpt lat="48.6355" lon="1.95384">
        <ele>136.6</ele>
        <time>2026-01-13T13:04:05Z</time>
      </trkpt>
      <trkpt lat="48.63547" lon="1.95385">
        <ele>137.2</ele>
        <time>2026-01-13T13:04:06Z</time>
      </trkpt>
      <trkpt lat="48.63539" lon="1.95388">
        <ele>137.2</ele>
        <time>2026-01-13T13:04:07Z</time>
      </trkpt>
      <trkpt lat="48.63537" lon="1.95389">
        <ele>137.2</ele>
        <time>2026-01-13T13:04:08Z</time>
      </trkpt>
      <trkpt lat="48.63531" lon="1.95391">
        <ele>137.2</ele>
        <time>2026-01-13T13:04:09Z</time>
      </trkpt>
      <trkpt lat="48.63526" lon="1.95393">
        <ele>137.6</ele>
        <time>2026-01-13T13:04:10Z</time>
      </trkpt>
      <trkpt lat="48.63521" lon="1.95396">
        <ele>137.8</ele>
        <time>2026-01-13T13:04:11Z</time>
      </trkpt>
      <trkpt lat="48.63516" lon="1.95399">
        <ele>137.8</ele>
        <time>2026-01-13T13:04:12Z</time>
      </trkpt>
      <trkpt lat="48.63511" lon="1.95401">
        <ele>137.8</ele>
        <time>2026-01-13T13:04:13Z</time>
      </trkpt>
      <trkpt lat="48.63506" lon="1.95403">
        <ele>137.8</ele>
        <time>2026-01-13T13:04:14Z</time>
      </trkpt>
      <trkpt lat="48.63501" lon="1.95404">
        <ele>138.4</ele>
        <time>2026-01-13T13:04:15Z</time>
      </trkpt>
      <trkpt lat="48.63496" lon="1.95407">
        <ele>138.4</ele>
        <time>2026-01-13T13:04:16Z</time>
      </trkpt>
      <trkpt lat="48.63491" lon="1.9541">
        <ele>138.4</ele>
        <time>2026-01-13T13:04:17Z</time>
      </trkpt>
      <trkpt lat="48.63486" lon="1.95412">
        <ele>138.4</ele>
        <time>2026-01-13T13:04:18Z</time>
      </trkpt>
      <trkpt lat="48.63482" lon="1.95416">
        <ele>138.4</ele>
        <time>2026-01-13T13:04:19Z</time>
      </trkpt>
      <trkpt lat="48.63477" lon="1.95419">
        <ele>138.4</ele>
        <time>2026-01-13T13:04:20Z</time>
      </trkpt>
      <trkpt lat="48.63472" lon="1.95423">
        <ele>139.2</ele>
        <time>2026-01-13T13:04:21Z</time>
      </trkpt>
      <trkpt lat="48.63468" lon="1.95426">
        <ele>139.4</ele>
        <time>2026-01-13T13:04:22Z</time>
      </trkpt>
      <trkpt lat="48.63462" lon="1.95432">
        <ele>139.4</ele>
        <time>2026-01-13T13:04:23Z</time>
      </trkpt>
      <trkpt lat="48.6346" lon="1.95434">
        <ele>139.6</ele>
        <time>2026-01-13T13:04:24Z</time>
      </trkpt>
      <trkpt lat="48.63454" lon="1.95441">
        <ele>139.6</ele>
        <time>2026-01-13T13:04:25Z</time>
      </trkpt>
      <trkpt lat="48.63452" lon="1.95444">
        <ele>139.6</ele>
        <time>2026-01-13T13:04:26Z</time>
      </trkpt>
      <trkpt lat="48.63448" lon="1.95449">
        <ele>139.6</ele>
        <time>2026-01-13T13:04:27Z</time>
      </trkpt>
      <trkpt lat="48.63444" lon="1.95454">
        <ele>140</ele>
        <time>2026-01-13T13:04:28Z</time>
      </trkpt>
      <trkpt lat="48.63441" lon="1.95459">
        <ele>140</ele>
        <time>2026-01-13T13:04:29Z</time>
      </trkpt>
      <trkpt lat="48.63437" lon="1.95465">
        <ele>140</ele>
        <time>2026-01-13T13:04:30Z</time>
      </trkpt>
      <trkpt lat="48.63434" lon="1.9547">
        <ele>140</ele>
        <time>2026-01-13T13:04:31Z</time>
      </trkpt>
      <trkpt lat="48.6343" lon="1.95476">
        <ele>140.4</ele>
        <time>2026-01-13T13:04:32Z</time>
      </trkpt>
      <trkpt lat="48.63427" lon="1.95482">
        <ele>140.4</ele>
        <time>2026-01-13T13:04:33Z</time>
      </trkpt>
      <trkpt lat="48.63424" lon="1.95488">
        <ele>140.6</ele>
        <time>2026-01-13T13:04:34Z</time>
      </trkpt>
      <trkpt lat="48.6342" lon="1.95494">
        <ele>140.6</ele>
        <time>2026-01-13T13:04:35Z</time>
      </trkpt>
      <trkpt lat="48.63417" lon="1.955">
        <ele>140.6</ele>
        <time>2026-01-13T13:04:36Z</time>
      </trkpt>
      <trkpt lat="48.63413" lon="1.95506">
        <ele>140.6</ele>
        <time>2026-01-13T13:04:37Z</time>
      </trkpt>
      <trkpt lat="48.6341" lon="1.95511">
        <ele>140.8</ele>
        <time>2026-01-13T13:04:38Z</time>
      </trkpt>
      <trkpt lat="48.63407" lon="1.95517">
        <ele>141.4</ele>
        <time>2026-01-13T13:04:39Z</time>
      </trkpt>
      <trkpt lat="48.63403" lon="1.95523">
        <ele>141.4</ele>
        <time>2026-01-13T13:04:40Z</time>
      </trkpt>
      <trkpt lat="48.634" lon="1.95528">
        <ele>141.4</ele>
        <time>2026-01-13T13:04:41Z</time>
      </trkpt>
      <trkpt lat="48.63396" lon="1.95534">
        <ele>141.4</ele>
        <time>2026-01-13T13:04:42Z</time>
      </trkpt>
      <trkpt lat="48.63392" lon="1.9554">
        <ele>141.4</ele>
        <time>2026-01-13T13:04:43Z</time>
      </trkpt>
      <trkpt lat="48.63388" lon="1.95545">
        <ele>141.4</ele>
        <time>2026-01-13T13:04:44Z</time>
      </trkpt>
      <trkpt lat="48.63384" lon="1.9555">
        <ele>141.4</ele>
        <time>2026-01-13T13:04:45Z</time>
      </trkpt>
      <trkpt lat="48.63381" lon="1.95555">
        <ele>141.4</ele>
        <time>2026-01-13T13:04:46Z</time>
      </trkpt>
      <trkpt lat="48.63377" lon="1.95561">
        <ele>141.4</ele>
        <time>2026-01-13T13:04:47Z</time>
      </trkpt>
      <trkpt lat="48.63371" lon="1.9557">
        <ele>141.4</ele>
        <time>2026-01-13T13:04:48Z</time>
      </trkpt>
      <trkpt lat="48.63369" lon="1.95573">
        <ele>141.4</ele>
        <time>2026-01-13T13:04:49Z</time>
      </trkpt>
      <trkpt lat="48.63366" lon="1.95579">
        <ele>141.4</ele>
        <time>2026-01-13T13:04:50Z</time>
      </trkpt>
      <trkpt lat="48.63362" lon="1.95585">
        <ele>141.4</ele>
        <time>2026-01-13T13:04:51Z</time>
      </trkpt>
      <trkpt lat="48.63357" lon="1.95592">
        <ele>141.6</ele>
        <time>2026-01-13T13:04:52Z</time>
      </trkpt>
      <trkpt lat="48.63353" lon="1.95598">
        <ele>141.6</ele>
        <time>2026-01-13T13:04:53Z</time>
      </trkpt>
      <trkpt lat="48.63347" lon="1.95607">
        <ele>141.6</ele>
        <time>2026-01-13T13:04:54Z</time>
      </trkpt>
      <trkpt lat="48.63345" lon="1.9561">
        <ele>141.6</ele>
        <time>2026-01-13T13:04:55Z</time>
      </trkpt>
      <trkpt lat="48.6334" lon="1.95616">
        <ele>141.6</ele>
        <time>2026-01-13T13:04:56Z</time>
      </trkpt>
      <trkpt lat="48.63336" lon="1.95623">
        <ele>141.6</ele>
        <time>2026-01-13T13:04:57Z</time>
      </trkpt>
      <trkpt lat="48.6333" lon="1.95632">
        <ele>141.6</ele>
        <time>2026-01-13T13:04:58Z</time>
      </trkpt>
      <trkpt lat="48.63328" lon="1.95635">
        <ele>141.6</ele>
        <time>2026-01-13T13:04:59Z</time>
      </trkpt>
      <trkpt lat="48.63324" lon="1.95641">
        <ele>141.6</ele>
        <time>2026-01-13T13:05:00Z</time>
      </trkpt>
      <trkpt lat="48.6332" lon="1.95647">
        <ele>141.8</ele>
        <time>2026-01-13T13:05:01Z</time>
      </trkpt>
      <trkpt lat="48.63316" lon="1.95653">
        <ele>141.8</ele>
        <time>2026-01-13T13:05:02Z</time>
      </trkpt>
      <trkpt lat="48.63312" lon="1.95659">
        <ele>141.8</ele>
        <time>2026-01-13T13:05:03Z</time>
      </trkpt>
      <trkpt lat="48.63308" lon="1.95665">
        <ele>141.8</ele>
        <time>2026-01-13T13:05:04Z</time>
      </trkpt>
      <trkpt lat="48.63304" lon="1.95671">
        <ele>142</ele>
        <time>2026-01-13T13:05:05Z</time>
      </trkpt>
      <trkpt lat="48.633" lon="1.95677">
        <ele>142</ele>
        <time>2026-01-13T13:05:06Z</time>
      </trkpt>
      <trkpt lat="48.63296" lon="1.95683">
        <ele>142</ele>
        <time>2026-01-13T13:05:07Z</time>
      </trkpt>
      <trkpt lat="48.63292" lon="1.95689">
        <ele>142</ele>
        <time>2026-01-13T13:05:08Z</time>
      </trkpt>
      <trkpt lat="48.63286" lon="1.95698">
        <ele>142</ele>
        <time>2026-01-13T13:05:09Z</time>
      </trkpt>
      <trkpt lat="48.63284" lon="1.95701">
        <ele>142</ele>
        <time>2026-01-13T13:05:10Z</time>
      </trkpt>
      <trkpt lat="48.63278" lon="1.9571">
        <ele>142</ele>
        <time>2026-01-13T13:05:11Z</time>
      </trkpt>
      <trkpt lat="48.63276" lon="1.95713">
        <ele>142</ele>
        <time>2026-01-13T13:05:12Z</time>
      </trkpt>
      <trkpt lat="48.63273" lon="1.95718">
        <ele>143</ele>
        <time>2026-01-13T13:05:13Z</time>
      </trkpt>
      <trkpt lat="48.63269" lon="1.95724">
        <ele>143.2</ele>
        <time>2026-01-13T13:05:14Z</time>
      </trkpt>
      <trkpt lat="48.63265" lon="1.9573">
        <ele>143.4</ele>
        <time>2026-01-13T13:05:15Z</time>
      </trkpt>
      <trkpt lat="48.63261" lon="1.95735">
        <ele>143.6</ele>
        <time>2026-01-13T13:05:16Z</time>
      </trkpt>
      <trkpt lat="48.63256" lon="1.95744">
        <ele>143.8</ele>
        <time>2026-01-13T13:05:17Z</time>
      </trkpt>
      <trkpt lat="48.63254" lon="1.95746">
        <ele>143.8</ele>
        <time>2026-01-13T13:05:18Z</time>
      </trkpt>
      <trkpt lat="48.63248" lon="1.95755">
        <ele>143.8</ele>
        <time>2026-01-13T13:05:19Z</time>
      </trkpt>
      <trkpt lat="48.63246" lon="1.95758">
        <ele>143</ele>
        <time>2026-01-13T13:05:20Z</time>
      </trkpt>
      <trkpt lat="48.6324" lon="1.95767">
        <ele>142.4</ele>
        <time>2026-01-13T13:05:21Z</time>
      </trkpt>
      <trkpt lat="48.63238" lon="1.9577">
        <ele>142.4</ele>
        <time>2026-01-13T13:05:22Z</time>
      </trkpt>
      <trkpt lat="48.63232" lon="1.95779">
        <ele>142.4</ele>
        <time>2026-01-13T13:05:23Z</time>
      </trkpt>
      <trkpt lat="48.6323" lon="1.95782">
        <ele>142.4</ele>
        <time>2026-01-13T13:05:24Z</time>
      </trkpt>
      <trkpt lat="48.63226" lon="1.95789">
        <ele>142.4</ele>
        <time>2026-01-13T13:05:25Z</time>
      </trkpt>
      <trkpt lat="48.63222" lon="1.95795">
        <ele>142</ele>
        <time>2026-01-13T13:05:26Z</time>
      </trkpt>
      <trkpt lat="48.63216" lon="1.95804">
        <ele>142</ele>
        <time>2026-01-13T13:05:27Z</time>
      </trkpt>
      <trkpt lat="48.63213" lon="1.95808">
        <ele>142</ele>
        <time>2026-01-13T13:05:28Z</time>
      </trkpt>
      <trkpt lat="48.63209" lon="1.95814">
        <ele>142</ele>
        <time>2026-01-13T13:05:29Z</time>
      </trkpt>
      <trkpt lat="48.63205" lon="1.95821">
        <ele>142</ele>
        <time>2026-01-13T13:05:30Z</time>
      </trkpt>
      <trkpt lat="48.63198" lon="1.95831">
        <ele>142</ele>
        <time>2026-01-13T13:05:31Z</time>
      </trkpt>
      <trkpt lat="48.63196" lon="1.95834">
        <ele>142</ele>
        <time>2026-01-13T13:05:32Z</time>
      </trkpt>
      <trkpt lat="48.63192" lon="1.95841">
        <ele>142</ele>
        <time>2026-01-13T13:05:33Z</time>
      </trkpt>
      <trkpt lat="48.63189" lon="1.95848">
        <ele>142</ele>
        <time>2026-01-13T13:05:34Z</time>
      </trkpt>
      <trkpt lat="48.63183" lon="1.95859">
        <ele>142</ele>
        <time>2026-01-13T13:05:35Z</time>
      </trkpt>
      <trkpt lat="48.63182" lon="1.95863">
        <ele>142</ele>
        <time>2026-01-13T13:05:36Z</time>
      </trkpt>
      <trkpt lat="48.63179" lon="1.95871">
        <ele>142</ele>
        <time>2026-01-13T13:05:37Z</time>
      </trkpt>
      <trkpt lat="48.63176" lon="1.95879">
        <ele>143</ele>
        <time>2026-01-13T13:05:38Z</time>
      </trkpt>
      <trkpt lat="48.63174" lon="1.95887">
        <ele>143.6</ele>
        <time>2026-01-13T13:05:39Z</time>
      </trkpt>
      <trkpt lat="48.63172" lon="1.95895">
        <ele>143.6</ele>
        <time>2026-01-13T13:05:40Z</time>
      </trkpt>
      <trkpt lat="48.6317" lon="1.95903">
        <ele>143.6</ele>
        <time>2026-01-13T13:05:41Z</time>
      </trkpt>
      <trkpt lat="48.63168" lon="1.95911">
        <ele>143.6</ele>
        <time>2026-01-13T13:05:42Z</time>
      </trkpt>
      <trkpt lat="48.63165" lon="1.95923">
        <ele>144.6</ele>
        <time>2026-01-13T13:05:43Z</time>
      </trkpt>
      <trkpt lat="48.63164" lon="1.95927">
        <ele>145</ele>
        <time>2026-01-13T13:05:44Z</time>
      </trkpt>
      <trkpt lat="48.63163" lon="1.95935">
        <ele>145</ele>
        <time>2026-01-13T13:05:45Z</time>
      </trkpt>
      <trkpt lat="48.63161" lon="1.95943">
        <ele>145</ele>
        <time>2026-01-13T13:05:46Z</time>
      </trkpt>
      <trkpt lat="48.63159" lon="1.95951">
        <ele>144.4</ele>
        <time>2026-01-13T13:05:47Z</time>
      </trkpt>
      <trkpt lat="48.63157" lon="1.95959">
        <ele>144.4</ele>
        <time>2026-01-13T13:05:48Z</time>
      </trkpt>
      <trkpt lat="48.63155" lon="1.95967">
        <ele>144.4</ele>
        <time>2026-01-13T13:05:49Z</time>
      </trkpt>
      <trkpt lat="48.63153" lon="1.95974">
        <ele>145.4</ele>
        <time>2026-01-13T13:05:50Z</time>
      </trkpt>
      <trkpt lat="48.63151" lon="1.95982">
        <ele>146.4</ele>
        <time>2026-01-13T13:05:51Z</time>
      </trkpt>
      <trkpt lat="48.6315" lon="1.95989">
        <ele>146.4</ele>
        <time>2026-01-13T13:05:52Z</time>
      </trkpt>
      <trkpt lat="48.63148" lon="1.95997">
        <ele>146.4</ele>
        <time>2026-01-13T13:05:53Z</time>
      </trkpt>
      <trkpt lat="48.63145" lon="1.96004">
        <ele>146.4</ele>
        <time>2026-01-13T13:05:54Z</time>
      </trkpt>
      <trkpt lat="48.63143" lon="1.96012">
        <ele>146.4</ele>
        <time>2026-01-13T13:05:55Z</time>
      </trkpt>
      <trkpt lat="48.63141" lon="1.9602">
        <ele>146.4</ele>
        <time>2026-01-13T13:05:56Z</time>
      </trkpt>
      <trkpt lat="48.6314" lon="1.96027">
        <ele>146.4</ele>
        <time>2026-01-13T13:05:57Z</time>
      </trkpt>
      <trkpt lat="48.63138" lon="1.96035">
        <ele>146.4</ele>
        <time>2026-01-13T13:05:58Z</time>
      </trkpt>
      <trkpt lat="48.63136" lon="1.96043">
        <ele>146.6</ele>
        <time>2026-01-13T13:05:59Z</time>
      </trkpt>
      <trkpt lat="48.63134" lon="1.96051">
        <ele>147.6</ele>
        <time>2026-01-13T13:06:00Z</time>
      </trkpt>
      <trkpt lat="48.63132" lon="1.96058">
        <ele>147.6</ele>
        <time>2026-01-13T13:06:01Z</time>
      </trkpt>
      <trkpt lat="48.6313" lon="1.96066">
        <ele>147.6</ele>
        <time>2026-01-13T13:06:02Z</time>
      </trkpt>
      <trkpt lat="48.63128" lon="1.96074">
        <ele>147.6</ele>
        <time>2026-01-13T13:06:03Z</time>
      </trkpt>
      <trkpt lat="48.63126" lon="1.96082">
        <ele>148.2</ele>
        <time>2026-01-13T13:06:04Z</time>
      </trkpt>
      <trkpt lat="48.63124" lon="1.96089">
        <ele>148.2</ele>
        <time>2026-01-13T13:06:05Z</time>
      </trkpt>
      <trkpt lat="48.63122" lon="1.96097">
        <ele>148.2</ele>
        <time>2026-01-13T13:06:06Z</time>
      </trkpt>
      <trkpt lat="48.6312" lon="1.96105">
        <ele>148.2</ele>
        <time>2026-01-13T13:06:07Z</time>
      </trkpt>
      <trkpt lat="48.63118" lon="1.96113">
        <ele>148.2</ele>
        <time>2026-01-13T13:06:08Z</time>
      </trkpt>
      <trkpt lat="48.63116" lon="1.96121">
        <ele>148.4</ele>
        <time>2026-01-13T13:06:09Z</time>
      </trkpt>
      <trkpt lat="48.63114" lon="1.96127">
        <ele>148.4</ele>
        <time>2026-01-13T13:06:10Z</time>
      </trkpt>
      <trkpt lat="48.63112" lon="1.96135">
        <ele>148.4</ele>
        <time>2026-01-13T13:06:11Z</time>
      </trkpt>
      <trkpt lat="48.63109" lon="1.96141">
        <ele>148.4</ele>
        <time>2026-01-13T13:06:12Z</time>
      </trkpt>
      <trkpt lat="48.63107" lon="1.96149">
        <ele>148.4</ele>
        <time>2026-01-13T13:06:13Z</time>
      </trkpt>
      <trkpt lat="48.63104" lon="1.9616">
        <ele>148.4</ele>
        <time>2026-01-13T13:06:14Z</time>
      </trkpt>
      <trkpt lat="48.63103" lon="1.96164">
        <ele>148.6</ele>
        <time>2026-01-13T13:06:15Z</time>
      </trkpt>
      <trkpt lat="48.63101" lon="1.96172">
        <ele>148.8</ele>
        <time>2026-01-13T13:06:16Z</time>
      </trkpt>
      <trkpt lat="48.63099" lon="1.96179">
        <ele>148.8</ele>
        <time>2026-01-13T13:06:17Z</time>
      </trkpt>
      <trkpt lat="48.63097" lon="1.96187">
        <ele>148.8</ele>
        <time>2026-01-13T13:06:18Z</time>
      </trkpt>
      <trkpt lat="48.63095" lon="1.96195">
        <ele>148.8</ele>
        <time>2026-01-13T13:06:19Z</time>
      </trkpt>
      <trkpt lat="48.63092" lon="1.96201">
        <ele>149.8</ele>
        <time>2026-01-13T13:06:20Z</time>
      </trkpt>
      <trkpt lat="48.63088" lon="1.96211">
        <ele>149.8</ele>
        <time>2026-01-13T13:06:21Z</time>
      </trkpt>
      <trkpt lat="48.63086" lon="1.96214">
        <ele>149.8</ele>
        <time>2026-01-13T13:06:22Z</time>
      </trkpt>
      <trkpt lat="48.63082" lon="1.96225">
        <ele>149.2</ele>
        <time>2026-01-13T13:06:23Z</time>
      </trkpt>
      <trkpt lat="48.63081" lon="1.96229">
        <ele>149</ele>
        <time>2026-01-13T13:06:24Z</time>
      </trkpt>
      <trkpt lat="48.63077" lon="1.96234">
        <ele>149</ele>
        <time>2026-01-13T13:06:25Z</time>
      </trkpt>
      <trkpt lat="48.63074" lon="1.96243">
        <ele>148.6</ele>
        <time>2026-01-13T13:06:26Z</time>
      </trkpt>
      <trkpt lat="48.63071" lon="1.96252">
        <ele>148.4</ele>
        <time>2026-01-13T13:06:27Z</time>
      </trkpt>
      <trkpt lat="48.63068" lon="1.9626">
        <ele>147.8</ele>
        <time>2026-01-13T13:06:28Z</time>
      </trkpt>
      <trkpt lat="48.63065" lon="1.96268">
        <ele>147.6</ele>
        <time>2026-01-13T13:06:29Z</time>
      </trkpt>
      <trkpt lat="48.63062" lon="1.96276">
        <ele>146.8</ele>
        <time>2026-01-13T13:06:30Z</time>
      </trkpt>
      <trkpt lat="48.63058" lon="1.96285">
        <ele>146</ele>
        <time>2026-01-13T13:06:31Z</time>
      </trkpt>
      <trkpt lat="48.63055" lon="1.96295">
        <ele>145.2</ele>
        <time>2026-01-13T13:06:32Z</time>
      </trkpt>
      <trkpt lat="48.63051" lon="1.96304">
        <ele>145.2</ele>
        <time>2026-01-13T13:06:33Z</time>
      </trkpt>
      <trkpt lat="48.63047" lon="1.96314">
        <ele>145.2</ele>
        <time>2026-01-13T13:06:34Z</time>
      </trkpt>
      <trkpt lat="48.63041" lon="1.96328">
        <ele>145.2</ele>
        <time>2026-01-13T13:06:35Z</time>
      </trkpt>
      <trkpt lat="48.63039" lon="1.96333">
        <ele>144.6</ele>
        <time>2026-01-13T13:06:36Z</time>
      </trkpt>
      <trkpt lat="48.63035" lon="1.96343">
        <ele>144.6</ele>
        <time>2026-01-13T13:06:37Z</time>
      </trkpt>
      <trkpt lat="48.6303" lon="1.96353">
        <ele>144.6</ele>
        <time>2026-01-13T13:06:38Z</time>
      </trkpt>
      <trkpt lat="48.63024" lon="1.96369">
        <ele>144.6</ele>
        <time>2026-01-13T13:06:39Z</time>
      </trkpt>
      <trkpt lat="48.63021" lon="1.96374">
        <ele>144.6</ele>
        <time>2026-01-13T13:06:40Z</time>
      </trkpt>
      <trkpt lat="48.63017" lon="1.96383">
        <ele>144.6</ele>
        <time>2026-01-13T13:06:41Z</time>
      </trkpt>
      <trkpt lat="48.6301" lon="1.96397">
        <ele>145.2</ele>
        <time>2026-01-13T13:06:42Z</time>
      </trkpt>
      <trkpt lat="48.63007" lon="1.96401">
        <ele>145.2</ele>
        <time>2026-01-13T13:06:43Z</time>
      </trkpt>
      <trkpt lat="48.63001" lon="1.96414">
        <ele>145.2</ele>
        <time>2026-01-13T13:06:44Z</time>
      </trkpt>
      <trkpt lat="48.62999" lon="1.96418">
        <ele>145.2</ele>
        <time>2026-01-13T13:06:45Z</time>
      </trkpt>
      <trkpt lat="48.62992" lon="1.9643">
        <ele>146.2</ele>
        <time>2026-01-13T13:06:46Z</time>
      </trkpt>
      <trkpt lat="48.6299" lon="1.96433">
        <ele>146.8</ele>
        <time>2026-01-13T13:06:47Z</time>
      </trkpt>
      <trkpt lat="48.62986" lon="1.9644">
        <ele>147.6</ele>
        <time>2026-01-13T13:06:48Z</time>
      </trkpt>
      <trkpt lat="48.62982" lon="1.96446">
        <ele>147.6</ele>
        <time>2026-01-13T13:06:49Z</time>
      </trkpt>
      <trkpt lat="48.62979" lon="1.96453">
        <ele>147.6</ele>
        <time>2026-01-13T13:06:50Z</time>
      </trkpt>
      <trkpt lat="48.62975" lon="1.96459">
        <ele>147.6</ele>
        <time>2026-01-13T13:06:51Z</time>
      </trkpt>
      <trkpt lat="48.62972" lon="1.96465">
        <ele>147.6</ele>
        <time>2026-01-13T13:06:52Z</time>
      </trkpt>
      <trkpt lat="48.62966" lon="1.96475">
        <ele>148.6</ele>
        <time>2026-01-13T13:06:53Z</time>
      </trkpt>
      <trkpt lat="48.62965" lon="1.96477">
        <ele>149</ele>
        <time>2026-01-13T13:06:54Z</time>
      </trkpt>
      <trkpt lat="48.62961" lon="1.96483">
        <ele>149.2</ele>
        <time>2026-01-13T13:06:55Z</time>
      </trkpt>
      <trkpt lat="48.62957" lon="1.9649">
        <ele>149.8</ele>
        <time>2026-01-13T13:06:56Z</time>
      </trkpt>
      <trkpt lat="48.62953" lon="1.96496">
        <ele>149.8</ele>
        <time>2026-01-13T13:06:57Z</time>
      </trkpt>
      <trkpt lat="48.62949" lon="1.96502">
        <ele>149.8</ele>
        <time>2026-01-13T13:06:58Z</time>
      </trkpt>
      <trkpt lat="48.62945" lon="1.96508">
        <ele>149.8</ele>
        <time>2026-01-13T13:06:59Z</time>
      </trkpt>
      <trkpt lat="48.62939" lon="1.96517">
        <ele>149.8</ele>
        <time>2026-01-13T13:07:00Z</time>
      </trkpt>
      <trkpt lat="48.62937" lon="1.9652">
        <ele>149.8</ele>
        <time>2026-01-13T13:07:01Z</time>
      </trkpt>
      <trkpt lat="48.62934" lon="1.96525">
        <ele>149.8</ele>
        <time>2026-01-13T13:07:02Z</time>
      </trkpt>
      <trkpt lat="48.62928" lon="1.96533">
        <ele>149.8</ele>
        <time>2026-01-13T13:07:03Z</time>
      </trkpt>
      <trkpt lat="48.62926" lon="1.96536">
        <ele>149.8</ele>
        <time>2026-01-13T13:07:04Z</time>
      </trkpt>
      <trkpt lat="48.6292" lon="1.96545">
        <ele>149.8</ele>
        <time>2026-01-13T13:07:05Z</time>
      </trkpt>
      <trkpt lat="48.62918" lon="1.96548">
        <ele>149.8</ele>
        <time>2026-01-13T13:07:06Z</time>
      </trkpt>
      <trkpt lat="48.62914" lon="1.96555">
        <ele>149.8</ele>
        <time>2026-01-13T13:07:07Z</time>
      </trkpt>
      <trkpt lat="48.6291" lon="1.96562">
        <ele>150.8</ele>
        <time>2026-01-13T13:07:08Z</time>
      </trkpt>
      <trkpt lat="48.62906" lon="1.96568">
        <ele>150.8</ele>
        <time>2026-01-13T13:07:09Z</time>
      </trkpt>
      <trkpt lat="48.62902" lon="1.96574">
        <ele>150.8</ele>
        <time>2026-01-13T13:07:10Z</time>
      </trkpt>
      <trkpt lat="48.62899" lon="1.9658">
        <ele>150.8</ele>
        <time>2026-01-13T13:07:11Z</time>
      </trkpt>
      <trkpt lat="48.62896" lon="1.96586">
        <ele>150.8</ele>
        <time>2026-01-13T13:07:12Z</time>
      </trkpt>
      <trkpt lat="48.62892" lon="1.96593">
        <ele>150.8</ele>
        <time>2026-01-13T13:07:13Z</time>
      </trkpt>
      <trkpt lat="48.62888" lon="1.966">
        <ele>150.8</ele>
        <time>2026-01-13T13:07:14Z</time>
      </trkpt>
      <trkpt lat="48.62885" lon="1.96607">
        <ele>150.8</ele>
        <time>2026-01-13T13:07:15Z</time>
      </trkpt>
      <trkpt lat="48.62881" lon="1.96614">
        <ele>150.8</ele>
        <time>2026-01-13T13:07:16Z</time>
      </trkpt>
      <trkpt lat="48.62876" lon="1.96624">
        <ele>151.2</ele>
        <time>2026-01-13T13:07:17Z</time>
      </trkpt>
      <trkpt lat="48.62874" lon="1.96628">
        <ele>151.4</ele>
        <time>2026-01-13T13:07:18Z</time>
      </trkpt>
      <trkpt lat="48.62869" lon="1.96638">
        <ele>151.4</ele>
        <time>2026-01-13T13:07:19Z</time>
      </trkpt>
      <trkpt lat="48.62868" lon="1.96642">
        <ele>151.4</ele>
        <time>2026-01-13T13:07:20Z</time>
      </trkpt>
      <trkpt lat="48.62863" lon="1.96654">
        <ele>151.4</ele>
        <time>2026-01-13T13:07:21Z</time>
      </trkpt>
      <trkpt lat="48.62862" lon="1.96657">
        <ele>151.4</ele>
        <time>2026-01-13T13:07:22Z</time>
      </trkpt>
      <trkpt lat="48.62859" lon="1.96665">
        <ele>151.8</ele>
        <time>2026-01-13T13:07:23Z</time>
      </trkpt>
      <trkpt lat="48.62855" lon="1.96672">
        <ele>151.8</ele>
        <time>2026-01-13T13:07:24Z</time>
      </trkpt>
      <trkpt lat="48.6285" lon="1.96683">
        <ele>151.8</ele>
        <time>2026-01-13T13:07:25Z</time>
      </trkpt>
      <trkpt lat="48.62848" lon="1.96687">
        <ele>151.8</ele>
        <time>2026-01-13T13:07:26Z</time>
      </trkpt>
      <trkpt lat="48.62843" lon="1.96698">
        <ele>151.8</ele>
        <time>2026-01-13T13:07:27Z</time>
      </trkpt>
      <trkpt lat="48.62841" lon="1.96702">
        <ele>151.8</ele>
        <time>2026-01-13T13:07:28Z</time>
      </trkpt>
      <trkpt lat="48.62838" lon="1.96709">
        <ele>151.2</ele>
        <time>2026-01-13T13:07:29Z</time>
      </trkpt>
      <trkpt lat="48.62835" lon="1.96716">
        <ele>151.2</ele>
        <time>2026-01-13T13:07:30Z</time>
      </trkpt>
      <trkpt lat="48.62831" lon="1.96724">
        <ele>151.2</ele>
        <time>2026-01-13T13:07:31Z</time>
      </trkpt>
      <trkpt lat="48.62828" lon="1.96731">
        <ele>151.8</ele>
        <time>2026-01-13T13:07:32Z</time>
      </trkpt>
      <trkpt lat="48.62825" lon="1.96738">
        <ele>151.8</ele>
        <time>2026-01-13T13:07:33Z</time>
      </trkpt>
      <trkpt lat="48.62821" lon="1.96745">
        <ele>151.8</ele>
        <time>2026-01-13T13:07:34Z</time>
      </trkpt>
      <trkpt lat="48.62818" lon="1.96752">
        <ele>151.6</ele>
        <time>2026-01-13T13:07:35Z</time>
      </trkpt>
      <trkpt lat="48.62814" lon="1.96758">
        <ele>151.2</ele>
        <time>2026-01-13T13:07:36Z</time>
      </trkpt>
      <trkpt lat="48.62811" lon="1.96765">
        <ele>151</ele>
        <time>2026-01-13T13:07:37Z</time>
      </trkpt>
      <trkpt lat="48.62807" lon="1.96771">
        <ele>151</ele>
        <time>2026-01-13T13:07:38Z</time>
      </trkpt>
      <trkpt lat="48.62803" lon="1.96778">
        <ele>151</ele>
        <time>2026-01-13T13:07:39Z</time>
      </trkpt>
      <trkpt lat="48.628" lon="1.96784">
        <ele>152</ele>
        <time>2026-01-13T13:07:40Z</time>
      </trkpt>
      <trkpt lat="48.62797" lon="1.9679">
        <ele>152</ele>
        <time>2026-01-13T13:07:41Z</time>
      </trkpt>
      <trkpt lat="48.6279" lon="1.968">
        <ele>152</ele>
        <time>2026-01-13T13:07:42Z</time>
      </trkpt>
      <trkpt lat="48.62788" lon="1.96804">
        <ele>151.2</ele>
        <time>2026-01-13T13:07:43Z</time>
      </trkpt>
      <trkpt lat="48.62784" lon="1.9681">
        <ele>151</ele>
        <time>2026-01-13T13:07:44Z</time>
      </trkpt>
      <trkpt lat="48.6278" lon="1.96817">
        <ele>150.6</ele>
        <time>2026-01-13T13:07:45Z</time>
      </trkpt>
      <trkpt lat="48.62776" lon="1.96825">
        <ele>150.6</ele>
        <time>2026-01-13T13:07:46Z</time>
      </trkpt>
      <trkpt lat="48.62772" lon="1.96832">
        <ele>150.6</ele>
        <time>2026-01-13T13:07:47Z</time>
      </trkpt>
      <trkpt lat="48.62767" lon="1.96839">
        <ele>150.6</ele>
        <time>2026-01-13T13:07:48Z</time>
      </trkpt>
      <trkpt lat="48.62763" lon="1.96847">
        <ele>150.6</ele>
        <time>2026-01-13T13:07:49Z</time>
      </trkpt>
      <trkpt lat="48.62758" lon="1.96855">
        <ele>150.6</ele>
        <time>2026-01-13T13:07:50Z</time>
      </trkpt>
      <trkpt lat="48.62754" lon="1.96862">
        <ele>151.2</ele>
        <time>2026-01-13T13:07:51Z</time>
      </trkpt>
      <trkpt lat="48.6275" lon="1.9687">
        <ele>151.8</ele>
        <time>2026-01-13T13:07:52Z</time>
      </trkpt>
      <trkpt lat="48.62743" lon="1.96881">
        <ele>151.8</ele>
        <time>2026-01-13T13:07:53Z</time>
      </trkpt>
      <trkpt lat="48.62741" lon="1.96885">
        <ele>151.8</ele>
        <time>2026-01-13T13:07:54Z</time>
      </trkpt>
      <trkpt lat="48.62737" lon="1.96892">
        <ele>150.8</ele>
        <time>2026-01-13T13:07:55Z</time>
      </trkpt>
      <trkpt lat="48.62733" lon="1.96899">
        <ele>150.6</ele>
        <time>2026-01-13T13:07:56Z</time>
      </trkpt>
      <trkpt lat="48.62728" lon="1.96907">
        <ele>150.2</ele>
        <time>2026-01-13T13:07:57Z</time>
      </trkpt>
      <trkpt lat="48.62724" lon="1.96914">
        <ele>150.2</ele>
        <time>2026-01-13T13:07:58Z</time>
      </trkpt>
      <trkpt lat="48.6272" lon="1.96922">
        <ele>150.2</ele>
        <time>2026-01-13T13:07:59Z</time>
      </trkpt>
      <trkpt lat="48.62715" lon="1.96929">
        <ele>150.8</ele>
        <time>2026-01-13T13:08:00Z</time>
      </trkpt>
      <trkpt lat="48.62709" lon="1.96939">
        <ele>151.2</ele>
        <time>2026-01-13T13:08:01Z</time>
      </trkpt>
      <trkpt lat="48.62707" lon="1.96943">
        <ele>151.2</ele>
        <time>2026-01-13T13:08:02Z</time>
      </trkpt>
      <trkpt lat="48.62704" lon="1.9695">
        <ele>151.2</ele>
        <time>2026-01-13T13:08:03Z</time>
      </trkpt>
      <trkpt lat="48.62701" lon="1.96955">
        <ele>151.2</ele>
        <time>2026-01-13T13:08:04Z</time>
      </trkpt>
      <trkpt lat="48.62699" lon="1.96961">
        <ele>152.2</ele>
        <time>2026-01-13T13:08:05Z</time>
      </trkpt>
      <trkpt lat="48.62697" lon="1.96967">
        <ele>152.6</ele>
        <time>2026-01-13T13:08:06Z</time>
      </trkpt>
      <trkpt lat="48.62695" lon="1.96972">
        <ele>152.6</ele>
        <time>2026-01-13T13:08:07Z</time>
      </trkpt>
      <trkpt lat="48.62694" lon="1.96977">
        <ele>152.6</ele>
        <time>2026-01-13T13:08:08Z</time>
      </trkpt>
      <trkpt lat="48.62692" lon="1.96983">
        <ele>152.6</ele>
        <time>2026-01-13T13:08:09Z</time>
      </trkpt>
      <trkpt lat="48.62691" lon="1.96989">
        <ele>153.4</ele>
        <time>2026-01-13T13:08:10Z</time>
      </trkpt>
      <trkpt lat="48.62689" lon="1.96997">
        <ele>153.6</ele>
        <time>2026-01-13T13:08:11Z</time>
      </trkpt>
      <trkpt lat="48.62689" lon="1.97">
        <ele>153.8</ele>
        <time>2026-01-13T13:08:12Z</time>
      </trkpt>
      <trkpt lat="48.62688" lon="1.97008">
        <ele>154.2</ele>
        <time>2026-01-13T13:08:13Z</time>
      </trkpt>
      <trkpt lat="48.62687" lon="1.97016">
        <ele>154.2</ele>
        <time>2026-01-13T13:08:14Z</time>
      </trkpt>
      <trkpt lat="48.62686" lon="1.97025">
        <ele>154.2</ele>
        <time>2026-01-13T13:08:15Z</time>
      </trkpt>
      <trkpt lat="48.62685" lon="1.97033">
        <ele>154.2</ele>
        <time>2026-01-13T13:08:16Z</time>
      </trkpt>
      <trkpt lat="48.62684" lon="1.97041">
        <ele>155</ele>
        <time>2026-01-13T13:08:17Z</time>
      </trkpt>
      <trkpt lat="48.62684" lon="1.97049">
        <ele>155.4</ele>
        <time>2026-01-13T13:08:18Z</time>
      </trkpt>
      <trkpt lat="48.62683" lon="1.97057">
        <ele>155.6</ele>
        <time>2026-01-13T13:08:19Z</time>
      </trkpt>
      <trkpt lat="48.62682" lon="1.97065">
        <ele>155.6</ele>
        <time>2026-01-13T13:08:20Z</time>
      </trkpt>
      <trkpt lat="48.62681" lon="1.97074">
        <ele>155.6</ele>
        <time>2026-01-13T13:08:21Z</time>
      </trkpt>
      <trkpt lat="48.62679" lon="1.97081">
        <ele>155.6</ele>
        <time>2026-01-13T13:08:22Z</time>
      </trkpt>
      <trkpt lat="48.62679" lon="1.97089">
        <ele>156.6</ele>
        <time>2026-01-13T13:08:23Z</time>
      </trkpt>
      <trkpt lat="48.62678" lon="1.97096">
        <ele>157.2</ele>
        <time>2026-01-13T13:08:24Z</time>
      </trkpt>
      <trkpt lat="48.62677" lon="1.97106">
        <ele>157.4</ele>
        <time>2026-01-13T13:08:25Z</time>
      </trkpt>
      <trkpt lat="48.62676" lon="1.97114">
        <ele>158</ele>
        <time>2026-01-13T13:08:26Z</time>
      </trkpt>
      <trkpt lat="48.62675" lon="1.97123">
        <ele>158</ele>
        <time>2026-01-13T13:08:27Z</time>
      </trkpt>
      <trkpt lat="48.62674" lon="1.97132">
        <ele>158</ele>
        <time>2026-01-13T13:08:28Z</time>
      </trkpt>
      <trkpt lat="48.62674" lon="1.97141">
        <ele>158</ele>
        <time>2026-01-13T13:08:29Z</time>
      </trkpt>
      <trkpt lat="48.62673" lon="1.9715">
        <ele>158</ele>
        <time>2026-01-13T13:08:30Z</time>
      </trkpt>
      <trkpt lat="48.62672" lon="1.9716">
        <ele>158.8</ele>
        <time>2026-01-13T13:08:31Z</time>
      </trkpt>
      <trkpt lat="48.62671" lon="1.97169">
        <ele>158.8</ele>
        <time>2026-01-13T13:08:32Z</time>
      </trkpt>
      <trkpt lat="48.6267" lon="1.97178">
        <ele>158.8</ele>
        <time>2026-01-13T13:08:33Z</time>
      </trkpt>
      <trkpt lat="48.62669" lon="1.97187">
        <ele>158.8</ele>
        <time>2026-01-13T13:08:34Z</time>
      </trkpt>
      <trkpt lat="48.62668" lon="1.97197">
        <ele>157.8</ele>
        <time>2026-01-13T13:08:35Z</time>
      </trkpt>
      <trkpt lat="48.62667" lon="1.97207">
        <ele>157.4</ele>
        <time>2026-01-13T13:08:36Z</time>
      </trkpt>
      <trkpt lat="48.62666" lon="1.97217">
        <ele>157.2</ele>
        <time>2026-01-13T13:08:37Z</time>
      </trkpt>
      <trkpt lat="48.62666" lon="1.97228">
        <ele>156.4</ele>
        <time>2026-01-13T13:08:38Z</time>
      </trkpt>
      <trkpt lat="48.62665" lon="1.97238">
        <ele>156</ele>
        <time>2026-01-13T13:08:39Z</time>
      </trkpt>
      <trkpt lat="48.62664" lon="1.97249">
        <ele>155.4</ele>
        <time>2026-01-13T13:08:40Z</time>
      </trkpt>
      <trkpt lat="48.62662" lon="1.97259">
        <ele>155.2</ele>
        <time>2026-01-13T13:08:41Z</time>
      </trkpt>
      <trkpt lat="48.62661" lon="1.9727">
        <ele>155</ele>
        <time>2026-01-13T13:08:42Z</time>
      </trkpt>
      <trkpt lat="48.62659" lon="1.97288">
        <ele>154.6</ele>
        <time>2026-01-13T13:08:43Z</time>
      </trkpt>
      <trkpt lat="48.62658" lon="1.97293">
        <ele>154</ele>
        <time>2026-01-13T13:08:44Z</time>
      </trkpt>
      <trkpt lat="48.62657" lon="1.97305">
        <ele>153.6</ele>
        <time>2026-01-13T13:08:45Z</time>
      </trkpt>
      <trkpt lat="48.62657" lon="1.97316">
        <ele>152.8</ele>
        <time>2026-01-13T13:08:46Z</time>
      </trkpt>
      <trkpt lat="48.62655" lon="1.97334">
        <ele>152</ele>
        <time>2026-01-13T13:08:47Z</time>
      </trkpt>
      <trkpt lat="48.62654" lon="1.97341">
        <ele>151.2</ele>
        <time>2026-01-13T13:08:48Z</time>
      </trkpt>
      <trkpt lat="48.62653" lon="1.97355">
        <ele>151.2</ele>
        <time>2026-01-13T13:08:49Z</time>
      </trkpt>
      <trkpt lat="48.62652" lon="1.97376">
        <ele>150.2</ele>
        <time>2026-01-13T13:08:50Z</time>
      </trkpt>
      <trkpt lat="48.62651" lon="1.97383">
        <ele>149.2</ele>
        <time>2026-01-13T13:08:51Z</time>
      </trkpt>
      <trkpt lat="48.6265" lon="1.97398">
        <ele>149.2</ele>
        <time>2026-01-13T13:08:52Z</time>
      </trkpt>
      <trkpt lat="48.62649" lon="1.9742">
        <ele>149.2</ele>
        <time>2026-01-13T13:08:53Z</time>
      </trkpt>
      <trkpt lat="48.62649" lon="1.97428">
        <ele>149.2</ele>
        <time>2026-01-13T13:08:54Z</time>
      </trkpt>
      <trkpt lat="48.62648" lon="1.97443">
        <ele>148.2</ele>
        <time>2026-01-13T13:08:55Z</time>
      </trkpt>
      <trkpt lat="48.62648" lon="1.97458">
        <ele>147.2</ele>
        <time>2026-01-13T13:08:56Z</time>
      </trkpt>
      <trkpt lat="48.62647" lon="1.97481">
        <ele>146.2</ele>
        <time>2026-01-13T13:08:57Z</time>
      </trkpt>
      <trkpt lat="48.62646" lon="1.97489">
        <ele>145.2</ele>
        <time>2026-01-13T13:08:58Z</time>
      </trkpt>
      <trkpt lat="48.62646" lon="1.97504">
        <ele>145.2</ele>
        <time>2026-01-13T13:08:59Z</time>
      </trkpt>
      <trkpt lat="48.62645" lon="1.97519">
        <ele>145.2</ele>
        <time>2026-01-13T13:09:00Z</time>
      </trkpt>
      <trkpt lat="48.62644" lon="1.97535">
        <ele>145.2</ele>
        <time>2026-01-13T13:09:01Z</time>
      </trkpt>
      <trkpt lat="48.62644" lon="1.9755">
        <ele>145.2</ele>
        <time>2026-01-13T13:09:02Z</time>
      </trkpt>
      <trkpt lat="48.62643" lon="1.97565">
        <ele>144.2</ele>
        <time>2026-01-13T13:09:03Z</time>
      </trkpt>
      <trkpt lat="48.62643" lon="1.9758">
        <ele>143.2</ele>
        <time>2026-01-13T13:09:04Z</time>
      </trkpt>
      <trkpt lat="48.62641" lon="1.97602">
        <ele>142.6</ele>
        <time>2026-01-13T13:09:05Z</time>
      </trkpt>
      <trkpt lat="48.62641" lon="1.97609">
        <ele>142.4</ele>
        <time>2026-01-13T13:09:06Z</time>
      </trkpt>
      <trkpt lat="48.6264" lon="1.97624">
        <ele>142.4</ele>
        <time>2026-01-13T13:09:07Z</time>
      </trkpt>
      <trkpt lat="48.6264" lon="1.97638">
        <ele>142</ele>
        <time>2026-01-13T13:09:08Z</time>
      </trkpt>
      <trkpt lat="48.62639" lon="1.97659">
        <ele>142</ele>
        <time>2026-01-13T13:09:09Z</time>
      </trkpt>
      <trkpt lat="48.62638" lon="1.97666">
        <ele>142</ele>
        <time>2026-01-13T13:09:10Z</time>
      </trkpt>
      <trkpt lat="48.62638" lon="1.97679">
        <ele>142</ele>
        <time>2026-01-13T13:09:11Z</time>
      </trkpt>
      <trkpt lat="48.62637" lon="1.97692">
        <ele>142</ele>
        <time>2026-01-13T13:09:12Z</time>
      </trkpt>
      <trkpt lat="48.62637" lon="1.97706">
        <ele>142</ele>
        <time>2026-01-13T13:09:13Z</time>
      </trkpt>
      <trkpt lat="48.62636" lon="1.97719">
        <ele>142</ele>
        <time>2026-01-13T13:09:14Z</time>
      </trkpt>
      <trkpt lat="48.62636" lon="1.97732">
        <ele>142</ele>
        <time>2026-01-13T13:09:15Z</time>
      </trkpt>
      <trkpt lat="48.62635" lon="1.97745">
        <ele>141</ele>
        <time>2026-01-13T13:09:16Z</time>
      </trkpt>
      <trkpt lat="48.62635" lon="1.97758">
        <ele>141</ele>
        <time>2026-01-13T13:09:17Z</time>
      </trkpt>
      <trkpt lat="48.62634" lon="1.97771">
        <ele>140.8</ele>
        <time>2026-01-13T13:09:18Z</time>
      </trkpt>
      <trkpt lat="48.62633" lon="1.97784">
        <ele>140.6</ele>
        <time>2026-01-13T13:09:19Z</time>
      </trkpt>
      <trkpt lat="48.62632" lon="1.97797">
        <ele>140.4</ele>
        <time>2026-01-13T13:09:20Z</time>
      </trkpt>
      <trkpt lat="48.62632" lon="1.9781">
        <ele>139.4</ele>
        <time>2026-01-13T13:09:21Z</time>
      </trkpt>
      <trkpt lat="48.62631" lon="1.97823">
        <ele>139</ele>
        <time>2026-01-13T13:09:22Z</time>
      </trkpt>
      <trkpt lat="48.62631" lon="1.97837">
        <ele>139</ele>
        <time>2026-01-13T13:09:23Z</time>
      </trkpt>
      <trkpt lat="48.6263" lon="1.9785">
        <ele>139</ele>
        <time>2026-01-13T13:09:24Z</time>
      </trkpt>
      <trkpt lat="48.62629" lon="1.97863">
        <ele>139.2</ele>
        <time>2026-01-13T13:09:25Z</time>
      </trkpt>
      <trkpt lat="48.62629" lon="1.97876">
        <ele>139.2</ele>
        <time>2026-01-13T13:09:26Z</time>
      </trkpt>
      <trkpt lat="48.62628" lon="1.9789">
        <ele>139.2</ele>
        <time>2026-01-13T13:09:27Z</time>
      </trkpt>
      <trkpt lat="48.62627" lon="1.97903">
        <ele>139.2</ele>
        <time>2026-01-13T13:09:28Z</time>
      </trkpt>
      <trkpt lat="48.62626" lon="1.97917">
        <ele>139.2</ele>
        <time>2026-01-13T13:09:29Z</time>
      </trkpt>
      <trkpt lat="48.62625" lon="1.9793">
        <ele>138.2</ele>
        <time>2026-01-13T13:09:30Z</time>
      </trkpt>
      <trkpt lat="48.62623" lon="1.97943">
        <ele>137.2</ele>
        <time>2026-01-13T13:09:31Z</time>
      </trkpt>
      <trkpt lat="48.62621" lon="1.97957">
        <ele>137.2</ele>
        <time>2026-01-13T13:09:32Z</time>
      </trkpt>
      <trkpt lat="48.62618" lon="1.97969">
        <ele>137.2</ele>
        <time>2026-01-13T13:09:33Z</time>
      </trkpt>
      <trkpt lat="48.62615" lon="1.97982">
        <ele>137.2</ele>
        <time>2026-01-13T13:09:34Z</time>
      </trkpt>
      <trkpt lat="48.62612" lon="1.97995">
        <ele>136.6</ele>
        <time>2026-01-13T13:09:35Z</time>
      </trkpt>
      <trkpt lat="48.62608" lon="1.98008">
        <ele>136.6</ele>
        <time>2026-01-13T13:09:36Z</time>
      </trkpt>
      <trkpt lat="48.62605" lon="1.9802">
        <ele>136.6</ele>
        <time>2026-01-13T13:09:37Z</time>
      </trkpt>
      <trkpt lat="48.62601" lon="1.98033">
        <ele>136.6</ele>
        <time>2026-01-13T13:09:38Z</time>
      </trkpt>
      <trkpt lat="48.62597" lon="1.98045">
        <ele>135.6</ele>
        <time>2026-01-13T13:09:39Z</time>
      </trkpt>
      <trkpt lat="48.62594" lon="1.98058">
        <ele>134.6</ele>
        <time>2026-01-13T13:09:40Z</time>
      </trkpt>
      <trkpt lat="48.6259" lon="1.9807">
        <ele>134.4</ele>
        <time>2026-01-13T13:09:41Z</time>
      </trkpt>
      <trkpt lat="48.62586" lon="1.98083">
        <ele>133.4</ele>
        <time>2026-01-13T13:09:42Z</time>
      </trkpt>
      <trkpt lat="48.62583" lon="1.98095">
        <ele>132.4</ele>
        <time>2026-01-13T13:09:43Z</time>
      </trkpt>
      <trkpt lat="48.6258" lon="1.98107">
        <ele>132.4</ele>
        <time>2026-01-13T13:09:44Z</time>
      </trkpt>
      <trkpt lat="48.62576" lon="1.98119">
        <ele>132.4</ele>
        <time>2026-01-13T13:09:45Z</time>
      </trkpt>
      <trkpt lat="48.62573" lon="1.98131">
        <ele>132.8</ele>
        <time>2026-01-13T13:09:46Z</time>
      </trkpt>
      <trkpt lat="48.6257" lon="1.98143">
        <ele>132.8</ele>
        <time>2026-01-13T13:09:47Z</time>
      </trkpt>
      <trkpt lat="48.62566" lon="1.98154">
        <ele>132.8</ele>
        <time>2026-01-13T13:09:48Z</time>
      </trkpt>
      <trkpt lat="48.62563" lon="1.98166">
        <ele>132.8</ele>
        <time>2026-01-13T13:09:49Z</time>
      </trkpt>
      <trkpt lat="48.62559" lon="1.98178">
        <ele>132.8</ele>
        <time>2026-01-13T13:09:50Z</time>
      </trkpt>
      <trkpt lat="48.62555" lon="1.9819">
        <ele>131.8</ele>
        <time>2026-01-13T13:09:51Z</time>
      </trkpt>
      <trkpt lat="48.62552" lon="1.98202">
        <ele>130.8</ele>
        <time>2026-01-13T13:09:52Z</time>
      </trkpt>
      <trkpt lat="48.62549" lon="1.98214">
        <ele>130.2</ele>
        <time>2026-01-13T13:09:53Z</time>
      </trkpt>
      <trkpt lat="48.62545" lon="1.98226">
        <ele>129.6</ele>
        <time>2026-01-13T13:09:54Z</time>
      </trkpt>
      <trkpt lat="48.62542" lon="1.98239">
        <ele>129.6</ele>
        <time>2026-01-13T13:09:55Z</time>
      </trkpt>
      <trkpt lat="48.62538" lon="1.98251">
        <ele>129.6</ele>
        <time>2026-01-13T13:09:56Z</time>
      </trkpt>
      <trkpt lat="48.62534" lon="1.98263">
        <ele>129.6</ele>
        <time>2026-01-13T13:09:57Z</time>
      </trkpt>
      <trkpt lat="48.62531" lon="1.98275">
        <ele>129.2</ele>
        <time>2026-01-13T13:09:58Z</time>
      </trkpt>
      <trkpt lat="48.62527" lon="1.98288">
        <ele>129.2</ele>
        <time>2026-01-13T13:09:59Z</time>
      </trkpt>
      <trkpt lat="48.62524" lon="1.983">
        <ele>129</ele>
        <time>2026-01-13T13:10:00Z</time>
      </trkpt>
      <trkpt lat="48.62521" lon="1.98312">
        <ele>129</ele>
        <time>2026-01-13T13:10:01Z</time>
      </trkpt>
      <trkpt lat="48.62518" lon="1.98325">
        <ele>129</ele>
        <time>2026-01-13T13:10:02Z</time>
      </trkpt>
      <trkpt lat="48.62515" lon="1.98337">
        <ele>129</ele>
        <time>2026-01-13T13:10:03Z</time>
      </trkpt>
      <trkpt lat="48.62511" lon="1.98349">
        <ele>128</ele>
        <time>2026-01-13T13:10:04Z</time>
      </trkpt>
      <trkpt lat="48.62507" lon="1.98361">
        <ele>128</ele>
        <time>2026-01-13T13:10:05Z</time>
      </trkpt>
      <trkpt lat="48.62503" lon="1.98372">
        <ele>128</ele>
        <time>2026-01-13T13:10:06Z</time>
      </trkpt>
      <trkpt lat="48.62499" lon="1.98384">
        <ele>128</ele>
        <time>2026-01-13T13:10:07Z</time>
      </trkpt>
      <trkpt lat="48.62496" lon="1.98397">
        <ele>128</ele>
        <time>2026-01-13T13:10:08Z</time>
      </trkpt>
      <trkpt lat="48.62492" lon="1.98409">
        <ele>127</ele>
        <time>2026-01-13T13:10:09Z</time>
      </trkpt>
      <trkpt lat="48.62489" lon="1.98421">
        <ele>127</ele>
        <time>2026-01-13T13:10:10Z</time>
      </trkpt>
      <trkpt lat="48.62486" lon="1.98433">
        <ele>127</ele>
        <time>2026-01-13T13:10:11Z</time>
      </trkpt>
      <trkpt lat="48.62482" lon="1.98445">
        <ele>127.4</ele>
        <time>2026-01-13T13:10:12Z</time>
      </trkpt>
      <trkpt lat="48.62479" lon="1.98457">
        <ele>127.4</ele>
        <time>2026-01-13T13:10:13Z</time>
      </trkpt>
      <trkpt lat="48.62475" lon="1.98469">
        <ele>127.4</ele>
        <time>2026-01-13T13:10:14Z</time>
      </trkpt>
      <trkpt lat="48.62472" lon="1.9848">
        <ele>126.4</ele>
        <time>2026-01-13T13:10:15Z</time>
      </trkpt>
      <trkpt lat="48.62468" lon="1.98492">
        <ele>125.8</ele>
        <time>2026-01-13T13:10:16Z</time>
      </trkpt>
      <trkpt lat="48.62465" lon="1.98504">
        <ele>125.8</ele>
        <time>2026-01-13T13:10:17Z</time>
      </trkpt>
      <trkpt lat="48.62461" lon="1.98516">
        <ele>125.8</ele>
        <time>2026-01-13T13:10:18Z</time>
      </trkpt>
      <trkpt lat="48.62458" lon="1.98528">
        <ele>125.8</ele>
        <time>2026-01-13T13:10:19Z</time>
      </trkpt>
      <trkpt lat="48.62454" lon="1.9854">
        <ele>125.8</ele>
        <time>2026-01-13T13:10:20Z</time>
      </trkpt>
      <trkpt lat="48.62451" lon="1.98552">
        <ele>125</ele>
        <time>2026-01-13T13:10:21Z</time>
      </trkpt>
      <trkpt lat="48.62447" lon="1.98564">
        <ele>124.6</ele>
        <time>2026-01-13T13:10:22Z</time>
      </trkpt>
      <trkpt lat="48.62444" lon="1.98576">
        <ele>123.8</ele>
        <time>2026-01-13T13:10:23Z</time>
      </trkpt>
      <trkpt lat="48.6244" lon="1.98588">
        <ele>123.4</ele>
        <time>2026-01-13T13:10:24Z</time>
      </trkpt>
      <trkpt lat="48.62437" lon="1.986">
        <ele>123.2</ele>
        <time>2026-01-13T13:10:25Z</time>
      </trkpt>
      <trkpt lat="48.62433" lon="1.98613">
        <ele>123.2</ele>
        <time>2026-01-13T13:10:26Z</time>
      </trkpt>
      <trkpt lat="48.6243" lon="1.98625">
        <ele>123.2</ele>
        <time>2026-01-13T13:10:27Z</time>
      </trkpt>
      <trkpt lat="48.62426" lon="1.98637">
        <ele>123.2</ele>
        <time>2026-01-13T13:10:28Z</time>
      </trkpt>
      <trkpt lat="48.62423" lon="1.98649">
        <ele>122.2</ele>
        <time>2026-01-13T13:10:29Z</time>
      </trkpt>
      <trkpt lat="48.62419" lon="1.98662">
        <ele>122.2</ele>
        <time>2026-01-13T13:10:30Z</time>
      </trkpt>
      <trkpt lat="48.62416" lon="1.98674">
        <ele>122.2</ele>
        <time>2026-01-13T13:10:31Z</time>
      </trkpt>
      <trkpt lat="48.62412" lon="1.98686">
        <ele>122.2</ele>
        <time>2026-01-13T13:10:32Z</time>
      </trkpt>
      <trkpt lat="48.62408" lon="1.98699">
        <ele>121.2</ele>
        <time>2026-01-13T13:10:33Z</time>
      </trkpt>
      <trkpt lat="48.62405" lon="1.98711">
        <ele>121.2</ele>
        <time>2026-01-13T13:10:34Z</time>
      </trkpt>
      <trkpt lat="48.62401" lon="1.98724">
        <ele>121.2</ele>
        <time>2026-01-13T13:10:35Z</time>
      </trkpt>
      <trkpt lat="48.62397" lon="1.98736">
        <ele>121.2</ele>
        <time>2026-01-13T13:10:36Z</time>
      </trkpt>
      <trkpt lat="48.62392" lon="1.98747">
        <ele>121.2</ele>
        <time>2026-01-13T13:10:37Z</time>
      </trkpt>
      <trkpt lat="48.62387" lon="1.98758">
        <ele>120.2</ele>
        <time>2026-01-13T13:10:38Z</time>
      </trkpt>
      <trkpt lat="48.62382" lon="1.98769">
        <ele>119.4</ele>
        <time>2026-01-13T13:10:39Z</time>
      </trkpt>
      <trkpt lat="48.62376" lon="1.98779">
        <ele>119.2</ele>
        <time>2026-01-13T13:10:40Z</time>
      </trkpt>
      <trkpt lat="48.62371" lon="1.9879">
        <ele>119.2</ele>
        <time>2026-01-13T13:10:41Z</time>
      </trkpt>
      <trkpt lat="48.62366" lon="1.988">
        <ele>119.2</ele>
        <time>2026-01-13T13:10:42Z</time>
      </trkpt>
      <trkpt lat="48.62361" lon="1.98811">
        <ele>119.2</ele>
        <time>2026-01-13T13:10:43Z</time>
      </trkpt>
      <trkpt lat="48.62356" lon="1.98822">
        <ele>119.2</ele>
        <time>2026-01-13T13:10:44Z</time>
      </trkpt>
      <trkpt lat="48.62351" lon="1.98832">
        <ele>119.2</ele>
        <time>2026-01-13T13:10:45Z</time>
      </trkpt>
      <trkpt lat="48.62346" lon="1.98843">
        <ele>119.2</ele>
        <time>2026-01-13T13:10:46Z</time>
      </trkpt>
      <trkpt lat="48.62342" lon="1.98855">
        <ele>119.2</ele>
        <time>2026-01-13T13:10:47Z</time>
      </trkpt>
      <trkpt lat="48.62338" lon="1.98866">
        <ele>119.2</ele>
        <time>2026-01-13T13:10:48Z</time>
      </trkpt>
      <trkpt lat="48.62335" lon="1.98878">
        <ele>119.2</ele>
        <time>2026-01-13T13:10:49Z</time>
      </trkpt>
      <trkpt lat="48.62332" lon="1.9889">
        <ele>119.2</ele>
        <time>2026-01-13T13:10:50Z</time>
      </trkpt>
      <trkpt lat="48.6233" lon="1.98902">
        <ele>119.2</ele>
        <time>2026-01-13T13:10:51Z</time>
      </trkpt>
      <trkpt lat="48.62329" lon="1.98921">
        <ele>119.2</ele>
        <time>2026-01-13T13:10:52Z</time>
      </trkpt>
      <trkpt lat="48.62329" lon="1.98927">
        <ele>120.2</ele>
        <time>2026-01-13T13:10:53Z</time>
      </trkpt>
      <trkpt lat="48.62331" lon="1.9894">
        <ele>120.2</ele>
        <time>2026-01-13T13:10:54Z</time>
      </trkpt>
      <trkpt lat="48.62333" lon="1.98952">
        <ele>120.2</ele>
        <time>2026-01-13T13:10:55Z</time>
      </trkpt>
      <trkpt lat="48.62335" lon="1.98965">
        <ele>119.6</ele>
        <time>2026-01-13T13:10:56Z</time>
      </trkpt>
      <trkpt lat="48.62337" lon="1.98978">
        <ele>119.6</ele>
        <time>2026-01-13T13:10:57Z</time>
      </trkpt>
      <trkpt lat="48.62339" lon="1.9899">
        <ele>119</ele>
        <time>2026-01-13T13:10:58Z</time>
      </trkpt>
      <trkpt lat="48.62339" lon="1.99004">
        <ele>118</ele>
        <time>2026-01-13T13:10:59Z</time>
      </trkpt>
      <trkpt lat="48.62336" lon="1.99016">
        <ele>117.6</ele>
        <time>2026-01-13T13:11:00Z</time>
      </trkpt>
      <trkpt lat="48.62332" lon="1.99028">
        <ele>116.6</ele>
        <time>2026-01-13T13:11:01Z</time>
      </trkpt>
      <trkpt lat="48.62327" lon="1.99038">
        <ele>116.4</ele>
        <time>2026-01-13T13:11:02Z</time>
      </trkpt>
      <trkpt lat="48.62321" lon="1.99047">
        <ele>115.4</ele>
        <time>2026-01-13T13:11:03Z</time>
      </trkpt>
      <trkpt lat="48.62315" lon="1.99056">
        <ele>114.8</ele>
        <time>2026-01-13T13:11:04Z</time>
      </trkpt>
      <trkpt lat="48.62306" lon="1.9907">
        <ele>114.8</ele>
        <time>2026-01-13T13:11:05Z</time>
      </trkpt>
      <trkpt lat="48.62303" lon="1.99075">
        <ele>114.8</ele>
        <time>2026-01-13T13:11:06Z</time>
      </trkpt>
      <trkpt lat="48.62297" lon="1.99082">
        <ele>115.8</ele>
        <time>2026-01-13T13:11:07Z</time>
      </trkpt>
      <trkpt lat="48.62291" lon="1.9909">
        <ele>115.8</ele>
        <time>2026-01-13T13:11:08Z</time>
      </trkpt>
      <trkpt lat="48.62281" lon="1.99101">
        <ele>115.8</ele>
        <time>2026-01-13T13:11:09Z</time>
      </trkpt>
      <trkpt lat="48.62278" lon="1.99105">
        <ele>115.8</ele>
        <time>2026-01-13T13:11:10Z</time>
      </trkpt>
      <trkpt lat="48.62273" lon="1.99112">
        <ele>115.8</ele>
        <time>2026-01-13T13:11:11Z</time>
      </trkpt>
      <trkpt lat="48.62266" lon="1.99118">
        <ele>115.8</ele>
        <time>2026-01-13T13:11:12Z</time>
      </trkpt>
      <trkpt lat="48.62257" lon="1.99128">
        <ele>116.2</ele>
        <time>2026-01-13T13:11:13Z</time>
      </trkpt>
      <trkpt lat="48.62254" lon="1.99132">
        <ele>116.2</ele>
        <time>2026-01-13T13:11:14Z</time>
      </trkpt>
      <trkpt lat="48.62248" lon="1.99139">
        <ele>116.2</ele>
        <time>2026-01-13T13:11:15Z</time>
      </trkpt>
      <trkpt lat="48.62242" lon="1.99145">
        <ele>116.2</ele>
        <time>2026-01-13T13:11:16Z</time>
      </trkpt>
      <trkpt lat="48.62233" lon="1.99155">
        <ele>117.2</ele>
        <time>2026-01-13T13:11:17Z</time>
      </trkpt>
      <trkpt lat="48.6223" lon="1.99158">
        <ele>117.2</ele>
        <time>2026-01-13T13:11:18Z</time>
      </trkpt>
      <trkpt lat="48.62221" lon="1.99168">
        <ele>117.2</ele>
        <time>2026-01-13T13:11:19Z</time>
      </trkpt>
      <trkpt lat="48.62218" lon="1.99172">
        <ele>116.2</ele>
        <time>2026-01-13T13:11:20Z</time>
      </trkpt>
      <trkpt lat="48.62212" lon="1.99178">
        <ele>115.8</ele>
        <time>2026-01-13T13:11:21Z</time>
      </trkpt>
      <trkpt lat="48.62206" lon="1.99184">
        <ele>115.8</ele>
        <time>2026-01-13T13:11:22Z</time>
      </trkpt>
      <trkpt lat="48.622" lon="1.99191">
        <ele>115.8</ele>
        <time>2026-01-13T13:11:23Z</time>
      </trkpt>
      <trkpt lat="48.62195" lon="1.99196">
        <ele>116.8</ele>
        <time>2026-01-13T13:11:24Z</time>
      </trkpt>
      <trkpt lat="48.6219" lon="1.99202">
        <ele>117</ele>
        <time>2026-01-13T13:11:25Z</time>
      </trkpt>
      <trkpt lat="48.62186" lon="1.99208">
        <ele>117.2</ele>
        <time>2026-01-13T13:11:26Z</time>
      </trkpt>
      <trkpt lat="48.62183" lon="1.99216">
        <ele>118</ele>
        <time>2026-01-13T13:11:27Z</time>
      </trkpt>
      <trkpt lat="48.62183" lon="1.9923">
        <ele>118.6</ele>
        <time>2026-01-13T13:11:28Z</time>
      </trkpt>
      <trkpt lat="48.62184" lon="1.99234">
        <ele>119.2</ele>
        <time>2026-01-13T13:11:29Z</time>
      </trkpt>
      <trkpt lat="48.62185" lon="1.99243">
        <ele>119.2</ele>
        <time>2026-01-13T13:11:30Z</time>
      </trkpt>
      <trkpt lat="48.62187" lon="1.99252">
        <ele>119.2</ele>
        <time>2026-01-13T13:11:31Z</time>
      </trkpt>
      <trkpt lat="48.62189" lon="1.99261">
        <ele>118.4</ele>
        <time>2026-01-13T13:11:32Z</time>
      </trkpt>
      <trkpt lat="48.62191" lon="1.9927">
        <ele>118.4</ele>
        <time>2026-01-13T13:11:33Z</time>
      </trkpt>
      <trkpt lat="48.62193" lon="1.99279">
        <ele>118.4</ele>
        <time>2026-01-13T13:11:34Z</time>
      </trkpt>
      <trkpt lat="48.62196" lon="1.99293">
        <ele>118.4</ele>
        <time>2026-01-13T13:11:35Z</time>
      </trkpt>
      <trkpt lat="48.62198" lon="1.99298">
        <ele>118.4</ele>
        <time>2026-01-13T13:11:36Z</time>
      </trkpt>
      <trkpt lat="48.62199" lon="1.99307">
        <ele>118.4</ele>
        <time>2026-01-13T13:11:37Z</time>
      </trkpt>
      <trkpt lat="48.62202" lon="1.99321">
        <ele>118.6</ele>
        <time>2026-01-13T13:11:38Z</time>
      </trkpt>
      <trkpt lat="48.62202" lon="1.99326">
        <ele>118.6</ele>
        <time>2026-01-13T13:11:39Z</time>
      </trkpt>
      <trkpt lat="48.62204" lon="1.99336">
        <ele>118.6</ele>
        <time>2026-01-13T13:11:40Z</time>
      </trkpt>
      <trkpt lat="48.62205" lon="1.99345">
        <ele>118.2</ele>
        <time>2026-01-13T13:11:41Z</time>
      </trkpt>
      <trkpt lat="48.62205" lon="1.99355">
        <ele>118.2</ele>
        <time>2026-01-13T13:11:42Z</time>
      </trkpt>
      <trkpt lat="48.62206" lon="1.99364">
        <ele>118.2</ele>
        <time>2026-01-13T13:11:43Z</time>
      </trkpt>
      <trkpt lat="48.62206" lon="1.99374">
        <ele>118.8</ele>
        <time>2026-01-13T13:11:44Z</time>
      </trkpt>
      <trkpt lat="48.62207" lon="1.99387">
        <ele>119.8</ele>
        <time>2026-01-13T13:11:45Z</time>
      </trkpt>
      <trkpt lat="48.62208" lon="1.99391">
        <ele>119.8</ele>
        <time>2026-01-13T13:11:46Z</time>
      </trkpt>
      <trkpt lat="48.62208" lon="1.994">
        <ele>120.4</ele>
        <time>2026-01-13T13:11:47Z</time>
      </trkpt>
      <trkpt lat="48.62208" lon="1.99409">
        <ele>120.4</ele>
        <time>2026-01-13T13:11:48Z</time>
      </trkpt>
      <trkpt lat="48.62209" lon="1.99418">
        <ele>120.4</ele>
        <time>2026-01-13T13:11:49Z</time>
      </trkpt>
      <trkpt lat="48.62209" lon="1.9943">
        <ele>120.2</ele>
        <time>2026-01-13T13:11:50Z</time>
      </trkpt>
      <trkpt lat="48.62209" lon="1.99435">
        <ele>120.2</ele>
        <time>2026-01-13T13:11:51Z</time>
      </trkpt>
      <trkpt lat="48.62209" lon="1.99443">
        <ele>120.2</ele>
        <time>2026-01-13T13:11:52Z</time>
      </trkpt>
      <trkpt lat="48.62209" lon="1.99452">
        <ele>120.8</ele>
        <time>2026-01-13T13:11:53Z</time>
      </trkpt>
      <trkpt lat="48.62209" lon="1.99464">
        <ele>120.8</ele>
        <time>2026-01-13T13:11:54Z</time>
      </trkpt>
      <trkpt lat="48.62209" lon="1.99469">
        <ele>120.8</ele>
        <time>2026-01-13T13:11:55Z</time>
      </trkpt>
      <trkpt lat="48.62209" lon="1.99477">
        <ele>120.8</ele>
        <time>2026-01-13T13:11:56Z</time>
      </trkpt>
      <trkpt lat="48.62209" lon="1.99485">
        <ele>121.2</ele>
        <time>2026-01-13T13:11:57Z</time>
      </trkpt>
      <trkpt lat="48.62209" lon="1.99493">
        <ele>121.4</ele>
        <time>2026-01-13T13:11:58Z</time>
      </trkpt>
      <trkpt lat="48.62209" lon="1.99501">
        <ele>122.4</ele>
        <time>2026-01-13T13:11:59Z</time>
      </trkpt>
      <trkpt lat="48.62209" lon="1.99509">
        <ele>123</ele>
        <time>2026-01-13T13:12:00Z</time>
      </trkpt>
      <trkpt lat="48.62209" lon="1.9952">
        <ele>123</ele>
        <time>2026-01-13T13:12:01Z</time>
      </trkpt>
      <trkpt lat="48.62209" lon="1.99524">
        <ele>123</ele>
        <time>2026-01-13T13:12:02Z</time>
      </trkpt>
      <trkpt lat="48.62209" lon="1.99535">
        <ele>123</ele>
        <time>2026-01-13T13:12:03Z</time>
      </trkpt>
      <trkpt lat="48.62209" lon="1.99538">
        <ele>123.2</ele>
        <time>2026-01-13T13:12:04Z</time>
      </trkpt>
      <trkpt lat="48.62209" lon="1.9955">
        <ele>123.4</ele>
        <time>2026-01-13T13:12:05Z</time>
      </trkpt>
      <trkpt lat="48.62209" lon="1.99553">
        <ele>124</ele>
        <time>2026-01-13T13:12:06Z</time>
      </trkpt>
      <trkpt lat="48.62209" lon="1.99561">
        <ele>124.2</ele>
        <time>2026-01-13T13:12:07Z</time>
      </trkpt>
      <trkpt lat="48.62208" lon="1.99569">
        <ele>124.4</ele>
        <time>2026-01-13T13:12:08Z</time>
      </trkpt>
      <trkpt lat="48.62208" lon="1.99576">
        <ele>124.8</ele>
        <time>2026-01-13T13:12:09Z</time>
      </trkpt>
      <trkpt lat="48.62208" lon="1.99584">
        <ele>124.8</ele>
        <time>2026-01-13T13:12:10Z</time>
      </trkpt>
      <trkpt lat="48.62207" lon="1.99595">
        <ele>124.8</ele>
        <time>2026-01-13T13:12:11Z</time>
      </trkpt>
      <trkpt lat="48.62206" lon="1.99599">
        <ele>124.8</ele>
        <time>2026-01-13T13:12:12Z</time>
      </trkpt>
      <trkpt lat="48.62205" lon="1.99611">
        <ele>124.8</ele>
        <time>2026-01-13T13:12:13Z</time>
      </trkpt>
      <trkpt lat="48.62205" lon="1.99615">
        <ele>125.8</ele>
        <time>2026-01-13T13:12:14Z</time>
      </trkpt>
      <trkpt lat="48.62204" lon="1.99627">
        <ele>125.8</ele>
        <time>2026-01-13T13:12:15Z</time>
      </trkpt>
      <trkpt lat="48.62204" lon="1.99631">
        <ele>126.8</ele>
        <time>2026-01-13T13:12:16Z</time>
      </trkpt>
      <trkpt lat="48.62203" lon="1.99644">
        <ele>126.8</ele>
        <time>2026-01-13T13:12:17Z</time>
      </trkpt>
      <trkpt lat="48.62202" lon="1.99648">
        <ele>126.8</ele>
        <time>2026-01-13T13:12:18Z</time>
      </trkpt>
      <trkpt lat="48.62202" lon="1.99656">
        <ele>126.8</ele>
        <time>2026-01-13T13:12:19Z</time>
      </trkpt>
      <trkpt lat="48.62202" lon="1.99664">
        <ele>126.8</ele>
        <time>2026-01-13T13:12:20Z</time>
      </trkpt>
      <trkpt lat="48.62201" lon="1.99672">
        <ele>127.8</ele>
        <time>2026-01-13T13:12:21Z</time>
      </trkpt>
      <trkpt lat="48.62201" lon="1.99683">
        <ele>127.8</ele>
        <time>2026-01-13T13:12:22Z</time>
      </trkpt>
      <trkpt lat="48.62201" lon="1.99687">
        <ele>128.6</ele>
        <time>2026-01-13T13:12:23Z</time>
      </trkpt>
      <trkpt lat="48.62201" lon="1.99699">
        <ele>128.6</ele>
        <time>2026-01-13T13:12:24Z</time>
      </trkpt>
      <trkpt lat="48.62201" lon="1.99702">
        <ele>128.6</ele>
        <time>2026-01-13T13:12:25Z</time>
      </trkpt>
      <trkpt lat="48.62201" lon="1.9971">
        <ele>128.6</ele>
        <time>2026-01-13T13:12:26Z</time>
      </trkpt>
      <trkpt lat="48.622" lon="1.99717">
        <ele>128.6</ele>
        <time>2026-01-13T13:12:27Z</time>
      </trkpt>
      <trkpt lat="48.62199" lon="1.99725">
        <ele>128.6</ele>
        <time>2026-01-13T13:12:28Z</time>
      </trkpt>
      <trkpt lat="48.62198" lon="1.99736">
        <ele>128.6</ele>
        <time>2026-01-13T13:12:29Z</time>
      </trkpt>
      <trkpt lat="48.62197" lon="1.9974">
        <ele>128.6</ele>
        <time>2026-01-13T13:12:30Z</time>
      </trkpt>
      <trkpt lat="48.62195" lon="1.99747">
        <ele>128.2</ele>
        <time>2026-01-13T13:12:31Z</time>
      </trkpt>
      <trkpt lat="48.62193" lon="1.99753">
        <ele>128</ele>
        <time>2026-01-13T13:12:32Z</time>
      </trkpt>
      <trkpt lat="48.62191" lon="1.99759">
        <ele>128</ele>
        <time>2026-01-13T13:12:33Z</time>
      </trkpt>
      <trkpt lat="48.62189" lon="1.99765">
        <ele>128</ele>
        <time>2026-01-13T13:12:34Z</time>
      </trkpt>
      <trkpt lat="48.62186" lon="1.99771">
        <ele>128</ele>
        <time>2026-01-13T13:12:35Z</time>
      </trkpt>
      <trkpt lat="48.62183" lon="1.99776">
        <ele>128</ele>
        <time>2026-01-13T13:12:36Z</time>
      </trkpt>
      <trkpt lat="48.62179" lon="1.99782">
        <ele>128</ele>
        <time>2026-01-13T13:12:37Z</time>
      </trkpt>
      <trkpt lat="48.62175" lon="1.99787">
        <ele>127.8</ele>
        <time>2026-01-13T13:12:38Z</time>
      </trkpt>
      <trkpt lat="48.62172" lon="1.99792">
        <ele>127.8</ele>
        <time>2026-01-13T13:12:39Z</time>
      </trkpt>
      <trkpt lat="48.62168" lon="1.99797">
        <ele>127.8</ele>
        <time>2026-01-13T13:12:40Z</time>
      </trkpt>
      <trkpt lat="48.62161" lon="1.99805">
        <ele>127.8</ele>
        <time>2026-01-13T13:12:41Z</time>
      </trkpt>
      <trkpt lat="48.62159" lon="1.99807">
        <ele>127.8</ele>
        <time>2026-01-13T13:12:42Z</time>
      </trkpt>
      <trkpt lat="48.62154" lon="1.99812">
        <ele>127.8</ele>
        <time>2026-01-13T13:12:43Z</time>
      </trkpt>
      <trkpt lat="48.6215" lon="1.99817">
        <ele>127.8</ele>
        <time>2026-01-13T13:12:44Z</time>
      </trkpt>
      <trkpt lat="48.62145" lon="1.99822">
        <ele>127.8</ele>
        <time>2026-01-13T13:12:45Z</time>
      </trkpt>
      <trkpt lat="48.62139" lon="1.99826">
        <ele>126.8</ele>
        <time>2026-01-13T13:12:46Z</time>
      </trkpt>
      <trkpt lat="48.62134" lon="1.9983">
        <ele>125.8</ele>
        <time>2026-01-13T13:12:47Z</time>
      </trkpt>
      <trkpt lat="48.62126" lon="1.99836">
        <ele>125.4</ele>
        <time>2026-01-13T13:12:48Z</time>
      </trkpt>
      <trkpt lat="48.62123" lon="1.99838">
        <ele>125</ele>
        <time>2026-01-13T13:12:49Z</time>
      </trkpt>
      <trkpt lat="48.62117" lon="1.99842">
        <ele>124.6</ele>
        <time>2026-01-13T13:12:50Z</time>
      </trkpt>
      <trkpt lat="48.62112" lon="1.99846">
        <ele>124.6</ele>
        <time>2026-01-13T13:12:51Z</time>
      </trkpt>
      <trkpt lat="48.62106" lon="1.99851">
        <ele>124.6</ele>
        <time>2026-01-13T13:12:52Z</time>
      </trkpt>
      <trkpt lat="48.621" lon="1.99855">
        <ele>124.6</ele>
        <time>2026-01-13T13:12:53Z</time>
      </trkpt>
      <trkpt lat="48.62091" lon="1.99861">
        <ele>124</ele>
        <time>2026-01-13T13:12:54Z</time>
      </trkpt>
      <trkpt lat="48.62088" lon="1.99863">
        <ele>123.4</ele>
        <time>2026-01-13T13:12:55Z</time>
      </trkpt>
      <trkpt lat="48.62082" lon="1.99867">
        <ele>123.4</ele>
        <time>2026-01-13T13:12:56Z</time>
      </trkpt>
      <trkpt lat="48.62077" lon="1.99872">
        <ele>123.4</ele>
        <time>2026-01-13T13:12:57Z</time>
      </trkpt>
      <trkpt lat="48.62072" lon="1.99876">
        <ele>123.4</ele>
        <time>2026-01-13T13:12:58Z</time>
      </trkpt>
      <trkpt lat="48.62064" lon="1.99883">
        <ele>123.4</ele>
        <time>2026-01-13T13:12:59Z</time>
      </trkpt>
      <trkpt lat="48.62062" lon="1.99886">
        <ele>123.4</ele>
        <time>2026-01-13T13:13:00Z</time>
      </trkpt>
      <trkpt lat="48.62057" lon="1.99895">
        <ele>124.4</ele>
        <time>2026-01-13T13:13:01Z</time>
      </trkpt>
      <trkpt lat="48.62056" lon="1.999">
        <ele>125.4</ele>
        <time>2026-01-13T13:13:02Z</time>
      </trkpt>
      <trkpt lat="48.62055" lon="1.99913">
        <ele>125.4</ele>
        <time>2026-01-13T13:13:03Z</time>
      </trkpt>
      <trkpt lat="48.62055" lon="1.99918">
        <ele>125.4</ele>
        <time>2026-01-13T13:13:04Z</time>
      </trkpt>
      <trkpt lat="48.62056" lon="1.99928">
        <ele>125.4</ele>
        <time>2026-01-13T13:13:05Z</time>
      </trkpt>
      <trkpt lat="48.62057" lon="1.99938">
        <ele>124.8</ele>
        <time>2026-01-13T13:13:06Z</time>
      </trkpt>
      <trkpt lat="48.62058" lon="1.99948">
        <ele>124.4</ele>
        <time>2026-01-13T13:13:07Z</time>
      </trkpt>
      <trkpt lat="48.62059" lon="1.99957">
        <ele>124.4</ele>
        <time>2026-01-13T13:13:08Z</time>
      </trkpt>
      <trkpt lat="48.6206" lon="1.99967">
        <ele>124.4</ele>
        <time>2026-01-13T13:13:09Z</time>
      </trkpt>
      <trkpt lat="48.62061" lon="1.99976">
        <ele>124.4</ele>
        <time>2026-01-13T13:13:10Z</time>
      </trkpt>
      <trkpt lat="48.62062" lon="1.99985">
        <ele>125</ele>
        <time>2026-01-13T13:13:11Z</time>
      </trkpt>
      <trkpt lat="48.62063" lon="1.99995">
        <ele>125</ele>
        <time>2026-01-13T13:13:12Z</time>
      </trkpt>
      <trkpt lat="48.62064" lon="2.00008">
        <ele>125</ele>
        <time>2026-01-13T13:13:13Z</time>
      </trkpt>
      <trkpt lat="48.62065" lon="2.00013">
        <ele>125</ele>
        <time>2026-01-13T13:13:14Z</time>
      </trkpt>
      <trkpt lat="48.62066" lon="2.00021">
        <ele>125</ele>
        <time>2026-01-13T13:13:15Z</time>
      </trkpt>
      <trkpt lat="48.62068" lon="2.0003">
        <ele>125.2</ele>
        <time>2026-01-13T13:13:16Z</time>
      </trkpt>
      <trkpt lat="48.6207" lon="2.00038">
        <ele>125.4</ele>
        <time>2026-01-13T13:13:17Z</time>
      </trkpt>
      <trkpt lat="48.62072" lon="2.00046">
        <ele>125.4</ele>
        <time>2026-01-13T13:13:18Z</time>
      </trkpt>
      <trkpt lat="48.62074" lon="2.00054">
        <ele>125.4</ele>
        <time>2026-01-13T13:13:19Z</time>
      </trkpt>
      <trkpt lat="48.62077" lon="2.00062">
        <ele>125.4</ele>
        <time>2026-01-13T13:13:20Z</time>
      </trkpt>
      <trkpt lat="48.62079" lon="2.00069">
        <ele>125.4</ele>
        <time>2026-01-13T13:13:21Z</time>
      </trkpt>
      <trkpt lat="48.62082" lon="2.00077">
        <ele>125.4</ele>
        <time>2026-01-13T13:13:22Z</time>
      </trkpt>
      <trkpt lat="48.62084" lon="2.00084">
        <ele>126</ele>
        <time>2026-01-13T13:13:23Z</time>
      </trkpt>
      <trkpt lat="48.62087" lon="2.00091">
        <ele>126.6</ele>
        <time>2026-01-13T13:13:24Z</time>
      </trkpt>
      <trkpt lat="48.6209" lon="2.00102">
        <ele>126.6</ele>
        <time>2026-01-13T13:13:25Z</time>
      </trkpt>
      <trkpt lat="48.62091" lon="2.00106">
        <ele>126.6</ele>
        <time>2026-01-13T13:13:26Z</time>
      </trkpt>
      <trkpt lat="48.62095" lon="2.00116">
        <ele>126.6</ele>
        <time>2026-01-13T13:13:27Z</time>
      </trkpt>
      <trkpt lat="48.62096" lon="2.0012">
        <ele>126.6</ele>
        <time>2026-01-13T13:13:28Z</time>
      </trkpt>
      <trkpt lat="48.62099" lon="2.00127">
        <ele>127</ele>
        <time>2026-01-13T13:13:29Z</time>
      </trkpt>
      <trkpt lat="48.62101" lon="2.00133">
        <ele>127.2</ele>
        <time>2026-01-13T13:13:30Z</time>
      </trkpt>
      <trkpt lat="48.62105" lon="2.00144">
        <ele>127.2</ele>
        <time>2026-01-13T13:13:31Z</time>
      </trkpt>
      <trkpt lat="48.62106" lon="2.00147">
        <ele>127.2</ele>
        <time>2026-01-13T13:13:32Z</time>
      </trkpt>
      <trkpt lat="48.62108" lon="2.00154">
        <ele>127.2</ele>
        <time>2026-01-13T13:13:33Z</time>
      </trkpt>
      <trkpt lat="48.62111" lon="2.0016">
        <ele>127.2</ele>
        <time>2026-01-13T13:13:34Z</time>
      </trkpt>
      <trkpt lat="48.62114" lon="2.00169">
        <ele>127.6</ele>
        <time>2026-01-13T13:13:35Z</time>
      </trkpt>
      <trkpt lat="48.62115" lon="2.00172">
        <ele>128.2</ele>
        <time>2026-01-13T13:13:36Z</time>
      </trkpt>
      <trkpt lat="48.62118" lon="2.00178">
        <ele>128.8</ele>
        <time>2026-01-13T13:13:37Z</time>
      </trkpt>
      <trkpt lat="48.6212" lon="2.00184">
        <ele>128.8</ele>
        <time>2026-01-13T13:13:38Z</time>
      </trkpt>
      <trkpt lat="48.62122" lon="2.00191">
        <ele>128.8</ele>
        <time>2026-01-13T13:13:39Z</time>
      </trkpt>
      <trkpt lat="48.62125" lon="2.002">
        <ele>128.8</ele>
        <time>2026-01-13T13:13:40Z</time>
      </trkpt>
      <trkpt lat="48.62126" lon="2.00203">
        <ele>128.8</ele>
        <time>2026-01-13T13:13:41Z</time>
      </trkpt>
      <trkpt lat="48.62128" lon="2.0021">
        <ele>129</ele>
        <time>2026-01-13T13:13:42Z</time>
      </trkpt>
      <trkpt lat="48.62129" lon="2.00217">
        <ele>129.2</ele>
        <time>2026-01-13T13:13:43Z</time>
      </trkpt>
      <trkpt lat="48.6213" lon="2.00224">
        <ele>129.2</ele>
        <time>2026-01-13T13:13:44Z</time>
      </trkpt>
      <trkpt lat="48.62131" lon="2.00233">
        <ele>129.2</ele>
        <time>2026-01-13T13:13:45Z</time>
      </trkpt>
      <trkpt lat="48.62131" lon="2.00237">
        <ele>129.2</ele>
        <time>2026-01-13T13:13:46Z</time>
      </trkpt>
      <trkpt lat="48.62131" lon="2.00244">
        <ele>129.4</ele>
        <time>2026-01-13T13:13:47Z</time>
      </trkpt>
      <trkpt lat="48.62132" lon="2.00254">
        <ele>129.4</ele>
        <time>2026-01-13T13:13:48Z</time>
      </trkpt>
      <trkpt lat="48.62132" lon="2.00258">
        <ele>129.4</ele>
        <time>2026-01-13T13:13:49Z</time>
      </trkpt>
      <trkpt lat="48.62134" lon="2.00265">
        <ele>129.4</ele>
        <time>2026-01-13T13:13:50Z</time>
      </trkpt>
      <trkpt lat="48.62138" lon="2.00274">
        <ele>130.2</ele>
        <time>2026-01-13T13:13:51Z</time>
      </trkpt>
      <trkpt lat="48.62139" lon="2.00277">
        <ele>130.2</ele>
        <time>2026-01-13T13:13:52Z</time>
      </trkpt>
      <trkpt lat="48.62141" lon="2.00284">
        <ele>130.2</ele>
        <time>2026-01-13T13:13:53Z</time>
      </trkpt>
      <trkpt lat="48.62145" lon="2.00295">
        <ele>129.6</ele>
        <time>2026-01-13T13:13:54Z</time>
      </trkpt>
      <trkpt lat="48.62147" lon="2.00298">
        <ele>129.4</ele>
        <time>2026-01-13T13:13:55Z</time>
      </trkpt>
      <trkpt lat="48.62149" lon="2.00306">
        <ele>128.6</ele>
        <time>2026-01-13T13:13:56Z</time>
      </trkpt>
      <trkpt lat="48.62151" lon="2.00318">
        <ele>128.6</ele>
        <time>2026-01-13T13:13:57Z</time>
      </trkpt>
      <trkpt lat="48.62152" lon="2.00322">
        <ele>128.6</ele>
        <time>2026-01-13T13:13:58Z</time>
      </trkpt>
      <trkpt lat="48.62154" lon="2.0033">
        <ele>128.6</ele>
        <time>2026-01-13T13:13:59Z</time>
      </trkpt>
      <trkpt lat="48.62155" lon="2.00339">
        <ele>128.8</ele>
        <time>2026-01-13T13:14:00Z</time>
      </trkpt>
      <trkpt lat="48.62156" lon="2.00347">
        <ele>129</ele>
        <time>2026-01-13T13:14:01Z</time>
      </trkpt>
      <trkpt lat="48.62157" lon="2.00355">
        <ele>129.4</ele>
        <time>2026-01-13T13:14:02Z</time>
      </trkpt>
      <trkpt lat="48.62158" lon="2.00363">
        <ele>129.4</ele>
        <time>2026-01-13T13:14:03Z</time>
      </trkpt>
      <trkpt lat="48.62158" lon="2.00372">
        <ele>129.4</ele>
        <time>2026-01-13T13:14:04Z</time>
      </trkpt>
      <trkpt lat="48.62159" lon="2.0038">
        <ele>129</ele>
        <time>2026-01-13T13:14:05Z</time>
      </trkpt>
      <trkpt lat="48.62161" lon="2.00388">
        <ele>129</ele>
        <time>2026-01-13T13:14:06Z</time>
      </trkpt>
      <trkpt lat="48.62161" lon="2.00397">
        <ele>129</ele>
        <time>2026-01-13T13:14:07Z</time>
      </trkpt>
      <trkpt lat="48.62163" lon="2.00405">
        <ele>129</ele>
        <time>2026-01-13T13:14:08Z</time>
      </trkpt>
      <trkpt lat="48.62165" lon="2.00417">
        <ele>130</ele>
        <time>2026-01-13T13:14:09Z</time>
      </trkpt>
      <trkpt lat="48.62166" lon="2.00421">
        <ele>130</ele>
        <time>2026-01-13T13:14:10Z</time>
      </trkpt>
      <trkpt lat="48.62167" lon="2.00429">
        <ele>130</ele>
        <time>2026-01-13T13:14:11Z</time>
      </trkpt>
      <trkpt lat="48.62168" lon="2.00437">
        <ele>130</ele>
        <time>2026-01-13T13:14:12Z</time>
      </trkpt>
      <trkpt lat="48.62168" lon="2.00446">
        <ele>130</ele>
        <time>2026-01-13T13:14:13Z</time>
      </trkpt>
      <trkpt lat="48.6217" lon="2.00454">
        <ele>130.2</ele>
        <time>2026-01-13T13:14:14Z</time>
      </trkpt>
      <trkpt lat="48.62171" lon="2.00467">
        <ele>130.2</ele>
        <time>2026-01-13T13:14:15Z</time>
      </trkpt>
      <trkpt lat="48.62172" lon="2.00471">
        <ele>130.2</ele>
        <time>2026-01-13T13:14:16Z</time>
      </trkpt>
      <trkpt lat="48.62173" lon="2.00479">
        <ele>130.2</ele>
        <time>2026-01-13T13:14:17Z</time>
      </trkpt>
      <trkpt lat="48.62174" lon="2.00487">
        <ele>130.2</ele>
        <time>2026-01-13T13:14:18Z</time>
      </trkpt>
      <trkpt lat="48.62176" lon="2.005">
        <ele>130.4</ele>
        <time>2026-01-13T13:14:19Z</time>
      </trkpt>
      <trkpt lat="48.62176" lon="2.00505">
        <ele>130.8</ele>
        <time>2026-01-13T13:14:20Z</time>
      </trkpt>
      <trkpt lat="48.62177" lon="2.00513">
        <ele>130.8</ele>
        <time>2026-01-13T13:14:21Z</time>
      </trkpt>
      <trkpt lat="48.62179" lon="2.00526">
        <ele>130.8</ele>
        <time>2026-01-13T13:14:22Z</time>
      </trkpt>
      <trkpt lat="48.6218" lon="2.0053">
        <ele>130.4</ele>
        <time>2026-01-13T13:14:23Z</time>
      </trkpt>
      <trkpt lat="48.62181" lon="2.00539">
        <ele>130.4</ele>
        <time>2026-01-13T13:14:24Z</time>
      </trkpt>
      <trkpt lat="48.62182" lon="2.00547">
        <ele>130.4</ele>
        <time>2026-01-13T13:14:25Z</time>
      </trkpt>
      <trkpt lat="48.62183" lon="2.00556">
        <ele>130.4</ele>
        <time>2026-01-13T13:14:26Z</time>
      </trkpt>
      <trkpt lat="48.62184" lon="2.00564">
        <ele>130.4</ele>
        <time>2026-01-13T13:14:27Z</time>
      </trkpt>
      <trkpt lat="48.62185" lon="2.00573">
        <ele>130.4</ele>
        <time>2026-01-13T13:14:28Z</time>
      </trkpt>
      <trkpt lat="48.62187" lon="2.00586">
        <ele>130.4</ele>
        <time>2026-01-13T13:14:29Z</time>
      </trkpt>
      <trkpt lat="48.62187" lon="2.0059">
        <ele>130.4</ele>
        <time>2026-01-13T13:14:30Z</time>
      </trkpt>
      <trkpt lat="48.62188" lon="2.00599">
        <ele>130.4</ele>
        <time>2026-01-13T13:14:31Z</time>
      </trkpt>
      <trkpt lat="48.62189" lon="2.00608">
        <ele>130.4</ele>
        <time>2026-01-13T13:14:32Z</time>
      </trkpt>
      <trkpt lat="48.6219" lon="2.0062">
        <ele>130.8</ele>
        <time>2026-01-13T13:14:33Z</time>
      </trkpt>
      <trkpt lat="48.62191" lon="2.00625">
        <ele>131</ele>
        <time>2026-01-13T13:14:34Z</time>
      </trkpt>
      <trkpt lat="48.62192" lon="2.00633">
        <ele>131</ele>
        <time>2026-01-13T13:14:35Z</time>
      </trkpt>
      <trkpt lat="48.62193" lon="2.00641">
        <ele>131</ele>
        <time>2026-01-13T13:14:36Z</time>
      </trkpt>
      <trkpt lat="48.62194" lon="2.0065">
        <ele>131</ele>
        <time>2026-01-13T13:14:37Z</time>
      </trkpt>
      <trkpt lat="48.62195" lon="2.00658">
        <ele>131</ele>
        <time>2026-01-13T13:14:38Z</time>
      </trkpt>
      <trkpt lat="48.62196" lon="2.00667">
        <ele>131</ele>
        <time>2026-01-13T13:14:39Z</time>
      </trkpt>
      <trkpt lat="48.62197" lon="2.00675">
        <ele>130.6</ele>
        <time>2026-01-13T13:14:40Z</time>
      </trkpt>
      <trkpt lat="48.62198" lon="2.00684">
        <ele>130.6</ele>
        <time>2026-01-13T13:14:41Z</time>
      </trkpt>
      <trkpt lat="48.62198" lon="2.00693">
        <ele>130.6</ele>
        <time>2026-01-13T13:14:42Z</time>
      </trkpt>
      <trkpt lat="48.62199" lon="2.00705">
        <ele>130.6</ele>
        <time>2026-01-13T13:14:43Z</time>
      </trkpt>
      <trkpt lat="48.622" lon="2.00709">
        <ele>130.6</ele>
        <time>2026-01-13T13:14:44Z</time>
      </trkpt>
      <trkpt lat="48.62201" lon="2.00722">
        <ele>130.6</ele>
        <time>2026-01-13T13:14:45Z</time>
      </trkpt>
      <trkpt lat="48.62202" lon="2.00726">
        <ele>131.6</ele>
        <time>2026-01-13T13:14:46Z</time>
      </trkpt>
      <trkpt lat="48.62202" lon="2.00734">
        <ele>131.8</ele>
        <time>2026-01-13T13:14:47Z</time>
      </trkpt>
      <trkpt lat="48.62203" lon="2.00747">
        <ele>132.2</ele>
        <time>2026-01-13T13:14:48Z</time>
      </trkpt>
      <trkpt lat="48.62203" lon="2.00751">
        <ele>132.2</ele>
        <time>2026-01-13T13:14:49Z</time>
      </trkpt>
      <trkpt lat="48.62204" lon="2.00759">
        <ele>132.6</ele>
        <time>2026-01-13T13:14:50Z</time>
      </trkpt>
      <trkpt lat="48.62204" lon="2.00767">
        <ele>133</ele>
        <time>2026-01-13T13:14:51Z</time>
      </trkpt>
      <trkpt lat="48.62205" lon="2.00774">
        <ele>133</ele>
        <time>2026-01-13T13:14:52Z</time>
      </trkpt>
      <trkpt lat="48.62206" lon="2.00781">
        <ele>133</ele>
        <time>2026-01-13T13:14:53Z</time>
      </trkpt>
      <trkpt lat="48.62206" lon="2.00789">
        <ele>133</ele>
        <time>2026-01-13T13:14:54Z</time>
      </trkpt>
      <trkpt lat="48.62207" lon="2.00796">
        <ele>133</ele>
        <time>2026-01-13T13:14:55Z</time>
      </trkpt>
      <trkpt lat="48.62207" lon="2.00802">
        <ele>134</ele>
        <time>2026-01-13T13:14:56Z</time>
      </trkpt>
      <trkpt lat="48.62208" lon="2.00809">
        <ele>134.4</ele>
        <time>2026-01-13T13:14:57Z</time>
      </trkpt>
      <trkpt lat="48.62209" lon="2.00816">
        <ele>134.8</ele>
        <time>2026-01-13T13:14:58Z</time>
      </trkpt>
      <trkpt lat="48.62209" lon="2.00822">
        <ele>135</ele>
        <time>2026-01-13T13:14:59Z</time>
      </trkpt>
      <trkpt lat="48.6221" lon="2.00828">
        <ele>135.4</ele>
        <time>2026-01-13T13:15:00Z</time>
      </trkpt>
      <trkpt lat="48.6221" lon="2.00834">
        <ele>135.6</ele>
        <time>2026-01-13T13:15:01Z</time>
      </trkpt>
      <trkpt lat="48.62211" lon="2.0084">
        <ele>135.6</ele>
        <time>2026-01-13T13:15:02Z</time>
      </trkpt>
      <trkpt lat="48.62211" lon="2.00846">
        <ele>135.6</ele>
        <time>2026-01-13T13:15:03Z</time>
      </trkpt>
      <trkpt lat="48.62212" lon="2.00852">
        <ele>135.6</ele>
        <time>2026-01-13T13:15:04Z</time>
      </trkpt>
      <trkpt lat="48.62213" lon="2.00858">
        <ele>136</ele>
        <time>2026-01-13T13:15:05Z</time>
      </trkpt>
      <trkpt lat="48.62214" lon="2.00864">
        <ele>136.4</ele>
        <time>2026-01-13T13:15:06Z</time>
      </trkpt>
      <trkpt lat="48.62215" lon="2.0087">
        <ele>137</ele>
        <time>2026-01-13T13:15:07Z</time>
      </trkpt>
      <trkpt lat="48.62216" lon="2.00875">
        <ele>137</ele>
        <time>2026-01-13T13:15:08Z</time>
      </trkpt>
      <trkpt lat="48.62217" lon="2.00884">
        <ele>137.2</ele>
        <time>2026-01-13T13:15:09Z</time>
      </trkpt>
      <trkpt lat="48.62218" lon="2.00886">
        <ele>137.6</ele>
        <time>2026-01-13T13:15:10Z</time>
      </trkpt>
      <trkpt lat="48.62219" lon="2.00892">
        <ele>137.8</ele>
        <time>2026-01-13T13:15:11Z</time>
      </trkpt>
      <trkpt lat="48.6222" lon="2.00898">
        <ele>137.8</ele>
        <time>2026-01-13T13:15:12Z</time>
      </trkpt>
      <trkpt lat="48.6222" lon="2.00903">
        <ele>137.8</ele>
        <time>2026-01-13T13:15:13Z</time>
      </trkpt>
      <trkpt lat="48.62221" lon="2.00908">
        <ele>137.8</ele>
        <time>2026-01-13T13:15:14Z</time>
      </trkpt>
      <trkpt lat="48.62221" lon="2.00914">
        <ele>138.8</ele>
        <time>2026-01-13T13:15:15Z</time>
      </trkpt>
      <trkpt lat="48.62222" lon="2.00921">
        <ele>139.2</ele>
        <time>2026-01-13T13:15:16Z</time>
      </trkpt>
      <trkpt lat="48.62222" lon="2.00924">
        <ele>139.2</ele>
        <time>2026-01-13T13:15:17Z</time>
      </trkpt>
      <trkpt lat="48.62223" lon="2.00929">
        <ele>139.2</ele>
        <time>2026-01-13T13:15:18Z</time>
      </trkpt>
      <trkpt lat="48.62224" lon="2.00936">
        <ele>139.2</ele>
        <time>2026-01-13T13:15:19Z</time>
      </trkpt>
      <trkpt lat="48.62224" lon="2.00939">
        <ele>139.8</ele>
        <time>2026-01-13T13:15:20Z</time>
      </trkpt>
      <trkpt lat="48.62224" lon="2.00947">
        <ele>140.4</ele>
        <time>2026-01-13T13:15:21Z</time>
      </trkpt>
      <trkpt lat="48.62225" lon="2.00949">
        <ele>140.6</ele>
        <time>2026-01-13T13:15:22Z</time>
      </trkpt>
      <trkpt lat="48.62225" lon="2.00955">
        <ele>140.8</ele>
        <time>2026-01-13T13:15:23Z</time>
      </trkpt>
      <trkpt lat="48.62226" lon="2.0096">
        <ele>140.8</ele>
        <time>2026-01-13T13:15:24Z</time>
      </trkpt>
      <trkpt lat="48.62226" lon="2.00965">
        <ele>140.8</ele>
        <time>2026-01-13T13:15:25Z</time>
      </trkpt>
      <trkpt lat="48.62227" lon="2.00971">
        <ele>140.8</ele>
        <time>2026-01-13T13:15:26Z</time>
      </trkpt>
      <trkpt lat="48.62227" lon="2.00976">
        <ele>141.2</ele>
        <time>2026-01-13T13:15:27Z</time>
      </trkpt>
      <trkpt lat="48.62228" lon="2.00981">
        <ele>141.8</ele>
        <time>2026-01-13T13:15:28Z</time>
      </trkpt>
      <trkpt lat="48.62228" lon="2.00987">
        <ele>141.8</ele>
        <time>2026-01-13T13:15:29Z</time>
      </trkpt>
      <trkpt lat="48.62229" lon="2.00992">
        <ele>141.8</ele>
        <time>2026-01-13T13:15:30Z</time>
      </trkpt>
      <trkpt lat="48.62229" lon="2.00997">
        <ele>141.8</ele>
        <time>2026-01-13T13:15:31Z</time>
      </trkpt>
      <trkpt lat="48.6223" lon="2.01002">
        <ele>142.2</ele>
        <time>2026-01-13T13:15:32Z</time>
      </trkpt>
      <trkpt lat="48.62231" lon="2.01007">
        <ele>142.6</ele>
        <time>2026-01-13T13:15:33Z</time>
      </trkpt>
      <trkpt lat="48.62232" lon="2.01013">
        <ele>142.6</ele>
        <time>2026-01-13T13:15:34Z</time>
      </trkpt>
      <trkpt lat="48.62231" lon="2.01018">
        <ele>142.6</ele>
        <time>2026-01-13T13:15:35Z</time>
      </trkpt>
      <trkpt lat="48.62232" lon="2.01023">
        <ele>142.6</ele>
        <time>2026-01-13T13:15:36Z</time>
      </trkpt>
      <trkpt lat="48.62234" lon="2.01029">
        <ele>143.2</ele>
        <time>2026-01-13T13:15:37Z</time>
      </trkpt>
      <trkpt lat="48.62234" lon="2.01034">
        <ele>143.8</ele>
        <time>2026-01-13T13:15:38Z</time>
      </trkpt>
      <trkpt lat="48.62234" lon="2.01039">
        <ele>144.2</ele>
        <time>2026-01-13T13:15:39Z</time>
      </trkpt>
      <trkpt lat="48.62235" lon="2.01044">
        <ele>144.2</ele>
        <time>2026-01-13T13:15:40Z</time>
      </trkpt>
      <trkpt lat="48.62236" lon="2.01048">
        <ele>144.2</ele>
        <time>2026-01-13T13:15:41Z</time>
      </trkpt>
      <trkpt lat="48.62237" lon="2.01053">
        <ele>144.2</ele>
        <time>2026-01-13T13:15:42Z</time>
      </trkpt>
      <trkpt lat="48.62237" lon="2.01058">
        <ele>144.6</ele>
        <time>2026-01-13T13:15:43Z</time>
      </trkpt>
      <trkpt lat="48.62238" lon="2.01066">
        <ele>144.6</ele>
        <time>2026-01-13T13:15:44Z</time>
      </trkpt>
      <trkpt lat="48.62239" lon="2.01069">
        <ele>144.6</ele>
        <time>2026-01-13T13:15:45Z</time>
      </trkpt>
      <trkpt lat="48.6224" lon="2.01075">
        <ele>144.6</ele>
        <time>2026-01-13T13:15:46Z</time>
      </trkpt>
      <trkpt lat="48.62241" lon="2.01081">
        <ele>144.6</ele>
        <time>2026-01-13T13:15:47Z</time>
      </trkpt>
      <trkpt lat="48.62242" lon="2.01089">
        <ele>145.4</ele>
        <time>2026-01-13T13:15:48Z</time>
      </trkpt>
      <trkpt lat="48.62242" lon="2.01092">
        <ele>145.4</ele>
        <time>2026-01-13T13:15:49Z</time>
      </trkpt>
      <trkpt lat="48.62242" lon="2.01098">
        <ele>145.4</ele>
        <time>2026-01-13T13:15:50Z</time>
      </trkpt>
      <trkpt lat="48.62243" lon="2.01104">
        <ele>145.4</ele>
        <time>2026-01-13T13:15:51Z</time>
      </trkpt>
      <trkpt lat="48.62243" lon="2.0111">
        <ele>146.4</ele>
        <time>2026-01-13T13:15:52Z</time>
      </trkpt>
      <trkpt lat="48.62243" lon="2.01116">
        <ele>146.8</ele>
        <time>2026-01-13T13:15:53Z</time>
      </trkpt>
      <trkpt lat="48.62244" lon="2.01122">
        <ele>146.8</ele>
        <time>2026-01-13T13:15:54Z</time>
      </trkpt>
      <trkpt lat="48.62245" lon="2.01129">
        <ele>146.8</ele>
        <time>2026-01-13T13:15:55Z</time>
      </trkpt>
      <trkpt lat="48.62245" lon="2.01135">
        <ele>146.8</ele>
        <time>2026-01-13T13:15:56Z</time>
      </trkpt>
      <trkpt lat="48.62245" lon="2.01143">
        <ele>146.8</ele>
        <time>2026-01-13T13:15:57Z</time>
      </trkpt>
      <trkpt lat="48.62246" lon="2.0115">
        <ele>147</ele>
        <time>2026-01-13T13:15:58Z</time>
      </trkpt>
      <trkpt lat="48.62247" lon="2.01157">
        <ele>147</ele>
        <time>2026-01-13T13:15:59Z</time>
      </trkpt>
      <trkpt lat="48.62247" lon="2.01165">
        <ele>147</ele>
        <time>2026-01-13T13:16:00Z</time>
      </trkpt>
      <trkpt lat="48.62248" lon="2.01172">
        <ele>146.8</ele>
        <time>2026-01-13T13:16:01Z</time>
      </trkpt>
      <trkpt lat="48.62248" lon="2.0118">
        <ele>146.8</ele>
        <time>2026-01-13T13:16:02Z</time>
      </trkpt>
      <trkpt lat="48.62248" lon="2.01188">
        <ele>146.8</ele>
        <time>2026-01-13T13:16:03Z</time>
      </trkpt>
      <trkpt lat="48.62248" lon="2.01197">
        <ele>146.8</ele>
        <time>2026-01-13T13:16:04Z</time>
      </trkpt>
      <trkpt lat="48.62248" lon="2.01205">
        <ele>146.8</ele>
        <time>2026-01-13T13:16:05Z</time>
      </trkpt>
      <trkpt lat="48.62248" lon="2.01215">
        <ele>145.8</ele>
        <time>2026-01-13T13:16:06Z</time>
      </trkpt>
      <trkpt lat="48.62248" lon="2.01224">
        <ele>144.8</ele>
        <time>2026-01-13T13:16:07Z</time>
      </trkpt>
      <trkpt lat="48.62248" lon="2.01235">
        <ele>144</ele>
        <time>2026-01-13T13:16:08Z</time>
      </trkpt>
      <trkpt lat="48.62248" lon="2.01245">
        <ele>143.6</ele>
        <time>2026-01-13T13:16:09Z</time>
      </trkpt>
      <trkpt lat="48.62248" lon="2.01256">
        <ele>143.6</ele>
        <time>2026-01-13T13:16:10Z</time>
      </trkpt>
      <trkpt lat="48.62248" lon="2.01267">
        <ele>143.6</ele>
        <time>2026-01-13T13:16:11Z</time>
      </trkpt>
      <trkpt lat="48.62248" lon="2.01278">
        <ele>143.6</ele>
        <time>2026-01-13T13:16:12Z</time>
      </trkpt>
      <trkpt lat="48.62248" lon="2.01289">
        <ele>142.6</ele>
        <time>2026-01-13T13:16:13Z</time>
      </trkpt>
      <trkpt lat="48.62248" lon="2.01301">
        <ele>142.2</ele>
        <time>2026-01-13T13:16:14Z</time>
      </trkpt>
      <trkpt lat="48.62247" lon="2.01312">
        <ele>141.2</ele>
        <time>2026-01-13T13:16:15Z</time>
      </trkpt>
      <trkpt lat="48.62247" lon="2.01324">
        <ele>141.2</ele>
        <time>2026-01-13T13:16:16Z</time>
      </trkpt>
      <trkpt lat="48.62247" lon="2.01336">
        <ele>141.2</ele>
        <time>2026-01-13T13:16:17Z</time>
      </trkpt>
      <trkpt lat="48.62247" lon="2.01349">
        <ele>141.2</ele>
        <time>2026-01-13T13:16:18Z</time>
      </trkpt>
      <trkpt lat="48.62247" lon="2.01361">
        <ele>140.2</ele>
        <time>2026-01-13T13:16:19Z</time>
      </trkpt>
      <trkpt lat="48.62247" lon="2.01374">
        <ele>140.2</ele>
        <time>2026-01-13T13:16:20Z</time>
      </trkpt>
      <trkpt lat="48.62247" lon="2.01386">
        <ele>140.2</ele>
        <time>2026-01-13T13:16:21Z</time>
      </trkpt>
      <trkpt lat="48.62247" lon="2.01399">
        <ele>140.2</ele>
        <time>2026-01-13T13:16:22Z</time>
      </trkpt>
      <trkpt lat="48.62247" lon="2.01411">
        <ele>139.2</ele>
        <time>2026-01-13T13:16:23Z</time>
      </trkpt>
      <trkpt lat="48.62246" lon="2.01424">
        <ele>139.2</ele>
        <time>2026-01-13T13:16:24Z</time>
      </trkpt>
      <trkpt lat="48.62246" lon="2.01437">
        <ele>139.2</ele>
        <time>2026-01-13T13:16:25Z</time>
      </trkpt>
      <trkpt lat="48.62246" lon="2.01449">
        <ele>139.2</ele>
        <time>2026-01-13T13:16:26Z</time>
      </trkpt>
      <trkpt lat="48.62246" lon="2.01462">
        <ele>138.4</ele>
        <time>2026-01-13T13:16:27Z</time>
      </trkpt>
      <trkpt lat="48.62246" lon="2.01474">
        <ele>137.8</ele>
        <time>2026-01-13T13:16:28Z</time>
      </trkpt>
      <trkpt lat="48.62246" lon="2.01486">
        <ele>137.8</ele>
        <time>2026-01-13T13:16:29Z</time>
      </trkpt>
      <trkpt lat="48.62246" lon="2.01498">
        <ele>137.8</ele>
        <time>2026-01-13T13:16:30Z</time>
      </trkpt>
      <trkpt lat="48.62246" lon="2.0151">
        <ele>138.8</ele>
        <time>2026-01-13T13:16:31Z</time>
      </trkpt>
      <trkpt lat="48.62245" lon="2.01523">
        <ele>138.8</ele>
        <time>2026-01-13T13:16:32Z</time>
      </trkpt>
      <trkpt lat="48.62245" lon="2.01535">
        <ele>138.8</ele>
        <time>2026-01-13T13:16:33Z</time>
      </trkpt>
      <trkpt lat="48.62245" lon="2.01547">
        <ele>138.2</ele>
        <time>2026-01-13T13:16:34Z</time>
      </trkpt>
      <trkpt lat="48.62245" lon="2.01559">
        <ele>138.2</ele>
        <time>2026-01-13T13:16:35Z</time>
      </trkpt>
      <trkpt lat="48.62245" lon="2.01572">
        <ele>138.2</ele>
        <time>2026-01-13T13:16:36Z</time>
      </trkpt>
      <trkpt lat="48.62245" lon="2.01584">
        <ele>138.2</ele>
        <time>2026-01-13T13:16:37Z</time>
      </trkpt>
      <trkpt lat="48.62245" lon="2.01596">
        <ele>137.4</ele>
        <time>2026-01-13T13:16:38Z</time>
      </trkpt>
      <trkpt lat="48.62245" lon="2.01609">
        <ele>137.4</ele>
        <time>2026-01-13T13:16:39Z</time>
      </trkpt>
      <trkpt lat="48.62246" lon="2.01621">
        <ele>137.4</ele>
        <time>2026-01-13T13:16:40Z</time>
      </trkpt>
      <trkpt lat="48.62246" lon="2.01633">
        <ele>137.4</ele>
        <time>2026-01-13T13:16:41Z</time>
      </trkpt>
      <trkpt lat="48.62246" lon="2.01645">
        <ele>137.4</ele>
        <time>2026-01-13T13:16:42Z</time>
      </trkpt>
      <trkpt lat="48.62245" lon="2.01657">
        <ele>137.8</ele>
        <time>2026-01-13T13:16:43Z</time>
      </trkpt>
      <trkpt lat="48.62243" lon="2.01674">
        <ele>137.8</ele>
        <time>2026-01-13T13:16:44Z</time>
      </trkpt>
      <trkpt lat="48.62242" lon="2.01679">
        <ele>137.8</ele>
        <time>2026-01-13T13:16:45Z</time>
      </trkpt>
      <trkpt lat="48.6224" lon="2.0169">
        <ele>137.8</ele>
        <time>2026-01-13T13:16:46Z</time>
      </trkpt>
      <trkpt lat="48.6224" lon="2.01702">
        <ele>137.6</ele>
        <time>2026-01-13T13:16:47Z</time>
      </trkpt>
      <trkpt lat="48.62238" lon="2.01714">
        <ele>137.4</ele>
        <time>2026-01-13T13:16:48Z</time>
      </trkpt>
      <trkpt lat="48.62237" lon="2.01725">
        <ele>136.4</ele>
        <time>2026-01-13T13:16:49Z</time>
      </trkpt>
      <trkpt lat="48.62236" lon="2.01737">
        <ele>136.4</ele>
        <time>2026-01-13T13:16:50Z</time>
      </trkpt>
      <trkpt lat="48.62234" lon="2.01754">
        <ele>136.4</ele>
        <time>2026-01-13T13:16:51Z</time>
      </trkpt>
      <trkpt lat="48.62233" lon="2.01759">
        <ele>137.4</ele>
        <time>2026-01-13T13:16:52Z</time>
      </trkpt>
      <trkpt lat="48.62232" lon="2.01771">
        <ele>137.6</ele>
        <time>2026-01-13T13:16:53Z</time>
      </trkpt>
      <trkpt lat="48.62231" lon="2.01783">
        <ele>137.6</ele>
        <time>2026-01-13T13:16:54Z</time>
      </trkpt>
      <trkpt lat="48.6223" lon="2.01795">
        <ele>137.6</ele>
        <time>2026-01-13T13:16:55Z</time>
      </trkpt>
      <trkpt lat="48.6223" lon="2.01808">
        <ele>137.6</ele>
        <time>2026-01-13T13:16:56Z</time>
      </trkpt>
      <trkpt lat="48.62229" lon="2.01826">
        <ele>138.2</ele>
        <time>2026-01-13T13:16:57Z</time>
      </trkpt>
      <trkpt lat="48.62229" lon="2.01832">
        <ele>138.2</ele>
        <time>2026-01-13T13:16:58Z</time>
      </trkpt>
      <trkpt lat="48.62229" lon="2.01844">
        <ele>138.2</ele>
        <time>2026-01-13T13:16:59Z</time>
      </trkpt>
      <trkpt lat="48.6223" lon="2.01855">
        <ele>138.2</ele>
        <time>2026-01-13T13:17:00Z</time>
      </trkpt>
      <trkpt lat="48.62231" lon="2.01864">
        <ele>138.2</ele>
        <time>2026-01-13T13:17:01Z</time>
      </trkpt>
      <trkpt lat="48.62234" lon="2.0187">
        <ele>138.2</ele>
        <time>2026-01-13T13:17:02Z</time>
      </trkpt>
      <trkpt lat="48.62239" lon="2.01873">
        <ele>138.2</ele>
        <time>2026-01-13T13:17:03Z</time>
      </trkpt>
      <trkpt lat="48.62243" lon="2.01871">
        <ele>138.8</ele>
        <time>2026-01-13T13:17:04Z</time>
      </trkpt>
      <trkpt lat="48.62245" lon="2.01867">
        <ele>139.2</ele>
        <time>2026-01-13T13:17:05Z</time>
      </trkpt>
      <trkpt lat="48.62246" lon="2.01861">
        <ele>139.6</ele>
        <time>2026-01-13T13:17:06Z</time>
      </trkpt>
      <trkpt lat="48.62244" lon="2.01857">
        <ele>139.6</ele>
        <time>2026-01-13T13:17:07Z</time>
      </trkpt>
      <trkpt lat="48.62242" lon="2.01852">
        <ele>139.6</ele>
        <time>2026-01-13T13:17:08Z</time>
      </trkpt>
      <trkpt lat="48.62242" lon="2.01847">
        <ele>139</ele>
        <time>2026-01-13T13:17:09Z</time>
      </trkpt>
      <trkpt lat="48.62244" lon="2.01841">
        <ele>138.8</ele>
        <time>2026-01-13T13:17:10Z</time>
      </trkpt>
      <trkpt lat="48.62247" lon="2.01837">
        <ele>138.8</ele>
        <time>2026-01-13T13:17:11Z</time>
      </trkpt>
      <trkpt lat="48.6225" lon="2.01834">
        <ele>138.8</ele>
        <time>2026-01-13T13:17:12Z</time>
      </trkpt>
      <trkpt lat="48.62254" lon="2.01831">
        <ele>138.8</ele>
        <time>2026-01-13T13:17:13Z</time>
      </trkpt>
      <trkpt lat="48.62256" lon="2.01828">
        <ele>139</ele>
        <time>2026-01-13T13:17:14Z</time>
      </trkpt>
      <trkpt lat="48.62257" lon="2.01825">
        <ele>139.4</ele>
        <time>2026-01-13T13:17:15Z</time>
      </trkpt>
      <trkpt lat="48.62258" lon="2.01823">
        <ele>140.2</ele>
        <time>2026-01-13T13:17:16Z</time>
      </trkpt>
      <trkpt lat="48.62259" lon="2.01822">
        <ele>140.2</ele>
        <time>2026-01-13T13:17:17Z</time>
      </trkpt>
      <trkpt lat="48.62259" lon="2.01822">
        <ele>140.2</ele>
        <time>2026-01-13T13:17:18Z</time>
      </trkpt>
      <trkpt lat="48.62259" lon="2.01821">
        <ele>140.2</ele>
        <time>2026-01-13T13:17:19Z</time>
      </trkpt>
      <trkpt lat="48.62259" lon="2.01821">
        <ele>140.2</ele>
        <time>2026-01-13T13:17:20Z</time>
      </trkpt>
      <trkpt lat="48.62259" lon="2.01821">
        <ele>140</ele>
        <time>2026-01-13T13:17:21Z</time>
      </trkpt>
      <trkpt lat="48.62259" lon="2.01827">
        <ele>140.8</ele>
        <time>2026-01-13T13:20:37Z</time>
      </trkpt>
      <trkpt lat="48.62261" lon="2.01826">
        <ele>140.8</ele>
        <time>2026-01-13T13:20:38Z</time>
      </trkpt>
      <trkpt lat="48.62263" lon="2.01826">
        <ele>140.8</ele>
        <time>2026-01-13T13:20:39Z</time>
      </trkpt>
      <trkpt lat="48.62265" lon="2.01824">
        <ele>140.8</ele>
        <time>2026-01-13T13:20:40Z</time>
      </trkpt>
      <trkpt lat="48.62263" lon="2.01823">
        <ele>140.8</ele>
        <time>2026-01-13T13:20:41Z</time>
      </trkpt>
      <trkpt lat="48.62264" lon="2.01821">
        <ele>140.8</ele>
        <time>2026-01-13T13:20:42Z</time>
      </trkpt>
      <trkpt lat="48.62264" lon="2.01821">
        <ele>140</ele>
        <time>2026-01-13T13:20:43Z</time>
      </trkpt>
      <trkpt lat="48.62264" lon="2.01819">
        <ele>139.8</ele>
        <time>2026-01-13T13:20:44Z</time>
      </trkpt>
      <trkpt lat="48.62265" lon="2.01818">
        <ele>139.8</ele>
        <time>2026-01-13T13:20:45Z</time>
      </trkpt>
      <trkpt lat="48.62264" lon="2.01818">
        <ele>139.8</ele>
        <time>2026-01-13T13:20:46Z</time>
      </trkpt>
      <trkpt lat="48.62264" lon="2.01818">
        <ele>139.8</ele>
        <time>2026-01-13T13:20:47Z</time>
      </trkpt>
    </trkseg>
  </trk>
</gpx>